<?xml version='1.0' encoding='UTF-8'?><gpx version="1.1" creator="JPX - https://github.com/jenetics/jpx" xmlns="http://www.topografix.com/GPX/1/1"><trk><trkseg><trkpt lat="48.41127722012471" lon="-4.088822026910394"><ele>81.0</ele><time>2026-03-22T08:34:07.999Z</time></trkpt><trkpt lat="48.411171035655904" lon="-4.088816184205862"><ele>81.0</ele><time>2026-03-22T08:34:09.999Z</time></trkpt><trkpt lat="48.411119180556604" lon="-4.088716496749759"><ele>81.0</ele><time>2026-03-22T08:34:11.999Z</time></trkpt><trkpt lat="48.411048799898914" lon="-4.0885841567155605"><ele>81.0</ele><time>2026-03-22T08:34:13.999Z</time></trkpt><trkpt lat="48.410953478808544" lon="-4.088475286624623"><ele>81.0</ele><time>2026-03-22T08:34:15.999Z</time></trkpt><trkpt lat="48.4108812978683" lon="-4.088440050303074"><ele>81.0</ele><time>2026-03-22T08:34:16.999Z</time></trkpt><trkpt lat="48.41083061366788" lon="-4.088380820712318"><ele>81.0</ele><time>2026-03-22T08:34:17.999Z</time></trkpt><trkpt lat="48.41081106908144" lon="-4.088287933205779"><ele>81.0</ele><time>2026-03-22T08:34:18.999Z</time></trkpt><trkpt lat="48.410829700754825" lon="-4.088184518757241"><ele>81.0</ele><time>2026-03-22T08:34:19.999Z</time></trkpt><trkpt lat="48.41088113640942" lon="-4.088109325574699"><ele>81.0</ele><time>2026-03-22T08:34:20.999Z</time></trkpt><trkpt lat="48.410956419460746" lon="-4.08809857243445"><ele>81.0</ele><time>2026-03-22T08:34:21.999Z</time></trkpt><trkpt lat="48.411032720557365" lon="-4.088086085629147"><ele>81.0</ele><time>2026-03-22T08:34:22.999Z</time></trkpt><trkpt lat="48.41110684529927" lon="-4.088189474871965"><ele>81.0</ele><time>2026-03-22T08:34:23.999Z</time></trkpt><trkpt lat="48.41108490100771" lon="-4.088360492786786"><ele>81.0</ele><time>2026-03-22T08:34:24.999Z</time></trkpt><trkpt lat="48.41101801080696" lon="-4.088480113124791"><ele>81.0</ele><time>2026-03-22T08:34:25.999Z</time></trkpt><trkpt lat="48.41093728020879" lon="-4.088510397688714"><ele>81.0</ele><time>2026-03-22T08:34:26.999Z</time></trkpt><trkpt lat="48.41086296317087" lon="-4.088486076060375"><ele>81.0</ele><time>2026-03-22T08:34:27.999Z</time></trkpt><trkpt lat="48.4107910546473" lon="-4.088452832627787"><ele>81.0</ele><time>2026-03-22T08:34:28.999Z</time></trkpt><trkpt lat="48.41077978975744" lon="-4.088302661154886"><ele>81.0</ele><time>2026-03-22T08:34:29.999Z</time></trkpt><trkpt lat="48.410797339307614" lon="-4.088186650416593"><ele>81.0</ele><time>2026-03-22T08:34:30.999Z</time></trkpt><trkpt lat="48.410865980623846" lon="-4.088091011636236"><ele>81.0</ele><time>2026-03-22T08:34:31.999Z</time></trkpt><trkpt lat="48.410936713677756" lon="-4.088048418887983"><ele>81.0</ele><time>2026-03-22T08:34:32.999Z</time></trkpt><trkpt lat="48.41098120001875" lon="-4.087974076082369"><ele>81.0</ele><time>2026-03-22T08:34:33.999Z</time></trkpt><trkpt lat="48.410818862559516" lon="-4.088029036253255"><ele>81.33333333333333</ele><time>2026-03-22T08:34:35.999Z</time></trkpt><trkpt lat="48.41088965392835" lon="-4.087570743318637"><ele>81.66666666666666</ele><time>2026-03-22T08:34:36.999Z</time></trkpt><trkpt lat="48.410832468107785" lon="-4.0874135909358795"><ele>82.0</ele><time>2026-03-22T08:34:37.999Z</time></trkpt><trkpt lat="48.41076916602091" lon="-4.08722229619568"><ele>82.19999999999999</ele><time>2026-03-22T08:34:38.999Z</time></trkpt><trkpt lat="48.41071186979085" lon="-4.087025020910006"><ele>82.4</ele><time>2026-03-22T08:34:39.999Z</time></trkpt><trkpt lat="48.41066133603403" lon="-4.0868591163386645"><ele>82.6</ele><time>2026-03-22T08:34:40.999Z</time></trkpt><trkpt lat="48.41062298569309" lon="-4.086732756245367"><ele>82.80000000000001</ele><time>2026-03-22T08:34:41.999Z</time></trkpt><trkpt lat="48.4105923375005" lon="-4.086647573433607"><ele>83.0</ele><time>2026-03-22T08:34:42.999Z</time></trkpt><trkpt lat="48.410549712318065" lon="-4.086547532574127"><ele>83.0</ele><time>2026-03-22T08:34:50.999Z</time></trkpt><trkpt lat="48.41060007894498" lon="-4.086365504305342"><ele>83.0</ele><time>2026-03-22T08:34:52.998Z</time></trkpt><trkpt lat="48.4106404033087" lon="-4.086254411496553"><ele>83.0</ele><time>2026-03-22T08:34:53.998Z</time></trkpt><trkpt lat="48.41068087326264" lon="-4.086105151137333"><ele>83.0</ele><time>2026-03-22T08:34:54.998Z</time></trkpt><trkpt lat="48.41069573674961" lon="-4.085958571963338"><ele>83.0</ele><time>2026-03-22T08:34:55.998Z</time></trkpt><trkpt lat="48.41070887589574" lon="-4.085814574107578"><ele>83.5</ele><time>2026-03-22T08:34:56.998Z</time></trkpt><trkpt lat="48.410744750821685" lon="-4.085718049163478"><ele>84.0</ele><time>2026-03-22T08:34:57.998Z</time></trkpt><trkpt lat="48.4108089725077" lon="-4.085640272625416"><ele>84.5</ele><time>2026-03-22T08:34:58.998Z</time></trkpt><trkpt lat="48.410892550785114" lon="-4.085594667054008"><ele>85.0</ele><time>2026-03-22T08:34:59.998Z</time></trkpt><trkpt lat="48.4109819801464" lon="-4.085596377478718"><ele>85.5</ele><time>2026-03-22T08:35:00.998Z</time></trkpt><trkpt lat="48.41107088829301" lon="-4.085615719427672"><ele>86.0</ele><time>2026-03-22T08:35:01.998Z</time></trkpt><trkpt lat="48.41115011328257" lon="-4.085615592062478"><ele>86.0</ele><time>2026-03-22T08:35:02.998Z</time></trkpt><trkpt lat="48.41121879979136" lon="-4.085590805135615"><ele>86.0</ele><time>2026-03-22T08:35:04Z</time></trkpt><trkpt lat="48.41128461465764" lon="-4.085558201263351"><ele>86.0</ele><time>2026-03-22T08:35:05Z</time></trkpt><trkpt lat="48.41128645818169" lon="-4.085331361862344"><ele>86.0</ele><time>2026-03-22T08:35:06Z</time></trkpt><trkpt lat="48.41128778638957" lon="-4.085158277592116"><ele>86.0</ele><time>2026-03-22T08:35:07Z</time></trkpt><trkpt lat="48.41127050854023" lon="-4.085000885291942"><ele>86.25</ele><time>2026-03-22T08:35:08Z</time></trkpt><trkpt lat="48.41125247021453" lon="-4.0848242334821805"><ele>86.5</ele><time>2026-03-22T08:35:09Z</time></trkpt><trkpt lat="48.41123508478798" lon="-4.084656041176381"><ele>86.75</ele><time>2026-03-22T08:35:10Z</time></trkpt><trkpt lat="48.41121682018437" lon="-4.084485414824474"><ele>87.0</ele><time>2026-03-22T08:35:11Z</time></trkpt><trkpt lat="48.41120438109714" lon="-4.084303061308774"><ele>87.0</ele><time>2026-03-22T08:35:12Z</time></trkpt><trkpt lat="48.41122084837262" lon="-4.084142787833599"><ele>87.0</ele><time>2026-03-22T08:35:13Z</time></trkpt><trkpt lat="48.411276153636436" lon="-4.083979658379388"><ele>87.0</ele><time>2026-03-22T08:35:14Z</time></trkpt><trkpt lat="48.41134724868445" lon="-4.083841112191071"><ele>87.0</ele><time>2026-03-22T08:35:15Z</time></trkpt><trkpt lat="48.41142752993971" lon="-4.083716588064595"><ele>87.25</ele><time>2026-03-22T08:35:16Z</time></trkpt><trkpt lat="48.411473555979235" lon="-4.083579783845721"><ele>87.5</ele><time>2026-03-22T08:35:17Z</time></trkpt><trkpt lat="48.4114849527422" lon="-4.083421395034215"><ele>87.75</ele><time>2026-03-22T08:35:18Z</time></trkpt><trkpt lat="48.41145825160082" lon="-4.083237264282051"><ele>88.0</ele><time>2026-03-22T08:35:19Z</time></trkpt><trkpt lat="48.411411532103045" lon="-4.083056082710951"><ele>87.75</ele><time>2026-03-22T08:35:20Z</time></trkpt><trkpt lat="48.411358218611795" lon="-4.082862002675011"><ele>87.5</ele><time>2026-03-22T08:35:21Z</time></trkpt><trkpt lat="48.411295246062444" lon="-4.082657069198427"><ele>87.25</ele><time>2026-03-22T08:35:22Z</time></trkpt><trkpt lat="48.411229478656935" lon="-4.0824382121967755"><ele>87.0</ele><time>2026-03-22T08:35:23Z</time></trkpt><trkpt lat="48.411169598389044" lon="-4.082232072776939"><ele>87.0</ele><time>2026-03-22T08:35:24Z</time></trkpt><trkpt lat="48.41112135398644" lon="-4.08206595132811"><ele>87.0</ele><time>2026-03-22T08:35:25Z</time></trkpt><trkpt lat="48.411066448703515" lon="-4.08190645676218"><ele>87.0</ele><time>2026-03-22T08:35:26Z</time></trkpt><trkpt lat="48.41100851899051" lon="-4.081748052154671"><ele>87.0</ele><time>2026-03-22T08:35:27Z</time></trkpt><trkpt lat="48.410959782217674" lon="-4.081567979856271"><ele>88.33333333333333</ele><time>2026-03-22T08:35:28Z</time></trkpt><trkpt lat="48.41092773512795" lon="-4.081348459185118"><ele>89.66666666666666</ele><time>2026-03-22T08:35:29Z</time></trkpt><trkpt lat="48.41088711134166" lon="-4.081082527756178"><ele>91.0</ele><time>2026-03-22T08:35:30Z</time></trkpt><trkpt lat="48.410793402692924" lon="-4.080822424483808"><ele>92.66666666666666</ele><time>2026-03-22T08:35:31Z</time></trkpt><trkpt lat="48.41069293586911" lon="-4.08054883919825"><ele>94.33333333333333</ele><time>2026-03-22T08:35:32Z</time></trkpt><trkpt lat="48.41062543303986" lon="-4.080317910863371"><ele>96.0</ele><time>2026-03-22T08:35:33Z</time></trkpt><trkpt lat="48.410551547405824" lon="-4.080114944601088"><ele>96.75</ele><time>2026-03-22T08:35:34Z</time></trkpt><trkpt lat="48.41049738909185" lon="-4.079920371568268"><ele>97.5</ele><time>2026-03-22T08:35:35Z</time></trkpt><trkpt lat="48.41045991551124" lon="-4.079706528946817"><ele>98.25</ele><time>2026-03-22T08:35:36Z</time></trkpt><trkpt lat="48.41043835527272" lon="-4.079484322738493"><ele>99.0</ele><time>2026-03-22T08:35:37Z</time></trkpt><trkpt lat="48.41042538773904" lon="-4.079261166004342"><ele>98.25</ele><time>2026-03-22T08:35:38Z</time></trkpt><trkpt lat="48.41041076571396" lon="-4.079047610215267"><ele>97.5</ele><time>2026-03-22T08:35:39Z</time></trkpt><trkpt lat="48.41041878213948" lon="-4.078847837320757"><ele>96.75</ele><time>2026-03-22T08:35:40Z</time></trkpt><trkpt lat="48.41045285562941" lon="-4.0786528838708795"><ele>96.0</ele><time>2026-03-22T08:35:41Z</time></trkpt><trkpt lat="48.410528027415104" lon="-4.078461716166188"><ele>96.0</ele><time>2026-03-22T08:35:42Z</time></trkpt><trkpt lat="48.41060864196976" lon="-4.078313554785335"><ele>96.0</ele><time>2026-03-22T08:35:43Z</time></trkpt><trkpt lat="48.41067424656076" lon="-4.078166346925277"><ele>96.0</ele><time>2026-03-22T08:35:44Z</time></trkpt><trkpt lat="48.41070750618883" lon="-4.078008267881132"><ele>96.0</ele><time>2026-03-22T08:35:45Z</time></trkpt><trkpt lat="48.410693645194975" lon="-4.077839057635815"><ele>96.0</ele><time>2026-03-22T08:35:46Z</time></trkpt><trkpt lat="48.41070670836852" lon="-4.077670828991214"><ele>96.0</ele><time>2026-03-22T08:35:47Z</time></trkpt><trkpt lat="48.410682306070406" lon="-4.077532525019026"><ele>96.0</ele><time>2026-03-22T08:35:47.999Z</time></trkpt><trkpt lat="48.41065757904652" lon="-4.077416265091784"><ele>96.0</ele><time>2026-03-22T08:35:48.999Z</time></trkpt><trkpt lat="48.410656040488526" lon="-4.077275112349272"><ele>96.0</ele><time>2026-03-22T08:35:50.999Z</time></trkpt><trkpt lat="48.410544224673664" lon="-4.077314565130153"><ele>95.19999999999999</ele><time>2026-03-22T08:35:51.999Z</time></trkpt><trkpt lat="48.41046105872757" lon="-4.077318492276841"><ele>94.39999999999999</ele><time>2026-03-22T08:35:52.999Z</time></trkpt><trkpt lat="48.41035704965933" lon="-4.077321932440098"><ele>93.6</ele><time>2026-03-22T08:35:53.999Z</time></trkpt><trkpt lat="48.41024220476697" lon="-4.077325731005599"><ele>92.8</ele><time>2026-03-22T08:35:54.999Z</time></trkpt><trkpt lat="48.41012250366372" lon="-4.0773296901914815"><ele>92.0</ele><time>2026-03-22T08:35:55.999Z</time></trkpt><trkpt lat="48.4100008178727" lon="-4.077333163265331"><ele>92.0</ele><time>2026-03-22T08:35:56.999Z</time></trkpt><trkpt lat="48.409873807327116" lon="-4.07733456678883"><ele>92.0</ele><time>2026-03-22T08:35:57.999Z</time></trkpt><trkpt lat="48.409741236968905" lon="-4.077336031745985"><ele>92.0</ele><time>2026-03-22T08:35:58.999Z</time></trkpt><trkpt lat="48.40963707085609" lon="-4.077337182825207"><ele>92.0</ele><time>2026-03-22T08:35:59.999Z</time></trkpt><trkpt lat="48.409559603848116" lon="-4.077336078799242"><ele>92.0</ele><time>2026-03-22T08:36:00.999Z</time></trkpt><trkpt lat="48.40949249290398" lon="-4.077335529403327"><ele>92.83333333333334</ele><time>2026-03-22T08:36:01.999Z</time></trkpt><trkpt lat="48.40940731198688" lon="-4.077332924605946"><ele>93.66666666666667</ele><time>2026-03-22T08:36:02.999Z</time></trkpt><trkpt lat="48.40931973012315" lon="-4.077329088492685"><ele>94.5</ele><time>2026-03-22T08:36:03.999Z</time></trkpt><trkpt lat="48.409235709106866" lon="-4.077323791328778"><ele>95.33333333333334</ele><time>2026-03-22T08:36:04.999Z</time></trkpt><trkpt lat="48.40913899491499" lon="-4.077316549165818"><ele>96.16666666666667</ele><time>2026-03-22T08:36:05.999Z</time></trkpt><trkpt lat="48.40904448840785" lon="-4.077309472318822"><ele>97.0</ele><time>2026-03-22T08:36:06.999Z</time></trkpt><trkpt lat="48.40895029439415" lon="-4.077302418870783"><ele>97.0</ele><time>2026-03-22T08:36:07.999Z</time></trkpt><trkpt lat="48.40885189695238" lon="-4.077292090308989"><ele>97.0</ele><time>2026-03-22T08:36:08.999Z</time></trkpt><trkpt lat="48.40875540005214" lon="-4.077281784298116"><ele>97.0</ele><time>2026-03-22T08:36:09.999Z</time></trkpt><trkpt lat="48.40865455745245" lon="-4.077269624179526"><ele>97.0</ele><time>2026-03-22T08:36:10.999Z</time></trkpt><trkpt lat="48.40855177516359" lon="-4.077255853592872"><ele>97.0</ele><time>2026-03-22T08:36:11.999Z</time></trkpt><trkpt lat="48.40844361652691" lon="-4.077241362693256"><ele>98.0</ele><time>2026-03-22T08:36:12.999Z</time></trkpt><trkpt lat="48.40832754927656" lon="-4.077225812211645"><ele>99.0</ele><time>2026-03-22T08:36:13.999Z</time></trkpt><trkpt lat="48.40819720835611" lon="-4.077209834762122"><ele>100.0</ele><time>2026-03-22T08:36:14.999Z</time></trkpt><trkpt lat="48.40806883794048" lon="-4.0771945821299935"><ele>101.0</ele><time>2026-03-22T08:36:15.999Z</time></trkpt><trkpt lat="48.407933944348" lon="-4.077178250717995"><ele>101.5</ele><time>2026-03-22T08:36:16.999Z</time></trkpt><trkpt lat="48.407799517607415" lon="-4.077161375397169"><ele>102.0</ele><time>2026-03-22T08:36:17.999Z</time></trkpt><trkpt lat="48.40766360169279" lon="-4.077144561161281"><ele>102.5</ele><time>2026-03-22T08:36:18.999Z</time></trkpt><trkpt lat="48.40752584675534" lon="-4.077106211337"><ele>103.0</ele><time>2026-03-22T08:36:19.999Z</time></trkpt><trkpt lat="48.40740767099116" lon="-4.077118173079185"><ele>103.0</ele><time>2026-03-22T08:36:20.999Z</time></trkpt><trkpt lat="48.407293727963065" lon="-4.077116944385264"><ele>103.0</ele><time>2026-03-22T08:36:21.999Z</time></trkpt><trkpt lat="48.40717946378557" lon="-4.077116944381577"><ele>103.0</ele><time>2026-03-22T08:36:22.999Z</time></trkpt><trkpt lat="48.40708322513457" lon="-4.077116944376305"><ele>103.0</ele><time>2026-03-22T08:36:23.999Z</time></trkpt><trkpt lat="48.40699474901722" lon="-4.077117761901567"><ele>103.0</ele><time>2026-03-22T08:36:24.999Z</time></trkpt><trkpt lat="48.40691284398716" lon="-4.077096267516677"><ele>103.50000000000001</ele><time>2026-03-22T08:36:25.999Z</time></trkpt><trkpt lat="48.40683532323992" lon="-4.077123828017063"><ele>104.0</ele><time>2026-03-22T08:36:26.999Z</time></trkpt><trkpt lat="48.40676671230247" lon="-4.077133511299302"><ele>104.5</ele><time>2026-03-22T08:36:27.999Z</time></trkpt><trkpt lat="48.40669845145078" lon="-4.077145195985084"><ele>105.0</ele><time>2026-03-22T08:36:29.999Z</time></trkpt><trkpt lat="48.40669661837033" lon="-4.076954848901429"><ele>105.50000000000001</ele><time>2026-03-22T08:36:31.999Z</time></trkpt><trkpt lat="48.40672771491236" lon="-4.076823758644656"><ele>106.0</ele><time>2026-03-22T08:36:32.999Z</time></trkpt><trkpt lat="48.40675295817379" lon="-4.076683085514989"><ele>105.25</ele><time>2026-03-22T08:36:33.999Z</time></trkpt><trkpt lat="48.406776314295804" lon="-4.076519812237486"><ele>104.5</ele><time>2026-03-22T08:36:34.999Z</time></trkpt><trkpt lat="48.40680605363427" lon="-4.076348883314875"><ele>103.75</ele><time>2026-03-22T08:36:35.999Z</time></trkpt><trkpt lat="48.40684198800225" lon="-4.076184565085316"><ele>103.0</ele><time>2026-03-22T08:36:36.999Z</time></trkpt><trkpt lat="48.40690888804119" lon="-4.076001627624757"><ele>103.0</ele><time>2026-03-22T08:36:37.999Z</time></trkpt><trkpt lat="48.40697900955413" lon="-4.0758012600941536"><ele>103.0</ele><time>2026-03-22T08:36:38.999Z</time></trkpt><trkpt lat="48.4070423073405" lon="-4.0756243105997125"><ele>103.0</ele><time>2026-03-22T08:36:39.999Z</time></trkpt><trkpt lat="48.407107594407684" lon="-4.075461829267103"><ele>103.0</ele><time>2026-03-22T08:36:40.999Z</time></trkpt><trkpt lat="48.40716800849597" lon="-4.075289451107502"><ele>101.75</ele><time>2026-03-22T08:36:41.999Z</time></trkpt><trkpt lat="48.407216032627616" lon="-4.075102827272227"><ele>100.5</ele><time>2026-03-22T08:36:42.999Z</time></trkpt><trkpt lat="48.40726537214868" lon="-4.074913630534653"><ele>99.25</ele><time>2026-03-22T08:36:43.999Z</time></trkpt><trkpt lat="48.40732163481544" lon="-4.074733464606837"><ele>98.0</ele><time>2026-03-22T08:36:44.999Z</time></trkpt><trkpt lat="48.40738331038485" lon="-4.074546699379806"><ele>97.80000000000001</ele><time>2026-03-22T08:36:45.999Z</time></trkpt><trkpt lat="48.40744604561751" lon="-4.074361945376637"><ele>97.6</ele><time>2026-03-22T08:36:46.999Z</time></trkpt><trkpt lat="48.40749381435716" lon="-4.074209334569533"><ele>97.4</ele><time>2026-03-22T08:36:47.999Z</time></trkpt><trkpt lat="48.407535475198166" lon="-4.07409541693313"><ele>97.19999999999999</ele><time>2026-03-22T08:36:48.999Z</time></trkpt><trkpt lat="48.40756776860623" lon="-4.074008164359826"><ele>97.0</ele><time>2026-03-22T08:36:49.999Z</time></trkpt><trkpt lat="48.407612079262485" lon="-4.073855462334613"><ele>97.39999999999999</ele><time>2026-03-22T08:36:51.999Z</time></trkpt><trkpt lat="48.4076424759789" lon="-4.073752244474372"><ele>97.8</ele><time>2026-03-22T08:36:52.999Z</time></trkpt><trkpt lat="48.40769289697518" lon="-4.073625570518316"><ele>98.2</ele><time>2026-03-22T08:36:53.999Z</time></trkpt><trkpt lat="48.40775785850807" lon="-4.073503152208076"><ele>98.6</ele><time>2026-03-22T08:36:54.999Z</time></trkpt><trkpt lat="48.40782544286212" lon="-4.073363720804518"><ele>99.0</ele><time>2026-03-22T08:36:55.999Z</time></trkpt><trkpt lat="48.40789685250641" lon="-4.07320868315517"><ele>98.25</ele><time>2026-03-22T08:36:56.999Z</time></trkpt><trkpt lat="48.40798028621255" lon="-4.073060110824662"><ele>97.5</ele><time>2026-03-22T08:36:57.999Z</time></trkpt><trkpt lat="48.408071619085796" lon="-4.072910833986665"><ele>96.75</ele><time>2026-03-22T08:36:58.999Z</time></trkpt><trkpt lat="48.40816837609954" lon="-4.072755400745609"><ele>96.0</ele><time>2026-03-22T08:36:59.999Z</time></trkpt><trkpt lat="48.4082577911424" lon="-4.072597736211632"><ele>96.75</ele><time>2026-03-22T08:37:00.999Z</time></trkpt><trkpt lat="48.408343474588165" lon="-4.072430854398675"><ele>97.5</ele><time>2026-03-22T08:37:01.999Z</time></trkpt><trkpt lat="48.40843102852151" lon="-4.072245987281117"><ele>98.25</ele><time>2026-03-22T08:37:02.999Z</time></trkpt><trkpt lat="48.40851840821745" lon="-4.072062671690143"><ele>99.0</ele><time>2026-03-22T08:37:03.999Z</time></trkpt><trkpt lat="48.408601514030124" lon="-4.071875383947393"><ele>99.0</ele><time>2026-03-22T08:37:04.999Z</time></trkpt><trkpt lat="48.40868330290183" lon="-4.071679326162057"><ele>99.0</ele><time>2026-03-22T08:37:05.999Z</time></trkpt><trkpt lat="48.408756616639906" lon="-4.071484126557262"><ele>99.0</ele><time>2026-03-22T08:37:06.999Z</time></trkpt><trkpt lat="48.40882519001827" lon="-4.071288875075475"><ele>99.0</ele><time>2026-03-22T08:37:07.999Z</time></trkpt><trkpt lat="48.4088801512084" lon="-4.071110636764991"><ele>98.25</ele><time>2026-03-22T08:37:08.999Z</time></trkpt><trkpt lat="48.408938615448456" lon="-4.07093616070865"><ele>97.5</ele><time>2026-03-22T08:37:10Z</time></trkpt><trkpt lat="48.409005016097275" lon="-4.070771453243647"><ele>96.75</ele><time>2026-03-22T08:37:11Z</time></trkpt><trkpt lat="48.40907868784277" lon="-4.070612025416097"><ele>96.0</ele><time>2026-03-22T08:37:12Z</time></trkpt><trkpt lat="48.40915319465818" lon="-4.070475141347877"><ele>96.0</ele><time>2026-03-22T08:37:13Z</time></trkpt><trkpt lat="48.40922903962958" lon="-4.070354420136548"><ele>96.0</ele><time>2026-03-22T08:37:14Z</time></trkpt><trkpt lat="48.40928542296971" lon="-4.0702219177357755"><ele>96.0</ele><time>2026-03-22T08:37:15Z</time></trkpt><trkpt lat="48.40934173410889" lon="-4.070112056959345"><ele>96.0</ele><time>2026-03-22T08:37:16Z</time></trkpt><trkpt lat="48.40940009078333" lon="-4.070014627307822"><ele>96.0</ele><time>2026-03-22T08:37:17Z</time></trkpt><trkpt lat="48.409444747552676" lon="-4.069906628108677"><ele>96.5</ele><time>2026-03-22T08:37:18Z</time></trkpt><trkpt lat="48.40948691631272" lon="-4.069815071989222"><ele>97.0</ele><time>2026-03-22T08:37:19Z</time></trkpt><trkpt lat="48.409521231726586" lon="-4.069711593548723"><ele>97.5</ele><time>2026-03-22T08:37:20Z</time></trkpt><trkpt lat="48.409526794254774" lon="-4.069612502417314"><ele>98.0</ele><time>2026-03-22T08:37:21Z</time></trkpt><trkpt lat="48.40955611929007" lon="-4.069491014642528"><ele>98.5</ele><time>2026-03-22T08:37:22Z</time></trkpt><trkpt lat="48.409590472925025" lon="-4.069348694376947"><ele>99.0</ele><time>2026-03-22T08:37:23Z</time></trkpt><trkpt lat="48.40958656748406" lon="-4.0692393212402775"><ele>102.33333333333334</ele><time>2026-03-22T08:37:24Z</time></trkpt><trkpt lat="48.4096811108877" lon="-4.069059337382673"><ele>105.66666666666667</ele><time>2026-03-22T08:37:25Z</time></trkpt><trkpt lat="48.40973833966578" lon="-4.068897521187102"><ele>109.0</ele><time>2026-03-22T08:37:26Z</time></trkpt><trkpt lat="48.41030122767297" lon="-4.068995950815524"><ele>109.0</ele><time>2026-03-22T08:37:27Z</time></trkpt><trkpt lat="48.41044044161112" lon="-4.068869737505756"><ele>109.0</ele><time>2026-03-22T08:37:28Z</time></trkpt><trkpt lat="48.41055406137894" lon="-4.068731828858375"><ele>109.0</ele><time>2026-03-22T08:37:29Z</time></trkpt><trkpt lat="48.41064465580357" lon="-4.068617369409961"><ele>109.0</ele><time>2026-03-22T08:37:30Z</time></trkpt><trkpt lat="48.410711210088714" lon="-4.068516254903115"><ele>110.2</ele><time>2026-03-22T08:37:31Z</time></trkpt><trkpt lat="48.410770155692326" lon="-4.068424528531557"><ele>111.4</ele><time>2026-03-22T08:37:32Z</time></trkpt><trkpt lat="48.41084120773968" lon="-4.068306906788057"><ele>112.6</ele><time>2026-03-22T08:37:34Z</time></trkpt><trkpt lat="48.410913358533485" lon="-4.068218792185527"><ele>113.8</ele><time>2026-03-22T08:37:36Z</time></trkpt><trkpt lat="48.41099255053852" lon="-4.068119492362863"><ele>115.0</ele><time>2026-03-22T08:37:38Z</time></trkpt><trkpt lat="48.41104953651362" lon="-4.068066606650046"><ele>116.25</ele><time>2026-03-22T08:37:39Z</time></trkpt><trkpt lat="48.411116912076736" lon="-4.067984730674424"><ele>117.5</ele><time>2026-03-22T08:37:40Z</time></trkpt><trkpt lat="48.41120603838515" lon="-4.067877898268281"><ele>118.75</ele><time>2026-03-22T08:37:41Z</time></trkpt><trkpt lat="48.41131322196506" lon="-4.067731197476517"><ele>120.0</ele><time>2026-03-22T08:37:42Z</time></trkpt><trkpt lat="48.41140884938901" lon="-4.06758004801906"><ele>120.75</ele><time>2026-03-22T08:37:43Z</time></trkpt><trkpt lat="48.411491222978356" lon="-4.067458027996284"><ele>121.5</ele><time>2026-03-22T08:37:44Z</time></trkpt><trkpt lat="48.411588358600405" lon="-4.067361092334882"><ele>122.25</ele><time>2026-03-22T08:37:45Z</time></trkpt><trkpt lat="48.41170179748745" lon="-4.067248182561131"><ele>123.0</ele><time>2026-03-22T08:37:46Z</time></trkpt><trkpt lat="48.41180042229638" lon="-4.067135654974782"><ele>124.25</ele><time>2026-03-22T08:37:47Z</time></trkpt><trkpt lat="48.41192859094498" lon="-4.066982565824624"><ele>125.5</ele><time>2026-03-22T08:37:48Z</time></trkpt><trkpt lat="48.41202494133328" lon="-4.066874249393659"><ele>126.75</ele><time>2026-03-22T08:37:49Z</time></trkpt><trkpt lat="48.412096742718305" lon="-4.066775332401666"><ele>128.0</ele><time>2026-03-22T08:37:50Z</time></trkpt><trkpt lat="48.4121587068532" lon="-4.066686324313944"><ele>128.75</ele><time>2026-03-22T08:37:51Z</time></trkpt><trkpt lat="48.41225043779415" lon="-4.066614786863363"><ele>129.5</ele><time>2026-03-22T08:37:52Z</time></trkpt><trkpt lat="48.412374072961924" lon="-4.066517965190604"><ele>130.25</ele><time>2026-03-22T08:37:53Z</time></trkpt><trkpt lat="48.412491047914685" lon="-4.066372352333856"><ele>131.0</ele><time>2026-03-22T08:37:54Z</time></trkpt><trkpt lat="48.412585921102476" lon="-4.066253054525128"><ele>132.5</ele><time>2026-03-22T08:37:55Z</time></trkpt><trkpt lat="48.412679588939696" lon="-4.0661544449824225"><ele>134.0</ele><time>2026-03-22T08:37:56Z</time></trkpt><trkpt lat="48.41280409861888" lon="-4.066064707711409"><ele>135.5</ele><time>2026-03-22T08:37:57Z</time></trkpt><trkpt lat="48.412919279601454" lon="-4.06597712007927"><ele>137.0</ele><time>2026-03-22T08:37:58Z</time></trkpt><trkpt lat="48.41303718486009" lon="-4.065890080161321"><ele>139.0</ele><time>2026-03-22T08:37:59Z</time></trkpt><trkpt lat="48.41318068400626" lon="-4.0658016544074576"><ele>141.0</ele><time>2026-03-22T08:37:59.999Z</time></trkpt><trkpt lat="48.41334904430922" lon="-4.0656891234313255"><ele>143.0</ele><time>2026-03-22T08:38:00.999Z</time></trkpt><trkpt lat="48.4135070675572" lon="-4.065538439244517"><ele>143.33333333333331</ele><time>2026-03-22T08:38:01.999Z</time></trkpt><trkpt lat="48.41366361332872" lon="-4.065388321948844"><ele>143.66666666666666</ele><time>2026-03-22T08:38:02.999Z</time></trkpt><trkpt lat="48.41379399727232" lon="-4.0652683274593935"><ele>144.0</ele><time>2026-03-22T08:38:03.999Z</time></trkpt><trkpt lat="48.41393407331541" lon="-4.065153783920136"><ele>144.75</ele><time>2026-03-22T08:38:04.999Z</time></trkpt><trkpt lat="48.414065631126434" lon="-4.06502921413443"><ele>145.5</ele><time>2026-03-22T08:38:05.999Z</time></trkpt><trkpt lat="48.41419885283735" lon="-4.064918423122201"><ele>146.25</ele><time>2026-03-22T08:38:06.999Z</time></trkpt><trkpt lat="48.414320536348434" lon="-4.064812724417913"><ele>147.0</ele><time>2026-03-22T08:38:07.999Z</time></trkpt><trkpt lat="48.41442521590043" lon="-4.064669549764841"><ele>147.0</ele><time>2026-03-22T08:38:08.999Z</time></trkpt><trkpt lat="48.414526511005604" lon="-4.064558209468534"><ele>147.0</ele><time>2026-03-22T08:38:09.999Z</time></trkpt><trkpt lat="48.41461162574698" lon="-4.064469633617206"><ele>147.0</ele><time>2026-03-22T08:38:10.999Z</time></trkpt><trkpt lat="48.4146830056186" lon="-4.064402420894135"><ele>147.0</ele><time>2026-03-22T08:38:11.999Z</time></trkpt><trkpt lat="48.4147795136527" lon="-4.064359228412195"><ele>147.0</ele><time>2026-03-22T08:38:12.999Z</time></trkpt><trkpt lat="48.414880506968466" lon="-4.064302944950625"><ele>147.2</ele><time>2026-03-22T08:38:13.999Z</time></trkpt><trkpt lat="48.41496727205422" lon="-4.064237862506758"><ele>147.39999999999998</ele><time>2026-03-22T08:38:14.999Z</time></trkpt><trkpt lat="48.41504436243703" lon="-4.064167770306391"><ele>147.60000000000002</ele><time>2026-03-22T08:38:15.999Z</time></trkpt><trkpt lat="48.41511640135749" lon="-4.064096476737115"><ele>147.8</ele><time>2026-03-22T08:38:16.999Z</time></trkpt><trkpt lat="48.41518000186625" lon="-4.064037219760072"><ele>148.0</ele><time>2026-03-22T08:38:17.999Z</time></trkpt><trkpt lat="48.41526212274821" lon="-4.0639361294783205"><ele>148.0</ele><time>2026-03-22T08:38:19.999Z</time></trkpt><trkpt lat="48.41529613357662" lon="-4.063843585030493"><ele>148.0</ele><time>2026-03-22T08:38:21.999Z</time></trkpt><trkpt lat="48.4153370555578" lon="-4.063770226879823"><ele>148.0</ele><time>2026-03-22T08:38:23.999Z</time></trkpt><trkpt lat="48.41540260729215" lon="-4.063756414102604"><ele>148.0</ele><time>2026-03-22T08:38:25.999Z</time></trkpt><trkpt lat="48.415478024774025" lon="-4.0636911117097325"><ele>148.0</ele><time>2026-03-22T08:38:27.999Z</time></trkpt><trkpt lat="48.415542937766645" lon="-4.063639645100868"><ele>148.0</ele><time>2026-03-22T08:38:29.999Z</time></trkpt><trkpt lat="48.41561860442981" lon="-4.063567099000238"><ele>147.66666666666669</ele><time>2026-03-22T08:38:31.999Z</time></trkpt><trkpt lat="48.41567421909207" lon="-4.063514518047586"><ele>147.33333333333334</ele><time>2026-03-22T08:38:32.999Z</time></trkpt><trkpt lat="48.41572218371861" lon="-4.063452673558794"><ele>147.0</ele><time>2026-03-22T08:38:33.999Z</time></trkpt><trkpt lat="48.415794364316696" lon="-4.06338275258842"><ele>146.66666666666666</ele><time>2026-03-22T08:38:34.999Z</time></trkpt><trkpt lat="48.41585255071749" lon="-4.06331569372703"><ele>146.33333333333331</ele><time>2026-03-22T08:38:35.999Z</time></trkpt><trkpt lat="48.41593607062124" lon="-4.063243595628532"><ele>146.0</ele><time>2026-03-22T08:38:36.999Z</time></trkpt><trkpt lat="48.4160131258167" lon="-4.063152494864771"><ele>146.0</ele><time>2026-03-22T08:38:37.999Z</time></trkpt><trkpt lat="48.416086753862736" lon="-4.063079601856651"><ele>146.0</ele><time>2026-03-22T08:38:38.999Z</time></trkpt><trkpt lat="48.41618391920285" lon="-4.062999590726804"><ele>146.0</ele><time>2026-03-22T08:38:39.999Z</time></trkpt><trkpt lat="48.41627743009618" lon="-4.062910619623075"><ele>146.0</ele><time>2026-03-22T08:38:40.999Z</time></trkpt><trkpt lat="48.41637013008537" lon="-4.062816862837208"><ele>146.0</ele><time>2026-03-22T08:38:41.999Z</time></trkpt><trkpt lat="48.41645549766741" lon="-4.062729736965471"><ele>146.0</ele><time>2026-03-22T08:38:42.999Z</time></trkpt><trkpt lat="48.416511499789" lon="-4.06267928535582"><ele>146.0</ele><time>2026-03-22T08:38:43.999Z</time></trkpt><trkpt lat="48.41658266142369" lon="-4.062615604730627"><ele>146.0</ele><time>2026-03-22T08:38:45.999Z</time></trkpt><trkpt lat="48.41668587167871" lon="-4.062536389447947"><ele>146.0</ele><time>2026-03-22T08:38:47.999Z</time></trkpt><trkpt lat="48.41675549957931" lon="-4.062465359337206"><ele>146.0</ele><time>2026-03-22T08:38:48.999Z</time></trkpt><trkpt lat="48.41681345106917" lon="-4.062406543122386"><ele>146.0</ele><time>2026-03-22T08:38:49.999Z</time></trkpt><trkpt lat="48.41686715316207" lon="-4.062341504360402"><ele>146.0</ele><time>2026-03-22T08:38:50.999Z</time></trkpt><trkpt lat="48.416936777677556" lon="-4.062270373437177"><ele>146.0</ele><time>2026-03-22T08:38:51.999Z</time></trkpt><trkpt lat="48.416996172195496" lon="-4.062177195948729"><ele>146.0</ele><time>2026-03-22T08:38:52.999Z</time></trkpt><trkpt lat="48.41705919792871" lon="-4.062072260962139"><ele>146.0</ele><time>2026-03-22T08:38:53.999Z</time></trkpt><trkpt lat="48.417131528429366" lon="-4.061991761235257"><ele>146.0</ele><time>2026-03-22T08:38:54.999Z</time></trkpt><trkpt lat="48.417228401127744" lon="-4.06189960548056"><ele>146.5</ele><time>2026-03-22T08:38:55.999Z</time></trkpt><trkpt lat="48.41731594802157" lon="-4.061841561337798"><ele>147.0</ele><time>2026-03-22T08:38:56.999Z</time></trkpt><trkpt lat="48.417362724042974" lon="-4.061775892411649"><ele>147.5</ele><time>2026-03-22T08:38:57.999Z</time></trkpt><trkpt lat="48.4174237908611" lon="-4.0616941988065065"><ele>148.0</ele><time>2026-03-22T08:38:58.999Z</time></trkpt><trkpt lat="48.41748534531459" lon="-4.061607488716108"><ele>148.5</ele><time>2026-03-22T08:38:59.999Z</time></trkpt><trkpt lat="48.41753521621114" lon="-4.06154368085094"><ele>149.0</ele><time>2026-03-22T08:39:00.999Z</time></trkpt><trkpt lat="48.41760311941874" lon="-4.061477266946231"><ele>148.4</ele><time>2026-03-22T08:39:01.999Z</time></trkpt><trkpt lat="48.41768944705842" lon="-4.061382344922856"><ele>147.8</ele><time>2026-03-22T08:39:02.999Z</time></trkpt><trkpt lat="48.41778031387078" lon="-4.06128401394199"><ele>147.2</ele><time>2026-03-22T08:39:03.999Z</time></trkpt><trkpt lat="48.41787478170134" lon="-4.061195441092409"><ele>146.6</ele><time>2026-03-22T08:39:04.999Z</time></trkpt><trkpt lat="48.41796909903431" lon="-4.061093171467522"><ele>146.0</ele><time>2026-03-22T08:39:05.999Z</time></trkpt><trkpt lat="48.41804909253139" lon="-4.061028905910003"><ele>146.0</ele><time>2026-03-22T08:39:06.999Z</time></trkpt><trkpt lat="48.41812477433653" lon="-4.060963219879073"><ele>146.0</ele><time>2026-03-22T08:39:07.999Z</time></trkpt><trkpt lat="48.418195768189754" lon="-4.060855841202452"><ele>146.0</ele><time>2026-03-22T08:39:08.999Z</time></trkpt><trkpt lat="48.41827198107576" lon="-4.06079248403304"><ele>146.0</ele><time>2026-03-22T08:39:09.999Z</time></trkpt><trkpt lat="48.41832882217737" lon="-4.060711624296454"><ele>146.0</ele><time>2026-03-22T08:39:10.999Z</time></trkpt><trkpt lat="48.41841434829809" lon="-4.0606281168879645"><ele>145.5</ele><time>2026-03-22T08:39:11.999Z</time></trkpt><trkpt lat="48.418518279901534" lon="-4.0605346811798135"><ele>145.0</ele><time>2026-03-22T08:39:12.999Z</time></trkpt><trkpt lat="48.41862777400062" lon="-4.0604780856091205"><ele>144.5</ele><time>2026-03-22T08:39:13.999Z</time></trkpt><trkpt lat="48.4187587877461" lon="-4.060393533883567"><ele>144.0</ele><time>2026-03-22T08:39:14.999Z</time></trkpt><trkpt lat="48.41887886898621" lon="-4.060301054817233"><ele>144.0</ele><time>2026-03-22T08:39:16Z</time></trkpt><trkpt lat="48.4189757167804" lon="-4.060216035432545"><ele>144.0</ele><time>2026-03-22T08:39:17Z</time></trkpt><trkpt lat="48.41906432168509" lon="-4.060147424093721"><ele>144.0</ele><time>2026-03-22T08:39:18Z</time></trkpt><trkpt lat="48.419162302292634" lon="-4.06005672354944"><ele>144.0</ele><time>2026-03-22T08:39:19Z</time></trkpt><trkpt lat="48.41923959038761" lon="-4.059978048915475"><ele>144.0</ele><time>2026-03-22T08:39:20Z</time></trkpt><trkpt lat="48.41933168769695" lon="-4.0599118704190875"><ele>143.0</ele><time>2026-03-22T08:39:21Z</time></trkpt><trkpt lat="48.419430889891146" lon="-4.059846116734844"><ele>142.0</ele><time>2026-03-22T08:39:22Z</time></trkpt><trkpt lat="48.41955387556724" lon="-4.0597911184713"><ele>141.0</ele><time>2026-03-22T08:39:23Z</time></trkpt><trkpt lat="48.41966313394989" lon="-4.0596982004744"><ele>140.0</ele><time>2026-03-22T08:39:24Z</time></trkpt><trkpt lat="48.41976209642635" lon="-4.059646440289713"><ele>140.0</ele><time>2026-03-22T08:39:25Z</time></trkpt><trkpt lat="48.41983835112436" lon="-4.059598381129595"><ele>140.0</ele><time>2026-03-22T08:39:26Z</time></trkpt><trkpt lat="48.41991791397029" lon="-4.0595333341697"><ele>140.0</ele><time>2026-03-22T08:39:27Z</time></trkpt><trkpt lat="48.41999753378135" lon="-4.05946318309787"><ele>140.0</ele><time>2026-03-22T08:39:28Z</time></trkpt><trkpt lat="48.420069500784635" lon="-4.059365350246433"><ele>140.0</ele><time>2026-03-22T08:39:29Z</time></trkpt><trkpt lat="48.42013823419337" lon="-4.059248542526717"><ele>139.75</ele><time>2026-03-22T08:39:30Z</time></trkpt><trkpt lat="48.42020693214463" lon="-4.0591149274853295"><ele>139.5</ele><time>2026-03-22T08:39:31Z</time></trkpt><trkpt lat="48.420299482308195" lon="-4.058958783048099"><ele>139.25</ele><time>2026-03-22T08:39:32Z</time></trkpt><trkpt lat="48.42039481454817" lon="-4.058794333011238"><ele>139.0</ele><time>2026-03-22T08:39:33Z</time></trkpt><trkpt lat="48.420517707848234" lon="-4.05864050435155"><ele>139.0</ele><time>2026-03-22T08:39:34Z</time></trkpt><trkpt lat="48.42061799139653" lon="-4.058501371942632"><ele>139.0</ele><time>2026-03-22T08:39:35Z</time></trkpt><trkpt lat="48.4207328329756" lon="-4.0583754990608965"><ele>139.0</ele><time>2026-03-22T08:39:36Z</time></trkpt><trkpt lat="48.42080770128844" lon="-4.058282349349385"><ele>139.0</ele><time>2026-03-22T08:39:37Z</time></trkpt><trkpt lat="48.42084666234421" lon="-4.058201314441296"><ele>139.0</ele><time>2026-03-22T08:39:39Z</time></trkpt><trkpt lat="48.42089813359382" lon="-4.05813092550203"><ele>138.2</ele><time>2026-03-22T08:39:41Z</time></trkpt><trkpt lat="48.420975856097115" lon="-4.05802957759473"><ele>137.4</ele><time>2026-03-22T08:39:43Z</time></trkpt><trkpt lat="48.421038999301814" lon="-4.057990137267367"><ele>136.6</ele><time>2026-03-22T08:39:44Z</time></trkpt><trkpt lat="48.421100718565484" lon="-4.057927317523931"><ele>135.8</ele><time>2026-03-22T08:39:45Z</time></trkpt><trkpt lat="48.42120242208338" lon="-4.05783663160584"><ele>135.0</ele><time>2026-03-22T08:39:47Z</time></trkpt><trkpt lat="48.421273697843304" lon="-4.057738715028502"><ele>135.75</ele><time>2026-03-22T08:39:49Z</time></trkpt><trkpt lat="48.42134097366098" lon="-4.057685596846573"><ele>136.5</ele><time>2026-03-22T08:39:55Z</time></trkpt><trkpt lat="48.42148093727245" lon="-4.057546761538122"><ele>137.25</ele><time>2026-03-22T08:39:57Z</time></trkpt><trkpt lat="48.42158491285632" lon="-4.057434374181061"><ele>138.0</ele><time>2026-03-22T08:39:58Z</time></trkpt><trkpt lat="48.42168240269412" lon="-4.057311337868587"><ele>138.0</ele><time>2026-03-22T08:39:59Z</time></trkpt><trkpt lat="48.42178729726129" lon="-4.057198123565953"><ele>138.0</ele><time>2026-03-22T08:40:00Z</time></trkpt><trkpt lat="48.42187619194736" lon="-4.057080827622673"><ele>138.0</ele><time>2026-03-22T08:40:01Z</time></trkpt><trkpt lat="48.42194467100865" lon="-4.05698200893519"><ele>138.0</ele><time>2026-03-22T08:40:02Z</time></trkpt><trkpt lat="48.42200422406088" lon="-4.056877333927481"><ele>138.0</ele><time>2026-03-22T08:40:03Z</time></trkpt><trkpt lat="48.42207749434062" lon="-4.056796264502658"><ele>138.6</ele><time>2026-03-22T08:40:04Z</time></trkpt><trkpt lat="48.42215482450267" lon="-4.056713366044716"><ele>139.20000000000002</ele><time>2026-03-22T08:40:05Z</time></trkpt><trkpt lat="48.42220249050567" lon="-4.056638245190416"><ele>139.8</ele><time>2026-03-22T08:40:06Z</time></trkpt><trkpt lat="48.422272013268554" lon="-4.056571503974348"><ele>140.4</ele><time>2026-03-22T08:40:07Z</time></trkpt><trkpt lat="48.42229051401761" lon="-4.056404314262065"><ele>141.0</ele><time>2026-03-22T08:40:08Z</time></trkpt><trkpt lat="48.42236280089219" lon="-4.05630911862399"><ele>141.0</ele><time>2026-03-22T08:40:09Z</time></trkpt><trkpt lat="48.422447583831904" lon="-4.05619746674122"><ele>141.0</ele><time>2026-03-22T08:40:10Z</time></trkpt><trkpt lat="48.42256071716745" lon="-4.056076578853316"><ele>141.0</ele><time>2026-03-22T08:40:11Z</time></trkpt><trkpt lat="48.422652085404636" lon="-4.055971217031888"><ele>141.0</ele><time>2026-03-22T08:40:12Z</time></trkpt><trkpt lat="48.42272026280275" lon="-4.055862815296075"><ele>141.0</ele><time>2026-03-22T08:40:12.999Z</time></trkpt><trkpt lat="48.42277168402021" lon="-4.055763137160713"><ele>141.0</ele><time>2026-03-22T08:40:13.999Z</time></trkpt><trkpt lat="48.42284079653912" lon="-4.055619059809179"><ele>141.0</ele><time>2026-03-22T08:40:15.999Z</time></trkpt><trkpt lat="48.42288732172696" lon="-4.05552160423917"><ele>141.0</ele><time>2026-03-22T08:40:17.999Z</time></trkpt><trkpt lat="48.42278599755119" lon="-4.055464484197163"><ele>141.0</ele><time>2026-03-22T08:40:19.999Z</time></trkpt><trkpt lat="48.42295490658592" lon="-4.055373418692715"><ele>141.0</ele><time>2026-03-22T08:40:20.999Z</time></trkpt><trkpt lat="48.42295159819419" lon="-4.055270991165004"><ele>141.0</ele><time>2026-03-22T08:40:21.999Z</time></trkpt><trkpt lat="48.42304880786757" lon="-4.055176767563027"><ele>141.0</ele><time>2026-03-22T08:40:23.999Z</time></trkpt><trkpt lat="48.42313586430086" lon="-4.055061209000957"><ele>141.0</ele><time>2026-03-22T08:40:25.999Z</time></trkpt><trkpt lat="48.42317478052335" lon="-4.054948498706475"><ele>141.0</ele><time>2026-03-22T08:40:27.999Z</time></trkpt><trkpt lat="48.42323496916989" lon="-4.054843193716605"><ele>141.0</ele><time>2026-03-22T08:40:35.999Z</time></trkpt><trkpt lat="48.42326575492039" lon="-4.0547579748236675"><ele>141.0</ele><time>2026-03-22T08:40:36.999Z</time></trkpt><trkpt lat="48.42332199175101" lon="-4.0546516975689615"><ele>141.0</ele><time>2026-03-22T08:40:37.999Z</time></trkpt><trkpt lat="48.42338361202085" lon="-4.0545381380103125"><ele>141.0</ele><time>2026-03-22T08:40:38.999Z</time></trkpt><trkpt lat="48.42341928873365" lon="-4.0544484090817745"><ele>141.0</ele><time>2026-03-22T08:40:39.999Z</time></trkpt><trkpt lat="48.42346094488464" lon="-4.054373997723494"><ele>141.0</ele><time>2026-03-22T08:40:40.999Z</time></trkpt><trkpt lat="48.42361593834168" lon="-4.054328584053753"><ele>141.0</ele><time>2026-03-22T08:40:42.999Z</time></trkpt><trkpt lat="48.42374750485658" lon="-4.054310003784431"><ele>141.0</ele><time>2026-03-22T08:40:43.999Z</time></trkpt><trkpt lat="48.42390526528941" lon="-4.054320708670694"><ele>141.0</ele><time>2026-03-22T08:40:44.999Z</time></trkpt><trkpt lat="48.42410744098276" lon="-4.054349515313159"><ele>142.0</ele><time>2026-03-22T08:40:45.999Z</time></trkpt><trkpt lat="48.424324409916856" lon="-4.0543907204041325"><ele>143.0</ele><time>2026-03-22T08:40:46.999Z</time></trkpt><trkpt lat="48.42456910544" lon="-4.054418370465224"><ele>144.0</ele><time>2026-03-22T08:40:47.999Z</time></trkpt><trkpt lat="48.42482113811384" lon="-4.054430532820353"><ele>145.0</ele><time>2026-03-22T08:40:48.999Z</time></trkpt><trkpt lat="48.42503774517952" lon="-4.054454118573262"><ele>145.0</ele><time>2026-03-22T08:40:49.999Z</time></trkpt><trkpt lat="48.425214091379644" lon="-4.05447958268205"><ele>145.0</ele><time>2026-03-22T08:40:50.999Z</time></trkpt><trkpt lat="48.42540197287272" lon="-4.054516252004306"><ele>145.0</ele><time>2026-03-22T08:40:51.999Z</time></trkpt><trkpt lat="48.42556071925858" lon="-4.054543240473205"><ele>144.66666666666669</ele><time>2026-03-22T08:40:52.999Z</time></trkpt><trkpt lat="48.42571575060402" lon="-4.054605759419693"><ele>144.33333333333334</ele><time>2026-03-22T08:40:53.999Z</time></trkpt><trkpt lat="48.42590923543152" lon="-4.0547335176237835"><ele>144.0</ele><time>2026-03-22T08:40:54.999Z</time></trkpt><trkpt lat="48.42609939199516" lon="-4.054876183927655"><ele>144.33333333333334</ele><time>2026-03-22T08:40:55.999Z</time></trkpt><trkpt lat="48.42625919315668" lon="-4.05502680127361"><ele>144.66666666666669</ele><time>2026-03-22T08:40:56.999Z</time></trkpt><trkpt lat="48.42638211330998" lon="-4.055176132351729"><ele>145.0</ele><time>2026-03-22T08:40:57.999Z</time></trkpt><trkpt lat="48.426521308229326" lon="-4.055290348083006"><ele>144.0</ele><time>2026-03-22T08:40:58.999Z</time></trkpt><trkpt lat="48.426684252804726" lon="-4.055350518442508"><ele>143.0</ele><time>2026-03-22T08:40:59.999Z</time></trkpt><trkpt lat="48.42684792479125" lon="-4.055406901683116"><ele>142.0</ele><time>2026-03-22T08:41:00.999Z</time></trkpt><trkpt lat="48.42697140057928" lon="-4.055458313864961"><ele>142.0</ele><time>2026-03-22T08:41:01.999Z</time></trkpt><trkpt lat="48.427095296388764" lon="-4.055461417638617"><ele>142.0</ele><time>2026-03-22T08:41:02.999Z</time></trkpt><trkpt lat="48.4272538715216" lon="-4.055411589321801"><ele>142.0</ele><time>2026-03-22T08:41:03.999Z</time></trkpt><trkpt lat="48.427379868610565" lon="-4.055374948626282"><ele>142.0</ele><time>2026-03-22T08:41:04.999Z</time></trkpt><trkpt lat="48.42749766013033" lon="-4.05534618931625"><ele>141.33333333333334</ele><time>2026-03-22T08:41:05.999Z</time></trkpt><trkpt lat="48.42760071058078" lon="-4.055313038549293"><ele>140.66666666666669</ele><time>2026-03-22T08:41:06.999Z</time></trkpt><trkpt lat="48.42767952316121" lon="-4.055288816161398"><ele>140.0</ele><time>2026-03-22T08:41:07.999Z</time></trkpt><trkpt lat="48.427744211785246" lon="-4.055264429342352"><ele>139.33333333333334</ele><time>2026-03-22T08:41:08.999Z</time></trkpt><trkpt lat="48.427799431667204" lon="-4.055176493919106"><ele>138.66666666666666</ele><time>2026-03-22T08:41:10.999Z</time></trkpt><trkpt lat="48.427858084234224" lon="-4.055035737037245"><ele>138.0</ele><time>2026-03-22T08:41:12.999Z</time></trkpt><trkpt lat="48.42795430296079" lon="-4.054986748122582"><ele>136.75</ele><time>2026-03-22T08:41:13.999Z</time></trkpt><trkpt lat="48.428079309627805" lon="-4.055000921324862"><ele>135.5</ele><time>2026-03-22T08:41:14.999Z</time></trkpt><trkpt lat="48.42823728701134" lon="-4.055012781609096"><ele>134.25</ele><time>2026-03-22T08:41:15.999Z</time></trkpt><trkpt lat="48.4284007253041" lon="-4.054999559863691"><ele>133.0</ele><time>2026-03-22T08:41:16.999Z</time></trkpt><trkpt lat="48.42859255376931" lon="-4.054988483266848"><ele>133.0</ele><time>2026-03-22T08:41:17.999Z</time></trkpt><trkpt lat="48.42878936829482" lon="-4.05498037832588"><ele>133.0</ele><time>2026-03-22T08:41:18.999Z</time></trkpt><trkpt lat="48.42895972410841" lon="-4.0549393140796095"><ele>133.0</ele><time>2026-03-22T08:41:19.999Z</time></trkpt><trkpt lat="48.42915466502784" lon="-4.054871657476561"><ele>132.0</ele><time>2026-03-22T08:41:20.999Z</time></trkpt><trkpt lat="48.42936005110252" lon="-4.054800865342338"><ele>131.0</ele><time>2026-03-22T08:41:22Z</time></trkpt><trkpt lat="48.429533365764016" lon="-4.0547583332930195"><ele>130.0</ele><time>2026-03-22T08:41:23Z</time></trkpt><trkpt lat="48.42969259034351" lon="-4.054674925508069"><ele>129.66666666666669</ele><time>2026-03-22T08:41:24Z</time></trkpt><trkpt lat="48.42986264080523" lon="-4.054597467525934"><ele>129.33333333333334</ele><time>2026-03-22T08:41:25Z</time></trkpt><trkpt lat="48.43002289908879" lon="-4.054513786454274"><ele>129.0</ele><time>2026-03-22T08:41:26Z</time></trkpt><trkpt lat="48.430221196708075" lon="-4.054420636119813"><ele>129.0</ele><time>2026-03-22T08:41:27Z</time></trkpt><trkpt lat="48.430413838671235" lon="-4.054355316952693"><ele>129.0</ele><time>2026-03-22T08:41:28Z</time></trkpt><trkpt lat="48.43060469963298" lon="-4.0542432101671615"><ele>129.0</ele><time>2026-03-22T08:41:29Z</time></trkpt><trkpt lat="48.43080821854636" lon="-4.054149995920353"><ele>130.0</ele><time>2026-03-22T08:41:30Z</time></trkpt><trkpt lat="48.431019498910814" lon="-4.054070314801308"><ele>131.0</ele><time>2026-03-22T08:41:31Z</time></trkpt><trkpt lat="48.4312178481545" lon="-4.053969440259903"><ele>132.0</ele><time>2026-03-22T08:41:32Z</time></trkpt><trkpt lat="48.43142924224032" lon="-4.053863648442474"><ele>135.0</ele><time>2026-03-22T08:41:33Z</time></trkpt><trkpt lat="48.431640644485945" lon="-4.05377126109313"><ele>138.0</ele><time>2026-03-22T08:41:34Z</time></trkpt><trkpt lat="48.431869145431925" lon="-4.0536428761723045"><ele>138.0</ele><time>2026-03-22T08:41:35Z</time></trkpt><trkpt lat="48.432067394052595" lon="-4.05358924893354"><ele>138.0</ele><time>2026-03-22T08:41:36Z</time></trkpt><trkpt lat="48.4322604452528" lon="-4.053507151170999"><ele>138.0</ele><time>2026-03-22T08:41:37Z</time></trkpt><trkpt lat="48.432466550617235" lon="-4.053424790340599"><ele>139.66666666666666</ele><time>2026-03-22T08:41:38Z</time></trkpt><trkpt lat="48.43265844641419" lon="-4.053353831633588"><ele>141.33333333333331</ele><time>2026-03-22T08:41:39Z</time></trkpt><trkpt lat="48.432829865472236" lon="-4.0533010676795795"><ele>143.0</ele><time>2026-03-22T08:41:40Z</time></trkpt><trkpt lat="48.433001792393796" lon="-4.053259169242096"><ele>144.0</ele><time>2026-03-22T08:41:41Z</time></trkpt><trkpt lat="48.43317501124332" lon="-4.053233978113472"><ele>145.0</ele><time>2026-03-22T08:41:42Z</time></trkpt><trkpt lat="48.43335657020612" lon="-4.053224218885547"><ele>146.0</ele><time>2026-03-22T08:41:43Z</time></trkpt><trkpt lat="48.43354027822785" lon="-4.053219486533427"><ele>146.0</ele><time>2026-03-22T08:41:44Z</time></trkpt><trkpt lat="48.43372008640206" lon="-4.0532116913668235"><ele>146.0</ele><time>2026-03-22T08:41:45Z</time></trkpt><trkpt lat="48.4338986220664" lon="-4.053182110897644"><ele>146.0</ele><time>2026-03-22T08:41:46Z</time></trkpt><trkpt lat="48.43406745163545" lon="-4.0531411282195275"><ele>147.33333333333331</ele><time>2026-03-22T08:41:47Z</time></trkpt><trkpt lat="48.434217696286055" lon="-4.053083153762124"><ele>148.66666666666666</ele><time>2026-03-22T08:41:48Z</time></trkpt><trkpt lat="48.43436220138901" lon="-4.053020308817776"><ele>150.0</ele><time>2026-03-22T08:41:49Z</time></trkpt><trkpt lat="48.43451667529387" lon="-4.052946530047126"><ele>151.66666666666666</ele><time>2026-03-22T08:41:50Z</time></trkpt><trkpt lat="48.434665970889114" lon="-4.052882690840141"><ele>153.33333333333331</ele><time>2026-03-22T08:41:51Z</time></trkpt><trkpt lat="48.43481343749131" lon="-4.05282267723606"><ele>155.0</ele><time>2026-03-22T08:41:52Z</time></trkpt><trkpt lat="48.43496500999917" lon="-4.052766408217049"><ele>155.0</ele><time>2026-03-22T08:41:53Z</time></trkpt><trkpt lat="48.435127400165385" lon="-4.052733505198733"><ele>155.0</ele><time>2026-03-22T08:41:54Z</time></trkpt><trkpt lat="48.4353061113488" lon="-4.0527343794607305"><ele>155.0</ele><time>2026-03-22T08:41:55Z</time></trkpt><trkpt lat="48.43548184759037" lon="-4.052725201084958"><ele>157.0</ele><time>2026-03-22T08:41:56Z</time></trkpt><trkpt lat="48.435655985397425" lon="-4.052702874889191"><ele>159.0</ele><time>2026-03-22T08:41:57Z</time></trkpt><trkpt lat="48.43582773162774" lon="-4.052682893165006"><ele>161.0</ele><time>2026-03-22T08:41:58Z</time></trkpt><trkpt lat="48.435987950745" lon="-4.052653729930287"><ele>161.0</ele><time>2026-03-22T08:41:59Z</time></trkpt><trkpt lat="48.436142548036585" lon="-4.052598821005773"><ele>161.0</ele><time>2026-03-22T08:42:00Z</time></trkpt><trkpt lat="48.43626563905319" lon="-4.052532415679671"><ele>161.0</ele><time>2026-03-22T08:42:01Z</time></trkpt><trkpt lat="48.43637336545995" lon="-4.052485229113467"><ele>161.0</ele><time>2026-03-22T08:42:02Z</time></trkpt><trkpt lat="48.436461905716925" lon="-4.0524225638053935"><ele>161.60000000000002</ele><time>2026-03-22T08:42:03Z</time></trkpt><trkpt lat="48.436550489007644" lon="-4.052408710293871"><ele>162.2</ele><time>2026-03-22T08:42:04Z</time></trkpt><trkpt lat="48.43665035241741" lon="-4.0524343810337635"><ele>162.8</ele><time>2026-03-22T08:42:05Z</time></trkpt><trkpt lat="48.43675887053648" lon="-4.052482906685962"><ele>163.39999999999998</ele><time>2026-03-22T08:42:06Z</time></trkpt><trkpt lat="48.43687574126304" lon="-4.05253590881342"><ele>164.0</ele><time>2026-03-22T08:42:07Z</time></trkpt><trkpt lat="48.437021348720485" lon="-4.052604550823606"><ele>165.5</ele><time>2026-03-22T08:42:08Z</time></trkpt><trkpt lat="48.43715949272551" lon="-4.052675034547628"><ele>167.0</ele><time>2026-03-22T08:42:09Z</time></trkpt><trkpt lat="48.437296647323215" lon="-4.052768911605512"><ele>168.5</ele><time>2026-03-22T08:42:10Z</time></trkpt><trkpt lat="48.43741574547079" lon="-4.0528292219509545"><ele>170.0</ele><time>2026-03-22T08:42:11Z</time></trkpt><trkpt lat="48.43751331994547" lon="-4.052883082685351"><ele>170.0</ele><time>2026-03-22T08:42:12Z</time></trkpt><trkpt lat="48.43759824905407" lon="-4.052934203144199"><ele>170.0</ele><time>2026-03-22T08:42:13Z</time></trkpt><trkpt lat="48.43766043456831" lon="-4.05296875596425"><ele>170.0</ele><time>2026-03-22T08:42:14Z</time></trkpt><trkpt lat="48.437714507626914" lon="-4.0529049377259545"><ele>170.0</ele><time>2026-03-22T08:42:16Z</time></trkpt><trkpt lat="48.437738249468644" lon="-4.052786432523627"><ele>170.0</ele><time>2026-03-22T08:42:17Z</time></trkpt><trkpt lat="48.43776531219289" lon="-4.052627602779525"><ele>170.0</ele><time>2026-03-22T08:42:18Z</time></trkpt><trkpt lat="48.4378135105618" lon="-4.052380493504437"><ele>170.33333333333331</ele><time>2026-03-22T08:42:19Z</time></trkpt><trkpt lat="48.437869127488746" lon="-4.052089581770953"><ele>170.66666666666666</ele><time>2026-03-22T08:42:19.999Z</time></trkpt><trkpt lat="48.43792598633502" lon="-4.051793279766878"><ele>171.0</ele><time>2026-03-22T08:42:20.999Z</time></trkpt><trkpt lat="48.43797333775514" lon="-4.051579077249808"><ele>172.0</ele><time>2026-03-22T08:42:21.999Z</time></trkpt><trkpt lat="48.438006663667885" lon="-4.0514351899768055"><ele>173.0</ele><time>2026-03-22T08:42:22.999Z</time></trkpt><trkpt lat="48.43804148197109" lon="-4.051336246581279"><ele>174.0</ele><time>2026-03-22T08:42:23.999Z</time></trkpt><trkpt lat="48.43814867013049" lon="-4.0512313475187876"><ele>175.0</ele><time>2026-03-22T08:42:25.999Z</time></trkpt><trkpt lat="48.43821815051992" lon="-4.05119247722437"><ele>176.0</ele><time>2026-03-22T08:42:26.999Z</time></trkpt><trkpt lat="48.438304125967726" lon="-4.051157842497198"><ele>176.0</ele><time>2026-03-22T08:42:27.999Z</time></trkpt><trkpt lat="48.4383807312465" lon="-4.051119465835787"><ele>176.0</ele><time>2026-03-22T08:42:28.999Z</time></trkpt><trkpt lat="48.43845530970845" lon="-4.051074907059646"><ele>176.0</ele><time>2026-03-22T08:42:29.999Z</time></trkpt><trkpt lat="48.4385320053305" lon="-4.0510325859685645"><ele>176.0</ele><time>2026-03-22T08:42:30.999Z</time></trkpt><trkpt lat="48.43859998458226" lon="-4.050980762235595"><ele>176.0</ele><time>2026-03-22T08:42:31.999Z</time></trkpt><trkpt lat="48.4386797565362" lon="-4.0509241851754885"><ele>176.0</ele><time>2026-03-22T08:42:32.999Z</time></trkpt><trkpt lat="48.43877949696484" lon="-4.050857845731188"><ele>177.0</ele><time>2026-03-22T08:42:33.999Z</time></trkpt><trkpt lat="48.43890964116793" lon="-4.050783513251129"><ele>178.0</ele><time>2026-03-22T08:42:34.999Z</time></trkpt><trkpt lat="48.4390562307672" lon="-4.050700551472835"><ele>179.0</ele><time>2026-03-22T08:42:35.999Z</time></trkpt><trkpt lat="48.43922368228609" lon="-4.050597204003237"><ele>179.0</ele><time>2026-03-22T08:42:36.999Z</time></trkpt><trkpt lat="48.4393809545793" lon="-4.05049393916094"><ele>179.0</ele><time>2026-03-22T08:42:37.999Z</time></trkpt><trkpt lat="48.439547661031156" lon="-4.050377461189015"><ele>179.0</ele><time>2026-03-22T08:42:38.999Z</time></trkpt><trkpt lat="48.439717105897586" lon="-4.050264908600596"><ele>180.0</ele><time>2026-03-22T08:42:39.999Z</time></trkpt><trkpt lat="48.439887687068776" lon="-4.050167561706136"><ele>181.0</ele><time>2026-03-22T08:42:40.999Z</time></trkpt><trkpt lat="48.440034794625156" lon="-4.05008767432227"><ele>182.0</ele><time>2026-03-22T08:42:41.999Z</time></trkpt><trkpt lat="48.44017743556625" lon="-4.050002985978962"><ele>182.0</ele><time>2026-03-22T08:42:42.999Z</time></trkpt><trkpt lat="48.44031604592392" lon="-4.0499126224806155"><ele>182.0</ele><time>2026-03-22T08:42:43.999Z</time></trkpt><trkpt lat="48.440454259200095" lon="-4.049832306963789"><ele>182.0</ele><time>2026-03-22T08:42:44.999Z</time></trkpt><trkpt lat="48.44059458589796" lon="-4.049760530726043"><ele>182.0</ele><time>2026-03-22T08:42:45.999Z</time></trkpt><trkpt lat="48.44074477923504" lon="-4.049669639758449"><ele>182.0</ele><time>2026-03-22T08:42:46.999Z</time></trkpt><trkpt lat="48.44088806452918" lon="-4.04958727935148"><ele>182.0</ele><time>2026-03-22T08:42:47.999Z</time></trkpt><trkpt lat="48.4410347761718" lon="-4.049497037938904"><ele>182.0</ele><time>2026-03-22T08:42:48.999Z</time></trkpt><trkpt lat="48.44118454234519" lon="-4.049410915765716"><ele>182.33333333333331</ele><time>2026-03-22T08:42:49.999Z</time></trkpt><trkpt lat="48.44134462214607" lon="-4.049319415745971"><ele>182.66666666666666</ele><time>2026-03-22T08:42:50.999Z</time></trkpt><trkpt lat="48.44148358439072" lon="-4.049236062084524"><ele>183.0</ele><time>2026-03-22T08:42:51.999Z</time></trkpt><trkpt lat="48.441612984834805" lon="-4.049168040973019"><ele>182.25</ele><time>2026-03-22T08:42:52.999Z</time></trkpt><trkpt lat="48.44174461462806" lon="-4.049095240058073"><ele>181.5</ele><time>2026-03-22T08:42:53.999Z</time></trkpt><trkpt lat="48.4418685789597" lon="-4.049042960351976"><ele>180.75</ele><time>2026-03-22T08:42:54.999Z</time></trkpt><trkpt lat="48.44198407910332" lon="-4.048989948294603"><ele>180.0</ele><time>2026-03-22T08:42:55.999Z</time></trkpt><trkpt lat="48.442079650314234" lon="-4.04891562148908"><ele>180.25</ele><time>2026-03-22T08:42:56.999Z</time></trkpt><trkpt lat="48.44217194627575" lon="-4.048806958957822"><ele>180.5</ele><time>2026-03-22T08:42:57.999Z</time></trkpt><trkpt lat="48.44223595656952" lon="-4.04863460224671"><ele>180.75</ele><time>2026-03-22T08:42:58.999Z</time></trkpt><trkpt lat="48.44233427837402" lon="-4.0484821990838915"><ele>181.0</ele><time>2026-03-22T08:42:59.999Z</time></trkpt><trkpt lat="48.44243353806167" lon="-4.048289487144391"><ele>180.33333333333334</ele><time>2026-03-22T08:43:00.999Z</time></trkpt><trkpt lat="48.44253813782026" lon="-4.048067435693407"><ele>179.66666666666666</ele><time>2026-03-22T08:43:01.999Z</time></trkpt><trkpt lat="48.44263075911682" lon="-4.04780056517933"><ele>179.0</ele><time>2026-03-22T08:43:02.999Z</time></trkpt><trkpt lat="48.442752645405804" lon="-4.047531648081408"><ele>179.0</ele><time>2026-03-22T08:43:03.999Z</time></trkpt><trkpt lat="48.44287034947185" lon="-4.04730567935339"><ele>179.0</ele><time>2026-03-22T08:43:04.999Z</time></trkpt><trkpt lat="48.443003998862245" lon="-4.047099299381422"><ele>179.0</ele><time>2026-03-22T08:43:05.999Z</time></trkpt><trkpt lat="48.44312839161718" lon="-4.046872206951694"><ele>179.0</ele><time>2026-03-22T08:43:06.999Z</time></trkpt><trkpt lat="48.44323765231778" lon="-4.04664409482385"><ele>179.0</ele><time>2026-03-22T08:43:07.999Z</time></trkpt><trkpt lat="48.44335438094742" lon="-4.046435340620037"><ele>179.0</ele><time>2026-03-22T08:43:08.999Z</time></trkpt><trkpt lat="48.44347385584572" lon="-4.046242403529994"><ele>178.33333333333331</ele><time>2026-03-22T08:43:09.999Z</time></trkpt><trkpt lat="48.44358801471965" lon="-4.046049654479015"><ele>177.66666666666666</ele><time>2026-03-22T08:43:10.999Z</time></trkpt><trkpt lat="48.44369112559309" lon="-4.045852191009213"><ele>177.0</ele><time>2026-03-22T08:43:11.999Z</time></trkpt><trkpt lat="48.443760026185" lon="-4.04566455863625"><ele>177.0</ele><time>2026-03-22T08:43:12.999Z</time></trkpt><trkpt lat="48.44380772167202" lon="-4.045482160124932"><ele>177.0</ele><time>2026-03-22T08:43:13.999Z</time></trkpt><trkpt lat="48.44384641090842" lon="-4.045314158075381"><ele>177.0</ele><time>2026-03-22T08:43:14.999Z</time></trkpt><trkpt lat="48.4438267984453" lon="-4.045173945866006"><ele>177.0</ele><time>2026-03-22T08:43:15.999Z</time></trkpt><trkpt lat="48.44376736731754" lon="-4.045023460939988"><ele>177.33333333333334</ele><time>2026-03-22T08:43:16.999Z</time></trkpt><trkpt lat="48.44372277419879" lon="-4.044826708840117"><ele>177.66666666666669</ele><time>2026-03-22T08:43:17.999Z</time></trkpt><trkpt lat="48.44369854333172" lon="-4.0445897972043605"><ele>178.0</ele><time>2026-03-22T08:43:18.999Z</time></trkpt><trkpt lat="48.44367981178115" lon="-4.044350429112679"><ele>178.33333333333334</ele><time>2026-03-22T08:43:19.999Z</time></trkpt><trkpt lat="48.44366644278421" lon="-4.04409565919851"><ele>178.66666666666666</ele><time>2026-03-22T08:43:20.999Z</time></trkpt><trkpt lat="48.44365112985988" lon="-4.04385148668285"><ele>179.0</ele><time>2026-03-22T08:43:21.999Z</time></trkpt><trkpt lat="48.44361559553674" lon="-4.043602207094372"><ele>179.0</ele><time>2026-03-22T08:43:22.999Z</time></trkpt><trkpt lat="48.44358063088676" lon="-4.043343656625653"><ele>179.0</ele><time>2026-03-22T08:43:23.999Z</time></trkpt><trkpt lat="48.443537040919225" lon="-4.043100941596855"><ele>179.0</ele><time>2026-03-22T08:43:24.999Z</time></trkpt><trkpt lat="48.443481159158885" lon="-4.0428773451956665"><ele>179.66666666666666</ele><time>2026-03-22T08:43:25.999Z</time></trkpt><trkpt lat="48.44342407253181" lon="-4.042658470792793"><ele>180.33333333333334</ele><time>2026-03-22T08:43:26.999Z</time></trkpt><trkpt lat="48.443353587646286" lon="-4.042424908338455"><ele>181.0</ele><time>2026-03-22T08:43:28Z</time></trkpt><trkpt lat="48.44328576306132" lon="-4.042212346118114"><ele>181.5</ele><time>2026-03-22T08:43:29Z</time></trkpt><trkpt lat="48.44321047993045" lon="-4.04200397861264"><ele>182.0</ele><time>2026-03-22T08:43:30Z</time></trkpt><trkpt lat="48.44312448150397" lon="-4.041846013995134"><ele>182.5</ele><time>2026-03-22T08:43:31Z</time></trkpt><trkpt lat="48.44304124693476" lon="-4.041696774436571"><ele>183.0</ele><time>2026-03-22T08:43:32Z</time></trkpt><trkpt lat="48.44292998320911" lon="-4.041607880475874"><ele>183.25</ele><time>2026-03-22T08:43:33Z</time></trkpt><trkpt lat="48.44280186960006" lon="-4.041502913593872"><ele>183.5</ele><time>2026-03-22T08:43:34Z</time></trkpt><trkpt lat="48.44266713930514" lon="-4.0414072346099355"><ele>183.75</ele><time>2026-03-22T08:43:35Z</time></trkpt><trkpt lat="48.44254923791088" lon="-4.041328152621479"><ele>184.0</ele><time>2026-03-22T08:43:36Z</time></trkpt><trkpt lat="48.442454088696294" lon="-4.04125998080758"><ele>184.0</ele><time>2026-03-22T08:43:37Z</time></trkpt><trkpt lat="48.44238208917732" lon="-4.041166227505971"><ele>184.0</ele><time>2026-03-22T08:43:38Z</time></trkpt><trkpt lat="48.44233957516929" lon="-4.041087547952015"><ele>184.0</ele><time>2026-03-22T08:43:39Z</time></trkpt><trkpt lat="48.4423327044525" lon="-4.040950575925507"><ele>184.0</ele><time>2026-03-22T08:43:40Z</time></trkpt><trkpt lat="48.44237146905912" lon="-4.040792050821562"><ele>184.0</ele><time>2026-03-22T08:43:41Z</time></trkpt><trkpt lat="48.4424120549409" lon="-4.040605444521021"><ele>184.25</ele><time>2026-03-22T08:43:42Z</time></trkpt><trkpt lat="48.44246984952406" lon="-4.040420822570767"><ele>184.5</ele><time>2026-03-22T08:43:43Z</time></trkpt><trkpt lat="48.44251610934311" lon="-4.0402271856287415"><ele>184.75</ele><time>2026-03-22T08:43:44Z</time></trkpt><trkpt lat="48.44255573492898" lon="-4.040016234995158"><ele>185.0</ele><time>2026-03-22T08:43:45Z</time></trkpt><trkpt lat="48.442591479232554" lon="-4.039805835990248"><ele>185.0</ele><time>2026-03-22T08:43:46Z</time></trkpt><trkpt lat="48.44262112359158" lon="-4.039602264772688"><ele>185.0</ele><time>2026-03-22T08:43:47Z</time></trkpt><trkpt lat="48.44264785398125" lon="-4.039394144944797"><ele>185.0</ele><time>2026-03-22T08:43:48Z</time></trkpt><trkpt lat="48.44267363018505" lon="-4.039180939082484"><ele>185.0</ele><time>2026-03-22T08:43:49Z</time></trkpt><trkpt lat="48.44269408028948" lon="-4.038957805328929"><ele>185.0</ele><time>2026-03-22T08:43:50Z</time></trkpt><trkpt lat="48.44271004388983" lon="-4.03873807732651"><ele>185.0</ele><time>2026-03-22T08:43:51Z</time></trkpt><trkpt lat="48.44272948529206" lon="-4.038534256324698"><ele>185.0</ele><time>2026-03-22T08:43:52Z</time></trkpt><trkpt lat="48.442747784076104" lon="-4.038333733370916"><ele>185.0</ele><time>2026-03-22T08:43:53Z</time></trkpt><trkpt lat="48.44276125548332" lon="-4.038131449856764"><ele>184.5</ele><time>2026-03-22T08:43:54Z</time></trkpt><trkpt lat="48.44275562718359" lon="-4.037940714031078"><ele>184.0</ele><time>2026-03-22T08:43:55Z</time></trkpt><trkpt lat="48.44274883948572" lon="-4.037757299516508"><ele>183.5</ele><time>2026-03-22T08:43:56Z</time></trkpt><trkpt lat="48.44274262409865" lon="-4.0375959048503285"><ele>183.0</ele><time>2026-03-22T08:43:57Z</time></trkpt><trkpt lat="48.44273982376526" lon="-4.037437846696535"><ele>182.4</ele><time>2026-03-22T08:43:58Z</time></trkpt><trkpt lat="48.442734288317574" lon="-4.037290387216732"><ele>181.8</ele><time>2026-03-22T08:43:59Z</time></trkpt><trkpt lat="48.44272242750902" lon="-4.037157797799116"><ele>181.2</ele><time>2026-03-22T08:44:00Z</time></trkpt><trkpt lat="48.44271398179107" lon="-4.037054547160006"><ele>180.6</ele><time>2026-03-22T08:44:01Z</time></trkpt><trkpt lat="48.4427170234857" lon="-4.036927506011543"><ele>180.0</ele><time>2026-03-22T08:44:03Z</time></trkpt><trkpt lat="48.44254982160925" lon="-4.0369369359976615"><ele>180.0</ele><time>2026-03-22T08:44:05Z</time></trkpt><trkpt lat="48.44246384000154" lon="-4.03691576697473"><ele>180.0</ele><time>2026-03-22T08:44:06Z</time></trkpt><trkpt lat="48.442382302446646" lon="-4.036868711827312"><ele>180.0</ele><time>2026-03-22T08:44:07Z</time></trkpt><trkpt lat="48.442291835570366" lon="-4.036848183559118"><ele>180.0</ele><time>2026-03-22T08:44:08Z</time></trkpt><trkpt lat="48.44220321568181" lon="-4.036818169961679"><ele>180.0</ele><time>2026-03-22T08:44:09Z</time></trkpt><trkpt lat="48.44210659977256" lon="-4.036777939233459"><ele>180.2</ele><time>2026-03-22T08:44:10Z</time></trkpt><trkpt lat="48.44201266746159" lon="-4.036719914143863"><ele>180.4</ele><time>2026-03-22T08:44:11Z</time></trkpt><trkpt lat="48.44191300977192" lon="-4.036666461081766"><ele>180.60000000000002</ele><time>2026-03-22T08:44:12Z</time></trkpt><trkpt lat="48.441832359299156" lon="-4.036607468320716"><ele>180.8</ele><time>2026-03-22T08:44:13Z</time></trkpt><trkpt lat="48.44174683981758" lon="-4.036526414617479"><ele>181.0</ele><time>2026-03-22T08:44:14Z</time></trkpt><trkpt lat="48.44166370801414" lon="-4.036456027633616"><ele>179.5</ele><time>2026-03-22T08:44:15Z</time></trkpt><trkpt lat="48.44157133218349" lon="-4.036324308692536"><ele>178.0</ele><time>2026-03-22T08:44:16Z</time></trkpt><trkpt lat="48.441490611604586" lon="-4.0362043457618935"><ele>176.5</ele><time>2026-03-22T08:44:17Z</time></trkpt><trkpt lat="48.44141285157482" lon="-4.036080463549591"><ele>175.0</ele><time>2026-03-22T08:44:18Z</time></trkpt><trkpt lat="48.44133365022392" lon="-4.035958050990478"><ele>174.6</ele><time>2026-03-22T08:44:19Z</time></trkpt><trkpt lat="48.44125661561824" lon="-4.035836114568665"><ele>174.2</ele><time>2026-03-22T08:44:20Z</time></trkpt><trkpt lat="48.44118138583261" lon="-4.035718050436778"><ele>173.8</ele><time>2026-03-22T08:44:21Z</time></trkpt><trkpt lat="48.44110283350453" lon="-4.035605976166195"><ele>173.4</ele><time>2026-03-22T08:44:22Z</time></trkpt><trkpt lat="48.44102316589532" lon="-4.03549360075724"><ele>173.0</ele><time>2026-03-22T08:44:23Z</time></trkpt><trkpt lat="48.44094629906097" lon="-4.035385239229196"><ele>172.5</ele><time>2026-03-22T08:44:24Z</time></trkpt><trkpt lat="48.44087113229166" lon="-4.035278945636312"><ele>172.0</ele><time>2026-03-22T08:44:24.999Z</time></trkpt><trkpt lat="48.440800385621245" lon="-4.035179684989251"><ele>171.5</ele><time>2026-03-22T08:44:25.999Z</time></trkpt><trkpt lat="48.440736421133316" lon="-4.03508939768673"><ele>171.0</ele><time>2026-03-22T08:44:26.999Z</time></trkpt><trkpt lat="48.44069054787943" lon="-4.0350083133350765"><ele>170.5</ele><time>2026-03-22T08:44:27.999Z</time></trkpt><trkpt lat="48.44062886575338" lon="-4.034942784352511"><ele>170.0</ele><time>2026-03-22T08:44:29.999Z</time></trkpt><trkpt lat="48.44075119267902" lon="-4.034694923185142"><ele>169.5</ele><time>2026-03-22T08:44:30.999Z</time></trkpt><trkpt lat="48.440756091941566" lon="-4.034535743267316"><ele>169.0</ele><time>2026-03-22T08:44:31.999Z</time></trkpt><trkpt lat="48.440786125074005" lon="-4.034369626765672"><ele>168.5</ele><time>2026-03-22T08:44:32.999Z</time></trkpt><trkpt lat="48.44080802509367" lon="-4.034197821722462"><ele>168.0</ele><time>2026-03-22T08:44:33.999Z</time></trkpt><trkpt lat="48.440933699433174" lon="-4.034021830820607"><ele>168.0</ele><time>2026-03-22T08:44:34.999Z</time></trkpt><trkpt lat="48.440939604719865" lon="-4.033897798805654"><ele>168.0</ele><time>2026-03-22T08:44:35.999Z</time></trkpt><trkpt lat="48.440956267459306" lon="-4.0337682364598315"><ele>168.0</ele><time>2026-03-22T08:44:36.999Z</time></trkpt><trkpt lat="48.44097284046621" lon="-4.033642324085972"><ele>168.0</ele><time>2026-03-22T08:44:37.999Z</time></trkpt><trkpt lat="48.44099033966525" lon="-4.033509372188128"><ele>168.0</ele><time>2026-03-22T08:44:38.999Z</time></trkpt><trkpt lat="48.4410083553657" lon="-4.033372496115101"><ele>168.0</ele><time>2026-03-22T08:44:39.999Z</time></trkpt><trkpt lat="48.440689985194645" lon="-4.0331323165722734"><ele>168.0</ele><time>2026-03-22T08:44:40.999Z</time></trkpt><trkpt lat="48.44065992751782" lon="-4.032971596316503"><ele>168.0</ele><time>2026-03-22T08:44:41.999Z</time></trkpt><trkpt lat="48.440647891823744" lon="-4.032783903271556"><ele>168.0</ele><time>2026-03-22T08:44:42.999Z</time></trkpt><trkpt lat="48.44064225527433" lon="-4.032631954763721"><ele>168.0</ele><time>2026-03-22T08:44:43.999Z</time></trkpt><trkpt lat="48.44065020584084" lon="-4.032504311015726"><ele>168.0</ele><time>2026-03-22T08:44:44.999Z</time></trkpt><trkpt lat="48.44066100677332" lon="-4.032398934559809"><ele>168.2</ele><time>2026-03-22T08:44:45.999Z</time></trkpt><trkpt lat="48.44067781558689" lon="-4.032265749180374"><ele>168.4</ele><time>2026-03-22T08:44:47.999Z</time></trkpt><trkpt lat="48.440584181524706" lon="-4.032248911831705"><ele>168.6</ele><time>2026-03-22T08:44:51.999Z</time></trkpt><trkpt lat="48.440518456064694" lon="-4.032236041071518"><ele>168.79999999999998</ele><time>2026-03-22T08:44:52.999Z</time></trkpt><trkpt lat="48.440420042349096" lon="-4.032209574587507"><ele>169.0</ele><time>2026-03-22T08:44:53.999Z</time></trkpt><trkpt lat="48.440310478485834" lon="-4.032179211839844"><ele>167.75</ele><time>2026-03-22T08:44:54.999Z</time></trkpt><trkpt lat="48.44019978574395" lon="-4.032164900839796"><ele>166.5</ele><time>2026-03-22T08:44:55.999Z</time></trkpt><trkpt lat="48.440069099938924" lon="-4.032146028464158"><ele>165.25</ele><time>2026-03-22T08:44:56.999Z</time></trkpt><trkpt lat="48.439966113417164" lon="-4.032117193496155"><ele>164.0</ele><time>2026-03-22T08:44:57.999Z</time></trkpt><trkpt lat="48.43986209099163" lon="-4.032081390249729"><ele>164.0</ele><time>2026-03-22T08:44:58.999Z</time></trkpt><trkpt lat="48.43975507322758" lon="-4.032044515206562"><ele>164.0</ele><time>2026-03-22T08:44:59.999Z</time></trkpt><trkpt lat="48.439662054771155" lon="-4.032025283979688"><ele>164.0</ele><time>2026-03-22T08:45:00.999Z</time></trkpt><trkpt lat="48.439571952778316" lon="-4.032005669519736"><ele>164.0</ele><time>2026-03-22T08:45:02.999Z</time></trkpt><trkpt lat="48.43947389066256" lon="-4.031975780082104"><ele>164.0</ele><time>2026-03-22T08:45:04.999Z</time></trkpt><trkpt lat="48.43940697390616" lon="-4.031928104897058"><ele>163.0</ele><time>2026-03-22T08:45:06.999Z</time></trkpt><trkpt lat="48.439351478754816" lon="-4.031802904160006"><ele>162.0</ele><time>2026-03-22T08:45:08.999Z</time></trkpt><trkpt lat="48.439345239292095" lon="-4.031679339202744"><ele>161.0</ele><time>2026-03-22T08:45:09.999Z</time></trkpt><trkpt lat="48.4393251042568" lon="-4.0315003998686585"><ele>160.0</ele><time>2026-03-22T08:45:10.999Z</time></trkpt><trkpt lat="48.439289308266694" lon="-4.0313503918898315"><ele>159.0</ele><time>2026-03-22T08:45:11.999Z</time></trkpt><trkpt lat="48.439243619756795" lon="-4.031188533246181"><ele>158.2</ele><time>2026-03-22T08:45:12.999Z</time></trkpt><trkpt lat="48.439217591944136" lon="-4.031014928952841"><ele>157.4</ele><time>2026-03-22T08:45:13.999Z</time></trkpt><trkpt lat="48.43920811335519" lon="-4.030857234820688"><ele>156.6</ele><time>2026-03-22T08:45:14.999Z</time></trkpt><trkpt lat="48.43918963588802" lon="-4.030679583991052"><ele>155.8</ele><time>2026-03-22T08:45:15.999Z</time></trkpt><trkpt lat="48.4392032712734" lon="-4.030533459220125"><ele>155.0</ele><time>2026-03-22T08:45:16.999Z</time></trkpt><trkpt lat="48.4392058309867" lon="-4.030413564808631"><ele>154.4</ele><time>2026-03-22T08:45:17.999Z</time></trkpt><trkpt lat="48.43921170012384" lon="-4.0303119689650035"><ele>153.8</ele><time>2026-03-22T08:45:18.999Z</time></trkpt><trkpt lat="48.4392142312328" lon="-4.030180870854057"><ele>153.2</ele><time>2026-03-22T08:45:19.999Z</time></trkpt><trkpt lat="48.4392485364467" lon="-4.030025103290365"><ele>152.6</ele><time>2026-03-22T08:45:20.999Z</time></trkpt><trkpt lat="48.439293064407885" lon="-4.029865157582693"><ele>152.0</ele><time>2026-03-22T08:45:21.999Z</time></trkpt><trkpt lat="48.439350170968126" lon="-4.029693682931704"><ele>151.2</ele><time>2026-03-22T08:45:22.999Z</time></trkpt><trkpt lat="48.43941027248178" lon="-4.0295364215580065"><ele>150.39999999999998</ele><time>2026-03-22T08:45:23.999Z</time></trkpt><trkpt lat="48.43946979268041" lon="-4.029434230263887"><ele>149.60000000000002</ele><time>2026-03-22T08:45:24.999Z</time></trkpt><trkpt lat="48.439513370352564" lon="-4.029359065206984"><ele>148.8</ele><time>2026-03-22T08:45:25.999Z</time></trkpt><trkpt lat="48.439490092987064" lon="-4.029179143062972"><ele>148.0</ele><time>2026-03-22T08:45:27.999Z</time></trkpt><trkpt lat="48.439499293335025" lon="-4.029084921358622"><ele>147.75</ele><time>2026-03-22T08:45:28.999Z</time></trkpt><trkpt lat="48.43956778531293" lon="-4.028975480897345"><ele>147.5</ele><time>2026-03-22T08:45:29.999Z</time></trkpt><trkpt lat="48.43966955887463" lon="-4.028794227689005"><ele>147.25</ele><time>2026-03-22T08:45:30.999Z</time></trkpt><trkpt lat="48.43975595007478" lon="-4.028567456110719"><ele>147.0</ele><time>2026-03-22T08:45:31.999Z</time></trkpt><trkpt lat="48.43982796698898" lon="-4.028425656403141"><ele>147.0</ele><time>2026-03-22T08:45:32.999Z</time></trkpt><trkpt lat="48.43987299134238" lon="-4.028337916946699"><ele>147.0</ele><time>2026-03-22T08:45:34Z</time></trkpt><trkpt lat="48.43994291859855" lon="-4.028239183684554"><ele>147.0</ele><time>2026-03-22T08:45:36Z</time></trkpt><trkpt lat="48.440032648984904" lon="-4.0282700116697105"><ele>147.0</ele><time>2026-03-22T08:45:38Z</time></trkpt><trkpt lat="48.440064349318256" lon="-4.028159314512226"><ele>147.0</ele><time>2026-03-22T08:45:40Z</time></trkpt><trkpt lat="48.44012741667629" lon="-4.028116209460309"><ele>147.0</ele><time>2026-03-22T08:45:42Z</time></trkpt><trkpt lat="48.440201066833396" lon="-4.028115137817712"><ele>146.6</ele><time>2026-03-22T08:45:43Z</time></trkpt><trkpt lat="48.44027213212457" lon="-4.0280291475365"><ele>146.2</ele><time>2026-03-22T08:45:44Z</time></trkpt><trkpt lat="48.44032864243213" lon="-4.027949568081856"><ele>145.8</ele><time>2026-03-22T08:45:45Z</time></trkpt><trkpt lat="48.440441140392075" lon="-4.0277979337557355"><ele>145.4</ele><time>2026-03-22T08:45:47Z</time></trkpt><trkpt lat="48.44050145518734" lon="-4.0276981349694605"><ele>145.0</ele><time>2026-03-22T08:45:48Z</time></trkpt><trkpt lat="48.44056513144684" lon="-4.027597585902817"><ele>145.0</ele><time>2026-03-22T08:45:49Z</time></trkpt><trkpt lat="48.440626873736115" lon="-4.027526508040732"><ele>145.0</ele><time>2026-03-22T08:45:50Z</time></trkpt><trkpt lat="48.44067376833207" lon="-4.027431786029329"><ele>145.0</ele><time>2026-03-22T08:45:52Z</time></trkpt><trkpt lat="48.44073734918051" lon="-4.027369543234557"><ele>145.0</ele><time>2026-03-22T08:45:54Z</time></trkpt><trkpt lat="48.440810183899146" lon="-4.027383528369139"><ele>145.0</ele><time>2026-03-22T08:45:55Z</time></trkpt><trkpt lat="48.44092397083791" lon="-4.027362124223102"><ele>145.0</ele><time>2026-03-22T08:45:56Z</time></trkpt><trkpt lat="48.44101860967327" lon="-4.027330609844067"><ele>143.6</ele><time>2026-03-22T08:45:57Z</time></trkpt><trkpt lat="48.44108216446176" lon="-4.027333600941315"><ele>142.2</ele><time>2026-03-22T08:45:58Z</time></trkpt><trkpt lat="48.44119446675912" lon="-4.0272745343772876"><ele>140.8</ele><time>2026-03-22T08:46:00Z</time></trkpt><trkpt lat="48.44129920510248" lon="-4.027221278049263"><ele>139.4</ele><time>2026-03-22T08:46:01Z</time></trkpt><trkpt lat="48.4413876458221" lon="-4.027144811919553"><ele>138.0</ele><time>2026-03-22T08:46:02Z</time></trkpt><trkpt lat="48.44147547146189" lon="-4.027070878606726"><ele>137.83333333333334</ele><time>2026-03-22T08:46:03Z</time></trkpt><trkpt lat="48.441527022308684" lon="-4.027008633663595"><ele>137.66666666666666</ele><time>2026-03-22T08:46:04Z</time></trkpt><trkpt lat="48.44163972466622" lon="-4.02703329762597"><ele>137.5</ele><time>2026-03-22T08:46:06Z</time></trkpt><trkpt lat="48.44170493630038" lon="-4.027059389575735"><ele>137.33333333333331</ele><time>2026-03-22T08:46:07Z</time></trkpt><trkpt lat="48.44178317142516" lon="-4.027062184140756"><ele>137.16666666666666</ele><time>2026-03-22T08:46:11Z</time></trkpt><trkpt lat="48.4418531936905" lon="-4.027016677810725"><ele>137.0</ele><time>2026-03-22T08:46:13Z</time></trkpt><trkpt lat="48.44190916176932" lon="-4.0269653965992225"><ele>137.0</ele><time>2026-03-22T08:46:15Z</time></trkpt><trkpt lat="48.44200484979683" lon="-4.026928077224804"><ele>137.0</ele><time>2026-03-22T08:46:17Z</time></trkpt><trkpt lat="48.44208092768682" lon="-4.02691714161898"><ele>137.0</ele><time>2026-03-22T08:46:55.999Z</time></trkpt><trkpt lat="48.44214866437704" lon="-4.026870715913568"><ele>137.0</ele><time>2026-03-22T08:47:26.999Z</time></trkpt><trkpt lat="48.4421959461774" lon="-4.02678295376106"><ele>137.0</ele><time>2026-03-22T08:47:28.999Z</time></trkpt><trkpt lat="48.442263621449676" lon="-4.02674524717031"><ele>137.0</ele><time>2026-03-22T08:47:30.999Z</time></trkpt><trkpt lat="48.44235026831755" lon="-4.02679651770733"><ele>137.83333333333331</ele><time>2026-03-22T08:47:32.999Z</time></trkpt><trkpt lat="48.442442546241885" lon="-4.0268753432786974"><ele>138.66666666666666</ele><time>2026-03-22T08:47:34.999Z</time></trkpt><trkpt lat="48.442527442401726" lon="-4.026835195830436"><ele>139.5</ele><time>2026-03-22T08:47:36.999Z</time></trkpt><trkpt lat="48.442606419529675" lon="-4.026779285944756"><ele>140.33333333333334</ele><time>2026-03-22T08:47:40Z</time></trkpt><trkpt lat="48.44269601006097" lon="-4.026755655855564"><ele>141.16666666666669</ele><time>2026-03-22T08:47:43Z</time></trkpt><trkpt lat="48.44276849327518" lon="-4.026776106988169"><ele>142.0</ele><time>2026-03-22T08:47:46Z</time></trkpt><trkpt lat="48.44286369256011" lon="-4.026745916262338"><ele>142.75</ele><time>2026-03-22T08:47:48Z</time></trkpt><trkpt lat="48.442916304857036" lon="-4.026626464173202"><ele>143.5</ele><time>2026-03-22T08:47:51Z</time></trkpt><trkpt lat="48.44302570207175" lon="-4.026584275272061"><ele>144.25</ele><time>2026-03-22T08:47:53Z</time></trkpt><trkpt lat="48.44314139707066" lon="-4.0266779201028635"><ele>145.0</ele><time>2026-03-22T08:47:54Z</time></trkpt><trkpt lat="48.44325453117721" lon="-4.026776682975258"><ele>145.0</ele><time>2026-03-22T08:47:55Z</time></trkpt><trkpt lat="48.443367774936036" lon="-4.026802322993463"><ele>145.0</ele><time>2026-03-22T08:47:56Z</time></trkpt><trkpt lat="48.443463244543075" lon="-4.026815222166111"><ele>145.0</ele><time>2026-03-22T08:47:57Z</time></trkpt><trkpt lat="48.443577964029124" lon="-4.026856717883591"><ele>145.0</ele><time>2026-03-22T08:47:59Z</time></trkpt><trkpt lat="48.44366579538947" lon="-4.026911356036364"><ele>145.0</ele><time>2026-03-22T08:48:00Z</time></trkpt><trkpt lat="48.44378471908196" lon="-4.026983662961003"><ele>142.8</ele><time>2026-03-22T08:48:01Z</time></trkpt><trkpt lat="48.443861113960395" lon="-4.027052047770261"><ele>140.6</ele><time>2026-03-22T08:48:02Z</time></trkpt><trkpt lat="48.443950246694314" lon="-4.027101747674729"><ele>138.4</ele><time>2026-03-22T08:48:03Z</time></trkpt><trkpt lat="48.44402213753064" lon="-4.027138908680335"><ele>136.2</ele><time>2026-03-22T08:48:04Z</time></trkpt><trkpt lat="48.444127034339544" lon="-4.02719993240771"><ele>134.0</ele><time>2026-03-22T08:48:06Z</time></trkpt><trkpt lat="48.444191423868226" lon="-4.02726710013054"><ele>134.0</ele><time>2026-03-22T08:48:08Z</time></trkpt><trkpt lat="48.444251514089046" lon="-4.027336406441565"><ele>134.0</ele><time>2026-03-22T08:48:09Z</time></trkpt><trkpt lat="48.44433351250934" lon="-4.027398175115333"><ele>134.0</ele><time>2026-03-22T08:48:10Z</time></trkpt><trkpt lat="48.444407724217406" lon="-4.027441607988215"><ele>134.0</ele><time>2026-03-22T08:48:11Z</time></trkpt><trkpt lat="48.44450129426641" lon="-4.027516828157661"><ele>134.0</ele><time>2026-03-22T08:48:13Z</time></trkpt><trkpt lat="48.444560911049244" lon="-4.027550099393457"><ele>134.0</ele><time>2026-03-22T08:48:14Z</time></trkpt><trkpt lat="48.44463244129102" lon="-4.027585307470217"><ele>134.66666666666666</ele><time>2026-03-22T08:48:15Z</time></trkpt><trkpt lat="48.4446878090784" lon="-4.027630621084044"><ele>135.33333333333331</ele><time>2026-03-22T08:48:16Z</time></trkpt><trkpt lat="48.44474607370557" lon="-4.027681504298782"><ele>136.0</ele><time>2026-03-22T08:48:17Z</time></trkpt><trkpt lat="48.44481284232421" lon="-4.027732283864629"><ele>136.66666666666666</ele><time>2026-03-22T08:48:18Z</time></trkpt><trkpt lat="48.44489153288953" lon="-4.027835464954629"><ele>137.33333333333334</ele><time>2026-03-22T08:48:20Z</time></trkpt><trkpt lat="48.44495329201429" lon="-4.027916687066634"><ele>138.0</ele><time>2026-03-22T08:48:21Z</time></trkpt><trkpt lat="48.44500519519972" lon="-4.027971197695854"><ele>138.0</ele><time>2026-03-22T08:48:22Z</time></trkpt><trkpt lat="48.445070363648384" lon="-4.028004596003483"><ele>138.0</ele><time>2026-03-22T08:48:23Z</time></trkpt><trkpt lat="48.445162471137614" lon="-4.028035379388374"><ele>138.0</ele><time>2026-03-22T08:48:24Z</time></trkpt><trkpt lat="48.445259716532576" lon="-4.028057608968218"><ele>138.0</ele><time>2026-03-22T08:48:25Z</time></trkpt><trkpt lat="48.4453603531573" lon="-4.028086097533415"><ele>138.0</ele><time>2026-03-22T08:48:26Z</time></trkpt><trkpt lat="48.44545015084682" lon="-4.0281250958319275"><ele>136.6</ele><time>2026-03-22T08:48:27Z</time></trkpt><trkpt lat="48.445516433416834" lon="-4.028164154123478"><ele>135.20000000000002</ele><time>2026-03-22T08:48:28Z</time></trkpt><trkpt lat="48.4456193053244" lon="-4.028193090776688"><ele>133.8</ele><time>2026-03-22T08:48:30Z</time></trkpt><trkpt lat="48.44569267741513" lon="-4.028217097180396"><ele>132.4</ele><time>2026-03-22T08:48:31Z</time></trkpt><trkpt lat="48.44578992307107" lon="-4.028263963440848"><ele>131.0</ele><time>2026-03-22T08:48:32Z</time></trkpt><trkpt lat="48.445881851125186" lon="-4.028320328292309"><ele>133.5</ele><time>2026-03-22T08:48:33Z</time></trkpt><trkpt lat="48.44596929610233" lon="-4.0283891221607036"><ele>136.0</ele><time>2026-03-22T08:48:34Z</time></trkpt><trkpt lat="48.446039858257414" lon="-4.028455414529974"><ele>138.5</ele><time>2026-03-22T08:48:35Z</time></trkpt><trkpt lat="48.44609314765553" lon="-4.028507552965052"><ele>141.0</ele><time>2026-03-22T08:48:36Z</time></trkpt><trkpt lat="48.446063433915725" lon="-4.028625676290154"><ele>143.5</ele><time>2026-03-22T08:48:38.999Z</time></trkpt><trkpt lat="48.446034906557806" lon="-4.0287282146952235"><ele>146.0</ele><time>2026-03-22T08:48:39.999Z</time></trkpt><trkpt lat="48.4460490267201" lon="-4.028863821981029"><ele>146.0</ele><time>2026-03-22T08:48:40.999Z</time></trkpt><trkpt lat="48.44610425094777" lon="-4.028999578832516"><ele>146.0</ele><time>2026-03-22T08:48:41.999Z</time></trkpt><trkpt lat="48.44618586327744" lon="-4.029141936726843"><ele>146.0</ele><time>2026-03-22T08:48:42.999Z</time></trkpt><trkpt lat="48.44626927913866" lon="-4.029262468317799"><ele>146.0</ele><time>2026-03-22T08:48:43.999Z</time></trkpt><trkpt lat="48.44637092924071" lon="-4.029366685004136"><ele>145.75</ele><time>2026-03-22T08:48:44.999Z</time></trkpt><trkpt lat="48.446467472850436" lon="-4.029469796290893"><ele>145.5</ele><time>2026-03-22T08:48:45.999Z</time></trkpt><trkpt lat="48.44657195086108" lon="-4.029586124456476"><ele>145.25</ele><time>2026-03-22T08:48:46.999Z</time></trkpt><trkpt lat="48.44665831360003" lon="-4.029709238956801"><ele>145.0</ele><time>2026-03-22T08:48:47.999Z</time></trkpt><trkpt lat="48.446724850363694" lon="-4.0298208377693"><ele>145.0</ele><time>2026-03-22T08:48:48.999Z</time></trkpt><trkpt lat="48.4467858662026" lon="-4.0298909645945065"><ele>145.0</ele><time>2026-03-22T08:48:49.999Z</time></trkpt><trkpt lat="48.44683565541102" lon="-4.029969590354521"><ele>145.0</ele><time>2026-03-22T08:48:50.999Z</time></trkpt><trkpt lat="48.446861222417496" lon="-4.030074209276098"><ele>145.0</ele><time>2026-03-22T08:48:51.999Z</time></trkpt><trkpt lat="48.44686746428703" lon="-4.030225718579038"><ele>145.0</ele><time>2026-03-22T08:48:52.999Z</time></trkpt><trkpt lat="48.44686777052188" lon="-4.030332902434961"><ele>145.0</ele><time>2026-03-22T08:48:53.999Z</time></trkpt><trkpt lat="48.446880640351736" lon="-4.0304316834671265"><ele>147.4</ele><time>2026-03-22T08:48:54.999Z</time></trkpt><trkpt lat="48.446892726985816" lon="-4.0305374609083024"><ele>149.8</ele><time>2026-03-22T08:48:55.999Z</time></trkpt><trkpt lat="48.44690004965402" lon="-4.030651473069681"><ele>152.2</ele><time>2026-03-22T08:48:56.999Z</time></trkpt><trkpt lat="48.44684573460567" lon="-4.030817631067327"><ele>154.6</ele><time>2026-03-22T08:48:58.999Z</time></trkpt><trkpt lat="48.446779357594544" lon="-4.030928510229486"><ele>157.0</ele><time>2026-03-22T08:48:59.999Z</time></trkpt><trkpt lat="48.446723643836116" lon="-4.03101600752745"><ele>158.39999999999998</ele><time>2026-03-22T08:49:00.999Z</time></trkpt><trkpt lat="48.446663676833644" lon="-4.031117072150352"><ele>159.79999999999998</ele><time>2026-03-22T08:49:01.999Z</time></trkpt><trkpt lat="48.446588271704954" lon="-4.031226439500426"><ele>161.2</ele><time>2026-03-22T08:49:02.999Z</time></trkpt><trkpt lat="48.446521130876455" lon="-4.031324961456826"><ele>162.6</ele><time>2026-03-22T08:49:03.999Z</time></trkpt><trkpt lat="48.44645713943133" lon="-4.031436813215058"><ele>164.0</ele><time>2026-03-22T08:49:04.999Z</time></trkpt><trkpt lat="48.446395530660816" lon="-4.031534445978818"><ele>164.0</ele><time>2026-03-22T08:49:05.999Z</time></trkpt><trkpt lat="48.44643550229582" lon="-4.031622697894055"><ele>164.0</ele><time>2026-03-22T08:49:09.999Z</time></trkpt><trkpt lat="48.44653384659666" lon="-4.031714849881392"><ele>164.0</ele><time>2026-03-22T08:49:11.999Z</time></trkpt><trkpt lat="48.44650079475055" lon="-4.031875647625351"><ele>164.0</ele><time>2026-03-22T08:49:18.999Z</time></trkpt><trkpt lat="48.44644947202452" lon="-4.031977336482941"><ele>164.0</ele><time>2026-03-22T08:49:19.999Z</time></trkpt><trkpt lat="48.44638025348764" lon="-4.032092258029498"><ele>164.79999999999998</ele><time>2026-03-22T08:49:20.999Z</time></trkpt><trkpt lat="48.44630913758345" lon="-4.032205646753031"><ele>165.6</ele><time>2026-03-22T08:49:21.999Z</time></trkpt><trkpt lat="48.44625582025541" lon="-4.032274309293413"><ele>166.4</ele><time>2026-03-22T08:49:22.999Z</time></trkpt><trkpt lat="48.4462797239712" lon="-4.0324086823549194"><ele>167.2</ele><time>2026-03-22T08:49:24.999Z</time></trkpt><trkpt lat="48.4464271731292" lon="-4.032519209080547"><ele>168.0</ele><time>2026-03-22T08:49:26.999Z</time></trkpt><trkpt lat="48.446533473264275" lon="-4.032535038645817"><ele>168.75</ele><time>2026-03-22T08:49:27.999Z</time></trkpt><trkpt lat="48.44668538490526" lon="-4.032593155663131"><ele>169.5</ele><time>2026-03-22T08:49:28.999Z</time></trkpt><trkpt lat="48.44679263731392" lon="-4.032625477185917"><ele>170.25</ele><time>2026-03-22T08:49:29.999Z</time></trkpt><trkpt lat="48.44691026409121" lon="-4.032590421802672"><ele>171.0</ele><time>2026-03-22T08:49:30.999Z</time></trkpt><trkpt lat="48.447029426815284" lon="-4.032536520449416"><ele>171.4</ele><time>2026-03-22T08:49:31.999Z</time></trkpt><trkpt lat="48.44713438755211" lon="-4.032495318524729"><ele>171.8</ele><time>2026-03-22T08:49:32.999Z</time></trkpt><trkpt lat="48.44723799675699" lon="-4.032479295331402"><ele>172.20000000000002</ele><time>2026-03-22T08:49:33.999Z</time></trkpt><trkpt lat="48.447313952163896" lon="-4.032442814517233"><ele>172.60000000000002</ele><time>2026-03-22T08:49:34.999Z</time></trkpt><trkpt lat="48.447384706921746" lon="-4.032428997605612"><ele>173.0</ele><time>2026-03-22T08:49:35.999Z</time></trkpt><trkpt lat="48.44747652738831" lon="-4.032440144261177"><ele>171.8</ele><time>2026-03-22T08:49:36.999Z</time></trkpt><trkpt lat="48.447575526223794" lon="-4.032451053441716"><ele>170.60000000000002</ele><time>2026-03-22T08:49:37.999Z</time></trkpt><trkpt lat="48.4476701948878" lon="-4.032457821141231"><ele>169.39999999999998</ele><time>2026-03-22T08:49:38.999Z</time></trkpt><trkpt lat="48.447784218177404" lon="-4.032472365101301"><ele>168.2</ele><time>2026-03-22T08:49:39.999Z</time></trkpt><trkpt lat="48.44791040907997" lon="-4.032435967384415"><ele>167.0</ele><time>2026-03-22T08:49:40.999Z</time></trkpt><trkpt lat="48.44802142411762" lon="-4.032396187357713"><ele>167.0</ele><time>2026-03-22T08:49:41.999Z</time></trkpt><trkpt lat="48.448110428119655" lon="-4.032389275155617"><ele>167.0</ele><time>2026-03-22T08:49:42.999Z</time></trkpt><trkpt lat="48.448188302166535" lon="-4.032442041440863"><ele>167.0</ele><time>2026-03-22T08:49:43.999Z</time></trkpt><trkpt lat="48.448244045137926" lon="-4.032493771943591"><ele>167.0</ele><time>2026-03-22T08:49:44.999Z</time></trkpt><trkpt lat="48.44830518057485" lon="-4.032549428086754"><ele>167.0</ele><time>2026-03-22T08:49:46Z</time></trkpt><trkpt lat="48.44834680612926" lon="-4.032623033403294"><ele>167.0</ele><time>2026-03-22T08:49:47Z</time></trkpt><trkpt lat="48.448345702016454" lon="-4.032815044601384"><ele>168.8</ele><time>2026-03-22T08:49:49Z</time></trkpt><trkpt lat="48.448334557730924" lon="-4.032960116979124"><ele>170.6</ele><time>2026-03-22T08:49:50Z</time></trkpt><trkpt lat="48.448280025727634" lon="-4.033158061603527"><ele>172.4</ele><time>2026-03-22T08:49:51Z</time></trkpt><trkpt lat="48.44824094409884" lon="-4.033304078735153"><ele>174.20000000000002</ele><time>2026-03-22T08:49:52Z</time></trkpt><trkpt lat="48.448211109787174" lon="-4.033402763766512"><ele>176.0</ele><time>2026-03-22T08:49:53Z</time></trkpt><trkpt lat="48.448285659935955" lon="-4.033445478911463"><ele>176.0</ele><time>2026-03-22T08:49:56Z</time></trkpt><trkpt lat="48.44844168498675" lon="-4.033379862591562"><ele>176.0</ele><time>2026-03-22T08:49:58Z</time></trkpt><trkpt lat="48.44851202516913" lon="-4.033321445339449"><ele>176.0</ele><time>2026-03-22T08:49:59Z</time></trkpt><trkpt lat="48.448567004044094" lon="-4.033252935501205"><ele>176.0</ele><time>2026-03-22T08:50:00Z</time></trkpt><trkpt lat="48.44863165566448" lon="-4.033229176721436"><ele>176.0</ele><time>2026-03-22T08:50:01Z</time></trkpt><trkpt lat="48.44870878405559" lon="-4.03327432903478"><ele>176.16666666666666</ele><time>2026-03-22T08:50:02Z</time></trkpt><trkpt lat="48.44878395872506" lon="-4.033339939562506"><ele>176.33333333333331</ele><time>2026-03-22T08:50:03Z</time></trkpt><trkpt lat="48.448853764290284" lon="-4.033377943571237"><ele>176.5</ele><time>2026-03-22T08:50:04Z</time></trkpt><trkpt lat="48.44895638306644" lon="-4.033295022632472"><ele>176.66666666666666</ele><time>2026-03-22T08:50:06Z</time></trkpt><trkpt lat="48.44902203916492" lon="-4.033249526085089"><ele>176.83333333333334</ele><time>2026-03-22T08:50:07Z</time></trkpt><trkpt lat="48.44898717641406" lon="-4.033159859738981"><ele>177.0</ele><time>2026-03-22T08:50:09Z</time></trkpt><trkpt lat="48.44893243086342" lon="-4.03309674032989"><ele>176.39999999999998</ele><time>2026-03-22T08:50:10Z</time></trkpt><trkpt lat="48.44892067726213" lon="-4.032974709886317"><ele>175.79999999999998</ele><time>2026-03-22T08:50:12Z</time></trkpt><trkpt lat="48.44898267197859" lon="-4.032932843879387"><ele>175.2</ele><time>2026-03-22T08:50:13Z</time></trkpt><trkpt lat="48.44908795152711" lon="-4.032930202307302"><ele>174.6</ele><time>2026-03-22T08:50:14Z</time></trkpt><trkpt lat="48.449175330461216" lon="-4.033024153740271"><ele>174.0</ele><time>2026-03-22T08:50:15Z</time></trkpt><trkpt lat="48.44924685071508" lon="-4.033142532902146"><ele>174.0</ele><time>2026-03-22T08:50:16Z</time></trkpt><trkpt lat="48.44931003364356" lon="-4.033184753400322"><ele>174.0</ele><time>2026-03-22T08:50:17Z</time></trkpt><trkpt lat="48.44940518965314" lon="-4.033172670841225"><ele>174.0</ele><time>2026-03-22T08:50:18Z</time></trkpt><trkpt lat="48.44950827984773" lon="-4.033101908910281"><ele>174.0</ele><time>2026-03-22T08:50:19Z</time></trkpt><trkpt lat="48.44959237281616" lon="-4.033026037848378"><ele>174.0</ele><time>2026-03-22T08:50:20Z</time></trkpt><trkpt lat="48.44966322078771" lon="-4.03296186220303"><ele>174.0</ele><time>2026-03-22T08:50:21Z</time></trkpt><trkpt lat="48.44963638214339" lon="-4.032814885179578"><ele>174.0</ele><time>2026-03-22T08:50:23Z</time></trkpt><trkpt lat="48.449534774491184" lon="-4.032724997012349"><ele>174.0</ele><time>2026-03-22T08:50:25Z</time></trkpt><trkpt lat="48.449472485993695" lon="-4.032642263185512"><ele>174.0</ele><time>2026-03-22T08:50:26Z</time></trkpt><trkpt lat="48.44944094438133" lon="-4.032452791785657"><ele>174.0</ele><time>2026-03-22T08:50:28Z</time></trkpt><trkpt lat="48.44941972688748" lon="-4.032349475070193"><ele>172.39999999999998</ele><time>2026-03-22T08:50:29Z</time></trkpt><trkpt lat="48.44939413419151" lon="-4.032180799148122"><ele>170.8</ele><time>2026-03-22T08:50:31Z</time></trkpt><trkpt lat="48.44934393282863" lon="-4.0320560192377"><ele>169.2</ele><time>2026-03-22T08:50:33Z</time></trkpt><trkpt lat="48.44942143421819" lon="-4.032032530136434"><ele>167.60000000000002</ele><time>2026-03-22T08:50:40Z</time></trkpt><trkpt lat="48.44947813480728" lon="-4.031950914664484"><ele>166.0</ele><time>2026-03-22T08:50:41.999Z</time></trkpt><trkpt lat="48.44956149230349" lon="-4.031842578389733"><ele>164.66666666666669</ele><time>2026-03-22T08:50:43.999Z</time></trkpt><trkpt lat="48.44964403339915" lon="-4.031786026309305"><ele>163.33333333333334</ele><time>2026-03-22T08:50:47.999Z</time></trkpt><trkpt lat="48.44967987982172" lon="-4.031667727994059"><ele>162.0</ele><time>2026-03-22T08:50:50.999Z</time></trkpt><trkpt lat="48.44997599959934" lon="-4.031410587078216"><ele>160.2</ele><time>2026-03-22T08:50:52.999Z</time></trkpt><trkpt lat="48.450037231670265" lon="-4.03143785927111"><ele>158.39999999999998</ele><time>2026-03-22T08:50:54.999Z</time></trkpt><trkpt lat="48.45011199092496" lon="-4.031344505268349"><ele>156.60000000000002</ele><time>2026-03-22T08:50:56.999Z</time></trkpt><trkpt lat="48.45020118676468" lon="-4.031348491117204"><ele>154.8</ele><time>2026-03-22T08:50:57.999Z</time></trkpt><trkpt lat="48.45019128035613" lon="-4.031155782606375"><ele>153.0</ele><time>2026-03-22T08:50:59.999Z</time></trkpt><trkpt lat="48.45027496559401" lon="-4.031055559194661"><ele>153.0</ele><time>2026-03-22T08:51:01.999Z</time></trkpt><trkpt lat="48.45024357204155" lon="-4.030943100157051"><ele>153.0</ele><time>2026-03-22T08:51:03.999Z</time></trkpt><trkpt lat="48.45022643890558" lon="-4.030818625978926"><ele>153.0</ele><time>2026-03-22T08:51:05.999Z</time></trkpt><trkpt lat="48.450265389776874" lon="-4.030711951329036"><ele>153.0</ele><time>2026-03-22T08:51:07.999Z</time></trkpt><trkpt lat="48.45035173995122" lon="-4.0307186494594065"><ele>153.0</ele><time>2026-03-22T08:51:08.999Z</time></trkpt><trkpt lat="48.45036914912189" lon="-4.030834287525861"><ele>153.0</ele><time>2026-03-22T08:51:12.999Z</time></trkpt><trkpt lat="48.45044596300415" lon="-4.03095265109599"><ele>153.20000000000002</ele><time>2026-03-22T08:51:14.999Z</time></trkpt><trkpt lat="48.45051787272087" lon="-4.03094148382175"><ele>153.4</ele><time>2026-03-22T08:51:15.999Z</time></trkpt><trkpt lat="48.45061158587414" lon="-4.030921155988223"><ele>153.60000000000002</ele><time>2026-03-22T08:51:16.999Z</time></trkpt><trkpt lat="48.450728215279916" lon="-4.030865273195191"><ele>153.8</ele><time>2026-03-22T08:51:17.999Z</time></trkpt><trkpt lat="48.45083006564734" lon="-4.030815150924376"><ele>154.0</ele><time>2026-03-22T08:51:18.999Z</time></trkpt><trkpt lat="48.450909744963475" lon="-4.030798263201333"><ele>154.0</ele><time>2026-03-22T08:51:19.999Z</time></trkpt><trkpt lat="48.45098401963418" lon="-4.030823058380839"><ele>154.0</ele><time>2026-03-22T08:51:21.999Z</time></trkpt><trkpt lat="48.45105117794933" lon="-4.030863020507394"><ele>154.0</ele><time>2026-03-22T08:51:22.999Z</time></trkpt><trkpt lat="48.451124959164176" lon="-4.03088069526173"><ele>154.0</ele><time>2026-03-22T08:51:23.999Z</time></trkpt><trkpt lat="48.45119732111392" lon="-4.030874241500577"><ele>154.0</ele><time>2026-03-22T08:51:24.999Z</time></trkpt><trkpt lat="48.451272536910665" lon="-4.030894234805854"><ele>154.0</ele><time>2026-03-22T08:51:25.999Z</time></trkpt><trkpt lat="48.4513557368337" lon="-4.0309032288217805"><ele>153.83333333333334</ele><time>2026-03-22T08:51:26.999Z</time></trkpt><trkpt lat="48.45141824940255" lon="-4.030918414429186"><ele>153.66666666666669</ele><time>2026-03-22T08:51:27.999Z</time></trkpt><trkpt lat="48.45150864002806" lon="-4.030966888192531"><ele>153.5</ele><time>2026-03-22T08:51:28.999Z</time></trkpt><trkpt lat="48.451569008952376" lon="-4.031000653077682"><ele>153.33333333333334</ele><time>2026-03-22T08:51:29.999Z</time></trkpt><trkpt lat="48.451678338810304" lon="-4.0310392401325785"><ele>153.16666666666666</ele><time>2026-03-22T08:51:31.999Z</time></trkpt><trkpt lat="48.45175541054275" lon="-4.031020525587172"><ele>153.0</ele><time>2026-03-22T08:51:32.999Z</time></trkpt><trkpt lat="48.45184435226763" lon="-4.031012894118134"><ele>153.0</ele><time>2026-03-22T08:51:33.999Z</time></trkpt><trkpt lat="48.45193015701493" lon="-4.0310000188516"><ele>153.0</ele><time>2026-03-22T08:51:34.999Z</time></trkpt><trkpt lat="48.45200301804262" lon="-4.031021925718401"><ele>153.0</ele><time>2026-03-22T08:51:35.999Z</time></trkpt><trkpt lat="48.45208162055417" lon="-4.031070971662981"><ele>153.0</ele><time>2026-03-22T08:51:36.999Z</time></trkpt><trkpt lat="48.45217233361785" lon="-4.031092754162932"><ele>153.0</ele><time>2026-03-22T08:51:37.999Z</time></trkpt><trkpt lat="48.45227350062439" lon="-4.031082840344609"><ele>153.0</ele><time>2026-03-22T08:51:38.999Z</time></trkpt><trkpt lat="48.452346484830684" lon="-4.031121913213511"><ele>153.4</ele><time>2026-03-22T08:51:40.999Z</time></trkpt><trkpt lat="48.45241958503795" lon="-4.031082595286458"><ele>153.8</ele><time>2026-03-22T08:51:42.999Z</time></trkpt><trkpt lat="48.45252594122395" lon="-4.031045019044288"><ele>154.2</ele><time>2026-03-22T08:51:44.999Z</time></trkpt><trkpt lat="48.45260636911754" lon="-4.031124003462028"><ele>154.6</ele><time>2026-03-22T08:51:46.999Z</time></trkpt><trkpt lat="48.45270889224583" lon="-4.031233279878701"><ele>155.0</ele><time>2026-03-22T08:51:48.999Z</time></trkpt><trkpt lat="48.45279344585289" lon="-4.031276169364879"><ele>155.0</ele><time>2026-03-22T08:51:49.999Z</time></trkpt><trkpt lat="48.452879052180144" lon="-4.03126689288519"><ele>155.0</ele><time>2026-03-22T08:51:50.999Z</time></trkpt><trkpt lat="48.452955365331064" lon="-4.0312300246191"><ele>155.0</ele><time>2026-03-22T08:51:52Z</time></trkpt><trkpt lat="48.45301376049486" lon="-4.03115937330471"><ele>155.0</ele><time>2026-03-22T08:51:53Z</time></trkpt><trkpt lat="48.45306172666861" lon="-4.031083388074681"><ele>155.0</ele><time>2026-03-22T08:51:54Z</time></trkpt><trkpt lat="48.45316255973543" lon="-4.030982643946289"><ele>155.0</ele><time>2026-03-22T08:51:56Z</time></trkpt><trkpt lat="48.45322090213944" lon="-4.0308858602990725"><ele>152.4</ele><time>2026-03-22T08:51:58Z</time></trkpt><trkpt lat="48.4531872338457" lon="-4.030747216433435"><ele>149.8</ele><time>2026-03-22T08:52:00Z</time></trkpt><trkpt lat="48.453229045626614" lon="-4.030640180093026"><ele>147.2</ele><time>2026-03-22T08:52:02Z</time></trkpt><trkpt lat="48.4532530138926" lon="-4.030495577893569"><ele>144.6</ele><time>2026-03-22T08:52:04Z</time></trkpt><trkpt lat="48.45334239041926" lon="-4.030429009902921"><ele>142.0</ele><time>2026-03-22T08:52:06Z</time></trkpt><trkpt lat="48.45346185941521" lon="-4.030449580232144"><ele>142.0</ele><time>2026-03-22T08:52:08Z</time></trkpt><trkpt lat="48.45354890173328" lon="-4.030460834315183"><ele>142.0</ele><time>2026-03-22T08:52:10Z</time></trkpt><trkpt lat="48.45359879461842" lon="-4.030349313781294"><ele>142.0</ele><time>2026-03-22T08:52:12Z</time></trkpt><trkpt lat="48.45357658057549" lon="-4.03020650977724"><ele>142.0</ele><time>2026-03-22T08:52:15Z</time></trkpt><trkpt lat="48.4535624446239" lon="-4.030106988650632"><ele>142.0</ele><time>2026-03-22T08:52:17Z</time></trkpt><trkpt lat="48.453574093338545" lon="-4.029967183567102"><ele>142.0</ele><time>2026-03-22T08:52:20Z</time></trkpt><trkpt lat="48.45353718664881" lon="-4.0298886925065025"><ele>139.0</ele><time>2026-03-22T08:52:22Z</time></trkpt><trkpt lat="48.45349387462346" lon="-4.02980862119048"><ele>136.0</ele><time>2026-03-22T08:52:24Z</time></trkpt><trkpt lat="48.45348226469972" lon="-4.0296958498969415"><ele>133.0</ele><time>2026-03-22T08:52:26Z</time></trkpt><trkpt lat="48.45349704644121" lon="-4.029594859431501"><ele>130.0</ele><time>2026-03-22T08:52:28Z</time></trkpt><trkpt lat="48.45347013193165" lon="-4.02949508601659"><ele>127.00000000000001</ele><time>2026-03-22T08:52:30Z</time></trkpt><trkpt lat="48.45343036530487" lon="-4.029383000511484"><ele>124.0</ele><time>2026-03-22T08:52:32Z</time></trkpt><trkpt lat="48.453410707871996" lon="-4.02923765693313"><ele>124.0</ele><time>2026-03-22T08:52:34Z</time></trkpt><trkpt lat="48.453377526044314" lon="-4.0291305240117365"><ele>124.0</ele><time>2026-03-22T08:52:36Z</time></trkpt><trkpt lat="48.45329395446286" lon="-4.029104352721114"><ele>124.0</ele><time>2026-03-22T08:52:38Z</time></trkpt><trkpt lat="48.45319138102689" lon="-4.029138579070731"><ele>124.0</ele><time>2026-03-22T08:52:40Z</time></trkpt><trkpt lat="48.453120299750076" lon="-4.029187260850296"><ele>124.0</ele><time>2026-03-22T08:52:41Z</time></trkpt><trkpt lat="48.453018933272034" lon="-4.029130026661125"><ele>122.6</ele><time>2026-03-22T08:52:43Z</time></trkpt><trkpt lat="48.452932891816076" lon="-4.029097366092717"><ele>121.2</ele><time>2026-03-22T08:52:44Z</time></trkpt><trkpt lat="48.452815429743175" lon="-4.029101937571691"><ele>119.79999999999998</ele><time>2026-03-22T08:52:45Z</time></trkpt><trkpt lat="48.4526823572726" lon="-4.029099453553872"><ele>118.39999999999999</ele><time>2026-03-22T08:52:46Z</time></trkpt><trkpt lat="48.452597546722885" lon="-4.0290855522360145"><ele>117.0</ele><time>2026-03-22T08:52:47Z</time></trkpt><trkpt lat="48.4525200126896" lon="-4.029083027707493"><ele>117.0</ele><time>2026-03-22T08:52:48Z</time></trkpt><trkpt lat="48.452461327801146" lon="-4.029122685890741"><ele>116.99999999999999</ele><time>2026-03-22T08:52:48.999Z</time></trkpt><trkpt lat="48.45242805250376" lon="-4.02931591538944"><ele>116.99999999999999</ele><time>2026-03-22T08:52:50.999Z</time></trkpt><trkpt lat="48.45241638252383" lon="-4.029458075969859"><ele>117.0</ele><time>2026-03-22T08:52:51.999Z</time></trkpt><trkpt lat="48.45233604945302" lon="-4.029559238608453"><ele>117.0</ele><time>2026-03-22T08:52:53.999Z</time></trkpt><trkpt lat="48.452254590857734" lon="-4.029535760734353"><ele>118.19999999999999</ele><time>2026-03-22T08:52:54.999Z</time></trkpt><trkpt lat="48.45217014799667" lon="-4.029514340678227"><ele>119.39999999999999</ele><time>2026-03-22T08:52:55.999Z</time></trkpt><trkpt lat="48.452074105310544" lon="-4.0294698369937185"><ele>120.60000000000001</ele><time>2026-03-22T08:52:56.999Z</time></trkpt><trkpt lat="48.4519597537455" lon="-4.029500203066196"><ele>121.80000000000001</ele><time>2026-03-22T08:52:57.999Z</time></trkpt><trkpt lat="48.451855410394636" lon="-4.029533321718021"><ele>123.0</ele><time>2026-03-22T08:52:58.999Z</time></trkpt><trkpt lat="48.451771378035886" lon="-4.029539695289153"><ele>123.0</ele><time>2026-03-22T08:52:59.999Z</time></trkpt><trkpt lat="48.451709922445815" lon="-4.029350774043124"><ele>123.00000000000001</ele><time>2026-03-22T08:53:01.999Z</time></trkpt><trkpt lat="48.451721457598524" lon="-4.029182544977045"><ele>123.00000000000001</ele><time>2026-03-22T08:53:02.999Z</time></trkpt><trkpt lat="48.451746440764694" lon="-4.029053592514523"><ele>123.0</ele><time>2026-03-22T08:53:03.999Z</time></trkpt><trkpt lat="48.45169849493049" lon="-4.028957995274935"><ele>123.0</ele><time>2026-03-22T08:53:05.999Z</time></trkpt><trkpt lat="48.45162855849296" lon="-4.028952082232586"><ele>123.0</ele><time>2026-03-22T08:53:06.999Z</time></trkpt><trkpt lat="48.45150922173833" lon="-4.0289371489874215"><ele>123.0</ele><time>2026-03-22T08:53:08.999Z</time></trkpt><trkpt lat="48.451376859648015" lon="-4.028967098798684"><ele>123.0</ele><time>2026-03-22T08:53:10.999Z</time></trkpt><trkpt lat="48.451355598798045" lon="-4.0292017786604095"><ele>123.0</ele><time>2026-03-22T08:53:12.999Z</time></trkpt><trkpt lat="48.45135279552525" lon="-4.0293712106149755"><ele>123.4</ele><time>2026-03-22T08:53:13.999Z</time></trkpt><trkpt lat="48.45133157026712" lon="-4.029529881578102"><ele>123.80000000000001</ele><time>2026-03-22T08:53:14.999Z</time></trkpt><trkpt lat="48.451269471543604" lon="-4.029656259479536"><ele>124.2</ele><time>2026-03-22T08:53:16.999Z</time></trkpt><trkpt lat="48.45119516751412" lon="-4.029639248135224"><ele>124.6</ele><time>2026-03-22T08:53:17.999Z</time></trkpt><trkpt lat="48.451095863530995" lon="-4.029618874895424"><ele>125.0</ele><time>2026-03-22T08:53:18.999Z</time></trkpt><trkpt lat="48.451020097722" lon="-4.029629323638013"><ele>125.0</ele><time>2026-03-22T08:53:19.999Z</time></trkpt><trkpt lat="48.45094127433476" lon="-4.029670212485747"><ele>125.0</ele><time>2026-03-22T08:53:20.999Z</time></trkpt><trkpt lat="48.450860470933364" lon="-4.029742573158409"><ele>125.0</ele><time>2026-03-22T08:53:21.999Z</time></trkpt><trkpt lat="48.450775872903655" lon="-4.029748843316893"><ele>125.0</ele><time>2026-03-22T08:53:22.999Z</time></trkpt><trkpt lat="48.45064351147582" lon="-4.029710597931013"><ele>125.0</ele><time>2026-03-22T08:53:23.999Z</time></trkpt><trkpt lat="48.45050631036227" lon="-4.029692135661505"><ele>125.4</ele><time>2026-03-22T08:53:24.999Z</time></trkpt><trkpt lat="48.4504060641039" lon="-4.029696253531188"><ele>125.8</ele><time>2026-03-22T08:53:25.999Z</time></trkpt><trkpt lat="48.450345377326315" lon="-4.0297471373164555"><ele>126.19999999999999</ele><time>2026-03-22T08:53:26.999Z</time></trkpt><trkpt lat="48.4502510939912" lon="-4.029795683639316"><ele>126.6</ele><time>2026-03-22T08:53:27.999Z</time></trkpt><trkpt lat="48.45015391985166" lon="-4.029796300339596"><ele>127.0</ele><time>2026-03-22T08:53:28.999Z</time></trkpt><trkpt lat="48.45004174868716" lon="-4.029782309902796"><ele>127.0</ele><time>2026-03-22T08:53:29.999Z</time></trkpt><trkpt lat="48.44993273404956" lon="-4.029762523331495"><ele>127.0</ele><time>2026-03-22T08:53:30.999Z</time></trkpt><trkpt lat="48.44981192546976" lon="-4.0297215757979545"><ele>127.0</ele><time>2026-03-22T08:53:31.999Z</time></trkpt><trkpt lat="48.4496710173792" lon="-4.029682144927818"><ele>127.0</ele><time>2026-03-22T08:53:32.999Z</time></trkpt><trkpt lat="48.44949392520261" lon="-4.029641983637769"><ele>127.0</ele><time>2026-03-22T08:53:33.999Z</time></trkpt><trkpt lat="48.44934105375198" lon="-4.029602125644576"><ele>127.0</ele><time>2026-03-22T08:53:34.999Z</time></trkpt><trkpt lat="48.44919333558242" lon="-4.029580558907723"><ele>127.0</ele><time>2026-03-22T08:53:35.999Z</time></trkpt><trkpt lat="48.44904529935854" lon="-4.029558134468413"><ele>127.0</ele><time>2026-03-22T08:53:36.999Z</time></trkpt><trkpt lat="48.44893435958907" lon="-4.0295484340214545"><ele>127.0</ele><time>2026-03-22T08:53:37.999Z</time></trkpt><trkpt lat="48.44883596257515" lon="-4.0295168863971496"><ele>127.0</ele><time>2026-03-22T08:53:38.999Z</time></trkpt><trkpt lat="48.44872384533905" lon="-4.029488931732728"><ele>127.0</ele><time>2026-03-22T08:53:39.999Z</time></trkpt><trkpt lat="48.448598215937714" lon="-4.029470022134698"><ele>127.75</ele><time>2026-03-22T08:53:40.999Z</time></trkpt><trkpt lat="48.44844591699907" lon="-4.029469836303554"><ele>128.5</ele><time>2026-03-22T08:53:41.999Z</time></trkpt><trkpt lat="48.44830892392001" lon="-4.029445149491407"><ele>129.25</ele><time>2026-03-22T08:53:42.999Z</time></trkpt><trkpt lat="48.44818471214888" lon="-4.029418789213593"><ele>130.0</ele><time>2026-03-22T08:53:43.999Z</time></trkpt><trkpt lat="48.44805414424542" lon="-4.029430830906538"><ele>131.0</ele><time>2026-03-22T08:53:44.999Z</time></trkpt><trkpt lat="48.447922624162665" lon="-4.029469126656076"><ele>132.0</ele><time>2026-03-22T08:53:45.999Z</time></trkpt><trkpt lat="48.447798430441125" lon="-4.029536292844704"><ele>133.0</ele><time>2026-03-22T08:53:46.999Z</time></trkpt><trkpt lat="48.447685428401854" lon="-4.029573843569142"><ele>134.0</ele><time>2026-03-22T08:53:47.999Z</time></trkpt><trkpt lat="48.44758107522513" lon="-4.029584278214583"><ele>134.0</ele><time>2026-03-22T08:53:48.999Z</time></trkpt><trkpt lat="48.44751573736911" lon="-4.0295738038035"><ele>134.0</ele><time>2026-03-22T08:53:49.999Z</time></trkpt><trkpt lat="48.44744082815928" lon="-4.02945477069238"><ele>134.0</ele><time>2026-03-22T08:53:51.999Z</time></trkpt><trkpt lat="48.44737173197331" lon="-4.0293401542286755"><ele>134.0</ele><time>2026-03-22T08:53:52.999Z</time></trkpt><trkpt lat="48.447300395844394" lon="-4.029221794889227"><ele>134.0</ele><time>2026-03-22T08:53:53.999Z</time></trkpt><trkpt lat="48.44721150781074" lon="-4.029138254918943"><ele>133.0</ele><time>2026-03-22T08:53:54.999Z</time></trkpt><trkpt lat="48.44709978242156" lon="-4.029060341467733"><ele>132.0</ele><time>2026-03-22T08:53:55.999Z</time></trkpt><trkpt lat="48.44695945817399" lon="-4.028990329832043"><ele>131.0</ele><time>2026-03-22T08:53:56.999Z</time></trkpt><trkpt lat="48.44682190017508" lon="-4.028924460458851"><ele>130.0</ele><time>2026-03-22T08:53:58Z</time></trkpt><trkpt lat="48.44667632413569" lon="-4.0288567214957025"><ele>130.0</ele><time>2026-03-22T08:53:59Z</time></trkpt><trkpt lat="48.4465419160701" lon="-4.028786134046188"><ele>130.0</ele><time>2026-03-22T08:54:00Z</time></trkpt><trkpt lat="48.446426563418946" lon="-4.028711318633757"><ele>130.0</ele><time>2026-03-22T08:54:01Z</time></trkpt><trkpt lat="48.446307085255214" lon="-4.028648934551347"><ele>130.0</ele><time>2026-03-22T08:54:02Z</time></trkpt><trkpt lat="48.44620988384734" lon="-4.0286058543339935"><ele>130.16666666666669</ele><time>2026-03-22T08:54:03Z</time></trkpt><trkpt lat="48.446128536222815" lon="-4.02855179348823"><ele>130.33333333333334</ele><time>2026-03-22T08:54:04Z</time></trkpt><trkpt lat="48.446066461701726" lon="-4.028469429008824"><ele>130.5</ele><time>2026-03-22T08:54:06Z</time></trkpt><trkpt lat="48.446098701670024" lon="-4.028377796610892"><ele>130.66666666666666</ele><time>2026-03-22T08:54:07Z</time></trkpt><trkpt lat="48.446150287800464" lon="-4.02827003086404"><ele>130.83333333333331</ele><time>2026-03-22T08:54:08Z</time></trkpt><trkpt lat="48.44621984728227" lon="-4.02812670275764"><ele>131.0</ele><time>2026-03-22T08:54:09Z</time></trkpt><trkpt lat="48.446291765193976" lon="-4.0279979461041595"><ele>130.5</ele><time>2026-03-22T08:54:10Z</time></trkpt><trkpt lat="48.44638004183706" lon="-4.027847115586517"><ele>130.0</ele><time>2026-03-22T08:54:11Z</time></trkpt><trkpt lat="48.44645573642266" lon="-4.027696524708378"><ele>129.5</ele><time>2026-03-22T08:54:12Z</time></trkpt><trkpt lat="48.44652044909818" lon="-4.0275469386553535"><ele>129.0</ele><time>2026-03-22T08:54:13Z</time></trkpt><trkpt lat="48.44658300313018" lon="-4.027402751639251"><ele>129.66666666666666</ele><time>2026-03-22T08:54:14Z</time></trkpt><trkpt lat="48.44664390372018" lon="-4.027281773393585"><ele>130.33333333333334</ele><time>2026-03-22T08:54:15Z</time></trkpt><trkpt lat="48.446696652603194" lon="-4.027172819898362"><ele>131.0</ele><time>2026-03-22T08:54:16Z</time></trkpt><trkpt lat="48.44673824612023" lon="-4.027064701572448"><ele>131.66666666666669</ele><time>2026-03-22T08:54:17Z</time></trkpt><trkpt lat="48.44671170982404" lon="-4.026947729008453"><ele>132.33333333333334</ele><time>2026-03-22T08:54:18Z</time></trkpt><trkpt lat="48.44665112834331" lon="-4.026845101197592"><ele>133.0</ele><time>2026-03-22T08:54:19Z</time></trkpt><trkpt lat="48.446583212790564" lon="-4.026750684602209"><ele>134.20000000000002</ele><time>2026-03-22T08:54:20Z</time></trkpt><trkpt lat="48.44649541302429" lon="-4.026644467549711"><ele>135.4</ele><time>2026-03-22T08:54:21Z</time></trkpt><trkpt lat="48.44644498569272" lon="-4.02653317343173"><ele>136.60000000000002</ele><time>2026-03-22T08:54:22Z</time></trkpt><trkpt lat="48.44642060534287" lon="-4.026409843029361"><ele>137.8</ele><time>2026-03-22T08:54:23Z</time></trkpt><trkpt lat="48.44643510418498" lon="-4.026281698316331"><ele>139.0</ele><time>2026-03-22T08:54:24Z</time></trkpt><trkpt lat="48.44648968085274" lon="-4.026127277168758"><ele>139.0</ele><time>2026-03-22T08:54:25Z</time></trkpt><trkpt lat="48.44656529490276" lon="-4.025952281515749"><ele>139.0</ele><time>2026-03-22T08:54:26Z</time></trkpt><trkpt lat="48.44666552241014" lon="-4.02573195183103"><ele>139.0</ele><time>2026-03-22T08:54:27Z</time></trkpt><trkpt lat="48.44676028527982" lon="-4.025497174436857"><ele>140.0</ele><time>2026-03-22T08:54:28Z</time></trkpt><trkpt lat="48.44686166498085" lon="-4.025265552335274"><ele>141.0</ele><time>2026-03-22T08:54:29Z</time></trkpt><trkpt lat="48.44695855382391" lon="-4.025032203129497"><ele>142.0</ele><time>2026-03-22T08:54:30Z</time></trkpt><trkpt lat="48.44705104068648" lon="-4.0248276879397835"><ele>143.66666666666669</ele><time>2026-03-22T08:54:31Z</time></trkpt><trkpt lat="48.44715027887451" lon="-4.024624087638663"><ele>145.33333333333334</ele><time>2026-03-22T08:54:32Z</time></trkpt><trkpt lat="48.447259407435006" lon="-4.024436534681801"><ele>147.0</ele><time>2026-03-22T08:54:33Z</time></trkpt><trkpt lat="48.44736982945094" lon="-4.024282129965099"><ele>147.33333333333334</ele><time>2026-03-22T08:54:34Z</time></trkpt><trkpt lat="48.447491132611106" lon="-4.024142654830379"><ele>147.66666666666669</ele><time>2026-03-22T08:54:35Z</time></trkpt><trkpt lat="48.44760277509176" lon="-4.023986536281737"><ele>148.0</ele><time>2026-03-22T08:54:36Z</time></trkpt><trkpt lat="48.44770728299595" lon="-4.023819761475649"><ele>148.0</ele><time>2026-03-22T08:54:37Z</time></trkpt><trkpt lat="48.44780810999675" lon="-4.023683884218378"><ele>148.0</ele><time>2026-03-22T08:54:38Z</time></trkpt><trkpt lat="48.44790506191075" lon="-4.0235655931168965"><ele>148.0</ele><time>2026-03-22T08:54:39Z</time></trkpt><trkpt lat="48.4479940681362" lon="-4.023465751371651"><ele>148.0</ele><time>2026-03-22T08:54:40Z</time></trkpt><trkpt lat="48.44805483455787" lon="-4.023387000049044"><ele>148.0</ele><time>2026-03-22T08:54:41Z</time></trkpt><trkpt lat="48.448103377264744" lon="-4.023322580489019"><ele>148.0</ele><time>2026-03-22T08:54:43Z</time></trkpt><trkpt lat="48.44817109179255" lon="-4.0231703944283845"><ele>148.0</ele><time>2026-03-22T08:54:45Z</time></trkpt><trkpt lat="48.44821252631534" lon="-4.023046479111344"><ele>148.0</ele><time>2026-03-22T08:54:46Z</time></trkpt><trkpt lat="48.4482416425787" lon="-4.02291878932244"><ele>148.0</ele><time>2026-03-22T08:54:47Z</time></trkpt><trkpt lat="48.44843432640796" lon="-4.022975953197471"><ele>148.0</ele><time>2026-03-22T08:54:48Z</time></trkpt><trkpt lat="48.4485177278939" lon="-4.022886768151957"><ele>148.0</ele><time>2026-03-22T08:54:49Z</time></trkpt><trkpt lat="48.448608966783816" lon="-4.022786446502796"><ele>148.0</ele><time>2026-03-22T08:54:50Z</time></trkpt><trkpt lat="48.44869868658133" lon="-4.022678761906807"><ele>148.0</ele><time>2026-03-22T08:54:51Z</time></trkpt><trkpt lat="48.4487870192494" lon="-4.022563389259172"><ele>148.0</ele><time>2026-03-22T08:54:51.999Z</time></trkpt><trkpt lat="48.44889043939592" lon="-4.022443103214077"><ele>146.4</ele><time>2026-03-22T08:54:52.999Z</time></trkpt><trkpt lat="48.44898221137336" lon="-4.022328315981997"><ele>144.8</ele><time>2026-03-22T08:54:53.999Z</time></trkpt><trkpt lat="48.44903724978274" lon="-4.0222235698652"><ele>143.2</ele><time>2026-03-22T08:54:54.999Z</time></trkpt><trkpt lat="48.449093775924744" lon="-4.022126997823327"><ele>141.6</ele><time>2026-03-22T08:54:56.999Z</time></trkpt><trkpt lat="48.449175288057255" lon="-4.022020191378069"><ele>140.0</ele><time>2026-03-22T08:54:59.999Z</time></trkpt><trkpt lat="48.44926248928734" lon="-4.021958854863293"><ele>140.0</ele><time>2026-03-22T08:55:00.999Z</time></trkpt><trkpt lat="48.44937502142639" lon="-4.021880195992845"><ele>140.0</ele><time>2026-03-22T08:55:01.999Z</time></trkpt><trkpt lat="48.449491610422456" lon="-4.021791027410343"><ele>140.0</ele><time>2026-03-22T08:55:02.999Z</time></trkpt><trkpt lat="48.44960061840418" lon="-4.02168159820596"><ele>140.0</ele><time>2026-03-22T08:55:03.999Z</time></trkpt><trkpt lat="48.44969201575374" lon="-4.0215666472725315"><ele>139.0</ele><time>2026-03-22T08:55:04.999Z</time></trkpt><trkpt lat="48.449779329183" lon="-4.021465506545739"><ele>138.0</ele><time>2026-03-22T08:55:05.999Z</time></trkpt><trkpt lat="48.44984056836076" lon="-4.021393430708305"><ele>137.0</ele><time>2026-03-22T08:55:06.999Z</time></trkpt><trkpt lat="48.449917424935165" lon="-4.021332871563045"><ele>136.0</ele><time>2026-03-22T08:55:07.999Z</time></trkpt><trkpt lat="48.44998693116155" lon="-4.021294160713679"><ele>135.0</ele><time>2026-03-22T08:55:08.999Z</time></trkpt><trkpt lat="48.45006985975295" lon="-4.021156206503225"><ele>135.0</ele><time>2026-03-22T08:55:10.999Z</time></trkpt><trkpt lat="48.450129116051336" lon="-4.021034078616035"><ele>135.0</ele><time>2026-03-22T08:55:11.999Z</time></trkpt><trkpt lat="48.450191748774785" lon="-4.020919147836752"><ele>135.0</ele><time>2026-03-22T08:55:12.999Z</time></trkpt><trkpt lat="48.45028340956557" lon="-4.020808450075662"><ele>135.0</ele><time>2026-03-22T08:55:13.999Z</time></trkpt><trkpt lat="48.45038468519279" lon="-4.020720844142485"><ele>135.0</ele><time>2026-03-22T08:55:14.999Z</time></trkpt><trkpt lat="48.45045545177118" lon="-4.0206476693134245"><ele>136.6</ele><time>2026-03-22T08:55:15.999Z</time></trkpt><trkpt lat="48.450517417789726" lon="-4.02056892531761"><ele>138.2</ele><time>2026-03-22T08:55:16.999Z</time></trkpt><trkpt lat="48.45063369260157" lon="-4.020477777166493"><ele>139.8</ele><time>2026-03-22T08:55:17.999Z</time></trkpt><trkpt lat="48.450720875201974" lon="-4.020427472313382"><ele>141.4</ele><time>2026-03-22T08:55:18.999Z</time></trkpt><trkpt lat="48.45080830450596" lon="-4.020314644843973"><ele>143.0</ele><time>2026-03-22T08:55:20.999Z</time></trkpt><trkpt lat="48.45086942039843" lon="-4.0202650931591215"><ele>143.0</ele><time>2026-03-22T08:55:21.999Z</time></trkpt><trkpt lat="48.45096101223116" lon="-4.020236297021243"><ele>143.0</ele><time>2026-03-22T08:55:22.999Z</time></trkpt><trkpt lat="48.451067367552994" lon="-4.0202021408692215"><ele>143.0</ele><time>2026-03-22T08:55:23.999Z</time></trkpt><trkpt lat="48.45118906865552" lon="-4.020167397082591"><ele>143.0</ele><time>2026-03-22T08:55:24.999Z</time></trkpt><trkpt lat="48.45127823389725" lon="-4.02013710492"><ele>143.0</ele><time>2026-03-22T08:55:25.999Z</time></trkpt><trkpt lat="48.45137004044744" lon="-4.02005440418749"><ele>144.20000000000002</ele><time>2026-03-22T08:55:26.999Z</time></trkpt><trkpt lat="48.451472247541" lon="-4.019954690434107"><ele>145.4</ele><time>2026-03-22T08:55:27.999Z</time></trkpt><trkpt lat="48.45156843767178" lon="-4.019864646047401"><ele>146.60000000000002</ele><time>2026-03-22T08:55:28.999Z</time></trkpt><trkpt lat="48.45163622898036" lon="-4.019781528538671"><ele>147.8</ele><time>2026-03-22T08:55:29.999Z</time></trkpt><trkpt lat="48.451691032514034" lon="-4.019725114647751"><ele>149.0</ele><time>2026-03-22T08:55:30.999Z</time></trkpt><trkpt lat="48.45173947530907" lon="-4.019657808998986"><ele>149.0</ele><time>2026-03-22T08:55:31.999Z</time></trkpt><trkpt lat="48.45171821362676" lon="-4.019539091590834"><ele>149.0</ele><time>2026-03-22T08:55:33.999Z</time></trkpt><trkpt lat="48.45167310681308" lon="-4.019437354259045"><ele>149.0</ele><time>2026-03-22T08:55:34.999Z</time></trkpt><trkpt lat="48.45161173164502" lon="-4.01929086340897"><ele>149.0</ele><time>2026-03-22T08:55:35.999Z</time></trkpt><trkpt lat="48.45154657375654" lon="-4.019095510581255"><ele>149.0</ele><time>2026-03-22T08:55:36.999Z</time></trkpt><trkpt lat="48.451482948038816" lon="-4.018918453394691"><ele>149.0</ele><time>2026-03-22T08:55:37.999Z</time></trkpt><trkpt lat="48.451400595991416" lon="-4.018720996434819"><ele>149.0</ele><time>2026-03-22T08:55:38.999Z</time></trkpt><trkpt lat="48.45132655387354" lon="-4.01853447512662"><ele>149.0</ele><time>2026-03-22T08:55:39.999Z</time></trkpt><trkpt lat="48.451254879935824" lon="-4.0183596539240805"><ele>149.0</ele><time>2026-03-22T08:55:40.999Z</time></trkpt><trkpt lat="48.45118303284207" lon="-4.018179012945163"><ele>149.25</ele><time>2026-03-22T08:55:41.999Z</time></trkpt><trkpt lat="48.45111412707904" lon="-4.018006384079057"><ele>149.5</ele><time>2026-03-22T08:55:42.999Z</time></trkpt><trkpt lat="48.45104863092468" lon="-4.017823351853421"><ele>149.75</ele><time>2026-03-22T08:55:43.999Z</time></trkpt><trkpt lat="48.45097119424366" lon="-4.017630281048281"><ele>150.0</ele><time>2026-03-22T08:55:44.999Z</time></trkpt><trkpt lat="48.45088072717614" lon="-4.017422799640723"><ele>150.33333333333334</ele><time>2026-03-22T08:55:45.999Z</time></trkpt><trkpt lat="48.450789672740974" lon="-4.017192434207279"><ele>150.66666666666669</ele><time>2026-03-22T08:55:46.999Z</time></trkpt><trkpt lat="48.45070292778051" lon="-4.01697971383146"><ele>151.0</ele><time>2026-03-22T08:55:47.999Z</time></trkpt><trkpt lat="48.45062102436458" lon="-4.016804015870975"><ele>151.0</ele><time>2026-03-22T08:55:48.999Z</time></trkpt><trkpt lat="48.45055018189651" lon="-4.016654459345161"><ele>151.0</ele><time>2026-03-22T08:55:49.999Z</time></trkpt><trkpt lat="48.45050888120728" lon="-4.016541509966213"><ele>151.0</ele><time>2026-03-22T08:55:50.999Z</time></trkpt><trkpt lat="48.45046915618171" lon="-4.016416464956421"><ele>151.0</ele><time>2026-03-22T08:55:51.999Z</time></trkpt><trkpt lat="48.45042062724953" lon="-4.016325065397469"><ele>151.0</ele><time>2026-03-22T08:55:52.999Z</time></trkpt><trkpt lat="48.45037296754295" lon="-4.016217508914535"><ele>151.0</ele><time>2026-03-22T08:55:53.999Z</time></trkpt><trkpt lat="48.45031982131991" lon="-4.016081277841706"><ele>151.0</ele><time>2026-03-22T08:55:54.999Z</time></trkpt><trkpt lat="48.4502695386664" lon="-4.015931357679153"><ele>151.0</ele><time>2026-03-22T08:55:55.999Z</time></trkpt><trkpt lat="48.45021859875063" lon="-4.01577322144457"><ele>151.0</ele><time>2026-03-22T08:55:56.999Z</time></trkpt><trkpt lat="48.45017390594948" lon="-4.015616332138659"><ele>151.0</ele><time>2026-03-22T08:55:57.999Z</time></trkpt><trkpt lat="48.450149562155524" lon="-4.015478765715364"><ele>151.0</ele><time>2026-03-22T08:55:58.999Z</time></trkpt><trkpt lat="48.45014183719952" lon="-4.0153275184212776"><ele>151.0</ele><time>2026-03-22T08:55:59.999Z</time></trkpt><trkpt lat="48.45013249217343" lon="-4.015186900040643"><ele>151.0</ele><time>2026-03-22T08:56:00.999Z</time></trkpt><trkpt lat="48.45010776808947" lon="-4.015026248963988"><ele>151.0</ele><time>2026-03-22T08:56:01.999Z</time></trkpt><trkpt lat="48.450098417974964" lon="-4.014896179859287"><ele>151.0</ele><time>2026-03-22T08:56:02.999Z</time></trkpt><trkpt lat="48.450114519654775" lon="-4.014745235235801"><ele>151.0</ele><time>2026-03-22T08:56:04Z</time></trkpt><trkpt lat="48.45016230607785" lon="-4.014597060247492"><ele>151.0</ele><time>2026-03-22T08:56:05Z</time></trkpt><trkpt lat="48.4502239335751" lon="-4.014446119452387"><ele>151.0</ele><time>2026-03-22T08:56:06Z</time></trkpt><trkpt lat="48.45028462872574" lon="-4.014279949897521"><ele>151.0</ele><time>2026-03-22T08:56:07Z</time></trkpt><trkpt lat="48.45033848331386" lon="-4.01410599881025"><ele>151.0</ele><time>2026-03-22T08:56:08Z</time></trkpt><trkpt lat="48.45039263502945" lon="-4.013920111273543"><ele>151.0</ele><time>2026-03-22T08:56:09Z</time></trkpt><trkpt lat="48.45044971314411" lon="-4.0137188779477695"><ele>151.0</ele><time>2026-03-22T08:56:10Z</time></trkpt><trkpt lat="48.45050132445449" lon="-4.013531278303986"><ele>151.0</ele><time>2026-03-22T08:56:11Z</time></trkpt><trkpt lat="48.450560421161896" lon="-4.013322555359757"><ele>151.25</ele><time>2026-03-22T08:56:12Z</time></trkpt><trkpt lat="48.45060440395244" lon="-4.013119675247018"><ele>151.5</ele><time>2026-03-22T08:56:13Z</time></trkpt><trkpt lat="48.45062321494987" lon="-4.012884419657887"><ele>151.75</ele><time>2026-03-22T08:56:14Z</time></trkpt><trkpt lat="48.45062926375681" lon="-4.01267036851915"><ele>152.0</ele><time>2026-03-22T08:56:15Z</time></trkpt><trkpt lat="48.450634498216125" lon="-4.012457143234541"><ele>152.25</ele><time>2026-03-22T08:56:16Z</time></trkpt><trkpt lat="48.45063642108962" lon="-4.012259149558458"><ele>152.5</ele><time>2026-03-22T08:56:17Z</time></trkpt><trkpt lat="48.450642648312616" lon="-4.0120740399522905"><ele>152.75</ele><time>2026-03-22T08:56:18Z</time></trkpt><trkpt lat="48.450650271642544" lon="-4.011902487557676"><ele>153.0</ele><time>2026-03-22T08:56:19Z</time></trkpt><trkpt lat="48.450659892029975" lon="-4.011735940281635"><ele>153.0</ele><time>2026-03-22T08:56:20Z</time></trkpt><trkpt lat="48.45067388625622" lon="-4.011577643201144"><ele>153.0</ele><time>2026-03-22T08:56:21Z</time></trkpt><trkpt lat="48.450684336623716" lon="-4.011422348242628"><ele>153.0</ele><time>2026-03-22T08:56:22Z</time></trkpt><trkpt lat="48.45069502003124" lon="-4.011273510920762"><ele>153.0</ele><time>2026-03-22T08:56:23Z</time></trkpt><trkpt lat="48.4507084867028" lon="-4.011121868539571"><ele>153.0</ele><time>2026-03-22T08:56:24Z</time></trkpt><trkpt lat="48.45072760747506" lon="-4.010968588807507"><ele>153.20000000000002</ele><time>2026-03-22T08:56:25Z</time></trkpt><trkpt lat="48.450754030659596" lon="-4.010822692021656"><ele>153.4</ele><time>2026-03-22T08:56:26Z</time></trkpt><trkpt lat="48.45078708118275" lon="-4.0106698669268495"><ele>153.60000000000002</ele><time>2026-03-22T08:56:27Z</time></trkpt><trkpt lat="48.45082083777507" lon="-4.010509160798438"><ele>153.8</ele><time>2026-03-22T08:56:28Z</time></trkpt><trkpt lat="48.45085631395979" lon="-4.010342198703686"><ele>154.0</ele><time>2026-03-22T08:56:29Z</time></trkpt><trkpt lat="48.45088898897022" lon="-4.010172337822585"><ele>154.0</ele><time>2026-03-22T08:56:30Z</time></trkpt><trkpt lat="48.45091273330365" lon="-4.010019574561367"><ele>154.0</ele><time>2026-03-22T08:56:31Z</time></trkpt><trkpt lat="48.45094084370608" lon="-4.0098916581620045"><ele>154.0</ele><time>2026-03-22T08:56:32Z</time></trkpt><trkpt lat="48.45096489837777" lon="-4.009759813007431"><ele>154.0</ele><time>2026-03-22T08:56:33Z</time></trkpt><trkpt lat="48.45099362078119" lon="-4.0096335052784315"><ele>154.0</ele><time>2026-03-22T08:56:34Z</time></trkpt><trkpt lat="48.45100953643832" lon="-4.009472573586093"><ele>154.4</ele><time>2026-03-22T08:56:36Z</time></trkpt><trkpt lat="48.451041005022105" lon="-4.0092819236179"><ele>154.8</ele><time>2026-03-22T08:56:38Z</time></trkpt><trkpt lat="48.45106989819891" lon="-4.009165809660026"><ele>155.2</ele><time>2026-03-22T08:56:39Z</time></trkpt><trkpt lat="48.45110730525858" lon="-4.00901754229243"><ele>155.6</ele><time>2026-03-22T08:56:40Z</time></trkpt><trkpt lat="48.4511596330006" lon="-4.008863979483979"><ele>156.0</ele><time>2026-03-22T08:56:41Z</time></trkpt><trkpt lat="48.451208881600095" lon="-4.008708376357936"><ele>157.0</ele><time>2026-03-22T08:56:42Z</time></trkpt><trkpt lat="48.45126406421975" lon="-4.0085534912543785"><ele>158.0</ele><time>2026-03-22T08:56:43Z</time></trkpt><trkpt lat="48.45130721948191" lon="-4.00837979715669"><ele>159.0</ele><time>2026-03-22T08:56:44Z</time></trkpt><trkpt lat="48.451360492354816" lon="-4.00821767453035"><ele>160.0</ele><time>2026-03-22T08:56:45Z</time></trkpt><trkpt lat="48.45140796351191" lon="-4.008044769627865"><ele>160.5</ele><time>2026-03-22T08:56:46Z</time></trkpt><trkpt lat="48.45145120789586" lon="-4.007868381905789"><ele>161.0</ele><time>2026-03-22T08:56:47Z</time></trkpt><trkpt lat="48.45150171421005" lon="-4.007686559108044"><ele>161.5</ele><time>2026-03-22T08:56:48Z</time></trkpt><trkpt lat="48.45154057612175" lon="-4.007511129920331"><ele>162.0</ele><time>2026-03-22T08:56:49Z</time></trkpt><trkpt lat="48.45157683981278" lon="-4.007318376028333"><ele>162.0</ele><time>2026-03-22T08:56:50Z</time></trkpt><trkpt lat="48.451589611574846" lon="-4.007117536331852"><ele>162.0</ele><time>2026-03-22T08:56:51Z</time></trkpt><trkpt lat="48.45159806411462" lon="-4.006905494703878"><ele>162.0</ele><time>2026-03-22T08:56:52Z</time></trkpt><trkpt lat="48.45160161307972" lon="-4.006679310454511"><ele>162.0</ele><time>2026-03-22T08:56:53Z</time></trkpt><trkpt lat="48.45161160495882" lon="-4.006459313682701"><ele>162.0</ele><time>2026-03-22T08:56:54Z</time></trkpt><trkpt lat="48.45162750933268" lon="-4.006234218161527"><ele>162.0</ele><time>2026-03-22T08:56:55Z</time></trkpt><trkpt lat="48.45164164311682" lon="-4.006022885632015"><ele>162.0</ele><time>2026-03-22T08:56:56Z</time></trkpt><trkpt lat="48.4516527308669" lon="-4.005813473678456"><ele>162.0</ele><time>2026-03-22T08:56:57Z</time></trkpt><trkpt lat="48.45166347216014" lon="-4.005631014196992"><ele>162.5</ele><time>2026-03-22T08:56:58Z</time></trkpt><trkpt lat="48.45167656215705" lon="-4.005427396932748"><ele>163.0</ele><time>2026-03-22T08:56:59Z</time></trkpt><trkpt lat="48.45169753921553" lon="-4.005229429484001"><ele>163.5</ele><time>2026-03-22T08:57:00Z</time></trkpt><trkpt lat="48.45172609285442" lon="-4.005018128594597"><ele>164.0</ele><time>2026-03-22T08:57:01Z</time></trkpt><trkpt lat="48.451743227328606" lon="-4.004817494649884"><ele>164.25</ele><time>2026-03-22T08:57:01.999Z</time></trkpt><trkpt lat="48.4517515391187" lon="-4.0046104611709605"><ele>164.5</ele><time>2026-03-22T08:57:02.999Z</time></trkpt><trkpt lat="48.45172065640107" lon="-4.004440010005165"><ele>164.75</ele><time>2026-03-22T08:57:03.999Z</time></trkpt><trkpt lat="48.4516513668306" lon="-4.004275084596125"><ele>165.0</ele><time>2026-03-22T08:57:04.999Z</time></trkpt><trkpt lat="48.45154892131813" lon="-4.004194494681851"><ele>165.0</ele><time>2026-03-22T08:57:05.999Z</time></trkpt><trkpt lat="48.45144197074541" lon="-4.004105487019935"><ele>165.0</ele><time>2026-03-22T08:57:06.999Z</time></trkpt><trkpt lat="48.451321530674136" lon="-4.004013269318933"><ele>165.0</ele><time>2026-03-22T08:57:07.999Z</time></trkpt><trkpt lat="48.451200375765765" lon="-4.003924363906031"><ele>165.0</ele><time>2026-03-22T08:57:08.999Z</time></trkpt><trkpt lat="48.451063581164824" lon="-4.003819569832227"><ele>165.66666666666666</ele><time>2026-03-22T08:57:09.999Z</time></trkpt><trkpt lat="48.45092327207394" lon="-4.003710220296792"><ele>166.33333333333331</ele><time>2026-03-22T08:57:10.999Z</time></trkpt><trkpt lat="48.45078600488766" lon="-4.003603244207693"><ele>167.0</ele><time>2026-03-22T08:57:11.999Z</time></trkpt><trkpt lat="48.45063031477111" lon="-4.0034819106004775"><ele>167.0</ele><time>2026-03-22T08:57:12.999Z</time></trkpt><trkpt lat="48.45048374155581" lon="-4.003370666103402"><ele>167.0</ele><time>2026-03-22T08:57:13.999Z</time></trkpt><trkpt lat="48.45033888486732" lon="-4.0032611832172185"><ele>167.0</ele><time>2026-03-22T08:57:14.999Z</time></trkpt><trkpt lat="48.450190506169506" lon="-4.003146861996123"><ele>167.66666666666666</ele><time>2026-03-22T08:57:15.999Z</time></trkpt><trkpt lat="48.450038549662075" lon="-4.00302774856648"><ele>168.33333333333334</ele><time>2026-03-22T08:57:16.999Z</time></trkpt><trkpt lat="48.44990656712223" lon="-4.002924292054083"><ele>169.0</ele><time>2026-03-22T08:57:17.999Z</time></trkpt><trkpt lat="48.4497869085499" lon="-4.002832007002043"><ele>169.0</ele><time>2026-03-22T08:57:18.999Z</time></trkpt><trkpt lat="48.4496717229001" lon="-4.002744781588192"><ele>169.0</ele><time>2026-03-22T08:57:19.999Z</time></trkpt><trkpt lat="48.44957352117745" lon="-4.002670417675614"><ele>169.0</ele><time>2026-03-22T08:57:20.999Z</time></trkpt><trkpt lat="48.44948035099775" lon="-4.002599863760585"><ele>169.0</ele><time>2026-03-22T08:57:21.999Z</time></trkpt><trkpt lat="48.4493877072134" lon="-4.002532391563962"><ele>169.0</ele><time>2026-03-22T08:57:22.999Z</time></trkpt><trkpt lat="48.44930463612007" lon="-4.0024706861100565"><ele>169.33333333333334</ele><time>2026-03-22T08:57:23.999Z</time></trkpt><trkpt lat="48.44923843643872" lon="-4.002405265524089"><ele>169.66666666666669</ele><time>2026-03-22T08:57:24.999Z</time></trkpt><trkpt lat="48.449207805214456" lon="-4.002319001464431"><ele>170.0</ele><time>2026-03-22T08:57:25.999Z</time></trkpt><trkpt lat="48.449177430366376" lon="-4.002190751298524"><ele>170.33333333333334</ele><time>2026-03-22T08:57:28.999Z</time></trkpt><trkpt lat="48.44923776290698" lon="-4.002130458171274"><ele>170.66666666666666</ele><time>2026-03-22T08:57:29.999Z</time></trkpt><trkpt lat="48.449307307241895" lon="-4.002089870887294"><ele>171.0</ele><time>2026-03-22T08:57:30.999Z</time></trkpt><trkpt lat="48.44939636387422" lon="-4.002052250175142"><ele>171.0</ele><time>2026-03-22T08:57:31.999Z</time></trkpt><trkpt lat="48.449497190601896" lon="-4.002007406076419"><ele>171.0</ele><time>2026-03-22T08:57:32.999Z</time></trkpt><trkpt lat="48.4496060882991" lon="-4.00194921594292"><ele>171.0</ele><time>2026-03-22T08:57:33.999Z</time></trkpt><trkpt lat="48.44971432072313" lon="-4.001884963407495"><ele>171.0</ele><time>2026-03-22T08:57:34.999Z</time></trkpt><trkpt lat="48.449833282357076" lon="-4.001816174078157"><ele>170.5</ele><time>2026-03-22T08:57:35.999Z</time></trkpt><trkpt lat="48.44996081720535" lon="-4.001757823491012"><ele>170.0</ele><time>2026-03-22T08:57:36.999Z</time></trkpt><trkpt lat="48.450097215496264" lon="-4.001693882514456"><ele>169.5</ele><time>2026-03-22T08:57:37.999Z</time></trkpt><trkpt lat="48.45023396649177" lon="-4.001629098600717"><ele>169.0</ele><time>2026-03-22T08:57:38.999Z</time></trkpt><trkpt lat="48.45037040931063" lon="-4.001554389605005"><ele>167.5</ele><time>2026-03-22T08:57:39.999Z</time></trkpt><trkpt lat="48.45051218789351" lon="-4.001485785526586"><ele>166.0</ele><time>2026-03-22T08:57:40.999Z</time></trkpt><trkpt lat="48.45065379329816" lon="-4.001417195469553"><ele>164.5</ele><time>2026-03-22T08:57:41.999Z</time></trkpt><trkpt lat="48.45079575087442" lon="-4.001354906170974"><ele>163.0</ele><time>2026-03-22T08:57:42.999Z</time></trkpt><trkpt lat="48.45094986736084" lon="-4.001285461688195"><ele>163.0</ele><time>2026-03-22T08:57:43.999Z</time></trkpt><trkpt lat="48.45109596208253" lon="-4.00121712277978"><ele>163.0</ele><time>2026-03-22T08:57:44.999Z</time></trkpt><trkpt lat="48.45125327547061" lon="-4.001148242847278"><ele>163.0</ele><time>2026-03-22T08:57:45.999Z</time></trkpt><trkpt lat="48.45140248804357" lon="-4.00107359887201"><ele>161.5</ele><time>2026-03-22T08:57:46.999Z</time></trkpt><trkpt lat="48.45154309010922" lon="-4.001001092448166"><ele>160.0</ele><time>2026-03-22T08:57:47.999Z</time></trkpt><trkpt lat="48.45168552459497" lon="-4.0009347582023205"><ele>158.5</ele><time>2026-03-22T08:57:48.999Z</time></trkpt><trkpt lat="48.451828808975215" lon="-4.0008750090072205"><ele>157.0</ele><time>2026-03-22T08:57:49.999Z</time></trkpt><trkpt lat="48.45196999443052" lon="-4.0008133134824195"><ele>157.0</ele><time>2026-03-22T08:57:50.999Z</time></trkpt><trkpt lat="48.45211245001634" lon="-4.000751092150583"><ele>157.0</ele><time>2026-03-22T08:57:51.999Z</time></trkpt><trkpt lat="48.45225447836807" lon="-4.000688262947981"><ele>157.0</ele><time>2026-03-22T08:57:52.999Z</time></trkpt><trkpt lat="48.45239511042129" lon="-4.000614977392111"><ele>157.0</ele><time>2026-03-22T08:57:53.999Z</time></trkpt><trkpt lat="48.45253680535632" lon="-4.00053328723686"><ele>156.0</ele><time>2026-03-22T08:57:54.999Z</time></trkpt><trkpt lat="48.45267433259249" lon="-4.000421291488714"><ele>155.0</ele><time>2026-03-22T08:57:55.999Z</time></trkpt><trkpt lat="48.45280343594031" lon="-4.0003013496033715"><ele>154.0</ele><time>2026-03-22T08:57:56.999Z</time></trkpt><trkpt lat="48.452936943290254" lon="-4.000183103544241"><ele>155.0</ele><time>2026-03-22T08:57:57.999Z</time></trkpt><trkpt lat="48.4530674031733" lon="-4.0000555812946414"><ele>156.0</ele><time>2026-03-22T08:57:58.999Z</time></trkpt><trkpt lat="48.453194405793646" lon="-3.999918969860224"><ele>157.0</ele><time>2026-03-22T08:57:59.999Z</time></trkpt><trkpt lat="48.4533323194937" lon="-3.9997725071868033"><ele>157.0</ele><time>2026-03-22T08:58:00.999Z</time></trkpt><trkpt lat="48.45348112158076" lon="-3.999594535860319"><ele>157.0</ele><time>2026-03-22T08:58:01.999Z</time></trkpt><trkpt lat="48.453611276728836" lon="-3.999451874269214"><ele>157.0</ele><time>2026-03-22T08:58:02.999Z</time></trkpt><trkpt lat="48.45372984506972" lon="-3.9992864446965264"><ele>156.33333333333334</ele><time>2026-03-22T08:58:03.999Z</time></trkpt><trkpt lat="48.453838276929424" lon="-3.9991250556532805"><ele>155.66666666666666</ele><time>2026-03-22T08:58:04.999Z</time></trkpt><trkpt lat="48.4539324969329" lon="-3.9989378414959513"><ele>155.0</ele><time>2026-03-22T08:58:05.999Z</time></trkpt><trkpt lat="48.45404728641943" lon="-3.99875729901812"><ele>155.0</ele><time>2026-03-22T08:58:06.999Z</time></trkpt><trkpt lat="48.45415776660344" lon="-3.9985570768634826"><ele>155.0</ele><time>2026-03-22T08:58:07.999Z</time></trkpt><trkpt lat="48.4542546008561" lon="-3.99837672632185"><ele>155.0</ele><time>2026-03-22T08:58:08.999Z</time></trkpt><trkpt lat="48.45435334224163" lon="-3.9981828840134694"><ele>154.0</ele><time>2026-03-22T08:58:10Z</time></trkpt><trkpt lat="48.45444571629764" lon="-3.9979924457567892"><ele>153.0</ele><time>2026-03-22T08:58:11Z</time></trkpt><trkpt lat="48.454534444827594" lon="-3.9977943922083625"><ele>152.0</ele><time>2026-03-22T08:58:12Z</time></trkpt><trkpt lat="48.454613876717936" lon="-3.997596327392148"><ele>149.0</ele><time>2026-03-22T08:58:13Z</time></trkpt><trkpt lat="48.454686957242664" lon="-3.9973934446861104"><ele>146.0</ele><time>2026-03-22T08:58:14Z</time></trkpt><trkpt lat="48.454731057332964" lon="-3.9971655256272527"><ele>143.0</ele><time>2026-03-22T08:58:15Z</time></trkpt><trkpt lat="48.4548029106375" lon="-3.996947679377"><ele>143.0</ele><time>2026-03-22T08:58:16Z</time></trkpt><trkpt lat="48.45485921792377" lon="-3.9967196634314197"><ele>143.0</ele><time>2026-03-22T08:58:17Z</time></trkpt><trkpt lat="48.45492812850587" lon="-3.9965018271968713"><ele>143.0</ele><time>2026-03-22T08:58:18Z</time></trkpt><trkpt lat="48.455006515887334" lon="-3.9962942348564057"><ele>142.33333333333331</ele><time>2026-03-22T08:58:19Z</time></trkpt><trkpt lat="48.455097159941054" lon="-3.996095780342995"><ele>141.66666666666666</ele><time>2026-03-22T08:58:20Z</time></trkpt><trkpt lat="48.45519806260127" lon="-3.99591522474761"><ele>141.0</ele><time>2026-03-22T08:58:21Z</time></trkpt><trkpt lat="48.455307052321515" lon="-3.9957430185007428"><ele>141.0</ele><time>2026-03-22T08:58:22Z</time></trkpt><trkpt lat="48.45542398347388" lon="-3.995595774579717"><ele>141.0</ele><time>2026-03-22T08:58:23Z</time></trkpt><trkpt lat="48.4555561331863" lon="-3.995469374071719"><ele>141.0</ele><time>2026-03-22T08:58:24Z</time></trkpt><trkpt lat="48.45569570332488" lon="-3.9953637566219995"><ele>141.66666666666666</ele><time>2026-03-22T08:58:25Z</time></trkpt><trkpt lat="48.45585315058684" lon="-3.995290880654154"><ele>142.33333333333331</ele><time>2026-03-22T08:58:26Z</time></trkpt><trkpt lat="48.455987506255006" lon="-3.9952099773079888"><ele>143.0</ele><time>2026-03-22T08:58:27Z</time></trkpt><trkpt lat="48.456126637341484" lon="-3.995121724631518"><ele>143.0</ele><time>2026-03-22T08:58:28Z</time></trkpt><trkpt lat="48.4562585287201" lon="-3.9950179951675104"><ele>143.0</ele><time>2026-03-22T08:58:29Z</time></trkpt><trkpt lat="48.45637166197581" lon="-3.9949188617850333"><ele>143.0</ele><time>2026-03-22T08:58:30Z</time></trkpt><trkpt lat="48.45647229019683" lon="-3.994834156606583"><ele>143.0</ele><time>2026-03-22T08:58:31Z</time></trkpt><trkpt lat="48.45655579380688" lon="-3.9947465088000986"><ele>144.25</ele><time>2026-03-22T08:58:32Z</time></trkpt><trkpt lat="48.45660483072836" lon="-3.994644401981781"><ele>145.5</ele><time>2026-03-22T08:58:33Z</time></trkpt><trkpt lat="48.45672446905139" lon="-3.994685343949968"><ele>146.75</ele><time>2026-03-22T08:58:34Z</time></trkpt><trkpt lat="48.45655440348778" lon="-3.9944240220093334"><ele>148.0</ele><time>2026-03-22T08:58:35Z</time></trkpt><trkpt lat="48.456476521782356" lon="-3.9943317559135547"><ele>148.0</ele><time>2026-03-22T08:58:36Z</time></trkpt><trkpt lat="48.45640799072129" lon="-3.99419106478083"><ele>148.0</ele><time>2026-03-22T08:58:37Z</time></trkpt><trkpt lat="48.45633887223788" lon="-3.994084332990324"><ele>148.0</ele><time>2026-03-22T08:58:38Z</time></trkpt><trkpt lat="48.456287979963335" lon="-3.9939635181830875"><ele>148.0</ele><time>2026-03-22T08:58:39Z</time></trkpt><trkpt lat="48.45624063595999" lon="-3.9938148544724594"><ele>148.0</ele><time>2026-03-22T08:58:40Z</time></trkpt><trkpt lat="48.456186647007954" lon="-3.9936627046861037"><ele>147.75</ele><time>2026-03-22T08:58:41Z</time></trkpt><trkpt lat="48.456092430953746" lon="-3.9935544636251086"><ele>147.5</ele><time>2026-03-22T08:58:42Z</time></trkpt><trkpt lat="48.45599113388655" lon="-3.993440719983558"><ele>147.25</ele><time>2026-03-22T08:58:43Z</time></trkpt><trkpt lat="48.45588541741625" lon="-3.993297284932989"><ele>147.0</ele><time>2026-03-22T08:58:44Z</time></trkpt><trkpt lat="48.45576937235967" lon="-3.9931857503780717"><ele>147.0</ele><time>2026-03-22T08:58:45Z</time></trkpt><trkpt lat="48.455647128553416" lon="-3.993066317005448"><ele>147.0</ele><time>2026-03-22T08:58:46Z</time></trkpt><trkpt lat="48.45552341348424" lon="-3.992952616371464"><ele>147.0</ele><time>2026-03-22T08:58:47Z</time></trkpt><trkpt lat="48.455394538089514" lon="-3.99284338219299"><ele>147.0</ele><time>2026-03-22T08:58:48Z</time></trkpt><trkpt lat="48.45525720889983" lon="-3.992744777360924"><ele>147.0</ele><time>2026-03-22T08:58:49Z</time></trkpt><trkpt lat="48.455132358402416" lon="-3.9926628958333237"><ele>147.0</ele><time>2026-03-22T08:58:50Z</time></trkpt><trkpt lat="48.4550001832059" lon="-3.9925801581376508"><ele>147.0</ele><time>2026-03-22T08:58:51Z</time></trkpt><trkpt lat="48.454878143380014" lon="-3.9925307042965468"><ele>147.0</ele><time>2026-03-22T08:58:52Z</time></trkpt><trkpt lat="48.45475706920654" lon="-3.9924535750362957"><ele>147.75</ele><time>2026-03-22T08:58:53Z</time></trkpt><trkpt lat="48.454644410512714" lon="-3.992381806795232"><ele>148.5</ele><time>2026-03-22T08:58:54Z</time></trkpt><trkpt lat="48.45453465994477" lon="-3.9923142518345505"><ele>149.25</ele><time>2026-03-22T08:58:55Z</time></trkpt><trkpt lat="48.45443721602826" lon="-3.9922454846384863"><ele>150.0</ele><time>2026-03-22T08:58:56Z</time></trkpt><trkpt lat="48.45434520549428" lon="-3.992161051830826"><ele>150.75</ele><time>2026-03-22T08:58:57Z</time></trkpt><trkpt lat="48.454301678290065" lon="-3.9920017025587002"><ele>151.5</ele><time>2026-03-22T08:58:58Z</time></trkpt><trkpt lat="48.454254879816155" lon="-3.991848205715019"><ele>152.25</ele><time>2026-03-22T08:58:59Z</time></trkpt><trkpt lat="48.45421167624829" lon="-3.9916909361845683"><ele>153.0</ele><time>2026-03-22T08:59:00Z</time></trkpt><trkpt lat="48.45418040346744" lon="-3.9915068655514427"><ele>153.5</ele><time>2026-03-22T08:59:01Z</time></trkpt><trkpt lat="48.454150663900585" lon="-3.991326853247921"><ele>154.0</ele><time>2026-03-22T08:59:02Z</time></trkpt><trkpt lat="48.45413559730069" lon="-3.99114297950609"><ele>154.5</ele><time>2026-03-22T08:59:02.999Z</time></trkpt><trkpt lat="48.45413910395094" lon="-3.9909373305727813"><ele>155.0</ele><time>2026-03-22T08:59:03.999Z</time></trkpt><trkpt lat="48.45416531976207" lon="-3.9907400098182735"><ele>155.5</ele><time>2026-03-22T08:59:04.999Z</time></trkpt><trkpt lat="48.45420332113333" lon="-3.99053689522397"><ele>156.0</ele><time>2026-03-22T08:59:05.999Z</time></trkpt><trkpt lat="48.454241918131935" lon="-3.9903270253668843"><ele>156.5</ele><time>2026-03-22T08:59:06.999Z</time></trkpt><trkpt lat="48.454274497637854" lon="-3.990117650882263"><ele>157.0</ele><time>2026-03-22T08:59:07.999Z</time></trkpt><trkpt lat="48.45430171246318" lon="-3.9899373357874524"><ele>157.2</ele><time>2026-03-22T08:59:08.999Z</time></trkpt><trkpt lat="48.45433334190408" lon="-3.989773326237675"><ele>157.39999999999998</ele><time>2026-03-22T08:59:09.999Z</time></trkpt><trkpt lat="48.454362227444015" lon="-3.989620457555273"><ele>157.60000000000002</ele><time>2026-03-22T08:59:10.999Z</time></trkpt><trkpt lat="48.45437983376766" lon="-3.989479061226985"><ele>157.8</ele><time>2026-03-22T08:59:11.999Z</time></trkpt><trkpt lat="48.45438028228245" lon="-3.989331059617517"><ele>158.0</ele><time>2026-03-22T08:59:12.999Z</time></trkpt><trkpt lat="48.454349069907764" lon="-3.989174552003777"><ele>158.75</ele><time>2026-03-22T08:59:13.999Z</time></trkpt><trkpt lat="48.454268325987876" lon="-3.9890450181707955"><ele>159.5</ele><time>2026-03-22T08:59:14.999Z</time></trkpt><trkpt lat="48.45419060573002" lon="-3.988894029556463"><ele>160.25</ele><time>2026-03-22T08:59:15.999Z</time></trkpt><trkpt lat="48.45410558374964" lon="-3.9887543116579653"><ele>161.0</ele><time>2026-03-22T08:59:16.999Z</time></trkpt><trkpt lat="48.45400340176625" lon="-3.9886337418990077"><ele>161.0</ele><time>2026-03-22T08:59:17.999Z</time></trkpt><trkpt lat="48.453879608022994" lon="-3.9885327264622057"><ele>161.0</ele><time>2026-03-22T08:59:18.999Z</time></trkpt><trkpt lat="48.45375586288662" lon="-3.9884497297528507"><ele>161.0</ele><time>2026-03-22T08:59:19.999Z</time></trkpt><trkpt lat="48.45363018935503" lon="-3.9883731657480004"><ele>161.0</ele><time>2026-03-22T08:59:20.999Z</time></trkpt><trkpt lat="48.453491543648525" lon="-3.9882928954860866"><ele>161.25</ele><time>2026-03-22T08:59:21.999Z</time></trkpt><trkpt lat="48.45335970443666" lon="-3.9881940727174894"><ele>161.5</ele><time>2026-03-22T08:59:22.999Z</time></trkpt><trkpt lat="48.453228076348125" lon="-3.9881380118664924"><ele>161.75</ele><time>2026-03-22T08:59:23.999Z</time></trkpt><trkpt lat="48.45310155419631" lon="-3.988053147273306"><ele>162.0</ele><time>2026-03-22T08:59:24.999Z</time></trkpt><trkpt lat="48.45298170327412" lon="-3.987947723551681"><ele>162.0</ele><time>2026-03-22T08:59:25.999Z</time></trkpt><trkpt lat="48.452872528593524" lon="-3.9878240095654"><ele>162.0</ele><time>2026-03-22T08:59:26.999Z</time></trkpt><trkpt lat="48.45278400362219" lon="-3.98768362929554"><ele>162.0</ele><time>2026-03-22T08:59:27.999Z</time></trkpt><trkpt lat="48.452726496378645" lon="-3.987501905070674"><ele>162.0</ele><time>2026-03-22T08:59:28.999Z</time></trkpt><trkpt lat="48.45266833780977" lon="-3.987330869336888"><ele>162.39999999999998</ele><time>2026-03-22T08:59:29.999Z</time></trkpt><trkpt lat="48.452599749684595" lon="-3.987173525664513"><ele>162.79999999999998</ele><time>2026-03-22T08:59:30.999Z</time></trkpt><trkpt lat="48.45254972068712" lon="-3.987014041850449"><ele>163.2</ele><time>2026-03-22T08:59:31.999Z</time></trkpt><trkpt lat="48.4525193318152" lon="-3.9868695222228516"><ele>163.6</ele><time>2026-03-22T08:59:32.999Z</time></trkpt><trkpt lat="48.45247095635982" lon="-3.986768067860159"><ele>164.0</ele><time>2026-03-22T08:59:33.999Z</time></trkpt><trkpt lat="48.45244405874739" lon="-3.9866668890580828"><ele>164.25</ele><time>2026-03-22T08:59:34.999Z</time></trkpt><trkpt lat="48.45232895519398" lon="-3.986606559019694"><ele>164.5</ele><time>2026-03-22T08:59:35.999Z</time></trkpt><trkpt lat="48.452222653429" lon="-3.9865936811730425"><ele>164.75</ele><time>2026-03-22T08:59:36.999Z</time></trkpt><trkpt lat="48.45210432752442" lon="-3.986540603426707"><ele>165.0</ele><time>2026-03-22T08:59:37.999Z</time></trkpt><trkpt lat="48.45198347100323" lon="-3.9864819090828796"><ele>165.0</ele><time>2026-03-22T08:59:38.999Z</time></trkpt><trkpt lat="48.451855497763404" lon="-3.986428169255581"><ele>165.0</ele><time>2026-03-22T08:59:39.999Z</time></trkpt><trkpt lat="48.45172949258295" lon="-3.9863823459467573"><ele>165.0</ele><time>2026-03-22T08:59:40.999Z</time></trkpt><trkpt lat="48.45161762994599" lon="-3.98635509324373"><ele>165.0</ele><time>2026-03-22T08:59:41.999Z</time></trkpt><trkpt lat="48.45151347735246" lon="-3.986324003616271"><ele>165.0</ele><time>2026-03-22T08:59:42.999Z</time></trkpt><trkpt lat="48.45141347001242" lon="-3.986339851648974"><ele>165.0</ele><time>2026-03-22T08:59:43.999Z</time></trkpt><trkpt lat="48.45134089257702" lon="-3.986339849425175"><ele>165.0</ele><time>2026-03-22T08:59:44.999Z</time></trkpt><trkpt lat="48.451279866741096" lon="-3.9860973088716016"><ele>165.0</ele><time>2026-03-22T08:59:46.999Z</time></trkpt><trkpt lat="48.451311519675485" lon="-3.9859692851111945"><ele>165.0</ele><time>2026-03-22T08:59:47.999Z</time></trkpt><trkpt lat="48.45135994913915" lon="-3.9858269656269525"><ele>165.0</ele><time>2026-03-22T08:59:48.999Z</time></trkpt><trkpt lat="48.45141341665818" lon="-3.985661298529505"><ele>165.0</ele><time>2026-03-22T08:59:49.999Z</time></trkpt><trkpt lat="48.451474833318386" lon="-3.9854654164474392"><ele>165.0</ele><time>2026-03-22T08:59:50.999Z</time></trkpt><trkpt lat="48.451549670826964" lon="-3.9852517978978343"><ele>165.0</ele><time>2026-03-22T08:59:51.999Z</time></trkpt><trkpt lat="48.4516303123784" lon="-3.9850556630425924"><ele>164.0</ele><time>2026-03-22T08:59:52.999Z</time></trkpt><trkpt lat="48.451720965470905" lon="-3.984820766276705"><ele>163.0</ele><time>2026-03-22T08:59:53.999Z</time></trkpt><trkpt lat="48.45182400113669" lon="-3.9845859378368114"><ele>162.0</ele><time>2026-03-22T08:59:54.999Z</time></trkpt><trkpt lat="48.451925777335475" lon="-3.984356135481737"><ele>160.33333333333334</ele><time>2026-03-22T08:59:55.999Z</time></trkpt><trkpt lat="48.452031754964935" lon="-3.9841241037873325"><ele>158.66666666666669</ele><time>2026-03-22T08:59:56.999Z</time></trkpt><trkpt lat="48.45213242524559" lon="-3.983929420555179"><ele>157.0</ele><time>2026-03-22T08:59:57.999Z</time></trkpt><trkpt lat="48.45222684780254" lon="-3.983741324890277"><ele>156.0</ele><time>2026-03-22T08:59:58.999Z</time></trkpt><trkpt lat="48.452326467048074" lon="-3.9835498792305417"><ele>155.0</ele><time>2026-03-22T08:59:59.999Z</time></trkpt><trkpt lat="48.452418604726155" lon="-3.9833658930075253"><ele>154.0</ele><time>2026-03-22T09:00:00.999Z</time></trkpt><trkpt lat="48.452507001999635" lon="-3.983238631558548"><ele>153.0</ele><time>2026-03-22T09:00:01.999Z</time></trkpt><trkpt lat="48.452603689472284" lon="-3.9831666513512363"><ele>152.25</ele><time>2026-03-22T09:00:02.999Z</time></trkpt><trkpt lat="48.45271828088827" lon="-3.9831576822095323"><ele>151.5</ele><time>2026-03-22T09:00:03.999Z</time></trkpt><trkpt lat="48.45283368337067" lon="-3.9832116576923102"><ele>150.75</ele><time>2026-03-22T09:00:04.999Z</time></trkpt><trkpt lat="48.45294120959294" lon="-3.9833082370152693"><ele>150.0</ele><time>2026-03-22T09:00:05.999Z</time></trkpt><trkpt lat="48.4530571030919" lon="-3.983401949395091"><ele>150.0</ele><time>2026-03-22T09:00:06.999Z</time></trkpt><trkpt lat="48.45318126252963" lon="-3.983461054414964"><ele>150.0</ele><time>2026-03-22T09:00:07.999Z</time></trkpt><trkpt lat="48.45330483788974" lon="-3.983493519900205"><ele>150.0</ele><time>2026-03-22T09:00:08.999Z</time></trkpt><trkpt lat="48.45343572569523" lon="-3.9834835168929423"><ele>150.0</ele><time>2026-03-22T09:00:09.999Z</time></trkpt><trkpt lat="48.4535745991497" lon="-3.9834279030860142"><ele>149.0</ele><time>2026-03-22T09:00:10.999Z</time></trkpt><trkpt lat="48.45371718155166" lon="-3.9833376563693643"><ele>148.0</ele><time>2026-03-22T09:00:11.999Z</time></trkpt><trkpt lat="48.45386294633523" lon="-3.9832308130124665"><ele>147.0</ele><time>2026-03-22T09:00:12.999Z</time></trkpt><trkpt lat="48.45398828780603" lon="-3.9831037565277265"><ele>145.33333333333334</ele><time>2026-03-22T09:00:13.999Z</time></trkpt><trkpt lat="48.45412580836885" lon="-3.982952964236366"><ele>143.66666666666669</ele><time>2026-03-22T09:00:14.999Z</time></trkpt><trkpt lat="48.45425326008799" lon="-3.9828363277465137"><ele>142.0</ele><time>2026-03-22T09:00:16Z</time></trkpt><trkpt lat="48.45437719213414" lon="-3.9827269473301046"><ele>142.0</ele><time>2026-03-22T09:00:17Z</time></trkpt><trkpt lat="48.4544957841293" lon="-3.9826343161965023"><ele>142.0</ele><time>2026-03-22T09:00:18Z</time></trkpt><trkpt lat="48.454606734189454" lon="-3.982533731819048"><ele>142.0</ele><time>2026-03-22T09:00:19Z</time></trkpt><trkpt lat="48.45473159534766" lon="-3.9824606932597937"><ele>142.0</ele><time>2026-03-22T09:00:20Z</time></trkpt><trkpt lat="48.45485960306625" lon="-3.9824095968924085"><ele>141.25</ele><time>2026-03-22T09:00:21Z</time></trkpt><trkpt lat="48.45498942115752" lon="-3.9823898168265957"><ele>140.5</ele><time>2026-03-22T09:00:22Z</time></trkpt><trkpt lat="48.455134292079116" lon="-3.982383064882088"><ele>139.75</ele><time>2026-03-22T09:00:23Z</time></trkpt><trkpt lat="48.455268011359365" lon="-3.9823603410106925"><ele>139.0</ele><time>2026-03-22T09:00:24Z</time></trkpt><trkpt lat="48.45540007962288" lon="-3.9823036663137046"><ele>139.25</ele><time>2026-03-22T09:00:25Z</time></trkpt><trkpt lat="48.45550530613252" lon="-3.9821889206904992"><ele>139.5</ele><time>2026-03-22T09:00:26Z</time></trkpt><trkpt lat="48.455582990391825" lon="-3.9820596554156937"><ele>139.75</ele><time>2026-03-22T09:00:27Z</time></trkpt><trkpt lat="48.4556577104039" lon="-3.9819313902764195"><ele>140.0</ele><time>2026-03-22T09:00:28Z</time></trkpt><trkpt lat="48.45573029396616" lon="-3.981826756367721"><ele>140.0</ele><time>2026-03-22T09:00:29Z</time></trkpt><trkpt lat="48.45580651585618" lon="-3.9817402403680364"><ele>140.0</ele><time>2026-03-22T09:00:30Z</time></trkpt><trkpt lat="48.45587736003925" lon="-3.9816924420897397"><ele>140.0</ele><time>2026-03-22T09:00:31Z</time></trkpt><trkpt lat="48.45593771027754" lon="-3.981665390735748"><ele>140.0</ele><time>2026-03-22T09:00:32Z</time></trkpt><trkpt lat="48.455996370820316" lon="-3.981590256291288"><ele>140.0</ele><time>2026-03-22T09:00:34Z</time></trkpt><trkpt lat="48.455892303018004" lon="-3.98138110748703"><ele>139.66666666666666</ele><time>2026-03-22T09:00:37Z</time></trkpt><trkpt lat="48.45583487937945" lon="-3.9812842228018006"><ele>139.33333333333331</ele><time>2026-03-22T09:00:38Z</time></trkpt><trkpt lat="48.455795042058796" lon="-3.981202390042107"><ele>139.0</ele><time>2026-03-22T09:00:39Z</time></trkpt><trkpt lat="48.45576291722775" lon="-3.981091363564965"><ele>138.66666666666666</ele><time>2026-03-22T09:00:40Z</time></trkpt><trkpt lat="48.455705624870085" lon="-3.980955151337958"><ele>138.33333333333334</ele><time>2026-03-22T09:00:41Z</time></trkpt><trkpt lat="48.45565286550132" lon="-3.9808220941985994"><ele>138.0</ele><time>2026-03-22T09:00:42Z</time></trkpt><trkpt lat="48.4556064262083" lon="-3.980693998285731"><ele>137.4</ele><time>2026-03-22T09:00:43Z</time></trkpt><trkpt lat="48.45554879856462" lon="-3.980561006919492"><ele>136.8</ele><time>2026-03-22T09:00:44Z</time></trkpt><trkpt lat="48.455492096830156" lon="-3.9803821054111155"><ele>136.2</ele><time>2026-03-22T09:00:45Z</time></trkpt><trkpt lat="48.455461442968755" lon="-3.9802164802727473"><ele>135.6</ele><time>2026-03-22T09:00:46Z</time></trkpt><trkpt lat="48.45544188206553" lon="-3.9801068448404435"><ele>135.0</ele><time>2026-03-22T09:00:47Z</time></trkpt><trkpt lat="48.4553546419843" lon="-3.979968802145831"><ele>135.0</ele><time>2026-03-22T09:00:49Z</time></trkpt><trkpt lat="48.45528772316414" lon="-3.9799271190367107"><ele>135.0</ele><time>2026-03-22T09:00:50Z</time></trkpt><trkpt lat="48.4552267898498" lon="-3.9798901520879584"><ele>135.0</ele><time>2026-03-22T09:00:51Z</time></trkpt><trkpt lat="48.45518164316595" lon="-3.979793767953655"><ele>135.0</ele><time>2026-03-22T09:00:53Z</time></trkpt><trkpt lat="48.45515906836968" lon="-3.979657852833976"><ele>135.0</ele><time>2026-03-22T09:00:56Z</time></trkpt><trkpt lat="48.45512382319496" lon="-3.979549884941542"><ele>135.0</ele><time>2026-03-22T09:00:57Z</time></trkpt><trkpt lat="48.455076238918565" lon="-3.9794003687694373"><ele>135.0</ele><time>2026-03-22T09:00:58Z</time></trkpt><trkpt lat="48.45503701144342" lon="-3.979271749134108"><ele>135.0</ele><time>2026-03-22T09:00:59Z</time></trkpt><trkpt lat="48.45502740957305" lon="-3.97910221893211"><ele>135.0</ele><time>2026-03-22T09:01:01Z</time></trkpt><trkpt lat="48.455068889642185" lon="-3.979026963383582"><ele>135.0</ele><time>2026-03-22T09:01:03Z</time></trkpt><trkpt lat="48.45510612442056" lon="-3.9789056067513773"><ele>135.0</ele><time>2026-03-22T09:01:05Z</time></trkpt><trkpt lat="48.45519344722608" lon="-3.978886834150182"><ele>135.0</ele><time>2026-03-22T09:01:07Z</time></trkpt><trkpt lat="48.4552600000431" lon="-3.9789370521849974"><ele>134.16666666666666</ele><time>2026-03-22T09:01:10Z</time></trkpt><trkpt lat="48.45531929110092" lon="-3.9788506623249678"><ele>133.33333333333334</ele><time>2026-03-22T09:01:12Z</time></trkpt><trkpt lat="48.455368286321296" lon="-3.9787281028443293"><ele>132.5</ele><time>2026-03-22T09:01:15Z</time></trkpt><trkpt lat="48.455388069837504" lon="-3.9786326108964647"><ele>131.66666666666669</ele><time>2026-03-22T09:01:16.999Z</time></trkpt><trkpt lat="48.455435380443575" lon="-3.978538192846884"><ele>130.83333333333334</ele><time>2026-03-22T09:01:18.999Z</time></trkpt><trkpt lat="48.455487608179624" lon="-3.9784737357590196"><ele>130.0</ele><time>2026-03-22T09:01:19.999Z</time></trkpt><trkpt lat="48.455581624469254" lon="-3.978397755693307"><ele>128.83333333333334</ele><time>2026-03-22T09:01:21.999Z</time></trkpt><trkpt lat="48.455636480589796" lon="-3.978325424266528"><ele>127.66666666666667</ele><time>2026-03-22T09:01:22.999Z</time></trkpt><trkpt lat="48.45568402031794" lon="-3.9782623140228206"><ele>126.5</ele><time>2026-03-22T09:01:23.999Z</time></trkpt><trkpt lat="48.45575856563763" lon="-3.978289066680249"><ele>125.33333333333334</ele><time>2026-03-22T09:01:25.999Z</time></trkpt><trkpt lat="48.45587362877919" lon="-3.978356896793543"><ele>124.16666666666667</ele><time>2026-03-22T09:01:27.999Z</time></trkpt><trkpt lat="48.4559412941569" lon="-3.9783318363642888"><ele>123.0</ele><time>2026-03-22T09:01:28.999Z</time></trkpt><trkpt lat="48.45604192711684" lon="-3.97824496014504"><ele>122.16666666666667</ele><time>2026-03-22T09:01:30.999Z</time></trkpt><trkpt lat="48.456091007378156" lon="-3.9781634860573667"><ele>121.33333333333334</ele><time>2026-03-22T09:01:31.999Z</time></trkpt><trkpt lat="48.45615028469355" lon="-3.978054813903156"><ele>120.5</ele><time>2026-03-22T09:01:32.999Z</time></trkpt><trkpt lat="48.456223071644594" lon="-3.977931074664261"><ele>119.66666666666667</ele><time>2026-03-22T09:01:33.999Z</time></trkpt><trkpt lat="48.456282017194" lon="-3.9778592476036647"><ele>118.83333333333334</ele><time>2026-03-22T09:01:34.999Z</time></trkpt><trkpt lat="48.45634712944919" lon="-3.9778223281065785"><ele>118.0</ele><time>2026-03-22T09:01:35.999Z</time></trkpt><trkpt lat="48.45641673072099" lon="-3.977806238015396"><ele>117.66666666666667</ele><time>2026-03-22T09:01:37.999Z</time></trkpt><trkpt lat="48.45643380190894" lon="-3.9777072831083826"><ele>117.33333333333334</ele><time>2026-03-22T09:01:39.999Z</time></trkpt><trkpt lat="48.45639120617627" lon="-3.977534434448497"><ele>117.0</ele><time>2026-03-22T09:01:41.999Z</time></trkpt><trkpt lat="48.45637008334205" lon="-3.9774404640657632"><ele>116.66666666666666</ele><time>2026-03-22T09:01:42.999Z</time></trkpt><trkpt lat="48.45629968282684" lon="-3.977307738271955"><ele>116.33333333333333</ele><time>2026-03-22T09:01:44.999Z</time></trkpt><trkpt lat="48.456269479382065" lon="-3.9771970810640815"><ele>116.0</ele><time>2026-03-22T09:01:46.999Z</time></trkpt><trkpt lat="48.456245836541854" lon="-3.977090157637951"><ele>116.0</ele><time>2026-03-22T09:01:49.999Z</time></trkpt><trkpt lat="48.456147425248226" lon="-3.976978910087789"><ele>116.0</ele><time>2026-03-22T09:01:51.999Z</time></trkpt><trkpt lat="48.45609518055934" lon="-3.976878961300175"><ele>116.0</ele><time>2026-03-22T09:01:53.999Z</time></trkpt><trkpt lat="48.45605143191658" lon="-3.976790163442274"><ele>116.0</ele><time>2026-03-22T09:01:54.999Z</time></trkpt><trkpt lat="48.4559900741695" lon="-3.976649571873647"><ele>116.0</ele><time>2026-03-22T09:01:55.999Z</time></trkpt><trkpt lat="48.455921980537966" lon="-3.9765187725426125"><ele>115.33333333333333</ele><time>2026-03-22T09:01:56.999Z</time></trkpt><trkpt lat="48.455855833376326" lon="-3.976384401523014"><ele>114.66666666666666</ele><time>2026-03-22T09:01:57.999Z</time></trkpt><trkpt lat="48.45580577404549" lon="-3.976278160280746"><ele>114.0</ele><time>2026-03-22T09:01:58.999Z</time></trkpt><trkpt lat="48.45573962058957" lon="-3.976193987192181"><ele>113.33333333333334</ele><time>2026-03-22T09:01:59.999Z</time></trkpt><trkpt lat="48.4556902671277" lon="-3.9761295717107186"><ele>112.66666666666667</ele><time>2026-03-22T09:02:00.999Z</time></trkpt><trkpt lat="48.45562723108835" lon="-3.976095533611971"><ele>112.0</ele><time>2026-03-22T09:02:01.999Z</time></trkpt><trkpt lat="48.45550624898295" lon="-3.9759709386722117"><ele>112.83333333333334</ele><time>2026-03-22T09:02:03.999Z</time></trkpt><trkpt lat="48.45542710096418" lon="-3.975908831764648"><ele>113.66666666666667</ele><time>2026-03-22T09:02:04.999Z</time></trkpt><trkpt lat="48.45534395708571" lon="-3.9758607868569364"><ele>114.5</ele><time>2026-03-22T09:02:05.999Z</time></trkpt><trkpt lat="48.45527526692896" lon="-3.9758080162615075"><ele>115.33333333333334</ele><time>2026-03-22T09:02:06.999Z</time></trkpt><trkpt lat="48.455306562752355" lon="-3.975725593571502"><ele>116.16666666666667</ele><time>2026-03-22T09:02:43Z</time></trkpt><trkpt lat="48.455285543781216" lon="-3.9756173700141715"><ele>117.0</ele><time>2026-03-22T09:02:45Z</time></trkpt><trkpt lat="48.45521124576642" lon="-3.975489068682411"><ele>117.0</ele><time>2026-03-22T09:02:47Z</time></trkpt><trkpt lat="48.45514254893856" lon="-3.9754198162749406"><ele>116.99999999999999</ele><time>2026-03-22T09:02:48Z</time></trkpt><trkpt lat="48.45505730515439" lon="-3.975342933080255"><ele>116.99999999999999</ele><time>2026-03-22T09:02:49Z</time></trkpt><trkpt lat="48.454962328435585" lon="-3.9752849346422097"><ele>117.0</ele><time>2026-03-22T09:02:50Z</time></trkpt><trkpt lat="48.45485869521129" lon="-3.9752092779736206"><ele>117.0</ele><time>2026-03-22T09:02:51Z</time></trkpt><trkpt lat="48.45478584312653" lon="-3.9751697382629767"><ele>117.0</ele><time>2026-03-22T09:02:52Z</time></trkpt><trkpt lat="48.45470563204014" lon="-3.9751566342351254"><ele>117.0</ele><time>2026-03-22T09:02:53Z</time></trkpt><trkpt lat="48.45461883970124" lon="-3.975185094133227"><ele>117.0</ele><time>2026-03-22T09:02:54Z</time></trkpt><trkpt lat="48.45452852570547" lon="-3.975212526767462"><ele>117.0</ele><time>2026-03-22T09:02:55Z</time></trkpt><trkpt lat="48.4544615906005" lon="-3.9751698841823853"><ele>117.0</ele><time>2026-03-22T09:02:56Z</time></trkpt><trkpt lat="48.45443626108042" lon="-3.975033856230259"><ele>117.0</ele><time>2026-03-22T09:02:58Z</time></trkpt><trkpt lat="48.45441401441559" lon="-3.97485281315948"><ele>117.39999999999999</ele><time>2026-03-22T09:02:59Z</time></trkpt><trkpt lat="48.454371071275325" lon="-3.97472516306319"><ele>117.79999999999998</ele><time>2026-03-22T09:03:00Z</time></trkpt><trkpt lat="48.45431307266416" lon="-3.9745961974998063"><ele>118.2</ele><time>2026-03-22T09:03:01Z</time></trkpt><trkpt lat="48.4542128678061" lon="-3.974480394029276"><ele>118.6</ele><time>2026-03-22T09:03:03Z</time></trkpt><trkpt lat="48.45412678725417" lon="-3.974430355587969"><ele>119.0</ele><time>2026-03-22T09:03:04Z</time></trkpt><trkpt lat="48.454037160412305" lon="-3.974374656330791"><ele>119.0</ele><time>2026-03-22T09:03:05Z</time></trkpt><trkpt lat="48.453926784553545" lon="-3.9743201945292537"><ele>119.0</ele><time>2026-03-22T09:03:06Z</time></trkpt><trkpt lat="48.45382615162494" lon="-3.974272590970039"><ele>119.0</ele><time>2026-03-22T09:03:07Z</time></trkpt><trkpt lat="48.453750988897404" lon="-3.974210771975034"><ele>119.0</ele><time>2026-03-22T09:03:08Z</time></trkpt><trkpt lat="48.45366687085048" lon="-3.974137022517985"><ele>119.0</ele><time>2026-03-22T09:03:09Z</time></trkpt><trkpt lat="48.453577526480196" lon="-3.974092937854862"><ele>119.0</ele><time>2026-03-22T09:03:10Z</time></trkpt><trkpt lat="48.45350666879826" lon="-3.9740158024860164"><ele>119.0</ele><time>2026-03-22T09:03:11Z</time></trkpt><trkpt lat="48.453434819613136" lon="-3.9738959616147667"><ele>119.0</ele><time>2026-03-22T09:03:12Z</time></trkpt><trkpt lat="48.45337203187298" lon="-3.973800066131112"><ele>119.0</ele><time>2026-03-22T09:03:13Z</time></trkpt><trkpt lat="48.4532857677926" lon="-3.9737323754145977"><ele>119.0</ele><time>2026-03-22T09:03:14Z</time></trkpt><trkpt lat="48.45317067134681" lon="-3.9736619394731183"><ele>119.0</ele><time>2026-03-22T09:03:15Z</time></trkpt><trkpt lat="48.453062954779334" lon="-3.973603341277831"><ele>119.0</ele><time>2026-03-22T09:03:16Z</time></trkpt><trkpt lat="48.452958901391455" lon="-3.973547382650699"><ele>119.0</ele><time>2026-03-22T09:03:17Z</time></trkpt><trkpt lat="48.452860758593104" lon="-3.9734791377311254"><ele>119.0</ele><time>2026-03-22T09:03:18Z</time></trkpt><trkpt lat="48.45276012600788" lon="-3.973432585768476"><ele>119.0</ele><time>2026-03-22T09:03:19Z</time></trkpt><trkpt lat="48.452639944282275" lon="-3.9733802784810277"><ele>117.5</ele><time>2026-03-22T09:03:20Z</time></trkpt><trkpt lat="48.4525353521952" lon="-3.973333504984474"><ele>116.0</ele><time>2026-03-22T09:03:21Z</time></trkpt><trkpt lat="48.45242822371367" lon="-3.97333220431239"><ele>114.5</ele><time>2026-03-22T09:03:22Z</time></trkpt><trkpt lat="48.45230850927017" lon="-3.973320079276886"><ele>113.0</ele><time>2026-03-22T09:03:23Z</time></trkpt><trkpt lat="48.452188209186865" lon="-3.9732593790215356"><ele>115.2</ele><time>2026-03-22T09:03:23.999Z</time></trkpt><trkpt lat="48.45207153061296" lon="-3.9732040710192553"><ele>117.4</ele><time>2026-03-22T09:03:24.999Z</time></trkpt><trkpt lat="48.45196575260701" lon="-3.973174493772304"><ele>119.60000000000001</ele><time>2026-03-22T09:03:25.999Z</time></trkpt><trkpt lat="48.45190462181453" lon="-3.973099812057052"><ele>121.80000000000001</ele><time>2026-03-22T09:03:26.999Z</time></trkpt><trkpt lat="48.451861617476375" lon="-3.973009287822003"><ele>124.0</ele><time>2026-03-22T09:03:27.999Z</time></trkpt><trkpt lat="48.45180444133821" lon="-3.9728948609640087"><ele>124.00000000000001</ele><time>2026-03-22T09:03:28.999Z</time></trkpt><trkpt lat="48.451705859375124" lon="-3.972794877845189"><ele>124.0</ele><time>2026-03-22T09:03:30.999Z</time></trkpt><trkpt lat="48.45165055289176" lon="-3.972739167087233"><ele>124.0</ele><time>2026-03-22T09:03:31.999Z</time></trkpt><trkpt lat="48.45158225428527" lon="-3.9726957113477237"><ele>124.0</ele><time>2026-03-22T09:03:32.999Z</time></trkpt><trkpt lat="48.45150105176551" lon="-3.9726608703040927"><ele>124.00000000000001</ele><time>2026-03-22T09:03:33.999Z</time></trkpt><trkpt lat="48.45139637281647" lon="-3.9726442957494053"><ele>124.0</ele><time>2026-03-22T09:03:34.999Z</time></trkpt><trkpt lat="48.451299743619884" lon="-3.9726561510681226"><ele>124.80000000000001</ele><time>2026-03-22T09:03:35.999Z</time></trkpt><trkpt lat="48.45119648186108" lon="-3.9726791683577978"><ele>125.60000000000001</ele><time>2026-03-22T09:03:36.999Z</time></trkpt><trkpt lat="48.45110063630788" lon="-3.9727475926705718"><ele>126.4</ele><time>2026-03-22T09:03:37.999Z</time></trkpt><trkpt lat="48.45102283571241" lon="-3.972812643196319"><ele>127.2</ele><time>2026-03-22T09:03:38.999Z</time></trkpt><trkpt lat="48.45094845054767" lon="-3.9728887354134717"><ele>128.0</ele><time>2026-03-22T09:03:39.999Z</time></trkpt><trkpt lat="48.45087082447248" lon="-3.9730045605829987"><ele>128.0</ele><time>2026-03-22T09:03:40.999Z</time></trkpt><trkpt lat="48.450795654906074" lon="-3.9731493292683178"><ele>128.0</ele><time>2026-03-22T09:03:41.999Z</time></trkpt><trkpt lat="48.450731231496796" lon="-3.973274556783438"><ele>128.0</ele><time>2026-03-22T09:03:42.999Z</time></trkpt><trkpt lat="48.45068644164752" lon="-3.973363077570679"><ele>128.0</ele><time>2026-03-22T09:03:43.999Z</time></trkpt><trkpt lat="48.45072375063676" lon="-3.9735154081119393"><ele>128.0</ele><time>2026-03-22T09:03:45.999Z</time></trkpt><trkpt lat="48.45079111051261" lon="-3.9736118041860267"><ele>130.0</ele><time>2026-03-22T09:03:46.999Z</time></trkpt><trkpt lat="48.45086114113455" lon="-3.9737175869686383"><ele>132.0</ele><time>2026-03-22T09:03:47.999Z</time></trkpt><trkpt lat="48.45093134777723" lon="-3.973880889406604"><ele>134.0</ele><time>2026-03-22T09:03:48.999Z</time></trkpt><trkpt lat="48.45104017828763" lon="-3.9740908373002"><ele>136.0</ele><time>2026-03-22T09:03:49.999Z</time></trkpt><trkpt lat="48.45114822084429" lon="-3.974220939317131"><ele>137.75</ele><time>2026-03-22T09:03:50.999Z</time></trkpt><trkpt lat="48.45125790440552" lon="-3.9743547512974295"><ele>139.5</ele><time>2026-03-22T09:03:51.999Z</time></trkpt><trkpt lat="48.451355483734176" lon="-3.9744672311835076"><ele>141.25</ele><time>2026-03-22T09:03:52.999Z</time></trkpt><trkpt lat="48.4514718344882" lon="-3.9745373908870554"><ele>143.0</ele><time>2026-03-22T09:03:53.999Z</time></trkpt><trkpt lat="48.45159253633093" lon="-3.974630183542683"><ele>143.0</ele><time>2026-03-22T09:03:54.999Z</time></trkpt><trkpt lat="48.45168477575928" lon="-3.974719201063797"><ele>143.0</ele><time>2026-03-22T09:03:55.999Z</time></trkpt><trkpt lat="48.45172557419408" lon="-3.974804371091681"><ele>143.0</ele><time>2026-03-22T09:03:56.999Z</time></trkpt><trkpt lat="48.45174548670821" lon="-3.97493957960765"><ele>143.0</ele><time>2026-03-22T09:03:57.999Z</time></trkpt><trkpt lat="48.451756419184115" lon="-3.9751557000071007"><ele>143.0</ele><time>2026-03-22T09:03:58.999Z</time></trkpt><trkpt lat="48.45178313682977" lon="-3.975337585649445"><ele>143.25</ele><time>2026-03-22T09:03:59.999Z</time></trkpt><trkpt lat="48.45178553170477" lon="-3.9755574359502424"><ele>143.5</ele><time>2026-03-22T09:04:00.999Z</time></trkpt><trkpt lat="48.45177682787906" lon="-3.975726588059945"><ele>143.75</ele><time>2026-03-22T09:04:01.999Z</time></trkpt><trkpt lat="48.45176943844977" lon="-3.9758412536543615"><ele>144.0</ele><time>2026-03-22T09:04:02.999Z</time></trkpt><trkpt lat="48.451668106900485" lon="-3.9759603600842137"><ele>144.0</ele><time>2026-03-22T09:04:04.999Z</time></trkpt><trkpt lat="48.4515501264567" lon="-3.9760814329618936"><ele>144.0</ele><time>2026-03-22T09:04:05.999Z</time></trkpt><trkpt lat="48.451474132019165" lon="-3.976217223185824"><ele>144.0</ele><time>2026-03-22T09:04:06.999Z</time></trkpt><trkpt lat="48.45139612779146" lon="-3.976312699598223"><ele>144.0</ele><time>2026-03-22T09:04:07.999Z</time></trkpt><trkpt lat="48.451287213649856" lon="-3.97637193742927"><ele>143.75</ele><time>2026-03-22T09:04:08.999Z</time></trkpt><trkpt lat="48.45116270130489" lon="-3.976443209862867"><ele>143.5</ele><time>2026-03-22T09:04:09.999Z</time></trkpt><trkpt lat="48.45104856813988" lon="-3.9765321020638607"><ele>143.25</ele><time>2026-03-22T09:04:10.999Z</time></trkpt><trkpt lat="48.45092416847259" lon="-3.9766330092998787"><ele>143.0</ele><time>2026-03-22T09:04:11.999Z</time></trkpt><trkpt lat="48.45080824685328" lon="-3.9766842452100364"><ele>143.0</ele><time>2026-03-22T09:04:12.999Z</time></trkpt><trkpt lat="48.45071076258625" lon="-3.9767138002630635"><ele>143.0</ele><time>2026-03-22T09:04:13.999Z</time></trkpt><trkpt lat="48.45062284324306" lon="-3.976709624724772"><ele>143.0</ele><time>2026-03-22T09:04:14.999Z</time></trkpt><trkpt lat="48.45053842816724" lon="-3.97675526501683"><ele>143.0</ele><time>2026-03-22T09:04:16.999Z</time></trkpt><trkpt lat="48.45053852021006" lon="-3.9768681254756566"><ele>143.0</ele><time>2026-03-22T09:04:18.999Z</time></trkpt><trkpt lat="48.4506180644217" lon="-3.976998050811742"><ele>143.0</ele><time>2026-03-22T09:04:20.999Z</time></trkpt><trkpt lat="48.45070508209019" lon="-3.9770896237024007"><ele>143.0</ele><time>2026-03-22T09:04:21.999Z</time></trkpt><trkpt lat="48.45081094064376" lon="-3.9771882400874925"><ele>143.0</ele><time>2026-03-22T09:04:22.999Z</time></trkpt><trkpt lat="48.45092748388326" lon="-3.9773139889930036"><ele>143.0</ele><time>2026-03-22T09:04:23.999Z</time></trkpt><trkpt lat="48.4510201668596" lon="-3.977398943957044"><ele>143.0</ele><time>2026-03-22T09:04:24.999Z</time></trkpt><trkpt lat="48.45110359573881" lon="-3.977466450910932"><ele>143.0</ele><time>2026-03-22T09:04:25.999Z</time></trkpt><trkpt lat="48.451150053519804" lon="-3.977532431588626"><ele>143.0</ele><time>2026-03-22T09:04:26.999Z</time></trkpt><trkpt lat="48.4511201637961" lon="-3.9777053978207664"><ele>143.0</ele><time>2026-03-22T09:04:29Z</time></trkpt><trkpt lat="48.451082940998454" lon="-3.977842458757602"><ele>143.0</ele><time>2026-03-22T09:04:30Z</time></trkpt><trkpt lat="48.451046952562315" lon="-3.9779578550344716"><ele>143.5</ele><time>2026-03-22T09:04:31Z</time></trkpt><trkpt lat="48.45102250046854" lon="-3.978061380255855"><ele>144.0</ele><time>2026-03-22T09:04:32Z</time></trkpt><trkpt lat="48.450988648350396" lon="-3.9781454250575567"><ele>144.5</ele><time>2026-03-22T09:04:34Z</time></trkpt><trkpt lat="48.450922386685875" lon="-3.97815762952069"><ele>145.0</ele><time>2026-03-22T09:04:36Z</time></trkpt><trkpt lat="48.450825145372484" lon="-3.978083199240319"><ele>145.5</ele><time>2026-03-22T09:04:38Z</time></trkpt><trkpt lat="48.45076064776235" lon="-3.9780414937077024"><ele>146.0</ele><time>2026-03-22T09:04:39Z</time></trkpt><trkpt lat="48.45066631102936" lon="-3.9780199016735818"><ele>146.0</ele><time>2026-03-22T09:04:40Z</time></trkpt><trkpt lat="48.45056048182761" lon="-3.978078343529874"><ele>146.0</ele><time>2026-03-22T09:04:41Z</time></trkpt><trkpt lat="48.45046050352294" lon="-3.9781558977600575"><ele>146.0</ele><time>2026-03-22T09:04:42Z</time></trkpt><trkpt lat="48.45036584721512" lon="-3.9782848521916723"><ele>146.0</ele><time>2026-03-22T09:04:43Z</time></trkpt><trkpt lat="48.45027747395667" lon="-3.9784295703060093"><ele>147.25</ele><time>2026-03-22T09:04:44Z</time></trkpt><trkpt lat="48.45018730400184" lon="-3.978580891099012"><ele>148.5</ele><time>2026-03-22T09:04:45Z</time></trkpt><trkpt lat="48.450095873486745" lon="-3.9787296023535426"><ele>149.75</ele><time>2026-03-22T09:04:46Z</time></trkpt><trkpt lat="48.450000255682866" lon="-3.9788711555161447"><ele>151.0</ele><time>2026-03-22T09:04:47Z</time></trkpt><trkpt lat="48.44987133704749" lon="-3.9789698296789062"><ele>151.0</ele><time>2026-03-22T09:04:48Z</time></trkpt><trkpt lat="48.44974979524465" lon="-3.9790410305833257"><ele>151.0</ele><time>2026-03-22T09:04:49Z</time></trkpt><trkpt lat="48.44960571781871" lon="-3.9790978101195154"><ele>151.0</ele><time>2026-03-22T09:04:50Z</time></trkpt><trkpt lat="48.44945190745793" lon="-3.979120301223202"><ele>151.0</ele><time>2026-03-22T09:04:51Z</time></trkpt><trkpt lat="48.44931649132383" lon="-3.979121360296785"><ele>151.4</ele><time>2026-03-22T09:04:52Z</time></trkpt><trkpt lat="48.44920044131858" lon="-3.9791200849451394"><ele>151.8</ele><time>2026-03-22T09:04:53Z</time></trkpt><trkpt lat="48.44909900952681" lon="-3.979121462800731"><ele>152.20000000000002</ele><time>2026-03-22T09:04:54Z</time></trkpt><trkpt lat="48.448993248322694" lon="-3.979123650506357"><ele>152.6</ele><time>2026-03-22T09:04:55Z</time></trkpt><trkpt lat="48.44888021670757" lon="-3.979128613507965"><ele>153.0</ele><time>2026-03-22T09:04:56Z</time></trkpt><trkpt lat="48.44877385302406" lon="-3.9791449402014565"><ele>153.0</ele><time>2026-03-22T09:04:57Z</time></trkpt><trkpt lat="48.44865834304809" lon="-3.9791673182763185"><ele>153.0</ele><time>2026-03-22T09:04:58Z</time></trkpt><trkpt lat="48.448539686269505" lon="-3.979191574679821"><ele>153.0</ele><time>2026-03-22T09:04:59Z</time></trkpt><trkpt lat="48.448419777063954" lon="-3.97921491413578"><ele>153.0</ele><time>2026-03-22T09:05:00Z</time></trkpt><trkpt lat="48.448304588856125" lon="-3.979239170945086"><ele>153.0</ele><time>2026-03-22T09:05:01Z</time></trkpt><trkpt lat="48.4481909446751" lon="-3.979267251761818"><ele>153.0</ele><time>2026-03-22T09:05:02Z</time></trkpt><trkpt lat="48.448076911993965" lon="-3.979301009636839"><ele>153.0</ele><time>2026-03-22T09:05:03Z</time></trkpt><trkpt lat="48.44797337340032" lon="-3.9793423480415844"><ele>153.0</ele><time>2026-03-22T09:05:04Z</time></trkpt><trkpt lat="48.44787057211547" lon="-3.9793885400498135"><ele>153.0</ele><time>2026-03-22T09:05:05Z</time></trkpt><trkpt lat="48.447766376081255" lon="-3.9794368711389176"><ele>152.6</ele><time>2026-03-22T09:05:06Z</time></trkpt><trkpt lat="48.44766688689836" lon="-3.9794986356062223"><ele>152.20000000000002</ele><time>2026-03-22T09:05:07Z</time></trkpt><trkpt lat="48.447581376346214" lon="-3.9795602719744183"><ele>151.8</ele><time>2026-03-22T09:05:08Z</time></trkpt><trkpt lat="48.447504937167885" lon="-3.9796255589800777"><ele>151.4</ele><time>2026-03-22T09:05:09Z</time></trkpt><trkpt lat="48.447432819357715" lon="-3.979695874464307"><ele>151.0</ele><time>2026-03-22T09:05:10Z</time></trkpt><trkpt lat="48.447357275354435" lon="-3.9797604473131174"><ele>151.0</ele><time>2026-03-22T09:05:11Z</time></trkpt><trkpt lat="48.44730456477753" lon="-3.9798693126423004"><ele>151.0</ele><time>2026-03-22T09:05:13Z</time></trkpt><trkpt lat="48.4471190638154" lon="-3.9797844513118967"><ele>151.0</ele><time>2026-03-22T09:05:16Z</time></trkpt><trkpt lat="48.44706369082559" lon="-3.9796722563596028"><ele>151.0</ele><time>2026-03-22T09:05:17Z</time></trkpt><trkpt lat="48.447015491264395" lon="-3.9795724518468254"><ele>150.8</ele><time>2026-03-22T09:05:18Z</time></trkpt><trkpt lat="48.44696306112537" lon="-3.9794790042818184"><ele>150.6</ele><time>2026-03-22T09:05:19Z</time></trkpt><trkpt lat="48.446910510021695" lon="-3.979400964177897"><ele>150.4</ele><time>2026-03-22T09:05:20Z</time></trkpt><trkpt lat="48.446826954818924" lon="-3.9792707920822155"><ele>150.2</ele><time>2026-03-22T09:05:21Z</time></trkpt><trkpt lat="48.446757484571144" lon="-3.979153428278188"><ele>150.0</ele><time>2026-03-22T09:05:22Z</time></trkpt><trkpt lat="48.446691705261706" lon="-3.979018348024951"><ele>149.5</ele><time>2026-03-22T09:05:23Z</time></trkpt><trkpt lat="48.44664688532529" lon="-3.9789093669484257"><ele>149.0</ele><time>2026-03-22T09:05:24Z</time></trkpt><trkpt lat="48.446609599871664" lon="-3.9788100074557637"><ele>148.5</ele><time>2026-03-22T09:05:25Z</time></trkpt><trkpt lat="48.44652948220534" lon="-3.978701930163034"><ele>148.0</ele><time>2026-03-22T09:05:26Z</time></trkpt><trkpt lat="48.44645228225991" lon="-3.978604016118664"><ele>147.5</ele><time>2026-03-22T09:05:27Z</time></trkpt><trkpt lat="48.44638518878266" lon="-3.9785504470805297"><ele>147.0</ele><time>2026-03-22T09:05:29Z</time></trkpt><trkpt lat="48.446201508359636" lon="-3.978164406838385"><ele>147.0</ele><time>2026-03-22T09:05:30Z</time></trkpt><trkpt lat="48.44617982746645" lon="-3.9780430460305505"><ele>147.0</ele><time>2026-03-22T09:05:32Z</time></trkpt><trkpt lat="48.44649297315207" lon="-3.977676902462635"><ele>146.4</ele><time>2026-03-22T09:05:33Z</time></trkpt><trkpt lat="48.44639764541512" lon="-3.977594278200006"><ele>145.79999999999998</ele><time>2026-03-22T09:05:33.999Z</time></trkpt><trkpt lat="48.44630456488641" lon="-3.9775262358068466"><ele>145.2</ele><time>2026-03-22T09:05:34.999Z</time></trkpt><trkpt lat="48.4462400437079" lon="-3.977477034918324"><ele>144.6</ele><time>2026-03-22T09:05:35.999Z</time></trkpt><trkpt lat="48.44612268583694" lon="-3.9774259919756956"><ele>144.0</ele><time>2026-03-22T09:05:37.999Z</time></trkpt><trkpt lat="48.44603113348495" lon="-3.9773714803563767"><ele>143.0</ele><time>2026-03-22T09:05:39.999Z</time></trkpt><trkpt lat="48.44599339415444" lon="-3.977272874787449"><ele>142.0</ele><time>2026-03-22T09:05:40.999Z</time></trkpt><trkpt lat="48.44597884534954" lon="-3.977142661525226"><ele>141.0</ele><time>2026-03-22T09:05:41.999Z</time></trkpt><trkpt lat="48.44595732336397" lon="-3.9770503671728203"><ele>140.0</ele><time>2026-03-22T09:05:42.999Z</time></trkpt><trkpt lat="48.44592546596626" lon="-3.9769606844800394"><ele>139.0</ele><time>2026-03-22T09:05:45.999Z</time></trkpt><trkpt lat="48.445884416112136" lon="-3.976743651673301"><ele>138.0</ele><time>2026-03-22T09:05:47.999Z</time></trkpt><trkpt lat="48.445862245788824" lon="-3.976580562124691"><ele>137.0</ele><time>2026-03-22T09:05:48.999Z</time></trkpt><trkpt lat="48.44586797279461" lon="-3.976404950676749"><ele>136.0</ele><time>2026-03-22T09:05:49.999Z</time></trkpt><trkpt lat="48.44587660081262" lon="-3.976238565288507"><ele>135.0</ele><time>2026-03-22T09:05:50.999Z</time></trkpt><trkpt lat="48.445892559822205" lon="-3.976120193426272"><ele>134.0</ele><time>2026-03-22T09:05:51.999Z</time></trkpt><trkpt lat="48.445935225100534" lon="-3.9760452372081057"><ele>133.0</ele><time>2026-03-22T09:05:52.999Z</time></trkpt><trkpt lat="48.446021940888514" lon="-3.9758369423768136"><ele>133.0</ele><time>2026-03-22T09:05:54.999Z</time></trkpt><trkpt lat="48.44606104920074" lon="-3.9757236165286884"><ele>133.0</ele><time>2026-03-22T09:05:56.999Z</time></trkpt><trkpt lat="48.44599932272995" lon="-3.975773804987398"><ele>133.0</ele><time>2026-03-22T09:06:09.999Z</time></trkpt><trkpt lat="48.44589272582384" lon="-3.975823328873037"><ele>133.0</ele><time>2026-03-22T09:06:11.999Z</time></trkpt><trkpt lat="48.4458266924412" lon="-3.9758819912816774"><ele>133.0</ele><time>2026-03-22T09:06:14.999Z</time></trkpt><trkpt lat="48.44576046783575" lon="-3.975919808690531"><ele>133.0</ele><time>2026-03-22T09:06:21.999Z</time></trkpt><trkpt lat="48.44574271770317" lon="-3.9758076320108775"><ele>135.0</ele><time>2026-03-22T09:06:25.999Z</time></trkpt><trkpt lat="48.445762821385316" lon="-3.9756276797871757"><ele>137.0</ele><time>2026-03-22T09:06:27.999Z</time></trkpt><trkpt lat="48.44573991263692" lon="-3.975532846655945"><ele>139.0</ele><time>2026-03-22T09:06:28.999Z</time></trkpt><trkpt lat="48.44572433513455" lon="-3.9754295685270518"><ele>141.0</ele><time>2026-03-22T09:06:29.999Z</time></trkpt><trkpt lat="48.44573927762713" lon="-3.9753347608237397"><ele>143.0</ele><time>2026-03-22T09:06:31.999Z</time></trkpt><trkpt lat="48.44580680102038" lon="-3.9752084409811292"><ele>145.0</ele><time>2026-03-22T09:06:35Z</time></trkpt><trkpt lat="48.445849390771976" lon="-3.975084096167307"><ele>147.0</ele><time>2026-03-22T09:06:36Z</time></trkpt><trkpt lat="48.445873647582616" lon="-3.9749347616591475"><ele>149.0</ele><time>2026-03-22T09:06:37Z</time></trkpt><trkpt lat="48.445908810748776" lon="-3.974773993796281"><ele>151.0</ele><time>2026-03-22T09:06:38Z</time></trkpt><trkpt lat="48.4459432581699" lon="-3.9746074663019804"><ele>153.0</ele><time>2026-03-22T09:06:39Z</time></trkpt><trkpt lat="48.446008338106694" lon="-3.974468901106886"><ele>155.0</ele><time>2026-03-22T09:06:40Z</time></trkpt><trkpt lat="48.44607178059562" lon="-3.9743617595888288"><ele>155.0</ele><time>2026-03-22T09:06:41Z</time></trkpt><trkpt lat="48.4461378689203" lon="-3.974265316420578"><ele>155.0</ele><time>2026-03-22T09:06:42Z</time></trkpt><trkpt lat="48.44619013211527" lon="-3.974182975248674"><ele>155.0</ele><time>2026-03-22T09:06:43Z</time></trkpt><trkpt lat="48.44622651653545" lon="-3.974098616458524"><ele>155.0</ele><time>2026-03-22T09:06:45Z</time></trkpt><trkpt lat="48.44628965157951" lon="-3.9741558226501374"><ele>155.0</ele><time>2026-03-22T09:06:48Z</time></trkpt><trkpt lat="48.44636552192194" lon="-3.9740866141097864"><ele>155.0</ele><time>2026-03-22T09:06:50Z</time></trkpt><trkpt lat="48.4464302296916" lon="-3.9740684425225195"><ele>154.0</ele><time>2026-03-22T09:06:52Z</time></trkpt><trkpt lat="48.44651894234201" lon="-3.9740429426947306"><ele>153.0</ele><time>2026-03-22T09:06:55Z</time></trkpt><trkpt lat="48.44659164841638" lon="-3.9739623292680664"><ele>152.0</ele><time>2026-03-22T09:06:57Z</time></trkpt><trkpt lat="48.446686134947385" lon="-3.9739636723206324"><ele>151.0</ele><time>2026-03-22T09:06:59Z</time></trkpt><trkpt lat="48.44675738651365" lon="-3.973975382821242"><ele>150.0</ele><time>2026-03-22T09:07:01Z</time></trkpt><trkpt lat="48.44680608428989" lon="-3.974039018423667"><ele>149.0</ele><time>2026-03-22T09:07:04Z</time></trkpt><trkpt lat="48.446815737141534" lon="-3.9741543725299167"><ele>147.66666666666666</ele><time>2026-03-22T09:07:07Z</time></trkpt><trkpt lat="48.446825808539664" lon="-3.9742766185758884"><ele>146.33333333333331</ele><time>2026-03-22T09:07:09Z</time></trkpt><trkpt lat="48.446815684502425" lon="-3.9743882388675793"><ele>145.0</ele><time>2026-03-22T09:07:10Z</time></trkpt><trkpt lat="48.44675922708114" lon="-3.9745002643280785"><ele>143.66666666666666</ele><time>2026-03-22T09:07:12Z</time></trkpt><trkpt lat="48.44665033994528" lon="-3.9745748274561667"><ele>142.33333333333334</ele><time>2026-03-22T09:07:14Z</time></trkpt><trkpt lat="48.44661485157973" lon="-3.97467141850228"><ele>141.0</ele><time>2026-03-22T09:07:16Z</time></trkpt><trkpt lat="48.44656219669916" lon="-3.9748105507676588"><ele>141.0</ele><time>2026-03-22T09:07:19Z</time></trkpt><trkpt lat="48.44651154122995" lon="-3.9749339970224415"><ele>141.0</ele><time>2026-03-22T09:07:22Z</time></trkpt><trkpt lat="48.44648232882979" lon="-3.975040358445989"><ele>141.0</ele><time>2026-03-22T09:07:24Z</time></trkpt><trkpt lat="48.4464466307056" lon="-3.975156366063792"><ele>141.0</ele><time>2026-03-22T09:07:33Z</time></trkpt><trkpt lat="48.4464020355112" lon="-3.9753195283169553"><ele>141.0</ele><time>2026-03-22T09:07:35Z</time></trkpt><trkpt lat="48.4463386663621" lon="-3.9754845858232133"><ele>141.66666666666666</ele><time>2026-03-22T09:07:37Z</time></trkpt><trkpt lat="48.4462758241923" lon="-3.975622538228687"><ele>142.33333333333334</ele><time>2026-03-22T09:07:39Z</time></trkpt><trkpt lat="48.44625118115869" lon="-3.975743920320999"><ele>143.0</ele><time>2026-03-22T09:07:41Z</time></trkpt><trkpt lat="48.44624963197419" lon="-3.975868150201272"><ele>143.66666666666669</ele><time>2026-03-22T09:07:42.999Z</time></trkpt><trkpt lat="48.44623921392918" lon="-3.97598015145921"><ele>144.33333333333334</ele><time>2026-03-22T09:07:44.999Z</time></trkpt><trkpt lat="48.44626071926696" lon="-3.976098562110277"><ele>145.0</ele><time>2026-03-22T09:07:46.999Z</time></trkpt><trkpt lat="48.44633656105223" lon="-3.976111301882071"><ele>142.85714285714286</ele><time>2026-03-22T09:07:49.999Z</time></trkpt><trkpt lat="48.44640459211586" lon="-3.9760618325337185"><ele>140.71428571428572</ele><time>2026-03-22T09:08:50Z</time></trkpt><trkpt lat="48.44647165259896" lon="-3.9760058953388837"><ele>138.57142857142858</ele><time>2026-03-22T09:08:51Z</time></trkpt><trkpt lat="48.446539077114494" lon="-3.975948180512898"><ele>136.42857142857144</ele><time>2026-03-22T09:08:52Z</time></trkpt><trkpt lat="48.44659830508098" lon="-3.975897012143468"><ele>134.28571428571428</ele><time>2026-03-22T09:08:53Z</time></trkpt><trkpt lat="48.4466632139383" lon="-3.975864914604018"><ele>132.14285714285717</ele><time>2026-03-22T09:08:54Z</time></trkpt><trkpt lat="48.44673343404153" lon="-3.975799371478472"><ele>130.0</ele><time>2026-03-22T09:08:56Z</time></trkpt><trkpt lat="48.44674529167605" lon="-3.975705162912483"><ele>130.0</ele><time>2026-03-22T09:08:58Z</time></trkpt><trkpt lat="48.44681989169269" lon="-3.9756323076409874"><ele>130.0</ele><time>2026-03-22T09:09:00Z</time></trkpt><trkpt lat="48.44690091457114" lon="-3.975575367151789"><ele>130.0</ele><time>2026-03-22T09:09:02Z</time></trkpt><trkpt lat="48.44697243908494" lon="-3.9754599662676258"><ele>130.0</ele><time>2026-03-22T09:09:07Z</time></trkpt><trkpt lat="48.44706080849315" lon="-3.9754101028954563"><ele>130.0</ele><time>2026-03-22T09:09:08Z</time></trkpt><trkpt lat="48.44714662446983" lon="-3.9753426826560605"><ele>130.0</ele><time>2026-03-22T09:09:09Z</time></trkpt><trkpt lat="48.44722072881599" lon="-3.9752696536843986"><ele>130.0</ele><time>2026-03-22T09:09:10Z</time></trkpt><trkpt lat="48.44729757792829" lon="-3.9752200769019463"><ele>130.0</ele><time>2026-03-22T09:09:11Z</time></trkpt><trkpt lat="48.4473704654945" lon="-3.975144916755908"><ele>130.0</ele><time>2026-03-22T09:09:13Z</time></trkpt><trkpt lat="48.44744032796112" lon="-3.9750502518026996"><ele>130.0</ele><time>2026-03-22T09:09:15Z</time></trkpt><trkpt lat="48.447495605284175" lon="-3.974961835592721"><ele>130.0</ele><time>2026-03-22T09:09:17Z</time></trkpt><trkpt lat="48.447512283826676" lon="-3.9748520743877043"><ele>130.0</ele><time>2026-03-22T09:09:18Z</time></trkpt><trkpt lat="48.44755638156092" lon="-3.9747458283548225"><ele>130.0</ele><time>2026-03-22T09:09:19Z</time></trkpt><trkpt lat="48.44762546919594" lon="-3.9746485000048035"><ele>130.0</ele><time>2026-03-22T09:09:20Z</time></trkpt><trkpt lat="48.447691127478855" lon="-3.9745194333954896"><ele>130.0</ele><time>2026-03-22T09:09:21Z</time></trkpt><trkpt lat="48.44775626915472" lon="-3.974370909054437"><ele>130.0</ele><time>2026-03-22T09:09:22Z</time></trkpt><trkpt lat="48.447823217504904" lon="-3.974229469709824"><ele>132.4</ele><time>2026-03-22T09:09:23Z</time></trkpt><trkpt lat="48.44787710008686" lon="-3.9741032243847823"><ele>134.8</ele><time>2026-03-22T09:09:24Z</time></trkpt><trkpt lat="48.447914212150614" lon="-3.973957183714879"><ele>137.2</ele><time>2026-03-22T09:09:25Z</time></trkpt><trkpt lat="48.4479358561423" lon="-3.9737980076142723"><ele>139.6</ele><time>2026-03-22T09:09:26Z</time></trkpt><trkpt lat="48.447932352308925" lon="-3.973643360023699"><ele>142.0</ele><time>2026-03-22T09:09:27Z</time></trkpt><trkpt lat="48.447905904991615" lon="-3.973515436105986"><ele>142.0</ele><time>2026-03-22T09:09:28Z</time></trkpt><trkpt lat="48.447866392801394" lon="-3.973396389325788"><ele>142.0</ele><time>2026-03-22T09:09:29Z</time></trkpt><trkpt lat="48.44781239583263" lon="-3.9732866230010404"><ele>142.0</ele><time>2026-03-22T09:09:30Z</time></trkpt><trkpt lat="48.44775029709301" lon="-3.9732089835410953"><ele>142.0</ele><time>2026-03-22T09:09:31Z</time></trkpt><trkpt lat="48.44772890773104" lon="-3.9730757170865134"><ele>142.0</ele><time>2026-03-22T09:09:33Z</time></trkpt><trkpt lat="48.447774671267425" lon="-3.9729991940918854"><ele>142.0</ele><time>2026-03-22T09:09:34Z</time></trkpt><trkpt lat="48.44783307240249" lon="-3.972907916440644"><ele>142.0</ele><time>2026-03-22T09:09:35Z</time></trkpt><trkpt lat="48.4479060658257" lon="-3.9727843311973974"><ele>142.0</ele><time>2026-03-22T09:09:36Z</time></trkpt><trkpt lat="48.447982412995984" lon="-3.972673801057384"><ele>142.0</ele><time>2026-03-22T09:09:37Z</time></trkpt><trkpt lat="48.44804846178473" lon="-3.972538609857338"><ele>142.0</ele><time>2026-03-22T09:09:38Z</time></trkpt><trkpt lat="48.44808981003518" lon="-3.972405126255921"><ele>142.0</ele><time>2026-03-22T09:09:39Z</time></trkpt><trkpt lat="48.44811049051181" lon="-3.97228483094204"><ele>142.0</ele><time>2026-03-22T09:09:40.999Z</time></trkpt><trkpt lat="48.44818139908046" lon="-3.9723618709662847"><ele>142.0</ele><time>2026-03-22T09:09:42.999Z</time></trkpt><trkpt lat="48.44824833329554" lon="-3.9724367721398774"><ele>142.0</ele><time>2026-03-22T09:09:43.999Z</time></trkpt><trkpt lat="48.44834891132216" lon="-3.9724909928070695"><ele>142.0</ele><time>2026-03-22T09:09:44.999Z</time></trkpt><trkpt lat="48.44846951831394" lon="-3.972537385547299"><ele>142.0</ele><time>2026-03-22T09:09:45.999Z</time></trkpt><trkpt lat="48.448592021095614" lon="-3.9725649524597295"><ele>140.4</ele><time>2026-03-22T09:09:46.999Z</time></trkpt><trkpt lat="48.44870356244636" lon="-3.972592387231593"><ele>138.79999999999998</ele><time>2026-03-22T09:09:47.999Z</time></trkpt><trkpt lat="48.44878636286736" lon="-3.9726091357485367"><ele>137.2</ele><time>2026-03-22T09:09:48.999Z</time></trkpt><trkpt lat="48.44887230579606" lon="-3.972607013772481"><ele>135.6</ele><time>2026-03-22T09:09:49.999Z</time></trkpt><trkpt lat="48.448971478503346" lon="-3.9725875922759113"><ele>134.0</ele><time>2026-03-22T09:09:50.999Z</time></trkpt><trkpt lat="48.449068285811556" lon="-3.972567510650361"><ele>133.0</ele><time>2026-03-22T09:09:51.999Z</time></trkpt><trkpt lat="48.44916153902789" lon="-3.97250472348593"><ele>132.0</ele><time>2026-03-22T09:09:52.999Z</time></trkpt><trkpt lat="48.44925813751839" lon="-3.972392692726469"><ele>131.0</ele><time>2026-03-22T09:09:53.999Z</time></trkpt><trkpt lat="48.449350009572264" lon="-3.9722906153928776"><ele>130.0</ele><time>2026-03-22T09:09:54.999Z</time></trkpt><trkpt lat="48.44943205682846" lon="-3.972221790486126"><ele>129.0</ele><time>2026-03-22T09:09:55.999Z</time></trkpt><trkpt lat="48.44952299477645" lon="-3.9721981402362676"><ele>129.0</ele><time>2026-03-22T09:09:56.999Z</time></trkpt><trkpt lat="48.44960580280016" lon="-3.9721921515584215"><ele>129.0</ele><time>2026-03-22T09:09:57.999Z</time></trkpt><trkpt lat="48.44968888685829" lon="-3.972175285966215"><ele>129.0</ele><time>2026-03-22T09:09:58.999Z</time></trkpt><trkpt lat="48.449809825801886" lon="-3.9721610564879994"><ele>129.0</ele><time>2026-03-22T09:09:59.999Z</time></trkpt><trkpt lat="48.44993119486001" lon="-3.972117397268405"><ele>129.0</ele><time>2026-03-22T09:10:00.999Z</time></trkpt><trkpt lat="48.45004206096787" lon="-3.972066587834266"><ele>126.6</ele><time>2026-03-22T09:10:01.999Z</time></trkpt><trkpt lat="48.450155619734566" lon="-3.9719952089753763"><ele>124.2</ele><time>2026-03-22T09:10:02.999Z</time></trkpt><trkpt lat="48.45027222239752" lon="-3.9719034248692067"><ele>121.79999999999998</ele><time>2026-03-22T09:10:03.999Z</time></trkpt><trkpt lat="48.450371516009305" lon="-3.9718218047641076"><ele>119.39999999999999</ele><time>2026-03-22T09:10:04.999Z</time></trkpt><trkpt lat="48.45043111756858" lon="-3.9717605064642307"><ele>117.0</ele><time>2026-03-22T09:10:05.999Z</time></trkpt><trkpt lat="48.45051965218934" lon="-3.9717367476424954"><ele>116.66666666666667</ele><time>2026-03-22T09:10:07.999Z</time></trkpt><trkpt lat="48.45056821128222" lon="-3.971803941123387"><ele>116.33333333333334</ele><time>2026-03-22T09:10:08.999Z</time></trkpt><trkpt lat="48.45061968134666" lon="-3.9717407618900986"><ele>116.0</ele><time>2026-03-22T09:10:24.999Z</time></trkpt><trkpt lat="48.45066795304219" lon="-3.9716013188165262"><ele>115.66666666666667</ele><time>2026-03-22T09:10:26.999Z</time></trkpt><trkpt lat="48.45075679470207" lon="-3.971511260351109"><ele>115.33333333333334</ele><time>2026-03-22T09:10:28.999Z</time></trkpt><trkpt lat="48.450799688779675" lon="-3.971370275168721"><ele>115.0</ele><time>2026-03-22T09:10:30.999Z</time></trkpt><trkpt lat="48.450774567572005" lon="-3.9712167220664907"><ele>113.83333333333334</ele><time>2026-03-22T09:10:32.999Z</time></trkpt><trkpt lat="48.45071617347314" lon="-3.9711178316801203"><ele>112.66666666666667</ele><time>2026-03-22T09:10:34.999Z</time></trkpt><trkpt lat="48.45062013370882" lon="-3.9710048795820936"><ele>111.5</ele><time>2026-03-22T09:10:36.999Z</time></trkpt><trkpt lat="48.45056148308184" lon="-3.970959631480367"><ele>110.33333333333334</ele><time>2026-03-22T09:10:37.999Z</time></trkpt><trkpt lat="48.45049432171329" lon="-3.9708752313662146"><ele>109.16666666666667</ele><time>2026-03-22T09:10:40.999Z</time></trkpt><trkpt lat="48.45043539809901" lon="-3.97080159827401"><ele>108.0</ele><time>2026-03-22T09:10:41.999Z</time></trkpt><trkpt lat="48.45038099528932" lon="-3.97073866727734"><ele>110.83333333333333</ele><time>2026-03-22T09:10:43.999Z</time></trkpt><trkpt lat="48.450320969222616" lon="-3.970814975554005"><ele>113.66666666666666</ele><time>2026-03-22T09:10:50Z</time></trkpt><trkpt lat="48.45025157561031" lon="-3.970823858562823"><ele>116.5</ele><time>2026-03-22T09:10:53Z</time></trkpt><trkpt lat="48.45017685886066" lon="-3.970807693004473"><ele>119.33333333333333</ele><time>2026-03-22T09:10:56Z</time></trkpt><trkpt lat="48.450105774752714" lon="-3.9707293364470404"><ele>122.16666666666666</ele><time>2026-03-22T09:10:59Z</time></trkpt><trkpt lat="48.45003782532266" lon="-3.970649453116525"><ele>125.0</ele><time>2026-03-22T09:11:01Z</time></trkpt><trkpt lat="48.449917373674694" lon="-3.970627795352814"><ele>125.0</ele><time>2026-03-22T09:11:03Z</time></trkpt><trkpt lat="48.449806775390265" lon="-3.9705885845606113"><ele>125.0</ele><time>2026-03-22T09:11:05Z</time></trkpt><trkpt lat="48.44973586662938" lon="-3.9704886503561743"><ele>125.0</ele><time>2026-03-22T09:11:07Z</time></trkpt><trkpt lat="48.44966545779654" lon="-3.9703603410302373"><ele>125.0</ele><time>2026-03-22T09:11:09Z</time></trkpt><trkpt lat="48.449625687110235" lon="-3.9702706644133747"><ele>125.0</ele><time>2026-03-22T09:11:11Z</time></trkpt><trkpt lat="48.44957055177727" lon="-3.9702038167688003"><ele>123.99999999999999</ele><time>2026-03-22T09:11:13Z</time></trkpt><trkpt lat="48.44950804669084" lon="-3.970145376447765"><ele>123.0</ele><time>2026-03-22T09:11:15Z</time></trkpt><trkpt lat="48.449412795625896" lon="-3.9701059042510165"><ele>122.0</ele><time>2026-03-22T09:11:18Z</time></trkpt><trkpt lat="48.44933925381963" lon="-3.9700197249413547"><ele>121.0</ele><time>2026-03-22T09:11:20Z</time></trkpt><trkpt lat="48.449259123358324" lon="-3.9699714381045412"><ele>119.99999999999999</ele><time>2026-03-22T09:11:23Z</time></trkpt><trkpt lat="48.44920924767161" lon="-3.9698924424111484"><ele>119.0</ele><time>2026-03-22T09:11:26Z</time></trkpt><trkpt lat="48.449147806139834" lon="-3.9698715535143125"><ele>118.99999999999999</ele><time>2026-03-22T09:11:28Z</time></trkpt><trkpt lat="48.449088583737854" lon="-3.9698072336976358"><ele>119.0</ele><time>2026-03-22T09:11:30Z</time></trkpt><trkpt lat="48.4490142086716" lon="-3.969827083511472"><ele>119.0</ele><time>2026-03-22T09:11:33Z</time></trkpt><trkpt lat="48.44895741682679" lon="-3.969778234385287"><ele>119.0</ele><time>2026-03-22T09:11:36Z</time></trkpt><trkpt lat="48.44889854276391" lon="-3.969736836873004"><ele>118.99999999999999</ele><time>2026-03-22T09:11:39Z</time></trkpt><trkpt lat="48.44881078000154" lon="-3.96970322083645"><ele>119.0</ele><time>2026-03-22T09:11:42Z</time></trkpt><trkpt lat="48.44874241599205" lon="-3.9696264600138376"><ele>120.2</ele><time>2026-03-22T09:11:44Z</time></trkpt><trkpt lat="48.44865658356955" lon="-3.969615270896095"><ele>121.4</ele><time>2026-03-22T09:11:45.999Z</time></trkpt><trkpt lat="48.44858307564334" lon="-3.9696556707436828"><ele>122.6</ele><time>2026-03-22T09:11:47.999Z</time></trkpt><trkpt lat="48.44849886564045" lon="-3.969570748907324"><ele>123.8</ele><time>2026-03-22T09:11:49.999Z</time></trkpt><trkpt lat="48.448436839158006" lon="-3.9694904403058398"><ele>125.0</ele><time>2026-03-22T09:11:51.999Z</time></trkpt><trkpt lat="48.44819032479278" lon="-3.9691822406401047"><ele>126.42857142857142</ele><time>2026-03-22T09:11:53.999Z</time></trkpt><trkpt lat="48.44813428577083" lon="-3.969099883257053"><ele>127.85714285714286</ele><time>2026-03-22T09:11:54.999Z</time></trkpt><trkpt lat="48.44809266141382" lon="-3.9689957518111028"><ele>129.28571428571428</ele><time>2026-03-22T09:11:55.999Z</time></trkpt><trkpt lat="48.44804711651736" lon="-3.9689204590414437"><ele>130.71428571428572</ele><time>2026-03-22T09:11:56.999Z</time></trkpt><trkpt lat="48.447976699055474" lon="-3.9688837318563155"><ele>132.14285714285714</ele><time>2026-03-22T09:11:57.999Z</time></trkpt><trkpt lat="48.447921330073335" lon="-3.9688385619314377"><ele>133.57142857142856</ele><time>2026-03-22T09:11:58.999Z</time></trkpt><trkpt lat="48.44787687306223" lon="-3.9687691578241795"><ele>135.0</ele><time>2026-03-22T09:11:59.999Z</time></trkpt><trkpt lat="48.44782452175917" lon="-3.9685931379918187"><ele>135.0</ele><time>2026-03-22T09:12:01.999Z</time></trkpt><trkpt lat="48.44775816337888" lon="-3.968453928824186"><ele>135.0</ele><time>2026-03-22T09:12:02.999Z</time></trkpt><trkpt lat="48.44768985927395" lon="-3.968318187500509"><ele>135.0</ele><time>2026-03-22T09:12:03.999Z</time></trkpt><trkpt lat="48.447650930129804" lon="-3.9681871907839845"><ele>135.0</ele><time>2026-03-22T09:12:04.999Z</time></trkpt><trkpt lat="48.44758678654542" lon="-3.968069044229446"><ele>135.0</ele><time>2026-03-22T09:12:05.999Z</time></trkpt><trkpt lat="48.447535584969394" lon="-3.9679422179116317"><ele>134.4</ele><time>2026-03-22T09:12:06.999Z</time></trkpt><trkpt lat="48.44747689306513" lon="-3.967815507647242"><ele>133.8</ele><time>2026-03-22T09:12:07.999Z</time></trkpt><trkpt lat="48.44744247513755" lon="-3.967708024070061"><ele>133.2</ele><time>2026-03-22T09:12:08.999Z</time></trkpt><trkpt lat="48.44736190704328" lon="-3.9676592822826495"><ele>132.6</ele><time>2026-03-22T09:12:09.999Z</time></trkpt><trkpt lat="48.44722060641684" lon="-3.9675783638553326"><ele>132.0</ele><time>2026-03-22T09:12:11.999Z</time></trkpt><trkpt lat="48.44710353783426" lon="-3.9675279329870143"><ele>129.25</ele><time>2026-03-22T09:12:12.999Z</time></trkpt><trkpt lat="48.447003287438086" lon="-3.967470772709303"><ele>126.5</ele><time>2026-03-22T09:12:13.999Z</time></trkpt><trkpt lat="48.446916579144414" lon="-3.9674310422348325"><ele>123.75</ele><time>2026-03-22T09:12:14.999Z</time></trkpt><trkpt lat="48.44677755501666" lon="-3.967425607865476"><ele>121.0</ele><time>2026-03-22T09:12:15.999Z</time></trkpt><trkpt lat="48.44666601037737" lon="-3.9674977695662923"><ele>121.0</ele><time>2026-03-22T09:12:17.999Z</time></trkpt><trkpt lat="48.44651210915315" lon="-3.9674294099575684"><ele>121.0</ele><time>2026-03-22T09:12:18.999Z</time></trkpt><trkpt lat="48.44637438294172" lon="-3.9673998352098216"><ele>121.0</ele><time>2026-03-22T09:12:19.999Z</time></trkpt><trkpt lat="48.44629271024728" lon="-3.9673998725033455"><ele>121.0</ele><time>2026-03-22T09:12:20.999Z</time></trkpt><trkpt lat="48.4463563696962" lon="-3.96744521736998"><ele>123.19999999999999</ele><time>2026-03-22T09:12:21.999Z</time></trkpt><trkpt lat="48.44639371280086" lon="-3.967565497824039"><ele>125.39999999999999</ele><time>2026-03-22T09:12:46.999Z</time></trkpt><trkpt lat="48.44637854901829" lon="-3.967688240154025"><ele>127.6</ele><time>2026-03-22T09:12:47.999Z</time></trkpt><trkpt lat="48.446369242469004" lon="-3.9678122052170988"><ele>129.79999999999998</ele><time>2026-03-22T09:12:48.999Z</time></trkpt><trkpt lat="48.44638400916352" lon="-3.9679439908548306"><ele>132.0</ele><time>2026-03-22T09:12:49.999Z</time></trkpt><trkpt lat="48.44644538569171" lon="-3.9680867410984013"><ele>132.0</ele><time>2026-03-22T09:12:50.999Z</time></trkpt><trkpt lat="48.44647889744892" lon="-3.9682110461323683"><ele>132.0</ele><time>2026-03-22T09:12:52Z</time></trkpt><trkpt lat="48.446380327058044" lon="-3.968295181624519"><ele>132.0</ele><time>2026-03-22T09:12:54Z</time></trkpt><trkpt lat="48.44632136856144" lon="-3.968398919135603"><ele>132.0</ele><time>2026-03-22T09:12:55Z</time></trkpt><trkpt lat="48.44625872282735" lon="-3.96845972087577"><ele>132.0</ele><time>2026-03-22T09:12:56Z</time></trkpt><trkpt lat="48.44617030908328" lon="-3.968526955676763"><ele>133.66666666666666</ele><time>2026-03-22T09:12:57Z</time></trkpt><trkpt lat="48.446087391553185" lon="-3.968603771614508"><ele>135.33333333333334</ele><time>2026-03-22T09:12:58Z</time></trkpt><trkpt lat="48.44601699387098" lon="-3.9686409043399538"><ele>137.0</ele><time>2026-03-22T09:12:59Z</time></trkpt><trkpt lat="48.44595413953032" lon="-3.968612861092458"><ele>138.66666666666669</ele><time>2026-03-22T09:13:01Z</time></trkpt><trkpt lat="48.44586431729399" lon="-3.9686291505365063"><ele>140.33333333333334</ele><time>2026-03-22T09:13:25Z</time></trkpt><trkpt lat="48.445765857380316" lon="-3.9686766675677085"><ele>142.0</ele><time>2026-03-22T09:13:26Z</time></trkpt><trkpt lat="48.445660570409636" lon="-3.968701756816554"><ele>142.0</ele><time>2026-03-22T09:13:27Z</time></trkpt><trkpt lat="48.44554945319425" lon="-3.968738597546191"><ele>142.0</ele><time>2026-03-22T09:13:28Z</time></trkpt><trkpt lat="48.44542683437239" lon="-3.968775139926282"><ele>142.0</ele><time>2026-03-22T09:13:29Z</time></trkpt><trkpt lat="48.44533261491662" lon="-3.968799730602935"><ele>142.0</ele><time>2026-03-22T09:13:30Z</time></trkpt><trkpt lat="48.44524366984448" lon="-3.968847441050261"><ele>142.0</ele><time>2026-03-22T09:13:31Z</time></trkpt><trkpt lat="48.44514912493501" lon="-3.9688873742028723"><ele>142.16666666666669</ele><time>2026-03-22T09:13:32Z</time></trkpt><trkpt lat="48.445061086779056" lon="-3.9689520921379806"><ele>142.33333333333334</ele><time>2026-03-22T09:13:33Z</time></trkpt><trkpt lat="48.444994589256055" lon="-3.9690243493148176"><ele>142.5</ele><time>2026-03-22T09:13:34Z</time></trkpt><trkpt lat="48.44496379104443" lon="-3.9691742941525208"><ele>142.66666666666666</ele><time>2026-03-22T09:13:36Z</time></trkpt><trkpt lat="48.444948542623266" lon="-3.9692694252630685"><ele>142.83333333333331</ele><time>2026-03-22T09:13:37Z</time></trkpt><trkpt lat="48.44495052474492" lon="-3.9693717450525607"><ele>143.0</ele><time>2026-03-22T09:13:38Z</time></trkpt><trkpt lat="48.444984811513216" lon="-3.9694972054235325"><ele>144.8</ele><time>2026-03-22T09:13:40Z</time></trkpt><trkpt lat="48.44495002751795" lon="-3.9697042071820574"><ele>146.60000000000002</ele><time>2026-03-22T09:13:42Z</time></trkpt><trkpt lat="48.44493806868163" lon="-3.9698375638104686"><ele>148.39999999999998</ele><time>2026-03-22T09:13:43Z</time></trkpt><trkpt lat="48.44491470788355" lon="-3.969930819651059"><ele>150.2</ele><time>2026-03-22T09:13:44Z</time></trkpt><trkpt lat="48.44487951557418" lon="-3.9700319408280094"><ele>152.0</ele><time>2026-03-22T09:13:45Z</time></trkpt><trkpt lat="48.444919611151676" lon="-3.9702085532856417"><ele>153.6</ele><time>2026-03-22T09:13:46.999Z</time></trkpt><trkpt lat="48.444959987528286" lon="-3.9702971220103866"><ele>155.2</ele><time>2026-03-22T09:13:47.999Z</time></trkpt><trkpt lat="48.44498751964721" lon="-3.9703964703525463"><ele>156.8</ele><time>2026-03-22T09:13:48.999Z</time></trkpt><trkpt lat="48.44502276213817" lon="-3.9705227502374556"><ele>158.4</ele><time>2026-03-22T09:13:49.999Z</time></trkpt><trkpt lat="48.445068113123604" lon="-3.9706612538232635"><ele>160.0</ele><time>2026-03-22T09:13:50.999Z</time></trkpt><trkpt lat="48.44510096515365" lon="-3.970825105271019"><ele>160.0</ele><time>2026-03-22T09:13:52.999Z</time></trkpt><trkpt lat="48.445019731563086" lon="-3.970810373358881"><ele>160.0</ele><time>2026-03-22T09:14:02.999Z</time></trkpt><trkpt lat="48.444950137036315" lon="-3.970804701029771"><ele>160.0</ele><time>2026-03-22T09:14:03.999Z</time></trkpt><trkpt lat="48.44488321043851" lon="-3.970808912641029"><ele>160.0</ele><time>2026-03-22T09:14:04.999Z</time></trkpt><trkpt lat="48.44478116121067" lon="-3.970820233676131"><ele>160.0</ele><time>2026-03-22T09:14:06.999Z</time></trkpt><trkpt lat="48.444811358360155" lon="-3.970735675300178"><ele>160.0</ele><time>2026-03-22T09:14:36.999Z</time></trkpt><trkpt lat="48.44491158411269" lon="-3.9708097309076034"><ele>160.0</ele><time>2026-03-22T09:14:38.999Z</time></trkpt><trkpt lat="48.4449953786122" lon="-3.970822415476276"><ele>160.0</ele><time>2026-03-22T09:14:39.999Z</time></trkpt><trkpt lat="48.44506932023274" lon="-3.9708116978863326"><ele>160.0</ele><time>2026-03-22T09:14:40.999Z</time></trkpt><trkpt lat="48.4451123360085" lon="-3.970733216908738"><ele>160.0</ele><time>2026-03-22T09:14:42.999Z</time></trkpt><trkpt lat="48.445064118977605" lon="-3.970551831453203"><ele>160.0</ele><time>2026-03-22T09:14:44.999Z</time></trkpt><trkpt lat="48.445020664773295" lon="-3.97044844104961"><ele>160.0</ele><time>2026-03-22T09:14:45.999Z</time></trkpt><trkpt lat="48.444978168126205" lon="-3.9702864439033663"><ele>160.0</ele><time>2026-03-22T09:14:46.999Z</time></trkpt><trkpt lat="48.44493800234196" lon="-3.9701573253503155"><ele>160.0</ele><time>2026-03-22T09:14:47.999Z</time></trkpt><trkpt lat="48.44490386550971" lon="-3.970040048255822"><ele>160.0</ele><time>2026-03-22T09:14:48.999Z</time></trkpt><trkpt lat="48.44489493633971" lon="-3.969936603174183"><ele>160.0</ele><time>2026-03-22T09:14:49.999Z</time></trkpt><trkpt lat="48.44492542369638" lon="-3.9698358205556468"><ele>160.0</ele><time>2026-03-22T09:14:50.999Z</time></trkpt><trkpt lat="48.44496560024726" lon="-3.9697074921350106"><ele>160.0</ele><time>2026-03-22T09:14:51.999Z</time></trkpt><trkpt lat="48.44497487860801" lon="-3.969589014121711"><ele>158.66666666666669</ele><time>2026-03-22T09:14:52.999Z</time></trkpt><trkpt lat="48.4449803812963" lon="-3.969452086628513"><ele>157.33333333333334</ele><time>2026-03-22T09:14:53.999Z</time></trkpt><trkpt lat="48.44498214603561" lon="-3.9693289170777137"><ele>156.0</ele><time>2026-03-22T09:14:55.999Z</time></trkpt><trkpt lat="48.44496089890978" lon="-3.9691735164675728"><ele>154.66666666666666</ele><time>2026-03-22T09:14:58Z</time></trkpt><trkpt lat="48.44498248314428" lon="-3.9690459437837036"><ele>153.33333333333331</ele><time>2026-03-22T09:14:59Z</time></trkpt><trkpt lat="48.4450308657347" lon="-3.9689759039909758"><ele>152.0</ele><time>2026-03-22T09:15:00Z</time></trkpt><trkpt lat="48.44511418850642" lon="-3.9689164557794747"><ele>150.2</ele><time>2026-03-22T09:15:01Z</time></trkpt><trkpt lat="48.44522179911244" lon="-3.968847079859385"><ele>148.39999999999998</ele><time>2026-03-22T09:15:02Z</time></trkpt><trkpt lat="48.44534182849646" lon="-3.968799935912997"><ele>146.60000000000002</ele><time>2026-03-22T09:15:03Z</time></trkpt><trkpt lat="48.44544375291611" lon="-3.968769449976215"><ele>144.8</ele><time>2026-03-22T09:15:04Z</time></trkpt><trkpt lat="48.44552718478383" lon="-3.968748175445869"><ele>143.0</ele><time>2026-03-22T09:15:05Z</time></trkpt><trkpt lat="48.44560545482558" lon="-3.9687331632373093"><ele>142.8</ele><time>2026-03-22T09:15:06Z</time></trkpt><trkpt lat="48.445700699164455" lon="-3.9686917433381455"><ele>142.60000000000002</ele><time>2026-03-22T09:15:07Z</time></trkpt><trkpt lat="48.4458148307186" lon="-3.9686524332288413"><ele>142.39999999999998</ele><time>2026-03-22T09:15:08Z</time></trkpt><trkpt lat="48.44591050090062" lon="-3.9686348274051158"><ele>142.2</ele><time>2026-03-22T09:15:09Z</time></trkpt><trkpt lat="48.446005656295945" lon="-3.9685963694275643"><ele>142.0</ele><time>2026-03-22T09:15:11Z</time></trkpt><trkpt lat="48.44596111636748" lon="-3.9684779521694273"><ele>142.0</ele><time>2026-03-22T09:15:14Z</time></trkpt><trkpt lat="48.44588406333061" lon="-3.9684080448570143"><ele>142.0</ele><time>2026-03-22T09:17:27Z</time></trkpt><trkpt lat="48.44578152156495" lon="-3.96837311691042"><ele>142.0</ele><time>2026-03-22T09:17:29Z</time></trkpt><trkpt lat="48.445721123738295" lon="-3.968325937867637"><ele>142.0</ele><time>2026-03-22T09:17:30Z</time></trkpt><trkpt lat="48.44566000037176" lon="-3.9682765984735333"><ele>142.0</ele><time>2026-03-22T09:17:31Z</time></trkpt><trkpt lat="48.44555433577324" lon="-3.9682662463176364"><ele>142.0</ele><time>2026-03-22T09:17:33Z</time></trkpt><trkpt lat="48.44554168415714" lon="-3.968378370140032"><ele>142.0</ele><time>2026-03-22T09:17:37Z</time></trkpt><trkpt lat="48.44547205335" lon="-3.96838858308965"><ele>142.0</ele><time>2026-03-22T09:17:42Z</time></trkpt><trkpt lat="48.44541284565549" lon="-3.9683553055586485"><ele>142.0</ele><time>2026-03-22T09:17:50Z</time></trkpt><trkpt lat="48.445340279977" lon="-3.96832649118143"><ele>142.0</ele><time>2026-03-22T09:17:55.999Z</time></trkpt><trkpt lat="48.44527348534608" lon="-3.968298243584982"><ele>142.0</ele><time>2026-03-22T09:17:58.999Z</time></trkpt><trkpt lat="48.44521533723226" lon="-3.9681683683427083"><ele>142.0</ele><time>2026-03-22T09:18:02.999Z</time></trkpt><trkpt lat="48.44515244372751" lon="-3.9680264408599295"><ele>140.66666666666669</ele><time>2026-03-22T09:18:04.999Z</time></trkpt><trkpt lat="48.44509443554503" lon="-3.967979752574679"><ele>139.33333333333334</ele><time>2026-03-22T09:18:07.999Z</time></trkpt><trkpt lat="48.44505446448138" lon="-3.967812237597009"><ele>138.0</ele><time>2026-03-22T09:18:18.999Z</time></trkpt><trkpt lat="48.444962381784634" lon="-3.9677678453208096"><ele>136.66666666666666</ele><time>2026-03-22T09:18:20.999Z</time></trkpt><trkpt lat="48.44493040381526" lon="-3.967670043889766"><ele>135.33333333333331</ele><time>2026-03-22T09:18:24.999Z</time></trkpt><trkpt lat="48.444949384579154" lon="-3.967566378708991"><ele>134.0</ele><time>2026-03-22T09:18:27.999Z</time></trkpt><trkpt lat="48.444884714383804" lon="-3.967552767448358"><ele>132.85714285714286</ele><time>2026-03-22T09:18:30.999Z</time></trkpt><trkpt lat="48.44486225231435" lon="-3.9674506051637266"><ele>131.71428571428572</ele><time>2026-03-22T09:18:34.999Z</time></trkpt><trkpt lat="48.444920862128086" lon="-3.9673539464578824"><ele>130.57142857142856</ele><time>2026-03-22T09:18:49.999Z</time></trkpt><trkpt lat="48.4448991995548" lon="-3.9672641450032913"><ele>129.42857142857144</ele><time>2026-03-22T09:18:55.999Z</time></trkpt><trkpt lat="48.44493041684022" lon="-3.9671690111496845"><ele>128.28571428571428</ele><time>2026-03-22T09:18:58.999Z</time></trkpt><trkpt lat="48.44499070118072" lon="-3.9671121235161615"><ele>127.14285714285714</ele><time>2026-03-22T09:19:03.999Z</time></trkpt><trkpt lat="48.44503836736402" lon="-3.967033994544469"><ele>126.0</ele><time>2026-03-22T09:19:06.999Z</time></trkpt><trkpt lat="48.445089305963165" lon="-3.9669712763855838"><ele>126.0</ele><time>2026-03-22T09:19:08.998Z</time></trkpt><trkpt lat="48.44518373331581" lon="-3.9669041059234016"><ele>126.0</ele><time>2026-03-22T09:19:11Z</time></trkpt><trkpt lat="48.445247148876625" lon="-3.9668038129690655"><ele>126.0</ele><time>2026-03-22T09:19:13Z</time></trkpt><trkpt lat="48.44533231177131" lon="-3.9667346045589844"><ele>126.0</ele><time>2026-03-22T09:19:15Z</time></trkpt><trkpt lat="48.44544787842832" lon="-3.9666313673454634"><ele>126.0</ele><time>2026-03-22T09:19:17Z</time></trkpt><trkpt lat="48.445524251614366" lon="-3.9665697786940957"><ele>124.4</ele><time>2026-03-22T09:19:18Z</time></trkpt><trkpt lat="48.445588951779165" lon="-3.9664790241323455"><ele>122.8</ele><time>2026-03-22T09:19:19Z</time></trkpt><trkpt lat="48.44563555710007" lon="-3.966361564520276"><ele>121.20000000000002</ele><time>2026-03-22T09:19:20Z</time></trkpt><trkpt lat="48.44567133092717" lon="-3.9662633863820296"><ele>119.60000000000001</ele><time>2026-03-22T09:19:21Z</time></trkpt><trkpt lat="48.445643559541764" lon="-3.9661256985217634"><ele>118.0</ele><time>2026-03-22T09:19:24Z</time></trkpt><trkpt lat="48.4455912077283" lon="-3.9659842908589584"><ele>118.60000000000001</ele><time>2026-03-22T09:19:26Z</time></trkpt><trkpt lat="48.44560276777958" lon="-3.9658382760466773"><ele>119.20000000000002</ele><time>2026-03-22T09:19:28Z</time></trkpt><trkpt lat="48.44569036212881" lon="-3.9658011245346296"><ele>119.8</ele><time>2026-03-22T09:19:30Z</time></trkpt><trkpt lat="48.445698155324564" lon="-3.965700178152394"><ele>120.4</ele><time>2026-03-22T09:19:33Z</time></trkpt><trkpt lat="48.445624665547406" lon="-3.9656303324162647"><ele>121.0</ele><time>2026-03-22T09:19:35Z</time></trkpt><trkpt lat="48.4455256749823" lon="-3.9655166026762028"><ele>123.0</ele><time>2026-03-22T09:19:37Z</time></trkpt><trkpt lat="48.44543052595716" lon="-3.9654320537658228"><ele>125.0</ele><time>2026-03-22T09:19:39Z</time></trkpt><trkpt lat="48.44529498563378" lon="-3.9653693328556243"><ele>127.0</ele><time>2026-03-22T09:19:41Z</time></trkpt><trkpt lat="48.44522209315359" lon="-3.965350276968888"><ele>129.0</ele><time>2026-03-22T09:19:42Z</time></trkpt><trkpt lat="48.44513096283253" lon="-3.9653678225489726"><ele>131.0</ele><time>2026-03-22T09:19:44Z</time></trkpt><trkpt lat="48.445043560237636" lon="-3.965273183058836"><ele>131.0</ele><time>2026-03-22T09:19:46Z</time></trkpt><trkpt lat="48.44497316511542" lon="-3.9653080573321233"><ele>131.0</ele><time>2026-03-22T09:19:47Z</time></trkpt><trkpt lat="48.444890014231746" lon="-3.9653406639551956"><ele>131.0</ele><time>2026-03-22T09:19:48Z</time></trkpt><trkpt lat="48.444825052945184" lon="-3.9653493254849943"><ele>131.0</ele><time>2026-03-22T09:19:49Z</time></trkpt><trkpt lat="48.444764336962756" lon="-3.9653186544153076"><ele>131.0</ele><time>2026-03-22T09:19:50Z</time></trkpt><trkpt lat="48.444645743348715" lon="-3.965331813339312"><ele>131.0</ele><time>2026-03-22T09:19:52Z</time></trkpt><trkpt lat="48.44457677946215" lon="-3.965214973509382"><ele>131.16666666666666</ele><time>2026-03-22T09:19:54Z</time></trkpt><trkpt lat="48.44453213482691" lon="-3.9651325278776244"><ele>131.33333333333331</ele><time>2026-03-22T09:19:55Z</time></trkpt><trkpt lat="48.444478731896425" lon="-3.9650579236457477"><ele>131.5</ele><time>2026-03-22T09:19:56Z</time></trkpt><trkpt lat="48.444403994311045" lon="-3.9649682682027945"><ele>131.66666666666666</ele><time>2026-03-22T09:19:57Z</time></trkpt><trkpt lat="48.444337030658694" lon="-3.964889198153845"><ele>131.83333333333334</ele><time>2026-03-22T09:19:58Z</time></trkpt><trkpt lat="48.44422949164081" lon="-3.9648013308424908"><ele>132.0</ele><time>2026-03-22T09:20:00Z</time></trkpt><trkpt lat="48.44415290279866" lon="-3.9647517010724598"><ele>132.16666666666666</ele><time>2026-03-22T09:20:00.999Z</time></trkpt><trkpt lat="48.44407770379011" lon="-3.9646971223991216"><ele>132.33333333333334</ele><time>2026-03-22T09:20:01.999Z</time></trkpt><trkpt lat="48.44400127003292" lon="-3.964633622197346"><ele>132.5</ele><time>2026-03-22T09:20:02.999Z</time></trkpt><trkpt lat="48.44392247135268" lon="-3.9645706915249743"><ele>132.66666666666669</ele><time>2026-03-22T09:20:03.999Z</time></trkpt><trkpt lat="48.4438377477307" lon="-3.9645095818364684"><ele>132.83333333333334</ele><time>2026-03-22T09:20:04.999Z</time></trkpt><trkpt lat="48.44375527826281" lon="-3.9644505152658174"><ele>133.0</ele><time>2026-03-22T09:20:05.999Z</time></trkpt><trkpt lat="48.443690555550795" lon="-3.9643630438162476"><ele>132.8</ele><time>2026-03-22T09:20:06.999Z</time></trkpt><trkpt lat="48.44360490146491" lon="-3.9642671623750387"><ele>132.60000000000002</ele><time>2026-03-22T09:20:07.999Z</time></trkpt><trkpt lat="48.443525327300954" lon="-3.964192070806704"><ele>132.39999999999998</ele><time>2026-03-22T09:20:08.999Z</time></trkpt><trkpt lat="48.44345301252357" lon="-3.9641283607398483"><ele>132.2</ele><time>2026-03-22T09:20:09.999Z</time></trkpt><trkpt lat="48.443375421357054" lon="-3.964084571616784"><ele>132.0</ele><time>2026-03-22T09:20:10.999Z</time></trkpt><trkpt lat="48.443288299201285" lon="-3.9640694899108175"><ele>132.0</ele><time>2026-03-22T09:20:11.999Z</time></trkpt><trkpt lat="48.44321630391851" lon="-3.9640639620114615"><ele>132.0</ele><time>2026-03-22T09:20:12.999Z</time></trkpt><trkpt lat="48.44311459663333" lon="-3.964096638341893"><ele>132.0</ele><time>2026-03-22T09:20:14.999Z</time></trkpt><trkpt lat="48.44308613996847" lon="-3.9642684743968206"><ele>132.0</ele><time>2026-03-22T09:20:16.999Z</time></trkpt><trkpt lat="48.44308698436652" lon="-3.9643677904297734"><ele>132.0</ele><time>2026-03-22T09:20:17.999Z</time></trkpt><trkpt lat="48.44299341297643" lon="-3.9644580102523874"><ele>132.4</ele><time>2026-03-22T09:20:19.999Z</time></trkpt><trkpt lat="48.442874675007054" lon="-3.964501090811007"><ele>132.79999999999998</ele><time>2026-03-22T09:20:20.999Z</time></trkpt><trkpt lat="48.44275886231454" lon="-3.9645551560253014"><ele>133.2</ele><time>2026-03-22T09:20:21.999Z</time></trkpt><trkpt lat="48.44266669368659" lon="-3.9645739230743193"><ele>133.6</ele><time>2026-03-22T09:20:22.999Z</time></trkpt><trkpt lat="48.442578871242105" lon="-3.9645420928451767"><ele>134.0</ele><time>2026-03-22T09:20:23.999Z</time></trkpt><trkpt lat="48.44247061175783" lon="-3.964500877001972"><ele>134.0</ele><time>2026-03-22T09:20:24.999Z</time></trkpt><trkpt lat="48.44239028344403" lon="-3.964483760067123"><ele>134.0</ele><time>2026-03-22T09:20:25.999Z</time></trkpt><trkpt lat="48.44232656425832" lon="-3.9645527496647457"><ele>134.0</ele><time>2026-03-22T09:20:27.999Z</time></trkpt><trkpt lat="48.44234249092878" lon="-3.9647570471541767"><ele>134.0</ele><time>2026-03-22T09:20:29.999Z</time></trkpt><trkpt lat="48.44235271388381" lon="-3.9649306393501513"><ele>134.0</ele><time>2026-03-22T09:20:30.999Z</time></trkpt><trkpt lat="48.4423667089498" lon="-3.9651439289168664"><ele>136.0</ele><time>2026-03-22T09:20:31.999Z</time></trkpt><trkpt lat="48.442367424201265" lon="-3.9653816646020617"><ele>138.0</ele><time>2026-03-22T09:20:32.999Z</time></trkpt><trkpt lat="48.442369641592705" lon="-3.9655951019715023"><ele>140.0</ele><time>2026-03-22T09:20:33.999Z</time></trkpt><trkpt lat="48.44236871535947" lon="-3.965824240283707"><ele>141.0</ele><time>2026-03-22T09:20:34.999Z</time></trkpt><trkpt lat="48.442376638970394" lon="-3.965972367876173"><ele>142.0</ele><time>2026-03-22T09:20:35.999Z</time></trkpt><trkpt lat="48.44237155782126" lon="-3.9660979443620414"><ele>143.0</ele><time>2026-03-22T09:20:36.999Z</time></trkpt><trkpt lat="48.44236906877093" lon="-3.966261952099492"><ele>144.0</ele><time>2026-03-22T09:20:37.999Z</time></trkpt><trkpt lat="48.44235354833586" lon="-3.966438608806992"><ele>145.0</ele><time>2026-03-22T09:20:38.999Z</time></trkpt><trkpt lat="48.44232552366201" lon="-3.966612509074651"><ele>146.75</ele><time>2026-03-22T09:20:39.999Z</time></trkpt><trkpt lat="48.44228514241184" lon="-3.966773031429878"><ele>148.5</ele><time>2026-03-22T09:20:40.999Z</time></trkpt><trkpt lat="48.442234466753334" lon="-3.9669192916920526"><ele>150.25</ele><time>2026-03-22T09:20:41.999Z</time></trkpt><trkpt lat="48.44218402183123" lon="-3.967096657752819"><ele>152.0</ele><time>2026-03-22T09:20:42.999Z</time></trkpt><trkpt lat="48.44214393233354" lon="-3.9672708385248314"><ele>152.5</ele><time>2026-03-22T09:20:43.999Z</time></trkpt><trkpt lat="48.44212087070924" lon="-3.967392180795775"><ele>153.0</ele><time>2026-03-22T09:20:44.999Z</time></trkpt><trkpt lat="48.44206219867683" lon="-3.967339998958104"><ele>153.5</ele><time>2026-03-22T09:20:48.999Z</time></trkpt><trkpt lat="48.44200851209676" lon="-3.9672764378113046"><ele>154.0</ele><time>2026-03-22T09:21:32Z</time></trkpt><trkpt lat="48.441950182060125" lon="-3.967238983455601"><ele>154.5</ele><time>2026-03-22T09:21:33Z</time></trkpt><trkpt lat="48.44186769536243" lon="-3.967178131679496"><ele>155.0</ele><time>2026-03-22T09:21:34Z</time></trkpt><trkpt lat="48.44177863451843" lon="-3.967099333703497"><ele>155.0</ele><time>2026-03-22T09:21:35Z</time></trkpt><trkpt lat="48.44164672559675" lon="-3.96702179304116"><ele>155.0</ele><time>2026-03-22T09:21:36Z</time></trkpt><trkpt lat="48.44152107950614" lon="-3.9669068353585564"><ele>155.0</ele><time>2026-03-22T09:21:37Z</time></trkpt><trkpt lat="48.44138138290873" lon="-3.9667879182376913"><ele>155.0</ele><time>2026-03-22T09:21:38Z</time></trkpt><trkpt lat="48.441233597916984" lon="-3.966693624329351"><ele>152.0</ele><time>2026-03-22T09:21:39Z</time></trkpt><trkpt lat="48.44108678295624" lon="-3.966660149611522"><ele>149.0</ele><time>2026-03-22T09:21:40Z</time></trkpt><trkpt lat="48.44093068328708" lon="-3.966666317994049"><ele>146.0</ele><time>2026-03-22T09:21:41Z</time></trkpt><trkpt lat="48.44075072474945" lon="-3.9666759966283918"><ele>146.0</ele><time>2026-03-22T09:21:42Z</time></trkpt><trkpt lat="48.440573118139845" lon="-3.9666796154870068"><ele>146.0</ele><time>2026-03-22T09:21:43Z</time></trkpt><trkpt lat="48.440418595420276" lon="-3.96665650249956"><ele>146.0</ele><time>2026-03-22T09:21:44Z</time></trkpt><trkpt lat="48.44028675343598" lon="-3.966554744222399"><ele>147.33333333333331</ele><time>2026-03-22T09:21:45Z</time></trkpt><trkpt lat="48.44016639893327" lon="-3.9664037756817936"><ele>148.66666666666666</ele><time>2026-03-22T09:21:46Z</time></trkpt><trkpt lat="48.440038702682514" lon="-3.9662346305942067"><ele>150.0</ele><time>2026-03-22T09:21:47Z</time></trkpt><trkpt lat="48.439928766504224" lon="-3.966070154809653"><ele>150.0</ele><time>2026-03-22T09:21:48Z</time></trkpt><trkpt lat="48.43980737685759" lon="-3.9658999945831046"><ele>150.0</ele><time>2026-03-22T09:21:49Z</time></trkpt><trkpt lat="48.439683897376625" lon="-3.965741285888422"><ele>150.0</ele><time>2026-03-22T09:21:50Z</time></trkpt><trkpt lat="48.439561314582015" lon="-3.9655772017848117"><ele>150.66666666666666</ele><time>2026-03-22T09:21:51Z</time></trkpt><trkpt lat="48.4394340298574" lon="-3.9654005234617045"><ele>151.33333333333331</ele><time>2026-03-22T09:21:52Z</time></trkpt><trkpt lat="48.439305727298176" lon="-3.965222146805368"><ele>152.0</ele><time>2026-03-22T09:21:53Z</time></trkpt><trkpt lat="48.43919115217896" lon="-3.9650366672246893"><ele>149.75</ele><time>2026-03-22T09:21:54Z</time></trkpt><trkpt lat="48.4390684519986" lon="-3.964903431431125"><ele>147.5</ele><time>2026-03-22T09:21:55Z</time></trkpt><trkpt lat="48.43897484245088" lon="-3.964743750952934"><ele>145.25</ele><time>2026-03-22T09:21:56Z</time></trkpt><trkpt lat="48.438933156047824" lon="-3.9645559890857007"><ele>143.0</ele><time>2026-03-22T09:21:57Z</time></trkpt><trkpt lat="48.438891393761985" lon="-3.9643783666050982"><ele>142.25</ele><time>2026-03-22T09:21:58Z</time></trkpt><trkpt lat="48.43892350291611" lon="-3.964188874677375"><ele>141.5</ele><time>2026-03-22T09:21:59Z</time></trkpt><trkpt lat="48.43897677082262" lon="-3.9639905469185335"><ele>140.75</ele><time>2026-03-22T09:22:00Z</time></trkpt><trkpt lat="48.43906515833902" lon="-3.9637957331529363"><ele>140.0</ele><time>2026-03-22T09:22:01Z</time></trkpt><trkpt lat="48.439146890558895" lon="-3.9635734181665976"><ele>140.0</ele><time>2026-03-22T09:22:02Z</time></trkpt><trkpt lat="48.439236519678104" lon="-3.9633653845992622"><ele>140.0</ele><time>2026-03-22T09:22:03Z</time></trkpt><trkpt lat="48.439349269346835" lon="-3.963148595556382"><ele>140.0</ele><time>2026-03-22T09:22:04Z</time></trkpt><trkpt lat="48.43944656821739" lon="-3.9629104182148347"><ele>139.66666666666666</ele><time>2026-03-22T09:22:05Z</time></trkpt><trkpt lat="48.4395390675535" lon="-3.9626617862038893"><ele>139.33333333333334</ele><time>2026-03-22T09:22:06Z</time></trkpt><trkpt lat="48.43962928115656" lon="-3.9623845497135086"><ele>139.0</ele><time>2026-03-22T09:22:07Z</time></trkpt><trkpt lat="48.439655984642556" lon="-3.962088046022579"><ele>138.66666666666669</ele><time>2026-03-22T09:22:08Z</time></trkpt><trkpt lat="48.43966194771631" lon="-3.961834152771442"><ele>138.33333333333334</ele><time>2026-03-22T09:22:09Z</time></trkpt><trkpt lat="48.439660928695325" lon="-3.961654768688974"><ele>138.0</ele><time>2026-03-22T09:22:09.999Z</time></trkpt><trkpt lat="48.43965513628921" lon="-3.9613782798399106"><ele>138.0</ele><time>2026-03-22T09:22:10.999Z</time></trkpt><trkpt lat="48.43965092510999" lon="-3.961125520810006"><ele>138.0</ele><time>2026-03-22T09:22:11.999Z</time></trkpt><trkpt lat="48.439673282829034" lon="-3.960890495752648"><ele>138.0</ele><time>2026-03-22T09:22:12.999Z</time></trkpt><trkpt lat="48.43968202797973" lon="-3.9606884317469775"><ele>137.25</ele><time>2026-03-22T09:22:13.999Z</time></trkpt><trkpt lat="48.439723513938084" lon="-3.960510582371116"><ele>136.5</ele><time>2026-03-22T09:22:14.999Z</time></trkpt><trkpt lat="48.43982556488022" lon="-3.9603664530296796"><ele>135.75</ele><time>2026-03-22T09:22:15.999Z</time></trkpt><trkpt lat="48.43993181961216" lon="-3.960189778633189"><ele>135.0</ele><time>2026-03-22T09:22:16.999Z</time></trkpt><trkpt lat="48.44006542034509" lon="-3.960028487448453"><ele>131.66666666666666</ele><time>2026-03-22T09:22:17.999Z</time></trkpt><trkpt lat="48.440196453929225" lon="-3.959850898855249"><ele>128.33333333333331</ele><time>2026-03-22T09:22:18.999Z</time></trkpt><trkpt lat="48.44032890693854" lon="-3.9596674417987634"><ele>125.0</ele><time>2026-03-22T09:22:19.999Z</time></trkpt><trkpt lat="48.44045452426223" lon="-3.9594898554864235"><ele>123.66666666666666</ele><time>2026-03-22T09:22:20.999Z</time></trkpt><trkpt lat="48.440583810051066" lon="-3.9593083769768045"><ele>122.33333333333334</ele><time>2026-03-22T09:22:21.999Z</time></trkpt><trkpt lat="48.4407108550564" lon="-3.959127066667022"><ele>121.0</ele><time>2026-03-22T09:22:22.999Z</time></trkpt><trkpt lat="48.4408351993327" lon="-3.9589475186225385"><ele>121.0</ele><time>2026-03-22T09:22:23.999Z</time></trkpt><trkpt lat="48.44095265349466" lon="-3.958765410772062"><ele>121.0</ele><time>2026-03-22T09:22:24.999Z</time></trkpt><trkpt lat="48.441069300907685" lon="-3.958591944273952"><ele>121.0</ele><time>2026-03-22T09:22:25.999Z</time></trkpt><trkpt lat="48.44118370672042" lon="-3.9584217097973355"><ele>121.75</ele><time>2026-03-22T09:22:26.999Z</time></trkpt><trkpt lat="48.44128217149975" lon="-3.9582673309155907"><ele>122.5</ele><time>2026-03-22T09:22:27.999Z</time></trkpt><trkpt lat="48.44134646749241" lon="-3.958105014901407"><ele>123.25</ele><time>2026-03-22T09:22:28.999Z</time></trkpt><trkpt lat="48.441393134453605" lon="-3.957948608772825"><ele>124.0</ele><time>2026-03-22T09:22:29.999Z</time></trkpt><trkpt lat="48.441412625716" lon="-3.957797901946656"><ele>124.2</ele><time>2026-03-22T09:22:30.999Z</time></trkpt><trkpt lat="48.44140340209713" lon="-3.9576512318852055"><ele>124.4</ele><time>2026-03-22T09:22:31.999Z</time></trkpt><trkpt lat="48.441398975011616" lon="-3.957494384650523"><ele>124.6</ele><time>2026-03-22T09:22:32.999Z</time></trkpt><trkpt lat="48.44131812785615" lon="-3.9573876158213293"><ele>124.8</ele><time>2026-03-22T09:22:33.999Z</time></trkpt><trkpt lat="48.44125018958613" lon="-3.9572503798339387"><ele>125.0</ele><time>2026-03-22T09:22:34.999Z</time></trkpt><trkpt lat="48.44116536204886" lon="-3.957105319171667"><ele>125.75</ele><time>2026-03-22T09:22:35.999Z</time></trkpt><trkpt lat="48.44106918048396" lon="-3.9569580678185376"><ele>126.5</ele><time>2026-03-22T09:22:36.999Z</time></trkpt><trkpt lat="48.440969401163656" lon="-3.9568103015662808"><ele>127.25</ele><time>2026-03-22T09:22:37.999Z</time></trkpt><trkpt lat="48.44086971245261" lon="-3.9566564215021045"><ele>128.0</ele><time>2026-03-22T09:22:38.999Z</time></trkpt><trkpt lat="48.44076909461992" lon="-3.9564930702178853"><ele>129.5</ele><time>2026-03-22T09:22:39.999Z</time></trkpt><trkpt lat="48.44067685394062" lon="-3.956284717392106"><ele>131.0</ele><time>2026-03-22T09:22:40.999Z</time></trkpt><trkpt lat="48.440601845471754" lon="-3.9561088204153814"><ele>132.5</ele><time>2026-03-22T09:22:41.999Z</time></trkpt><trkpt lat="48.44054036807708" lon="-3.9559580809482755"><ele>134.0</ele><time>2026-03-22T09:22:42.999Z</time></trkpt><trkpt lat="48.44049885592752" lon="-3.9558258992516304"><ele>135.0</ele><time>2026-03-22T09:22:43.999Z</time></trkpt><trkpt lat="48.44045107854719" lon="-3.955736585014963"><ele>136.0</ele><time>2026-03-22T09:22:44.999Z</time></trkpt><trkpt lat="48.440389373693115" lon="-3.9555705258730622"><ele>137.0</ele><time>2026-03-22T09:22:46.999Z</time></trkpt><trkpt lat="48.440616520929545" lon="-3.9551979036182203"><ele>139.33333333333331</ele><time>2026-03-22T09:22:47.999Z</time></trkpt><trkpt lat="48.44065426016735" lon="-3.9549654726091585"><ele>141.66666666666666</ele><time>2026-03-22T09:22:48.999Z</time></trkpt><trkpt lat="48.44069003279146" lon="-3.954687493202831"><ele>144.0</ele><time>2026-03-22T09:22:49.999Z</time></trkpt><trkpt lat="48.44070674617636" lon="-3.9543821415742624"><ele>144.5</ele><time>2026-03-22T09:22:50.999Z</time></trkpt><trkpt lat="48.44072943199805" lon="-3.954111127688455"><ele>145.0</ele><time>2026-03-22T09:22:51.999Z</time></trkpt><trkpt lat="48.440749204863174" lon="-3.9539066150464355"><ele>145.5</ele><time>2026-03-22T09:22:52.999Z</time></trkpt><trkpt lat="48.44076793816216" lon="-3.9537367913843697"><ele>146.0</ele><time>2026-03-22T09:22:53.999Z</time></trkpt><trkpt lat="48.440788909077035" lon="-3.953533256724738"><ele>146.33333333333331</ele><time>2026-03-22T09:22:54.999Z</time></trkpt><trkpt lat="48.44083503642101" lon="-3.9533153820338622"><ele>146.66666666666666</ele><time>2026-03-22T09:22:55.999Z</time></trkpt><trkpt lat="48.44087473978646" lon="-3.9530969260286044"><ele>147.0</ele><time>2026-03-22T09:22:56.999Z</time></trkpt><trkpt lat="48.44089800535521" lon="-3.9528402381380534"><ele>147.0</ele><time>2026-03-22T09:22:57.999Z</time></trkpt><trkpt lat="48.440904133896694" lon="-3.9525946498281983"><ele>147.0</ele><time>2026-03-22T09:22:58.999Z</time></trkpt><trkpt lat="48.440912404860846" lon="-3.9523782249314108"><ele>147.0</ele><time>2026-03-22T09:22:59.999Z</time></trkpt><trkpt lat="48.44092854359204" lon="-3.9521786941636328"><ele>147.0</ele><time>2026-03-22T09:23:00.999Z</time></trkpt><trkpt lat="48.44092379494033" lon="-3.9519899371571476"><ele>146.75</ele><time>2026-03-22T09:23:01.999Z</time></trkpt><trkpt lat="48.440929429538826" lon="-3.9517935078395405"><ele>146.5</ele><time>2026-03-22T09:23:02.999Z</time></trkpt><trkpt lat="48.44095656161238" lon="-3.951583816792424"><ele>146.25</ele><time>2026-03-22T09:23:03.999Z</time></trkpt><trkpt lat="48.44098067334041" lon="-3.951421213459558"><ele>146.0</ele><time>2026-03-22T09:23:04.999Z</time></trkpt><trkpt lat="48.44100641898833" lon="-3.9512623668218136"><ele>146.0</ele><time>2026-03-22T09:23:05.999Z</time></trkpt><trkpt lat="48.44101629020668" lon="-3.9510540931070386"><ele>146.0</ele><time>2026-03-22T09:23:06.999Z</time></trkpt><trkpt lat="48.4410333957836" lon="-3.950868466376094"><ele>146.0</ele><time>2026-03-22T09:23:07.999Z</time></trkpt><trkpt lat="48.44106885504343" lon="-3.9506795524317013"><ele>146.0</ele><time>2026-03-22T09:23:08.999Z</time></trkpt><trkpt lat="48.441099132226626" lon="-3.950522104365094"><ele>145.5</ele><time>2026-03-22T09:23:09.999Z</time></trkpt><trkpt lat="48.44113458444965" lon="-3.9503668212676497"><ele>145.0</ele><time>2026-03-22T09:23:10.999Z</time></trkpt><trkpt lat="48.441202160302545" lon="-3.950175664653503"><ele>144.5</ele><time>2026-03-22T09:23:11.999Z</time></trkpt><trkpt lat="48.441235005597086" lon="-3.950013884726965"><ele>144.0</ele><time>2026-03-22T09:23:12.999Z</time></trkpt><trkpt lat="48.44125283794122" lon="-3.9498890048914346"><ele>142.5</ele><time>2026-03-22T09:23:13.999Z</time></trkpt><trkpt lat="48.44126129714659" lon="-3.9497919394218837"><ele>141.0</ele><time>2026-03-22T09:23:14.999Z</time></trkpt><trkpt lat="48.4411778284624" lon="-3.9496679862011397"><ele>139.5</ele><time>2026-03-22T09:23:16.999Z</time></trkpt><trkpt lat="48.44109927642856" lon="-3.949636952195058"><ele>138.0</ele><time>2026-03-22T09:23:17.999Z</time></trkpt><trkpt lat="48.44103815872136" lon="-3.9495500441608993"><ele>136.5</ele><time>2026-03-22T09:23:19.999Z</time></trkpt><trkpt lat="48.44110930809568" lon="-3.9494756872145365"><ele>135.0</ele><time>2026-03-22T09:23:22Z</time></trkpt><trkpt lat="48.44118458294113" lon="-3.94946998314531"><ele>135.0</ele><time>2026-03-22T09:23:23Z</time></trkpt><trkpt lat="48.44127298660257" lon="-3.9494533371205547"><ele>135.0</ele><time>2026-03-22T09:23:24Z</time></trkpt><trkpt lat="48.44136740391759" lon="-3.9493954898710544"><ele>135.0</ele><time>2026-03-22T09:23:25Z</time></trkpt><trkpt lat="48.44144354373654" lon="-3.949269798569925"><ele>135.0</ele><time>2026-03-22T09:23:26Z</time></trkpt><trkpt lat="48.44149398974426" lon="-3.949086778650002"><ele>135.0</ele><time>2026-03-22T09:23:27Z</time></trkpt><trkpt lat="48.44150248702735" lon="-3.948875915981387"><ele>134.75</ele><time>2026-03-22T09:23:28Z</time></trkpt><trkpt lat="48.441448069794546" lon="-3.948666643421307"><ele>134.5</ele><time>2026-03-22T09:23:29Z</time></trkpt><trkpt lat="48.44141886970553" lon="-3.94844990142282"><ele>134.25</ele><time>2026-03-22T09:23:30Z</time></trkpt><trkpt lat="48.44139147325878" lon="-3.948225793015915"><ele>134.0</ele><time>2026-03-22T09:23:31Z</time></trkpt><trkpt lat="48.44134232607271" lon="-3.948015821658523"><ele>135.66666666666666</ele><time>2026-03-22T09:23:32Z</time></trkpt><trkpt lat="48.4413138004905" lon="-3.947770785417969"><ele>137.33333333333334</ele><time>2026-03-22T09:23:33Z</time></trkpt><trkpt lat="48.44131398154831" lon="-3.9475209748304314"><ele>139.0</ele><time>2026-03-22T09:23:34Z</time></trkpt><trkpt lat="48.44131650573475" lon="-3.947282729698536"><ele>141.0</ele><time>2026-03-22T09:23:35Z</time></trkpt><trkpt lat="48.44131960745595" lon="-3.947065632652703"><ele>143.0</ele><time>2026-03-22T09:23:36Z</time></trkpt><trkpt lat="48.44132679976045" lon="-3.9468283648526254"><ele>145.0</ele><time>2026-03-22T09:23:37Z</time></trkpt><trkpt lat="48.44135164985997" lon="-3.9466042094549656"><ele>146.0</ele><time>2026-03-22T09:23:38Z</time></trkpt><trkpt lat="48.44135375849905" lon="-3.9463962572079425"><ele>147.0</ele><time>2026-03-22T09:23:39Z</time></trkpt><trkpt lat="48.441387069099264" lon="-3.9462216967053063"><ele>148.0</ele><time>2026-03-22T09:23:40Z</time></trkpt><trkpt lat="48.441407239852545" lon="-3.946072823822414"><ele>149.0</ele><time>2026-03-22T09:23:41Z</time></trkpt><trkpt lat="48.44140886353938" lon="-3.9459458851532214"><ele>150.0</ele><time>2026-03-22T09:23:42Z</time></trkpt><trkpt lat="48.44142758008292" lon="-3.945800790630382"><ele>150.5</ele><time>2026-03-22T09:23:44Z</time></trkpt><trkpt lat="48.44143648214211" lon="-3.945625849614364"><ele>151.0</ele><time>2026-03-22T09:23:47Z</time></trkpt><trkpt lat="48.44146617467041" lon="-3.9454710774038566"><ele>151.5</ele><time>2026-03-22T09:23:48Z</time></trkpt><trkpt lat="48.44151459947815" lon="-3.945253245347503"><ele>152.0</ele><time>2026-03-22T09:23:49Z</time></trkpt><trkpt lat="48.44154350320308" lon="-3.9450288207553204"><ele>152.5</ele><time>2026-03-22T09:23:50Z</time></trkpt><trkpt lat="48.441560602044646" lon="-3.944855916534447"><ele>153.0</ele><time>2026-03-22T09:23:51Z</time></trkpt><trkpt lat="48.44113687152737" lon="-3.9445506234290835"><ele>153.0</ele><time>2026-03-22T09:23:52Z</time></trkpt><trkpt lat="48.441078518005675" lon="-3.944371288256429"><ele>153.0</ele><time>2026-03-22T09:23:53Z</time></trkpt><trkpt lat="48.44100576406864" lon="-3.944218843291186"><ele>153.0</ele><time>2026-03-22T09:23:54Z</time></trkpt><trkpt lat="48.44094455381279" lon="-3.9440731628759402"><ele>153.0</ele><time>2026-03-22T09:23:55Z</time></trkpt><trkpt lat="48.44088690373672" lon="-3.9439391770234535"><ele>153.0</ele><time>2026-03-22T09:23:56Z</time></trkpt><trkpt lat="48.440819844896126" lon="-3.9437897745781445"><ele>153.0</ele><time>2026-03-22T09:23:57Z</time></trkpt><trkpt lat="48.44074755961888" lon="-3.94359873920975"><ele>153.0</ele><time>2026-03-22T09:23:58Z</time></trkpt><trkpt lat="48.44066438369701" lon="-3.943412304111271"><ele>153.0</ele><time>2026-03-22T09:23:59Z</time></trkpt><trkpt lat="48.44059352822099" lon="-3.9432074005513997"><ele>153.0</ele><time>2026-03-22T09:24:00Z</time></trkpt><trkpt lat="48.440542278404884" lon="-3.9429942608470707"><ele>153.0</ele><time>2026-03-22T09:24:01Z</time></trkpt><trkpt lat="48.44049990590296" lon="-3.942764849152714"><ele>153.0</ele><time>2026-03-22T09:24:02Z</time></trkpt><trkpt lat="48.440449645591556" lon="-3.9425175572158886"><ele>153.0</ele><time>2026-03-22T09:24:03Z</time></trkpt><trkpt lat="48.44039659306891" lon="-3.9422869016052053"><ele>153.0</ele><time>2026-03-22T09:24:04Z</time></trkpt><trkpt lat="48.440378539488" lon="-3.942121737891602"><ele>153.0</ele><time>2026-03-22T09:24:05Z</time></trkpt><trkpt lat="48.44037020763992" lon="-3.9419933572901398"><ele>153.0</ele><time>2026-03-22T09:24:06Z</time></trkpt><trkpt lat="48.44034811541886" lon="-3.9418795153456214"><ele>153.0</ele><time>2026-03-22T09:24:07Z</time></trkpt><trkpt lat="48.440343872422766" lon="-3.941783684152702"><ele>153.25</ele><time>2026-03-22T09:24:08Z</time></trkpt><trkpt lat="48.44033608820424" lon="-3.9416244863880077"><ele>153.5</ele><time>2026-03-22T09:24:09Z</time></trkpt><trkpt lat="48.440336457344955" lon="-3.94141105761098"><ele>153.75</ele><time>2026-03-22T09:24:10Z</time></trkpt><trkpt lat="48.44033923653187" lon="-3.941195649088126"><ele>154.0</ele><time>2026-03-22T09:24:10.999Z</time></trkpt><trkpt lat="48.440330590277384" lon="-3.940975144905109"><ele>154.0</ele><time>2026-03-22T09:24:11.999Z</time></trkpt><trkpt lat="48.44031791556708" lon="-3.940777288235586"><ele>154.0</ele><time>2026-03-22T09:24:12.999Z</time></trkpt><trkpt lat="48.44029200083231" lon="-3.9405745362420888"><ele>154.0</ele><time>2026-03-22T09:24:13.999Z</time></trkpt><trkpt lat="48.440259857450094" lon="-3.940397887981252"><ele>154.0</ele><time>2026-03-22T09:24:14.999Z</time></trkpt><trkpt lat="48.440238008012244" lon="-3.9402299135360535"><ele>154.0</ele><time>2026-03-22T09:24:15.999Z</time></trkpt><trkpt lat="48.4402389922249" lon="-3.940066683909794"><ele>154.0</ele><time>2026-03-22T09:24:16.999Z</time></trkpt><trkpt lat="48.44027367855438" lon="-3.9398649706393396"><ele>154.0</ele><time>2026-03-22T09:24:17.999Z</time></trkpt><trkpt lat="48.44030485045189" lon="-3.9396527530823073"><ele>154.0</ele><time>2026-03-22T09:24:18.999Z</time></trkpt><trkpt lat="48.44031855208987" lon="-3.9394583698103554"><ele>154.0</ele><time>2026-03-22T09:24:19.999Z</time></trkpt><trkpt lat="48.44032052701853" lon="-3.9393255090752324"><ele>154.0</ele><time>2026-03-22T09:24:20.999Z</time></trkpt><trkpt lat="48.440323342064495" lon="-3.939181868990821"><ele>154.0</ele><time>2026-03-22T09:24:21.999Z</time></trkpt><trkpt lat="48.440351597444085" lon="-3.938976405575192"><ele>154.0</ele><time>2026-03-22T09:24:22.999Z</time></trkpt><trkpt lat="48.440363310161494" lon="-3.9387406478833795"><ele>154.25</ele><time>2026-03-22T09:24:23.999Z</time></trkpt><trkpt lat="48.440381202781765" lon="-3.938519221655805"><ele>154.5</ele><time>2026-03-22T09:24:24.999Z</time></trkpt><trkpt lat="48.44039755650564" lon="-3.938320887149836"><ele>154.75</ele><time>2026-03-22T09:24:25.999Z</time></trkpt><trkpt lat="48.44040783847124" lon="-3.9381586106780926"><ele>155.0</ele><time>2026-03-22T09:24:26.999Z</time></trkpt><trkpt lat="48.44041641434082" lon="-3.9379996797418113"><ele>155.0</ele><time>2026-03-22T09:24:27.999Z</time></trkpt><trkpt lat="48.440416340966316" lon="-3.937837762760378"><ele>155.0</ele><time>2026-03-22T09:24:28.999Z</time></trkpt><trkpt lat="48.440445681830276" lon="-3.937683461030196"><ele>155.0</ele><time>2026-03-22T09:24:29.999Z</time></trkpt><trkpt lat="48.440481609320145" lon="-3.937506780509942"><ele>155.0</ele><time>2026-03-22T09:24:30.999Z</time></trkpt><trkpt lat="48.44050644631207" lon="-3.93730810093633"><ele>155.16666666666666</ele><time>2026-03-22T09:24:31.999Z</time></trkpt><trkpt lat="48.440508273507746" lon="-3.9371174831949296"><ele>155.33333333333331</ele><time>2026-03-22T09:24:32.999Z</time></trkpt><trkpt lat="48.440506597274165" lon="-3.936971068374796"><ele>155.5</ele><time>2026-03-22T09:24:33.999Z</time></trkpt><trkpt lat="48.44049698744696" lon="-3.9368462232246157"><ele>155.66666666666666</ele><time>2026-03-22T09:24:34.999Z</time></trkpt><trkpt lat="48.44046580564265" lon="-3.936758951529472"><ele>155.83333333333334</ele><time>2026-03-22T09:24:35.999Z</time></trkpt><trkpt lat="48.440432387394374" lon="-3.9366688875177402"><ele>156.0</ele><time>2026-03-22T09:24:36.999Z</time></trkpt><trkpt lat="48.44038344591592" lon="-3.936507892159007"><ele>156.0</ele><time>2026-03-22T09:24:38.999Z</time></trkpt><trkpt lat="48.44035221656429" lon="-3.9364032338508186"><ele>156.0</ele><time>2026-03-22T09:24:39.999Z</time></trkpt><trkpt lat="48.44029939028476" lon="-3.936276076798517"><ele>156.0</ele><time>2026-03-22T09:24:40.999Z</time></trkpt><trkpt lat="48.44026594934575" lon="-3.9361401504969553"><ele>156.0</ele><time>2026-03-22T09:24:41.999Z</time></trkpt><trkpt lat="48.44023363302439" lon="-3.936045806686097"><ele>156.0</ele><time>2026-03-22T09:24:42.999Z</time></trkpt><trkpt lat="48.44018524800765" lon="-3.9359585607982845"><ele>156.0</ele><time>2026-03-22T09:24:43.999Z</time></trkpt><trkpt lat="48.4401421503922" lon="-3.9358683867891653"><ele>155.83333333333334</ele><time>2026-03-22T09:24:44.999Z</time></trkpt><trkpt lat="48.44005579119076" lon="-3.9357511054419154"><ele>155.66666666666666</ele><time>2026-03-22T09:24:46.999Z</time></trkpt><trkpt lat="48.44000944466333" lon="-3.9356564431804024"><ele>155.5</ele><time>2026-03-22T09:24:47.999Z</time></trkpt><trkpt lat="48.43996787609907" lon="-3.9355659246494414"><ele>155.33333333333331</ele><time>2026-03-22T09:24:48.999Z</time></trkpt><trkpt lat="48.43994576423715" lon="-3.935445846166996"><ele>155.16666666666666</ele><time>2026-03-22T09:24:50.999Z</time></trkpt><trkpt lat="48.439937327019074" lon="-3.9353089868593316"><ele>155.0</ele><time>2026-03-22T09:24:52.999Z</time></trkpt><trkpt lat="48.43991474514008" lon="-3.935202623052066"><ele>155.0</ele><time>2026-03-22T09:24:53.999Z</time></trkpt><trkpt lat="48.439891014256396" lon="-3.9350632288822585"><ele>155.0</ele><time>2026-03-22T09:24:54.999Z</time></trkpt><trkpt lat="48.43986872372696" lon="-3.9349018206876245"><ele>155.0</ele><time>2026-03-22T09:24:55.999Z</time></trkpt><trkpt lat="48.43985027948544" lon="-3.9347593905942575"><ele>155.0</ele><time>2026-03-22T09:24:56.999Z</time></trkpt><trkpt lat="48.43981862089207" lon="-3.9346226321075726"><ele>155.0</ele><time>2026-03-22T09:24:57.999Z</time></trkpt><trkpt lat="48.43977812575855" lon="-3.934545806525843"><ele>155.16666666666666</ele><time>2026-03-22T09:24:58.999Z</time></trkpt><trkpt lat="48.43973260857819" lon="-3.934471916896015"><ele>155.33333333333331</ele><time>2026-03-22T09:24:59.999Z</time></trkpt><trkpt lat="48.43965638663217" lon="-3.9343076935068964"><ele>155.5</ele><time>2026-03-22T09:25:01.999Z</time></trkpt><trkpt lat="48.43958708744526" lon="-3.934233440291093"><ele>155.66666666666666</ele><time>2026-03-22T09:25:02.999Z</time></trkpt><trkpt lat="48.439537819762656" lon="-3.934173346326046"><ele>155.83333333333334</ele><time>2026-03-22T09:25:03.999Z</time></trkpt><trkpt lat="48.4394894931174" lon="-3.934092488794958"><ele>156.0</ele><time>2026-03-22T09:25:04.999Z</time></trkpt><trkpt lat="48.439444707910404" lon="-3.934022806697125"><ele>156.57142857142858</ele><time>2026-03-22T09:25:05.999Z</time></trkpt><trkpt lat="48.43940799779301" lon="-3.933930182959938"><ele>157.14285714285714</ele><time>2026-03-22T09:25:06.999Z</time></trkpt><trkpt lat="48.439367397893086" lon="-3.9338429274029614"><ele>157.71428571428572</ele><time>2026-03-22T09:25:07.999Z</time></trkpt><trkpt lat="48.43935544089384" lon="-3.933744012586796"><ele>158.28571428571428</ele><time>2026-03-22T09:25:08.999Z</time></trkpt><trkpt lat="48.43933621541326" lon="-3.9336188901916063"><ele>158.85714285714286</ele><time>2026-03-22T09:25:09.999Z</time></trkpt><trkpt lat="48.43933254279631" lon="-3.933502244266618"><ele>159.42857142857142</ele><time>2026-03-22T09:25:10.999Z</time></trkpt><trkpt lat="48.439309436530436" lon="-3.933405187047075"><ele>160.0</ele><time>2026-03-22T09:25:11.999Z</time></trkpt><trkpt lat="48.43931821973434" lon="-3.9333098064625753"><ele>160.33333333333334</ele><time>2026-03-22T09:25:12.999Z</time></trkpt><trkpt lat="48.43931076483436" lon="-3.9332070316733203"><ele>160.66666666666669</ele><time>2026-03-22T09:25:14.999Z</time></trkpt><trkpt lat="48.43930330604701" lon="-3.9331041845115373"><ele>161.0</ele><time>2026-03-22T09:25:15.999Z</time></trkpt><trkpt lat="48.43933717858085" lon="-3.9329418218640226"><ele>161.33333333333334</ele><time>2026-03-22T09:25:17.999Z</time></trkpt><trkpt lat="48.439357557212844" lon="-3.9328461102047405"><ele>161.66666666666666</ele><time>2026-03-22T09:25:18.999Z</time></trkpt><trkpt lat="48.43937850097235" lon="-3.932729606940533"><ele>162.0</ele><time>2026-03-22T09:25:19.999Z</time></trkpt><trkpt lat="48.43938520326809" lon="-3.932623868105161"><ele>162.0</ele><time>2026-03-22T09:25:20.999Z</time></trkpt><trkpt lat="48.43934744618588" lon="-3.932496178908295"><ele>162.0</ele><time>2026-03-22T09:25:22.999Z</time></trkpt><trkpt lat="48.43928690658175" lon="-3.9323340148690127"><ele>162.0</ele><time>2026-03-22T09:25:24.999Z</time></trkpt><trkpt lat="48.43923881119533" lon="-3.9321682783485485"><ele>162.0</ele><time>2026-03-22T09:25:26.998Z</time></trkpt><trkpt lat="48.43920679125378" lon="-3.9320755103265745"><ele>162.0</ele><time>2026-03-22T09:25:28Z</time></trkpt><trkpt lat="48.43917728053931" lon="-3.931988803423452"><ele>162.0</ele><time>2026-03-22T09:25:29Z</time></trkpt><trkpt lat="48.43915170516403" lon="-3.9318893860694897"><ele>162.0</ele><time>2026-03-22T09:25:30Z</time></trkpt><trkpt lat="48.43912354927135" lon="-3.931790699724706"><ele>162.0</ele><time>2026-03-22T09:25:31Z</time></trkpt><trkpt lat="48.439095542930055" lon="-3.9316837460528995"><ele>162.0</ele><time>2026-03-22T09:25:32Z</time></trkpt><trkpt lat="48.43907057697202" lon="-3.9315843304329094"><ele>162.0</ele><time>2026-03-22T09:25:33Z</time></trkpt><trkpt lat="48.4390437099926" lon="-3.9314878653842604"><ele>162.0</ele><time>2026-03-22T09:25:34Z</time></trkpt><trkpt lat="48.43902685324942" lon="-3.9313952568156134"><ele>162.0</ele><time>2026-03-22T09:25:35Z</time></trkpt><trkpt lat="48.439016360639826" lon="-3.9312037386361256"><ele>162.16666666666666</ele><time>2026-03-22T09:25:37Z</time></trkpt><trkpt lat="48.43901765271813" lon="-3.9310708439493225"><ele>162.33333333333334</ele><time>2026-03-22T09:25:38Z</time></trkpt><trkpt lat="48.43902722094686" lon="-3.9309119855171777"><ele>162.5</ele><time>2026-03-22T09:25:39Z</time></trkpt><trkpt lat="48.43904810607408" lon="-3.9307911064922885"><ele>162.66666666666669</ele><time>2026-03-22T09:25:40Z</time></trkpt><trkpt lat="48.439065761015925" lon="-3.9306870042129978"><ele>162.83333333333334</ele><time>2026-03-22T09:25:41Z</time></trkpt><trkpt lat="48.439072347899184" lon="-3.930588796276822"><ele>163.0</ele><time>2026-03-22T09:25:42Z</time></trkpt><trkpt lat="48.43908887948657" lon="-3.930424759835968"><ele>163.66666666666669</ele><time>2026-03-22T09:25:44Z</time></trkpt><trkpt lat="48.43911854696319" lon="-3.9303178131721226"><ele>164.33333333333334</ele><time>2026-03-22T09:25:45Z</time></trkpt><trkpt lat="48.43916785019845" lon="-3.9301821685513714"><ele>165.0</ele><time>2026-03-22T09:25:46Z</time></trkpt><trkpt lat="48.43920688631538" lon="-3.9300514178386754"><ele>165.66666666666666</ele><time>2026-03-22T09:25:47Z</time></trkpt><trkpt lat="48.43924566643835" lon="-3.929960497402395"><ele>166.33333333333331</ele><time>2026-03-22T09:25:48Z</time></trkpt><trkpt lat="48.439254191118145" lon="-3.9298549054269936"><ele>167.0</ele><time>2026-03-22T09:25:49Z</time></trkpt><trkpt lat="48.439259770058605" lon="-3.9297365110190596"><ele>167.39999999999998</ele><time>2026-03-22T09:25:50Z</time></trkpt><trkpt lat="48.439252621598705" lon="-3.9296303019134524"><ele>167.79999999999998</ele><time>2026-03-22T09:25:51Z</time></trkpt><trkpt lat="48.43923075915507" lon="-3.9294773582073956"><ele>168.2</ele><time>2026-03-22T09:25:53Z</time></trkpt><trkpt lat="48.439203663306245" lon="-3.929313675484098"><ele>168.6</ele><time>2026-03-22T09:25:56Z</time></trkpt><trkpt lat="48.43912564116036" lon="-3.9291328739396407"><ele>169.0</ele><time>2026-03-22T09:25:58Z</time></trkpt><trkpt lat="48.43906425864107" lon="-3.929005406899534"><ele>169.5</ele><time>2026-03-22T09:25:59Z</time></trkpt><trkpt lat="48.43898424640531" lon="-3.928818962976257"><ele>170.0</ele><time>2026-03-22T09:26:00Z</time></trkpt><trkpt lat="48.438904744947365" lon="-3.928635640245503"><ele>170.5</ele><time>2026-03-22T09:26:01Z</time></trkpt><trkpt lat="48.43882410418133" lon="-3.9285188070552337"><ele>171.0</ele><time>2026-03-22T09:26:02Z</time></trkpt><trkpt lat="48.43876127444006" lon="-3.9284086052447744"><ele>171.8</ele><time>2026-03-22T09:26:03Z</time></trkpt><trkpt lat="48.4387280874121" lon="-3.9282952925011854"><ele>172.60000000000002</ele><time>2026-03-22T09:26:04Z</time></trkpt><trkpt lat="48.43871682604306" lon="-3.9281352933572884"><ele>173.4</ele><time>2026-03-22T09:26:05Z</time></trkpt><trkpt lat="48.438717331633875" lon="-3.9280251599092635"><ele>174.2</ele><time>2026-03-22T09:26:06Z</time></trkpt><trkpt lat="48.438711781967164" lon="-3.9279135880280616"><ele>175.0</ele><time>2026-03-22T09:26:20.999Z</time></trkpt><trkpt lat="48.438726485863214" lon="-3.927716183590303"><ele>175.0</ele><time>2026-03-22T09:26:22.999Z</time></trkpt><trkpt lat="48.43871821758291" lon="-3.927601353753737"><ele>175.0</ele><time>2026-03-22T09:26:23.999Z</time></trkpt><trkpt lat="48.43869144363106" lon="-3.9274800950677027"><ele>175.0</ele><time>2026-03-22T09:26:24.999Z</time></trkpt><trkpt lat="48.4386575451996" lon="-3.92725537332224"><ele>175.0</ele><time>2026-03-22T09:26:25.999Z</time></trkpt><trkpt lat="48.43863773565815" lon="-3.9270353433844782"><ele>176.25</ele><time>2026-03-22T09:26:26.999Z</time></trkpt><trkpt lat="48.43861288185469" lon="-3.9268656765012313"><ele>177.5</ele><time>2026-03-22T09:26:27.999Z</time></trkpt><trkpt lat="48.438590313663966" lon="-3.9267084817219295"><ele>178.75</ele><time>2026-03-22T09:26:28.999Z</time></trkpt><trkpt lat="48.438548273817055" lon="-3.9265496571109004"><ele>180.0</ele><time>2026-03-22T09:26:29.999Z</time></trkpt><trkpt lat="48.438526104011274" lon="-3.9263774266833855"><ele>181.25</ele><time>2026-03-22T09:26:30.999Z</time></trkpt><trkpt lat="48.43849147786524" lon="-3.9261823401847695"><ele>182.5</ele><time>2026-03-22T09:26:31.999Z</time></trkpt><trkpt lat="48.43844052004634" lon="-3.925972048158168"><ele>183.75</ele><time>2026-03-22T09:26:32.999Z</time></trkpt><trkpt lat="48.43838544771256" lon="-3.9257729896826845"><ele>185.0</ele><time>2026-03-22T09:26:33.999Z</time></trkpt><trkpt lat="48.43834475762934" lon="-3.9256190358151586"><ele>185.57142857142856</ele><time>2026-03-22T09:26:34.999Z</time></trkpt><trkpt lat="48.43832075253292" lon="-3.925518457968272"><ele>186.14285714285714</ele><time>2026-03-22T09:26:36.999Z</time></trkpt><trkpt lat="48.43831624535832" lon="-3.925419270658548"><ele>186.71428571428572</ele><time>2026-03-22T09:26:46.999Z</time></trkpt><trkpt lat="48.43831777481209" lon="-3.9253197183906368"><ele>187.28571428571428</ele><time>2026-03-22T09:26:49.999Z</time></trkpt><trkpt lat="48.43830164515805" lon="-3.925202070435342"><ele>187.85714285714286</ele><time>2026-03-22T09:26:50.999Z</time></trkpt><trkpt lat="48.43830613026151" lon="-3.925095661128526"><ele>188.42857142857142</ele><time>2026-03-22T09:26:51.999Z</time></trkpt><trkpt lat="48.438308591319895" lon="-3.924999587630317"><ele>189.0</ele><time>2026-03-22T09:26:52.999Z</time></trkpt><trkpt lat="48.43834201420707" lon="-3.924918687669069"><ele>190.0</ele><time>2026-03-22T09:26:53.999Z</time></trkpt><trkpt lat="48.43838927468559" lon="-3.924788310971437"><ele>191.0</ele><time>2026-03-22T09:26:55.999Z</time></trkpt><trkpt lat="48.438388494797714" lon="-3.9246889011839623"><ele>192.0</ele><time>2026-03-22T09:26:57.999Z</time></trkpt><trkpt lat="48.43847132069004" lon="-3.9246782090849317"><ele>193.0</ele><time>2026-03-22T09:26:59.999Z</time></trkpt><trkpt lat="48.438538563527956" lon="-3.9246931514387144"><ele>194.0</ele><time>2026-03-22T09:27:54Z</time></trkpt><trkpt lat="48.438638445291524" lon="-3.924697506377101"><ele>195.0</ele><time>2026-03-22T09:27:55Z</time></trkpt><trkpt lat="48.43877170125466" lon="-3.9247098693038684"><ele>196.25</ele><time>2026-03-22T09:27:56Z</time></trkpt><trkpt lat="48.43893299903664" lon="-3.924722089223717"><ele>197.5</ele><time>2026-03-22T09:27:57Z</time></trkpt><trkpt lat="48.439066222025275" lon="-3.9247770616996167"><ele>198.75</ele><time>2026-03-22T09:27:58Z</time></trkpt><trkpt lat="48.43920355245585" lon="-3.924866451918165"><ele>200.0</ele><time>2026-03-22T09:27:59Z</time></trkpt><trkpt lat="48.43932486966456" lon="-3.9249497803845146"><ele>200.0</ele><time>2026-03-22T09:28:00Z</time></trkpt><trkpt lat="48.439447867504335" lon="-3.9250594532278473"><ele>200.0</ele><time>2026-03-22T09:28:01Z</time></trkpt><trkpt lat="48.439568778425055" lon="-3.925164175957734"><ele>200.0</ele><time>2026-03-22T09:28:02Z</time></trkpt><trkpt lat="48.43971674947252" lon="-3.925319455849122"><ele>198.8</ele><time>2026-03-22T09:28:03Z</time></trkpt><trkpt lat="48.439837094301" lon="-3.92547139189373"><ele>197.6</ele><time>2026-03-22T09:28:04Z</time></trkpt><trkpt lat="48.43991189082219" lon="-3.925572721575234"><ele>196.39999999999998</ele><time>2026-03-22T09:28:05Z</time></trkpt><trkpt lat="48.43996078893416" lon="-3.9256632792534365"><ele>195.2</ele><time>2026-03-22T09:28:06Z</time></trkpt><trkpt lat="48.43999553178221" lon="-3.9258026539453783"><ele>194.0</ele><time>2026-03-22T09:28:07Z</time></trkpt><trkpt lat="48.440058973071636" lon="-3.9259132020306486"><ele>192.0</ele><time>2026-03-22T09:28:08Z</time></trkpt><trkpt lat="48.44014847571796" lon="-3.9260299488814296"><ele>190.0</ele><time>2026-03-22T09:28:09Z</time></trkpt><trkpt lat="48.44027004868942" lon="-3.9261581147390263"><ele>188.0</ele><time>2026-03-22T09:28:10Z</time></trkpt><trkpt lat="48.440407391171235" lon="-3.9262721735161756"><ele>186.0</ele><time>2026-03-22T09:28:11Z</time></trkpt><trkpt lat="48.44053900147555" lon="-3.926374053797729"><ele>186.0</ele><time>2026-03-22T09:28:12Z</time></trkpt><trkpt lat="48.440660826696686" lon="-3.9264562011422974"><ele>186.0</ele><time>2026-03-22T09:28:13Z</time></trkpt><trkpt lat="48.44078907958035" lon="-3.9265263952672167"><ele>186.0</ele><time>2026-03-22T09:28:14Z</time></trkpt><trkpt lat="48.440915127574435" lon="-3.926614916646872"><ele>186.0</ele><time>2026-03-22T09:28:15Z</time></trkpt><trkpt lat="48.44101733780195" lon="-3.926725169234936"><ele>185.0</ele><time>2026-03-22T09:28:16Z</time></trkpt><trkpt lat="48.44111518025137" lon="-3.9267894421314065"><ele>184.0</ele><time>2026-03-22T09:28:17Z</time></trkpt><trkpt lat="48.44119106088103" lon="-3.926842726929751"><ele>183.0</ele><time>2026-03-22T09:28:18Z</time></trkpt><trkpt lat="48.441285070711196" lon="-3.926928743699045"><ele>182.0</ele><time>2026-03-22T09:28:19.999Z</time></trkpt><trkpt lat="48.44134531797644" lon="-3.926970515228989"><ele>181.0</ele><time>2026-03-22T09:28:21.999Z</time></trkpt><trkpt lat="48.441467467793764" lon="-3.926822825828106"><ele>180.8</ele><time>2026-03-22T09:28:23.999Z</time></trkpt><trkpt lat="48.44152976154254" lon="-3.9267366484105315"><ele>180.60000000000002</ele><time>2026-03-22T09:28:24.999Z</time></trkpt><trkpt lat="48.44160323416254" lon="-3.9266493864983825"><ele>180.4</ele><time>2026-03-22T09:28:25.999Z</time></trkpt><trkpt lat="48.44168823110832" lon="-3.926553924273083"><ele>180.2</ele><time>2026-03-22T09:28:26.999Z</time></trkpt><trkpt lat="48.44177575614214" lon="-3.9264520481027585"><ele>180.0</ele><time>2026-03-22T09:28:27.999Z</time></trkpt><trkpt lat="48.44187448581291" lon="-3.9263446076854893"><ele>179.5</ele><time>2026-03-22T09:28:28.999Z</time></trkpt><trkpt lat="48.44196930430798" lon="-3.9262491430561086"><ele>179.0</ele><time>2026-03-22T09:28:29.999Z</time></trkpt><trkpt lat="48.442065115595796" lon="-3.9261375376852015"><ele>178.5</ele><time>2026-03-22T09:28:30.999Z</time></trkpt><trkpt lat="48.44216508991939" lon="-3.926026273382175"><ele>178.0</ele><time>2026-03-22T09:28:31.999Z</time></trkpt><trkpt lat="48.44226445409163" lon="-3.9259142574808985"><ele>178.75</ele><time>2026-03-22T09:28:32.999Z</time></trkpt><trkpt lat="48.44237902201882" lon="-3.9257904755602917"><ele>179.5</ele><time>2026-03-22T09:28:33.999Z</time></trkpt><trkpt lat="48.44248720050185" lon="-3.925667959750611"><ele>180.25</ele><time>2026-03-22T09:28:34.999Z</time></trkpt><trkpt lat="48.44258794197937" lon="-3.925556571579611"><ele>181.0</ele><time>2026-03-22T09:28:35.999Z</time></trkpt><trkpt lat="48.44268153443904" lon="-3.925449387641934"><ele>181.0</ele><time>2026-03-22T09:28:36.999Z</time></trkpt><trkpt lat="48.44277523959943" lon="-3.925356819432923"><ele>181.0</ele><time>2026-03-22T09:28:37.999Z</time></trkpt><trkpt lat="48.44287833362572" lon="-3.9252543491872554"><ele>181.0</ele><time>2026-03-22T09:28:38.999Z</time></trkpt><trkpt lat="48.4430041610855" lon="-3.925210436371417"><ele>181.0</ele><time>2026-03-22T09:28:39.999Z</time></trkpt><trkpt lat="48.4431272201203" lon="-3.925145491508198"><ele>180.25</ele><time>2026-03-22T09:28:40.999Z</time></trkpt><trkpt lat="48.44326473404964" lon="-3.925170448934235"><ele>179.5</ele><time>2026-03-22T09:28:41.999Z</time></trkpt><trkpt lat="48.4434002722708" lon="-3.9251873625010463"><ele>178.75</ele><time>2026-03-22T09:28:42.999Z</time></trkpt><trkpt lat="48.44352363473658" lon="-3.9252080040059965"><ele>178.0</ele><time>2026-03-22T09:28:43.999Z</time></trkpt><trkpt lat="48.44362800918286" lon="-3.9252329966521162"><ele>178.0</ele><time>2026-03-22T09:28:44.999Z</time></trkpt><trkpt lat="48.44371328434446" lon="-3.925251719807644"><ele>178.0</ele><time>2026-03-22T09:28:45.999Z</time></trkpt><trkpt lat="48.44383765529822" lon="-3.9252409998789197"><ele>178.0</ele><time>2026-03-22T09:28:47.999Z</time></trkpt><trkpt lat="48.443916884336325" lon="-3.925228560997741"><ele>178.0</ele><time>2026-03-22T09:28:48.999Z</time></trkpt><trkpt lat="48.44401550824775" lon="-3.9252463143490326"><ele>178.0</ele><time>2026-03-22T09:28:49.999Z</time></trkpt><trkpt lat="48.44412973316062" lon="-3.925273790147688"><ele>177.5</ele><time>2026-03-22T09:28:50.999Z</time></trkpt><trkpt lat="48.44424523631622" lon="-3.92528865206935"><ele>177.0</ele><time>2026-03-22T09:28:51.999Z</time></trkpt><trkpt lat="48.444369655749625" lon="-3.925300427590528"><ele>176.5</ele><time>2026-03-22T09:28:52.999Z</time></trkpt><trkpt lat="48.44449557992149" lon="-3.9253213492352543"><ele>176.0</ele><time>2026-03-22T09:28:53.999Z</time></trkpt><trkpt lat="48.44463034276345" lon="-3.9253459386869807"><ele>174.75</ele><time>2026-03-22T09:28:54.999Z</time></trkpt><trkpt lat="48.4447654000797" lon="-3.925366737349376"><ele>173.5</ele><time>2026-03-22T09:28:55.999Z</time></trkpt><trkpt lat="48.44489702334814" lon="-3.9253934093176412"><ele>172.25</ele><time>2026-03-22T09:28:56.999Z</time></trkpt><trkpt lat="48.445029451501505" lon="-3.925419158801938"><ele>171.0</ele><time>2026-03-22T09:28:57.999Z</time></trkpt><trkpt lat="48.44516191384927" lon="-3.9254612864103806"><ele>171.0</ele><time>2026-03-22T09:28:58.999Z</time></trkpt><trkpt lat="48.445287035497444" lon="-3.9255229270700296"><ele>171.0</ele><time>2026-03-22T09:28:59.999Z</time></trkpt><trkpt lat="48.44541463839599" lon="-3.925613142700565"><ele>171.0</ele><time>2026-03-22T09:29:00.999Z</time></trkpt><trkpt lat="48.445541970691984" lon="-3.9257287414501825"><ele>171.0</ele><time>2026-03-22T09:29:01.999Z</time></trkpt><trkpt lat="48.44566310023388" lon="-3.92585310642268"><ele>169.0</ele><time>2026-03-22T09:29:02.999Z</time></trkpt><trkpt lat="48.445782936361525" lon="-3.9259916153373684"><ele>167.0</ele><time>2026-03-22T09:29:03.999Z</time></trkpt><trkpt lat="48.44589963507485" lon="-3.9261409953266884"><ele>165.0</ele><time>2026-03-22T09:29:04.999Z</time></trkpt><trkpt lat="48.44601114927732" lon="-3.9262950049246252"><ele>165.0</ele><time>2026-03-22T09:29:05.999Z</time></trkpt><trkpt lat="48.44613165319932" lon="-3.926462250232615"><ele>165.0</ele><time>2026-03-22T09:29:06.999Z</time></trkpt><trkpt lat="48.44623601137264" lon="-3.926632928495245"><ele>165.0</ele><time>2026-03-22T09:29:07.999Z</time></trkpt><trkpt lat="48.44633076784861" lon="-3.926817818715637"><ele>165.25</ele><time>2026-03-22T09:29:08.999Z</time></trkpt><trkpt lat="48.446413831149584" lon="-3.9270045914545233"><ele>165.5</ele><time>2026-03-22T09:29:09.999Z</time></trkpt><trkpt lat="48.44649649097088" lon="-3.9272026241038214"><ele>165.75</ele><time>2026-03-22T09:29:10.999Z</time></trkpt><trkpt lat="48.44657147358225" lon="-3.927379694348809"><ele>166.0</ele><time>2026-03-22T09:29:11.999Z</time></trkpt><trkpt lat="48.446638414340384" lon="-3.927543736049114"><ele>165.8</ele><time>2026-03-22T09:29:12.999Z</time></trkpt><trkpt lat="48.44669354240189" lon="-3.927691024507223"><ele>165.60000000000002</ele><time>2026-03-22T09:29:13.999Z</time></trkpt><trkpt lat="48.44673486488453" lon="-3.927807437090699"><ele>165.4</ele><time>2026-03-22T09:29:14.999Z</time></trkpt><trkpt lat="48.446778751999446" lon="-3.9278806644766244"><ele>165.2</ele><time>2026-03-22T09:29:15.999Z</time></trkpt><trkpt lat="48.446836620427064" lon="-3.9279756250132936"><ele>165.0</ele><time>2026-03-22T09:29:17.999Z</time></trkpt><trkpt lat="48.44712932503857" lon="-3.9279478192436827"><ele>165.25</ele><time>2026-03-22T09:29:19.999Z</time></trkpt><trkpt lat="48.44722916240566" lon="-3.9280311418951834"><ele>165.5</ele><time>2026-03-22T09:29:20.999Z</time></trkpt><trkpt lat="48.44734660191789" lon="-3.928167882682269"><ele>165.75</ele><time>2026-03-22T09:29:21.999Z</time></trkpt><trkpt lat="48.44748564109337" lon="-3.9283124154345517"><ele>166.0</ele><time>2026-03-22T09:29:22.999Z</time></trkpt><trkpt lat="48.44759996033092" lon="-3.928408160052892"><ele>166.0</ele><time>2026-03-22T09:29:23.999Z</time></trkpt><trkpt lat="48.44771267405988" lon="-3.928492419269443"><ele>166.0</ele><time>2026-03-22T09:29:24.999Z</time></trkpt><trkpt lat="48.44780454243956" lon="-3.9285750649661955"><ele>166.0</ele><time>2026-03-22T09:29:25.999Z</time></trkpt><trkpt lat="48.44788781614883" lon="-3.9286626108643468"><ele>166.0</ele><time>2026-03-22T09:29:26.999Z</time></trkpt><trkpt lat="48.44798468341086" lon="-3.9287600928588935"><ele>166.75</ele><time>2026-03-22T09:29:27.999Z</time></trkpt><trkpt lat="48.44808208102907" lon="-3.9288173542964224"><ele>167.5</ele><time>2026-03-22T09:29:28.999Z</time></trkpt><trkpt lat="48.44816130839255" lon="-3.929075599107594"><ele>168.25</ele><time>2026-03-22T09:29:29.999Z</time></trkpt><trkpt lat="48.44822786347223" lon="-3.929135086623851"><ele>169.0</ele><time>2026-03-22T09:29:30.999Z</time></trkpt><trkpt lat="48.44829606752462" lon="-3.9292239447706896"><ele>168.79999999999998</ele><time>2026-03-22T09:29:31.999Z</time></trkpt><trkpt lat="48.44838902526206" lon="-3.9293230394803302"><ele>168.6</ele><time>2026-03-22T09:29:32.999Z</time></trkpt><trkpt lat="48.448481753702595" lon="-3.9294014268098785"><ele>168.4</ele><time>2026-03-22T09:29:33.999Z</time></trkpt><trkpt lat="48.448554359044394" lon="-3.9294872549667303"><ele>168.2</ele><time>2026-03-22T09:29:34.999Z</time></trkpt><trkpt lat="48.448637537810974" lon="-3.9295620986109157"><ele>168.0</ele><time>2026-03-22T09:29:35.999Z</time></trkpt><trkpt lat="48.448731802551" lon="-3.929665400387649"><ele>167.4</ele><time>2026-03-22T09:29:36.999Z</time></trkpt><trkpt lat="48.448806753794194" lon="-3.929755398167469"><ele>166.8</ele><time>2026-03-22T09:29:37.999Z</time></trkpt><trkpt lat="48.44887532496435" lon="-3.929852854209805"><ele>166.2</ele><time>2026-03-22T09:29:38.999Z</time></trkpt><trkpt lat="48.448952970956086" lon="-3.929956504500271"><ele>165.6</ele><time>2026-03-22T09:29:40Z</time></trkpt><trkpt lat="48.44903794753862" lon="-3.9300730179632937"><ele>165.0</ele><time>2026-03-22T09:29:41Z</time></trkpt><trkpt lat="48.44913421202577" lon="-3.9302264896755617"><ele>165.0</ele><time>2026-03-22T09:29:42Z</time></trkpt><trkpt lat="48.44922314871727" lon="-3.9303330116934965"><ele>165.0</ele><time>2026-03-22T09:29:43Z</time></trkpt><trkpt lat="48.449332121585925" lon="-3.9304274887655435"><ele>165.0</ele><time>2026-03-22T09:29:44Z</time></trkpt><trkpt lat="48.449428120175526" lon="-3.9305154558229662"><ele>165.0</ele><time>2026-03-22T09:29:45Z</time></trkpt><trkpt lat="48.44952189315029" lon="-3.9306201894555177"><ele>165.0</ele><time>2026-03-22T09:29:46Z</time></trkpt><trkpt lat="48.44960147448355" lon="-3.9307216642308713"><ele>165.0</ele><time>2026-03-22T09:29:47Z</time></trkpt><trkpt lat="48.44967400084939" lon="-3.9308425904500193"><ele>165.0</ele><time>2026-03-22T09:29:48Z</time></trkpt><trkpt lat="48.44976365052073" lon="-3.930960845576106"><ele>165.0</ele><time>2026-03-22T09:29:49Z</time></trkpt><trkpt lat="48.449851237161894" lon="-3.931075690587186"><ele>165.0</ele><time>2026-03-22T09:29:50Z</time></trkpt><trkpt lat="48.449966481787065" lon="-3.9311986380539663"><ele>164.5</ele><time>2026-03-22T09:29:51Z</time></trkpt><trkpt lat="48.450090682339194" lon="-3.9313367427245542"><ele>164.0</ele><time>2026-03-22T09:29:52Z</time></trkpt><trkpt lat="48.45020059379683" lon="-3.9314608685649897"><ele>163.5</ele><time>2026-03-22T09:29:53Z</time></trkpt><trkpt lat="48.45029202341118" lon="-3.931581403904889"><ele>163.0</ele><time>2026-03-22T09:29:54Z</time></trkpt><trkpt lat="48.45038162260997" lon="-3.931701300583902"><ele>163.75</ele><time>2026-03-22T09:29:55Z</time></trkpt><trkpt lat="48.45045431328514" lon="-3.931805452131267"><ele>164.5</ele><time>2026-03-22T09:29:56Z</time></trkpt><trkpt lat="48.45054240450421" lon="-3.931917673072489"><ele>165.25</ele><time>2026-03-22T09:29:57Z</time></trkpt><trkpt lat="48.45063338859813" lon="-3.932041188800294"><ele>166.0</ele><time>2026-03-22T09:29:58Z</time></trkpt><trkpt lat="48.4507328003166" lon="-3.9321820981906592"><ele>166.5</ele><time>2026-03-22T09:29:59Z</time></trkpt><trkpt lat="48.45084002783194" lon="-3.9323089479929436"><ele>167.0</ele><time>2026-03-22T09:30:00Z</time></trkpt><trkpt lat="48.45093452778465" lon="-3.932413232357535"><ele>167.5</ele><time>2026-03-22T09:30:01Z</time></trkpt><trkpt lat="48.45103573192145" lon="-3.9324735068799703"><ele>168.0</ele><time>2026-03-22T09:30:02Z</time></trkpt><trkpt lat="48.451134120454334" lon="-3.9325117822536773"><ele>168.0</ele><time>2026-03-22T09:30:03Z</time></trkpt><trkpt lat="48.451214759041264" lon="-3.932554324378886"><ele>168.0</ele><time>2026-03-22T09:30:04Z</time></trkpt><trkpt lat="48.45132447820475" lon="-3.932601496773765"><ele>168.0</ele><time>2026-03-22T09:30:06Z</time></trkpt><trkpt lat="48.45140550783031" lon="-3.9326155619407004"><ele>168.0</ele><time>2026-03-22T09:30:07Z</time></trkpt><trkpt lat="48.451513140948094" lon="-3.932633053665622"><ele>168.0</ele><time>2026-03-22T09:30:08Z</time></trkpt><trkpt lat="48.4516222749883" lon="-3.9326703419523006"><ele>169.75</ele><time>2026-03-22T09:30:09Z</time></trkpt><trkpt lat="48.45173395281095" lon="-3.932757333708495"><ele>171.5</ele><time>2026-03-22T09:30:10Z</time></trkpt><trkpt lat="48.4518600628079" lon="-3.9328672306087946"><ele>173.25</ele><time>2026-03-22T09:30:11Z</time></trkpt><trkpt lat="48.45197943862309" lon="-3.932983299658858"><ele>175.0</ele><time>2026-03-22T09:30:12Z</time></trkpt><trkpt lat="48.45209736595833" lon="-3.9331190617435574"><ele>174.75</ele><time>2026-03-22T09:30:13Z</time></trkpt><trkpt lat="48.45221297556581" lon="-3.9332724667806693"><ele>174.5</ele><time>2026-03-22T09:30:14Z</time></trkpt><trkpt lat="48.45232491554296" lon="-3.9334208971553375"><ele>174.25</ele><time>2026-03-22T09:30:15Z</time></trkpt><trkpt lat="48.45242417205636" lon="-3.933547594829034"><ele>174.0</ele><time>2026-03-22T09:30:16Z</time></trkpt><trkpt lat="48.45252306200905" lon="-3.933657889290351"><ele>174.0</ele><time>2026-03-22T09:30:17Z</time></trkpt><trkpt lat="48.45262455810618" lon="-3.933707597428102"><ele>174.0</ele><time>2026-03-22T09:30:18Z</time></trkpt><trkpt lat="48.45268613455351" lon="-3.9339160985175763"><ele>174.0</ele><time>2026-03-22T09:30:19Z</time></trkpt><trkpt lat="48.45276341105123" lon="-3.934098424818892"><ele>174.0</ele><time>2026-03-22T09:30:20Z</time></trkpt><trkpt lat="48.45284690696303" lon="-3.9342863447701673"><ele>174.33333333333334</ele><time>2026-03-22T09:30:21Z</time></trkpt><trkpt lat="48.452934631901336" lon="-3.934474414295724"><ele>174.66666666666669</ele><time>2026-03-22T09:30:22Z</time></trkpt><trkpt lat="48.45302343504096" lon="-3.9346666098543204"><ele>175.0</ele><time>2026-03-22T09:30:23Z</time></trkpt><trkpt lat="48.45310732387421" lon="-3.934862906103349"><ele>172.0</ele><time>2026-03-22T09:30:24Z</time></trkpt><trkpt lat="48.453191554151395" lon="-3.935054838925375"><ele>169.0</ele><time>2026-03-22T09:30:25Z</time></trkpt><trkpt lat="48.453283125326436" lon="-3.9352582092584782"><ele>166.0</ele><time>2026-03-22T09:30:26Z</time></trkpt><trkpt lat="48.45338002238199" lon="-3.935455406564211"><ele>166.0</ele><time>2026-03-22T09:30:27Z</time></trkpt><trkpt lat="48.4534651647914" lon="-3.9356332007803503"><ele>166.0</ele><time>2026-03-22T09:30:28Z</time></trkpt><trkpt lat="48.453553633339986" lon="-3.9357940224044765"><ele>166.0</ele><time>2026-03-22T09:30:29Z</time></trkpt><trkpt lat="48.453641497690754" lon="-3.935953950503984"><ele>166.0</ele><time>2026-03-22T09:30:30Z</time></trkpt><trkpt lat="48.45372563126761" lon="-3.936105817872517"><ele>165.25</ele><time>2026-03-22T09:30:31Z</time></trkpt><trkpt lat="48.45381360822971" lon="-3.936272440939071"><ele>164.5</ele><time>2026-03-22T09:30:32Z</time></trkpt><trkpt lat="48.45390834499142" lon="-3.9364348319543843"><ele>163.75</ele><time>2026-03-22T09:30:32.999Z</time></trkpt><trkpt lat="48.45399461441058" lon="-3.9365933042702013"><ele>163.0</ele><time>2026-03-22T09:30:33.999Z</time></trkpt><trkpt lat="48.454079040970356" lon="-3.9367398816665915"><ele>161.5</ele><time>2026-03-22T09:30:34.999Z</time></trkpt><trkpt lat="48.454153817932784" lon="-3.9368827136942017"><ele>160.0</ele><time>2026-03-22T09:30:35.999Z</time></trkpt><trkpt lat="48.45422026336028" lon="-3.9370255456851795"><ele>158.5</ele><time>2026-03-22T09:30:36.999Z</time></trkpt><trkpt lat="48.45427938107127" lon="-3.9371835025688466"><ele>157.0</ele><time>2026-03-22T09:30:37.999Z</time></trkpt><trkpt lat="48.45435061690237" lon="-3.9373256349961205"><ele>157.0</ele><time>2026-03-22T09:30:38.999Z</time></trkpt><trkpt lat="48.4544446873178" lon="-3.9374605332516865"><ele>157.0</ele><time>2026-03-22T09:30:39.999Z</time></trkpt><trkpt lat="48.4545404043466" lon="-3.937596535687499"><ele>157.0</ele><time>2026-03-22T09:30:40.999Z</time></trkpt><trkpt lat="48.45463727454446" lon="-3.9377227889912283"><ele>157.0</ele><time>2026-03-22T09:30:41.999Z</time></trkpt><trkpt lat="48.45472064995761" lon="-3.937851302897564"><ele>155.75</ele><time>2026-03-22T09:30:42.999Z</time></trkpt><trkpt lat="48.45480590977597" lon="-3.9379820544808384"><ele>154.5</ele><time>2026-03-22T09:30:43.999Z</time></trkpt><trkpt lat="48.45487514181764" lon="-3.938105226586468"><ele>153.25</ele><time>2026-03-22T09:30:44.999Z</time></trkpt><trkpt lat="48.45494570858717" lon="-3.9382352320771865"><ele>152.0</ele><time>2026-03-22T09:30:45.999Z</time></trkpt><trkpt lat="48.4550149095457" lon="-3.9383783653152418"><ele>150.83333333333331</ele><time>2026-03-22T09:30:46.999Z</time></trkpt><trkpt lat="48.45507131984258" lon="-3.938480116092165"><ele>149.66666666666666</ele><time>2026-03-22T09:30:47.999Z</time></trkpt><trkpt lat="48.455098195182515" lon="-3.9385851518102615"><ele>148.5</ele><time>2026-03-22T09:30:48.999Z</time></trkpt><trkpt lat="48.455160187584696" lon="-3.938699918834549"><ele>147.33333333333334</ele><time>2026-03-22T09:30:50.999Z</time></trkpt><trkpt lat="48.45519391469779" lon="-3.9387833385509174"><ele>146.16666666666669</ele><time>2026-03-22T09:30:51.999Z</time></trkpt><trkpt lat="48.4552447847697" lon="-3.9389091591797"><ele>145.0</ele><time>2026-03-22T09:30:52.999Z</time></trkpt><trkpt lat="48.455245449109505" lon="-3.9391276595960645"><ele>145.5</ele><time>2026-03-22T09:30:53.999Z</time></trkpt><trkpt lat="48.45530252935398" lon="-3.9393107174849744"><ele>146.0</ele><time>2026-03-22T09:30:54.999Z</time></trkpt><trkpt lat="48.45536281695974" lon="-3.939460135688793"><ele>146.5</ele><time>2026-03-22T09:30:55.999Z</time></trkpt><trkpt lat="48.455468620698376" lon="-3.93961102871494"><ele>147.0</ele><time>2026-03-22T09:30:56.999Z</time></trkpt><trkpt lat="48.45550333502078" lon="-3.939791820315059"><ele>147.0</ele><time>2026-03-22T09:30:57.999Z</time></trkpt><trkpt lat="48.45559476320824" lon="-3.939968927772075"><ele>147.0</ele><time>2026-03-22T09:30:58.999Z</time></trkpt><trkpt lat="48.455692986945465" lon="-3.94013187020757"><ele>147.0</ele><time>2026-03-22T09:30:59.999Z</time></trkpt><trkpt lat="48.455759800210636" lon="-3.94029283346992"><ele>147.0</ele><time>2026-03-22T09:31:00.999Z</time></trkpt><trkpt lat="48.45581969800894" lon="-3.9404596502224924"><ele>145.5</ele><time>2026-03-22T09:31:01.999Z</time></trkpt><trkpt lat="48.45589671386836" lon="-3.9406331313702823"><ele>144.0</ele><time>2026-03-22T09:31:02.999Z</time></trkpt><trkpt lat="48.455985579550244" lon="-3.940762334131375"><ele>142.5</ele><time>2026-03-22T09:31:03.999Z</time></trkpt><trkpt lat="48.45608105742643" lon="-3.9409246637218924"><ele>141.0</ele><time>2026-03-22T09:31:04.999Z</time></trkpt><trkpt lat="48.45617660627568" lon="-3.941067045810084"><ele>140.25</ele><time>2026-03-22T09:31:05.999Z</time></trkpt><trkpt lat="48.45625914668371" lon="-3.941241582245055"><ele>139.5</ele><time>2026-03-22T09:31:06.999Z</time></trkpt><trkpt lat="48.456341748463174" lon="-3.9414219126332815"><ele>138.75</ele><time>2026-03-22T09:31:07.999Z</time></trkpt><trkpt lat="48.45642573641109" lon="-3.941613581249159"><ele>138.0</ele><time>2026-03-22T09:31:08.999Z</time></trkpt><trkpt lat="48.45652594710535" lon="-3.941791312175913"><ele>137.25</ele><time>2026-03-22T09:31:09.999Z</time></trkpt><trkpt lat="48.4566278012908" lon="-3.9419663819466804"><ele>136.5</ele><time>2026-03-22T09:31:10.999Z</time></trkpt><trkpt lat="48.456692530458675" lon="-3.942158840938469"><ele>135.75</ele><time>2026-03-22T09:31:11.999Z</time></trkpt><trkpt lat="48.45675079858198" lon="-3.942338765745316"><ele>135.0</ele><time>2026-03-22T09:31:12.999Z</time></trkpt><trkpt lat="48.456813704797355" lon="-3.942532156553356"><ele>134.6</ele><time>2026-03-22T09:31:13.999Z</time></trkpt><trkpt lat="48.45688173142606" lon="-3.9426877285301183"><ele>134.2</ele><time>2026-03-22T09:31:14.999Z</time></trkpt><trkpt lat="48.45694039322922" lon="-3.942830247331143"><ele>133.8</ele><time>2026-03-22T09:31:15.999Z</time></trkpt><trkpt lat="48.45700718328781" lon="-3.942944481769539"><ele>133.4</ele><time>2026-03-22T09:31:16.999Z</time></trkpt><trkpt lat="48.457077209183986" lon="-3.943048355578903"><ele>133.0</ele><time>2026-03-22T09:31:17.999Z</time></trkpt><trkpt lat="48.45716492760672" lon="-3.9432021032440043"><ele>132.25</ele><time>2026-03-22T09:31:18.999Z</time></trkpt><trkpt lat="48.457259264262305" lon="-3.9433823103246914"><ele>131.5</ele><time>2026-03-22T09:31:19.999Z</time></trkpt><trkpt lat="48.4573470502702" lon="-3.943552468137038"><ele>130.75</ele><time>2026-03-22T09:31:20.999Z</time></trkpt><trkpt lat="48.45743209751401" lon="-3.943667502530673"><ele>130.0</ele><time>2026-03-22T09:31:21.999Z</time></trkpt><trkpt lat="48.45749999006072" lon="-3.943792763245291"><ele>130.0</ele><time>2026-03-22T09:31:22.999Z</time></trkpt><trkpt lat="48.45758417896896" lon="-3.943867667176567"><ele>130.0</ele><time>2026-03-22T09:31:23.999Z</time></trkpt><trkpt lat="48.457668766686645" lon="-3.9439044721943115"><ele>130.0</ele><time>2026-03-22T09:31:24.999Z</time></trkpt><trkpt lat="48.457763247953864" lon="-3.943897290853489"><ele>130.0</ele><time>2026-03-22T09:31:25.999Z</time></trkpt><trkpt lat="48.45788034241837" lon="-3.943987971151154"><ele>130.0</ele><time>2026-03-22T09:31:27.999Z</time></trkpt><trkpt lat="48.457912938634664" lon="-3.944093041590551"><ele>130.0</ele><time>2026-03-22T09:31:28.999Z</time></trkpt><trkpt lat="48.457943677992716" lon="-3.944179284437941"><ele>130.0</ele><time>2026-03-22T09:31:29.999Z</time></trkpt><trkpt lat="48.45801501868175" lon="-3.944282634175788"><ele>130.0</ele><time>2026-03-22T09:31:31.999Z</time></trkpt><trkpt lat="48.45807538788318" lon="-3.9444002705920638"><ele>130.0</ele><time>2026-03-22T09:31:33.999Z</time></trkpt><trkpt lat="48.45809771016478" lon="-3.94449915089211"><ele>130.0</ele><time>2026-03-22T09:31:34.999Z</time></trkpt><trkpt lat="48.458142202123696" lon="-3.9445986349154847"><ele>130.0</ele><time>2026-03-22T09:31:35.999Z</time></trkpt><trkpt lat="48.458184874509435" lon="-3.944674529476754"><ele>130.0</ele><time>2026-03-22T09:31:36.999Z</time></trkpt><trkpt lat="48.458264790248414" lon="-3.944768986619411"><ele>130.0</ele><time>2026-03-22T09:31:38.999Z</time></trkpt><trkpt lat="48.45837814650936" lon="-3.9448337307500423"><ele>130.0</ele><time>2026-03-22T09:31:40.999Z</time></trkpt><trkpt lat="48.458435514762755" lon="-3.944873428446251"><ele>130.0</ele><time>2026-03-22T09:31:41.999Z</time></trkpt><trkpt lat="48.45853497065968" lon="-3.944917433078887"><ele>130.0</ele><time>2026-03-22T09:31:43.999Z</time></trkpt><trkpt lat="48.45860344706328" lon="-3.944921305523029"><ele>130.0</ele><time>2026-03-22T09:31:46Z</time></trkpt><trkpt lat="48.458666262243625" lon="-3.9449682734701508"><ele>130.0</ele><time>2026-03-22T09:31:48Z</time></trkpt><trkpt lat="48.45875611578333" lon="-3.9449912597838583"><ele>130.0</ele><time>2026-03-22T09:31:50Z</time></trkpt><trkpt lat="48.458846699015716" lon="-3.9450549785620135"><ele>130.0</ele><time>2026-03-22T09:31:52Z</time></trkpt><trkpt lat="48.45891698948776" lon="-3.9451959779163475"><ele>130.0</ele><time>2026-03-22T09:31:54Z</time></trkpt><trkpt lat="48.45894829177405" lon="-3.9452823617541894"><ele>130.0</ele><time>2026-03-22T09:31:55Z</time></trkpt><trkpt lat="48.45897094249553" lon="-3.9453905735590062"><ele>131.0</ele><time>2026-03-22T09:31:56Z</time></trkpt><trkpt lat="48.45898465008281" lon="-3.9455390484779254"><ele>132.0</ele><time>2026-03-22T09:31:57Z</time></trkpt><trkpt lat="48.458999733405754" lon="-3.9456734879289583"><ele>133.0</ele><time>2026-03-22T09:31:58Z</time></trkpt><trkpt lat="48.459055207351255" lon="-3.94577391767118"><ele>134.0</ele><time>2026-03-22T09:31:59Z</time></trkpt><trkpt lat="48.459130683850304" lon="-3.945847731637419"><ele>135.0</ele><time>2026-03-22T09:32:00Z</time></trkpt><trkpt lat="48.45921738274508" lon="-3.9459046538696643"><ele>135.0</ele><time>2026-03-22T09:32:01Z</time></trkpt><trkpt lat="48.45929783460414" lon="-3.945949395020975"><ele>135.0</ele><time>2026-03-22T09:32:02Z</time></trkpt><trkpt lat="48.45939608632811" lon="-3.9460040951870776"><ele>135.0</ele><time>2026-03-22T09:32:03Z</time></trkpt><trkpt lat="48.45949279613957" lon="-3.9460600408613935"><ele>135.0</ele><time>2026-03-22T09:32:04Z</time></trkpt><trkpt lat="48.45959521362448" lon="-3.946110335284513"><ele>135.0</ele><time>2026-03-22T09:32:05Z</time></trkpt><trkpt lat="48.45970951848781" lon="-3.946167056845057"><ele>136.5</ele><time>2026-03-22T09:32:06Z</time></trkpt><trkpt lat="48.45981229887771" lon="-3.946251954623749"><ele>138.0</ele><time>2026-03-22T09:32:07Z</time></trkpt><trkpt lat="48.45991267033132" lon="-3.9463416205949016"><ele>139.5</ele><time>2026-03-22T09:32:08Z</time></trkpt><trkpt lat="48.460008972489355" lon="-3.9464357204422886"><ele>141.0</ele><time>2026-03-22T09:32:09Z</time></trkpt><trkpt lat="48.46009550908096" lon="-3.946536047953738"><ele>141.0</ele><time>2026-03-22T09:32:10Z</time></trkpt><trkpt lat="48.46019098177943" lon="-3.946628629355772"><ele>141.0</ele><time>2026-03-22T09:32:11Z</time></trkpt><trkpt lat="48.460276866399674" lon="-3.9466954660758296"><ele>141.0</ele><time>2026-03-22T09:32:12Z</time></trkpt><trkpt lat="48.46035839103899" lon="-3.9467701017471497"><ele>141.0</ele><time>2026-03-22T09:32:13Z</time></trkpt><trkpt lat="48.46041252151923" lon="-3.9468479699650256"><ele>141.0</ele><time>2026-03-22T09:32:14Z</time></trkpt><trkpt lat="48.46046015508638" lon="-3.946954883534359"><ele>140.83333333333334</ele><time>2026-03-22T09:32:15Z</time></trkpt><trkpt lat="48.46051269264355" lon="-3.9471001138886197"><ele>140.66666666666666</ele><time>2026-03-22T09:32:16Z</time></trkpt><trkpt lat="48.46056640107801" lon="-3.947216140028327"><ele>140.5</ele><time>2026-03-22T09:32:17Z</time></trkpt><trkpt lat="48.46061214632229" lon="-3.9473118311367954"><ele>140.33333333333331</ele><time>2026-03-22T09:32:18Z</time></trkpt><trkpt lat="48.46068243710055" lon="-3.9473286134135765"><ele>140.16666666666666</ele><time>2026-03-22T09:32:20Z</time></trkpt><trkpt lat="48.46074104502116" lon="-3.947269062371832"><ele>140.0</ele><time>2026-03-22T09:32:21Z</time></trkpt><trkpt lat="48.46082812202888" lon="-3.947189704359919"><ele>140.0</ele><time>2026-03-22T09:32:22Z</time></trkpt><trkpt lat="48.46092806872685" lon="-3.947085195653184"><ele>140.0</ele><time>2026-03-22T09:32:23Z</time></trkpt><trkpt lat="48.461015119816764" lon="-3.946967573873078"><ele>140.0</ele><time>2026-03-22T09:32:24Z</time></trkpt><trkpt lat="48.461094756621144" lon="-3.9468390347869313"><ele>140.0</ele><time>2026-03-22T09:32:25Z</time></trkpt><trkpt lat="48.4611632738997" lon="-3.9466992058453942"><ele>140.75</ele><time>2026-03-22T09:32:26Z</time></trkpt><trkpt lat="48.46119966741162" lon="-3.9465561767066415"><ele>141.5</ele><time>2026-03-22T09:32:27Z</time></trkpt><trkpt lat="48.46122568192222" lon="-3.9464118648298783"><ele>142.25</ele><time>2026-03-22T09:32:28Z</time></trkpt><trkpt lat="48.461272611737925" lon="-3.946226201938172"><ele>143.0</ele><time>2026-03-22T09:32:29Z</time></trkpt><trkpt lat="48.461319810741514" lon="-3.9460563210827595"><ele>143.5</ele><time>2026-03-22T09:32:30Z</time></trkpt><trkpt lat="48.461341627305536" lon="-3.9459017277341766"><ele>144.0</ele><time>2026-03-22T09:32:31Z</time></trkpt><trkpt lat="48.46140462886771" lon="-3.945771408210058"><ele>144.5</ele><time>2026-03-22T09:32:32Z</time></trkpt><trkpt lat="48.46145749706423" lon="-3.9455985933905344"><ele>145.0</ele><time>2026-03-22T09:32:33Z</time></trkpt><trkpt lat="48.46150728964759" lon="-3.9454036853510823"><ele>145.25</ele><time>2026-03-22T09:32:34Z</time></trkpt><trkpt lat="48.46156088938032" lon="-3.9452329089296487"><ele>145.5</ele><time>2026-03-22T09:32:35Z</time></trkpt><trkpt lat="48.461608995220786" lon="-3.945080228207832"><ele>145.75</ele><time>2026-03-22T09:32:36Z</time></trkpt><trkpt lat="48.46165884218603" lon="-3.9449289872479847"><ele>146.0</ele><time>2026-03-22T09:32:37Z</time></trkpt><trkpt lat="48.46172727686405" lon="-3.944793951166254"><ele>146.2</ele><time>2026-03-22T09:32:38Z</time></trkpt><trkpt lat="48.461784823189326" lon="-3.944657894344881"><ele>146.39999999999998</ele><time>2026-03-22T09:32:39Z</time></trkpt><trkpt lat="48.46184400518053" lon="-3.9445665518966977"><ele>146.6</ele><time>2026-03-22T09:32:39.999Z</time></trkpt><trkpt lat="48.4619117124022" lon="-3.9444818541995637"><ele>146.79999999999998</ele><time>2026-03-22T09:32:40.999Z</time></trkpt><trkpt lat="48.46196997374434" lon="-3.9444207329517558"><ele>147.0</ele><time>2026-03-22T09:32:41.999Z</time></trkpt><trkpt lat="48.462068038277245" lon="-3.944376445371249"><ele>147.16666666666666</ele><time>2026-03-22T09:32:42.999Z</time></trkpt><trkpt lat="48.46217525962291" lon="-3.944343776673869"><ele>147.33333333333334</ele><time>2026-03-22T09:32:43.999Z</time></trkpt><trkpt lat="48.46226315179369" lon="-3.944351847697812"><ele>147.5</ele><time>2026-03-22T09:32:44.999Z</time></trkpt><trkpt lat="48.462326588502265" lon="-3.9443323546339735"><ele>147.66666666666669</ele><time>2026-03-22T09:32:45.999Z</time></trkpt><trkpt lat="48.462401387974005" lon="-3.944393436804681"><ele>147.83333333333334</ele><time>2026-03-22T09:32:46.999Z</time></trkpt><trkpt lat="48.46245126240879" lon="-3.9444945024713878"><ele>148.0</ele><time>2026-03-22T09:32:47.999Z</time></trkpt><trkpt lat="48.462483174019255" lon="-3.9445999154046207"><ele>148.0</ele><time>2026-03-22T09:32:48.999Z</time></trkpt><trkpt lat="48.462542862475324" lon="-3.944722611943618"><ele>148.0</ele><time>2026-03-22T09:32:49.999Z</time></trkpt><trkpt lat="48.46258234071585" lon="-3.9448199003644087"><ele>148.0</ele><time>2026-03-22T09:32:50.999Z</time></trkpt><trkpt lat="48.46261820935586" lon="-3.9449205230571662"><ele>148.0</ele><time>2026-03-22T09:32:51.999Z</time></trkpt><trkpt lat="48.46270890950292" lon="-3.9450255706501243"><ele>148.0</ele><time>2026-03-22T09:32:53.999Z</time></trkpt><trkpt lat="48.46265522608129" lon="-3.9451476642754337"><ele>148.0</ele><time>2026-03-22T09:32:55.999Z</time></trkpt><trkpt lat="48.462576770489" lon="-3.945272074546174"><ele>148.0</ele><time>2026-03-22T09:32:57.999Z</time></trkpt><trkpt lat="48.462566452922914" lon="-3.945371848077566"><ele>148.0</ele><time>2026-03-22T09:32:58.999Z</time></trkpt><trkpt lat="48.46253022238471" lon="-3.945461282826413"><ele>148.0</ele><time>2026-03-22T09:32:59.999Z</time></trkpt><trkpt lat="48.46250970330689" lon="-3.9455607703848954"><ele>148.0</ele><time>2026-03-22T09:33:00.999Z</time></trkpt><trkpt lat="48.462481644810296" lon="-3.9456618060235904"><ele>148.0</ele><time>2026-03-22T09:33:01.999Z</time></trkpt><trkpt lat="48.46245236876882" lon="-3.945764850145164"><ele>148.0</ele><time>2026-03-22T09:33:02.999Z</time></trkpt><trkpt lat="48.46244548479249" lon="-3.9458737471646255"><ele>148.0</ele><time>2026-03-22T09:33:03.999Z</time></trkpt><trkpt lat="48.462425725002916" lon="-3.9459810205040244"><ele>148.0</ele><time>2026-03-22T09:33:04.999Z</time></trkpt><trkpt lat="48.46241236325302" lon="-3.946152203986472"><ele>148.0</ele><time>2026-03-22T09:33:06.999Z</time></trkpt><trkpt lat="48.46241735117463" lon="-3.946251835982216"><ele>148.0</ele><time>2026-03-22T09:33:08.999Z</time></trkpt><trkpt lat="48.46249659301496" lon="-3.9463739256528827"><ele>148.0</ele><time>2026-03-22T09:33:15.999Z</time></trkpt><trkpt lat="48.4625572261349" lon="-3.946459168813947"><ele>148.0</ele><time>2026-03-22T09:33:16.999Z</time></trkpt><trkpt lat="48.46261961557458" lon="-3.9465411005936684"><ele>148.0</ele><time>2026-03-22T09:33:17.999Z</time></trkpt><trkpt lat="48.46267808756623" lon="-3.9466178878576224"><ele>148.0</ele><time>2026-03-22T09:33:18.999Z</time></trkpt><trkpt lat="48.46272642780521" lon="-3.9466814072908405"><ele>148.0</ele><time>2026-03-22T09:33:19.999Z</time></trkpt><trkpt lat="48.46280660054033" lon="-3.9467884378050453"><ele>148.0</ele><time>2026-03-22T09:33:21.999Z</time></trkpt><trkpt lat="48.46286525387516" lon="-3.9468667399764423"><ele>148.0</ele><time>2026-03-22T09:33:23.999Z</time></trkpt><trkpt lat="48.46290772933552" lon="-3.946944219858608"><ele>148.0</ele><time>2026-03-22T09:33:26.999Z</time></trkpt><trkpt lat="48.462961210352404" lon="-3.946994841514671"><ele>148.0</ele><time>2026-03-22T09:33:36.999Z</time></trkpt><trkpt lat="48.46289687762629" lon="-3.9471858020193906"><ele>148.0</ele><time>2026-03-22T09:33:37.999Z</time></trkpt><trkpt lat="48.462853112599575" lon="-3.9473417814771126"><ele>148.0</ele><time>2026-03-22T09:33:38.999Z</time></trkpt><trkpt lat="48.462808085556766" lon="-3.9475017696273498"><ele>148.0</ele><time>2026-03-22T09:33:39.999Z</time></trkpt><trkpt lat="48.46275305824879" lon="-3.9476781952154627"><ele>148.0</ele><time>2026-03-22T09:33:40.999Z</time></trkpt><trkpt lat="48.462690109214776" lon="-3.9478646723827358"><ele>148.0</ele><time>2026-03-22T09:33:41.999Z</time></trkpt><trkpt lat="48.46263015434093" lon="-3.9480469936974623"><ele>148.0</ele><time>2026-03-22T09:33:42.999Z</time></trkpt><trkpt lat="48.46256881294717" lon="-3.9482365298080007"><ele>148.0</ele><time>2026-03-22T09:33:43.999Z</time></trkpt><trkpt lat="48.46250665851957" lon="-3.948427569214453"><ele>147.75</ele><time>2026-03-22T09:33:44.999Z</time></trkpt><trkpt lat="48.46244356342596" lon="-3.948625090804419"><ele>147.5</ele><time>2026-03-22T09:33:45.999Z</time></trkpt><trkpt lat="48.462380521609234" lon="-3.94882666160313"><ele>147.25</ele><time>2026-03-22T09:33:46.999Z</time></trkpt><trkpt lat="48.462318050167205" lon="-3.9490337141685976"><ele>147.0</ele><time>2026-03-22T09:33:47.999Z</time></trkpt><trkpt lat="48.46225117038113" lon="-3.9492399013092516"><ele>146.75</ele><time>2026-03-22T09:33:48.999Z</time></trkpt><trkpt lat="48.46218821811833" lon="-3.9494427228572038"><ele>146.5</ele><time>2026-03-22T09:33:49.999Z</time></trkpt><trkpt lat="48.46212113966827" lon="-3.9496484420067497"><ele>146.25</ele><time>2026-03-22T09:33:51Z</time></trkpt><trkpt lat="48.46206000421793" lon="-3.9498502091789542"><ele>146.0</ele><time>2026-03-22T09:33:52Z</time></trkpt><trkpt lat="48.46201313915029" lon="-3.950051258217207"><ele>144.75</ele><time>2026-03-22T09:33:53Z</time></trkpt><trkpt lat="48.46197996112273" lon="-3.950256233951772"><ele>143.5</ele><time>2026-03-22T09:33:54Z</time></trkpt><trkpt lat="48.46195641031623" lon="-3.9504636169716036"><ele>142.25</ele><time>2026-03-22T09:33:55Z</time></trkpt><trkpt lat="48.461939247497575" lon="-3.950667806179722"><ele>141.0</ele><time>2026-03-22T09:33:56Z</time></trkpt><trkpt lat="48.46192958037606" lon="-3.950875697794873"><ele>139.75</ele><time>2026-03-22T09:33:57Z</time></trkpt><trkpt lat="48.461934093106436" lon="-3.95109027532062"><ele>138.5</ele><time>2026-03-22T09:33:58Z</time></trkpt><trkpt lat="48.46194827639237" lon="-3.951300085008089"><ele>137.25</ele><time>2026-03-22T09:33:59Z</time></trkpt><trkpt lat="48.461972618967714" lon="-3.951521683322129"><ele>136.0</ele><time>2026-03-22T09:34:00Z</time></trkpt><trkpt lat="48.462007293212025" lon="-3.9517464974975134"><ele>135.0</ele><time>2026-03-22T09:34:01Z</time></trkpt><trkpt lat="48.462047003040865" lon="-3.9519758231510105"><ele>134.0</ele><time>2026-03-22T09:34:02Z</time></trkpt><trkpt lat="48.46208372656409" lon="-3.952206665303579"><ele>133.0</ele><time>2026-03-22T09:34:03Z</time></trkpt><trkpt lat="48.462110387880514" lon="-3.9524522554155546"><ele>134.33333333333334</ele><time>2026-03-22T09:34:04Z</time></trkpt><trkpt lat="48.46212824918841" lon="-3.952707220724669"><ele>135.66666666666666</ele><time>2026-03-22T09:34:05Z</time></trkpt><trkpt lat="48.4621406882343" lon="-3.9529633145549967"><ele>137.0</ele><time>2026-03-22T09:34:06Z</time></trkpt><trkpt lat="48.4621728317409" lon="-3.9532269017136823"><ele>137.33333333333331</ele><time>2026-03-22T09:34:07Z</time></trkpt><trkpt lat="48.462178505727884" lon="-3.953521508367966"><ele>137.66666666666666</ele><time>2026-03-22T09:34:08Z</time></trkpt><trkpt lat="48.462188392949756" lon="-3.9537829745489264"><ele>138.0</ele><time>2026-03-22T09:34:09Z</time></trkpt><trkpt lat="48.46219127106007" lon="-3.954060954983346"><ele>138.33333333333334</ele><time>2026-03-22T09:34:10Z</time></trkpt><trkpt lat="48.4621850473303" lon="-3.954312343530443"><ele>138.66666666666669</ele><time>2026-03-22T09:34:11Z</time></trkpt><trkpt lat="48.46217563310308" lon="-3.9545388728331643"><ele>139.0</ele><time>2026-03-22T09:34:12Z</time></trkpt><trkpt lat="48.46216260091916" lon="-3.954757409022106"><ele>139.0</ele><time>2026-03-22T09:34:13Z</time></trkpt><trkpt lat="48.46214543269402" lon="-3.954975791239676"><ele>139.0</ele><time>2026-03-22T09:34:14Z</time></trkpt><trkpt lat="48.462133343896745" lon="-3.9551851569119516"><ele>139.0</ele><time>2026-03-22T09:34:15Z</time></trkpt><trkpt lat="48.46211825002028" lon="-3.955402471570449"><ele>139.0</ele><time>2026-03-22T09:34:16Z</time></trkpt><trkpt lat="48.462104873918925" lon="-3.9556178593827998"><ele>136.0</ele><time>2026-03-22T09:34:17Z</time></trkpt><trkpt lat="48.46209679357218" lon="-3.9558400192989955"><ele>133.0</ele><time>2026-03-22T09:34:18Z</time></trkpt><trkpt lat="48.46209607244061" lon="-3.9560617806916407"><ele>130.0</ele><time>2026-03-22T09:34:19Z</time></trkpt><trkpt lat="48.46209841318139" lon="-3.95627842667988"><ele>127.0</ele><time>2026-03-22T09:34:20Z</time></trkpt><trkpt lat="48.46210242671957" lon="-3.95650154183489"><ele>126.75</ele><time>2026-03-22T09:34:21Z</time></trkpt><trkpt lat="48.46210643961383" lon="-3.956698876737256"><ele>126.5</ele><time>2026-03-22T09:34:22Z</time></trkpt><trkpt lat="48.462121101739896" lon="-3.9568783995750967"><ele>126.25</ele><time>2026-03-22T09:34:23Z</time></trkpt><trkpt lat="48.46212092764051" lon="-3.9570378206254317"><ele>126.0</ele><time>2026-03-22T09:34:24Z</time></trkpt><trkpt lat="48.46210374276068" lon="-3.9571882002953873"><ele>128.8</ele><time>2026-03-22T09:34:25Z</time></trkpt><trkpt lat="48.46211942639685" lon="-3.957303799326427"><ele>131.6</ele><time>2026-03-22T09:34:26Z</time></trkpt><trkpt lat="48.46213267608966" lon="-3.9574025207626637"><ele>134.4</ele><time>2026-03-22T09:34:28Z</time></trkpt><trkpt lat="48.46224564621719" lon="-3.9573603675231586"><ele>137.2</ele><time>2026-03-22T09:34:30Z</time></trkpt><trkpt lat="48.46234723799575" lon="-3.957343217217778"><ele>140.0</ele><time>2026-03-22T09:34:31Z</time></trkpt><trkpt lat="48.46253262988363" lon="-3.9572894688967226"><ele>140.0</ele><time>2026-03-22T09:34:32Z</time></trkpt><trkpt lat="48.46265945431511" lon="-3.9572748142897733"><ele>140.0</ele><time>2026-03-22T09:34:33Z</time></trkpt><trkpt lat="48.46282616544739" lon="-3.957195953256371"><ele>140.0</ele><time>2026-03-22T09:34:34Z</time></trkpt><trkpt lat="48.46299591797815" lon="-3.9571237025652755"><ele>141.0</ele><time>2026-03-22T09:34:35Z</time></trkpt><trkpt lat="48.46311739285648" lon="-3.9570372213758898"><ele>142.0</ele><time>2026-03-22T09:34:36Z</time></trkpt><trkpt lat="48.46322157816536" lon="-3.9570225449321126"><ele>143.0</ele><time>2026-03-22T09:34:37Z</time></trkpt><trkpt lat="48.46334187386215" lon="-3.957025763850111"><ele>144.0</ele><time>2026-03-22T09:34:38Z</time></trkpt><trkpt lat="48.46347505439061" lon="-3.9570521051413943"><ele>144.0</ele><time>2026-03-22T09:34:39Z</time></trkpt><trkpt lat="48.463605292931035" lon="-3.9570546214899673"><ele>144.0</ele><time>2026-03-22T09:34:40Z</time></trkpt><trkpt lat="48.4637375075605" lon="-3.9570106222914054"><ele>144.0</ele><time>2026-03-22T09:34:41Z</time></trkpt><trkpt lat="48.46391104076253" lon="-3.9569008918066912"><ele>144.33333333333334</ele><time>2026-03-22T09:34:42Z</time></trkpt><trkpt lat="48.46409848580733" lon="-3.9568079865351087"><ele>144.66666666666669</ele><time>2026-03-22T09:34:43Z</time></trkpt><trkpt lat="48.46426484305153" lon="-3.956741961517068"><ele>145.0</ele><time>2026-03-22T09:34:43.999Z</time></trkpt><trkpt lat="48.464393370107906" lon="-3.95669696981875"><ele>145.0</ele><time>2026-03-22T09:34:44.999Z</time></trkpt><trkpt lat="48.464523943399165" lon="-3.956649832061195"><ele>145.0</ele><time>2026-03-22T09:34:45.999Z</time></trkpt><trkpt lat="48.464665549272674" lon="-3.9566267637090524"><ele>145.0</ele><time>2026-03-22T09:34:46.999Z</time></trkpt><trkpt lat="48.46476953794976" lon="-3.956634249649021"><ele>145.0</ele><time>2026-03-22T09:34:47.999Z</time></trkpt><trkpt lat="48.464849818250094" lon="-3.956648359865041"><ele>143.4</ele><time>2026-03-22T09:34:48.999Z</time></trkpt><trkpt lat="48.464931017230974" lon="-3.956718505879072"><ele>141.8</ele><time>2026-03-22T09:34:49.999Z</time></trkpt><trkpt lat="48.46501742149765" lon="-3.9568090641040228"><ele>140.2</ele><time>2026-03-22T09:34:50.999Z</time></trkpt><trkpt lat="48.465104627472044" lon="-3.956876488670406"><ele>138.6</ele><time>2026-03-22T09:34:51.999Z</time></trkpt><trkpt lat="48.46515822340745" lon="-3.9569438924992886"><ele>137.0</ele><time>2026-03-22T09:34:52.999Z</time></trkpt><trkpt lat="48.465228005311054" lon="-3.957033068121714"><ele>137.0</ele><time>2026-03-22T09:34:53.999Z</time></trkpt><trkpt lat="48.465335904531365" lon="-3.957170800365847"><ele>137.0</ele><time>2026-03-22T09:34:54.999Z</time></trkpt><trkpt lat="48.465451597456195" lon="-3.9572996036397723"><ele>137.0</ele><time>2026-03-22T09:34:55.999Z</time></trkpt><trkpt lat="48.46555837687556" lon="-3.9574019665505182"><ele>137.0</ele><time>2026-03-22T09:34:56.999Z</time></trkpt><trkpt lat="48.465649641873554" lon="-3.9575104648827972"><ele>135.16666666666666</ele><time>2026-03-22T09:34:57.999Z</time></trkpt><trkpt lat="48.46573509900107" lon="-3.9576175095903787"><ele>133.33333333333331</ele><time>2026-03-22T09:34:58.999Z</time></trkpt><trkpt lat="48.465824567060764" lon="-3.957691602988756"><ele>131.5</ele><time>2026-03-22T09:34:59.999Z</time></trkpt><trkpt lat="48.465910936497636" lon="-3.957735249584198"><ele>129.66666666666666</ele><time>2026-03-22T09:35:00.999Z</time></trkpt><trkpt lat="48.46596940401644" lon="-3.9577797242509205"><ele>127.83333333333333</ele><time>2026-03-22T09:35:01.999Z</time></trkpt><trkpt lat="48.46601125307684" lon="-3.957865024081889"><ele>126.0</ele><time>2026-03-22T09:35:03.999Z</time></trkpt><trkpt lat="48.466026600520685" lon="-3.958047136280145"><ele>126.0</ele><time>2026-03-22T09:35:05.999Z</time></trkpt><trkpt lat="48.46601737541185" lon="-3.958190041064317"><ele>126.0</ele><time>2026-03-22T09:35:06.999Z</time></trkpt><trkpt lat="48.46601757259569" lon="-3.958350190271187"><ele>126.0</ele><time>2026-03-22T09:35:07.999Z</time></trkpt><trkpt lat="48.466045435511" lon="-3.958506713765144"><ele>126.0</ele><time>2026-03-22T09:35:08.999Z</time></trkpt><trkpt lat="48.46610253970998" lon="-3.9586405184459386"><ele>126.0</ele><time>2026-03-22T09:35:09.999Z</time></trkpt><trkpt lat="48.466198856359334" lon="-3.958727708926335"><ele>126.0</ele><time>2026-03-22T09:35:10.999Z</time></trkpt><trkpt lat="48.46626543799184" lon="-3.958854054779262"><ele>126.0</ele><time>2026-03-22T09:35:11.999Z</time></trkpt><trkpt lat="48.46635232667206" lon="-3.9589007472695785"><ele>126.0</ele><time>2026-03-22T09:35:12.999Z</time></trkpt><trkpt lat="48.46643126646972" lon="-3.9589651280027462"><ele>126.0</ele><time>2026-03-22T09:35:13.999Z</time></trkpt><trkpt lat="48.46650305872487" lon="-3.959023682214137"><ele>126.0</ele><time>2026-03-22T09:35:14.999Z</time></trkpt><trkpt lat="48.46657140204403" lon="-3.959092817474156"><ele>124.4</ele><time>2026-03-22T09:35:15.999Z</time></trkpt><trkpt lat="48.4666368500674" lon="-3.9591271974236464"><ele>122.8</ele><time>2026-03-22T09:35:16.999Z</time></trkpt><trkpt lat="48.466715174305975" lon="-3.9591966912380605"><ele>121.20000000000002</ele><time>2026-03-22T09:35:17.999Z</time></trkpt><trkpt lat="48.466842231353525" lon="-3.95920691242365"><ele>119.60000000000001</ele><time>2026-03-22T09:35:18.999Z</time></trkpt><trkpt lat="48.46693680482603" lon="-3.959213877210475"><ele>118.0</ele><time>2026-03-22T09:35:19.999Z</time></trkpt><trkpt lat="48.46701140695412" lon="-3.959178212514694"><ele>118.0</ele><time>2026-03-22T09:35:20.999Z</time></trkpt><trkpt lat="48.467100968397" lon="-3.9590965990385234"><ele>118.00000000000001</ele><time>2026-03-22T09:35:22.999Z</time></trkpt><trkpt lat="48.46717240312094" lon="-3.9591503218701263"><ele>118.00000000000001</ele><time>2026-03-22T09:35:26.999Z</time></trkpt><trkpt lat="48.46724878147837" lon="-3.9591685477269762"><ele>118.0</ele><time>2026-03-22T09:35:28.999Z</time></trkpt><trkpt lat="48.46733095676262" lon="-3.959208777478432"><ele>118.0</ele><time>2026-03-22T09:35:30.999Z</time></trkpt><trkpt lat="48.46744766506461" lon="-3.9592460928765134"><ele>117.33333333333334</ele><time>2026-03-22T09:35:32.999Z</time></trkpt><trkpt lat="48.46751167888965" lon="-3.9592960597773867"><ele>116.66666666666667</ele><time>2026-03-22T09:35:34.999Z</time></trkpt><trkpt lat="48.467600029274536" lon="-3.9593377696909897"><ele>116.0</ele><time>2026-03-22T09:35:36.999Z</time></trkpt><trkpt lat="48.46765472386721" lon="-3.959394609178424"><ele>115.33333333333334</ele><time>2026-03-22T09:35:38.999Z</time></trkpt><trkpt lat="48.46773318905572" lon="-3.9594358284882505"><ele>114.66666666666667</ele><time>2026-03-22T09:35:40.999Z</time></trkpt><trkpt lat="48.46782578214324" lon="-3.959460521462389"><ele>114.0</ele><time>2026-03-22T09:35:42.999Z</time></trkpt><trkpt lat="48.467923753786586" lon="-3.9594906455208263"><ele>113.5</ele><time>2026-03-22T09:35:44.999Z</time></trkpt><trkpt lat="48.46801480208919" lon="-3.9595403873368777"><ele>113.0</ele><time>2026-03-22T09:35:46.999Z</time></trkpt><trkpt lat="48.46809898998512" lon="-3.959590463917346"><ele>112.5</ele><time>2026-03-22T09:35:48.999Z</time></trkpt><trkpt lat="48.468162368150935" lon="-3.959618239349313"><ele>112.0</ele><time>2026-03-22T09:35:49.999Z</time></trkpt><trkpt lat="48.46825739094028" lon="-3.9596563821674677"><ele>111.5</ele><time>2026-03-22T09:35:51.999Z</time></trkpt><trkpt lat="48.46833921132331" lon="-3.959703862676595"><ele>111.0</ele><time>2026-03-22T09:35:53.999Z</time></trkpt><trkpt lat="48.46841683017041" lon="-3.959736392835192"><ele>111.0</ele><time>2026-03-22T09:35:55.999Z</time></trkpt><trkpt lat="48.468491546722795" lon="-3.9597767434425926"><ele>111.0</ele><time>2026-03-22T09:35:58Z</time></trkpt><trkpt lat="48.46858757288547" lon="-3.9598331320314615"><ele>111.0</ele><time>2026-03-22T09:36:00Z</time></trkpt><trkpt lat="48.46868056644002" lon="-3.9598795867749805"><ele>111.0</ele><time>2026-03-22T09:36:02Z</time></trkpt><trkpt lat="48.468771245978935" lon="-3.9599101146187627"><ele>111.0</ele><time>2026-03-22T09:36:04Z</time></trkpt><trkpt lat="48.46887956594792" lon="-3.9599401565316126"><ele>110.4</ele><time>2026-03-22T09:36:06Z</time></trkpt><trkpt lat="48.46897272157334" lon="-3.9599936567758074"><ele>109.8</ele><time>2026-03-22T09:36:08Z</time></trkpt><trkpt lat="48.46905790039168" lon="-3.9600431319292357"><ele>109.20000000000002</ele><time>2026-03-22T09:36:10Z</time></trkpt><trkpt lat="48.4691741486894" lon="-3.960089119887613"><ele>108.60000000000001</ele><time>2026-03-22T09:36:12Z</time></trkpt><trkpt lat="48.46923644570189" lon="-3.9601111747121736"><ele>108.0</ele><time>2026-03-22T09:36:13Z</time></trkpt><trkpt lat="48.46930882996972" lon="-3.960141890968515"><ele>108.0</ele><time>2026-03-22T09:36:14Z</time></trkpt><trkpt lat="48.46942033486451" lon="-3.960215391693105"><ele>108.0</ele><time>2026-03-22T09:36:16Z</time></trkpt><trkpt lat="48.46948354984098" lon="-3.96023369119142"><ele>108.0</ele><time>2026-03-22T09:36:17Z</time></trkpt><trkpt lat="48.46957574171598" lon="-3.9602858108300376"><ele>108.0</ele><time>2026-03-22T09:36:19Z</time></trkpt><trkpt lat="48.46956664231476" lon="-3.960402251130954"><ele>108.0</ele><time>2026-03-22T09:36:24Z</time></trkpt><trkpt lat="48.46952732684185" lon="-3.9604955037442595"><ele>108.0</ele><time>2026-03-22T09:36:25Z</time></trkpt><trkpt lat="48.469467530286195" lon="-3.9605841685697594"><ele>108.0</ele><time>2026-03-22T09:36:26Z</time></trkpt><trkpt lat="48.469400152460466" lon="-3.9606875395769587"><ele>108.00000000000001</ele><time>2026-03-22T09:36:27Z</time></trkpt><trkpt lat="48.46932719650507" lon="-3.9608071266643723"><ele>108.00000000000001</ele><time>2026-03-22T09:36:28Z</time></trkpt><trkpt lat="48.46925746451644" lon="-3.960913908465933"><ele>108.0</ele><time>2026-03-22T09:36:29Z</time></trkpt><trkpt lat="48.46919162020305" lon="-3.961002830132845"><ele>108.0</ele><time>2026-03-22T09:36:30Z</time></trkpt><trkpt lat="48.469149671085404" lon="-3.961152864490592"><ele>108.16666666666667</ele><time>2026-03-22T09:36:32Z</time></trkpt><trkpt lat="48.46912231497806" lon="-3.961254245022775"><ele>108.33333333333334</ele><time>2026-03-22T09:36:34Z</time></trkpt><trkpt lat="48.469064837449416" lon="-3.961308006462726"><ele>108.5</ele><time>2026-03-22T09:36:35Z</time></trkpt><trkpt lat="48.46899456370176" lon="-3.9614383765310746"><ele>108.66666666666667</ele><time>2026-03-22T09:36:37Z</time></trkpt><trkpt lat="48.46898121859994" lon="-3.961559977830694"><ele>108.83333333333334</ele><time>2026-03-22T09:36:43Z</time></trkpt><trkpt lat="48.46896138681698" lon="-3.961718477001599"><ele>109.0</ele><time>2026-03-22T09:36:45Z</time></trkpt><trkpt lat="48.468913480953034" lon="-3.9618427560616345"><ele>109.0</ele><time>2026-03-22T09:36:47Z</time></trkpt><trkpt lat="48.46879399576346" lon="-3.9619237082350094"><ele>109.0</ele><time>2026-03-22T09:36:51Z</time></trkpt><trkpt lat="48.46872393526273" lon="-3.9619238489661215"><ele>109.0</ele><time>2026-03-22T09:36:52.999Z</time></trkpt><trkpt lat="48.468750448204844" lon="-3.9617288066397127"><ele>109.0</ele><time>2026-03-22T09:36:56.999Z</time></trkpt><trkpt lat="48.46879161858777" lon="-3.961613188334277"><ele>109.0</ele><time>2026-03-22T09:36:57.999Z</time></trkpt><trkpt lat="48.46884561725315" lon="-3.9615502552404442"><ele>109.0</ele><time>2026-03-22T09:36:59.999Z</time></trkpt><trkpt lat="48.46895727285711" lon="-3.9614858498916723"><ele>109.0</ele><time>2026-03-22T09:37:01.999Z</time></trkpt><trkpt lat="48.469041731447746" lon="-3.961381309045693"><ele>109.0</ele><time>2026-03-22T09:37:03.999Z</time></trkpt><trkpt lat="48.46908620547985" lon="-3.961272857449377"><ele>109.0</ele><time>2026-03-22T09:37:05.999Z</time></trkpt><trkpt lat="48.46915668843757" lon="-3.9612184793703342"><ele>109.0</ele><time>2026-03-22T09:37:07.999Z</time></trkpt><trkpt lat="48.46921010882415" lon="-3.961271493414206"><ele>109.0</ele><time>2026-03-22T09:37:09.999Z</time></trkpt><trkpt lat="48.46917316782992" lon="-3.961435781337202"><ele>109.0</ele><time>2026-03-22T09:37:11.999Z</time></trkpt><trkpt lat="48.469134824075546" lon="-3.961568071941158"><ele>109.0</ele><time>2026-03-22T09:37:12.999Z</time></trkpt><trkpt lat="48.46910473422078" lon="-3.9617238431768937"><ele>109.0</ele><time>2026-03-22T09:37:13.999Z</time></trkpt><trkpt lat="48.469073186746876" lon="-3.9618919894518054"><ele>109.0</ele><time>2026-03-22T09:37:14.999Z</time></trkpt><trkpt lat="48.46902209511537" lon="-3.9620742090630703"><ele>108.4</ele><time>2026-03-22T09:37:15.999Z</time></trkpt><trkpt lat="48.46895718636856" lon="-3.962246701156798"><ele>107.80000000000001</ele><time>2026-03-22T09:37:16.999Z</time></trkpt><trkpt lat="48.468909372112684" lon="-3.962395289075977"><ele>107.19999999999999</ele><time>2026-03-22T09:37:17.999Z</time></trkpt><trkpt lat="48.4688558019794" lon="-3.962491119606131"><ele>106.6</ele><time>2026-03-22T09:37:18.999Z</time></trkpt><trkpt lat="48.468825023452396" lon="-3.962581161097971"><ele>106.0</ele><time>2026-03-22T09:37:19.999Z</time></trkpt><trkpt lat="48.468792875930156" lon="-3.962706795733533"><ele>105.6</ele><time>2026-03-22T09:37:20.999Z</time></trkpt><trkpt lat="48.468775217681355" lon="-3.9628199297281927"><ele>105.19999999999999</ele><time>2026-03-22T09:37:21.999Z</time></trkpt><trkpt lat="48.46877079279872" lon="-3.962925648374342"><ele>104.80000000000001</ele><time>2026-03-22T09:37:22.999Z</time></trkpt><trkpt lat="48.46874477843335" lon="-3.9630974954920872"><ele>104.4</ele><time>2026-03-22T09:37:24.999Z</time></trkpt><trkpt lat="48.468720129498294" lon="-3.9632703803408305"><ele>104.0</ele><time>2026-03-22T09:37:26.999Z</time></trkpt><trkpt lat="48.46871299344216" lon="-3.9634437461418766"><ele>103.4</ele><time>2026-03-22T09:37:28.999Z</time></trkpt><trkpt lat="48.46874616249669" lon="-3.963581165976228"><ele>102.80000000000001</ele><time>2026-03-22T09:37:30.999Z</time></trkpt><trkpt lat="48.46883137572709" lon="-3.9635923523957026"><ele>102.19999999999999</ele><time>2026-03-22T09:37:32.999Z</time></trkpt><trkpt lat="48.46892646972474" lon="-3.963467538098681"><ele>101.6</ele><time>2026-03-22T09:37:34.999Z</time></trkpt><trkpt lat="48.46900954562943" lon="-3.963368963860573"><ele>101.0</ele><time>2026-03-22T09:37:36.999Z</time></trkpt><trkpt lat="48.469088985438226" lon="-3.963447443551752"><ele>101.0</ele><time>2026-03-22T09:37:38.999Z</time></trkpt><trkpt lat="48.469164695688725" lon="-3.963527403258883"><ele>101.0</ele><time>2026-03-22T09:37:39.999Z</time></trkpt><trkpt lat="48.46924738060444" lon="-3.9635838632550398"><ele>101.0</ele><time>2026-03-22T09:37:40.999Z</time></trkpt><trkpt lat="48.4693330405882" lon="-3.9636448900823065"><ele>101.0</ele><time>2026-03-22T09:37:41.999Z</time></trkpt><trkpt lat="48.46938734521485" lon="-3.963695817544876"><ele>101.0</ele><time>2026-03-22T09:37:42.999Z</time></trkpt><trkpt lat="48.46940424258992" lon="-3.9638771862268185"><ele>101.0</ele><time>2026-03-22T09:37:44.999Z</time></trkpt><trkpt lat="48.46938876252029" lon="-3.9640637949212625"><ele>101.0</ele><time>2026-03-22T09:37:45.999Z</time></trkpt><trkpt lat="48.46940671605855" lon="-3.96425195029365"><ele>101.0</ele><time>2026-03-22T09:37:46.999Z</time></trkpt><trkpt lat="48.46942731182743" lon="-3.964449851928308"><ele>101.0</ele><time>2026-03-22T09:37:47.999Z</time></trkpt><trkpt lat="48.469439062721165" lon="-3.964597649144695"><ele>100.6</ele><time>2026-03-22T09:37:48.999Z</time></trkpt><trkpt lat="48.4694454550479" lon="-3.9647270920793156"><ele>100.19999999999999</ele><time>2026-03-22T09:37:49.999Z</time></trkpt><trkpt lat="48.46950437846987" lon="-3.964809952462517"><ele>99.80000000000001</ele><time>2026-03-22T09:37:50.999Z</time></trkpt><trkpt lat="48.469607743994175" lon="-3.9649174670598026"><ele>99.4</ele><time>2026-03-22T09:37:51.999Z</time></trkpt><trkpt lat="48.46971347867571" lon="-3.9650238798516306"><ele>99.0</ele><time>2026-03-22T09:37:52.999Z</time></trkpt><trkpt lat="48.46979488717243" lon="-3.96513234401102"><ele>100.0</ele><time>2026-03-22T09:37:53.999Z</time></trkpt><trkpt lat="48.46986078901091" lon="-3.9652135322657847"><ele>101.0</ele><time>2026-03-22T09:37:54.999Z</time></trkpt><trkpt lat="48.46993435522785" lon="-3.9652926946079634"><ele>102.0</ele><time>2026-03-22T09:37:55.999Z</time></trkpt><trkpt lat="48.47002122942006" lon="-3.9653950658055406"><ele>103.0</ele><time>2026-03-22T09:37:56.999Z</time></trkpt><trkpt lat="48.47010233301103" lon="-3.965520023834928"><ele>104.0</ele><time>2026-03-22T09:37:57.999Z</time></trkpt><trkpt lat="48.47017856092586" lon="-3.9656279390423634"><ele>103.99999999999999</ele><time>2026-03-22T09:37:58.999Z</time></trkpt><trkpt lat="48.47023397594317" lon="-3.9657082979961267"><ele>104.0</ele><time>2026-03-22T09:37:59.999Z</time></trkpt><trkpt lat="48.4702778631614" lon="-3.9657875849048714"><ele>104.0</ele><time>2026-03-22T09:38:00.999Z</time></trkpt><trkpt lat="48.470334609880645" lon="-3.9658593644749534"><ele>104.0</ele><time>2026-03-22T09:38:01.999Z</time></trkpt><trkpt lat="48.47039400542323" lon="-3.9659623041121317"><ele>103.99999999999999</ele><time>2026-03-22T09:38:04Z</time></trkpt><trkpt lat="48.47030765538973" lon="-3.9660923780607136"><ele>104.0</ele><time>2026-03-22T09:38:08Z</time></trkpt><trkpt lat="48.47024991546761" lon="-3.966187083184874"><ele>102.6</ele><time>2026-03-22T09:38:09Z</time></trkpt><trkpt lat="48.470182684099036" lon="-3.966283440883349"><ele>101.2</ele><time>2026-03-22T09:38:10Z</time></trkpt><trkpt lat="48.47010453064683" lon="-3.966380852741076"><ele>99.8</ele><time>2026-03-22T09:38:11Z</time></trkpt><trkpt lat="48.47002614695343" lon="-3.966475569670748"><ele>98.39999999999999</ele><time>2026-03-22T09:38:12Z</time></trkpt><trkpt lat="48.469946551733095" lon="-3.9665358800608885"><ele>97.0</ele><time>2026-03-22T09:38:13Z</time></trkpt><trkpt lat="48.46987355667382" lon="-3.966591353077673"><ele>97.00000000000001</ele><time>2026-03-22T09:38:14Z</time></trkpt><trkpt lat="48.46981042657981" lon="-3.966632832159785"><ele>97.0</ele><time>2026-03-22T09:38:15Z</time></trkpt><trkpt lat="48.469727944744214" lon="-3.9667016922842953"><ele>97.0</ele><time>2026-03-22T09:38:17Z</time></trkpt><trkpt lat="48.469673732204505" lon="-3.9667709452632898"><ele>97.0</ele><time>2026-03-22T09:38:52Z</time></trkpt><trkpt lat="48.46959942056365" lon="-3.966847514971352"><ele>97.00000000000001</ele><time>2026-03-22T09:38:55Z</time></trkpt><trkpt lat="48.469555476636366" lon="-3.966916678090577"><ele>97.0</ele><time>2026-03-22T09:38:57Z</time></trkpt><trkpt lat="48.469498196963244" lon="-3.967036161529367"><ele>96.50000000000001</ele><time>2026-03-22T09:39:00Z</time></trkpt><trkpt lat="48.469422811790146" lon="-3.967135743737027"><ele>96.0</ele><time>2026-03-22T09:39:01.999Z</time></trkpt><trkpt lat="48.46937182916858" lon="-3.9672152672954857"><ele>95.5</ele><time>2026-03-22T09:39:02.999Z</time></trkpt><trkpt lat="48.46930590000402" lon="-3.9672548829873664"><ele>95.0</ele><time>2026-03-22T09:39:03.999Z</time></trkpt><trkpt lat="48.469215249930755" lon="-3.967306676622851"><ele>94.5</ele><time>2026-03-22T09:39:04.999Z</time></trkpt><trkpt lat="48.46911267629258" lon="-3.9673311134708857"><ele>94.0</ele><time>2026-03-22T09:39:05.999Z</time></trkpt><trkpt lat="48.46900033120933" lon="-3.967338934067325"><ele>94.0</ele><time>2026-03-22T09:39:06.999Z</time></trkpt><trkpt lat="48.46887074593627" lon="-3.9673581099565585"><ele>94.0</ele><time>2026-03-22T09:39:07.999Z</time></trkpt><trkpt lat="48.46874934804532" lon="-3.9673870259650106"><ele>94.0</ele><time>2026-03-22T09:39:08.999Z</time></trkpt><trkpt lat="48.46863160823107" lon="-3.9674051219148856"><ele>94.0</ele><time>2026-03-22T09:39:09.999Z</time></trkpt><trkpt lat="48.468497284638445" lon="-3.967402778907804"><ele>95.5</ele><time>2026-03-22T09:39:10.999Z</time></trkpt><trkpt lat="48.468354793092146" lon="-3.9674107582072122"><ele>97.0</ele><time>2026-03-22T09:39:11.999Z</time></trkpt><trkpt lat="48.46823070284647" lon="-3.9674699919266687"><ele>98.5</ele><time>2026-03-22T09:39:12.999Z</time></trkpt><trkpt lat="48.468138084230674" lon="-3.967527357512193"><ele>100.0</ele><time>2026-03-22T09:39:13.999Z</time></trkpt><trkpt lat="48.46804313714394" lon="-3.9675979565502626"><ele>100.4</ele><time>2026-03-22T09:39:14.999Z</time></trkpt><trkpt lat="48.467957200401045" lon="-3.9676392554269335"><ele>100.8</ele><time>2026-03-22T09:39:15.999Z</time></trkpt><trkpt lat="48.46788616730221" lon="-3.9676822731331205"><ele>101.19999999999999</ele><time>2026-03-22T09:39:16.999Z</time></trkpt><trkpt lat="48.4678318123944" lon="-3.96776760348579"><ele>101.6</ele><time>2026-03-22T09:39:17.999Z</time></trkpt><trkpt lat="48.467765773473815" lon="-3.9679215683539373"><ele>102.0</ele><time>2026-03-22T09:39:18.999Z</time></trkpt><trkpt lat="48.46772454769744" lon="-3.968097625098826"><ele>103.19999999999999</ele><time>2026-03-22T09:39:19.999Z</time></trkpt><trkpt lat="48.46765318108339" lon="-3.968275947185877"><ele>104.4</ele><time>2026-03-22T09:39:20.999Z</time></trkpt><trkpt lat="48.46760246839397" lon="-3.968424615666172"><ele>105.60000000000001</ele><time>2026-03-22T09:39:21.999Z</time></trkpt><trkpt lat="48.467535837319" lon="-3.9685332871963364"><ele>106.80000000000001</ele><time>2026-03-22T09:39:22.999Z</time></trkpt><trkpt lat="48.46747503916457" lon="-3.968655230746559"><ele>108.0</ele><time>2026-03-22T09:39:23.999Z</time></trkpt><trkpt lat="48.4673924456843" lon="-3.9687861725783145"><ele>108.0</ele><time>2026-03-22T09:39:24.999Z</time></trkpt><trkpt lat="48.46730120094622" lon="-3.9689185786986316"><ele>108.0</ele><time>2026-03-22T09:39:25.999Z</time></trkpt><trkpt lat="48.46721224505504" lon="-3.9690516326770475"><ele>108.0</ele><time>2026-03-22T09:39:26.999Z</time></trkpt><trkpt lat="48.467127503361084" lon="-3.969144688179067"><ele>108.0</ele><time>2026-03-22T09:39:27.999Z</time></trkpt><trkpt lat="48.46703171802531" lon="-3.9692186071033557"><ele>108.0</ele><time>2026-03-22T09:39:28.999Z</time></trkpt><trkpt lat="48.46692929065859" lon="-3.9692991112239198"><ele>108.00000000000001</ele><time>2026-03-22T09:39:29.999Z</time></trkpt><trkpt lat="48.466826921469625" lon="-3.9693683272158564"><ele>108.00000000000001</ele><time>2026-03-22T09:39:30.999Z</time></trkpt><trkpt lat="48.46672275064381" lon="-3.969430245835665"><ele>108.0</ele><time>2026-03-22T09:39:31.999Z</time></trkpt><trkpt lat="48.46665506383629" lon="-3.969557046165473"><ele>108.0</ele><time>2026-03-22T09:39:32.999Z</time></trkpt><trkpt lat="48.46657527715978" lon="-3.9696046491272408"><ele>108.0</ele><time>2026-03-22T09:39:33.999Z</time></trkpt><trkpt lat="48.46651302965006" lon="-3.96965051779697"><ele>108.00000000000001</ele><time>2026-03-22T09:39:34.999Z</time></trkpt><trkpt lat="48.466362722379294" lon="-3.969547566300676"><ele>108.00000000000001</ele><time>2026-03-22T09:39:36.999Z</time></trkpt><trkpt lat="48.46633670210207" lon="-3.9696371718392447"><ele>108.0</ele><time>2026-03-22T09:39:38.999Z</time></trkpt><trkpt lat="48.46637382768235" lon="-3.9697618589101364"><ele>108.0</ele><time>2026-03-22T09:39:40.999Z</time></trkpt><trkpt lat="48.466430872624485" lon="-3.9699306447738474"><ele>106.0</ele><time>2026-03-22T09:39:41.999Z</time></trkpt><trkpt lat="48.46645790426246" lon="-3.970071696304166"><ele>104.0</ele><time>2026-03-22T09:39:42.999Z</time></trkpt><trkpt lat="48.46646609053731" lon="-3.9702609013791155"><ele>102.0</ele><time>2026-03-22T09:39:43.999Z</time></trkpt><trkpt lat="48.46647766532842" lon="-3.970439750011752"><ele>100.0</ele><time>2026-03-22T09:39:44.999Z</time></trkpt><trkpt lat="48.466490268213924" lon="-3.970607088920398"><ele>100.0</ele><time>2026-03-22T09:39:45.999Z</time></trkpt><trkpt lat="48.466487056861176" lon="-3.9707773138778193"><ele>100.0</ele><time>2026-03-22T09:39:46.999Z</time></trkpt><trkpt lat="48.46647211042691" lon="-3.9709459517798105"><ele>100.0</ele><time>2026-03-22T09:39:47.999Z</time></trkpt><trkpt lat="48.46646149726076" lon="-3.9710911728276908"><ele>100.0</ele><time>2026-03-22T09:39:48.999Z</time></trkpt><trkpt lat="48.46643384927975" lon="-3.9712161630253298"><ele>100.0</ele><time>2026-03-22T09:39:49.999Z</time></trkpt><trkpt lat="48.46638488676715" lon="-3.9713888454316457"><ele>98.33333333333334</ele><time>2026-03-22T09:39:51.999Z</time></trkpt><trkpt lat="48.46631365157191" lon="-3.971474345592105"><ele>96.66666666666667</ele><time>2026-03-22T09:39:53.999Z</time></trkpt><trkpt lat="48.46626078127891" lon="-3.971560994954795"><ele>95.0</ele><time>2026-03-22T09:39:55.999Z</time></trkpt><trkpt lat="48.46654495495645" lon="-3.971921709354385"><ele>94.0</ele><time>2026-03-22T09:39:59.999Z</time></trkpt><trkpt lat="48.46662298161545" lon="-3.971966941097076"><ele>93.0</ele><time>2026-03-22T09:40:00.999Z</time></trkpt><trkpt lat="48.4666936160565" lon="-3.972060979734021"><ele>92.0</ele><time>2026-03-22T09:40:01.999Z</time></trkpt><trkpt lat="48.46677399816957" lon="-3.972175376337409"><ele>91.0</ele><time>2026-03-22T09:40:02.999Z</time></trkpt><trkpt lat="48.46686549404271" lon="-3.97228759205952"><ele>90.0</ele><time>2026-03-22T09:40:03.999Z</time></trkpt><trkpt lat="48.46695487466406" lon="-3.972395018757826"><ele>90.0</ele><time>2026-03-22T09:40:04.999Z</time></trkpt><trkpt lat="48.4670392223543" lon="-3.9725035448653867"><ele>90.0</ele><time>2026-03-22T09:40:05.999Z</time></trkpt><trkpt lat="48.46711671568462" lon="-3.9726194030154898"><ele>90.0</ele><time>2026-03-22T09:40:06.999Z</time></trkpt><trkpt lat="48.467164142243035" lon="-3.972760422487511"><ele>90.0</ele><time>2026-03-22T09:40:07.999Z</time></trkpt><trkpt lat="48.46718947428429" lon="-3.9729319275632586"><ele>90.0</ele><time>2026-03-22T09:40:09Z</time></trkpt><trkpt lat="48.467190082070175" lon="-3.9731178120791286"><ele>91.25</ele><time>2026-03-22T09:40:10Z</time></trkpt><trkpt lat="48.46721385794751" lon="-3.9733241545341964"><ele>92.5</ele><time>2026-03-22T09:40:11Z</time></trkpt><trkpt lat="48.46723617329878" lon="-3.973528945935638"><ele>93.75</ele><time>2026-03-22T09:40:12Z</time></trkpt><trkpt lat="48.467271703849" lon="-3.973727403023856"><ele>95.0</ele><time>2026-03-22T09:40:13Z</time></trkpt><trkpt lat="48.467325704121144" lon="-3.9739009435774415"><ele>95.25</ele><time>2026-03-22T09:40:14Z</time></trkpt><trkpt lat="48.467388180908195" lon="-3.974070118075725"><ele>95.5</ele><time>2026-03-22T09:40:15Z</time></trkpt><trkpt lat="48.46744078744557" lon="-3.974255198054925"><ele>95.75</ele><time>2026-03-22T09:40:16Z</time></trkpt><trkpt lat="48.46750539520235" lon="-3.9744137663300663"><ele>96.0</ele><time>2026-03-22T09:40:17Z</time></trkpt><trkpt lat="48.46756571929842" lon="-3.974581284191603"><ele>98.25</ele><time>2026-03-22T09:40:18Z</time></trkpt><trkpt lat="48.46762514875259" lon="-3.97475332116261"><ele>100.5</ele><time>2026-03-22T09:40:19Z</time></trkpt><trkpt lat="48.46768999077818" lon="-3.9749196181520086"><ele>102.75</ele><time>2026-03-22T09:40:20Z</time></trkpt><trkpt lat="48.467759164764175" lon="-3.975079342636454"><ele>105.0</ele><time>2026-03-22T09:40:21Z</time></trkpt><trkpt lat="48.46782256489999" lon="-3.975240953260086"><ele>106.2</ele><time>2026-03-22T09:40:22Z</time></trkpt><trkpt lat="48.4678680980933" lon="-3.975407605808769"><ele>107.4</ele><time>2026-03-22T09:40:23Z</time></trkpt><trkpt lat="48.46789263519342" lon="-3.975555240198146"><ele>108.6</ele><time>2026-03-22T09:40:24Z</time></trkpt><trkpt lat="48.467904678362956" lon="-3.975687660721897"><ele>109.8</ele><time>2026-03-22T09:40:25Z</time></trkpt><trkpt lat="48.46793466894232" lon="-3.9757981835233447"><ele>111.0</ele><time>2026-03-22T09:40:26Z</time></trkpt><trkpt lat="48.467997477161056" lon="-3.9758929989319136"><ele>111.8</ele><time>2026-03-22T09:40:27Z</time></trkpt><trkpt lat="48.46806781012897" lon="-3.9759683573860807"><ele>112.6</ele><time>2026-03-22T09:40:28Z</time></trkpt><trkpt lat="48.46816173057703" lon="-3.9760363674804498"><ele>113.4</ele><time>2026-03-22T09:40:29Z</time></trkpt><trkpt lat="48.46826699731062" lon="-3.9760974863941887"><ele>114.2</ele><time>2026-03-22T09:40:30Z</time></trkpt><trkpt lat="48.4683733651472" lon="-3.9761717204042215"><ele>115.0</ele><time>2026-03-22T09:40:31Z</time></trkpt><trkpt lat="48.468478104833935" lon="-3.97624935876858"><ele>115.0</ele><time>2026-03-22T09:40:32Z</time></trkpt><trkpt lat="48.468579584548756" lon="-3.976321508183155"><ele>115.0</ele><time>2026-03-22T09:40:33Z</time></trkpt><trkpt lat="48.46867678597284" lon="-3.9763990069904147"><ele>115.0</ele><time>2026-03-22T09:40:34Z</time></trkpt><trkpt lat="48.468782732487334" lon="-3.97648035383655"><ele>115.0</ele><time>2026-03-22T09:40:35Z</time></trkpt><trkpt lat="48.46889185629772" lon="-3.9765630558325538"><ele>116.5</ele><time>2026-03-22T09:40:36Z</time></trkpt><trkpt lat="48.46900097368665" lon="-3.9766458033768695"><ele>118.0</ele><time>2026-03-22T09:40:37Z</time></trkpt><trkpt lat="48.46911348916053" lon="-3.97673006025623"><ele>119.5</ele><time>2026-03-22T09:40:38Z</time></trkpt><trkpt lat="48.46922325534913" lon="-3.976819251175372"><ele>121.0</ele><time>2026-03-22T09:40:39Z</time></trkpt><trkpt lat="48.469334558195264" lon="-3.976919732619528"><ele>121.0</ele><time>2026-03-22T09:40:40Z</time></trkpt><trkpt lat="48.46944550647694" lon="-3.977020979217435"><ele>121.0</ele><time>2026-03-22T09:40:41Z</time></trkpt><trkpt lat="48.46956400245047" lon="-3.9771146893099245"><ele>121.0</ele><time>2026-03-22T09:40:42Z</time></trkpt><trkpt lat="48.46967370176799" lon="-3.9772190054299754"><ele>121.0</ele><time>2026-03-22T09:40:43Z</time></trkpt><trkpt lat="48.4697928423533" lon="-3.9773273047480844"><ele>121.75</ele><time>2026-03-22T09:40:44Z</time></trkpt><trkpt lat="48.46991231356687" lon="-3.9774311746918487"><ele>122.5</ele><time>2026-03-22T09:40:45Z</time></trkpt><trkpt lat="48.470029664916765" lon="-3.9775389349850676"><ele>123.25</ele><time>2026-03-22T09:40:46Z</time></trkpt><trkpt lat="48.47014539157391" lon="-3.9776527029480553"><ele>124.0</ele><time>2026-03-22T09:40:47Z</time></trkpt><trkpt lat="48.47025549553419" lon="-3.9777657332483884"><ele>124.75</ele><time>2026-03-22T09:40:48Z</time></trkpt><trkpt lat="48.47037283916817" lon="-3.977878959371361"><ele>125.5</ele><time>2026-03-22T09:40:49Z</time></trkpt><trkpt lat="48.4704945736945" lon="-3.9779898650109655"><ele>126.25</ele><time>2026-03-22T09:40:50Z</time></trkpt><trkpt lat="48.47062065137568" lon="-3.978099873363246"><ele>127.0</ele><time>2026-03-22T09:40:51Z</time></trkpt><trkpt lat="48.47074857476785" lon="-3.9782073050811815"><ele>127.25</ele><time>2026-03-22T09:40:52Z</time></trkpt><trkpt lat="48.47087668829496" lon="-3.9783019085460523"><ele>127.5</ele><time>2026-03-22T09:40:53Z</time></trkpt><trkpt lat="48.470997437224064" lon="-3.9783960833564973"><ele>127.75</ele><time>2026-03-22T09:40:54Z</time></trkpt><trkpt lat="48.47110944651673" lon="-3.978486370829927"><ele>128.0</ele><time>2026-03-22T09:40:55Z</time></trkpt><trkpt lat="48.471216699143966" lon="-3.9785673441541847"><ele>128.20000000000002</ele><time>2026-03-22T09:40:56Z</time></trkpt><trkpt lat="48.47132199601387" lon="-3.978652844540595"><ele>128.4</ele><time>2026-03-22T09:40:57Z</time></trkpt><trkpt lat="48.47141873274076" lon="-3.9787317833379086"><ele>128.60000000000002</ele><time>2026-03-22T09:40:58Z</time></trkpt><trkpt lat="48.47151003688641" lon="-3.9787994525223946"><ele>128.8</ele><time>2026-03-22T09:40:59Z</time></trkpt><trkpt lat="48.47160359732424" lon="-3.9788624767712255"><ele>129.0</ele><time>2026-03-22T09:41:00Z</time></trkpt><trkpt lat="48.471710496803986" lon="-3.978932279499885"><ele>129.0</ele><time>2026-03-22T09:41:01Z</time></trkpt><trkpt lat="48.47182816442642" lon="-3.9790015309505997"><ele>129.0</ele><time>2026-03-22T09:41:02Z</time></trkpt><trkpt lat="48.47193692658279" lon="-3.979063165134668"><ele>129.0</ele><time>2026-03-22T09:41:02.999Z</time></trkpt><trkpt lat="48.4720341341675" lon="-3.979117994479018"><ele>129.0</ele><time>2026-03-22T09:41:03.999Z</time></trkpt><trkpt lat="48.47212339999618" lon="-3.979158930756032"><ele>129.0</ele><time>2026-03-22T09:41:04.999Z</time></trkpt><trkpt lat="48.47220858408912" lon="-3.979177699749579"><ele>128.75</ele><time>2026-03-22T09:41:05.999Z</time></trkpt><trkpt lat="48.47230112998536" lon="-3.9791655429965194"><ele>128.5</ele><time>2026-03-22T09:41:06.999Z</time></trkpt><trkpt lat="48.47240776206112" lon="-3.9791801633990227"><ele>128.25</ele><time>2026-03-22T09:41:07.999Z</time></trkpt><trkpt lat="48.47251586511032" lon="-3.9791949854764836"><ele>128.0</ele><time>2026-03-22T09:41:08.999Z</time></trkpt><trkpt lat="48.4723319525942" lon="-3.97981855534674"><ele>128.0</ele><time>2026-03-22T09:41:09.999Z</time></trkpt><trkpt lat="48.47239461821841" lon="-3.979928236039068"><ele>128.0</ele><time>2026-03-22T09:41:10.999Z</time></trkpt><trkpt lat="48.4724558513638" lon="-3.980035794935869"><ele>128.0</ele><time>2026-03-22T09:41:11.999Z</time></trkpt><trkpt lat="48.472527385880184" lon="-3.980156890209025"><ele>128.0</ele><time>2026-03-22T09:41:12.999Z</time></trkpt><trkpt lat="48.472603591303574" lon="-3.980277129217132"><ele>128.0</ele><time>2026-03-22T09:41:13.999Z</time></trkpt><trkpt lat="48.4727001992076" lon="-3.980409675112124"><ele>128.0</ele><time>2026-03-22T09:41:14.999Z</time></trkpt><trkpt lat="48.472800605596305" lon="-3.9805402861958505"><ele>128.0</ele><time>2026-03-22T09:41:15.999Z</time></trkpt><trkpt lat="48.4729113850819" lon="-3.980684390841421"><ele>128.0</ele><time>2026-03-22T09:41:16.999Z</time></trkpt><trkpt lat="48.47303064571513" lon="-3.980841567060082"><ele>128.0</ele><time>2026-03-22T09:41:17.999Z</time></trkpt><trkpt lat="48.473134927714426" lon="-3.9809842533586397"><ele>128.0</ele><time>2026-03-22T09:41:18.999Z</time></trkpt><trkpt lat="48.47323312939409" lon="-3.981065686740196"><ele>128.0</ele><time>2026-03-22T09:41:19.999Z</time></trkpt><trkpt lat="48.47334279936928" lon="-3.981158499029735"><ele>128.0</ele><time>2026-03-22T09:41:20.999Z</time></trkpt><trkpt lat="48.47343387636563" lon="-3.981211122281525"><ele>128.0</ele><time>2026-03-22T09:41:21.999Z</time></trkpt><trkpt lat="48.47351552705368" lon="-3.9812398027927776"><ele>128.0</ele><time>2026-03-22T09:41:23.999Z</time></trkpt><trkpt lat="48.47398544827009" lon="-3.9805452256640352"><ele>127.25</ele><time>2026-03-22T09:41:24.999Z</time></trkpt><trkpt lat="48.47401975701652" lon="-3.980356404307032"><ele>126.5</ele><time>2026-03-22T09:41:27.999Z</time></trkpt><trkpt lat="48.47409026149431" lon="-3.980226289816124"><ele>125.75</ele><time>2026-03-22T09:41:28.999Z</time></trkpt><trkpt lat="48.474170286589704" lon="-3.980056996296615"><ele>125.0</ele><time>2026-03-22T09:41:29.999Z</time></trkpt><trkpt lat="48.47427228439867" lon="-3.9798347455426164"><ele>124.66666666666666</ele><time>2026-03-22T09:41:30.999Z</time></trkpt><trkpt lat="48.47437993859414" lon="-3.979609525037355"><ele>124.33333333333334</ele><time>2026-03-22T09:41:31.999Z</time></trkpt><trkpt lat="48.47450833788187" lon="-3.979374213731088"><ele>124.0</ele><time>2026-03-22T09:41:32.999Z</time></trkpt><trkpt lat="48.47461686362061" lon="-3.9791618802679016"><ele>122.5</ele><time>2026-03-22T09:41:33.999Z</time></trkpt><trkpt lat="48.474718996391175" lon="-3.9789776521534637"><ele>121.0</ele><time>2026-03-22T09:41:34.999Z</time></trkpt><trkpt lat="48.4748056969636" lon="-3.9788026124010805"><ele>119.5</ele><time>2026-03-22T09:41:35.999Z</time></trkpt><trkpt lat="48.474883271732566" lon="-3.978652936772729"><ele>118.0</ele><time>2026-03-22T09:41:36.999Z</time></trkpt><trkpt lat="48.47496974889675" lon="-3.978524941661582"><ele>118.0</ele><time>2026-03-22T09:41:37.999Z</time></trkpt><trkpt lat="48.475036369963824" lon="-3.9783873714916824"><ele>118.0</ele><time>2026-03-22T09:41:38.999Z</time></trkpt><trkpt lat="48.47511453460655" lon="-3.978229239710646"><ele>118.0</ele><time>2026-03-22T09:41:39.999Z</time></trkpt><trkpt lat="48.47517020145966" lon="-3.9780978142956407"><ele>118.0</ele><time>2026-03-22T09:41:40.999Z</time></trkpt><trkpt lat="48.47523922478437" lon="-3.9779654868639382"><ele>117.60000000000001</ele><time>2026-03-22T09:41:41.999Z</time></trkpt><trkpt lat="48.47532505611974" lon="-3.9778062829127654"><ele>117.20000000000002</ele><time>2026-03-22T09:41:42.999Z</time></trkpt><trkpt lat="48.47539798020322" lon="-3.977661461464028"><ele>116.8</ele><time>2026-03-22T09:41:43.999Z</time></trkpt><trkpt lat="48.47545360361961" lon="-3.9775611738063246"><ele>116.4</ele><time>2026-03-22T09:41:44.999Z</time></trkpt><trkpt lat="48.47544790603806" lon="-3.9774136730327045"><ele>116.0</ele><time>2026-03-22T09:41:46.999Z</time></trkpt><trkpt lat="48.47537996397512" lon="-3.9773251120610777"><ele>116.0</ele><time>2026-03-22T09:41:47.999Z</time></trkpt><trkpt lat="48.47543089185291" lon="-3.9771468401859513"><ele>116.0</ele><time>2026-03-22T09:41:49.999Z</time></trkpt><trkpt lat="48.47552645722537" lon="-3.977013404630985"><ele>116.0</ele><time>2026-03-22T09:41:50.999Z</time></trkpt><trkpt lat="48.47555583069437" lon="-3.97690539443027"><ele>116.0</ele><time>2026-03-22T09:41:51.999Z</time></trkpt><trkpt lat="48.47559101968888" lon="-3.976809244903125"><ele>116.0</ele><time>2026-03-22T09:41:53.999Z</time></trkpt><trkpt lat="48.475683910557926" lon="-3.976899597794357"><ele>114.6</ele><time>2026-03-22T09:41:55.999Z</time></trkpt><trkpt lat="48.47579088800526" lon="-3.976990284489651"><ele>113.19999999999999</ele><time>2026-03-22T09:41:56.999Z</time></trkpt><trkpt lat="48.47591499819305" lon="-3.977077741679609"><ele>111.80000000000001</ele><time>2026-03-22T09:41:57.999Z</time></trkpt><trkpt lat="48.47601817352555" lon="-3.9771239595499592"><ele>110.4</ele><time>2026-03-22T09:41:58.999Z</time></trkpt><trkpt lat="48.476079474807804" lon="-3.977184572100196"><ele>109.0</ele><time>2026-03-22T09:41:59.999Z</time></trkpt><trkpt lat="48.47619166654027" lon="-3.977179789454121"><ele>109.0</ele><time>2026-03-22T09:42:01.999Z</time></trkpt><trkpt lat="48.476243061831816" lon="-3.977099079813669"><ele>109.0</ele><time>2026-03-22T09:42:02.999Z</time></trkpt><trkpt lat="48.47630121491154" lon="-3.97695475798097"><ele>109.0</ele><time>2026-03-22T09:42:03.999Z</time></trkpt><trkpt lat="48.47639367078943" lon="-3.9767663989712108"><ele>109.0</ele><time>2026-03-22T09:42:04.999Z</time></trkpt><trkpt lat="48.47651726304526" lon="-3.976538441918205"><ele>108.0</ele><time>2026-03-22T09:42:05.999Z</time></trkpt><trkpt lat="48.47663412385683" lon="-3.9763279241193383"><ele>107.0</ele><time>2026-03-22T09:42:06.999Z</time></trkpt><trkpt lat="48.47671279096775" lon="-3.9761785882912735"><ele>106.0</ele><time>2026-03-22T09:42:07.999Z</time></trkpt><trkpt lat="48.47680705586281" lon="-3.9760644471998736"><ele>105.0</ele><time>2026-03-22T09:42:08.999Z</time></trkpt><trkpt lat="48.476908852537726" lon="-3.9759785275485906"><ele>105.0</ele><time>2026-03-22T09:42:09.999Z</time></trkpt><trkpt lat="48.477043769934106" lon="-3.9758872051630005"><ele>105.0</ele><time>2026-03-22T09:42:10.999Z</time></trkpt><trkpt lat="48.47719993840405" lon="-3.9757911239958506"><ele>105.0</ele><time>2026-03-22T09:42:11.999Z</time></trkpt><trkpt lat="48.47735434011104" lon="-3.9757039842014947"><ele>104.0</ele><time>2026-03-22T09:42:12.999Z</time></trkpt><trkpt lat="48.47746098705191" lon="-3.975639757340956"><ele>103.0</ele><time>2026-03-22T09:42:13.999Z</time></trkpt><trkpt lat="48.4775354690719" lon="-3.975589815452532"><ele>102.0</ele><time>2026-03-22T09:42:15Z</time></trkpt><trkpt lat="48.477633656470516" lon="-3.9755482624331338"><ele>101.0</ele><time>2026-03-22T09:42:17Z</time></trkpt><trkpt lat="48.47766852234308" lon="-3.9756489937732136"><ele>100.0</ele><time>2026-03-22T09:43:07.999Z</time></trkpt><trkpt lat="48.47772436497665" lon="-3.9757823314194978"><ele>100.0</ele><time>2026-03-22T09:43:09.999Z</time></trkpt><trkpt lat="48.47779978458364" lon="-3.9758782415395246"><ele>100.0</ele><time>2026-03-22T09:43:10.999Z</time></trkpt><trkpt lat="48.47786716624743" lon="-3.9759693640402314"><ele>100.0</ele><time>2026-03-22T09:43:11.999Z</time></trkpt><trkpt lat="48.47793949851222" lon="-3.97606774474017"><ele>100.0</ele><time>2026-03-22T09:43:12.999Z</time></trkpt><trkpt lat="48.47800236257512" lon="-3.97616558912224"><ele>100.0</ele><time>2026-03-22T09:43:13.999Z</time></trkpt><trkpt lat="48.47806628544541" lon="-3.976251830214721"><ele>100.0</ele><time>2026-03-22T09:43:14.999Z</time></trkpt><trkpt lat="48.47813307896208" lon="-3.9763558827944006"><ele>100.0</ele><time>2026-03-22T09:43:15.999Z</time></trkpt><trkpt lat="48.47820782408958" lon="-3.976462994528243"><ele>100.0</ele><time>2026-03-22T09:43:16.999Z</time></trkpt><trkpt lat="48.478283173200445" lon="-3.9765644022455167"><ele>100.0</ele><time>2026-03-22T09:43:17.999Z</time></trkpt><trkpt lat="48.478357270287" lon="-3.9766597684383607"><ele>100.0</ele><time>2026-03-22T09:43:18.999Z</time></trkpt><trkpt lat="48.47841382136215" lon="-3.97674581314719"><ele>100.00000000000001</ele><time>2026-03-22T09:43:19.999Z</time></trkpt><trkpt lat="48.47847213253481" lon="-3.97683813518679"><ele>100.0</ele><time>2026-03-22T09:43:20.999Z</time></trkpt><trkpt lat="48.47852824079181" lon="-3.976900871894561"><ele>100.0</ele><time>2026-03-22T09:43:21.999Z</time></trkpt><trkpt lat="48.47859813615947" lon="-3.976985147595008"><ele>100.0</ele><time>2026-03-22T09:43:23.999Z</time></trkpt><trkpt lat="48.478650350452114" lon="-3.976881296390286"><ele>100.00000000000001</ele><time>2026-03-22T09:43:27.999Z</time></trkpt><trkpt lat="48.47872595247914" lon="-3.9768508015882076"><ele>100.0</ele><time>2026-03-22T09:43:31.999Z</time></trkpt><trkpt lat="48.4788202373443" lon="-3.976784499441507"><ele>100.0</ele><time>2026-03-22T09:43:34.999Z</time></trkpt><trkpt lat="48.4788802880568" lon="-3.9766867943188235"><ele>100.0</ele><time>2026-03-22T09:43:35.999Z</time></trkpt><trkpt lat="48.478983581914534" lon="-3.9765636874724817"><ele>100.0</ele><time>2026-03-22T09:43:36.999Z</time></trkpt><trkpt lat="48.47906259273033" lon="-3.976486020158074"><ele>100.0</ele><time>2026-03-22T09:43:37.999Z</time></trkpt><trkpt lat="48.479141502701225" lon="-3.9764763217525525"><ele>100.0</ele><time>2026-03-22T09:43:50.999Z</time></trkpt><trkpt lat="48.47920550652234" lon="-3.976575443485692"><ele>100.00000000000001</ele><time>2026-03-22T09:43:52.999Z</time></trkpt><trkpt lat="48.4792531470151" lon="-3.9766629859840794"><ele>100.0</ele><time>2026-03-22T09:43:53.999Z</time></trkpt><trkpt lat="48.47931645957635" lon="-3.9767910059247646"><ele>100.0</ele><time>2026-03-22T09:43:54.999Z</time></trkpt><trkpt lat="48.47938257965094" lon="-3.976906751249946"><ele>100.0</ele><time>2026-03-22T09:43:55.999Z</time></trkpt><trkpt lat="48.47943644303733" lon="-3.9769884926275756"><ele>100.00000000000001</ele><time>2026-03-22T09:43:56.999Z</time></trkpt><trkpt lat="48.479489153541316" lon="-3.97706039865707"><ele>100.0</ele><time>2026-03-22T09:43:57.999Z</time></trkpt><trkpt lat="48.47954017017607" lon="-3.977144399336153"><ele>100.50000000000001</ele><time>2026-03-22T09:43:58.999Z</time></trkpt><trkpt lat="48.47960716886723" lon="-3.977234182245339"><ele>101.0</ele><time>2026-03-22T09:43:59.999Z</time></trkpt><trkpt lat="48.4796722403652" lon="-3.977317592238626"><ele>101.5</ele><time>2026-03-22T09:44:00.999Z</time></trkpt><trkpt lat="48.479731856386884" lon="-3.9773905988691056"><ele>102.0</ele><time>2026-03-22T09:44:01.999Z</time></trkpt><trkpt lat="48.479793590120785" lon="-3.977477198610989"><ele>102.50000000000001</ele><time>2026-03-22T09:44:02.999Z</time></trkpt><trkpt lat="48.479849534886604" lon="-3.9775579661714606"><ele>103.0</ele><time>2026-03-22T09:44:03.999Z</time></trkpt><trkpt lat="48.479908081935775" lon="-3.9776369996924643"><ele>101.80000000000001</ele><time>2026-03-22T09:44:04.999Z</time></trkpt><trkpt lat="48.4799684643443" lon="-3.977727866289811"><ele>100.6</ele><time>2026-03-22T09:44:05.999Z</time></trkpt><trkpt lat="48.480039832530124" lon="-3.9778414559405655"><ele>99.4</ele><time>2026-03-22T09:44:06.999Z</time></trkpt><trkpt lat="48.48010727269972" lon="-3.9779544941589946"><ele>98.19999999999999</ele><time>2026-03-22T09:44:07.999Z</time></trkpt><trkpt lat="48.480177974987924" lon="-3.9780523052455035"><ele>97.0</ele><time>2026-03-22T09:44:08.999Z</time></trkpt><trkpt lat="48.4802385732223" lon="-3.978136230681748"><ele>97.00000000000001</ele><time>2026-03-22T09:44:09.999Z</time></trkpt><trkpt lat="48.48030554135543" lon="-3.978224324066067"><ele>97.0</ele><time>2026-03-22T09:44:10.999Z</time></trkpt><trkpt lat="48.480371908380675" lon="-3.9783220977339844"><ele>97.0</ele><time>2026-03-22T09:44:11.999Z</time></trkpt><trkpt lat="48.480440067212626" lon="-3.978412279705973"><ele>97.0</ele><time>2026-03-22T09:44:12.999Z</time></trkpt><trkpt lat="48.4804945962262" lon="-3.978484852808035"><ele>97.00000000000001</ele><time>2026-03-22T09:44:13.999Z</time></trkpt><trkpt lat="48.480568292905524" lon="-3.978584462738636"><ele>97.0</ele><time>2026-03-22T09:44:15.999Z</time></trkpt><trkpt lat="48.48062946265488" lon="-3.9785348551835953"><ele>95.83333333333334</ele><time>2026-03-22T09:44:16.999Z</time></trkpt><trkpt lat="48.48068500095665" lon="-3.9784274454613975"><ele>94.66666666666667</ele><time>2026-03-22T09:44:18.999Z</time></trkpt><trkpt lat="48.48068511117374" lon="-3.978287581897108"><ele>93.5</ele><time>2026-03-22T09:44:21Z</time></trkpt><trkpt lat="48.480683167379226" lon="-3.978167721214542"><ele>92.33333333333334</ele><time>2026-03-22T09:44:23Z</time></trkpt><trkpt lat="48.480722806701394" lon="-3.9780470365201968"><ele>91.16666666666667</ele><time>2026-03-22T09:44:24Z</time></trkpt><trkpt lat="48.480762115401845" lon="-3.97794440301442"><ele>90.0</ele><time>2026-03-22T09:44:25Z</time></trkpt><trkpt lat="48.48076468439341" lon="-3.9777453710599735"><ele>90.0</ele><time>2026-03-22T09:44:27Z</time></trkpt><trkpt lat="48.48076022388465" lon="-3.977626148284813"><ele>90.0</ele><time>2026-03-22T09:44:28Z</time></trkpt><trkpt lat="48.48078249333688" lon="-3.977517310629586"><ele>90.0</ele><time>2026-03-22T09:44:29Z</time></trkpt><trkpt lat="48.480797644704616" lon="-3.9774086515812748"><ele>90.0</ele><time>2026-03-22T09:44:30Z</time></trkpt><trkpt lat="48.48076706521917" lon="-3.977260860129759"><ele>90.0</ele><time>2026-03-22T09:44:32Z</time></trkpt><trkpt lat="48.48077933373824" lon="-3.977120986553462"><ele>90.0</ele><time>2026-03-22T09:44:34Z</time></trkpt><trkpt lat="48.48079682047952" lon="-3.9770018918401298"><ele>90.0</ele><time>2026-03-22T09:44:37Z</time></trkpt><trkpt lat="48.48076671387588" lon="-3.9768505008306736"><ele>90.0</ele><time>2026-03-22T09:44:40Z</time></trkpt><trkpt lat="48.48069729700752" lon="-3.9767528303744837"><ele>90.0</ele><time>2026-03-22T09:44:42Z</time></trkpt><trkpt lat="48.48064436938012" lon="-3.976622926483904"><ele>90.0</ele><time>2026-03-22T09:44:44Z</time></trkpt><trkpt lat="48.48058820010814" lon="-3.9765771414069055"><ele>90.0</ele><time>2026-03-22T09:44:47Z</time></trkpt><trkpt lat="48.4804966856778" lon="-3.9764363104928493"><ele>90.83333333333333</ele><time>2026-03-22T09:44:50Z</time></trkpt><trkpt lat="48.48042770064223" lon="-3.976314410288566"><ele>91.66666666666667</ele><time>2026-03-22T09:44:52Z</time></trkpt><trkpt lat="48.48039710092989" lon="-3.976222550212506"><ele>92.5</ele><time>2026-03-22T09:44:53Z</time></trkpt><trkpt lat="48.480373179572915" lon="-3.9760752198741685"><ele>93.33333333333334</ele><time>2026-03-22T09:44:55Z</time></trkpt><trkpt lat="48.48033237947299" lon="-3.975955933397802"><ele>94.16666666666667</ele><time>2026-03-22T09:44:57Z</time></trkpt><trkpt lat="48.480282051427004" lon="-3.9758915866005706"><ele>95.0</ele><time>2026-03-22T09:44:59Z</time></trkpt><trkpt lat="48.48023469357528" lon="-3.97575676385036"><ele>95.0</ele><time>2026-03-22T09:45:01Z</time></trkpt><trkpt lat="48.48026900603664" lon="-3.9756343600190545"><ele>95.0</ele><time>2026-03-22T09:45:04Z</time></trkpt><trkpt lat="48.480219438714236" lon="-3.975520183657233"><ele>95.0</ele><time>2026-03-22T09:45:06Z</time></trkpt><trkpt lat="48.48020058431764" lon="-3.9753820114678"><ele>95.0</ele><time>2026-03-22T09:45:08Z</time></trkpt><trkpt lat="48.480162261342784" lon="-3.975237933637843"><ele>95.0</ele><time>2026-03-22T09:45:10Z</time></trkpt><trkpt lat="48.48010716623717" lon="-3.9751268103163597"><ele>93.2</ele><time>2026-03-22T09:45:11Z</time></trkpt><trkpt lat="48.48002492811329" lon="-3.975015957045827"><ele>91.4</ele><time>2026-03-22T09:45:12.999Z</time></trkpt><trkpt lat="48.47992665267943" lon="-3.974937782268422"><ele>89.6</ele><time>2026-03-22T09:45:14.999Z</time></trkpt><trkpt lat="48.479871066090766" lon="-3.9747925508803577"><ele>87.8</ele><time>2026-03-22T09:45:16.999Z</time></trkpt><trkpt lat="48.479843904112606" lon="-3.974681112226953"><ele>86.0</ele><time>2026-03-22T09:45:18.999Z</time></trkpt><trkpt lat="48.47973328775008" lon="-3.9745650024205657"><ele>86.0</ele><time>2026-03-22T09:45:21.999Z</time></trkpt><trkpt lat="48.47966653663025" lon="-3.9744802419479046"><ele>86.0</ele><time>2026-03-22T09:45:22.999Z</time></trkpt><trkpt lat="48.47961306614975" lon="-3.9744266283498506"><ele>86.0</ele><time>2026-03-22T09:45:23.999Z</time></trkpt><trkpt lat="48.47950814222894" lon="-3.974417099975055"><ele>86.0</ele><time>2026-03-22T09:45:25.999Z</time></trkpt><trkpt lat="48.479443932688916" lon="-3.9743951183683275"><ele>86.0</ele><time>2026-03-22T09:45:26.999Z</time></trkpt><trkpt lat="48.479376518233224" lon="-3.974428446267365"><ele>86.0</ele><time>2026-03-22T09:45:28.999Z</time></trkpt><trkpt lat="48.479310639282204" lon="-3.974419012727406"><ele>86.19999999999999</ele><time>2026-03-22T09:45:30.999Z</time></trkpt><trkpt lat="48.47918985317747" lon="-3.974348064010335"><ele>86.39999999999999</ele><time>2026-03-22T09:45:32.999Z</time></trkpt><trkpt lat="48.47917804947982" lon="-3.9742417400686763"><ele>86.6</ele><time>2026-03-22T09:45:39.999Z</time></trkpt><trkpt lat="48.479161898014006" lon="-3.9741117384428186"><ele>86.8</ele><time>2026-03-22T09:45:42.999Z</time></trkpt><trkpt lat="48.47908746884286" lon="-3.9741881278317535"><ele>87.0</ele><time>2026-03-22T09:45:54.999Z</time></trkpt><trkpt lat="48.47900555990209" lon="-3.9742017194242725"><ele>88.0</ele><time>2026-03-22T09:45:57.999Z</time></trkpt><trkpt lat="48.47891699737207" lon="-3.9743100351287253"><ele>89.0</ele><time>2026-03-22T09:45:59.999Z</time></trkpt><trkpt lat="48.47885249775804" lon="-3.9743235987323122"><ele>90.0</ele><time>2026-03-22T09:46:02.999Z</time></trkpt><trkpt lat="48.478779141406136" lon="-3.974208577096203"><ele>91.0</ele><time>2026-03-22T09:46:26Z</time></trkpt><trkpt lat="48.47872411446115" lon="-3.97414822325564"><ele>92.0</ele><time>2026-03-22T09:46:27Z</time></trkpt><trkpt lat="48.4786600729458" lon="-3.973947778412968"><ele>92.33333333333334</ele><time>2026-03-22T09:46:30Z</time></trkpt><trkpt lat="48.478600188030505" lon="-3.973813238266338"><ele>92.66666666666667</ele><time>2026-03-22T09:46:31Z</time></trkpt><trkpt lat="48.478556861600005" lon="-3.973725335707805"><ele>93.0</ele><time>2026-03-22T09:46:32Z</time></trkpt><trkpt lat="48.478566461633385" lon="-3.973594923302979"><ele>93.33333333333333</ele><time>2026-03-22T09:46:34Z</time></trkpt><trkpt lat="48.478542767574396" lon="-3.9734901147926514"><ele>93.66666666666666</ele><time>2026-03-22T09:46:35Z</time></trkpt><trkpt lat="48.47848711498093" lon="-3.973384924103667"><ele>94.0</ele><time>2026-03-22T09:46:36Z</time></trkpt><trkpt lat="48.47844623195333" lon="-3.9732940105511068"><ele>93.33333333333333</ele><time>2026-03-22T09:46:37Z</time></trkpt><trkpt lat="48.478414607884524" lon="-3.9731535001671197"><ele>92.66666666666666</ele><time>2026-03-22T09:46:39Z</time></trkpt><trkpt lat="48.47838382842971" lon="-3.973045936078963"><ele>92.0</ele><time>2026-03-22T09:46:40Z</time></trkpt><trkpt lat="48.478332918443186" lon="-3.9729367139732807"><ele>91.33333333333333</ele><time>2026-03-22T09:46:41Z</time></trkpt><trkpt lat="48.478304231121406" lon="-3.9728289265935497"><ele>90.66666666666667</ele><time>2026-03-22T09:46:42Z</time></trkpt><trkpt lat="48.47826935537405" lon="-3.9727453281286262"><ele>90.0</ele><time>2026-03-22T09:46:43Z</time></trkpt><trkpt lat="48.47820044985776" lon="-3.9727079871362783"><ele>90.0</ele><time>2026-03-22T09:46:44Z</time></trkpt><trkpt lat="48.4781226795925" lon="-3.9725298320801965"><ele>90.0</ele><time>2026-03-22T09:46:46Z</time></trkpt><trkpt lat="48.47805104030784" lon="-3.972435419944722"><ele>90.0</ele><time>2026-03-22T09:46:47Z</time></trkpt><trkpt lat="48.47794941147664" lon="-3.9723719820769454"><ele>90.0</ele><time>2026-03-22T09:46:48Z</time></trkpt><trkpt lat="48.477865225177624" lon="-3.9722919223819413"><ele>90.0</ele><time>2026-03-22T09:46:49Z</time></trkpt><trkpt lat="48.47779933256378" lon="-3.9721858053903176"><ele>91.5</ele><time>2026-03-22T09:46:50Z</time></trkpt><trkpt lat="48.47775037727483" lon="-3.9721127849559994"><ele>93.0</ele><time>2026-03-22T09:46:51Z</time></trkpt><trkpt lat="48.47761533417766" lon="-3.9720626806313843"><ele>94.5</ele><time>2026-03-22T09:46:53Z</time></trkpt><trkpt lat="48.47749441889916" lon="-3.9720456922614145"><ele>96.0</ele><time>2026-03-22T09:46:54Z</time></trkpt><trkpt lat="48.477364304618774" lon="-3.9719928143414442"><ele>96.0</ele><time>2026-03-22T09:46:55Z</time></trkpt><trkpt lat="48.47724417093208" lon="-3.971918553163996"><ele>96.0</ele><time>2026-03-22T09:46:56Z</time></trkpt><trkpt lat="48.477146366260065" lon="-3.9718780954415553"><ele>96.0</ele><time>2026-03-22T09:46:57Z</time></trkpt><trkpt lat="48.47706160140176" lon="-3.971863700818623"><ele>96.0</ele><time>2026-03-22T09:46:58Z</time></trkpt><trkpt lat="48.47697581416163" lon="-3.971882133725515"><ele>96.0</ele><time>2026-03-22T09:46:59Z</time></trkpt><trkpt lat="48.476893324099464" lon="-3.971881122271708"><ele>95.6</ele><time>2026-03-22T09:47:00Z</time></trkpt><trkpt lat="48.47683424909913" lon="-3.9718260172807476"><ele>95.19999999999999</ele><time>2026-03-22T09:47:01Z</time></trkpt><trkpt lat="48.476738595647106" lon="-3.9717430172297976"><ele>94.80000000000001</ele><time>2026-03-22T09:47:02Z</time></trkpt><trkpt lat="48.47663532223449" lon="-3.971684137085851"><ele>94.4</ele><time>2026-03-22T09:47:03Z</time></trkpt><trkpt lat="48.476564144197354" lon="-3.9716496638395866"><ele>94.0</ele><time>2026-03-22T09:47:04Z</time></trkpt><trkpt lat="48.476513842277434" lon="-3.971543562495929"><ele>94.0</ele><time>2026-03-22T09:47:06Z</time></trkpt><trkpt lat="48.476462915969186" lon="-3.9714804504390395"><ele>94.0</ele><time>2026-03-22T09:47:08Z</time></trkpt><trkpt lat="48.476368828112484" lon="-3.9714106098974566"><ele>94.0</ele><time>2026-03-22T09:47:10Z</time></trkpt><trkpt lat="48.47630727220416" lon="-3.9713888046036754"><ele>94.0</ele><time>2026-03-22T09:47:11Z</time></trkpt><trkpt lat="48.47613334302932" lon="-3.9713534107446993"><ele>94.0</ele><time>2026-03-22T09:47:13Z</time></trkpt><trkpt lat="48.47602535711741" lon="-3.971355020490382"><ele>94.66666666666666</ele><time>2026-03-22T09:47:14Z</time></trkpt><trkpt lat="48.47594064058254" lon="-3.9713523559325536"><ele>95.33333333333333</ele><time>2026-03-22T09:47:15Z</time></trkpt><trkpt lat="48.475856574678374" lon="-3.971376815527316"><ele>96.0</ele><time>2026-03-22T09:47:16Z</time></trkpt><trkpt lat="48.47580088917095" lon="-3.9714556551852658"><ele>96.66666666666666</ele><time>2026-03-22T09:47:17Z</time></trkpt><trkpt lat="48.47575763174068" lon="-3.971559639325554"><ele>97.33333333333333</ele><time>2026-03-22T09:47:18Z</time></trkpt><trkpt lat="48.475683640344364" lon="-3.971621559860105"><ele>98.0</ele><time>2026-03-22T09:47:18.999Z</time></trkpt><trkpt lat="48.47559002988449" lon="-3.971611522408411"><ele>98.0</ele><time>2026-03-22T09:47:19.999Z</time></trkpt><trkpt lat="48.475503736936346" lon="-3.971549511579376"><ele>98.0</ele><time>2026-03-22T09:47:20.999Z</time></trkpt><trkpt lat="48.47543767847214" lon="-3.971509004927981"><ele>98.0</ele><time>2026-03-22T09:47:21.999Z</time></trkpt><trkpt lat="48.475339621851674" lon="-3.9714761057988115"><ele>98.0</ele><time>2026-03-22T09:47:35.999Z</time></trkpt><trkpt lat="48.47526775774213" lon="-3.9712989032102284"><ele>98.0</ele><time>2026-03-22T09:47:37.999Z</time></trkpt><trkpt lat="48.475246134137066" lon="-3.9711728781646225"><ele>98.0</ele><time>2026-03-22T09:47:39.999Z</time></trkpt><trkpt lat="48.47517561310187" lon="-3.9709962296548094"><ele>98.0</ele><time>2026-03-22T09:47:41.999Z</time></trkpt><trkpt lat="48.475115422502626" lon="-3.970869607462614"><ele>98.0</ele><time>2026-03-22T09:47:42.999Z</time></trkpt><trkpt lat="48.47503741408544" lon="-3.9708135155317232"><ele>98.0</ele><time>2026-03-22T09:47:43.999Z</time></trkpt><trkpt lat="48.474921772652785" lon="-3.9707544532641266"><ele>98.0</ele><time>2026-03-22T09:47:44.999Z</time></trkpt><trkpt lat="48.474788375053016" lon="-3.970726839942604"><ele>98.0</ele><time>2026-03-22T09:47:45.999Z</time></trkpt><trkpt lat="48.47464289150104" lon="-3.9706741447020977"><ele>98.0</ele><time>2026-03-22T09:47:46.999Z</time></trkpt><trkpt lat="48.47449789431856" lon="-3.9706245584854285"><ele>98.0</ele><time>2026-03-22T09:47:47.999Z</time></trkpt><trkpt lat="48.474380950037" lon="-3.970588881411045"><ele>98.0</ele><time>2026-03-22T09:47:48.999Z</time></trkpt><trkpt lat="48.47427609286969" lon="-3.9705325988094775"><ele>98.75</ele><time>2026-03-22T09:47:49.999Z</time></trkpt><trkpt lat="48.4741737419644" lon="-3.9704646790799347"><ele>99.5</ele><time>2026-03-22T09:47:50.999Z</time></trkpt><trkpt lat="48.47406047099158" lon="-3.970421094447471"><ele>100.25</ele><time>2026-03-22T09:47:51.999Z</time></trkpt><trkpt lat="48.47392594100972" lon="-3.970432441421887"><ele>101.0</ele><time>2026-03-22T09:47:52.999Z</time></trkpt><trkpt lat="48.473790798711576" lon="-3.9704719853792687"><ele>101.33333333333333</ele><time>2026-03-22T09:47:53.999Z</time></trkpt><trkpt lat="48.47368687508412" lon="-3.970517309765514"><ele>101.66666666666666</ele><time>2026-03-22T09:47:54.999Z</time></trkpt><trkpt lat="48.47360155982802" lon="-3.970564675364956"><ele>102.0</ele><time>2026-03-22T09:47:55.999Z</time></trkpt><trkpt lat="48.47352543058808" lon="-3.970591232295015"><ele>102.33333333333334</ele><time>2026-03-22T09:47:56.999Z</time></trkpt><trkpt lat="48.47346000810111" lon="-3.9705436008534702"><ele>102.66666666666667</ele><time>2026-03-22T09:47:57.999Z</time></trkpt><trkpt lat="48.47339440532692" lon="-3.9704499059202725"><ele>103.0</ele><time>2026-03-22T09:47:58.999Z</time></trkpt><trkpt lat="48.473287033209594" lon="-3.9703702924865305"><ele>103.0</ele><time>2026-03-22T09:47:59.999Z</time></trkpt><trkpt lat="48.473180412059676" lon="-3.9702876824987143"><ele>103.0</ele><time>2026-03-22T09:48:00.999Z</time></trkpt><trkpt lat="48.473083947291904" lon="-3.9702301060453267"><ele>103.0</ele><time>2026-03-22T09:48:01.999Z</time></trkpt><trkpt lat="48.47298250082767" lon="-3.970217931907863"><ele>103.0</ele><time>2026-03-22T09:48:02.999Z</time></trkpt><trkpt lat="48.47285832539951" lon="-3.9702319994020185"><ele>103.2</ele><time>2026-03-22T09:48:03.999Z</time></trkpt><trkpt lat="48.472711825468" lon="-3.970236779378428"><ele>103.4</ele><time>2026-03-22T09:48:04.999Z</time></trkpt><trkpt lat="48.472602089179425" lon="-3.9702418856971136"><ele>103.60000000000001</ele><time>2026-03-22T09:48:05.999Z</time></trkpt><trkpt lat="48.472531627396954" lon="-3.970266486979654"><ele>103.80000000000001</ele><time>2026-03-22T09:48:06.999Z</time></trkpt><trkpt lat="48.472475149430906" lon="-3.9703352383640715"><ele>104.0</ele><time>2026-03-22T09:48:07.999Z</time></trkpt><trkpt lat="48.47240786324462" lon="-3.970434718462998"><ele>104.0</ele><time>2026-03-22T09:48:08.999Z</time></trkpt><trkpt lat="48.47232264070505" lon="-3.9705393900459"><ele>104.0</ele><time>2026-03-22T09:48:09.999Z</time></trkpt><trkpt lat="48.47223380831126" lon="-3.970575867500883"><ele>104.0</ele><time>2026-03-22T09:48:10.999Z</time></trkpt><trkpt lat="48.47213847941409" lon="-3.9705712696369426"><ele>104.0</ele><time>2026-03-22T09:48:11.999Z</time></trkpt><trkpt lat="48.472067257022104" lon="-3.9706139022218143"><ele>104.0</ele><time>2026-03-22T09:48:12.999Z</time></trkpt><trkpt lat="48.471998449108064" lon="-3.970661428900764"><ele>104.0</ele><time>2026-03-22T09:48:13.999Z</time></trkpt><trkpt lat="48.4718834130795" lon="-3.9706520630294033"><ele>104.0</ele><time>2026-03-22T09:48:14.999Z</time></trkpt><trkpt lat="48.47178109167955" lon="-3.9706497253597406"><ele>104.0</ele><time>2026-03-22T09:48:15.999Z</time></trkpt><trkpt lat="48.47169119102895" lon="-3.9706456932552703"><ele>104.0</ele><time>2026-03-22T09:48:16.999Z</time></trkpt><trkpt lat="48.47159612270486" lon="-3.970645080592268"><ele>104.0</ele><time>2026-03-22T09:48:17.999Z</time></trkpt><trkpt lat="48.47151650590147" lon="-3.970635927996884"><ele>103.99999999999999</ele><time>2026-03-22T09:48:18.999Z</time></trkpt><trkpt lat="48.471445340675785" lon="-3.9706286504441897"><ele>104.0</ele><time>2026-03-22T09:48:19.999Z</time></trkpt><trkpt lat="48.471379223299465" lon="-3.970640190589987"><ele>104.0</ele><time>2026-03-22T09:48:20.999Z</time></trkpt><trkpt lat="48.471286521252495" lon="-3.9706752840877475"><ele>104.0</ele><time>2026-03-22T09:48:21.999Z</time></trkpt><trkpt lat="48.47116291311839" lon="-3.9707232395153707"><ele>103.99999999999999</ele><time>2026-03-22T09:48:23.999Z</time></trkpt><trkpt lat="48.47111790042025" lon="-3.970799684817901"><ele>104.0</ele><time>2026-03-22T09:48:24.999Z</time></trkpt><trkpt lat="48.471064673092854" lon="-3.970934917118085"><ele>104.80000000000001</ele><time>2026-03-22T09:48:26.999Z</time></trkpt><trkpt lat="48.47099345919367" lon="-3.971120569389858"><ele>105.60000000000001</ele><time>2026-03-22T09:48:28.999Z</time></trkpt><trkpt lat="48.470973537284024" lon="-3.9712191762636975"><ele>106.4</ele><time>2026-03-22T09:48:29.999Z</time></trkpt><trkpt lat="48.470918617215474" lon="-3.97134426183323"><ele>107.2</ele><time>2026-03-22T09:48:32Z</time></trkpt><trkpt lat="48.47088506826634" lon="-3.9714348418470635"><ele>108.0</ele><time>2026-03-22T09:48:33Z</time></trkpt><trkpt lat="48.47084584953183" lon="-3.9715423222897783"><ele>109.0</ele><time>2026-03-22T09:48:34Z</time></trkpt><trkpt lat="48.470751697561994" lon="-3.9717242804632167"><ele>110.0</ele><time>2026-03-22T09:48:36Z</time></trkpt><trkpt lat="48.47066493401593" lon="-3.9718440433227507"><ele>111.0</ele><time>2026-03-22T09:48:37Z</time></trkpt><trkpt lat="48.47062058627088" lon="-3.9719864840040744"><ele>112.0</ele><time>2026-03-22T09:48:38Z</time></trkpt><trkpt lat="48.47059379867535" lon="-3.9721677533564863"><ele>112.0</ele><time>2026-03-22T09:48:39Z</time></trkpt><trkpt lat="48.47058630207471" lon="-3.972394224917553"><ele>112.0</ele><time>2026-03-22T09:48:40Z</time></trkpt><trkpt lat="48.470572151093364" lon="-3.972626669509843"><ele>112.0</ele><time>2026-03-22T09:48:41Z</time></trkpt><trkpt lat="48.47054640445967" lon="-3.972850926640566"><ele>113.0</ele><time>2026-03-22T09:48:42Z</time></trkpt><trkpt lat="48.470535976332776" lon="-3.973048982502723"><ele>114.0</ele><time>2026-03-22T09:48:43Z</time></trkpt><trkpt lat="48.47054389016875" lon="-3.973220557561418"><ele>115.0</ele><time>2026-03-22T09:48:44Z</time></trkpt><trkpt lat="48.47055196088064" lon="-3.973405014752077"><ele>116.0</ele><time>2026-03-22T09:48:45Z</time></trkpt><trkpt lat="48.470562542345604" lon="-3.973601254957283"><ele>116.25</ele><time>2026-03-22T09:48:46Z</time></trkpt><trkpt lat="48.47053311962465" lon="-3.973774948250915"><ele>116.5</ele><time>2026-03-22T09:48:47Z</time></trkpt><trkpt lat="48.470476637147684" lon="-3.9739700559774276"><ele>116.75</ele><time>2026-03-22T09:48:48Z</time></trkpt><trkpt lat="48.4704172360201" lon="-3.9741566075762855"><ele>117.0</ele><time>2026-03-22T09:48:49Z</time></trkpt><trkpt lat="48.4703661543263" lon="-3.974356704516125"><ele>117.75</ele><time>2026-03-22T09:48:50Z</time></trkpt><trkpt lat="48.47031456165002" lon="-3.9745146657625825"><ele>118.5</ele><time>2026-03-22T09:48:51Z</time></trkpt><trkpt lat="48.4701969613322" lon="-3.974568801052555"><ele>119.25</ele><time>2026-03-22T09:48:52Z</time></trkpt><trkpt lat="48.47015872808164" lon="-3.974648850752266"><ele>120.0</ele><time>2026-03-22T09:48:53Z</time></trkpt><trkpt lat="48.47023471480303" lon="-3.974907009761438"><ele>120.5</ele><time>2026-03-22T09:48:55Z</time></trkpt><trkpt lat="48.470247480314015" lon="-3.975038863416302"><ele>121.0</ele><time>2026-03-22T09:48:56Z</time></trkpt><trkpt lat="48.47023106409802" lon="-3.9751487452108694"><ele>121.5</ele><time>2026-03-22T09:48:57Z</time></trkpt><trkpt lat="48.4702065934729" lon="-3.9752556659877656"><ele>122.0</ele><time>2026-03-22T09:48:58Z</time></trkpt><trkpt lat="48.4701508768791" lon="-3.975349234178201"><ele>122.5</ele><time>2026-03-22T09:48:59Z</time></trkpt><trkpt lat="48.4700994372127" lon="-3.9754579972431654"><ele>123.0</ele><time>2026-03-22T09:49:00Z</time></trkpt><trkpt lat="48.4700520767946" lon="-3.975559375487809"><ele>123.0</ele><time>2026-03-22T09:49:01Z</time></trkpt><trkpt lat="48.469973357233876" lon="-3.9756867133752345"><ele>123.00000000000001</ele><time>2026-03-22T09:49:03Z</time></trkpt><trkpt lat="48.46993526438735" lon="-3.9757776833917386"><ele>123.00000000000001</ele><time>2026-03-22T09:49:07Z</time></trkpt><trkpt lat="48.46985611409791" lon="-3.975787207705646"><ele>123.0</ele><time>2026-03-22T09:49:09Z</time></trkpt><trkpt lat="48.46981964564157" lon="-3.975966229514838"><ele>123.0</ele><time>2026-03-22T09:49:11Z</time></trkpt><trkpt lat="48.46978991409538" lon="-3.9760640742959343"><ele>123.0</ele><time>2026-03-22T09:49:12Z</time></trkpt><trkpt lat="48.46975075884062" lon="-3.976194345517075"><ele>123.00000000000001</ele><time>2026-03-22T09:49:13Z</time></trkpt><trkpt lat="48.46970358799216" lon="-3.9763529262803727"><ele>123.00000000000001</ele><time>2026-03-22T09:49:14Z</time></trkpt><trkpt lat="48.46965578366998" lon="-3.9765146085141474"><ele>123.0</ele><time>2026-03-22T09:49:15Z</time></trkpt><trkpt lat="48.46959423650044" lon="-3.9766670889889997"><ele>123.0</ele><time>2026-03-22T09:49:16Z</time></trkpt><trkpt lat="48.46955564878257" lon="-3.9768088784537476"><ele>123.2</ele><time>2026-03-22T09:49:17Z</time></trkpt><trkpt lat="48.4695209307479" lon="-3.9769211803633016"><ele>123.4</ele><time>2026-03-22T09:49:18Z</time></trkpt><trkpt lat="48.46949658688825" lon="-3.9770568429177025"><ele>123.60000000000001</ele><time>2026-03-22T09:49:20Z</time></trkpt><trkpt lat="48.469568514365875" lon="-3.977162003183095"><ele>123.80000000000001</ele><time>2026-03-22T09:49:22Z</time></trkpt><trkpt lat="48.46965033228768" lon="-3.977225554584731"><ele>124.0</ele><time>2026-03-22T09:49:23Z</time></trkpt><trkpt lat="48.469749153746754" lon="-3.9772955933844227"><ele>124.0</ele><time>2026-03-22T09:49:24Z</time></trkpt><trkpt lat="48.46984666817509" lon="-3.9773764040647523"><ele>124.0</ele><time>2026-03-22T09:49:25Z</time></trkpt><trkpt lat="48.469954238672194" lon="-3.9774771723702718"><ele>124.0</ele><time>2026-03-22T09:49:26Z</time></trkpt><trkpt lat="48.470066308003844" lon="-3.9775839601620677"><ele>124.0</ele><time>2026-03-22T09:49:26.999Z</time></trkpt><trkpt lat="48.47018378230104" lon="-3.9776961528826167"><ele>124.75</ele><time>2026-03-22T09:49:27.999Z</time></trkpt><trkpt lat="48.470299305572475" lon="-3.9778069284917805"><ele>125.5</ele><time>2026-03-22T09:49:28.999Z</time></trkpt><trkpt lat="48.47041419581991" lon="-3.9779175978097916"><ele>126.25</ele><time>2026-03-22T09:49:29.999Z</time></trkpt><trkpt lat="48.47053635666855" lon="-3.97802097496406"><ele>127.0</ele><time>2026-03-22T09:49:30.999Z</time></trkpt><trkpt lat="48.470663286211625" lon="-3.978125505023089"><ele>127.25</ele><time>2026-03-22T09:49:31.999Z</time></trkpt><trkpt lat="48.47078650636398" lon="-3.9782236757482905"><ele>127.5</ele><time>2026-03-22T09:49:32.999Z</time></trkpt><trkpt lat="48.47091831867384" lon="-3.978333260127276"><ele>127.75</ele><time>2026-03-22T09:49:33.999Z</time></trkpt><trkpt lat="48.47105172156973" lon="-3.978437434354234"><ele>128.0</ele><time>2026-03-22T09:49:34.999Z</time></trkpt><trkpt lat="48.47117347958483" lon="-3.9785293315018193"><ele>128.25</ele><time>2026-03-22T09:49:35.999Z</time></trkpt><trkpt lat="48.47127820967484" lon="-3.978620195666688"><ele>128.5</ele><time>2026-03-22T09:49:36.999Z</time></trkpt><trkpt lat="48.47138253879589" lon="-3.978702647268308"><ele>128.75</ele><time>2026-03-22T09:49:37.999Z</time></trkpt><trkpt lat="48.47148829846095" lon="-3.978783680902334"><ele>129.0</ele><time>2026-03-22T09:49:38.999Z</time></trkpt><trkpt lat="48.47159813860082" lon="-3.978857568794903"><ele>129.0</ele><time>2026-03-22T09:49:39.999Z</time></trkpt><trkpt lat="48.47170894078168" lon="-3.978928423702873"><ele>129.0</ele><time>2026-03-22T09:49:40.999Z</time></trkpt><trkpt lat="48.471814741332956" lon="-3.978989332208151"><ele>129.0</ele><time>2026-03-22T09:49:41.999Z</time></trkpt><trkpt lat="48.47191488914093" lon="-3.979045307103888"><ele>129.0</ele><time>2026-03-22T09:49:42.999Z</time></trkpt><trkpt lat="48.471999584069025" lon="-3.979094168284193"><ele>129.0</ele><time>2026-03-22T09:49:43.999Z</time></trkpt><trkpt lat="48.47207354510509" lon="-3.979134107818743"><ele>128.83333333333334</ele><time>2026-03-22T09:49:44.999Z</time></trkpt><trkpt lat="48.47214450188906" lon="-3.9791527171241143"><ele>128.66666666666666</ele><time>2026-03-22T09:49:46.999Z</time></trkpt><trkpt lat="48.47222491097078" lon="-3.9791748176888126"><ele>128.5</ele><time>2026-03-22T09:50:05.999Z</time></trkpt><trkpt lat="48.47230186473509" lon="-3.97916564375259"><ele>128.33333333333331</ele><time>2026-03-22T09:50:06.999Z</time></trkpt><trkpt lat="48.47239685595447" lon="-3.9791786680508703"><ele>128.16666666666666</ele><time>2026-03-22T09:50:07.999Z</time></trkpt><trkpt lat="48.47251736474734" lon="-3.979195191070332"><ele>128.0</ele><time>2026-03-22T09:50:08.999Z</time></trkpt><trkpt lat="48.47233837433964" lon="-3.979829442696292"><ele>128.0</ele><time>2026-03-22T09:50:09.999Z</time></trkpt><trkpt lat="48.47241052285175" lon="-3.979956173152627"><ele>128.0</ele><time>2026-03-22T09:50:10.999Z</time></trkpt><trkpt lat="48.472491407499426" lon="-3.980097534881233"><ele>128.0</ele><time>2026-03-22T09:50:11.999Z</time></trkpt><trkpt lat="48.47259431039652" lon="-3.9802633762601225"><ele>128.0</ele><time>2026-03-22T09:50:12.999Z</time></trkpt><trkpt lat="48.47271682440813" lon="-3.980431301471976"><ele>128.0</ele><time>2026-03-22T09:50:13.999Z</time></trkpt><trkpt lat="48.47283778824206" lon="-3.9805886543080278"><ele>128.0</ele><time>2026-03-22T09:50:14.999Z</time></trkpt><trkpt lat="48.47295886746663" lon="-3.980746523503227"><ele>128.0</ele><time>2026-03-22T09:50:15.999Z</time></trkpt><trkpt lat="48.473103092553814" lon="-3.98087677121277"><ele>128.0</ele><time>2026-03-22T09:50:16.999Z</time></trkpt><trkpt lat="48.47323604959503" lon="-3.9809892079303655"><ele>128.0</ele><time>2026-03-22T09:50:17.999Z</time></trkpt><trkpt lat="48.47331889416371" lon="-3.981069117854965"><ele>128.0</ele><time>2026-03-22T09:50:18.999Z</time></trkpt><trkpt lat="48.47341835145952" lon="-3.9811564532522743"><ele>128.0</ele><time>2026-03-22T09:50:19.999Z</time></trkpt><trkpt lat="48.474093626364535" lon="-3.9804451883433942"><ele>127.0</ele><time>2026-03-22T09:50:20.999Z</time></trkpt><trkpt lat="48.4742617221772" lon="-3.9804502948343803"><ele>126.0</ele><time>2026-03-22T09:50:21.999Z</time></trkpt><trkpt lat="48.47427209488302" lon="-3.9807954293288055"><ele>125.0</ele><time>2026-03-22T09:50:22.999Z</time></trkpt><trkpt lat="48.47440055818563" lon="-3.980915247492849"><ele>124.66666666666666</ele><time>2026-03-22T09:50:23.999Z</time></trkpt><trkpt lat="48.47453931896655" lon="-3.9810407527717246"><ele>124.33333333333334</ele><time>2026-03-22T09:50:24.999Z</time></trkpt><trkpt lat="48.47467162040327" lon="-3.981179617063648"><ele>124.0</ele><time>2026-03-22T09:50:25.999Z</time></trkpt><trkpt lat="48.474799793155476" lon="-3.9813139690711274"><ele>124.0</ele><time>2026-03-22T09:50:26.999Z</time></trkpt><trkpt lat="48.47493892208833" lon="-3.981437764765448"><ele>124.0</ele><time>2026-03-22T09:50:27.999Z</time></trkpt><trkpt lat="48.4751006109105" lon="-3.981569202982"><ele>124.0</ele><time>2026-03-22T09:50:28.999Z</time></trkpt><trkpt lat="48.47525242057682" lon="-3.9817051359426654"><ele>122.66666666666667</ele><time>2026-03-22T09:50:29.999Z</time></trkpt><trkpt lat="48.47540194644138" lon="-3.9818354623347614"><ele>121.33333333333334</ele><time>2026-03-22T09:50:30.999Z</time></trkpt><trkpt lat="48.47554170315653" lon="-3.9819571230468926"><ele>120.0</ele><time>2026-03-22T09:50:31.999Z</time></trkpt><trkpt lat="48.4756896669077" lon="-3.9820821457620124"><ele>119.33333333333334</ele><time>2026-03-22T09:50:32.999Z</time></trkpt><trkpt lat="48.475853450328884" lon="-3.982207393971302"><ele>118.66666666666667</ele><time>2026-03-22T09:50:33.999Z</time></trkpt><trkpt lat="48.4760148919238" lon="-3.9822964914608248"><ele>118.0</ele><time>2026-03-22T09:50:34.999Z</time></trkpt><trkpt lat="48.476156240911884" lon="-3.982389504715782"><ele>116.25</ele><time>2026-03-22T09:50:35.999Z</time></trkpt><trkpt lat="48.47627717842521" lon="-3.9824713016247832"><ele>114.5</ele><time>2026-03-22T09:50:36.999Z</time></trkpt><trkpt lat="48.476387363372396" lon="-3.982553179580131"><ele>112.75</ele><time>2026-03-22T09:50:38Z</time></trkpt><trkpt lat="48.47649280466113" lon="-3.9826292301301804"><ele>111.0</ele><time>2026-03-22T09:50:39Z</time></trkpt><trkpt lat="48.47662171967673" lon="-3.982718818437831"><ele>111.0</ele><time>2026-03-22T09:50:40Z</time></trkpt><trkpt lat="48.47675259199212" lon="-3.9828421655558226"><ele>111.0</ele><time>2026-03-22T09:50:41Z</time></trkpt><trkpt lat="48.47687113604721" lon="-3.9829660643165514"><ele>111.0</ele><time>2026-03-22T09:50:42Z</time></trkpt><trkpt lat="48.47701237204551" lon="-3.9830559172368307"><ele>108.33333333333334</ele><time>2026-03-22T09:50:43Z</time></trkpt><trkpt lat="48.4771550632141" lon="-3.9831782018660715"><ele>105.66666666666667</ele><time>2026-03-22T09:50:44Z</time></trkpt><trkpt lat="48.47729293039312" lon="-3.983281615397438"><ele>103.0</ele><time>2026-03-22T09:50:45Z</time></trkpt><trkpt lat="48.47740981988405" lon="-3.983391315352573"><ele>103.0</ele><time>2026-03-22T09:50:46Z</time></trkpt><trkpt lat="48.4775270812747" lon="-3.983510599059803"><ele>103.0</ele><time>2026-03-22T09:50:47Z</time></trkpt><trkpt lat="48.4776483125638" lon="-3.983658193284292"><ele>103.0</ele><time>2026-03-22T09:50:48Z</time></trkpt><trkpt lat="48.47776346686378" lon="-3.9838235665141895"><ele>103.0</ele><time>2026-03-22T09:50:49Z</time></trkpt><trkpt lat="48.47787891591729" lon="-3.9839613561180403"><ele>103.0</ele><time>2026-03-22T09:50:50Z</time></trkpt><trkpt lat="48.477997370229176" lon="-3.9840940070388204"><ele>103.0</ele><time>2026-03-22T09:50:51Z</time></trkpt><trkpt lat="48.47810511724851" lon="-3.984212906761003"><ele>103.0</ele><time>2026-03-22T09:50:52Z</time></trkpt><trkpt lat="48.47820228760708" lon="-3.984312487980929"><ele>103.0</ele><time>2026-03-22T09:50:53Z</time></trkpt><trkpt lat="48.47830556157769" lon="-3.984384705420969"><ele>103.0</ele><time>2026-03-22T09:50:54Z</time></trkpt><trkpt lat="48.478394699533446" lon="-3.984454970499392"><ele>103.0</ele><time>2026-03-22T09:50:55Z</time></trkpt><trkpt lat="48.47848091887762" lon="-3.9845417995572805"><ele>103.0</ele><time>2026-03-22T09:50:56Z</time></trkpt><trkpt lat="48.47856069292941" lon="-3.984593715641096"><ele>103.0</ele><time>2026-03-22T09:50:57Z</time></trkpt><trkpt lat="48.47863538082943" lon="-3.984637885892989"><ele>103.00000000000001</ele><time>2026-03-22T09:50:58Z</time></trkpt><trkpt lat="48.4786923856019" lon="-3.9846841220264504"><ele>103.0</ele><time>2026-03-22T09:50:59Z</time></trkpt><trkpt lat="48.478746464211085" lon="-3.9847347685659202"><ele>103.0</ele><time>2026-03-22T09:51:00Z</time></trkpt><trkpt lat="48.478826687966865" lon="-3.984787910168237"><ele>103.0</ele><time>2026-03-22T09:51:02Z</time></trkpt><trkpt lat="48.47888982308275" lon="-3.984854988912196"><ele>103.00000000000001</ele><time>2026-03-22T09:51:05Z</time></trkpt><trkpt lat="48.47893414430472" lon="-3.984949162431243"><ele>103.0</ele><time>2026-03-22T09:51:07Z</time></trkpt><trkpt lat="48.479057347904515" lon="-3.9850717356004086"><ele>104.75</ele><time>2026-03-22T09:51:09Z</time></trkpt><trkpt lat="48.47916045675592" lon="-3.9851568971571574"><ele>106.5</ele><time>2026-03-22T09:51:10Z</time></trkpt><trkpt lat="48.47927542950332" lon="-3.9852606686697"><ele>108.25</ele><time>2026-03-22T09:51:11Z</time></trkpt><trkpt lat="48.479384440617146" lon="-3.9853466042887997"><ele>110.0</ele><time>2026-03-22T09:51:12Z</time></trkpt><trkpt lat="48.47949206602078" lon="-3.98542949433835"><ele>110.0</ele><time>2026-03-22T09:51:13Z</time></trkpt><trkpt lat="48.4795773119335" lon="-3.985506473993443"><ele>110.0</ele><time>2026-03-22T09:51:14Z</time></trkpt><trkpt lat="48.47962895054566" lon="-3.985650495178005"><ele>110.0</ele><time>2026-03-22T09:51:15Z</time></trkpt><trkpt lat="48.47967940129604" lon="-3.9857997051208063"><ele>110.0</ele><time>2026-03-22T09:51:16Z</time></trkpt><trkpt lat="48.479733800613076" lon="-3.9859708931932514"><ele>110.0</ele><time>2026-03-22T09:51:17Z</time></trkpt><trkpt lat="48.479806153151614" lon="-3.9861615863822526"><ele>111.25</ele><time>2026-03-22T09:51:18Z</time></trkpt><trkpt lat="48.47986325265959" lon="-3.986334856327111"><ele>112.5</ele><time>2026-03-22T09:51:19Z</time></trkpt><trkpt lat="48.47992896350425" lon="-3.9864937989822695"><ele>113.75</ele><time>2026-03-22T09:51:20Z</time></trkpt><trkpt lat="48.48002278073822" lon="-3.9866385628315455"><ele>115.0</ele><time>2026-03-22T09:51:21Z</time></trkpt><trkpt lat="48.48011641017149" lon="-3.9867960767305304"><ele>115.0</ele><time>2026-03-22T09:51:22Z</time></trkpt><trkpt lat="48.48018356820813" lon="-3.986954442461589"><ele>115.0</ele><time>2026-03-22T09:51:23Z</time></trkpt><trkpt lat="48.480250365619895" lon="-3.98711836561285"><ele>115.0</ele><time>2026-03-22T09:51:24Z</time></trkpt><trkpt lat="48.48032132619416" lon="-3.9872507003330786"><ele>115.0</ele><time>2026-03-22T09:51:25Z</time></trkpt><trkpt lat="48.480394724490715" lon="-3.987350996828264"><ele>115.6</ele><time>2026-03-22T09:51:26Z</time></trkpt><trkpt lat="48.480451171723864" lon="-3.9874200115915928"><ele>116.2</ele><time>2026-03-22T09:51:27Z</time></trkpt><trkpt lat="48.480505207040586" lon="-3.987518157125796"><ele>116.80000000000001</ele><time>2026-03-22T09:51:28Z</time></trkpt><trkpt lat="48.480584494514375" lon="-3.98762293600963"><ele>117.4</ele><time>2026-03-22T09:51:29Z</time></trkpt><trkpt lat="48.48067760581557" lon="-3.9877237010078885"><ele>118.0</ele><time>2026-03-22T09:51:30Z</time></trkpt><trkpt lat="48.48077665605085" lon="-3.987836295173352"><ele>118.0</ele><time>2026-03-22T09:51:31Z</time></trkpt><trkpt lat="48.48087728789922" lon="-3.987950910814705"><ele>118.0</ele><time>2026-03-22T09:51:32Z</time></trkpt><trkpt lat="48.48098915094899" lon="-3.988091124535925"><ele>118.0</ele><time>2026-03-22T09:51:33Z</time></trkpt><trkpt lat="48.48108955001825" lon="-3.988243019537076"><ele>118.0</ele><time>2026-03-22T09:51:34Z</time></trkpt><trkpt lat="48.48121569398963" lon="-3.9883918168459735"><ele>118.66666666666667</ele><time>2026-03-22T09:51:35Z</time></trkpt><trkpt lat="48.4813420806896" lon="-3.9885268674279337"><ele>119.33333333333334</ele><time>2026-03-22T09:51:36Z</time></trkpt><trkpt lat="48.481482757340444" lon="-3.988658263910694"><ele>120.0</ele><time>2026-03-22T09:51:37Z</time></trkpt><trkpt lat="48.481624631035174" lon="-3.988770542286414"><ele>120.0</ele><time>2026-03-22T09:51:38Z</time></trkpt><trkpt lat="48.4817704874792" lon="-3.988886585152368"><ele>120.0</ele><time>2026-03-22T09:51:39Z</time></trkpt><trkpt lat="48.48192113022287" lon="-3.9890019240496457"><ele>120.0</ele><time>2026-03-22T09:51:39.999Z</time></trkpt><trkpt lat="48.482067443247395" lon="-3.9891035815046747"><ele>121.0</ele><time>2026-03-22T09:51:40.999Z</time></trkpt><trkpt lat="48.48221120631178" lon="-3.989191261738005"><ele>122.0</ele><time>2026-03-22T09:51:41.999Z</time></trkpt><trkpt lat="48.482337260932624" lon="-3.989273529179381"><ele>123.0</ele><time>2026-03-22T09:51:42.999Z</time></trkpt><trkpt lat="48.48245111571018" lon="-3.989342927013366"><ele>124.0</ele><time>2026-03-22T09:51:43.999Z</time></trkpt><trkpt lat="48.48255473729728" lon="-3.989405350505351"><ele>124.0</ele><time>2026-03-22T09:51:44.999Z</time></trkpt><trkpt lat="48.48264990171877" lon="-3.9894682743032486"><ele>124.0</ele><time>2026-03-22T09:51:45.999Z</time></trkpt><trkpt lat="48.48273632718921" lon="-3.9895207252369054"><ele>124.0</ele><time>2026-03-22T09:51:46.999Z</time></trkpt><trkpt lat="48.48280344257724" lon="-3.989560238955155"><ele>124.0</ele><time>2026-03-22T09:51:47.999Z</time></trkpt><trkpt lat="48.48289660387885" lon="-3.9895303190464095"><ele>124.0</ele><time>2026-03-22T09:51:49.999Z</time></trkpt><trkpt lat="48.48292215985129" lon="-3.9893686988381125"><ele>124.0</ele><time>2026-03-22T09:51:51.999Z</time></trkpt><trkpt lat="48.482930583072815" lon="-3.9892512596805814"><ele>124.0</ele><time>2026-03-22T09:51:52.999Z</time></trkpt><trkpt lat="48.482951573853455" lon="-3.9891043713121137"><ele>124.0</ele><time>2026-03-22T09:51:53.999Z</time></trkpt><trkpt lat="48.4829869062451" lon="-3.9889389899836454"><ele>124.0</ele><time>2026-03-22T09:51:54.999Z</time></trkpt><trkpt lat="48.48302186790919" lon="-3.9887667220247214"><ele>124.0</ele><time>2026-03-22T09:51:55.999Z</time></trkpt><trkpt lat="48.48305981229455" lon="-3.988578060840974"><ele>123.5</ele><time>2026-03-22T09:51:56.999Z</time></trkpt><trkpt lat="48.48309766363253" lon="-3.988389372663011"><ele>123.0</ele><time>2026-03-22T09:51:57.999Z</time></trkpt><trkpt lat="48.483131911413444" lon="-3.9882106063394818"><ele>122.5</ele><time>2026-03-22T09:51:58.999Z</time></trkpt><trkpt lat="48.483160575547764" lon="-3.9880364605396315"><ele>122.0</ele><time>2026-03-22T09:51:59.999Z</time></trkpt><trkpt lat="48.48322112537966" lon="-3.9878849942136334"><ele>121.39999999999999</ele><time>2026-03-22T09:52:00.999Z</time></trkpt><trkpt lat="48.4832835402105" lon="-3.9877416802257017"><ele>120.79999999999998</ele><time>2026-03-22T09:52:01.999Z</time></trkpt><trkpt lat="48.48335940965233" lon="-3.9876518292881404"><ele>120.2</ele><time>2026-03-22T09:52:02.999Z</time></trkpt><trkpt lat="48.48342126839736" lon="-3.987579819899917"><ele>119.6</ele><time>2026-03-22T09:52:03.999Z</time></trkpt><trkpt lat="48.48352415894925" lon="-3.9876162366832593"><ele>119.0</ele><time>2026-03-22T09:52:04.999Z</time></trkpt><trkpt lat="48.48361389128123" lon="-3.9876667446936804"><ele>119.0</ele><time>2026-03-22T09:52:05.999Z</time></trkpt><trkpt lat="48.48371996822631" lon="-3.9877213356532306"><ele>119.0</ele><time>2026-03-22T09:52:06.999Z</time></trkpt><trkpt lat="48.483832055539715" lon="-3.987772403093435"><ele>119.0</ele><time>2026-03-22T09:52:07.999Z</time></trkpt><trkpt lat="48.483951390281945" lon="-3.9878050453353655"><ele>119.0</ele><time>2026-03-22T09:52:08.999Z</time></trkpt><trkpt lat="48.484061418834955" lon="-3.9878333644551898"><ele>119.0</ele><time>2026-03-22T09:52:09.999Z</time></trkpt><trkpt lat="48.48418118118694" lon="-3.9878499020938913"><ele>119.0</ele><time>2026-03-22T09:52:10.999Z</time></trkpt><trkpt lat="48.48430571781183" lon="-3.9878600333184524"><ele>119.0</ele><time>2026-03-22T09:52:11.999Z</time></trkpt><trkpt lat="48.484431951624224" lon="-3.9878711671316815"><ele>119.0</ele><time>2026-03-22T09:52:12.999Z</time></trkpt><trkpt lat="48.48455583969874" lon="-3.987887376275348"><ele>118.25</ele><time>2026-03-22T09:52:13.999Z</time></trkpt><trkpt lat="48.48468719646531" lon="-3.987909847859142"><ele>117.5</ele><time>2026-03-22T09:52:14.999Z</time></trkpt><trkpt lat="48.484826349219155" lon="-3.987934065524014"><ele>116.75</ele><time>2026-03-22T09:52:15.999Z</time></trkpt><trkpt lat="48.484970249050775" lon="-3.9879581682578045"><ele>116.0</ele><time>2026-03-22T09:52:16.999Z</time></trkpt><trkpt lat="48.48511799772755" lon="-3.987985162469196"><ele>116.0</ele><time>2026-03-22T09:52:17.999Z</time></trkpt><trkpt lat="48.48525880943073" lon="-3.9879985283396318"><ele>116.0</ele><time>2026-03-22T09:52:18.999Z</time></trkpt><trkpt lat="48.4853863698139" lon="-3.9880174871622307"><ele>116.0</ele><time>2026-03-22T09:52:19.999Z</time></trkpt><trkpt lat="48.485507327548014" lon="-3.988022847871051"><ele>116.0</ele><time>2026-03-22T09:52:20.999Z</time></trkpt><trkpt lat="48.485628851604446" lon="-3.9880222962835177"><ele>115.0</ele><time>2026-03-22T09:52:21.999Z</time></trkpt><trkpt lat="48.485762833270684" lon="-3.9880265650420803"><ele>114.0</ele><time>2026-03-22T09:52:22.999Z</time></trkpt><trkpt lat="48.48588143001848" lon="-3.98802972049006"><ele>113.0</ele><time>2026-03-22T09:52:23.999Z</time></trkpt><trkpt lat="48.4859704950404" lon="-3.988040977220604"><ele>112.0</ele><time>2026-03-22T09:52:24.999Z</time></trkpt><trkpt lat="48.486036932044776" lon="-3.9880299051205252"><ele>111.0</ele><time>2026-03-22T09:52:25.999Z</time></trkpt><trkpt lat="48.486073881508034" lon="-3.988236332542823"><ele>111.75</ele><time>2026-03-22T09:52:27.999Z</time></trkpt><trkpt lat="48.486060979868824" lon="-3.988400711982481"><ele>112.5</ele><time>2026-03-22T09:52:28.999Z</time></trkpt><trkpt lat="48.48604250248607" lon="-3.988580001555338"><ele>113.25</ele><time>2026-03-22T09:52:29.999Z</time></trkpt><trkpt lat="48.48603185930855" lon="-3.9887874227419546"><ele>114.0</ele><time>2026-03-22T09:52:30.999Z</time></trkpt><trkpt lat="48.48602916752305" lon="-3.9890067495564776"><ele>115.33333333333334</ele><time>2026-03-22T09:52:31.999Z</time></trkpt><trkpt lat="48.48603864374153" lon="-3.98923730591553"><ele>116.66666666666667</ele><time>2026-03-22T09:52:32.999Z</time></trkpt><trkpt lat="48.486056731884624" lon="-3.989469486045763"><ele>118.0</ele><time>2026-03-22T09:52:33.999Z</time></trkpt><trkpt lat="48.486114860295004" lon="-3.989701118884661"><ele>118.0</ele><time>2026-03-22T09:52:34.999Z</time></trkpt><trkpt lat="48.48615249789518" lon="-3.989957335785485"><ele>118.0</ele><time>2026-03-22T09:52:35.999Z</time></trkpt><trkpt lat="48.486206564590425" lon="-3.990192092660535"><ele>118.0</ele><time>2026-03-22T09:52:36.999Z</time></trkpt><trkpt lat="48.48625463465537" lon="-3.990416972732418"><ele>119.0</ele><time>2026-03-22T09:52:37.999Z</time></trkpt><trkpt lat="48.486299495914906" lon="-3.9906333290196785"><ele>120.0</ele><time>2026-03-22T09:52:38.999Z</time></trkpt><trkpt lat="48.486342054180376" lon="-3.9908237650426583"><ele>121.0</ele><time>2026-03-22T09:52:39.999Z</time></trkpt><trkpt lat="48.4863910458516" lon="-3.990989954395517"><ele>122.0</ele><time>2026-03-22T09:52:40.999Z</time></trkpt><trkpt lat="48.48647543515177" lon="-3.99111404665079"><ele>122.6</ele><time>2026-03-22T09:52:41.999Z</time></trkpt><trkpt lat="48.486559343998536" lon="-3.9912508744606816"><ele>123.19999999999999</ele><time>2026-03-22T09:52:42.999Z</time></trkpt><trkpt lat="48.48666389842958" lon="-3.991354642378073"><ele>123.8</ele><time>2026-03-22T09:52:44Z</time></trkpt><trkpt lat="48.48675300508082" lon="-3.9914411632539903"><ele>124.4</ele><time>2026-03-22T09:52:45Z</time></trkpt><trkpt lat="48.48681588706706" lon="-3.991496826678827"><ele>125.0</ele><time>2026-03-22T09:52:46Z</time></trkpt><trkpt lat="48.48702049688883" lon="-3.9915978752845254"><ele>125.0</ele><time>2026-03-22T09:52:49Z</time></trkpt><trkpt lat="48.48694541172977" lon="-3.991230003284262"><ele>125.0</ele><time>2026-03-22T09:52:50Z</time></trkpt><trkpt lat="48.48699900491142" lon="-3.991065238844075"><ele>125.0</ele><time>2026-03-22T09:52:51Z</time></trkpt><trkpt lat="48.48706514849402" lon="-3.9908942088889616"><ele>123.75</ele><time>2026-03-22T09:52:52Z</time></trkpt><trkpt lat="48.48713122547146" lon="-3.990715786191138"><ele>122.5</ele><time>2026-03-22T09:52:53Z</time></trkpt><trkpt lat="48.48719673826264" lon="-3.990526378305577"><ele>121.25</ele><time>2026-03-22T09:52:54Z</time></trkpt><trkpt lat="48.48726466544754" lon="-3.9903248611750155"><ele>120.0</ele><time>2026-03-22T09:52:55Z</time></trkpt><trkpt lat="48.48733378597212" lon="-3.9901165408050776"><ele>119.5</ele><time>2026-03-22T09:52:56Z</time></trkpt><trkpt lat="48.487403763196106" lon="-3.98990928223597"><ele>119.0</ele><time>2026-03-22T09:52:57Z</time></trkpt><trkpt lat="48.48747497072295" lon="-3.9897038086865284"><ele>118.5</ele><time>2026-03-22T09:52:58Z</time></trkpt><trkpt lat="48.487535094264764" lon="-3.98951469965736"><ele>118.0</ele><time>2026-03-22T09:52:59Z</time></trkpt><trkpt lat="48.48759502655897" lon="-3.989345500811591"><ele>118.0</ele><time>2026-03-22T09:53:00Z</time></trkpt><trkpt lat="48.48764380513381" lon="-3.9892011276893142"><ele>118.00000000000001</ele><time>2026-03-22T09:53:01Z</time></trkpt><trkpt lat="48.487693893394905" lon="-3.989046828126481"><ele>118.00000000000001</ele><time>2026-03-22T09:53:02Z</time></trkpt><trkpt lat="48.487740249180305" lon="-3.988908468088218"><ele>118.0</ele><time>2026-03-22T09:53:03Z</time></trkpt><trkpt lat="48.48778774155768" lon="-3.988782430440446"><ele>118.0</ele><time>2026-03-22T09:53:04Z</time></trkpt><trkpt lat="48.48783288408467" lon="-3.9886659219290523"><ele>118.0</ele><time>2026-03-22T09:53:05Z</time></trkpt><trkpt lat="48.4878544581187" lon="-3.988552690333628"><ele>118.00000000000001</ele><time>2026-03-22T09:53:06Z</time></trkpt><trkpt lat="48.48788372662335" lon="-3.988467554537761"><ele>118.00000000000001</ele><time>2026-03-22T09:53:08Z</time></trkpt><trkpt lat="48.48806059976399" lon="-3.9886206534838746"><ele>118.0</ele><time>2026-03-22T09:53:10Z</time></trkpt><trkpt lat="48.48812898174077" lon="-3.988735359658898"><ele>118.0</ele><time>2026-03-22T09:53:11Z</time></trkpt><trkpt lat="48.488186741523215" lon="-3.988838353114593"><ele>117.5</ele><time>2026-03-22T09:53:12Z</time></trkpt><trkpt lat="48.48825506703241" lon="-3.9889601863634563"><ele>117.0</ele><time>2026-03-22T09:53:13Z</time></trkpt><trkpt lat="48.48833142701203" lon="-3.9891112930996755"><ele>116.5</ele><time>2026-03-22T09:53:14Z</time></trkpt><trkpt lat="48.488415927495424" lon="-3.989225667675267"><ele>116.0</ele><time>2026-03-22T09:53:15Z</time></trkpt><trkpt lat="48.48850338473831" lon="-3.9893503752921844"><ele>115.99999999999999</ele><time>2026-03-22T09:53:16Z</time></trkpt><trkpt lat="48.488573983193035" lon="-3.9894789670299757"><ele>116.0</ele><time>2026-03-22T09:53:17Z</time></trkpt><trkpt lat="48.488627299162324" lon="-3.9895838321648465"><ele>116.0</ele><time>2026-03-22T09:53:18Z</time></trkpt><trkpt lat="48.48865912994329" lon="-3.9896860326854795"><ele>116.0</ele><time>2026-03-22T09:53:19Z</time></trkpt><trkpt lat="48.48869175426589" lon="-3.9898251517245495"><ele>115.99999999999999</ele><time>2026-03-22T09:53:20Z</time></trkpt><trkpt lat="48.48873938100321" lon="-3.9898957961045483"><ele>116.0</ele><time>2026-03-22T09:53:21Z</time></trkpt><trkpt lat="48.488852654567026" lon="-3.989872134664485"><ele>115.0</ele><time>2026-03-22T09:53:23Z</time></trkpt><trkpt lat="48.48891103353076" lon="-3.9899107700687786"><ele>114.0</ele><time>2026-03-22T09:53:24Z</time></trkpt><trkpt lat="48.48899385646515" lon="-3.9900393278556554"><ele>113.0</ele><time>2026-03-22T09:53:25Z</time></trkpt><trkpt lat="48.48911122023239" lon="-3.9901563467280696"><ele>112.0</ele><time>2026-03-22T09:53:26Z</time></trkpt><trkpt lat="48.48925723563571" lon="-3.9902272452617478"><ele>111.66666666666667</ele><time>2026-03-22T09:53:27Z</time></trkpt><trkpt lat="48.48936231917231" lon="-3.990260048531414"><ele>111.33333333333334</ele><time>2026-03-22T09:53:28Z</time></trkpt><trkpt lat="48.48944706697523" lon="-3.9902838302539787"><ele>111.0</ele><time>2026-03-22T09:53:29Z</time></trkpt><trkpt lat="48.48951102126501" lon="-3.9903047301211254"><ele>110.66666666666666</ele><time>2026-03-22T09:53:30Z</time></trkpt><trkpt lat="48.489573623703116" lon="-3.9903564886789846"><ele>110.33333333333333</ele><time>2026-03-22T09:53:33Z</time></trkpt><trkpt lat="48.489628449015704" lon="-3.9904126911173687"><ele>110.0</ele><time>2026-03-22T09:53:35Z</time></trkpt><trkpt lat="48.48969218222726" lon="-3.9904551734432965"><ele>108.83333333333333</ele><time>2026-03-22T09:53:36Z</time></trkpt><trkpt lat="48.489767273111816" lon="-3.99048371615673"><ele>107.66666666666666</ele><time>2026-03-22T09:53:37Z</time></trkpt><trkpt lat="48.489842662424095" lon="-3.9905030851219645"><ele>106.5</ele><time>2026-03-22T09:53:37.999Z</time></trkpt><trkpt lat="48.48991872435667" lon="-3.990512536817852"><ele>105.33333333333334</ele><time>2026-03-22T09:53:38.999Z</time></trkpt><trkpt lat="48.49001295879574" lon="-3.990530959761224"><ele>104.16666666666667</ele><time>2026-03-22T09:53:39.999Z</time></trkpt><trkpt lat="48.49008140601235" lon="-3.9905445013932495"><ele>103.0</ele><time>2026-03-22T09:53:40.999Z</time></trkpt><trkpt lat="48.49015187537148" lon="-3.9905456614939396"><ele>103.0</ele><time>2026-03-22T09:53:41.999Z</time></trkpt><trkpt lat="48.49021848000666" lon="-3.990524176653892"><ele>103.0</ele><time>2026-03-22T09:53:42.999Z</time></trkpt><trkpt lat="48.49032896257085" lon="-3.9904344223870507"><ele>103.0</ele><time>2026-03-22T09:53:44.999Z</time></trkpt><trkpt lat="48.49039996615927" lon="-3.9904104305777968"><ele>103.0</ele><time>2026-03-22T09:53:45.999Z</time></trkpt><trkpt lat="48.49047803184482" lon="-3.990392703505671"><ele>103.0</ele><time>2026-03-22T09:53:46.999Z</time></trkpt><trkpt lat="48.490577275830866" lon="-3.990295948082198"><ele>103.4</ele><time>2026-03-22T09:53:48.999Z</time></trkpt><trkpt lat="48.49065036060926" lon="-3.990233035353433"><ele>103.80000000000001</ele><time>2026-03-22T09:53:49.999Z</time></trkpt><trkpt lat="48.490715967725855" lon="-3.9901976425946684"><ele>104.2</ele><time>2026-03-22T09:53:50.999Z</time></trkpt><trkpt lat="48.49083669078096" lon="-3.990158987265515"><ele>104.6</ele><time>2026-03-22T09:53:52.999Z</time></trkpt><trkpt lat="48.49093421927062" lon="-3.9901329475590965"><ele>105.0</ele><time>2026-03-22T09:53:53.999Z</time></trkpt><trkpt lat="48.49103108173101" lon="-3.9900995189987363"><ele>105.0</ele><time>2026-03-22T09:53:54.999Z</time></trkpt><trkpt lat="48.491120282966165" lon="-3.9900421760078113"><ele>105.0</ele><time>2026-03-22T09:53:55.999Z</time></trkpt><trkpt lat="48.49119692406598" lon="-3.9899796324203174"><ele>105.0</ele><time>2026-03-22T09:53:56.999Z</time></trkpt><trkpt lat="48.49128698929632" lon="-3.9899196526619427"><ele>105.0</ele><time>2026-03-22T09:53:57.999Z</time></trkpt><trkpt lat="48.49137959978065" lon="-3.9898542651423887"><ele>105.0</ele><time>2026-03-22T09:53:58.999Z</time></trkpt><trkpt lat="48.491463477843205" lon="-3.989773716005918"><ele>106.8</ele><time>2026-03-22T09:53:59.999Z</time></trkpt><trkpt lat="48.49156122018541" lon="-3.9897010121937364"><ele>108.6</ele><time>2026-03-22T09:54:00.999Z</time></trkpt><trkpt lat="48.491645687655414" lon="-3.9896177647057463"><ele>110.4</ele><time>2026-03-22T09:54:01.999Z</time></trkpt><trkpt lat="48.49172600480772" lon="-3.9895707976380215"><ele>112.2</ele><time>2026-03-22T09:54:03.999Z</time></trkpt><trkpt lat="48.49176338800007" lon="-3.9896632924189053"><ele>114.0</ele><time>2026-03-22T09:54:08.999Z</time></trkpt><trkpt lat="48.49181057116472" lon="-3.989834409933477"><ele>114.0</ele><time>2026-03-22T09:54:10.999Z</time></trkpt><trkpt lat="48.49189155665572" lon="-3.9898801974884224"><ele>114.0</ele><time>2026-03-22T09:54:11.999Z</time></trkpt><trkpt lat="48.49199212922736" lon="-3.9899026908414803"><ele>114.0</ele><time>2026-03-22T09:54:12.999Z</time></trkpt><trkpt lat="48.4920861288928" lon="-3.989906398434044"><ele>114.0</ele><time>2026-03-22T09:54:13.999Z</time></trkpt><trkpt lat="48.49219408344556" lon="-3.989929635393341"><ele>114.0</ele><time>2026-03-22T09:54:14.999Z</time></trkpt><trkpt lat="48.49230696784675" lon="-3.9899445307539607"><ele>114.6</ele><time>2026-03-22T09:54:15.999Z</time></trkpt><trkpt lat="48.49241856666474" lon="-3.989953776904676"><ele>115.2</ele><time>2026-03-22T09:54:16.999Z</time></trkpt><trkpt lat="48.492526984977665" lon="-3.9899541727234444"><ele>115.79999999999998</ele><time>2026-03-22T09:54:17.999Z</time></trkpt><trkpt lat="48.49261689978426" lon="-3.9899357989063855"><ele>116.39999999999999</ele><time>2026-03-22T09:54:18.999Z</time></trkpt><trkpt lat="48.49269106450742" lon="-3.9899212175551826"><ele>117.0</ele><time>2026-03-22T09:54:19.999Z</time></trkpt><trkpt lat="48.492763993874405" lon="-3.989904329073927"><ele>117.0</ele><time>2026-03-22T09:54:20.999Z</time></trkpt><trkpt lat="48.492824520058356" lon="-3.989866450201137"><ele>117.0</ele><time>2026-03-22T09:54:21.999Z</time></trkpt><trkpt lat="48.49288647217476" lon="-3.9898154054679638"><ele>117.0</ele><time>2026-03-22T09:54:22.999Z</time></trkpt><trkpt lat="48.492952392140474" lon="-3.9897944906689045"><ele>117.0</ele><time>2026-03-22T09:54:23.999Z</time></trkpt><trkpt lat="48.49304064294379" lon="-3.9898498853574282"><ele>117.0</ele><time>2026-03-22T09:54:24.999Z</time></trkpt><trkpt lat="48.49314576106121" lon="-3.9899058599831836"><ele>117.0</ele><time>2026-03-22T09:54:25.999Z</time></trkpt><trkpt lat="48.49325983467341" lon="-3.9899483465869854"><ele>117.0</ele><time>2026-03-22T09:54:26.999Z</time></trkpt><trkpt lat="48.493376132874886" lon="-3.989972259253718"><ele>117.0</ele><time>2026-03-22T09:54:27.999Z</time></trkpt><trkpt lat="48.4934926261501" lon="-3.9900022084661098"><ele>117.0</ele><time>2026-03-22T09:54:28.999Z</time></trkpt><trkpt lat="48.49361008714563" lon="-3.9900385677393833"><ele>117.0</ele><time>2026-03-22T09:54:29.999Z</time></trkpt><trkpt lat="48.4937389673085" lon="-3.990071687071313"><ele>117.5</ele><time>2026-03-22T09:54:30.999Z</time></trkpt><trkpt lat="48.493860732318865" lon="-3.990103270872549"><ele>118.0</ele><time>2026-03-22T09:54:31.999Z</time></trkpt><trkpt lat="48.49398753230798" lon="-3.9901425280528704"><ele>118.5</ele><time>2026-03-22T09:54:32.999Z</time></trkpt><trkpt lat="48.49411220187984" lon="-3.9901763425423638"><ele>119.0</ele><time>2026-03-22T09:54:33.999Z</time></trkpt><trkpt lat="48.494232271484854" lon="-3.990207061832693"><ele>118.99999999999999</ele><time>2026-03-22T09:54:34.999Z</time></trkpt><trkpt lat="48.49433712295357" lon="-3.990238412386654"><ele>119.0</ele><time>2026-03-22T09:54:35.999Z</time></trkpt><trkpt lat="48.49442997590757" lon="-3.9902637657959668"><ele>119.0</ele><time>2026-03-22T09:54:36.999Z</time></trkpt><trkpt lat="48.49450275812277" lon="-3.990302021735269"><ele>119.0</ele><time>2026-03-22T09:54:37.999Z</time></trkpt><trkpt lat="48.49457178174348" lon="-3.9903630012852127"><ele>118.99999999999999</ele><time>2026-03-22T09:54:38.999Z</time></trkpt><trkpt lat="48.49458075802613" lon="-3.9904982166217606"><ele>119.0</ele><time>2026-03-22T09:54:39.999Z</time></trkpt><trkpt lat="48.49458151904711" lon="-3.99064993795739"><ele>119.2</ele><time>2026-03-22T09:54:40.999Z</time></trkpt><trkpt lat="48.49460200169458" lon="-3.9907974222575384"><ele>119.4</ele><time>2026-03-22T09:54:41.999Z</time></trkpt><trkpt lat="48.494607087587895" lon="-3.9909444002497554"><ele>119.6</ele><time>2026-03-22T09:54:42.999Z</time></trkpt><trkpt lat="48.4945993360399" lon="-3.9910848146747404"><ele>119.8</ele><time>2026-03-22T09:54:43.999Z</time></trkpt><trkpt lat="48.494602609096496" lon="-3.991257712994053"><ele>120.0</ele><time>2026-03-22T09:54:44.999Z</time></trkpt><trkpt lat="48.49462500410594" lon="-3.991403811200701"><ele>120.0</ele><time>2026-03-22T09:54:45.999Z</time></trkpt><trkpt lat="48.49463724269212" lon="-3.9915387729749123"><ele>120.0</ele><time>2026-03-22T09:54:46.999Z</time></trkpt><trkpt lat="48.49465451722503" lon="-3.991635485557836"><ele>120.0</ele><time>2026-03-22T09:54:47.999Z</time></trkpt><trkpt lat="48.494703789218555" lon="-3.9917593643613354"><ele>120.0</ele><time>2026-03-22T09:54:50Z</time></trkpt><trkpt lat="48.49465595792656" lon="-3.9919202842669304"><ele>120.0</ele><time>2026-03-22T09:54:51Z</time></trkpt><trkpt lat="48.4946434991807" lon="-3.9920861435670307"><ele>119.8</ele><time>2026-03-22T09:54:52Z</time></trkpt><trkpt lat="48.49465794825968" lon="-3.99225949879072"><ele>119.6</ele><time>2026-03-22T09:54:53Z</time></trkpt><trkpt lat="48.49466037266455" lon="-3.992430717087663"><ele>119.4</ele><time>2026-03-22T09:54:54Z</time></trkpt><trkpt lat="48.494664144925395" lon="-3.9925781975426236"><ele>119.2</ele><time>2026-03-22T09:54:55Z</time></trkpt><trkpt lat="48.49465438090891" lon="-3.992713934969659"><ele>119.0</ele><time>2026-03-22T09:54:56Z</time></trkpt><trkpt lat="48.49467552148668" lon="-3.9928322453684166"><ele>119.6</ele><time>2026-03-22T09:54:57Z</time></trkpt><trkpt lat="48.49469613608025" lon="-3.992974355509725"><ele>120.2</ele><time>2026-03-22T09:54:59Z</time></trkpt><trkpt lat="48.49483343120392" lon="-3.9929267005238307"><ele>120.79999999999998</ele><time>2026-03-22T09:55:00Z</time></trkpt><trkpt lat="48.494926880343755" lon="-3.9929175702095034"><ele>121.39999999999999</ele><time>2026-03-22T09:55:01Z</time></trkpt><trkpt lat="48.49504511686082" lon="-3.9929169912237024"><ele>122.0</ele><time>2026-03-22T09:55:02Z</time></trkpt><trkpt lat="48.495170661267814" lon="-3.9929447417611184"><ele>122.0</ele><time>2026-03-22T09:55:03Z</time></trkpt><trkpt lat="48.4953153800145" lon="-3.9929542319648297"><ele>122.0</ele><time>2026-03-22T09:55:04Z</time></trkpt><trkpt lat="48.495464965476266" lon="-3.9929697506186477"><ele>122.0</ele><time>2026-03-22T09:55:05Z</time></trkpt><trkpt lat="48.49561513876839" lon="-3.992979600048531"><ele>122.0</ele><time>2026-03-22T09:55:06Z</time></trkpt><trkpt lat="48.495768868019255" lon="-3.9930006090612777"><ele>122.66666666666666</ele><time>2026-03-22T09:55:07Z</time></trkpt><trkpt lat="48.495924039386274" lon="-3.9930272154225994"><ele>123.33333333333334</ele><time>2026-03-22T09:55:08Z</time></trkpt><trkpt lat="48.49607431694341" lon="-3.9930527887799294"><ele>124.0</ele><time>2026-03-22T09:55:09Z</time></trkpt><trkpt lat="48.49621625775909" lon="-3.993075215245297"><ele>124.5</ele><time>2026-03-22T09:55:10Z</time></trkpt><trkpt lat="48.49635560918854" lon="-3.9930998904875774"><ele>125.0</ele><time>2026-03-22T09:55:11Z</time></trkpt><trkpt lat="48.496477984826946" lon="-3.993121563791723"><ele>125.5</ele><time>2026-03-22T09:55:12Z</time></trkpt><trkpt lat="48.49659150845906" lon="-3.9931408363043466"><ele>126.0</ele><time>2026-03-22T09:55:13Z</time></trkpt><trkpt lat="48.496707730666955" lon="-3.993141900993296"><ele>126.0</ele><time>2026-03-22T09:55:14Z</time></trkpt><trkpt lat="48.49683651776138" lon="-3.9931679502233455"><ele>126.0</ele><time>2026-03-22T09:55:15Z</time></trkpt><trkpt lat="48.496963229989085" lon="-3.9931943458310837"><ele>126.0</ele><time>2026-03-22T09:55:16Z</time></trkpt><trkpt lat="48.49709045323694" lon="-3.993220937242245"><ele>126.0</ele><time>2026-03-22T09:55:17Z</time></trkpt><trkpt lat="48.49721115707448" lon="-3.993246166934814"><ele>126.0</ele><time>2026-03-22T09:55:18Z</time></trkpt><trkpt lat="48.49731401571168" lon="-3.993293548784012"><ele>126.0</ele><time>2026-03-22T09:55:19Z</time></trkpt><trkpt lat="48.49741296468872" lon="-3.99331299535753"><ele>126.0</ele><time>2026-03-22T09:55:20Z</time></trkpt><trkpt lat="48.497494392729635" lon="-3.9933137129480207"><ele>126.0</ele><time>2026-03-22T09:55:21Z</time></trkpt><trkpt lat="48.49756103348196" lon="-3.993328394226946"><ele>126.0</ele><time>2026-03-22T09:55:22Z</time></trkpt><trkpt lat="48.49758273517451" lon="-3.9934912385228833"><ele>126.19999999999999</ele><time>2026-03-22T09:55:23Z</time></trkpt><trkpt lat="48.497594343003385" lon="-3.993620441590704"><ele>126.39999999999999</ele><time>2026-03-22T09:55:24Z</time></trkpt><trkpt lat="48.497589569485754" lon="-3.993775687808126"><ele>126.6</ele><time>2026-03-22T09:55:25Z</time></trkpt><trkpt lat="48.49759001802411" lon="-3.993903915937579"><ele>126.8</ele><time>2026-03-22T09:55:26Z</time></trkpt><trkpt lat="48.497577755217876" lon="-3.994062218632301"><ele>127.0</ele><time>2026-03-22T09:55:28Z</time></trkpt><trkpt lat="48.49758677035039" lon="-3.9941931063525256"><ele>127.0</ele><time>2026-03-22T09:55:30Z</time></trkpt><trkpt lat="48.49758692773423" lon="-3.9943790981817093"><ele>126.99999999999999</ele><time>2026-03-22T09:55:32Z</time></trkpt><trkpt lat="48.49757981703681" lon="-3.994495796597188"><ele>126.99999999999999</ele><time>2026-03-22T09:55:33Z</time></trkpt><trkpt lat="48.49758027070959" lon="-3.9946092905948416"><ele>127.0</ele><time>2026-03-22T09:55:34Z</time></trkpt><trkpt lat="48.49757749175961" lon="-3.9947598983041814"><ele>127.0</ele><time>2026-03-22T09:55:35Z</time></trkpt><trkpt lat="48.49757076956666" lon="-3.994914081724564"><ele>127.0</ele><time>2026-03-22T09:55:36Z</time></trkpt><trkpt lat="48.49757287370717" lon="-3.9950893412614374"><ele>127.0</ele><time>2026-03-22T09:55:37Z</time></trkpt><trkpt lat="48.497592808547736" lon="-3.9952641131130053"><ele>127.0</ele><time>2026-03-22T09:55:38Z</time></trkpt><trkpt lat="48.497596985420984" lon="-3.995437489780241"><ele>127.0</ele><time>2026-03-22T09:55:39Z</time></trkpt><trkpt lat="48.49759010829678" lon="-3.99562700699451"><ele>127.0</ele><time>2026-03-22T09:55:40Z</time></trkpt><trkpt lat="48.49760159799406" lon="-3.9958222457462487"><ele>127.0</ele><time>2026-03-22T09:55:40.999Z</time></trkpt><trkpt lat="48.49760918219327" lon="-3.996031320613749"><ele>127.0</ele><time>2026-03-22T09:55:41.999Z</time></trkpt><trkpt lat="48.49764094285589" lon="-3.996225841775396"><ele>127.0</ele><time>2026-03-22T09:55:42.999Z</time></trkpt><trkpt lat="48.49766046624873" lon="-3.9964421833583854"><ele>127.0</ele><time>2026-03-22T09:55:43.999Z</time></trkpt><trkpt lat="48.49768033005741" lon="-3.9966480939878135"><ele>127.0</ele><time>2026-03-22T09:55:44.999Z</time></trkpt><trkpt lat="48.497701495102184" lon="-3.9968623114174306"><ele>127.0</ele><time>2026-03-22T09:55:45.999Z</time></trkpt><trkpt lat="48.49770886747046" lon="-3.997079111335273"><ele>127.0</ele><time>2026-03-22T09:55:46.999Z</time></trkpt><trkpt lat="48.49774379115543" lon="-3.9972820584408564"><ele>126.75</ele><time>2026-03-22T09:55:47.999Z</time></trkpt><trkpt lat="48.49775167703285" lon="-3.997507246075408"><ele>126.5</ele><time>2026-03-22T09:55:48.999Z</time></trkpt><trkpt lat="48.49777837334102" lon="-3.9977256034609523"><ele>126.25</ele><time>2026-03-22T09:55:49.999Z</time></trkpt><trkpt lat="48.49781542187569" lon="-3.997941113503237"><ele>126.0</ele><time>2026-03-22T09:55:50.999Z</time></trkpt><trkpt lat="48.49786431159961" lon="-3.9981505815656564"><ele>125.66666666666666</ele><time>2026-03-22T09:55:51.999Z</time></trkpt><trkpt lat="48.49792373917514" lon="-3.998357172086678"><ele>125.33333333333333</ele><time>2026-03-22T09:55:52.999Z</time></trkpt><trkpt lat="48.49799697456954" lon="-3.998568894210767"><ele>125.0</ele><time>2026-03-22T09:55:53.999Z</time></trkpt><trkpt lat="48.498073512973015" lon="-3.9987622706566555"><ele>125.0</ele><time>2026-03-22T09:55:54.999Z</time></trkpt><trkpt lat="48.498163235645734" lon="-3.9989490102596186"><ele>125.0</ele><time>2026-03-22T09:55:55.999Z</time></trkpt><trkpt lat="48.498260061977106" lon="-3.9991421631405575"><ele>125.0</ele><time>2026-03-22T09:55:56.999Z</time></trkpt><trkpt lat="48.498346115368506" lon="-3.9993150047024124"><ele>124.66666666666666</ele><time>2026-03-22T09:55:57.999Z</time></trkpt><trkpt lat="48.49844749687651" lon="-3.9995047876622545"><ele>124.33333333333334</ele><time>2026-03-22T09:55:58.999Z</time></trkpt><trkpt lat="48.49853243682524" lon="-3.9996849797790834"><ele>124.0</ele><time>2026-03-22T09:55:59.999Z</time></trkpt><trkpt lat="48.498621559132204" lon="-3.999872708563626"><ele>124.0</ele><time>2026-03-22T09:56:00.999Z</time></trkpt><trkpt lat="48.49869427028931" lon="-4.000067733940101"><ele>124.0</ele><time>2026-03-22T09:56:01.999Z</time></trkpt><trkpt lat="48.498742966956726" lon="-4.000278804987966"><ele>124.0</ele><time>2026-03-22T09:56:02.999Z</time></trkpt><trkpt lat="48.49876190257293" lon="-4.000485253124406"><ele>124.0</ele><time>2026-03-22T09:56:03.999Z</time></trkpt><trkpt lat="48.498761240204125" lon="-4.000680603250438"><ele>124.2</ele><time>2026-03-22T09:56:04.999Z</time></trkpt><trkpt lat="48.49875548100653" lon="-4.000851372696492"><ele>124.4</ele><time>2026-03-22T09:56:05.999Z</time></trkpt><trkpt lat="48.498755021377356" lon="-4.0010182170913255"><ele>124.6</ele><time>2026-03-22T09:56:06.999Z</time></trkpt><trkpt lat="48.498776448460795" lon="-4.001169002794492"><ele>124.8</ele><time>2026-03-22T09:56:07.999Z</time></trkpt><trkpt lat="48.498794152580096" lon="-4.0013055624883735"><ele>125.0</ele><time>2026-03-22T09:56:08.999Z</time></trkpt><trkpt lat="48.498822348969895" lon="-4.0014162020586985"><ele>125.0</ele><time>2026-03-22T09:56:09.999Z</time></trkpt><trkpt lat="48.49886601658325" lon="-4.001540388354164"><ele>125.0</ele><time>2026-03-22T09:56:10.999Z</time></trkpt><trkpt lat="48.49892301210689" lon="-4.0016886214010015"><ele>125.0</ele><time>2026-03-22T09:56:11.999Z</time></trkpt><trkpt lat="48.49899481960283" lon="-4.001829487211434"><ele>125.0</ele><time>2026-03-22T09:56:12.999Z</time></trkpt><trkpt lat="48.498701957826164" lon="-4.002386595879055"><ele>124.5</ele><time>2026-03-22T09:56:13.999Z</time></trkpt><trkpt lat="48.49869600296337" lon="-4.002611692390053"><ele>124.0</ele><time>2026-03-22T09:56:14.999Z</time></trkpt><trkpt lat="48.49868400204151" lon="-4.0028172537076685"><ele>123.5</ele><time>2026-03-22T09:56:15.999Z</time></trkpt><trkpt lat="48.498673055036534" lon="-4.003031231329838"><ele>123.0</ele><time>2026-03-22T09:56:16.999Z</time></trkpt><trkpt lat="48.49866662763686" lon="-4.003244332499258"><ele>123.0</ele><time>2026-03-22T09:56:17.999Z</time></trkpt><trkpt lat="48.49866562831295" lon="-4.00343242574026"><ele>123.00000000000001</ele><time>2026-03-22T09:56:18.999Z</time></trkpt><trkpt lat="48.49865551786022" lon="-4.0036130459799075"><ele>123.00000000000001</ele><time>2026-03-22T09:56:19.999Z</time></trkpt><trkpt lat="48.49865305777118" lon="-4.0037763247424225"><ele>123.0</ele><time>2026-03-22T09:56:20.999Z</time></trkpt><trkpt lat="48.498647750189804" lon="-4.00392146394167"><ele>123.0</ele><time>2026-03-22T09:56:21.999Z</time></trkpt><trkpt lat="48.49863733510173" lon="-4.004064833218708"><ele>123.0</ele><time>2026-03-22T09:56:22.999Z</time></trkpt><trkpt lat="48.498632876458075" lon="-4.004203007227236"><ele>123.0</ele><time>2026-03-22T09:56:23.999Z</time></trkpt><trkpt lat="48.498631571188376" lon="-4.004335712238737"><ele>123.0</ele><time>2026-03-22T09:56:24.999Z</time></trkpt><trkpt lat="48.498616989335005" lon="-4.004461243739501"><ele>123.0</ele><time>2026-03-22T09:56:25.999Z</time></trkpt><trkpt lat="48.49861445006716" lon="-4.0045963192961915"><ele>123.0</ele><time>2026-03-22T09:56:26.999Z</time></trkpt><trkpt lat="48.49860316058134" lon="-4.0047150224577335"><ele>123.0</ele><time>2026-03-22T09:56:27.999Z</time></trkpt><trkpt lat="48.49860478673326" lon="-4.004823257656846"><ele>123.0</ele><time>2026-03-22T09:56:28.999Z</time></trkpt><trkpt lat="48.498603056508244" lon="-4.004926931978936"><ele>123.00000000000001</ele><time>2026-03-22T09:56:29.999Z</time></trkpt><trkpt lat="48.49860395457473" lon="-4.005142757176188"><ele>123.00000000000001</ele><time>2026-03-22T09:56:31.999Z</time></trkpt><trkpt lat="48.498616565163125" lon="-4.005264391602985"><ele>123.0</ele><time>2026-03-22T09:56:32.999Z</time></trkpt><trkpt lat="48.498634910178936" lon="-4.005399892367056"><ele>123.0</ele><time>2026-03-22T09:56:33.999Z</time></trkpt><trkpt lat="48.49865385287666" lon="-4.005568823611184"><ele>123.0</ele><time>2026-03-22T09:56:34.999Z</time></trkpt><trkpt lat="48.49864796537626" lon="-4.005702443269637"><ele>123.00000000000001</ele><time>2026-03-22T09:56:35.999Z</time></trkpt><trkpt lat="48.49866103498201" lon="-4.005845576093618"><ele>123.00000000000001</ele><time>2026-03-22T09:56:36.999Z</time></trkpt><trkpt lat="48.49868612856563" lon="-4.00601529095377"><ele>123.0</ele><time>2026-03-22T09:56:37.999Z</time></trkpt><trkpt lat="48.49871461045105" lon="-4.006185643661275"><ele>123.0</ele><time>2026-03-22T09:56:38.999Z</time></trkpt><trkpt lat="48.49873918606251" lon="-4.006332008205095"><ele>122.80000000000001</ele><time>2026-03-22T09:56:39.999Z</time></trkpt><trkpt lat="48.49876456793875" lon="-4.006479356087656"><ele>122.60000000000001</ele><time>2026-03-22T09:56:40.999Z</time></trkpt><trkpt lat="48.49879235101255" lon="-4.006607883042142"><ele>122.39999999999999</ele><time>2026-03-22T09:56:41.999Z</time></trkpt><trkpt lat="48.4988436078718" lon="-4.00673335477092"><ele>122.19999999999999</ele><time>2026-03-22T09:56:42.999Z</time></trkpt><trkpt lat="48.49890739937533" lon="-4.0068705005289225"><ele>122.0</ele><time>2026-03-22T09:56:43.999Z</time></trkpt><trkpt lat="48.49896017658809" lon="-4.006990643728286"><ele>121.83333333333333</ele><time>2026-03-22T09:56:44.999Z</time></trkpt><trkpt lat="48.49899652663503" lon="-4.007094496488774"><ele>121.66666666666666</ele><time>2026-03-22T09:56:45.999Z</time></trkpt><trkpt lat="48.4990339299067" lon="-4.007242302956234"><ele>121.5</ele><time>2026-03-22T09:56:47.999Z</time></trkpt><trkpt lat="48.4990375541821" lon="-4.007338610738783"><ele>121.33333333333334</ele><time>2026-03-22T09:56:49.999Z</time></trkpt><trkpt lat="48.49904824656446" lon="-4.007477431975179"><ele>121.16666666666667</ele><time>2026-03-22T09:57:10Z</time></trkpt><trkpt lat="48.499056047189356" lon="-4.007582189747837"><ele>121.0</ele><time>2026-03-22T09:57:11Z</time></trkpt><trkpt lat="48.49907526944992" lon="-4.00770499106625"><ele>120.8</ele><time>2026-03-22T09:57:12Z</time></trkpt><trkpt lat="48.499085971226584" lon="-4.007833665242985"><ele>120.6</ele><time>2026-03-22T09:57:13Z</time></trkpt><trkpt lat="48.499105676516265" lon="-4.007936321257912"><ele>120.4</ele><time>2026-03-22T09:57:14Z</time></trkpt><trkpt lat="48.49916876673867" lon="-4.008094330470395"><ele>120.2</ele><time>2026-03-22T09:57:16Z</time></trkpt><trkpt lat="48.49920270519168" lon="-4.008183757713352"><ele>120.0</ele><time>2026-03-22T09:57:18Z</time></trkpt><trkpt lat="48.499267635278464" lon="-4.008364171929159"><ele>119.6</ele><time>2026-03-22T09:57:53Z</time></trkpt><trkpt lat="48.49930632503993" lon="-4.008468059366973"><ele>119.2</ele><time>2026-03-22T09:57:54Z</time></trkpt><trkpt lat="48.49933571805288" lon="-4.0085846682635164"><ele>118.80000000000001</ele><time>2026-03-22T09:57:54.999Z</time></trkpt><trkpt lat="48.499367135453646" lon="-4.008735423346065"><ele>118.4</ele><time>2026-03-22T09:57:55.999Z</time></trkpt><trkpt lat="48.4993874126688" lon="-4.008889092104106"><ele>118.0</ele><time>2026-03-22T09:57:56.999Z</time></trkpt><trkpt lat="48.499406887539905" lon="-4.009037868692652"><ele>117.0</ele><time>2026-03-22T09:57:57.999Z</time></trkpt><trkpt lat="48.499416152456824" lon="-4.009191024280311"><ele>116.0</ele><time>2026-03-22T09:57:58.999Z</time></trkpt><trkpt lat="48.49941097190232" lon="-4.009358499046996"><ele>115.0</ele><time>2026-03-22T09:57:59.999Z</time></trkpt><trkpt lat="48.499383980981584" lon="-4.009539370013856"><ele>114.0</ele><time>2026-03-22T09:58:00.999Z</time></trkpt><trkpt lat="48.49935492986469" lon="-4.009715873244189"><ele>114.0</ele><time>2026-03-22T09:58:01.999Z</time></trkpt><trkpt lat="48.49932733413155" lon="-4.009891431307734"><ele>114.0</ele><time>2026-03-22T09:58:02.999Z</time></trkpt><trkpt lat="48.49929884493081" lon="-4.010052910913904"><ele>114.0</ele><time>2026-03-22T09:58:03.999Z</time></trkpt><trkpt lat="48.49926670916827" lon="-4.010238938715636"><ele>114.0</ele><time>2026-03-22T09:58:04.999Z</time></trkpt><trkpt lat="48.49924452780473" lon="-4.010402065343917"><ele>113.4</ele><time>2026-03-22T09:58:05.999Z</time></trkpt><trkpt lat="48.49922210747016" lon="-4.010568299453868"><ele>112.80000000000001</ele><time>2026-03-22T09:58:06.999Z</time></trkpt><trkpt lat="48.4992042726045" lon="-4.010745164598334"><ele>112.19999999999999</ele><time>2026-03-22T09:58:07.999Z</time></trkpt><trkpt lat="48.499178369137475" lon="-4.010896575351338"><ele>111.6</ele><time>2026-03-22T09:58:08.999Z</time></trkpt><trkpt lat="48.499161814693345" lon="-4.011059119178964"><ele>111.0</ele><time>2026-03-22T09:58:09.999Z</time></trkpt><trkpt lat="48.49915689369945" lon="-4.011191235198911"><ele>110.66666666666667</ele><time>2026-03-22T09:58:10.999Z</time></trkpt><trkpt lat="48.499161516531366" lon="-4.011291041668421"><ele>110.33333333333334</ele><time>2026-03-22T09:58:11.999Z</time></trkpt><trkpt lat="48.499139513804806" lon="-4.011400842183959"><ele>110.0</ele><time>2026-03-22T09:58:13.999Z</time></trkpt><trkpt lat="48.49901602706855" lon="-4.011426682873755"><ele>109.66666666666667</ele><time>2026-03-22T09:58:17.999Z</time></trkpt><trkpt lat="48.49893708106659" lon="-4.011381086201477"><ele>109.33333333333334</ele><time>2026-03-22T09:58:18.999Z</time></trkpt><trkpt lat="48.49884540388585" lon="-4.011372124271376"><ele>109.0</ele><time>2026-03-22T09:58:19.999Z</time></trkpt><trkpt lat="48.498736358363026" lon="-4.011338851991442"><ele>108.75</ele><time>2026-03-22T09:58:20.999Z</time></trkpt><trkpt lat="48.498618919865436" lon="-4.011321198700885"><ele>108.5</ele><time>2026-03-22T09:58:21.999Z</time></trkpt><trkpt lat="48.49849095764488" lon="-4.011288201634388"><ele>108.25</ele><time>2026-03-22T09:58:22.999Z</time></trkpt><trkpt lat="48.498362065181084" lon="-4.011251560910224"><ele>108.0</ele><time>2026-03-22T09:58:23.999Z</time></trkpt><trkpt lat="48.498239546355485" lon="-4.011198006488343"><ele>108.0</ele><time>2026-03-22T09:58:24.999Z</time></trkpt><trkpt lat="48.49811478288765" lon="-4.011164190467771"><ele>108.0</ele><time>2026-03-22T09:58:25.999Z</time></trkpt><trkpt lat="48.49799512283454" lon="-4.011129370697579"><ele>108.0</ele><time>2026-03-22T09:58:26.999Z</time></trkpt><trkpt lat="48.49788237277372" lon="-4.011094672654359"><ele>108.0</ele><time>2026-03-22T09:58:27.999Z</time></trkpt><trkpt lat="48.49777163623032" lon="-4.011091824548552"><ele>107.4</ele><time>2026-03-22T09:58:28.999Z</time></trkpt><trkpt lat="48.49766137617535" lon="-4.01106976806164"><ele>106.80000000000001</ele><time>2026-03-22T09:58:29.999Z</time></trkpt><trkpt lat="48.497555121317355" lon="-4.011049513556286"><ele>106.2</ele><time>2026-03-22T09:58:30.999Z</time></trkpt><trkpt lat="48.497444167692855" lon="-4.011027379047307"><ele>105.6</ele><time>2026-03-22T09:58:31.999Z</time></trkpt><trkpt lat="48.49733433535336" lon="-4.0110019996216355"><ele>105.0</ele><time>2026-03-22T09:58:32.999Z</time></trkpt><trkpt lat="48.49722845239322" lon="-4.010975467020958"><ele>105.0</ele><time>2026-03-22T09:58:33.999Z</time></trkpt><trkpt lat="48.49713275424057" lon="-4.010929804992649"><ele>105.0</ele><time>2026-03-22T09:58:34.999Z</time></trkpt><trkpt lat="48.49704516625367" lon="-4.010911190083356"><ele>105.0</ele><time>2026-03-22T09:58:35.999Z</time></trkpt><trkpt lat="48.49695866579717" lon="-4.0108903197024475"><ele>105.0</ele><time>2026-03-22T09:58:36.999Z</time></trkpt><trkpt lat="48.49686995650217" lon="-4.010878447740542"><ele>105.0</ele><time>2026-03-22T09:58:37.999Z</time></trkpt><trkpt lat="48.496798261262086" lon="-4.010899548438513"><ele>105.0</ele><time>2026-03-22T09:58:38.999Z</time></trkpt><trkpt lat="48.49673489839537" lon="-4.011050249567868"><ele>104.5</ele><time>2026-03-22T09:58:40.999Z</time></trkpt><trkpt lat="48.49671282663513" lon="-4.0112143193677445"><ele>104.0</ele><time>2026-03-22T09:58:41.999Z</time></trkpt><trkpt lat="48.49668246944924" lon="-4.011390401552104"><ele>103.5</ele><time>2026-03-22T09:58:42.999Z</time></trkpt><trkpt lat="48.4966516831598" lon="-4.011595083287308"><ele>103.0</ele><time>2026-03-22T09:58:43.999Z</time></trkpt><trkpt lat="48.496600123077165" lon="-4.011795810048282"><ele>102.25</ele><time>2026-03-22T09:58:44.999Z</time></trkpt><trkpt lat="48.49655053579843" lon="-4.011963332962632"><ele>101.5</ele><time>2026-03-22T09:58:45.999Z</time></trkpt><trkpt lat="48.496510233793664" lon="-4.0121389509802965"><ele>100.75</ele><time>2026-03-22T09:58:46.999Z</time></trkpt><trkpt lat="48.496475650282775" lon="-4.012328133130519"><ele>100.0</ele><time>2026-03-22T09:58:47.999Z</time></trkpt><trkpt lat="48.49644323699163" lon="-4.012504942054438"><ele>100.0</ele><time>2026-03-22T09:58:48.999Z</time></trkpt><trkpt lat="48.49640146118041" lon="-4.012705068797025"><ele>100.0</ele><time>2026-03-22T09:58:49.999Z</time></trkpt><trkpt lat="48.49635106715962" lon="-4.0129049019879375"><ele>100.0</ele><time>2026-03-22T09:58:50.999Z</time></trkpt><trkpt lat="48.4963003924953" lon="-4.013103257693962"><ele>100.0</ele><time>2026-03-22T09:58:51.999Z</time></trkpt><trkpt lat="48.4962581481628" lon="-4.013271654137898"><ele>99.4</ele><time>2026-03-22T09:58:52.999Z</time></trkpt><trkpt lat="48.49621519706211" lon="-4.01342976742559"><ele>98.8</ele><time>2026-03-22T09:58:53.999Z</time></trkpt><trkpt lat="48.49617393482429" lon="-4.013562401396453"><ele>98.19999999999999</ele><time>2026-03-22T09:58:54.999Z</time></trkpt><trkpt lat="48.4961040429885" lon="-4.01365052846054"><ele>97.6</ele><time>2026-03-22T09:58:55.999Z</time></trkpt><trkpt lat="48.496048251251814" lon="-4.013784364861324"><ele>97.0</ele><time>2026-03-22T09:58:56.999Z</time></trkpt><trkpt lat="48.4959908484694" lon="-4.013874653115265"><ele>97.0</ele><time>2026-03-22T09:58:57.999Z</time></trkpt><trkpt lat="48.49595327353369" lon="-4.014015044945087"><ele>97.0</ele><time>2026-03-22T09:58:58.999Z</time></trkpt><trkpt lat="48.49590622438607" lon="-4.014127215766194"><ele>97.0</ele><time>2026-03-22T09:58:59.999Z</time></trkpt><trkpt lat="48.49586319707063" lon="-4.014244049835059"><ele>97.0</ele><time>2026-03-22T09:59:01Z</time></trkpt><trkpt lat="48.49579543985824" lon="-4.014369125223187"><ele>97.0</ele><time>2026-03-22T09:59:02Z</time></trkpt><trkpt lat="48.49575254707291" lon="-4.014494889878815"><ele>97.00000000000001</ele><time>2026-03-22T09:59:03Z</time></trkpt><trkpt lat="48.49572069666523" lon="-4.014620930927717"><ele>97.0</ele><time>2026-03-22T09:59:04Z</time></trkpt><trkpt lat="48.49570077128469" lon="-4.014737801230168"><ele>97.0</ele><time>2026-03-22T09:59:05Z</time></trkpt><trkpt lat="48.495674613493954" lon="-4.014826585609047"><ele>97.0</ele><time>2026-03-22T09:59:06Z</time></trkpt><trkpt lat="48.495587003654585" lon="-4.014992925230806"><ele>97.00000000000001</ele><time>2026-03-22T09:59:08Z</time></trkpt><trkpt lat="48.49558266304889" lon="-4.015090101817643"><ele>97.0</ele><time>2026-03-22T09:59:09Z</time></trkpt><trkpt lat="48.495608022094395" lon="-4.015215882766484"><ele>97.0</ele><time>2026-03-22T09:59:10Z</time></trkpt><trkpt lat="48.49562517740789" lon="-4.0153477177056365"><ele>97.0</ele><time>2026-03-22T09:59:11Z</time></trkpt><trkpt lat="48.495644527534466" lon="-4.0154857253453216"><ele>97.0</ele><time>2026-03-22T09:59:12Z</time></trkpt><trkpt lat="48.49565197781683" lon="-4.015580771011385"><ele>97.0</ele><time>2026-03-22T09:59:13Z</time></trkpt><trkpt lat="48.49577791028049" lon="-4.0156748178023305"><ele>97.0</ele><time>2026-03-22T09:59:15Z</time></trkpt><trkpt lat="48.49584403483941" lon="-4.015748421038917"><ele>96.00000000000001</ele><time>2026-03-22T09:59:17Z</time></trkpt><trkpt lat="48.49579958851859" lon="-4.015878987854804"><ele>95.0</ele><time>2026-03-22T09:59:19Z</time></trkpt><trkpt lat="48.495878550561535" lon="-4.015927034482612"><ele>94.0</ele><time>2026-03-22T09:59:24Z</time></trkpt><trkpt lat="48.49594156313687" lon="-4.015957797565655"><ele>93.0</ele><time>2026-03-22T09:59:25Z</time></trkpt><trkpt lat="48.496025906157605" lon="-4.015978289193502"><ele>92.0</ele><time>2026-03-22T09:59:26Z</time></trkpt><trkpt lat="48.496099170962786" lon="-4.016006230127949"><ele>91.0</ele><time>2026-03-22T09:59:27Z</time></trkpt><trkpt lat="48.49617934763423" lon="-4.016008039889832"><ele>91.0</ele><time>2026-03-22T09:59:28Z</time></trkpt><trkpt lat="48.49626344481697" lon="-4.016045090071232"><ele>91.0</ele><time>2026-03-22T09:59:29Z</time></trkpt><trkpt lat="48.49634283770415" lon="-4.016063808655075"><ele>91.0</ele><time>2026-03-22T09:59:30Z</time></trkpt><trkpt lat="48.49641500828982" lon="-4.016056149638728"><ele>91.0</ele><time>2026-03-22T09:59:31Z</time></trkpt><trkpt lat="48.49650532639046" lon="-4.0160744425368895"><ele>91.0</ele><time>2026-03-22T09:59:32Z</time></trkpt><trkpt lat="48.49657493844363" lon="-4.016089041454495"><ele>91.0</ele><time>2026-03-22T09:59:33Z</time></trkpt><trkpt lat="48.496715890111155" lon="-4.0160939767029635"><ele>91.0</ele><time>2026-03-22T09:59:35Z</time></trkpt><trkpt lat="48.49678376373829" lon="-4.0161325687232114"><ele>91.0</ele><time>2026-03-22T09:59:36Z</time></trkpt><trkpt lat="48.49686048212335" lon="-4.016145132585924"><ele>91.0</ele><time>2026-03-22T09:59:37Z</time></trkpt><trkpt lat="48.49692582026242" lon="-4.016140907398615"><ele>91.0</ele><time>2026-03-22T09:59:38Z</time></trkpt><trkpt lat="48.496987543277974" lon="-4.016181874834344"><ele>91.0</ele><time>2026-03-22T09:59:39Z</time></trkpt><trkpt lat="48.497059823125326" lon="-4.016205025901587"><ele>91.0</ele><time>2026-03-22T09:59:40Z</time></trkpt><trkpt lat="48.497172450507065" lon="-4.016255102269238"><ele>90.8</ele><time>2026-03-22T09:59:42Z</time></trkpt><trkpt lat="48.497272775615436" lon="-4.016282511039405"><ele>90.6</ele><time>2026-03-22T09:59:43Z</time></trkpt><trkpt lat="48.497353947334865" lon="-4.016305799096958"><ele>90.4</ele><time>2026-03-22T09:59:44Z</time></trkpt><trkpt lat="48.49743864301002" lon="-4.0163358514844205"><ele>90.2</ele><time>2026-03-22T09:59:45Z</time></trkpt><trkpt lat="48.497535724930515" lon="-4.016311127802682"><ele>90.0</ele><time>2026-03-22T09:59:47Z</time></trkpt><trkpt lat="48.49763094350658" lon="-4.016227331052625"><ele>90.0</ele><time>2026-03-22T09:59:49Z</time></trkpt><trkpt lat="48.497723790906356" lon="-4.016214626952956"><ele>90.0</ele><time>2026-03-22T09:59:50.999Z</time></trkpt><trkpt lat="48.49779254057797" lon="-4.016122104597006"><ele>90.0</ele><time>2026-03-22T09:59:52.999Z</time></trkpt><trkpt lat="48.49786325568628" lon="-4.016063731853223"><ele>90.0</ele><time>2026-03-22T09:59:53.999Z</time></trkpt><trkpt lat="48.49793216933363" lon="-4.016052676243996"><ele>90.0</ele><time>2026-03-22T09:59:54.999Z</time></trkpt><trkpt lat="48.49800116904958" lon="-4.016032599387806"><ele>90.0</ele><time>2026-03-22T09:59:55.999Z</time></trkpt><trkpt lat="48.4980711730178" lon="-4.016037934434502"><ele>89.33333333333333</ele><time>2026-03-22T09:59:56.999Z</time></trkpt><trkpt lat="48.49815631813338" lon="-4.016099484797011"><ele>88.66666666666667</ele><time>2026-03-22T09:59:58.999Z</time></trkpt><trkpt lat="48.49821860504596" lon="-4.016120819460102"><ele>88.0</ele><time>2026-03-22T09:59:59.999Z</time></trkpt><trkpt lat="48.49833079438477" lon="-4.01615888964891"><ele>87.33333333333334</ele><time>2026-03-22T10:00:01.999Z</time></trkpt><trkpt lat="48.498400464196635" lon="-4.016186619361962"><ele>86.66666666666667</ele><time>2026-03-22T10:00:02.999Z</time></trkpt><trkpt lat="48.498464742737426" lon="-4.016243920342366"><ele>86.0</ele><time>2026-03-22T10:00:03.999Z</time></trkpt><trkpt lat="48.49853984271177" lon="-4.016317945253716"><ele>86.0</ele><time>2026-03-22T10:00:04.999Z</time></trkpt><trkpt lat="48.49859845385971" lon="-4.016398096361919"><ele>86.0</ele><time>2026-03-22T10:00:05.999Z</time></trkpt><trkpt lat="48.49870218762739" lon="-4.016543275417309"><ele>86.0</ele><time>2026-03-22T10:00:07.999Z</time></trkpt><trkpt lat="48.498778187730025" lon="-4.0166501181286245"><ele>86.0</ele><time>2026-03-22T10:00:08.999Z</time></trkpt><trkpt lat="48.49883557238839" lon="-4.016766220343683"><ele>86.0</ele><time>2026-03-22T10:00:09.999Z</time></trkpt><trkpt lat="48.49887716601375" lon="-4.016851352503866"><ele>86.25</ele><time>2026-03-22T10:00:10.999Z</time></trkpt><trkpt lat="48.49903574492279" lon="-4.016855085930935"><ele>86.5</ele><time>2026-03-22T10:00:12.999Z</time></trkpt><trkpt lat="48.499152270394966" lon="-4.0168076692387595"><ele>86.75</ele><time>2026-03-22T10:00:13.999Z</time></trkpt><trkpt lat="48.499279631182226" lon="-4.016726163048121"><ele>87.0</ele><time>2026-03-22T10:00:14.999Z</time></trkpt><trkpt lat="48.49937929479293" lon="-4.016642084300305"><ele>86.8</ele><time>2026-03-22T10:00:15.999Z</time></trkpt><trkpt lat="48.49946675851734" lon="-4.016608426003424"><ele>86.6</ele><time>2026-03-22T10:00:16.999Z</time></trkpt><trkpt lat="48.49957248710303" lon="-4.016590190677128"><ele>86.39999999999999</ele><time>2026-03-22T10:00:17.999Z</time></trkpt><trkpt lat="48.49964176287017" lon="-4.016590250463302"><ele>86.19999999999999</ele><time>2026-03-22T10:00:18.999Z</time></trkpt><trkpt lat="48.49973984500792" lon="-4.01670384294862"><ele>86.0</ele><time>2026-03-22T10:00:20.999Z</time></trkpt><trkpt lat="48.499797519350096" lon="-4.01681224436046"><ele>86.0</ele><time>2026-03-22T10:00:21.999Z</time></trkpt><trkpt lat="48.49987362967106" lon="-4.016974049233884"><ele>86.0</ele><time>2026-03-22T10:00:22.999Z</time></trkpt><trkpt lat="48.49998535006199" lon="-4.017153991322487"><ele>86.0</ele><time>2026-03-22T10:00:23.999Z</time></trkpt><trkpt lat="48.50010330299841" lon="-4.017366269638784"><ele>90.0</ele><time>2026-03-22T10:00:24.999Z</time></trkpt><trkpt lat="48.50020832405358" lon="-4.017599532322959"><ele>94.0</ele><time>2026-03-22T10:00:25.999Z</time></trkpt><trkpt lat="48.50029755773528" lon="-4.017793828167093"><ele>98.0</ele><time>2026-03-22T10:00:26.999Z</time></trkpt><trkpt lat="48.50037547385943" lon="-4.017962666124192"><ele>97.25</ele><time>2026-03-22T10:00:27.999Z</time></trkpt><trkpt lat="48.500433099530824" lon="-4.018131395914156"><ele>96.5</ele><time>2026-03-22T10:00:28.999Z</time></trkpt><trkpt lat="48.50047933990755" lon="-4.018278387851157"><ele>95.75</ele><time>2026-03-22T10:00:29.999Z</time></trkpt><trkpt lat="48.500515157140896" lon="-4.018473046233048"><ele>95.0</ele><time>2026-03-22T10:00:30.999Z</time></trkpt><trkpt lat="48.50055839567688" lon="-4.018638652997797"><ele>95.0</ele><time>2026-03-22T10:00:31.999Z</time></trkpt><trkpt lat="48.50057860511784" lon="-4.018789547407366"><ele>95.0</ele><time>2026-03-22T10:00:32.999Z</time></trkpt><trkpt lat="48.50063672942187" lon="-4.018920477005146"><ele>95.0</ele><time>2026-03-22T10:00:33.999Z</time></trkpt><trkpt lat="48.5007216527288" lon="-4.019068879267168"><ele>95.0</ele><time>2026-03-22T10:00:34.999Z</time></trkpt><trkpt lat="48.50082423280673" lon="-4.019237260874091"><ele>95.5</ele><time>2026-03-22T10:00:35.999Z</time></trkpt><trkpt lat="48.500914271727346" lon="-4.019405790703589"><ele>96.0</ele><time>2026-03-22T10:00:36.999Z</time></trkpt><trkpt lat="48.500987861859734" lon="-4.019561310693402"><ele>96.5</ele><time>2026-03-22T10:00:37.999Z</time></trkpt><trkpt lat="48.50106801719687" lon="-4.0197231577823"><ele>97.0</ele><time>2026-03-22T10:00:38.999Z</time></trkpt><trkpt lat="48.50113036396457" lon="-4.019898109543897"><ele>97.25</ele><time>2026-03-22T10:00:39.999Z</time></trkpt><trkpt lat="48.50119693060307" lon="-4.020084872700634"><ele>97.5</ele><time>2026-03-22T10:00:40.999Z</time></trkpt><trkpt lat="48.50125696436251" lon="-4.020248561678217"><ele>97.75</ele><time>2026-03-22T10:00:41.999Z</time></trkpt><trkpt lat="48.501318066237175" lon="-4.020416308335649"><ele>98.0</ele><time>2026-03-22T10:00:42.999Z</time></trkpt><trkpt lat="48.501381951842724" lon="-4.020592675350579"><ele>95.25</ele><time>2026-03-22T10:00:43.999Z</time></trkpt><trkpt lat="48.50144486615992" lon="-4.020758186693193"><ele>92.5</ele><time>2026-03-22T10:00:44.999Z</time></trkpt><trkpt lat="48.5014905305248" lon="-4.020940711934171"><ele>89.75</ele><time>2026-03-22T10:00:45.999Z</time></trkpt><trkpt lat="48.50155902699734" lon="-4.021117099769946"><ele>87.0</ele><time>2026-03-22T10:00:46.999Z</time></trkpt><trkpt lat="48.501623209180934" lon="-4.021272240408502"><ele>87.0</ele><time>2026-03-22T10:00:47.999Z</time></trkpt><trkpt lat="48.50168973462236" lon="-4.02140406248984"><ele>87.0</ele><time>2026-03-22T10:00:48.999Z</time></trkpt><trkpt lat="48.50174580851639" lon="-4.0215443016926935"><ele>87.0</ele><time>2026-03-22T10:00:49.999Z</time></trkpt><trkpt lat="48.501802262983965" lon="-4.021676458030701"><ele>87.0</ele><time>2026-03-22T10:00:50.999Z</time></trkpt><trkpt lat="48.50186409049625" lon="-4.02180336499906"><ele>87.0</ele><time>2026-03-22T10:00:51.999Z</time></trkpt><trkpt lat="48.50191242833234" lon="-4.021926966297881"><ele>87.0</ele><time>2026-03-22T10:00:52.999Z</time></trkpt><trkpt lat="48.50195034118279" lon="-4.022027193820843"><ele>87.0</ele><time>2026-03-22T10:00:53.999Z</time></trkpt><trkpt lat="48.50199757837899" lon="-4.022120423125287"><ele>87.0</ele><time>2026-03-22T10:00:54.999Z</time></trkpt><trkpt lat="48.50202282161839" lon="-4.022218019240182"><ele>87.0</ele><time>2026-03-22T10:00:55.999Z</time></trkpt><trkpt lat="48.50201544455734" lon="-4.022401150983897"><ele>87.0</ele><time>2026-03-22T10:00:57.999Z</time></trkpt><trkpt lat="48.50200358895954" lon="-4.0225184263762355"><ele>87.0</ele><time>2026-03-22T10:00:58.999Z</time></trkpt><trkpt lat="48.50200130275538" lon="-4.022645454167881"><ele>87.39999999999999</ele><time>2026-03-22T10:00:59.999Z</time></trkpt><trkpt lat="48.502025156696035" lon="-4.022770503182145"><ele>87.8</ele><time>2026-03-22T10:01:00.999Z</time></trkpt><trkpt lat="48.50206219395746" lon="-4.022889386043184"><ele>88.2</ele><time>2026-03-22T10:01:01.999Z</time></trkpt><trkpt lat="48.50209020169018" lon="-4.023015162858471"><ele>88.6</ele><time>2026-03-22T10:01:02.999Z</time></trkpt><trkpt lat="48.502132516826265" lon="-4.02319067888346"><ele>89.0</ele><time>2026-03-22T10:01:04.999Z</time></trkpt><trkpt lat="48.50220048977164" lon="-4.023334720903387"><ele>86.8</ele><time>2026-03-22T10:01:07Z</time></trkpt><trkpt lat="48.50226547982762" lon="-4.023431290838119"><ele>84.60000000000001</ele><time>2026-03-22T10:01:08Z</time></trkpt><trkpt lat="48.502336120138935" lon="-4.023534944325296"><ele>82.4</ele><time>2026-03-22T10:01:09Z</time></trkpt><trkpt lat="48.50240510571584" lon="-4.023649705116379"><ele>80.2</ele><time>2026-03-22T10:01:10Z</time></trkpt><trkpt lat="48.50247608588032" lon="-4.023771214293576"><ele>78.0</ele><time>2026-03-22T10:01:11Z</time></trkpt><trkpt lat="48.50253979011053" lon="-4.023896765987029"><ele>78.0</ele><time>2026-03-22T10:01:12Z</time></trkpt><trkpt lat="48.50259306351898" lon="-4.024046639390404"><ele>78.0</ele><time>2026-03-22T10:01:13Z</time></trkpt><trkpt lat="48.502632348945625" lon="-4.024208320110376"><ele>78.0</ele><time>2026-03-22T10:01:14Z</time></trkpt><trkpt lat="48.50267114639738" lon="-4.024385229998387"><ele>78.0</ele><time>2026-03-22T10:01:15Z</time></trkpt><trkpt lat="48.50271271213705" lon="-4.024556342453713"><ele>78.75</ele><time>2026-03-22T10:01:16Z</time></trkpt><trkpt lat="48.50275968336693" lon="-4.024728018503672"><ele>79.5</ele><time>2026-03-22T10:01:17Z</time></trkpt><trkpt lat="48.502818028888086" lon="-4.024891993877564"><ele>80.25</ele><time>2026-03-22T10:01:18Z</time></trkpt><trkpt lat="48.50289310496717" lon="-4.0250427490333065"><ele>81.0</ele><time>2026-03-22T10:01:19Z</time></trkpt><trkpt lat="48.50297827442991" lon="-4.025188554911571"><ele>78.75</ele><time>2026-03-22T10:01:20Z</time></trkpt><trkpt lat="48.50306564941837" lon="-4.025336621228871"><ele>76.5</ele><time>2026-03-22T10:01:21Z</time></trkpt><trkpt lat="48.50314640076238" lon="-4.025491838882456"><ele>74.25</ele><time>2026-03-22T10:01:22Z</time></trkpt><trkpt lat="48.50322246978653" lon="-4.025643969627089"><ele>72.0</ele><time>2026-03-22T10:01:23Z</time></trkpt><trkpt lat="48.50329182671614" lon="-4.025781970300879"><ele>73.16666666666667</ele><time>2026-03-22T10:01:24Z</time></trkpt><trkpt lat="48.50335368592342" lon="-4.025900068958444"><ele>74.33333333333333</ele><time>2026-03-22T10:01:25Z</time></trkpt><trkpt lat="48.503411721522184" lon="-4.026011966386542"><ele>75.5</ele><time>2026-03-22T10:01:26Z</time></trkpt><trkpt lat="48.5034610035996" lon="-4.026096034158549"><ele>76.66666666666666</ele><time>2026-03-22T10:01:27Z</time></trkpt><trkpt lat="48.50350998074455" lon="-4.026157584022488"><ele>77.83333333333333</ele><time>2026-03-22T10:01:28Z</time></trkpt><trkpt lat="48.5036136883899" lon="-4.026119984218603"><ele>79.0</ele><time>2026-03-22T10:01:30Z</time></trkpt><trkpt lat="48.50365499155999" lon="-4.0260262138672"><ele>79.0</ele><time>2026-03-22T10:01:31Z</time></trkpt><trkpt lat="48.50370994404005" lon="-4.025945297009264"><ele>79.0</ele><time>2026-03-22T10:01:32Z</time></trkpt><trkpt lat="48.50378108307047" lon="-4.025931619508013"><ele>79.0</ele><time>2026-03-22T10:01:33Z</time></trkpt><trkpt lat="48.50385857030738" lon="-4.025929226615279"><ele>79.0</ele><time>2026-03-22T10:01:34Z</time></trkpt><trkpt lat="48.503965704297656" lon="-4.025971651415689"><ele>79.0</ele><time>2026-03-22T10:01:35Z</time></trkpt><trkpt lat="48.50407447211252" lon="-4.026077463057612"><ele>78.0</ele><time>2026-03-22T10:01:36Z</time></trkpt><trkpt lat="48.50414937032346" lon="-4.026190290017193"><ele>77.0</ele><time>2026-03-22T10:01:37Z</time></trkpt><trkpt lat="48.504214378172264" lon="-4.026286524677407"><ele>76.0</ele><time>2026-03-22T10:01:38Z</time></trkpt><trkpt lat="48.50426736281518" lon="-4.02637378411804"><ele>75.0</ele><time>2026-03-22T10:01:39Z</time></trkpt><trkpt lat="48.504322697411915" lon="-4.026450392966314"><ele>74.0</ele><time>2026-03-22T10:01:40Z</time></trkpt><trkpt lat="48.50438732891511" lon="-4.026539107324372"><ele>73.0</ele><time>2026-03-22T10:01:41Z</time></trkpt><trkpt lat="48.504459525923956" lon="-4.0265998180406015"><ele>74.16666666666666</ele><time>2026-03-22T10:01:42Z</time></trkpt><trkpt lat="48.50451689368679" lon="-4.026671785323609"><ele>75.33333333333333</ele><time>2026-03-22T10:01:44Z</time></trkpt><trkpt lat="48.50450976770383" lon="-4.026792079890723"><ele>76.5</ele><time>2026-03-22T10:02:20.999Z</time></trkpt><trkpt lat="48.50446806116682" lon="-4.026881289841814"><ele>77.66666666666667</ele><time>2026-03-22T10:02:21.999Z</time></trkpt><trkpt lat="48.504424847637644" lon="-4.026999158888526"><ele>78.83333333333334</ele><time>2026-03-22T10:02:22.999Z</time></trkpt><trkpt lat="48.50439812780563" lon="-4.027115410697164"><ele>80.0</ele><time>2026-03-22T10:02:23.999Z</time></trkpt><trkpt lat="48.50438190416553" lon="-4.027221372657879"><ele>80.0</ele><time>2026-03-22T10:02:24.999Z</time></trkpt><trkpt lat="48.50432910883607" lon="-4.0272959214754245"><ele>80.0</ele><time>2026-03-22T10:02:25.999Z</time></trkpt><trkpt lat="48.504269889335895" lon="-4.027411389807909"><ele>80.0</ele><time>2026-03-22T10:02:26.999Z</time></trkpt><trkpt lat="48.504205540488805" lon="-4.02753754022126"><ele>80.0</ele><time>2026-03-22T10:02:27.999Z</time></trkpt><trkpt lat="48.50415636309117" lon="-4.02763602608884"><ele>80.0</ele><time>2026-03-22T10:02:28.999Z</time></trkpt><trkpt lat="48.50409771685703" lon="-4.027728876031431"><ele>80.0</ele><time>2026-03-22T10:02:30.999Z</time></trkpt><trkpt lat="48.50402809738867" lon="-4.027852224414359"><ele>81.0</ele><time>2026-03-22T10:02:32.999Z</time></trkpt><trkpt lat="48.50398068885898" lon="-4.027933338620258"><ele>82.0</ele><time>2026-03-22T10:02:33.999Z</time></trkpt><trkpt lat="48.503910580143575" lon="-4.028042852238004"><ele>83.0</ele><time>2026-03-22T10:02:34.999Z</time></trkpt><trkpt lat="48.50382823567669" lon="-4.028155126391833"><ele>84.0</ele><time>2026-03-22T10:02:35.999Z</time></trkpt><trkpt lat="48.50372855576371" lon="-4.028281397837045"><ele>85.0</ele><time>2026-03-22T10:02:36.999Z</time></trkpt><trkpt lat="48.50365065739607" lon="-4.028380073888429"><ele>86.16666666666666</ele><time>2026-03-22T10:02:37.999Z</time></trkpt><trkpt lat="48.50358181142691" lon="-4.028469195325447"><ele>87.33333333333333</ele><time>2026-03-22T10:02:38.999Z</time></trkpt><trkpt lat="48.503517043826484" lon="-4.028553037284367"><ele>88.5</ele><time>2026-03-22T10:02:39.999Z</time></trkpt><trkpt lat="48.503423536793804" lon="-4.028635854409773"><ele>89.66666666666667</ele><time>2026-03-22T10:02:40.999Z</time></trkpt><trkpt lat="48.50337979823113" lon="-4.028720550014892"><ele>90.83333333333334</ele><time>2026-03-22T10:02:41.999Z</time></trkpt><trkpt lat="48.503336936423366" lon="-4.02879159156758"><ele>92.0</ele><time>2026-03-22T10:02:42.999Z</time></trkpt><trkpt lat="48.50326034140328" lon="-4.0288942570749136"><ele>92.0</ele><time>2026-03-22T10:02:44.999Z</time></trkpt><trkpt lat="48.503201435107535" lon="-4.028933580582895"><ele>92.0</ele><time>2026-03-22T10:02:45.999Z</time></trkpt><trkpt lat="48.5032782242969" lon="-4.029183917846553"><ele>92.0</ele><time>2026-03-22T10:02:46.999Z</time></trkpt><trkpt lat="48.50328061559006" lon="-4.029376166457563"><ele>92.0</ele><time>2026-03-22T10:02:47.999Z</time></trkpt><trkpt lat="48.5033023775043" lon="-4.029590100497657"><ele>91.66666666666667</ele><time>2026-03-22T10:02:48.999Z</time></trkpt><trkpt lat="48.503350853030106" lon="-4.02987350915021"><ele>91.33333333333333</ele><time>2026-03-22T10:02:49.999Z</time></trkpt><trkpt lat="48.50336743403072" lon="-4.030134824665846"><ele>91.0</ele><time>2026-03-22T10:02:50.999Z</time></trkpt><trkpt lat="48.50340211254323" lon="-4.030387997964279"><ele>90.5</ele><time>2026-03-22T10:02:51.999Z</time></trkpt><trkpt lat="48.50341746075914" lon="-4.03059708688763"><ele>90.0</ele><time>2026-03-22T10:02:52.999Z</time></trkpt><trkpt lat="48.503431508454" lon="-4.030786894948087"><ele>89.5</ele><time>2026-03-22T10:02:53.999Z</time></trkpt><trkpt lat="48.503451481688096" lon="-4.030966322416276"><ele>89.0</ele><time>2026-03-22T10:02:54.999Z</time></trkpt><trkpt lat="48.50347875710715" lon="-4.031131804265113"><ele>89.0</ele><time>2026-03-22T10:02:55.999Z</time></trkpt><trkpt lat="48.50348329846752" lon="-4.03127567697169"><ele>89.0</ele><time>2026-03-22T10:02:56.999Z</time></trkpt><trkpt lat="48.50351162439093" lon="-4.031414262044412"><ele>89.0</ele><time>2026-03-22T10:02:57.999Z</time></trkpt><trkpt lat="48.50353013926601" lon="-4.031548480911793"><ele>89.0</ele><time>2026-03-22T10:02:58.999Z</time></trkpt><trkpt lat="48.503543050198104" lon="-4.031668826088538"><ele>89.0</ele><time>2026-03-22T10:02:59.999Z</time></trkpt><trkpt lat="48.503553637741014" lon="-4.031779204338497"><ele>89.0</ele><time>2026-03-22T10:03:00.999Z</time></trkpt><trkpt lat="48.503572161771025" lon="-4.0319320726204495"><ele>89.0</ele><time>2026-03-22T10:03:02.999Z</time></trkpt><trkpt lat="48.50366528177405" lon="-4.031973057750162"><ele>89.0</ele><time>2026-03-22T10:03:04.999Z</time></trkpt><trkpt lat="48.50359845639919" lon="-4.032024470075807"><ele>89.0</ele><time>2026-03-22T10:03:05.999Z</time></trkpt><trkpt lat="48.50385172070867" lon="-4.032026358191298"><ele>89.0</ele><time>2026-03-22T10:03:06.999Z</time></trkpt><trkpt lat="48.5039770431175" lon="-4.032070594377255"><ele>89.0</ele><time>2026-03-22T10:03:07.999Z</time></trkpt><trkpt lat="48.50407374001883" lon="-4.0321374655136495"><ele>89.0</ele><time>2026-03-22T10:03:08.999Z</time></trkpt><trkpt lat="48.50417916646934" lon="-4.03220869046523"><ele>89.0</ele><time>2026-03-22T10:03:09.999Z</time></trkpt><trkpt lat="48.504281338062" lon="-4.032279674959924"><ele>89.0</ele><time>2026-03-22T10:03:10.999Z</time></trkpt><trkpt lat="48.50436762941928" lon="-4.032373318154103"><ele>89.0</ele><time>2026-03-22T10:03:11.999Z</time></trkpt><trkpt lat="48.504473930287524" lon="-4.032439536058708"><ele>88.4</ele><time>2026-03-22T10:03:13Z</time></trkpt><trkpt lat="48.504561708772115" lon="-4.032510327747523"><ele>87.80000000000001</ele><time>2026-03-22T10:03:14Z</time></trkpt><trkpt lat="48.504661003915345" lon="-4.032582245981787"><ele>87.19999999999999</ele><time>2026-03-22T10:03:16Z</time></trkpt><trkpt lat="48.50459590291036" lon="-4.032686298882135"><ele>86.6</ele><time>2026-03-22T10:03:19Z</time></trkpt><trkpt lat="48.50457113383663" lon="-4.032788065685985"><ele>86.0</ele><time>2026-03-22T10:03:20Z</time></trkpt><trkpt lat="48.504546713454346" lon="-4.032926710054652"><ele>86.0</ele><time>2026-03-22T10:03:21Z</time></trkpt><trkpt lat="48.504505449110724" lon="-4.033058788083758"><ele>86.0</ele><time>2026-03-22T10:03:22Z</time></trkpt><trkpt lat="48.50448101380169" lon="-4.033158808428462"><ele>86.0</ele><time>2026-03-22T10:03:23Z</time></trkpt><trkpt lat="48.50444868114873" lon="-4.033295113978032"><ele>86.0</ele><time>2026-03-22T10:03:25Z</time></trkpt><trkpt lat="48.50441311595307" lon="-4.033469825834437"><ele>86.0</ele><time>2026-03-22T10:03:27Z</time></trkpt><trkpt lat="48.50435953032744" lon="-4.033609424232766"><ele>85.0</ele><time>2026-03-22T10:03:29Z</time></trkpt><trkpt lat="48.50436954796628" lon="-4.033742541201895"><ele>84.0</ele><time>2026-03-22T10:03:31Z</time></trkpt><trkpt lat="48.50438156906243" lon="-4.033878404412011"><ele>83.0</ele><time>2026-03-22T10:03:32Z</time></trkpt><trkpt lat="48.5043874053026" lon="-4.034005423945695"><ele>82.0</ele><time>2026-03-22T10:03:33Z</time></trkpt><trkpt lat="48.50435989857957" lon="-4.034122141570538"><ele>81.0</ele><time>2026-03-22T10:03:34Z</time></trkpt><trkpt lat="48.50430013578344" lon="-4.034251350873973"><ele>81.0</ele><time>2026-03-22T10:03:35Z</time></trkpt><trkpt lat="48.50425369562187" lon="-4.034343809061708"><ele>81.0</ele><time>2026-03-22T10:03:36Z</time></trkpt><trkpt lat="48.5042109165067" lon="-4.034469608313272"><ele>81.0</ele><time>2026-03-22T10:03:38Z</time></trkpt><trkpt lat="48.50416894074984" lon="-4.03457569257119"><ele>81.0</ele><time>2026-03-22T10:03:40Z</time></trkpt><trkpt lat="48.50411358104215" lon="-4.034707540315193"><ele>81.0</ele><time>2026-03-22T10:03:42Z</time></trkpt><trkpt lat="48.50404898501178" lon="-4.034808137158118"><ele>81.0</ele><time>2026-03-22T10:03:43Z</time></trkpt><trkpt lat="48.50401233602006" lon="-4.03492286824601"><ele>80.83333333333333</ele><time>2026-03-22T10:03:44Z</time></trkpt><trkpt lat="48.5039685104506" lon="-4.035011061536973"><ele>80.66666666666667</ele><time>2026-03-22T10:03:45Z</time></trkpt><trkpt lat="48.503929291054625" lon="-4.035089985420052"><ele>80.5</ele><time>2026-03-22T10:03:46Z</time></trkpt><trkpt lat="48.503870227552675" lon="-4.03521904503196"><ele>80.33333333333334</ele><time>2026-03-22T10:03:48Z</time></trkpt><trkpt lat="48.503821925598864" lon="-4.035306041236763"><ele>80.16666666666667</ele><time>2026-03-22T10:03:50Z</time></trkpt><trkpt lat="48.50376689225833" lon="-4.035416786577933"><ele>80.0</ele><time>2026-03-22T10:03:52Z</time></trkpt><trkpt lat="48.50373151179864" lon="-4.035495501797689"><ele>80.0</ele><time>2026-03-22T10:03:53Z</time></trkpt><trkpt lat="48.50373698863555" lon="-4.035665478698718"><ele>80.0</ele><time>2026-03-22T10:03:55Z</time></trkpt><trkpt lat="48.50374883768719" lon="-4.035785176744941"><ele>80.0</ele><time>2026-03-22T10:03:56Z</time></trkpt><trkpt lat="48.50372957569061" lon="-4.035926020523959"><ele>80.0</ele><time>2026-03-22T10:03:57Z</time></trkpt><trkpt lat="48.503706941328396" lon="-4.036054854655977"><ele>80.0</ele><time>2026-03-22T10:03:58Z</time></trkpt><trkpt lat="48.50367896071101" lon="-4.036206470060191"><ele>81.0</ele><time>2026-03-22T10:03:59Z</time></trkpt><trkpt lat="48.50366892187233" lon="-4.036337271408527"><ele>82.0</ele><time>2026-03-22T10:04:00Z</time></trkpt><trkpt lat="48.503661656049076" lon="-4.036474057958715"><ele>83.0</ele><time>2026-03-22T10:04:01Z</time></trkpt><trkpt lat="48.50365811604427" lon="-4.036617654251919"><ele>84.0</ele><time>2026-03-22T10:04:02Z</time></trkpt><trkpt lat="48.50366220082965" lon="-4.0367702910713215"><ele>85.0</ele><time>2026-03-22T10:04:03Z</time></trkpt><trkpt lat="48.50366502337093" lon="-4.036920959201488"><ele>85.2</ele><time>2026-03-22T10:04:04Z</time></trkpt><trkpt lat="48.50365919019923" lon="-4.037074959993009"><ele>85.4</ele><time>2026-03-22T10:04:05Z</time></trkpt><trkpt lat="48.50364489412138" lon="-4.037249416362177"><ele>85.6</ele><time>2026-03-22T10:04:06Z</time></trkpt><trkpt lat="48.503618690446196" lon="-4.0374104907694734"><ele>85.8</ele><time>2026-03-22T10:04:07Z</time></trkpt><trkpt lat="48.50360842695117" lon="-4.037563731873027"><ele>86.0</ele><time>2026-03-22T10:04:08Z</time></trkpt><trkpt lat="48.50360487861504" lon="-4.0377068630104525"><ele>86.0</ele><time>2026-03-22T10:04:09Z</time></trkpt><trkpt lat="48.50359601252059" lon="-4.037845412779969"><ele>86.0</ele><time>2026-03-22T10:04:10Z</time></trkpt><trkpt lat="48.50357957795848" lon="-4.037950979400454"><ele>86.0</ele><time>2026-03-22T10:04:11Z</time></trkpt><trkpt lat="48.503579450381615" lon="-4.0380847282515075"><ele>86.0</ele><time>2026-03-22T10:04:13Z</time></trkpt><trkpt lat="48.503675146270304" lon="-4.038077247498838"><ele>86.0</ele><time>2026-03-22T10:04:15Z</time></trkpt><trkpt lat="48.50378634654029" lon="-4.03819149489426"><ele>84.39999999999999</ele><time>2026-03-22T10:04:16.999Z</time></trkpt><trkpt lat="48.5038893049276" lon="-4.0382887714853135"><ele>82.8</ele><time>2026-03-22T10:04:18.999Z</time></trkpt><trkpt lat="48.503967129405346" lon="-4.038323450155633"><ele>81.19999999999999</ele><time>2026-03-22T10:04:20.999Z</time></trkpt><trkpt lat="48.504031279573894" lon="-4.038353411806297"><ele>79.6</ele><time>2026-03-22T10:04:21.999Z</time></trkpt><trkpt lat="48.5041306433347" lon="-4.038451328843663"><ele>78.0</ele><time>2026-03-22T10:04:23.999Z</time></trkpt><trkpt lat="48.504180471113685" lon="-4.038515156820112"><ele>77.0</ele><time>2026-03-22T10:04:24.999Z</time></trkpt><trkpt lat="48.50424168562068" lon="-4.038554846580896"><ele>76.0</ele><time>2026-03-22T10:04:25.999Z</time></trkpt><trkpt lat="48.50430058601143" lon="-4.038597438078154"><ele>75.0</ele><time>2026-03-22T10:04:26.999Z</time></trkpt><trkpt lat="48.50439037584567" lon="-4.038640789653435"><ele>74.0</ele><time>2026-03-22T10:04:27.999Z</time></trkpt><trkpt lat="48.50446292427013" lon="-4.038691713346319"><ele>73.0</ele><time>2026-03-22T10:04:28.999Z</time></trkpt><trkpt lat="48.504517931310104" lon="-4.038766538465207"><ele>72.0</ele><time>2026-03-22T10:04:29.999Z</time></trkpt><trkpt lat="48.50454808893001" lon="-4.038956407514201"><ele>72.0</ele><time>2026-03-22T10:04:31.999Z</time></trkpt><trkpt lat="48.50453762026443" lon="-4.039105125390396"><ele>72.0</ele><time>2026-03-22T10:04:32.999Z</time></trkpt><trkpt lat="48.50452558918039" lon="-4.039258698361778"><ele>72.0</ele><time>2026-03-22T10:04:33.999Z</time></trkpt><trkpt lat="48.50451303514647" lon="-4.039411207967055"><ele>72.0</ele><time>2026-03-22T10:04:34.999Z</time></trkpt><trkpt lat="48.50449853549906" lon="-4.039537009743995"><ele>72.0</ele><time>2026-03-22T10:04:35.999Z</time></trkpt><trkpt lat="48.50446821344645" lon="-4.039671832575107"><ele>72.25</ele><time>2026-03-22T10:04:36.999Z</time></trkpt><trkpt lat="48.504413045250345" lon="-4.039814105266178"><ele>72.5</ele><time>2026-03-22T10:04:37.999Z</time></trkpt><trkpt lat="48.50433631531242" lon="-4.0399770398162795"><ele>72.75</ele><time>2026-03-22T10:04:38.999Z</time></trkpt><trkpt lat="48.504242765904024" lon="-4.040180971023993"><ele>73.0</ele><time>2026-03-22T10:04:39.999Z</time></trkpt><trkpt lat="48.50416129903154" lon="-4.04037952203385"><ele>72.0</ele><time>2026-03-22T10:04:40.999Z</time></trkpt><trkpt lat="48.504072159235" lon="-4.040579228768705"><ele>71.0</ele><time>2026-03-22T10:04:41.999Z</time></trkpt><trkpt lat="48.503991214780704" lon="-4.040799451252284"><ele>70.0</ele><time>2026-03-22T10:04:42.999Z</time></trkpt><trkpt lat="48.50394116069743" lon="-4.041020080509326"><ele>70.0</ele><time>2026-03-22T10:04:43.999Z</time></trkpt><trkpt lat="48.50389350475667" lon="-4.041209582352062"><ele>70.0</ele><time>2026-03-22T10:04:44.999Z</time></trkpt><trkpt lat="48.50384762541976" lon="-4.041397841700791"><ele>70.0</ele><time>2026-03-22T10:04:45.999Z</time></trkpt><trkpt lat="48.50377363803575" lon="-4.0416001632011955"><ele>70.0</ele><time>2026-03-22T10:04:46.999Z</time></trkpt><trkpt lat="48.503697209394126" lon="-4.041813473751405"><ele>70.0</ele><time>2026-03-22T10:04:47.999Z</time></trkpt><trkpt lat="48.503638663689834" lon="-4.041968620576283"><ele>70.0</ele><time>2026-03-22T10:04:48.999Z</time></trkpt><trkpt lat="48.503603425001316" lon="-4.042055766405891"><ele>70.0</ele><time>2026-03-22T10:04:49.999Z</time></trkpt><trkpt lat="48.503511985920014" lon="-4.042086018068264"><ele>70.0</ele><time>2026-03-22T10:04:51.999Z</time></trkpt><trkpt lat="48.50344418773611" lon="-4.042282478136318"><ele>70.0</ele><time>2026-03-22T10:04:53.999Z</time></trkpt><trkpt lat="48.5033708006635" lon="-4.042383072501182"><ele>69.4</ele><time>2026-03-22T10:04:54.999Z</time></trkpt><trkpt lat="48.50331028130098" lon="-4.042482067780983"><ele>68.8</ele><time>2026-03-22T10:04:55.999Z</time></trkpt><trkpt lat="48.503256511038245" lon="-4.042585656912132"><ele>68.2</ele><time>2026-03-22T10:04:56.999Z</time></trkpt><trkpt lat="48.503251581882715" lon="-4.042698951340708"><ele>67.6</ele><time>2026-03-22T10:04:57.999Z</time></trkpt><trkpt lat="48.50326283541196" lon="-4.0428485743218125"><ele>67.0</ele><time>2026-03-22T10:04:58.999Z</time></trkpt><trkpt lat="48.503263174808765" lon="-4.0430175128532255"><ele>67.0</ele><time>2026-03-22T10:04:59.999Z</time></trkpt><trkpt lat="48.50322522403393" lon="-4.043166861638902"><ele>67.0</ele><time>2026-03-22T10:05:00.999Z</time></trkpt><trkpt lat="48.50317364072177" lon="-4.0432963264497355"><ele>67.0</ele><time>2026-03-22T10:05:01.999Z</time></trkpt><trkpt lat="48.50313556722541" lon="-4.043426926512679"><ele>67.0</ele><time>2026-03-22T10:05:02.999Z</time></trkpt><trkpt lat="48.503088417353865" lon="-4.0435291551826245"><ele>67.0</ele><time>2026-03-22T10:05:03.999Z</time></trkpt><trkpt lat="48.50303620418155" lon="-4.043618450528276"><ele>66.5</ele><time>2026-03-22T10:05:04.999Z</time></trkpt><trkpt lat="48.50296142024167" lon="-4.04367553277767"><ele>66.0</ele><time>2026-03-22T10:05:06.999Z</time></trkpt><trkpt lat="48.50288893061205" lon="-4.04364859076796"><ele>65.5</ele><time>2026-03-22T10:05:07.999Z</time></trkpt><trkpt lat="48.50280130947728" lon="-4.043603121227218"><ele>65.0</ele><time>2026-03-22T10:05:08.999Z</time></trkpt><trkpt lat="48.50273082601361" lon="-4.04362623042118"><ele>64.5</ele><time>2026-03-22T10:05:09.999Z</time></trkpt><trkpt lat="48.50268268248061" lon="-4.043690678855125"><ele>64.0</ele><time>2026-03-22T10:05:10.999Z</time></trkpt><trkpt lat="48.502644668972465" lon="-4.043813778573882"><ele>65.0</ele><time>2026-03-22T10:05:11.999Z</time></trkpt><trkpt lat="48.50259631441343" lon="-4.043965528984739"><ele>66.0</ele><time>2026-03-22T10:05:12.999Z</time></trkpt><trkpt lat="48.50251987478063" lon="-4.044145608457621"><ele>67.0</ele><time>2026-03-22T10:05:13.999Z</time></trkpt><trkpt lat="48.5024318017724" lon="-4.044345101725132"><ele>68.0</ele><time>2026-03-22T10:05:14.999Z</time></trkpt><trkpt lat="48.50236745350188" lon="-4.044512768311933"><ele>68.0</ele><time>2026-03-22T10:05:15.999Z</time></trkpt><trkpt lat="48.50232342088019" lon="-4.044697654550376"><ele>68.0</ele><time>2026-03-22T10:05:16.999Z</time></trkpt><trkpt lat="48.50226849988125" lon="-4.044917137128331"><ele>68.0</ele><time>2026-03-22T10:05:17.999Z</time></trkpt><trkpt lat="48.502219770763205" lon="-4.045167296158298"><ele>69.0</ele><time>2026-03-22T10:05:19Z</time></trkpt><trkpt lat="48.50215399496783" lon="-4.045455146650852"><ele>70.0</ele><time>2026-03-22T10:05:20Z</time></trkpt><trkpt lat="48.502095142719654" lon="-4.045681152851303"><ele>71.0</ele><time>2026-03-22T10:05:21Z</time></trkpt><trkpt lat="48.50203856068123" lon="-4.045858587026222"><ele>71.0</ele><time>2026-03-22T10:05:22Z</time></trkpt><trkpt lat="48.502003927163464" lon="-4.046012752085335"><ele>71.0</ele><time>2026-03-22T10:05:23Z</time></trkpt><trkpt lat="48.50199988354142" lon="-4.046139468877311"><ele>71.0</ele><time>2026-03-22T10:05:24Z</time></trkpt><trkpt lat="48.50199257209889" lon="-4.046238543806567"><ele>71.0</ele><time>2026-03-22T10:05:25Z</time></trkpt><trkpt lat="48.501935541359174" lon="-4.046337383796869"><ele>71.0</ele><time>2026-03-22T10:05:26Z</time></trkpt><trkpt lat="48.50186602555985" lon="-4.046429870698007"><ele>71.0</ele><time>2026-03-22T10:05:27Z</time></trkpt><trkpt lat="48.501797168236536" lon="-4.046568783792807"><ele>70.5</ele><time>2026-03-22T10:05:28Z</time></trkpt><trkpt lat="48.501746189351906" lon="-4.046681528442052"><ele>70.0</ele><time>2026-03-22T10:05:29Z</time></trkpt><trkpt lat="48.50170642894814" lon="-4.04678618954291"><ele>69.5</ele><time>2026-03-22T10:05:30Z</time></trkpt><trkpt lat="48.501706174985955" lon="-4.0469125090298474"><ele>69.0</ele><time>2026-03-22T10:05:31Z</time></trkpt><trkpt lat="48.50170603698722" lon="-4.0470331917980955"><ele>68.5</ele><time>2026-03-22T10:05:32Z</time></trkpt><trkpt lat="48.501702525311195" lon="-4.047170067169038"><ele>68.0</ele><time>2026-03-22T10:05:33Z</time></trkpt><trkpt lat="48.50167324604567" lon="-4.04730653163341"><ele>68.0</ele><time>2026-03-22T10:05:34Z</time></trkpt><trkpt lat="48.50163031315816" lon="-4.047427244633485"><ele>68.0</ele><time>2026-03-22T10:05:35Z</time></trkpt><trkpt lat="48.50158099844752" lon="-4.047513221581305"><ele>68.0</ele><time>2026-03-22T10:05:36Z</time></trkpt><trkpt lat="48.50146520155457" lon="-4.047581926813874"><ele>68.0</ele><time>2026-03-22T10:05:38Z</time></trkpt><trkpt lat="48.501400571029194" lon="-4.047556131661182"><ele>68.0</ele><time>2026-03-22T10:05:39Z</time></trkpt><trkpt lat="48.50133086784577" lon="-4.047512389939392"><ele>68.0</ele><time>2026-03-22T10:05:40Z</time></trkpt><trkpt lat="48.501264050968636" lon="-4.047480072760888"><ele>68.83333333333334</ele><time>2026-03-22T10:05:41Z</time></trkpt><trkpt lat="48.50119111066532" lon="-4.04753336181567"><ele>69.66666666666667</ele><time>2026-03-22T10:05:43Z</time></trkpt><trkpt lat="48.50115986762742" lon="-4.047628293039212"><ele>70.5</ele><time>2026-03-22T10:05:44Z</time></trkpt><trkpt lat="48.50112601757999" lon="-4.047724462232568"><ele>71.33333333333333</ele><time>2026-03-22T10:05:45Z</time></trkpt><trkpt lat="48.501051562673176" lon="-4.047859615573835"><ele>72.16666666666666</ele><time>2026-03-22T10:05:46Z</time></trkpt><trkpt lat="48.500993815264614" lon="-4.047936996129431"><ele>73.0</ele><time>2026-03-22T10:05:47Z</time></trkpt><trkpt lat="48.50095315244268" lon="-4.048022756119339"><ele>73.0</ele><time>2026-03-22T10:05:48Z</time></trkpt><trkpt lat="48.5009296083093" lon="-4.048146355335883"><ele>73.0</ele><time>2026-03-22T10:05:49Z</time></trkpt><trkpt lat="48.500896892484306" lon="-4.048261916815791"><ele>73.0</ele><time>2026-03-22T10:05:50Z</time></trkpt><trkpt lat="48.50084510234017" lon="-4.048353664199695"><ele>73.0</ele><time>2026-03-22T10:05:51Z</time></trkpt><trkpt lat="48.50079088594836" lon="-4.048467075344988"><ele>73.0</ele><time>2026-03-22T10:05:52Z</time></trkpt><trkpt lat="48.50072868711408" lon="-4.048639502701059"><ele>72.2</ele><time>2026-03-22T10:05:53Z</time></trkpt><trkpt lat="48.50068719293707" lon="-4.048789843245964"><ele>71.4</ele><time>2026-03-22T10:05:54Z</time></trkpt><trkpt lat="48.50062765420343" lon="-4.048899715432211"><ele>70.60000000000001</ele><time>2026-03-22T10:05:55Z</time></trkpt><trkpt lat="48.50058435074159" lon="-4.049020897555514"><ele>69.8</ele><time>2026-03-22T10:05:56Z</time></trkpt><trkpt lat="48.50053137106584" lon="-4.049136678315753"><ele>69.0</ele><time>2026-03-22T10:05:57Z</time></trkpt><trkpt lat="48.500474595399815" lon="-4.049278293329146"><ele>70.0</ele><time>2026-03-22T10:05:58Z</time></trkpt><trkpt lat="48.50043014218558" lon="-4.049393119205862"><ele>71.0</ele><time>2026-03-22T10:05:59Z</time></trkpt><trkpt lat="48.5003767994098" lon="-4.049548126575036"><ele>72.0</ele><time>2026-03-22T10:06:00Z</time></trkpt><trkpt lat="48.50031880868142" lon="-4.049719721336817"><ele>73.0</ele><time>2026-03-22T10:06:01Z</time></trkpt><trkpt lat="48.50027267776778" lon="-4.049858903207221"><ele>74.0</ele><time>2026-03-22T10:06:02Z</time></trkpt><trkpt lat="48.50024879700253" lon="-4.049976422164073"><ele>74.0</ele><time>2026-03-22T10:06:03Z</time></trkpt><trkpt lat="48.50025371950611" lon="-4.050103376538499"><ele>74.0</ele><time>2026-03-22T10:06:04Z</time></trkpt><trkpt lat="48.50028365966184" lon="-4.050228584780938"><ele>74.0</ele><time>2026-03-22T10:06:05Z</time></trkpt><trkpt lat="48.500265103838025" lon="-4.0503914486806805"><ele>74.0</ele><time>2026-03-22T10:06:06Z</time></trkpt><trkpt lat="48.50029373198425" lon="-4.050534497242473"><ele>74.0</ele><time>2026-03-22T10:06:07Z</time></trkpt><trkpt lat="48.500317678527686" lon="-4.050655891203268"><ele>71.0</ele><time>2026-03-22T10:06:08Z</time></trkpt><trkpt lat="48.50042250462627" lon="-4.050782404399492"><ele>68.0</ele><time>2026-03-22T10:06:10Z</time></trkpt><trkpt lat="48.50047549411381" lon="-4.050873091216616"><ele>65.0</ele><time>2026-03-22T10:06:11Z</time></trkpt><trkpt lat="48.500468901578714" lon="-4.051066564161477"><ele>62.0</ele><time>2026-03-22T10:06:13Z</time></trkpt><trkpt lat="48.50048975251551" lon="-4.051231929813572"><ele>62.00000000000001</ele><time>2026-03-22T10:06:15Z</time></trkpt><trkpt lat="48.50049968137584" lon="-4.051349828082237"><ele>62.0</ele><time>2026-03-22T10:06:16Z</time></trkpt><trkpt lat="48.50052227352529" lon="-4.051460385171904"><ele>62.0</ele><time>2026-03-22T10:06:18Z</time></trkpt><trkpt lat="48.500537069811706" lon="-4.05159330294656"><ele>62.0</ele><time>2026-03-22T10:06:20Z</time></trkpt><trkpt lat="48.50060039672147" lon="-4.051715216319337"><ele>62.00000000000001</ele><time>2026-03-22T10:06:22Z</time></trkpt><trkpt lat="48.50062601091273" lon="-4.051845059204365"><ele>62.0</ele><time>2026-03-22T10:06:23.999Z</time></trkpt><trkpt lat="48.50064963563228" lon="-4.052003156502904"><ele>62.16666666666667</ele><time>2026-03-22T10:06:25.999Z</time></trkpt><trkpt lat="48.500694992081165" lon="-4.052130340070891"><ele>62.333333333333336</ele><time>2026-03-22T10:06:27.999Z</time></trkpt><trkpt lat="48.500779069780975" lon="-4.052130565465298"><ele>62.5</ele><time>2026-03-22T10:06:29.999Z</time></trkpt><trkpt lat="48.50084218908245" lon="-4.052111962731735"><ele>62.66666666666667</ele><time>2026-03-22T10:06:32.999Z</time></trkpt><trkpt lat="48.500936470295464" lon="-4.052132958248821"><ele>62.833333333333336</ele><time>2026-03-22T10:06:36.999Z</time></trkpt><trkpt lat="48.500974190420784" lon="-4.052225117437961"><ele>63.0</ele><time>2026-03-22T10:06:38.999Z</time></trkpt><trkpt lat="48.50102099128418" lon="-4.052400997241749"><ele>63.4</ele><time>2026-03-22T10:06:40.999Z</time></trkpt><trkpt lat="48.50104990463731" lon="-4.052490647735853"><ele>63.8</ele><time>2026-03-22T10:06:41.999Z</time></trkpt><trkpt lat="48.50106682223939" lon="-4.052597735358293"><ele>64.2</ele><time>2026-03-22T10:06:42.999Z</time></trkpt><trkpt lat="48.50104347246111" lon="-4.0527479896082665"><ele>64.6</ele><time>2026-03-22T10:06:44.999Z</time></trkpt><trkpt lat="48.500946602908776" lon="-4.052916613409866"><ele>65.0</ele><time>2026-03-22T10:06:46.999Z</time></trkpt><trkpt lat="48.50087379087449" lon="-4.053029669882263"><ele>65.0</ele><time>2026-03-22T10:06:48.999Z</time></trkpt><trkpt lat="48.50082684752426" lon="-4.053096094103152"><ele>65.0</ele><time>2026-03-22T10:06:50.999Z</time></trkpt><trkpt lat="48.5007706960118" lon="-4.0531693176618555"><ele>65.0</ele><time>2026-03-22T10:06:52.999Z</time></trkpt><trkpt lat="48.50066800838819" lon="-4.053256164305696"><ele>65.0</ele><time>2026-03-22T10:06:54.999Z</time></trkpt><trkpt lat="48.50056796653099" lon="-4.053330037812435"><ele>65.0</ele><time>2026-03-22T10:06:56.999Z</time></trkpt><trkpt lat="48.50049325328686" lon="-4.053425462199139"><ele>66.0</ele><time>2026-03-22T10:06:58.999Z</time></trkpt><trkpt lat="48.500394938890096" lon="-4.053512228955044"><ele>67.0</ele><time>2026-03-22T10:07:00.999Z</time></trkpt><trkpt lat="48.500361514339104" lon="-4.053710404176653"><ele>68.0</ele><time>2026-03-22T10:07:02.999Z</time></trkpt><trkpt lat="48.50035335449269" lon="-4.053840850713059"><ele>69.0</ele><time>2026-03-22T10:07:03.999Z</time></trkpt><trkpt lat="48.500344902774934" lon="-4.053948913143084"><ele>70.0</ele><time>2026-03-22T10:07:04.999Z</time></trkpt><trkpt lat="48.50033066939695" lon="-4.054058600176863"><ele>69.0</ele><time>2026-03-22T10:07:05.999Z</time></trkpt><trkpt lat="48.50028735600899" lon="-4.054225963442821"><ele>68.0</ele><time>2026-03-22T10:07:07.999Z</time></trkpt><trkpt lat="48.50029342569343" lon="-4.0543303275401"><ele>67.0</ele><time>2026-03-22T10:07:08.999Z</time></trkpt><trkpt lat="48.50031744680707" lon="-4.054421947651376"><ele>66.0</ele><time>2026-03-22T10:07:09.999Z</time></trkpt><trkpt lat="48.50036223604601" lon="-4.0544980952727085"><ele>65.0</ele><time>2026-03-22T10:07:10.999Z</time></trkpt><trkpt lat="48.500376998928715" lon="-4.054623824374583"><ele>64.0</ele><time>2026-03-22T10:07:31Z</time></trkpt><trkpt lat="48.5003356306613" lon="-4.054762005879818"><ele>63.99999999999999</ele><time>2026-03-22T10:07:51Z</time></trkpt><trkpt lat="48.50029609732719" lon="-4.054863560628885"><ele>64.0</ele><time>2026-03-22T10:07:52Z</time></trkpt><trkpt lat="48.50024171029568" lon="-4.054970077387482"><ele>64.0</ele><time>2026-03-22T10:07:53Z</time></trkpt><trkpt lat="48.50015760711847" lon="-4.055052038311663"><ele>64.0</ele><time>2026-03-22T10:07:54Z</time></trkpt><trkpt lat="48.50009369980748" lon="-4.055162691915545"><ele>63.99999999999999</ele><time>2026-03-22T10:07:55Z</time></trkpt><trkpt lat="48.50004501042648" lon="-4.055240186604627"><ele>64.0</ele><time>2026-03-22T10:07:56Z</time></trkpt><trkpt lat="48.49997505962539" lon="-4.055317878108788"><ele>63.99999999999999</ele><time>2026-03-22T10:07:58Z</time></trkpt><trkpt lat="48.499875128763655" lon="-4.0553715297754565"><ele>64.0</ele><time>2026-03-22T10:08:00Z</time></trkpt><trkpt lat="48.49980058509041" lon="-4.055427778673063"><ele>64.0</ele><time>2026-03-22T10:08:01Z</time></trkpt><trkpt lat="48.49972834754053" lon="-4.055487819742701"><ele>64.0</ele><time>2026-03-22T10:08:02Z</time></trkpt><trkpt lat="48.499648171844385" lon="-4.0555515042058925"><ele>63.99999999999999</ele><time>2026-03-22T10:08:03Z</time></trkpt><trkpt lat="48.49956797273869" lon="-4.055589090124965"><ele>64.0</ele><time>2026-03-22T10:08:04Z</time></trkpt><trkpt lat="48.499482138777786" lon="-4.055594802900128"><ele>63.99999999999999</ele><time>2026-03-22T10:08:05Z</time></trkpt><trkpt lat="48.499385847880696" lon="-4.055565567197613"><ele>64.0</ele><time>2026-03-22T10:08:06Z</time></trkpt><trkpt lat="48.4992951440699" lon="-4.055532140485992"><ele>64.0</ele><time>2026-03-22T10:08:07Z</time></trkpt><trkpt lat="48.499222448675205" lon="-4.055479353013153"><ele>64.0</ele><time>2026-03-22T10:08:08Z</time></trkpt><trkpt lat="48.49915904505511" lon="-4.055474081490258"><ele>63.99999999999999</ele><time>2026-03-22T10:08:09Z</time></trkpt><trkpt lat="48.499095858665136" lon="-4.055443608650661"><ele>64.0</ele><time>2026-03-22T10:08:10Z</time></trkpt><trkpt lat="48.49901810589765" lon="-4.055591999310488"><ele>64.0</ele><time>2026-03-22T10:08:11Z</time></trkpt><trkpt lat="48.49894330230235" lon="-4.055671758991561"><ele>64.0</ele><time>2026-03-22T10:08:12Z</time></trkpt><trkpt lat="48.498866231217214" lon="-4.055752280721188"><ele>64.0</ele><time>2026-03-22T10:08:13Z</time></trkpt><trkpt lat="48.49878610346636" lon="-4.055821037394505"><ele>64.0</ele><time>2026-03-22T10:08:14Z</time></trkpt><trkpt lat="48.49870001558264" lon="-4.055871735315161"><ele>64.0</ele><time>2026-03-22T10:08:15Z</time></trkpt><trkpt lat="48.49860058416814" lon="-4.0558926904495936"><ele>63.0</ele><time>2026-03-22T10:08:16Z</time></trkpt><trkpt lat="48.49850244143115" lon="-4.055892398009261"><ele>62.00000000000001</ele><time>2026-03-22T10:08:17Z</time></trkpt><trkpt lat="48.498394388492336" lon="-4.055852712568723"><ele>61.00000000000001</ele><time>2026-03-22T10:08:18Z</time></trkpt><trkpt lat="48.49828850849371" lon="-4.055821251180468"><ele>60.0</ele><time>2026-03-22T10:08:19Z</time></trkpt><trkpt lat="48.49820070772689" lon="-4.055801608362897"><ele>59.0</ele><time>2026-03-22T10:08:20Z</time></trkpt><trkpt lat="48.498128650905976" lon="-4.0558271359778955"><ele>59.0</ele><time>2026-03-22T10:08:20.999Z</time></trkpt><trkpt lat="48.498051235090784" lon="-4.0558675206666335"><ele>59.00000000000001</ele><time>2026-03-22T10:08:22.999Z</time></trkpt><trkpt lat="48.498094012666094" lon="-4.05606761648755"><ele>59.00000000000001</ele><time>2026-03-22T10:08:23.999Z</time></trkpt><trkpt lat="48.4981351264017" lon="-4.0561879898486115"><ele>59.0</ele><time>2026-03-22T10:08:24.999Z</time></trkpt><trkpt lat="48.49818089516255" lon="-4.056316318655398"><ele>59.0</ele><time>2026-03-22T10:08:25.999Z</time></trkpt><trkpt lat="48.498233143799986" lon="-4.056476124159025"><ele>57.75</ele><time>2026-03-22T10:08:26.999Z</time></trkpt><trkpt lat="48.498284039127384" lon="-4.056656013205965"><ele>56.5</ele><time>2026-03-22T10:08:27.999Z</time></trkpt><trkpt lat="48.49833751703462" lon="-4.056831036614779"><ele>55.25</ele><time>2026-03-22T10:08:28.999Z</time></trkpt><trkpt lat="48.498388069084065" lon="-4.057021779025667"><ele>54.0</ele><time>2026-03-22T10:08:29.999Z</time></trkpt><trkpt lat="48.49844216673642" lon="-4.057214808958391"><ele>54.0</ele><time>2026-03-22T10:08:30.999Z</time></trkpt><trkpt lat="48.498508428119536" lon="-4.057417964786172"><ele>54.0</ele><time>2026-03-22T10:08:31.999Z</time></trkpt><trkpt lat="48.498575522050835" lon="-4.057610949769225"><ele>54.0</ele><time>2026-03-22T10:08:32.999Z</time></trkpt><trkpt lat="48.498649094440616" lon="-4.0578141077720105"><ele>54.0</ele><time>2026-03-22T10:08:33.999Z</time></trkpt><trkpt lat="48.49872609378665" lon="-4.058010628739376"><ele>53.33333333333333</ele><time>2026-03-22T10:08:34.999Z</time></trkpt><trkpt lat="48.498810479810906" lon="-4.058213727675793"><ele>52.666666666666664</ele><time>2026-03-22T10:08:35.999Z</time></trkpt><trkpt lat="48.49888342023354" lon="-4.05841370991307"><ele>52.0</ele><time>2026-03-22T10:08:36.999Z</time></trkpt><trkpt lat="48.498966784483486" lon="-4.058646065562018"><ele>52.0</ele><time>2026-03-22T10:08:37.999Z</time></trkpt><trkpt lat="48.499048380241064" lon="-4.058861067849743"><ele>52.0</ele><time>2026-03-22T10:08:38.999Z</time></trkpt><trkpt lat="48.49913471940504" lon="-4.059065410812495"><ele>52.0</ele><time>2026-03-22T10:08:39.999Z</time></trkpt><trkpt lat="48.49921540262709" lon="-4.059273397134787"><ele>52.0</ele><time>2026-03-22T10:08:40.999Z</time></trkpt><trkpt lat="48.499296015612686" lon="-4.059454097265934"><ele>52.0</ele><time>2026-03-22T10:08:41.999Z</time></trkpt><trkpt lat="48.499369243751765" lon="-4.059633177112522"><ele>52.0</ele><time>2026-03-22T10:08:42.999Z</time></trkpt><trkpt lat="48.49943854622497" lon="-4.059802570843018"><ele>52.0</ele><time>2026-03-22T10:08:43.999Z</time></trkpt><trkpt lat="48.49950153226951" lon="-4.0599514784898965"><ele>52.0</ele><time>2026-03-22T10:08:44.999Z</time></trkpt><trkpt lat="48.499550409380156" lon="-4.06007709391947"><ele>52.0</ele><time>2026-03-22T10:08:45.999Z</time></trkpt><trkpt lat="48.49960279976614" lon="-4.06015903589715"><ele>52.0</ele><time>2026-03-22T10:08:46.999Z</time></trkpt><trkpt lat="48.49963214690255" lon="-4.060259886369603"><ele>52.0</ele><time>2026-03-22T10:08:48.999Z</time></trkpt><trkpt lat="48.499459253311855" lon="-4.060440958210426"><ele>52.0</ele><time>2026-03-22T10:08:49.999Z</time></trkpt><trkpt lat="48.499371688080636" lon="-4.060529024235544"><ele>52.0</ele><time>2026-03-22T10:08:50.999Z</time></trkpt><trkpt lat="48.49927177692099" lon="-4.060614840925369"><ele>52.0</ele><time>2026-03-22T10:08:51.999Z</time></trkpt><trkpt lat="48.49916628666588" lon="-4.060712651456552"><ele>52.0</ele><time>2026-03-22T10:08:52.999Z</time></trkpt><trkpt lat="48.499054482120755" lon="-4.060815118177651"><ele>51.75</ele><time>2026-03-22T10:08:53.999Z</time></trkpt><trkpt lat="48.49893028723057" lon="-4.060929829647098"><ele>51.5</ele><time>2026-03-22T10:08:54.999Z</time></trkpt><trkpt lat="48.49881004288985" lon="-4.0610350513526345"><ele>51.25</ele><time>2026-03-22T10:08:55.999Z</time></trkpt><trkpt lat="48.49869542689053" lon="-4.0611407573681015"><ele>51.0</ele><time>2026-03-22T10:08:56.999Z</time></trkpt><trkpt lat="48.49858072001498" lon="-4.0612459097905225"><ele>51.5</ele><time>2026-03-22T10:08:57.999Z</time></trkpt><trkpt lat="48.498468888200115" lon="-4.061353428634971"><ele>52.0</ele><time>2026-03-22T10:08:58.999Z</time></trkpt><trkpt lat="48.498351538658156" lon="-4.0614095734024405"><ele>52.5</ele><time>2026-03-22T10:08:59.999Z</time></trkpt><trkpt lat="48.49824240885319" lon="-4.061440433485278"><ele>53.0</ele><time>2026-03-22T10:09:00.999Z</time></trkpt><trkpt lat="48.498158031560685" lon="-4.061509278915789"><ele>52.599999999999994</ele><time>2026-03-22T10:09:01.999Z</time></trkpt><trkpt lat="48.498106653993055" lon="-4.0616211286093655"><ele>52.199999999999996</ele><time>2026-03-22T10:09:02.999Z</time></trkpt><trkpt lat="48.498093845552184" lon="-4.061751873525842"><ele>51.8</ele><time>2026-03-22T10:09:03.999Z</time></trkpt><trkpt lat="48.49810849936255" lon="-4.0618701036119"><ele>51.4</ele><time>2026-03-22T10:09:04.999Z</time></trkpt><trkpt lat="48.49812000634321" lon="-4.062034526343876"><ele>51.0</ele><time>2026-03-22T10:09:06.999Z</time></trkpt><trkpt lat="48.49795993609517" lon="-4.06208686479594"><ele>51.599999999999994</ele><time>2026-03-22T10:09:10.999Z</time></trkpt><trkpt lat="48.49787003782937" lon="-4.062093537913314"><ele>52.2</ele><time>2026-03-22T10:09:11.999Z</time></trkpt><trkpt lat="48.49777228120988" lon="-4.062094332777494"><ele>52.800000000000004</ele><time>2026-03-22T10:09:12.999Z</time></trkpt><trkpt lat="48.49768252156749" lon="-4.0620905274659505"><ele>53.400000000000006</ele><time>2026-03-22T10:09:13.999Z</time></trkpt><trkpt lat="48.49759139367623" lon="-4.062109771728461"><ele>54.0</ele><time>2026-03-22T10:09:14.999Z</time></trkpt><trkpt lat="48.49750724939553" lon="-4.0621117353057965"><ele>54.0</ele><time>2026-03-22T10:09:15.999Z</time></trkpt><trkpt lat="48.497438966915745" lon="-4.062111758773557"><ele>54.0</ele><time>2026-03-22T10:09:16.999Z</time></trkpt><trkpt lat="48.497350036456496" lon="-4.062090724293553"><ele>54.0</ele><time>2026-03-22T10:09:18.999Z</time></trkpt><trkpt lat="48.49731538822508" lon="-4.062242876189892"><ele>54.0</ele><time>2026-03-22T10:09:22.999Z</time></trkpt><trkpt lat="48.49730814475953" lon="-4.062343106439223"><ele>54.0</ele><time>2026-03-22T10:09:23.999Z</time></trkpt><trkpt lat="48.49728612254492" lon="-4.06245365422307"><ele>54.0</ele><time>2026-03-22T10:09:24.999Z</time></trkpt><trkpt lat="48.49727229157063" lon="-4.062636319805936"><ele>53.666666666666664</ele><time>2026-03-22T10:09:26.999Z</time></trkpt><trkpt lat="48.49727555335109" lon="-4.062745329498431"><ele>53.33333333333333</ele><time>2026-03-22T10:09:27.999Z</time></trkpt><trkpt lat="48.497299096799" lon="-4.0629158418364"><ele>53.0</ele><time>2026-03-22T10:09:29.999Z</time></trkpt><trkpt lat="48.49728268426839" lon="-4.063014832898633"><ele>52.666666666666664</ele><time>2026-03-22T10:09:31Z</time></trkpt><trkpt lat="48.49728455404045" lon="-4.063146029588735"><ele>52.33333333333333</ele><time>2026-03-22T10:09:32Z</time></trkpt><trkpt lat="48.49729901048046" lon="-4.063292007411748"><ele>52.0</ele><time>2026-03-22T10:09:33Z</time></trkpt><trkpt lat="48.49732419042248" lon="-4.063471347194182"><ele>52.0</ele><time>2026-03-22T10:09:34Z</time></trkpt><trkpt lat="48.49734045992943" lon="-4.063661740383686"><ele>52.0</ele><time>2026-03-22T10:09:35Z</time></trkpt><trkpt lat="48.49735535018704" lon="-4.063867460956584"><ele>52.0</ele><time>2026-03-22T10:09:36Z</time></trkpt><trkpt lat="48.49737513948817" lon="-4.06406235882389"><ele>52.0</ele><time>2026-03-22T10:09:37Z</time></trkpt><trkpt lat="48.49739717397517" lon="-4.064237952671133"><ele>52.0</ele><time>2026-03-22T10:09:38Z</time></trkpt><trkpt lat="48.49741840542969" lon="-4.064392067192904"><ele>52.0</ele><time>2026-03-22T10:09:39Z</time></trkpt><trkpt lat="48.497429652197916" lon="-4.0645269305315725"><ele>52.0</ele><time>2026-03-22T10:09:40Z</time></trkpt><trkpt lat="48.49744394470396" lon="-4.064637215216952"><ele>52.0</ele><time>2026-03-22T10:09:41Z</time></trkpt><trkpt lat="48.49745115248769" lon="-4.0647782670318655"><ele>52.0</ele><time>2026-03-22T10:09:42Z</time></trkpt><trkpt lat="48.497463987827835" lon="-4.064924165359972"><ele>52.0</ele><time>2026-03-22T10:09:43Z</time></trkpt><trkpt lat="48.49746972563398" lon="-4.065112200621494"><ele>52.0</ele><time>2026-03-22T10:09:45Z</time></trkpt><trkpt lat="48.497478499297685" lon="-4.065217651486654"><ele>52.0</ele><time>2026-03-22T10:09:46Z</time></trkpt><trkpt lat="48.49749072871202" lon="-4.065357844034035"><ele>52.0</ele><time>2026-03-22T10:09:47Z</time></trkpt><trkpt lat="48.49750417140924" lon="-4.065526333964117"><ele>52.0</ele><time>2026-03-22T10:09:48Z</time></trkpt><trkpt lat="48.4975282714724" lon="-4.065701301016148"><ele>52.2</ele><time>2026-03-22T10:09:49Z</time></trkpt><trkpt lat="48.49755112571178" lon="-4.065839773506042"><ele>52.400000000000006</ele><time>2026-03-22T10:09:50Z</time></trkpt><trkpt lat="48.4975613131265" lon="-4.065971506521846"><ele>52.599999999999994</ele><time>2026-03-22T10:09:51Z</time></trkpt><trkpt lat="48.49756237249847" lon="-4.066119571262072"><ele>52.8</ele><time>2026-03-22T10:09:52Z</time></trkpt><trkpt lat="48.49755959682444" lon="-4.066282498428387"><ele>53.0</ele><time>2026-03-22T10:09:53Z</time></trkpt><trkpt lat="48.49756030689488" lon="-4.066447336906116"><ele>53.00000000000001</ele><time>2026-03-22T10:09:54Z</time></trkpt><trkpt lat="48.497570048092435" lon="-4.066576764101596"><ele>53.0</ele><time>2026-03-22T10:09:55Z</time></trkpt><trkpt lat="48.49758614201695" lon="-4.066691457701829"><ele>53.0</ele><time>2026-03-22T10:09:56Z</time></trkpt><trkpt lat="48.49764314615626" lon="-4.066844088730493"><ele>53.0</ele><time>2026-03-22T10:09:58Z</time></trkpt><trkpt lat="48.4976550331397" lon="-4.066956103302148"><ele>53.00000000000001</ele><time>2026-03-22T10:10:00Z</time></trkpt><trkpt lat="48.497589571633654" lon="-4.067002824512345"><ele>53.0</ele><time>2026-03-22T10:10:02Z</time></trkpt><trkpt lat="48.4975245143811" lon="-4.06699122724993"><ele>52.833333333333336</ele><time>2026-03-22T10:10:05Z</time></trkpt><trkpt lat="48.49745476826097" lon="-4.067003620539138"><ele>52.66666666666667</ele><time>2026-03-22T10:10:08Z</time></trkpt><trkpt lat="48.49738451761525" lon="-4.067053285907393"><ele>52.5</ele><time>2026-03-22T10:10:10Z</time></trkpt><trkpt lat="48.497389097485666" lon="-4.0671509129029335"><ele>52.33333333333333</ele><time>2026-03-22T10:10:13Z</time></trkpt><trkpt lat="48.497369603937045" lon="-4.067275270234182"><ele>52.166666666666664</ele><time>2026-03-22T10:10:49.999Z</time></trkpt><trkpt lat="48.49738001274161" lon="-4.067394584888156"><ele>52.0</ele><time>2026-03-22T10:10:50.999Z</time></trkpt><trkpt lat="48.49737983935305" lon="-4.067558176826973"><ele>51.99999999999999</ele><time>2026-03-22T10:10:51.999Z</time></trkpt><trkpt lat="48.497372069760985" lon="-4.067674827833567"><ele>52.0</ele><time>2026-03-22T10:10:52.999Z</time></trkpt><trkpt lat="48.49725578339056" lon="-4.067755536689963"><ele>52.0</ele><time>2026-03-22T10:10:54.999Z</time></trkpt><trkpt lat="48.49718934729696" lon="-4.067751568686137"><ele>52.0</ele><time>2026-03-22T10:10:55.999Z</time></trkpt><trkpt lat="48.49712119164442" lon="-4.067742530735323"><ele>51.99999999999999</ele><time>2026-03-22T10:10:56.999Z</time></trkpt><trkpt lat="48.49704094255649" lon="-4.067744722577954"><ele>52.0</ele><time>2026-03-22T10:10:57.999Z</time></trkpt><trkpt lat="48.496967249995485" lon="-4.0677252611957515"><ele>54.166666666666664</ele><time>2026-03-22T10:10:59.999Z</time></trkpt><trkpt lat="48.496912083914864" lon="-4.067780548828938"><ele>56.33333333333333</ele><time>2026-03-22T10:11:02.999Z</time></trkpt><trkpt lat="48.496805314039584" lon="-4.0678679691004405"><ele>58.5</ele><time>2026-03-22T10:11:04.999Z</time></trkpt><trkpt lat="48.496737623549656" lon="-4.067890219580973"><ele>60.66666666666667</ele><time>2026-03-22T10:11:05.999Z</time></trkpt><trkpt lat="48.4966704677539" lon="-4.067904777268161"><ele>62.833333333333336</ele><time>2026-03-22T10:11:08.999Z</time></trkpt><trkpt lat="48.496631684854336" lon="-4.067826694191174"><ele>65.0</ele><time>2026-03-22T10:11:10.999Z</time></trkpt><trkpt lat="48.49660369539442" lon="-4.0677133172739115"><ele>65.0</ele><time>2026-03-22T10:11:19.999Z</time></trkpt><trkpt lat="48.49656226892512" lon="-4.067622952998057"><ele>65.0</ele><time>2026-03-22T10:11:21.999Z</time></trkpt><trkpt lat="48.49650350624179" lon="-4.06754056717588"><ele>65.0</ele><time>2026-03-22T10:11:24.999Z</time></trkpt><trkpt lat="48.496545874739695" lon="-4.06744529721503"><ele>65.0</ele><time>2026-03-22T10:11:29.999Z</time></trkpt><trkpt lat="48.49667677100842" lon="-4.0674936808937225"><ele>65.0</ele><time>2026-03-22T10:11:31.999Z</time></trkpt><trkpt lat="48.49677263891713" lon="-4.067577892199062"><ele>65.0</ele><time>2026-03-22T10:11:32.999Z</time></trkpt><trkpt lat="48.49683433390531" lon="-4.067654883730336"><ele>65.0</ele><time>2026-03-22T10:11:33.999Z</time></trkpt><trkpt lat="48.496903057374816" lon="-4.067718610529943"><ele>65.0</ele><time>2026-03-22T10:11:34.999Z</time></trkpt><trkpt lat="48.49699626548798" lon="-4.067738074294642"><ele>65.0</ele><time>2026-03-22T10:11:37Z</time></trkpt><trkpt lat="48.49702268761306" lon="-4.067628959102628"><ele>65.0</ele><time>2026-03-22T10:11:39Z</time></trkpt><trkpt lat="48.497004539064484" lon="-4.067518022106312"><ele>65.0</ele><time>2026-03-22T10:11:40Z</time></trkpt><trkpt lat="48.49700019900517" lon="-4.067380008899283"><ele>64.75</ele><time>2026-03-22T10:11:41Z</time></trkpt><trkpt lat="48.49697855690948" lon="-4.067221253303484"><ele>64.5</ele><time>2026-03-22T10:11:42Z</time></trkpt><trkpt lat="48.49695525286071" lon="-4.067049005977698"><ele>64.25</ele><time>2026-03-22T10:11:43Z</time></trkpt><trkpt lat="48.49692382305819" lon="-4.066860738814007"><ele>64.0</ele><time>2026-03-22T10:11:44Z</time></trkpt><trkpt lat="48.49689615479607" lon="-4.066691953915234"><ele>64.4</ele><time>2026-03-22T10:11:45Z</time></trkpt><trkpt lat="48.49687939622146" lon="-4.06653726167196"><ele>64.80000000000001</ele><time>2026-03-22T10:11:46Z</time></trkpt><trkpt lat="48.496853685256944" lon="-4.066422292354995"><ele>65.19999999999999</ele><time>2026-03-22T10:11:47Z</time></trkpt><trkpt lat="48.49675194328924" lon="-4.066357068415212"><ele>65.6</ele><time>2026-03-22T10:11:49Z</time></trkpt><trkpt lat="48.49668729006712" lon="-4.0662811514792985"><ele>66.0</ele><time>2026-03-22T10:11:51Z</time></trkpt><trkpt lat="48.49669941861451" lon="-4.06614885952858"><ele>66.0</ele><time>2026-03-22T10:11:52Z</time></trkpt><trkpt lat="48.49671493728272" lon="-4.0659727649270785"><ele>66.0</ele><time>2026-03-22T10:11:53Z</time></trkpt><trkpt lat="48.49672501273553" lon="-4.0657819753199735"><ele>66.0</ele><time>2026-03-22T10:11:54Z</time></trkpt><trkpt lat="48.49674552122145" lon="-4.065599821344896"><ele>66.0</ele><time>2026-03-22T10:11:55Z</time></trkpt><trkpt lat="48.49675293193085" lon="-4.06543592417711"><ele>66.16666666666667</ele><time>2026-03-22T10:11:56Z</time></trkpt><trkpt lat="48.49676956065836" lon="-4.065298958776057"><ele>66.33333333333333</ele><time>2026-03-22T10:11:57Z</time></trkpt><trkpt lat="48.496770785305095" lon="-4.065184769953292"><ele>66.5</ele><time>2026-03-22T10:11:58Z</time></trkpt><trkpt lat="48.496736759143666" lon="-4.065102575685737"><ele>66.66666666666666</ele><time>2026-03-22T10:11:59Z</time></trkpt><trkpt lat="48.49673042417462" lon="-4.064985319936288"><ele>66.83333333333333</ele><time>2026-03-22T10:12:01Z</time></trkpt><trkpt lat="48.49674648577653" lon="-4.064884679562211"><ele>67.0</ele><time>2026-03-22T10:12:02Z</time></trkpt><trkpt lat="48.49673582021422" lon="-4.06475462386337"><ele>67.16666666666666</ele><time>2026-03-22T10:12:03Z</time></trkpt><trkpt lat="48.496715745780456" lon="-4.064637158595436"><ele>67.33333333333333</ele><time>2026-03-22T10:12:04Z</time></trkpt><trkpt lat="48.49672744997797" lon="-4.064494520064286"><ele>67.5</ele><time>2026-03-22T10:12:06Z</time></trkpt><trkpt lat="48.496674989039875" lon="-4.064368818665774"><ele>67.66666666666667</ele><time>2026-03-22T10:12:08Z</time></trkpt><trkpt lat="48.49664430153061" lon="-4.06427220106246"><ele>67.83333333333334</ele><time>2026-03-22T10:12:10Z</time></trkpt><trkpt lat="48.49663779319138" lon="-4.06416618700996"><ele>68.0</ele><time>2026-03-22T10:12:11Z</time></trkpt><trkpt lat="48.496640466755245" lon="-4.064012583619879"><ele>68.0</ele><time>2026-03-22T10:12:12Z</time></trkpt><trkpt lat="48.496605829072266" lon="-4.063880004165525"><ele>68.0</ele><time>2026-03-22T10:12:13Z</time></trkpt><trkpt lat="48.49657546151659" lon="-4.06377870640598"><ele>68.0</ele><time>2026-03-22T10:12:14Z</time></trkpt><trkpt lat="48.49652202134931" lon="-4.063637657752546"><ele>68.0</ele><time>2026-03-22T10:12:16Z</time></trkpt><trkpt lat="48.49652348747099" lon="-4.0635268609445445"><ele>68.0</ele><time>2026-03-22T10:12:17Z</time></trkpt><trkpt lat="48.496496378390525" lon="-4.0633875904731305"><ele>68.0</ele><time>2026-03-22T10:12:19Z</time></trkpt><trkpt lat="48.496488569560576" lon="-4.063234040322841"><ele>68.0</ele><time>2026-03-22T10:12:21Z</time></trkpt><trkpt lat="48.49645282404725" lon="-4.06314202084899"><ele>68.0</ele><time>2026-03-22T10:12:22Z</time></trkpt><trkpt lat="48.49642733244077" lon="-4.062996432816932"><ele>68.0</ele><time>2026-03-22T10:12:24Z</time></trkpt><trkpt lat="48.496442951039874" lon="-4.062887151395341"><ele>68.0</ele><time>2026-03-22T10:12:25Z</time></trkpt><trkpt lat="48.49647074894893" lon="-4.062752300095051"><ele>68.0</ele><time>2026-03-22T10:12:26Z</time></trkpt><trkpt lat="48.49649657857264" lon="-4.06260056036098"><ele>68.0</ele><time>2026-03-22T10:12:27Z</time></trkpt><trkpt lat="48.4965348775748" lon="-4.062456243241089"><ele>68.0</ele><time>2026-03-22T10:12:28Z</time></trkpt><trkpt lat="48.49655917692489" lon="-4.0623091572698256"><ele>68.0</ele><time>2026-03-22T10:12:29Z</time></trkpt><trkpt lat="48.496585037756546" lon="-4.062155175983311"><ele>68.0</ele><time>2026-03-22T10:12:30Z</time></trkpt><trkpt lat="48.496606368388214" lon="-4.062025735384806"><ele>68.0</ele><time>2026-03-22T10:12:31Z</time></trkpt><trkpt lat="48.49660647189054" lon="-4.061889017537651"><ele>68.0</ele><time>2026-03-22T10:12:32Z</time></trkpt><trkpt lat="48.496586993366215" lon="-4.061736846564974"><ele>68.0</ele><time>2026-03-22T10:12:33Z</time></trkpt><trkpt lat="48.496595988278685" lon="-4.061588307075583"><ele>68.0</ele><time>2026-03-22T10:12:34Z</time></trkpt><trkpt lat="48.49661235143739" lon="-4.061442926496765"><ele>68.0</ele><time>2026-03-22T10:12:35Z</time></trkpt><trkpt lat="48.49663430491221" lon="-4.061278878419609"><ele>68.0</ele><time>2026-03-22T10:12:36Z</time></trkpt><trkpt lat="48.4966474264757" lon="-4.061131247336074"><ele>68.0</ele><time>2026-03-22T10:12:37Z</time></trkpt><trkpt lat="48.49665003621155" lon="-4.061030057193245"><ele>68.0</ele><time>2026-03-22T10:12:38Z</time></trkpt><trkpt lat="48.496596561120626" lon="-4.060945283471374"><ele>68.0</ele><time>2026-03-22T10:12:40Z</time></trkpt><trkpt lat="48.496563158666135" lon="-4.060787071045653"><ele>68.0</ele><time>2026-03-22T10:12:41.999Z</time></trkpt><trkpt lat="48.49657074857786" lon="-4.060679374343158"><ele>68.0</ele><time>2026-03-22T10:12:42.999Z</time></trkpt><trkpt lat="48.496597045132845" lon="-4.06053474169865"><ele>68.0</ele><time>2026-03-22T10:12:43.999Z</time></trkpt><trkpt lat="48.49661327398862" lon="-4.060420413808152"><ele>68.0</ele><time>2026-03-22T10:12:44.999Z</time></trkpt><trkpt lat="48.49663453197156" lon="-4.060285250307907"><ele>68.4</ele><time>2026-03-22T10:12:45.999Z</time></trkpt><trkpt lat="48.49667521214776" lon="-4.060100881948386"><ele>68.8</ele><time>2026-03-22T10:12:47.999Z</time></trkpt><trkpt lat="48.496678755887714" lon="-4.059952630015242"><ele>69.2</ele><time>2026-03-22T10:12:48.999Z</time></trkpt><trkpt lat="48.496683990760665" lon="-4.0597912788990635"><ele>69.6</ele><time>2026-03-22T10:12:49.999Z</time></trkpt><trkpt lat="48.49668966970709" lon="-4.059646036074507"><ele>70.0</ele><time>2026-03-22T10:12:50.999Z</time></trkpt><trkpt lat="48.496674682348306" lon="-4.059516384425437"><ele>70.2</ele><time>2026-03-22T10:12:51.999Z</time></trkpt><trkpt lat="48.49665281883783" lon="-4.0593870490167365"><ele>70.4</ele><time>2026-03-22T10:12:52.999Z</time></trkpt><trkpt lat="48.496602794369245" lon="-4.059242192546478"><ele>70.6</ele><time>2026-03-22T10:12:53.999Z</time></trkpt><trkpt lat="48.49653715354975" lon="-4.059103110086344"><ele>70.8</ele><time>2026-03-22T10:12:54.999Z</time></trkpt><trkpt lat="48.49647540052033" lon="-4.058920252681332"><ele>71.0</ele><time>2026-03-22T10:12:55.999Z</time></trkpt><trkpt lat="48.496381653517204" lon="-4.058753267647236"><ele>71.39999999999999</ele><time>2026-03-22T10:12:56.999Z</time></trkpt><trkpt lat="48.49630871423305" lon="-4.0586308120216685"><ele>71.8</ele><time>2026-03-22T10:12:57.999Z</time></trkpt><trkpt lat="48.49625024096081" lon="-4.058523658194281"><ele>72.19999999999999</ele><time>2026-03-22T10:12:58.999Z</time></trkpt><trkpt lat="48.496146258372235" lon="-4.058408932341227"><ele>72.6</ele><time>2026-03-22T10:13:00.999Z</time></trkpt><trkpt lat="48.49607689261313" lon="-4.058385043120362"><ele>73.0</ele><time>2026-03-22T10:13:01.999Z</time></trkpt><trkpt lat="48.496012722938126" lon="-4.058366969178845"><ele>75.16666666666666</ele><time>2026-03-22T10:13:02.999Z</time></trkpt><trkpt lat="48.49592633072629" lon="-4.058322789321916"><ele>77.33333333333333</ele><time>2026-03-22T10:13:03.999Z</time></trkpt><trkpt lat="48.495836270365366" lon="-4.058279421397304"><ele>79.5</ele><time>2026-03-22T10:13:04.999Z</time></trkpt><trkpt lat="48.49575586918133" lon="-4.05825180790694"><ele>81.66666666666667</ele><time>2026-03-22T10:13:05.999Z</time></trkpt><trkpt lat="48.49569260796345" lon="-4.05822862705376"><ele>83.83333333333334</ele><time>2026-03-22T10:13:06.999Z</time></trkpt><trkpt lat="48.495609243082484" lon="-4.058203850098185"><ele>86.0</ele><time>2026-03-22T10:13:08.999Z</time></trkpt><trkpt lat="48.495503926359405" lon="-4.058196487876782"><ele>86.0</ele><time>2026-03-22T10:13:12.999Z</time></trkpt><trkpt lat="48.49544039983009" lon="-4.058198357472709"><ele>86.0</ele><time>2026-03-22T10:13:13.999Z</time></trkpt><trkpt lat="48.49537479194136" lon="-4.058234091858286"><ele>86.0</ele><time>2026-03-22T10:13:17.999Z</time></trkpt><trkpt lat="48.495270582781146" lon="-4.058283847598809"><ele>86.0</ele><time>2026-03-22T10:13:20.999Z</time></trkpt><trkpt lat="48.495157513583756" lon="-4.0583506653626475"><ele>86.0</ele><time>2026-03-22T10:13:22.999Z</time></trkpt><trkpt lat="48.495092999944525" lon="-4.058401900988037"><ele>86.0</ele><time>2026-03-22T10:13:23.999Z</time></trkpt><trkpt lat="48.49501839758232" lon="-4.058388749340075"><ele>88.0</ele><time>2026-03-22T10:13:24.999Z</time></trkpt><trkpt lat="48.494917906466995" lon="-4.058353956858882"><ele>90.0</ele><time>2026-03-22T10:13:25.999Z</time></trkpt><trkpt lat="48.49481898656103" lon="-4.058324877496829"><ele>92.0</ele><time>2026-03-22T10:13:26.999Z</time></trkpt><trkpt lat="48.494722556975795" lon="-4.058331508503589"><ele>94.0</ele><time>2026-03-22T10:13:27.999Z</time></trkpt><trkpt lat="48.49460913570645" lon="-4.058343426903778"><ele>96.0</ele><time>2026-03-22T10:13:28.999Z</time></trkpt><trkpt lat="48.49447401257276" lon="-4.05834213673151"><ele>97.0</ele><time>2026-03-22T10:13:29.999Z</time></trkpt><trkpt lat="48.49436632920278" lon="-4.058345654048265"><ele>98.0</ele><time>2026-03-22T10:13:30.999Z</time></trkpt><trkpt lat="48.49429864105722" lon="-4.058323652069447"><ele>99.0</ele><time>2026-03-22T10:13:31.999Z</time></trkpt><trkpt lat="48.49422360400105" lon="-4.058353434462075"><ele>100.0</ele><time>2026-03-22T10:13:33.999Z</time></trkpt><trkpt lat="48.494236398025066" lon="-4.058557876677536"><ele>101.0</ele><time>2026-03-22T10:13:35.999Z</time></trkpt><trkpt lat="48.49425910423834" lon="-4.058717333062413"><ele>101.0</ele><time>2026-03-22T10:13:36.999Z</time></trkpt><trkpt lat="48.49427692116814" lon="-4.058897524755264"><ele>101.0</ele><time>2026-03-22T10:13:37.999Z</time></trkpt><trkpt lat="48.49429515041073" lon="-4.0591194978400065"><ele>101.0</ele><time>2026-03-22T10:13:38.999Z</time></trkpt><trkpt lat="48.494307085988964" lon="-4.059284458884266"><ele>101.0</ele><time>2026-03-22T10:13:39.999Z</time></trkpt><trkpt lat="48.49432260574526" lon="-4.0594174545489325"><ele>101.8</ele><time>2026-03-22T10:13:40.999Z</time></trkpt><trkpt lat="48.49426435042624" lon="-4.059570450644355"><ele>102.6</ele><time>2026-03-22T10:13:43Z</time></trkpt><trkpt lat="48.494169781593186" lon="-4.059594410070712"><ele>103.4</ele><time>2026-03-22T10:13:45Z</time></trkpt><trkpt lat="48.49408973103011" lon="-4.059566696271466"><ele>104.2</ele><time>2026-03-22T10:13:47Z</time></trkpt><trkpt lat="48.49398853711155" lon="-4.059547114864343"><ele>105.0</ele><time>2026-03-22T10:13:49Z</time></trkpt><trkpt lat="48.49386259276746" lon="-4.0595196997630625"><ele>105.0</ele><time>2026-03-22T10:13:51Z</time></trkpt><trkpt lat="48.49378757935864" lon="-4.059541369631648"><ele>105.0</ele><time>2026-03-22T10:13:52Z</time></trkpt><trkpt lat="48.493711698933204" lon="-4.059541696818244"><ele>105.0</ele><time>2026-03-22T10:13:53Z</time></trkpt><trkpt lat="48.493645753087094" lon="-4.059541981166957"><ele>105.0</ele><time>2026-03-22T10:13:54Z</time></trkpt><trkpt lat="48.49353676408868" lon="-4.059542451129097"><ele>105.0</ele><time>2026-03-22T10:13:56Z</time></trkpt><trkpt lat="48.49340507880672" lon="-4.059543574728965"><ele>105.2</ele><time>2026-03-22T10:13:58Z</time></trkpt><trkpt lat="48.493316409941876" lon="-4.059552844104615"><ele>105.4</ele><time>2026-03-22T10:13:59Z</time></trkpt><trkpt lat="48.49320079800877" lon="-4.059570818498266"><ele>105.6</ele><time>2026-03-22T10:14:00Z</time></trkpt><trkpt lat="48.493091535323394" lon="-4.059588404868554"><ele>105.8</ele><time>2026-03-22T10:14:01Z</time></trkpt><trkpt lat="48.49297158814377" lon="-4.059607711011981"><ele>106.0</ele><time>2026-03-22T10:14:02Z</time></trkpt><trkpt lat="48.4928444122003" lon="-4.059600613603534"><ele>106.75</ele><time>2026-03-22T10:14:03Z</time></trkpt><trkpt lat="48.49272545866612" lon="-4.059641509585962"><ele>107.5</ele><time>2026-03-22T10:14:04Z</time></trkpt><trkpt lat="48.49260164034815" lon="-4.059660730539303"><ele>108.25</ele><time>2026-03-22T10:14:05Z</time></trkpt><trkpt lat="48.492494300006584" lon="-4.059679165096234"><ele>109.0</ele><time>2026-03-22T10:14:06Z</time></trkpt><trkpt lat="48.49239438656739" lon="-4.059697063744504"><ele>109.00000000000001</ele><time>2026-03-22T10:14:07Z</time></trkpt><trkpt lat="48.49230822537613" lon="-4.059712801980669"><ele>109.0</ele><time>2026-03-22T10:14:08Z</time></trkpt><trkpt lat="48.49223952991889" lon="-4.05970790823445"><ele>109.0</ele><time>2026-03-22T10:14:09Z</time></trkpt><trkpt lat="48.492154742348674" lon="-4.059766052303437"><ele>109.0</ele><time>2026-03-22T10:14:11Z</time></trkpt><trkpt lat="48.492175850710346" lon="-4.059905385521941"><ele>109.00000000000001</ele><time>2026-03-22T10:14:12Z</time></trkpt><trkpt lat="48.49218925343647" lon="-4.0600368738421615"><ele>109.0</ele><time>2026-03-22T10:14:13Z</time></trkpt><trkpt lat="48.492223771415446" lon="-4.060193573093111"><ele>109.0</ele><time>2026-03-22T10:14:14Z</time></trkpt><trkpt lat="48.49225965651904" lon="-4.060374749371107"><ele>109.0</ele><time>2026-03-22T10:14:15Z</time></trkpt><trkpt lat="48.49229389654742" lon="-4.060578165476326"><ele>109.0</ele><time>2026-03-22T10:14:16Z</time></trkpt><trkpt lat="48.49234926192638" lon="-4.060790664834388"><ele>109.0</ele><time>2026-03-22T10:14:17Z</time></trkpt><trkpt lat="48.49237244527081" lon="-4.060999120043327"><ele>109.0</ele><time>2026-03-22T10:14:18Z</time></trkpt><trkpt lat="48.49241652238123" lon="-4.0611725905127996"><ele>109.0</ele><time>2026-03-22T10:14:19Z</time></trkpt><trkpt lat="48.492437096150006" lon="-4.061352571625571"><ele>109.0</ele><time>2026-03-22T10:14:20Z</time></trkpt><trkpt lat="48.49246990292787" lon="-4.061530966153262"><ele>109.0</ele><time>2026-03-22T10:14:21Z</time></trkpt><trkpt lat="48.49249633883561" lon="-4.061710439497984"><ele>109.0</ele><time>2026-03-22T10:14:22Z</time></trkpt><trkpt lat="48.49252332719359" lon="-4.061880459924044"><ele>109.0</ele><time>2026-03-22T10:14:23Z</time></trkpt><trkpt lat="48.49256382308833" lon="-4.062040840463537"><ele>109.0</ele><time>2026-03-22T10:14:24Z</time></trkpt><trkpt lat="48.49258173663733" lon="-4.06219678775881"><ele>109.0</ele><time>2026-03-22T10:14:25Z</time></trkpt><trkpt lat="48.49261115531668" lon="-4.062344753231963"><ele>109.0</ele><time>2026-03-22T10:14:26Z</time></trkpt><trkpt lat="48.4926314610862" lon="-4.062475789066404"><ele>109.0</ele><time>2026-03-22T10:14:27Z</time></trkpt><trkpt lat="48.49264676769076" lon="-4.062596883847718"><ele>109.0</ele><time>2026-03-22T10:14:28Z</time></trkpt><trkpt lat="48.49267080592681" lon="-4.062698551561718"><ele>109.0</ele><time>2026-03-22T10:14:29Z</time></trkpt><trkpt lat="48.492687763029295" lon="-4.062803942718865"><ele>109.0</ele><time>2026-03-22T10:14:31Z</time></trkpt><trkpt lat="48.49285221858879" lon="-4.062780207143769"><ele>109.0</ele><time>2026-03-22T10:14:32Z</time></trkpt><trkpt lat="48.49295070102411" lon="-4.062757122575979"><ele>109.0</ele><time>2026-03-22T10:14:33Z</time></trkpt><trkpt lat="48.49305769619014" lon="-4.062727066818627"><ele>109.0</ele><time>2026-03-22T10:14:34Z</time></trkpt><trkpt lat="48.49316807007486" lon="-4.0626894676543275"><ele>109.0</ele><time>2026-03-22T10:14:35Z</time></trkpt><trkpt lat="48.49328447077283" lon="-4.062644333385778"><ele>109.0</ele><time>2026-03-22T10:14:36Z</time></trkpt><trkpt lat="48.4933988391722" lon="-4.062575357345119"><ele>109.00000000000001</ele><time>2026-03-22T10:14:37Z</time></trkpt><trkpt lat="48.49349624055465" lon="-4.0625113923409115"><ele>109.0</ele><time>2026-03-22T10:14:38Z</time></trkpt><trkpt lat="48.49356068869219" lon="-4.062460786811767"><ele>109.0</ele><time>2026-03-22T10:14:39Z</time></trkpt><trkpt lat="48.493651650704095" lon="-4.062391481142707"><ele>109.0</ele><time>2026-03-22T10:14:41Z</time></trkpt><trkpt lat="48.49367492658577" lon="-4.062277612852263"><ele>109.00000000000001</ele><time>2026-03-22T10:14:52.999Z</time></trkpt><trkpt lat="48.49368859417254" lon="-4.062179131987"><ele>109.0</ele><time>2026-03-22T10:14:53.999Z</time></trkpt><trkpt lat="48.49369248228395" lon="-4.0620412562777455"><ele>109.00000000000001</ele><time>2026-03-22T10:14:54.999Z</time></trkpt><trkpt lat="48.49368424862339" lon="-4.061899218621377"><ele>109.0</ele><time>2026-03-22T10:14:55.999Z</time></trkpt><trkpt lat="48.49367918235402" lon="-4.0617620334701225"><ele>109.0</ele><time>2026-03-22T10:14:56.999Z</time></trkpt><trkpt lat="48.49367010188045" lon="-4.061638946911248"><ele>109.0</ele><time>2026-03-22T10:14:57.999Z</time></trkpt><trkpt lat="48.49366475687711" lon="-4.061541188549102"><ele>109.00000000000001</ele><time>2026-03-22T10:14:58.999Z</time></trkpt><trkpt lat="48.49375287456834" lon="-4.061483467129913"><ele>109.0</ele><time>2026-03-22T10:15:01.999Z</time></trkpt><trkpt lat="48.493849828897396" lon="-4.061527716402086"><ele>108.0</ele><time>2026-03-22T10:15:02.999Z</time></trkpt><trkpt lat="48.49398613219833" lon="-4.061578701090563"><ele>107.0</ele><time>2026-03-22T10:15:03.999Z</time></trkpt><trkpt lat="48.494094804006906" lon="-4.061609206511332"><ele>106.0</ele><time>2026-03-22T10:15:04.999Z</time></trkpt><trkpt lat="48.49418818329498" lon="-4.061632183723142"><ele>105.0</ele><time>2026-03-22T10:15:05.999Z</time></trkpt><trkpt lat="48.4942882022722" lon="-4.061653145641746"><ele>104.0</ele><time>2026-03-22T10:15:06.999Z</time></trkpt><trkpt lat="48.49440824369522" lon="-4.061690883371806"><ele>103.6</ele><time>2026-03-22T10:15:07.999Z</time></trkpt><trkpt lat="48.49450776852871" lon="-4.061718851391477"><ele>103.2</ele><time>2026-03-22T10:15:08.999Z</time></trkpt><trkpt lat="48.49460333062933" lon="-4.061750499374267"><ele>102.8</ele><time>2026-03-22T10:15:09.999Z</time></trkpt><trkpt lat="48.49470957128621" lon="-4.061782638787054"><ele>102.39999999999999</ele><time>2026-03-22T10:15:10.999Z</time></trkpt><trkpt lat="48.49480891039878" lon="-4.061803843946957"><ele>102.0</ele><time>2026-03-22T10:15:11.999Z</time></trkpt><trkpt lat="48.49490236231842" lon="-4.061807946556786"><ele>101.0</ele><time>2026-03-22T10:15:12.999Z</time></trkpt><trkpt lat="48.49500381007419" lon="-4.061795270920024"><ele>100.0</ele><time>2026-03-22T10:15:13.999Z</time></trkpt><trkpt lat="48.49511362714917" lon="-4.061755634354054"><ele>99.0</ele><time>2026-03-22T10:15:14.999Z</time></trkpt><trkpt lat="48.49521938908712" lon="-4.06172404691176"><ele>98.0</ele><time>2026-03-22T10:15:15.999Z</time></trkpt><trkpt lat="48.495315603151305" lon="-4.061715908297146"><ele>97.0</ele><time>2026-03-22T10:15:16.999Z</time></trkpt><trkpt lat="48.49541050312873" lon="-4.061725458100854"><ele>95.19999999999999</ele><time>2026-03-22T10:15:17.999Z</time></trkpt><trkpt lat="48.49551451774254" lon="-4.061737578931234"><ele>93.4</ele><time>2026-03-22T10:15:18.999Z</time></trkpt><trkpt lat="48.49560226935292" lon="-4.061738355141862"><ele>91.6</ele><time>2026-03-22T10:15:19.999Z</time></trkpt><trkpt lat="48.49569042494154" lon="-4.06176103522949"><ele>89.80000000000001</ele><time>2026-03-22T10:15:20.999Z</time></trkpt><trkpt lat="48.4957860330358" lon="-4.061789073635756"><ele>88.0</ele><time>2026-03-22T10:15:21.999Z</time></trkpt><trkpt lat="48.49586166426942" lon="-4.061821328179918"><ele>88.0</ele><time>2026-03-22T10:15:22.999Z</time></trkpt><trkpt lat="48.49594228673648" lon="-4.061868631191618"><ele>88.0</ele><time>2026-03-22T10:15:23.999Z</time></trkpt><trkpt lat="48.49601145970667" lon="-4.061897680107916"><ele>88.0</ele><time>2026-03-22T10:15:24.999Z</time></trkpt><trkpt lat="48.496089705580424" lon="-4.061932180957099"><ele>88.0</ele><time>2026-03-22T10:15:26.999Z</time></trkpt><trkpt lat="48.49608269408148" lon="-4.062086532631841"><ele>88.0</ele><time>2026-03-22T10:15:29.999Z</time></trkpt><trkpt lat="48.49606600300845" lon="-4.062229860469876"><ele>88.0</ele><time>2026-03-22T10:15:30.999Z</time></trkpt><trkpt lat="48.496051561202236" lon="-4.0624121547915575"><ele>87.75</ele><time>2026-03-22T10:15:31.999Z</time></trkpt><trkpt lat="48.49602559299572" lon="-4.06261242575301"><ele>87.5</ele><time>2026-03-22T10:15:32.999Z</time></trkpt><trkpt lat="48.49599559282329" lon="-4.062797219047107"><ele>87.25</ele><time>2026-03-22T10:15:33.999Z</time></trkpt><trkpt lat="48.49597104488256" lon="-4.062983828500011"><ele>87.0</ele><time>2026-03-22T10:15:34.999Z</time></trkpt><trkpt lat="48.49595048741801" lon="-4.063178479128328"><ele>86.8</ele><time>2026-03-22T10:15:35.999Z</time></trkpt><trkpt lat="48.49592209153884" lon="-4.063295920369151"><ele>86.6</ele><time>2026-03-22T10:15:36.999Z</time></trkpt><trkpt lat="48.49592538217046" lon="-4.063404419609753"><ele>86.39999999999999</ele><time>2026-03-22T10:15:37.999Z</time></trkpt><trkpt lat="48.49591556751916" lon="-4.063536255553888"><ele>86.19999999999999</ele><time>2026-03-22T10:15:38.999Z</time></trkpt><trkpt lat="48.49587539287408" lon="-4.06372108330162"><ele>86.0</ele><time>2026-03-22T10:15:39.999Z</time></trkpt><trkpt lat="48.49586472575552" lon="-4.063885597338842"><ele>86.0</ele><time>2026-03-22T10:15:40.999Z</time></trkpt><trkpt lat="48.49584525617567" lon="-4.06401894856524"><ele>86.0</ele><time>2026-03-22T10:15:41.999Z</time></trkpt><trkpt lat="48.49585455647533" lon="-4.064140393784199"><ele>86.0</ele><time>2026-03-22T10:15:42.999Z</time></trkpt><trkpt lat="48.49583606054853" lon="-4.064286130684768"><ele>86.0</ele><time>2026-03-22T10:15:44.999Z</time></trkpt><trkpt lat="48.495880864767734" lon="-4.064375640843206"><ele>86.0</ele><time>2026-03-22T10:15:46.999Z</time></trkpt><trkpt lat="48.49595007270698" lon="-4.06444252462336"><ele>86.0</ele><time>2026-03-22T10:15:47.999Z</time></trkpt><trkpt lat="48.49602287346527" lon="-4.0645110583084"><ele>85.66666666666667</ele><time>2026-03-22T10:15:49Z</time></trkpt><trkpt lat="48.49608840907396" lon="-4.064565307407242"><ele>85.33333333333334</ele><time>2026-03-22T10:15:50Z</time></trkpt><trkpt lat="48.496174376565094" lon="-4.064633045783397"><ele>85.0</ele><time>2026-03-22T10:15:52Z</time></trkpt><trkpt lat="48.49618629338714" lon="-4.06478860099681"><ele>84.66666666666667</ele><time>2026-03-22T10:15:54Z</time></trkpt><trkpt lat="48.496225647122124" lon="-4.064863860383968"><ele>84.33333333333333</ele><time>2026-03-22T10:15:56Z</time></trkpt><trkpt lat="48.49620827194288" lon="-4.065017045398679"><ele>84.0</ele><time>2026-03-22T10:15:58Z</time></trkpt><trkpt lat="48.49620403042412" lon="-4.065181334933887"><ele>83.66666666666667</ele><time>2026-03-22T10:16:00Z</time></trkpt><trkpt lat="48.49618638147666" lon="-4.065273013432435"><ele>83.33333333333333</ele><time>2026-03-22T10:16:02Z</time></trkpt><trkpt lat="48.49619413219603" lon="-4.065420006320971"><ele>83.0</ele><time>2026-03-22T10:16:04Z</time></trkpt><trkpt lat="48.496201508987546" lon="-4.065563313618585"><ele>82.66666666666666</ele><time>2026-03-22T10:16:06Z</time></trkpt><trkpt lat="48.49619560143672" lon="-4.065658738309253"><ele>82.33333333333333</ele><time>2026-03-22T10:16:07Z</time></trkpt><trkpt lat="48.496190415880584" lon="-4.065778610783834"><ele>82.0</ele><time>2026-03-22T10:16:08Z</time></trkpt><trkpt lat="48.49616967316923" lon="-4.065967996509202"><ele>81.39999999999999</ele><time>2026-03-22T10:16:10Z</time></trkpt><trkpt lat="48.49614455393954" lon="-4.06607689406429"><ele>80.8</ele><time>2026-03-22T10:16:11Z</time></trkpt><trkpt lat="48.49615576312851" lon="-4.066208870793715"><ele>80.2</ele><time>2026-03-22T10:16:13Z</time></trkpt><trkpt lat="48.49616221541371" lon="-4.066330119272316"><ele>79.6</ele><time>2026-03-22T10:16:15Z</time></trkpt><trkpt lat="48.49611509804789" lon="-4.06643672689881"><ele>79.0</ele><time>2026-03-22T10:16:17Z</time></trkpt><trkpt lat="48.49609875110635" lon="-4.066641381802705"><ele>78.4</ele><time>2026-03-22T10:16:19Z</time></trkpt><trkpt lat="48.49610959276431" lon="-4.066781344803354"><ele>77.80000000000001</ele><time>2026-03-22T10:16:20Z</time></trkpt><trkpt lat="48.49612615714068" lon="-4.066889615403227"><ele>77.19999999999999</ele><time>2026-03-22T10:16:21Z</time></trkpt><trkpt lat="48.49617995122165" lon="-4.067015976153313"><ele>76.6</ele><time>2026-03-22T10:16:23Z</time></trkpt><trkpt lat="48.496179063039534" lon="-4.0672004375153685"><ele>76.0</ele><time>2026-03-22T10:16:25Z</time></trkpt><trkpt lat="48.49615657044324" lon="-4.06730448401073"><ele>76.0</ele><time>2026-03-22T10:16:26Z</time></trkpt><trkpt lat="48.49618309126476" lon="-4.067430130027472"><ele>76.0</ele><time>2026-03-22T10:16:28Z</time></trkpt><trkpt lat="48.496241515093125" lon="-4.067479360093595"><ele>76.0</ele><time>2026-03-22T10:16:31Z</time></trkpt><trkpt lat="48.49633051401605" lon="-4.067432920141914"><ele>76.0</ele><time>2026-03-22T10:16:33Z</time></trkpt><trkpt lat="48.496391178389274" lon="-4.06738711971053"><ele>76.0</ele><time>2026-03-22T10:16:35Z</time></trkpt><trkpt lat="48.49647124262358" lon="-4.06740774020981"><ele>76.0</ele><time>2026-03-22T10:16:37Z</time></trkpt><trkpt lat="48.49646744867039" lon="-4.067542369243936"><ele>74.6</ele><time>2026-03-22T10:16:40Z</time></trkpt><trkpt lat="48.4964520388957" lon="-4.067657501346433"><ele>73.19999999999999</ele><time>2026-03-22T10:16:41Z</time></trkpt><trkpt lat="48.496452268580946" lon="-4.067804460506421"><ele>71.80000000000001</ele><time>2026-03-22T10:16:42Z</time></trkpt><trkpt lat="48.49645655896098" lon="-4.067976698332592"><ele>70.4</ele><time>2026-03-22T10:16:43Z</time></trkpt><trkpt lat="48.49643103972274" lon="-4.068151309437335"><ele>69.0</ele><time>2026-03-22T10:16:44Z</time></trkpt><trkpt lat="48.49643467450429" lon="-4.0683155590178846"><ele>69.0</ele><time>2026-03-22T10:16:45Z</time></trkpt><trkpt lat="48.49638975624836" lon="-4.068422977198766"><ele>69.0</ele><time>2026-03-22T10:16:46Z</time></trkpt><trkpt lat="48.49630340483115" lon="-4.068522655169968"><ele>69.0</ele><time>2026-03-22T10:16:47Z</time></trkpt><trkpt lat="48.49621772292923" lon="-4.068610666420291"><ele>69.0</ele><time>2026-03-22T10:16:48Z</time></trkpt><trkpt lat="48.49609275957984" lon="-4.068691754513784"><ele>69.0</ele><time>2026-03-22T10:16:49Z</time></trkpt><trkpt lat="48.495966589580696" lon="-4.0687452231295"><ele>70.75</ele><time>2026-03-22T10:16:50Z</time></trkpt><trkpt lat="48.49580901936638" lon="-4.068758763100124"><ele>72.5</ele><time>2026-03-22T10:16:51Z</time></trkpt><trkpt lat="48.495666325317984" lon="-4.06880494811123"><ele>74.25</ele><time>2026-03-22T10:16:52Z</time></trkpt><trkpt lat="48.49554837251157" lon="-4.068883702875968"><ele>76.0</ele><time>2026-03-22T10:16:53Z</time></trkpt><trkpt lat="48.49542443273698" lon="-4.068934883568724"><ele>77.25</ele><time>2026-03-22T10:16:53.999Z</time></trkpt><trkpt lat="48.495309963243166" lon="-4.06899706984076"><ele>78.5</ele><time>2026-03-22T10:16:54.999Z</time></trkpt><trkpt lat="48.4952002868928" lon="-4.0690317689721045"><ele>79.75</ele><time>2026-03-22T10:16:55.999Z</time></trkpt><trkpt lat="48.495082815891365" lon="-4.069046668780906"><ele>81.0</ele><time>2026-03-22T10:16:56.999Z</time></trkpt><trkpt lat="48.49495182149289" lon="-4.069021880674192"><ele>81.0</ele><time>2026-03-22T10:16:57.999Z</time></trkpt><trkpt lat="48.494826029417915" lon="-4.068975465200189"><ele>81.0</ele><time>2026-03-22T10:16:58.999Z</time></trkpt><trkpt lat="48.494707216014795" lon="-4.0689040953972135"><ele>81.0</ele><time>2026-03-22T10:16:59.999Z</time></trkpt><trkpt lat="48.494565038846105" lon="-4.068807016305889"><ele>81.0</ele><time>2026-03-22T10:17:00.999Z</time></trkpt><trkpt lat="48.494439818429036" lon="-4.068728456351611"><ele>81.25</ele><time>2026-03-22T10:17:01.999Z</time></trkpt><trkpt lat="48.494327843929106" lon="-4.068631356299156"><ele>81.5</ele><time>2026-03-22T10:17:02.999Z</time></trkpt><trkpt lat="48.49422886274613" lon="-4.0685094186689605"><ele>81.75</ele><time>2026-03-22T10:17:03.999Z</time></trkpt><trkpt lat="48.49413963814523" lon="-4.068421110494114"><ele>82.0</ele><time>2026-03-22T10:17:04.999Z</time></trkpt><trkpt lat="48.49404748551051" lon="-4.068355925389769"><ele>82.0</ele><time>2026-03-22T10:17:05.999Z</time></trkpt><trkpt lat="48.49395675651064" lon="-4.068347541828143"><ele>82.0</ele><time>2026-03-22T10:17:06.999Z</time></trkpt><trkpt lat="48.493872948531276" lon="-4.068347908094126"><ele>82.0</ele><time>2026-03-22T10:17:07.999Z</time></trkpt><trkpt lat="48.49379333074449" lon="-4.068380098583048"><ele>82.0</ele><time>2026-03-22T10:17:08.999Z</time></trkpt><trkpt lat="48.49372263104404" lon="-4.068407437937978"><ele>82.0</ele><time>2026-03-22T10:17:09.999Z</time></trkpt><trkpt lat="48.49364581978549" lon="-4.068519068915814"><ele>82.0</ele><time>2026-03-22T10:17:11.999Z</time></trkpt><trkpt lat="48.493656894808744" lon="-4.068728271539964"><ele>81.39999999999999</ele><time>2026-03-22T10:17:13.999Z</time></trkpt><trkpt lat="48.49369735040484" lon="-4.068839967092232"><ele>80.8</ele><time>2026-03-22T10:17:14.999Z</time></trkpt><trkpt lat="48.49373985307048" lon="-4.068964794353856"><ele>80.2</ele><time>2026-03-22T10:17:15.999Z</time></trkpt><trkpt lat="48.49375734653528" lon="-4.069113965781995"><ele>79.6</ele><time>2026-03-22T10:17:16.999Z</time></trkpt><trkpt lat="48.49376135946207" lon="-4.069285658498563"><ele>79.0</ele><time>2026-03-22T10:17:17.999Z</time></trkpt><trkpt lat="48.49376600787408" lon="-4.069477555324124"><ele>79.0</ele><time>2026-03-22T10:17:18.999Z</time></trkpt><trkpt lat="48.493779912109574" lon="-4.0696861123949635"><ele>79.0</ele><time>2026-03-22T10:17:19.999Z</time></trkpt><trkpt lat="48.49380112774225" lon="-4.069887760035984"><ele>79.0</ele><time>2026-03-22T10:17:20.999Z</time></trkpt><trkpt lat="48.49381961941946" lon="-4.070094811429606"><ele>79.0</ele><time>2026-03-22T10:17:21.999Z</time></trkpt><trkpt lat="48.49383483735935" lon="-4.070308994754006"><ele>78.25</ele><time>2026-03-22T10:17:22.999Z</time></trkpt><trkpt lat="48.49385858391268" lon="-4.070512624254628"><ele>77.5</ele><time>2026-03-22T10:17:23.999Z</time></trkpt><trkpt lat="48.49389167579492" lon="-4.070709344530091"><ele>76.75</ele><time>2026-03-22T10:17:24.999Z</time></trkpt><trkpt lat="48.49393746632799" lon="-4.070900954297161"><ele>76.0</ele><time>2026-03-22T10:17:25.999Z</time></trkpt><trkpt lat="48.49399916780218" lon="-4.0710740037549815"><ele>75.25</ele><time>2026-03-22T10:17:26.999Z</time></trkpt><trkpt lat="48.49410346508326" lon="-4.071210546661505"><ele>74.5</ele><time>2026-03-22T10:17:27.999Z</time></trkpt><trkpt lat="48.49419851737374" lon="-4.071347725464155"><ele>73.75</ele><time>2026-03-22T10:17:28.999Z</time></trkpt><trkpt lat="48.49432019490878" lon="-4.071436434495333"><ele>73.0</ele><time>2026-03-22T10:17:29.999Z</time></trkpt><trkpt lat="48.49440941442247" lon="-4.071539563308648"><ele>72.75</ele><time>2026-03-22T10:17:30.999Z</time></trkpt><trkpt lat="48.4945069788277" lon="-4.071644020369068"><ele>72.5</ele><time>2026-03-22T10:17:31.999Z</time></trkpt><trkpt lat="48.494606655370056" lon="-4.0717518998069275"><ele>72.25</ele><time>2026-03-22T10:17:32.999Z</time></trkpt><trkpt lat="48.494693382653146" lon="-4.071894915601336"><ele>72.0</ele><time>2026-03-22T10:17:33.999Z</time></trkpt><trkpt lat="48.494768861733576" lon="-4.072056994405085"><ele>72.0</ele><time>2026-03-22T10:17:34.999Z</time></trkpt><trkpt lat="48.494813564392786" lon="-4.072263841754863"><ele>72.0</ele><time>2026-03-22T10:17:35.999Z</time></trkpt><trkpt lat="48.49483946464528" lon="-4.072490261565933"><ele>72.0</ele><time>2026-03-22T10:17:36.999Z</time></trkpt><trkpt lat="48.494861425005176" lon="-4.072715210797721"><ele>72.0</ele><time>2026-03-22T10:17:37.999Z</time></trkpt><trkpt lat="48.494872892131916" lon="-4.07296496419167"><ele>70.5</ele><time>2026-03-22T10:17:38.999Z</time></trkpt><trkpt lat="48.49490265613589" lon="-4.0731673203926375"><ele>69.0</ele><time>2026-03-22T10:17:39.999Z</time></trkpt><trkpt lat="48.494933764660374" lon="-4.073378517279655"><ele>67.5</ele><time>2026-03-22T10:17:40.999Z</time></trkpt><trkpt lat="48.49496425309002" lon="-4.073582891678427"><ele>66.0</ele><time>2026-03-22T10:17:41.999Z</time></trkpt><trkpt lat="48.49500380577119" lon="-4.073767775524637"><ele>64.6</ele><time>2026-03-22T10:17:42.999Z</time></trkpt><trkpt lat="48.49504246116778" lon="-4.073930230553599"><ele>63.199999999999996</ele><time>2026-03-22T10:17:43.999Z</time></trkpt><trkpt lat="48.49507990164823" lon="-4.074078935086297"><ele>61.800000000000004</ele><time>2026-03-22T10:17:44.999Z</time></trkpt><trkpt lat="48.495111897552476" lon="-4.074204578532726"><ele>60.400000000000006</ele><time>2026-03-22T10:17:45.999Z</time></trkpt><trkpt lat="48.495137744331736" lon="-4.074310368412277"><ele>59.0</ele><time>2026-03-22T10:17:46.999Z</time></trkpt><trkpt lat="48.49518036723798" lon="-4.074428590247705"><ele>58.2</ele><time>2026-03-22T10:17:48.999Z</time></trkpt><trkpt lat="48.49521813051599" lon="-4.074549365091669"><ele>57.400000000000006</ele><time>2026-03-22T10:18:23Z</time></trkpt><trkpt lat="48.49524131704809" lon="-4.074663970257972"><ele>56.6</ele><time>2026-03-22T10:18:24Z</time></trkpt><trkpt lat="48.495282660397784" lon="-4.074789772520688"><ele>55.8</ele><time>2026-03-22T10:18:25Z</time></trkpt><trkpt lat="48.49530076555454" lon="-4.074952285036692"><ele>55.0</ele><time>2026-03-22T10:18:26Z</time></trkpt><trkpt lat="48.49531560642608" lon="-4.075099689216304"><ele>54.0</ele><time>2026-03-22T10:18:27Z</time></trkpt><trkpt lat="48.49532637790114" lon="-4.0752490758640025"><ele>53.0</ele><time>2026-03-22T10:18:28Z</time></trkpt><trkpt lat="48.495327062646346" lon="-4.0753958241707675"><ele>52.0</ele><time>2026-03-22T10:18:29Z</time></trkpt><trkpt lat="48.49534627716362" lon="-4.075523745684275"><ele>51.0</ele><time>2026-03-22T10:18:30Z</time></trkpt><trkpt lat="48.49536447071403" lon="-4.075625370700377"><ele>50.0</ele><time>2026-03-22T10:18:31Z</time></trkpt><trkpt lat="48.495424135159396" lon="-4.0757966861978465"><ele>49.0</ele><time>2026-03-22T10:18:33Z</time></trkpt><trkpt lat="48.49548165632431" lon="-4.075887069891686"><ele>48.0</ele><time>2026-03-22T10:18:34Z</time></trkpt><trkpt lat="48.49555894035818" lon="-4.075982965096664"><ele>47.0</ele><time>2026-03-22T10:18:35Z</time></trkpt><trkpt lat="48.49563900082059" lon="-4.076077217166703"><ele>46.0</ele><time>2026-03-22T10:18:36Z</time></trkpt><trkpt lat="48.495722014857286" lon="-4.076166410895159"><ele>45.0</ele><time>2026-03-22T10:18:37Z</time></trkpt><trkpt lat="48.49580609405618" lon="-4.0762560911689105"><ele>45.0</ele><time>2026-03-22T10:18:38Z</time></trkpt><trkpt lat="48.4959002346266" lon="-4.076338023504114"><ele>45.0</ele><time>2026-03-22T10:18:39Z</time></trkpt><trkpt lat="48.49600333269991" lon="-4.076432615048414"><ele>45.0</ele><time>2026-03-22T10:18:40Z</time></trkpt><trkpt lat="48.496102976576715" lon="-4.076539757808021"><ele>45.0</ele><time>2026-03-22T10:18:41Z</time></trkpt><trkpt lat="48.49618982954585" lon="-4.076650214942177"><ele>44.75</ele><time>2026-03-22T10:18:42Z</time></trkpt><trkpt lat="48.49625294781302" lon="-4.0767840111024"><ele>44.5</ele><time>2026-03-22T10:18:43Z</time></trkpt><trkpt lat="48.49628733609483" lon="-4.076936922000455"><ele>44.25</ele><time>2026-03-22T10:18:44Z</time></trkpt><trkpt lat="48.49629249435693" lon="-4.077109555701767"><ele>44.0</ele><time>2026-03-22T10:18:45Z</time></trkpt><trkpt lat="48.49626858007065" lon="-4.077314708640598"><ele>43.666666666666664</ele><time>2026-03-22T10:18:46Z</time></trkpt><trkpt lat="48.49623825383275" lon="-4.077540632517973"><ele>43.333333333333336</ele><time>2026-03-22T10:18:47Z</time></trkpt><trkpt lat="48.496207584892275" lon="-4.07779043038119"><ele>43.0</ele><time>2026-03-22T10:18:48Z</time></trkpt><trkpt lat="48.49618017070781" lon="-4.078036732688353"><ele>43.0</ele><time>2026-03-22T10:18:49Z</time></trkpt><trkpt lat="48.49614970222082" lon="-4.078246658665003"><ele>43.0</ele><time>2026-03-22T10:18:50Z</time></trkpt><trkpt lat="48.49612393074852" lon="-4.078443797458324"><ele>43.0</ele><time>2026-03-22T10:18:51Z</time></trkpt><trkpt lat="48.496099151780285" lon="-4.07862827817358"><ele>43.0</ele><time>2026-03-22T10:18:52Z</time></trkpt><trkpt lat="48.49607355322985" lon="-4.078819024309282"><ele>43.0</ele><time>2026-03-22T10:18:53Z</time></trkpt><trkpt lat="48.49603352862573" lon="-4.079010844256643"><ele>43.0</ele><time>2026-03-22T10:18:54Z</time></trkpt><trkpt lat="48.49598097405331" lon="-4.079185373493672"><ele>43.0</ele><time>2026-03-22T10:18:55Z</time></trkpt><trkpt lat="48.49591791292251" lon="-4.079339147583723"><ele>43.0</ele><time>2026-03-22T10:18:56Z</time></trkpt><trkpt lat="48.49584227926594" lon="-4.079462822413759"><ele>43.333333333333336</ele><time>2026-03-22T10:18:57Z</time></trkpt><trkpt lat="48.4957594678191" lon="-4.079563363473361"><ele>43.66666666666667</ele><time>2026-03-22T10:18:58Z</time></trkpt><trkpt lat="48.495686150169355" lon="-4.079639784259117"><ele>44.0</ele><time>2026-03-22T10:18:59Z</time></trkpt><trkpt lat="48.49562565559782" lon="-4.079695399359902"><ele>44.333333333333336</ele><time>2026-03-22T10:19:00Z</time></trkpt><trkpt lat="48.49554038399544" lon="-4.079753132100049"><ele>44.666666666666664</ele><time>2026-03-22T10:19:02Z</time></trkpt><trkpt lat="48.495483693966975" lon="-4.079838104047186"><ele>45.0</ele><time>2026-03-22T10:19:23.999Z</time></trkpt><trkpt lat="48.49531702561323" lon="-4.079851908077834"><ele>44.25</ele><time>2026-03-22T10:19:25.999Z</time></trkpt><trkpt lat="48.495230174004355" lon="-4.079928667268815"><ele>43.5</ele><time>2026-03-22T10:19:26.999Z</time></trkpt><trkpt lat="48.49511736472093" lon="-4.079976414565805"><ele>42.75</ele><time>2026-03-22T10:19:27.999Z</time></trkpt><trkpt lat="48.495000726095356" lon="-4.0800551457152325"><ele>42.0</ele><time>2026-03-22T10:19:28.999Z</time></trkpt><trkpt lat="48.49487164003856" lon="-4.080137574641921"><ele>42.0</ele><time>2026-03-22T10:19:29.999Z</time></trkpt><trkpt lat="48.49474549632101" lon="-4.080219582059102"><ele>42.0</ele><time>2026-03-22T10:19:30.999Z</time></trkpt><trkpt lat="48.49461552793443" lon="-4.080300943769238"><ele>42.0</ele><time>2026-03-22T10:19:31.999Z</time></trkpt><trkpt lat="48.49449260883636" lon="-4.080378082929096"><ele>42.0</ele><time>2026-03-22T10:19:32.999Z</time></trkpt><trkpt lat="48.49437688293247" lon="-4.080442613451655"><ele>42.166666666666664</ele><time>2026-03-22T10:19:33.999Z</time></trkpt><trkpt lat="48.49427343594797" lon="-4.0805064063833045"><ele>42.333333333333336</ele><time>2026-03-22T10:19:34.999Z</time></trkpt><trkpt lat="48.49417647132645" lon="-4.080497830723062"><ele>42.5</ele><time>2026-03-22T10:19:35.999Z</time></trkpt><trkpt lat="48.494091213617956" lon="-4.080494830353996"><ele>42.66666666666667</ele><time>2026-03-22T10:19:36.999Z</time></trkpt><trkpt lat="48.494015876959764" lon="-4.080500014651263"><ele>42.833333333333336</ele><time>2026-03-22T10:19:37.999Z</time></trkpt><trkpt lat="48.49394603374794" lon="-4.080520051215045"><ele>43.0</ele><time>2026-03-22T10:19:38.999Z</time></trkpt><trkpt lat="48.4938674689278" lon="-4.080454341013421"><ele>47.0</ele><time>2026-03-22T10:19:40.999Z</time></trkpt><trkpt lat="48.4935691440481" lon="-4.080284775864515"><ele>51.0</ele><time>2026-03-22T10:19:42.999Z</time></trkpt><trkpt lat="48.493654791993414" lon="-4.080789311551127"><ele>51.0</ele><time>2026-03-22T10:19:46.999Z</time></trkpt><trkpt lat="48.49359474729978" lon="-4.0802488026629655"><ele>51.0</ele><time>2026-03-22T10:19:50.999Z</time></trkpt><trkpt lat="48.49352906868135" lon="-4.080547158805484"><ele>51.0</ele><time>2026-03-22T10:20:04Z</time></trkpt><trkpt lat="48.493491837026184" lon="-4.080467115569583"><ele>51.0</ele><time>2026-03-22T10:20:05Z</time></trkpt><trkpt lat="48.49344692581758" lon="-4.080376307727711"><ele>51.0</ele><time>2026-03-22T10:20:06Z</time></trkpt><trkpt lat="48.4935043005781" lon="-4.080132027517269"><ele>51.0</ele><time>2026-03-22T10:20:08Z</time></trkpt><trkpt lat="48.49344250093085" lon="-4.080044783223985"><ele>51.0</ele><time>2026-03-22T10:20:10Z</time></trkpt><trkpt lat="48.49338961347407" lon="-4.079947668970388"><ele>51.0</ele><time>2026-03-22T10:20:13Z</time></trkpt><trkpt lat="48.49317274106408" lon="-4.080248507858625"><ele>51.0</ele><time>2026-03-22T10:20:14Z</time></trkpt><trkpt lat="48.493069581516444" lon="-4.080278289909264"><ele>51.0</ele><time>2026-03-22T10:20:15Z</time></trkpt><trkpt lat="48.49295415528303" lon="-4.080370568923214"><ele>54.5</ele><time>2026-03-22T10:20:16Z</time></trkpt><trkpt lat="48.49280948982625" lon="-4.08021381180568"><ele>58.0</ele><time>2026-03-22T10:20:17Z</time></trkpt><trkpt lat="48.492679405126374" lon="-4.080239985701087"><ele>61.5</ele><time>2026-03-22T10:20:18Z</time></trkpt><trkpt lat="48.49258339396924" lon="-4.080259304116072"><ele>65.0</ele><time>2026-03-22T10:20:19Z</time></trkpt><trkpt lat="48.49247954105125" lon="-4.080280200371761"><ele>65.0</ele><time>2026-03-22T10:20:20Z</time></trkpt><trkpt lat="48.49241200800429" lon="-4.080757064183258"><ele>65.0</ele><time>2026-03-22T10:20:21Z</time></trkpt><trkpt lat="48.49229472737701" lon="-4.080803267716109"><ele>65.0</ele><time>2026-03-22T10:20:22Z</time></trkpt><trkpt lat="48.492186116260825" lon="-4.080830957738818"><ele>68.25</ele><time>2026-03-22T10:20:23Z</time></trkpt><trkpt lat="48.492066874924156" lon="-4.080832380161093"><ele>71.5</ele><time>2026-03-22T10:20:24Z</time></trkpt><trkpt lat="48.49194058152862" lon="-4.080837846316914"><ele>74.75</ele><time>2026-03-22T10:20:25Z</time></trkpt><trkpt lat="48.49180772183001" lon="-4.0808548581343365"><ele>78.0</ele><time>2026-03-22T10:20:26Z</time></trkpt><trkpt lat="48.491663307269455" lon="-4.080917561520349"><ele>78.0</ele><time>2026-03-22T10:20:27Z</time></trkpt><trkpt lat="48.491526595594635" lon="-4.080991770054732"><ele>78.0</ele><time>2026-03-22T10:20:28Z</time></trkpt><trkpt lat="48.49137591100456" lon="-4.081069253673673"><ele>78.0</ele><time>2026-03-22T10:20:29Z</time></trkpt><trkpt lat="48.49126348931256" lon="-4.081186566031647"><ele>78.0</ele><time>2026-03-22T10:20:30Z</time></trkpt><trkpt lat="48.49118195854928" lon="-4.081308492861511"><ele>77.8</ele><time>2026-03-22T10:20:31Z</time></trkpt><trkpt lat="48.491111165557164" lon="-4.081417453622937"><ele>77.6</ele><time>2026-03-22T10:20:32Z</time></trkpt><trkpt lat="48.491057386932916" lon="-4.081496812712209"><ele>77.4</ele><time>2026-03-22T10:20:33Z</time></trkpt><trkpt lat="48.49097060046606" lon="-4.081591663775697"><ele>77.2</ele><time>2026-03-22T10:20:34Z</time></trkpt><trkpt lat="48.490841120532764" lon="-4.081666180872843"><ele>77.0</ele><time>2026-03-22T10:20:35Z</time></trkpt><trkpt lat="48.49072922542701" lon="-4.081754930335973"><ele>77.8</ele><time>2026-03-22T10:20:36Z</time></trkpt><trkpt lat="48.49063648495047" lon="-4.0818594106149435"><ele>78.6</ele><time>2026-03-22T10:20:37Z</time></trkpt><trkpt lat="48.490554461913135" lon="-4.081938263423114"><ele>79.39999999999999</ele><time>2026-03-22T10:20:38Z</time></trkpt><trkpt lat="48.49047186844101" lon="-4.082022813254856"><ele>80.2</ele><time>2026-03-22T10:20:39Z</time></trkpt><trkpt lat="48.49038177215172" lon="-4.082091283047064"><ele>81.0</ele><time>2026-03-22T10:20:40Z</time></trkpt><trkpt lat="48.4902892368501" lon="-4.0821405909621395"><ele>81.0</ele><time>2026-03-22T10:20:41Z</time></trkpt><trkpt lat="48.49018403659569" lon="-4.082167840418876"><ele>81.0</ele><time>2026-03-22T10:20:42Z</time></trkpt><trkpt lat="48.490076380557795" lon="-4.082183402571005"><ele>81.0</ele><time>2026-03-22T10:20:43Z</time></trkpt><trkpt lat="48.48997638457397" lon="-4.082178943097895"><ele>81.0</ele><time>2026-03-22T10:20:44Z</time></trkpt><trkpt lat="48.48987908341823" lon="-4.082145342122523"><ele>81.0</ele><time>2026-03-22T10:20:45Z</time></trkpt><trkpt lat="48.489782191122885" lon="-4.082090104251391"><ele>81.0</ele><time>2026-03-22T10:20:46Z</time></trkpt><trkpt lat="48.48966120626942" lon="-4.082032087234108"><ele>81.0</ele><time>2026-03-22T10:20:47Z</time></trkpt><trkpt lat="48.489528848674944" lon="-4.0819930279523025"><ele>81.0</ele><time>2026-03-22T10:20:48Z</time></trkpt><trkpt lat="48.48937286495993" lon="-4.081976373592953"><ele>81.0</ele><time>2026-03-22T10:20:49Z</time></trkpt><trkpt lat="48.489193541505045" lon="-4.081957981156757"><ele>83.5</ele><time>2026-03-22T10:20:50Z</time></trkpt><trkpt lat="48.48905447941537" lon="-4.081941914960117"><ele>86.0</ele><time>2026-03-22T10:20:51Z</time></trkpt><trkpt lat="48.48893212495999" lon="-4.081924854711038"><ele>88.5</ele><time>2026-03-22T10:20:52Z</time></trkpt><trkpt lat="48.48882939230313" lon="-4.081935807803888"><ele>91.0</ele><time>2026-03-22T10:20:53Z</time></trkpt><trkpt lat="48.48872874695005" lon="-4.081990189176137"><ele>93.25</ele><time>2026-03-22T10:20:54Z</time></trkpt><trkpt lat="48.488608447659075" lon="-4.082086022132399"><ele>95.5</ele><time>2026-03-22T10:20:55Z</time></trkpt><trkpt lat="48.48849906545375" lon="-4.0821630465659355"><ele>97.75</ele><time>2026-03-22T10:20:56Z</time></trkpt><trkpt lat="48.488389140565104" lon="-4.082210929216551"><ele>100.0</ele><time>2026-03-22T10:20:57Z</time></trkpt><trkpt lat="48.488295260779495" lon="-4.0822832473571955"><ele>100.00000000000001</ele><time>2026-03-22T10:20:58Z</time></trkpt><trkpt lat="48.488198310942956" lon="-4.082379820496928"><ele>100.0</ele><time>2026-03-22T10:21:00Z</time></trkpt><trkpt lat="48.488134545547716" lon="-4.082341900124416"><ele>100.0</ele><time>2026-03-22T10:21:02Z</time></trkpt><trkpt lat="48.488126959662765" lon="-4.082147110428397"><ele>100.0</ele><time>2026-03-22T10:21:04Z</time></trkpt><trkpt lat="48.48814595028985" lon="-4.082056463942796"><ele>100.00000000000001</ele><time>2026-03-22T10:21:05Z</time></trkpt><trkpt lat="48.488153367719114" lon="-4.08195349371172"><ele>100.0</ele><time>2026-03-22T10:21:06Z</time></trkpt><trkpt lat="48.4881529788849" lon="-4.081825706151578"><ele>100.0</ele><time>2026-03-22T10:21:08Z</time></trkpt><trkpt lat="48.48816433601198" lon="-4.081678031451034"><ele>100.0</ele><time>2026-03-22T10:21:09Z</time></trkpt><trkpt lat="48.48819190079065" lon="-4.081572341170659"><ele>100.0</ele><time>2026-03-22T10:21:10Z</time></trkpt><trkpt lat="48.488197993516835" lon="-4.081440142797357"><ele>100.0</ele><time>2026-03-22T10:21:11Z</time></trkpt><trkpt lat="48.48819857646995" lon="-4.081280019231807"><ele>100.0</ele><time>2026-03-22T10:21:12Z</time></trkpt><trkpt lat="48.48820316130545" lon="-4.08110240828972"><ele>99.6</ele><time>2026-03-22T10:21:13Z</time></trkpt><trkpt lat="48.48820883071741" lon="-4.080962244910786"><ele>99.2</ele><time>2026-03-22T10:21:14Z</time></trkpt><trkpt lat="48.488201252386204" lon="-4.080835136156207"><ele>98.80000000000001</ele><time>2026-03-22T10:21:15Z</time></trkpt><trkpt lat="48.4881998517711" lon="-4.080729375595462"><ele>98.4</ele><time>2026-03-22T10:21:15.999Z</time></trkpt><trkpt lat="48.4882353189572" lon="-4.080566905710085"><ele>98.0</ele><time>2026-03-22T10:21:16.999Z</time></trkpt><trkpt lat="48.488266170688725" lon="-4.080418228631899"><ele>97.60000000000001</ele><time>2026-03-22T10:21:17.999Z</time></trkpt><trkpt lat="48.48829006654825" lon="-4.0803250457777"><ele>97.2</ele><time>2026-03-22T10:21:18.999Z</time></trkpt><trkpt lat="48.488267926838255" lon="-4.080211883811223"><ele>96.8</ele><time>2026-03-22T10:21:20.999Z</time></trkpt><trkpt lat="48.488132957498856" lon="-4.080114577951653"><ele>96.4</ele><time>2026-03-22T10:21:22.999Z</time></trkpt><trkpt lat="48.4880896949707" lon="-4.080044192317598"><ele>96.0</ele><time>2026-03-22T10:21:23.999Z</time></trkpt><trkpt lat="48.48808550734414" lon="-4.079877572488274"><ele>95.4</ele><time>2026-03-22T10:21:25.999Z</time></trkpt><trkpt lat="48.4881097950235" lon="-4.0797641542883625"><ele>94.8</ele><time>2026-03-22T10:21:26.999Z</time></trkpt><trkpt lat="48.48809088293169" lon="-4.079618095520126"><ele>94.2</ele><time>2026-03-22T10:21:28.999Z</time></trkpt><trkpt lat="48.48803854946119" lon="-4.0795330900159135"><ele>93.60000000000001</ele><time>2026-03-22T10:21:30.999Z</time></trkpt><trkpt lat="48.487935894595644" lon="-4.07945387412507"><ele>93.0</ele><time>2026-03-22T10:21:32.999Z</time></trkpt><trkpt lat="48.48779437011259" lon="-4.079329943756554"><ele>94.4</ele><time>2026-03-22T10:21:34.999Z</time></trkpt><trkpt lat="48.48773674142092" lon="-4.079273820303865"><ele>95.80000000000001</ele><time>2026-03-22T10:21:35.999Z</time></trkpt><trkpt lat="48.48766597034344" lon="-4.07918067101781"><ele>97.2</ele><time>2026-03-22T10:21:36.999Z</time></trkpt><trkpt lat="48.487571105178674" lon="-4.0790571004033325"><ele>98.6</ele><time>2026-03-22T10:21:38.999Z</time></trkpt><trkpt lat="48.487484797731526" lon="-4.078971418295782"><ele>100.0</ele><time>2026-03-22T10:21:40.999Z</time></trkpt><trkpt lat="48.48741388494162" lon="-4.078899377694639"><ele>100.00000000000001</ele><time>2026-03-22T10:21:41.999Z</time></trkpt><trkpt lat="48.487349652156595" lon="-4.078843323066172"><ele>100.0</ele><time>2026-03-22T10:21:42.999Z</time></trkpt><trkpt lat="48.48728152599192" lon="-4.0787645854716095"><ele>100.0</ele><time>2026-03-22T10:21:43.999Z</time></trkpt><trkpt lat="48.487213710172" lon="-4.078694448633579"><ele>100.0</ele><time>2026-03-22T10:21:44.999Z</time></trkpt><trkpt lat="48.487146357163546" lon="-4.078640624835838"><ele>100.00000000000001</ele><time>2026-03-22T10:21:45.999Z</time></trkpt><trkpt lat="48.487065119115414" lon="-4.078562660497443"><ele>100.0</ele><time>2026-03-22T10:21:46.999Z</time></trkpt><trkpt lat="48.48699640234381" lon="-4.078479048443764"><ele>99.50000000000001</ele><time>2026-03-22T10:21:47.999Z</time></trkpt><trkpt lat="48.48692757782992" lon="-4.0783922268289166"><ele>99.0</ele><time>2026-03-22T10:21:48.999Z</time></trkpt><trkpt lat="48.48684066474318" lon="-4.078289163472291"><ele>98.5</ele><time>2026-03-22T10:21:49.999Z</time></trkpt><trkpt lat="48.48677755457345" lon="-4.078224776070164"><ele>98.0</ele><time>2026-03-22T10:21:50.999Z</time></trkpt><trkpt lat="48.48671220048724" lon="-4.078232367708566"><ele>97.50000000000001</ele><time>2026-03-22T10:21:51.999Z</time></trkpt><trkpt lat="48.48664168377402" lon="-4.078224644618836"><ele>97.0</ele><time>2026-03-22T10:21:52.999Z</time></trkpt><trkpt lat="48.486556655122676" lon="-4.0782862705418585"><ele>100.16666666666667</ele><time>2026-03-22T10:21:54.999Z</time></trkpt><trkpt lat="48.486508970766124" lon="-4.078361906262876"><ele>103.33333333333334</ele><time>2026-03-22T10:21:55.999Z</time></trkpt><trkpt lat="48.486465668041525" lon="-4.078434412504477"><ele>106.5</ele><time>2026-03-22T10:21:56.999Z</time></trkpt><trkpt lat="48.48647507689756" lon="-4.07855203372976"><ele>109.66666666666666</ele><time>2026-03-22T10:21:58.999Z</time></trkpt><trkpt lat="48.48647847011018" lon="-4.0787415699676"><ele>112.83333333333333</ele><time>2026-03-22T10:22:00.999Z</time></trkpt><trkpt lat="48.486491691350324" lon="-4.078859967039133"><ele>116.0</ele><time>2026-03-22T10:22:01.999Z</time></trkpt><trkpt lat="48.486536002015626" lon="-4.078944496089497"><ele>115.99999999999999</ele><time>2026-03-22T10:22:02.999Z</time></trkpt><trkpt lat="48.48658878454259" lon="-4.0790209139888285"><ele>116.0</ele><time>2026-03-22T10:22:03.999Z</time></trkpt><trkpt lat="48.48663308690289" lon="-4.079089650291135"><ele>116.0</ele><time>2026-03-22T10:22:04.999Z</time></trkpt><trkpt lat="48.486672397221504" lon="-4.0793035152366235"><ele>116.0</ele><time>2026-03-22T10:22:07Z</time></trkpt><trkpt lat="48.4866801034921" lon="-4.079420169448201"><ele>115.99999999999999</ele><time>2026-03-22T10:22:08Z</time></trkpt><trkpt lat="48.48669132758069" lon="-4.079518481614846"><ele>116.0</ele><time>2026-03-22T10:22:09Z</time></trkpt><trkpt lat="48.48665323866573" lon="-4.079629673886691"><ele>116.6</ele><time>2026-03-22T10:22:10Z</time></trkpt><trkpt lat="48.48664541172417" lon="-4.079752681738386"><ele>117.19999999999999</ele><time>2026-03-22T10:22:11Z</time></trkpt><trkpt lat="48.48665737965778" lon="-4.079887683753898"><ele>117.80000000000001</ele><time>2026-03-22T10:22:12Z</time></trkpt><trkpt lat="48.48666795049422" lon="-4.080024607375591"><ele>118.4</ele><time>2026-03-22T10:22:13Z</time></trkpt><trkpt lat="48.48665583999001" lon="-4.080202963411243"><ele>119.0</ele><time>2026-03-22T10:22:14Z</time></trkpt><trkpt lat="48.48664614596335" lon="-4.08038128414869"><ele>119.0</ele><time>2026-03-22T10:22:15Z</time></trkpt><trkpt lat="48.486638685293336" lon="-4.080581333490707"><ele>119.0</ele><time>2026-03-22T10:22:16Z</time></trkpt><trkpt lat="48.48663860543436" lon="-4.0807847379571855"><ele>119.0</ele><time>2026-03-22T10:22:17Z</time></trkpt><trkpt lat="48.48664438924831" lon="-4.080968925578785"><ele>119.0</ele><time>2026-03-22T10:22:18Z</time></trkpt><trkpt lat="48.48664976148196" lon="-4.08113379330069"><ele>118.83333333333333</ele><time>2026-03-22T10:22:19Z</time></trkpt><trkpt lat="48.48663186126573" lon="-4.081266091986368"><ele>118.66666666666666</ele><time>2026-03-22T10:22:20Z</time></trkpt><trkpt lat="48.48660566797849" lon="-4.081367108207973"><ele>118.5</ele><time>2026-03-22T10:22:21Z</time></trkpt><trkpt lat="48.486573993419725" lon="-4.081483931066531"><ele>118.33333333333334</ele><time>2026-03-22T10:22:22Z</time></trkpt><trkpt lat="48.48656637224365" lon="-4.08159535722641"><ele>118.16666666666667</ele><time>2026-03-22T10:22:23Z</time></trkpt><trkpt lat="48.48650152333274" lon="-4.081684967230511"><ele>118.0</ele><time>2026-03-22T10:22:24Z</time></trkpt><trkpt lat="48.486442740868995" lon="-4.081779441564943"><ele>117.80000000000001</ele><time>2026-03-22T10:22:25Z</time></trkpt><trkpt lat="48.48633825243669" lon="-4.08180268864623"><ele>117.60000000000001</ele><time>2026-03-22T10:22:27Z</time></trkpt><trkpt lat="48.48626635653572" lon="-4.081753652676175"><ele>117.39999999999999</ele><time>2026-03-22T10:22:28Z</time></trkpt><trkpt lat="48.486185167600226" lon="-4.081740743443268"><ele>117.19999999999999</ele><time>2026-03-22T10:22:29Z</time></trkpt><trkpt lat="48.486058371472126" lon="-4.081669005471573"><ele>117.0</ele><time>2026-03-22T10:22:31Z</time></trkpt><trkpt lat="48.48599522656417" lon="-4.081618243202561"><ele>117.8</ele><time>2026-03-22T10:22:32Z</time></trkpt><trkpt lat="48.48590407079567" lon="-4.081627308560558"><ele>118.6</ele><time>2026-03-22T10:22:33Z</time></trkpt><trkpt lat="48.48579599253654" lon="-4.08167327268412"><ele>119.39999999999999</ele><time>2026-03-22T10:22:34Z</time></trkpt><trkpt lat="48.4857257457299" lon="-4.081749196027101"><ele>120.19999999999999</ele><time>2026-03-22T10:22:35Z</time></trkpt><trkpt lat="48.48564692443359" lon="-4.081790142564058"><ele>121.0</ele><time>2026-03-22T10:22:36Z</time></trkpt><trkpt lat="48.48553932728451" lon="-4.081784171598149"><ele>120.6</ele><time>2026-03-22T10:22:37Z</time></trkpt><trkpt lat="48.48541726462678" lon="-4.081787773327644"><ele>120.19999999999999</ele><time>2026-03-22T10:22:38Z</time></trkpt><trkpt lat="48.48531118628205" lon="-4.081798341772873"><ele>119.80000000000001</ele><time>2026-03-22T10:22:39Z</time></trkpt><trkpt lat="48.485193582217235" lon="-4.081809150481562"><ele>119.4</ele><time>2026-03-22T10:22:40Z</time></trkpt><trkpt lat="48.48510363841835" lon="-4.081825568736633"><ele>119.0</ele><time>2026-03-22T10:22:41Z</time></trkpt><trkpt lat="48.48502506383907" lon="-4.081840746047359"><ele>119.0</ele><time>2026-03-22T10:22:42Z</time></trkpt><trkpt lat="48.48495698658897" lon="-4.081849338712743"><ele>119.0</ele><time>2026-03-22T10:22:43Z</time></trkpt><trkpt lat="48.48489738126563" lon="-4.081897140737162"><ele>119.0</ele><time>2026-03-22T10:23:07Z</time></trkpt><trkpt lat="48.48489875227484" lon="-4.0819976199703545"><ele>119.0</ele><time>2026-03-22T10:23:09Z</time></trkpt><trkpt lat="48.484905287925166" lon="-4.082125909573897"><ele>119.0</ele><time>2026-03-22T10:23:11Z</time></trkpt><trkpt lat="48.48491013405438" lon="-4.0822692747410825"><ele>119.0</ele><time>2026-03-22T10:23:14Z</time></trkpt><trkpt lat="48.48491203442685" lon="-4.082365549610054"><ele>119.0</ele><time>2026-03-22T10:23:15Z</time></trkpt><trkpt lat="48.48492013840265" lon="-4.082479883235972"><ele>118.99999999999999</ele><time>2026-03-22T10:23:16Z</time></trkpt><trkpt lat="48.48493422642005" lon="-4.08260539320709"><ele>119.0</ele><time>2026-03-22T10:23:17Z</time></trkpt><trkpt lat="48.484955950890004" lon="-4.082731528359275"><ele>119.0</ele><time>2026-03-22T10:23:18Z</time></trkpt><trkpt lat="48.484974990199575" lon="-4.082851044013823"><ele>119.0</ele><time>2026-03-22T10:23:19Z</time></trkpt><trkpt lat="48.48499433269883" lon="-4.082958961444297"><ele>118.99999999999999</ele><time>2026-03-22T10:23:20Z</time></trkpt><trkpt lat="48.485024724399366" lon="-4.083048394855808"><ele>119.0</ele><time>2026-03-22T10:23:21Z</time></trkpt><trkpt lat="48.485084700634495" lon="-4.083197176428325"><ele>118.80000000000001</ele><time>2026-03-22T10:23:23Z</time></trkpt><trkpt lat="48.48511003394505" lon="-4.083314480932061"><ele>118.60000000000001</ele><time>2026-03-22T10:23:24Z</time></trkpt><trkpt lat="48.48514154862984" lon="-4.083457796537773"><ele>118.4</ele><time>2026-03-22T10:23:25Z</time></trkpt><trkpt lat="48.4851882128234" lon="-4.083610509802482"><ele>118.2</ele><time>2026-03-22T10:23:26Z</time></trkpt><trkpt lat="48.48524358960585" lon="-4.0837816204661515"><ele>118.0</ele><time>2026-03-22T10:23:27Z</time></trkpt><trkpt lat="48.48529618730021" lon="-4.083951858408907"><ele>118.5</ele><time>2026-03-22T10:23:28Z</time></trkpt><trkpt lat="48.48534567091527" lon="-4.084120819140339"><ele>119.0</ele><time>2026-03-22T10:23:29Z</time></trkpt><trkpt lat="48.485381752485836" lon="-4.084298775598668"><ele>119.5</ele><time>2026-03-22T10:23:30Z</time></trkpt><trkpt lat="48.48539435704466" lon="-4.0844748076901425"><ele>120.0</ele><time>2026-03-22T10:23:30.999Z</time></trkpt><trkpt lat="48.48540587283013" lon="-4.084640653815278"><ele>120.0</ele><time>2026-03-22T10:23:31.999Z</time></trkpt><trkpt lat="48.485418318112025" lon="-4.084790283112108"><ele>120.0</ele><time>2026-03-22T10:23:32.999Z</time></trkpt><trkpt lat="48.485416651880605" lon="-4.084907332048987"><ele>120.0</ele><time>2026-03-22T10:23:33.999Z</time></trkpt><trkpt lat="48.485512853584304" lon="-4.08500550920831"><ele>120.0</ele><time>2026-03-22T10:23:35.999Z</time></trkpt><trkpt lat="48.48559741971052" lon="-4.084996751186295"><ele>120.0</ele><time>2026-03-22T10:23:36.999Z</time></trkpt><trkpt lat="48.48570000361763" lon="-4.084908175477553"><ele>120.75</ele><time>2026-03-22T10:23:37.999Z</time></trkpt><trkpt lat="48.485809154805935" lon="-4.08487001291392"><ele>121.5</ele><time>2026-03-22T10:23:38.999Z</time></trkpt><trkpt lat="48.48592721510901" lon="-4.084829044789898"><ele>122.25</ele><time>2026-03-22T10:23:39.999Z</time></trkpt><trkpt lat="48.48605496328039" lon="-4.084784715277171"><ele>123.0</ele><time>2026-03-22T10:23:40.999Z</time></trkpt><trkpt lat="48.48617536576603" lon="-4.084765248789275"><ele>123.0</ele><time>2026-03-22T10:23:41.999Z</time></trkpt><trkpt lat="48.4862724077098" lon="-4.084707372935426"><ele>123.00000000000001</ele><time>2026-03-22T10:23:42.999Z</time></trkpt><trkpt lat="48.48637365479956" lon="-4.08467068852767"><ele>123.00000000000001</ele><time>2026-03-22T10:23:43.999Z</time></trkpt><trkpt lat="48.48646079105876" lon="-4.084638664469432"><ele>123.0</ele><time>2026-03-22T10:23:44.999Z</time></trkpt><trkpt lat="48.486537901211335" lon="-4.084604766864689"><ele>123.0</ele><time>2026-03-22T10:23:45.999Z</time></trkpt><trkpt lat="48.48660973708684" lon="-4.08457947400919"><ele>123.0</ele><time>2026-03-22T10:23:46.999Z</time></trkpt><trkpt lat="48.486679154431066" lon="-4.084593825430883"><ele>123.0</ele><time>2026-03-22T10:23:47.999Z</time></trkpt><trkpt lat="48.48674365879005" lon="-4.0845757413105215"><ele>123.0</ele><time>2026-03-22T10:23:48.999Z</time></trkpt><trkpt lat="48.48682526233308" lon="-4.084631415623973"><ele>123.0</ele><time>2026-03-22T10:23:49.999Z</time></trkpt><trkpt lat="48.486914503373754" lon="-4.084661277376874"><ele>123.0</ele><time>2026-03-22T10:23:50.999Z</time></trkpt><trkpt lat="48.48699356800944" lon="-4.084662127436394"><ele>123.0</ele><time>2026-03-22T10:23:51.999Z</time></trkpt><trkpt lat="48.487063884938514" lon="-4.084685503179675"><ele>122.0</ele><time>2026-03-22T10:23:52.999Z</time></trkpt><trkpt lat="48.48719271367543" lon="-4.084700240492754"><ele>121.0</ele><time>2026-03-22T10:23:54.999Z</time></trkpt><trkpt lat="48.48727799869223" lon="-4.084687666136288"><ele>120.0</ele><time>2026-03-22T10:23:55.999Z</time></trkpt><trkpt lat="48.487348961698" lon="-4.084688119903685"><ele>119.0</ele><time>2026-03-22T10:23:56.999Z</time></trkpt><trkpt lat="48.48741235938379" lon="-4.084692884661252"><ele>118.0</ele><time>2026-03-22T10:23:57.999Z</time></trkpt><trkpt lat="48.487491218770344" lon="-4.08469456623812"><ele>117.0</ele><time>2026-03-22T10:23:59.999Z</time></trkpt><trkpt lat="48.48755308241112" lon="-4.084791326222814"><ele>117.0</ele><time>2026-03-22T10:24:01.999Z</time></trkpt><trkpt lat="48.4876304456542" lon="-4.084926770208972"><ele>117.0</ele><time>2026-03-22T10:24:02.999Z</time></trkpt><trkpt lat="48.48770181508237" lon="-4.085067600995072"><ele>117.0</ele><time>2026-03-22T10:24:03.999Z</time></trkpt><trkpt lat="48.4877806883119" lon="-4.085253028847971"><ele>117.0</ele><time>2026-03-22T10:24:04.999Z</time></trkpt><trkpt lat="48.487849137080865" lon="-4.085432332175816"><ele>117.0</ele><time>2026-03-22T10:24:05.999Z</time></trkpt><trkpt lat="48.4879409060163" lon="-4.085607992560407"><ele>117.0</ele><time>2026-03-22T10:24:06.999Z</time></trkpt><trkpt lat="48.48803729919434" lon="-4.085744053776618"><ele>117.0</ele><time>2026-03-22T10:24:07.999Z</time></trkpt><trkpt lat="48.48810698432782" lon="-4.085881742024002"><ele>117.0</ele><time>2026-03-22T10:24:08.999Z</time></trkpt><trkpt lat="48.488138521299895" lon="-4.085999219338102"><ele>117.0</ele><time>2026-03-22T10:24:09.999Z</time></trkpt><trkpt lat="48.48824075149714" lon="-4.086068643427192"><ele>117.0</ele><time>2026-03-22T10:24:11.999Z</time></trkpt><trkpt lat="48.48829513156345" lon="-4.086135455824027"><ele>117.0</ele><time>2026-03-22T10:24:13Z</time></trkpt><trkpt lat="48.48838300012636" lon="-4.0862785263269075"><ele>117.0</ele><time>2026-03-22T10:24:14Z</time></trkpt><trkpt lat="48.488492912686674" lon="-4.086429186371573"><ele>117.0</ele><time>2026-03-22T10:24:15Z</time></trkpt><trkpt lat="48.488607044119824" lon="-4.0865352621998365"><ele>116.99999999999999</ele><time>2026-03-22T10:24:16Z</time></trkpt><trkpt lat="48.48869681359609" lon="-4.086628650091738"><ele>116.99999999999999</ele><time>2026-03-22T10:24:17Z</time></trkpt><trkpt lat="48.48877315271547" lon="-4.086721024203545"><ele>117.0</ele><time>2026-03-22T10:24:18Z</time></trkpt><trkpt lat="48.48884659975593" lon="-4.086820097650557"><ele>117.0</ele><time>2026-03-22T10:24:19Z</time></trkpt><trkpt lat="48.48893364096413" lon="-4.086868953881036"><ele>116.19999999999999</ele><time>2026-03-22T10:24:20Z</time></trkpt><trkpt lat="48.48902049644563" lon="-4.086896405329896"><ele>115.39999999999999</ele><time>2026-03-22T10:24:21Z</time></trkpt><trkpt lat="48.48908033653011" lon="-4.086968507460371"><ele>114.60000000000001</ele><time>2026-03-22T10:24:22Z</time></trkpt><trkpt lat="48.48915524998502" lon="-4.087070387927297"><ele>113.80000000000001</ele><time>2026-03-22T10:24:23Z</time></trkpt><trkpt lat="48.48926039336785" lon="-4.0871653851919"><ele>113.0</ele><time>2026-03-22T10:24:24Z</time></trkpt><trkpt lat="48.489347234360054" lon="-4.08725562477105"><ele>113.0</ele><time>2026-03-22T10:24:25Z</time></trkpt><trkpt lat="48.48943662615163" lon="-4.087305865567742"><ele>113.00000000000001</ele><time>2026-03-22T10:24:26Z</time></trkpt><trkpt lat="48.48951383260531" lon="-4.0873478366533735"><ele>113.00000000000001</ele><time>2026-03-22T10:24:27Z</time></trkpt><trkpt lat="48.489593180792646" lon="-4.0874627161869395"><ele>113.0</ele><time>2026-03-22T10:24:28Z</time></trkpt><trkpt lat="48.4896934815783" lon="-4.087544976417754"><ele>113.0</ele><time>2026-03-22T10:24:29Z</time></trkpt><trkpt lat="48.48978109768164" lon="-4.08761958982714"><ele>112.60000000000001</ele><time>2026-03-22T10:24:30Z</time></trkpt><trkpt lat="48.489861707033896" lon="-4.087693215911869"><ele>112.20000000000002</ele><time>2026-03-22T10:24:31Z</time></trkpt><trkpt lat="48.489952456529615" lon="-4.087749331079782"><ele>111.8</ele><time>2026-03-22T10:24:32Z</time></trkpt><trkpt lat="48.49005356223288" lon="-4.087820099738561"><ele>111.4</ele><time>2026-03-22T10:24:33Z</time></trkpt><trkpt lat="48.490147863764555" lon="-4.087908688494102"><ele>111.0</ele><time>2026-03-22T10:24:34Z</time></trkpt><trkpt lat="48.49020820405605" lon="-4.08802158457172"><ele>111.0</ele><time>2026-03-22T10:24:35Z</time></trkpt><trkpt lat="48.49026562465087" lon="-4.088063042199884"><ele>111.0</ele><time>2026-03-22T10:24:36Z</time></trkpt><trkpt lat="48.490347980517036" lon="-4.088062463423905"><ele>111.0</ele><time>2026-03-22T10:24:37Z</time></trkpt><trkpt lat="48.49044893379998" lon="-4.088042682243003"><ele>111.0</ele><time>2026-03-22T10:24:38Z</time></trkpt><trkpt lat="48.490537653540024" lon="-4.08802038672367"><ele>111.0</ele><time>2026-03-22T10:24:39Z</time></trkpt><trkpt lat="48.49063002603175" lon="-4.087999891567379"><ele>111.0</ele><time>2026-03-22T10:24:40Z</time></trkpt><trkpt lat="48.49076237777268" lon="-4.088073137362057"><ele>110.0</ele><time>2026-03-22T10:24:42Z</time></trkpt><trkpt lat="48.490854626720676" lon="-4.088154370989555"><ele>109.0</ele><time>2026-03-22T10:24:43Z</time></trkpt><trkpt lat="48.49095759328424" lon="-4.088232221963377"><ele>108.0</ele><time>2026-03-22T10:24:44Z</time></trkpt><trkpt lat="48.49104092242378" lon="-4.088271323475076"><ele>107.0</ele><time>2026-03-22T10:24:45Z</time></trkpt><trkpt lat="48.49111248182944" lon="-4.088285557053102"><ele>106.0</ele><time>2026-03-22T10:24:46Z</time></trkpt><trkpt lat="48.49118311603664" lon="-4.088466981387276"><ele>106.0</ele><time>2026-03-22T10:24:48Z</time></trkpt><trkpt lat="48.49123953999019" lon="-4.088607671379753"><ele>106.0</ele><time>2026-03-22T10:24:49Z</time></trkpt><trkpt lat="48.49130699061784" lon="-4.088660314249206"><ele>106.0</ele><time>2026-03-22T10:24:50Z</time></trkpt><trkpt lat="48.49140875790606" lon="-4.0886731289911085"><ele>106.0</ele><time>2026-03-22T10:24:51Z</time></trkpt><trkpt lat="48.49154247207979" lon="-4.088655613879388"><ele>106.0</ele><time>2026-03-22T10:24:52Z</time></trkpt><trkpt lat="48.49164104848159" lon="-4.0886771098210755"><ele>104.19999999999999</ele><time>2026-03-22T10:24:53Z</time></trkpt><trkpt lat="48.49174045950478" lon="-4.088723512344047"><ele>102.39999999999999</ele><time>2026-03-22T10:24:54Z</time></trkpt><trkpt lat="48.49181908956936" lon="-4.088795648579778"><ele>100.6</ele><time>2026-03-22T10:24:55Z</time></trkpt><trkpt lat="48.49187549420604" lon="-4.088931501988126"><ele>98.8</ele><time>2026-03-22T10:24:56Z</time></trkpt><trkpt lat="48.491918783663436" lon="-4.089064488720581"><ele>97.0</ele><time>2026-03-22T10:24:57Z</time></trkpt><trkpt lat="48.491978686027295" lon="-4.089128576094593"><ele>97.0</ele><time>2026-03-22T10:24:58Z</time></trkpt><trkpt lat="48.492072111265145" lon="-4.089163009186189"><ele>97.0</ele><time>2026-03-22T10:24:59Z</time></trkpt><trkpt lat="48.49214297178165" lon="-4.089218814765253"><ele>97.0</ele><time>2026-03-22T10:25:00Z</time></trkpt><trkpt lat="48.49221824059523" lon="-4.089345581271794"><ele>97.0</ele><time>2026-03-22T10:25:02Z</time></trkpt><trkpt lat="48.492371307518184" lon="-4.089327285239485"><ele>97.0</ele><time>2026-03-22T10:25:04Z</time></trkpt><trkpt lat="48.492443307056334" lon="-4.089321333427035"><ele>96.00000000000001</ele><time>2026-03-22T10:25:05Z</time></trkpt><trkpt lat="48.49243808411793" lon="-4.089433078352396"><ele>95.0</ele><time>2026-03-22T10:25:08Z</time></trkpt><trkpt lat="48.49244401179244" lon="-4.089537465781056"><ele>94.0</ele><time>2026-03-22T10:25:09Z</time></trkpt><trkpt lat="48.49245533271853" lon="-4.089678920199773"><ele>93.0</ele><time>2026-03-22T10:25:10Z</time></trkpt><trkpt lat="48.49246419983607" lon="-4.089848746762063"><ele>92.0</ele><time>2026-03-22T10:25:11Z</time></trkpt><trkpt lat="48.49248486773716" lon="-4.089983014197679"><ele>91.0</ele><time>2026-03-22T10:25:12Z</time></trkpt><trkpt lat="48.49252973917701" lon="-4.09010600476913"><ele>91.0</ele><time>2026-03-22T10:25:13Z</time></trkpt><trkpt lat="48.4925631310507" lon="-4.09020243707913"><ele>91.0</ele><time>2026-03-22T10:25:14Z</time></trkpt><trkpt lat="48.492561650118176" lon="-4.090317459680338"><ele>91.0</ele><time>2026-03-22T10:25:15Z</time></trkpt><trkpt lat="48.49255700807921" lon="-4.0904731290034055"><ele>91.0</ele><time>2026-03-22T10:25:16Z</time></trkpt><trkpt lat="48.49256124587724" lon="-4.090631848503247"><ele>91.0</ele><time>2026-03-22T10:25:17Z</time></trkpt><trkpt lat="48.49256415251706" lon="-4.090825039686502"><ele>91.4</ele><time>2026-03-22T10:25:18Z</time></trkpt><trkpt lat="48.492568757598434" lon="-4.091020945151302"><ele>91.8</ele><time>2026-03-22T10:25:19Z</time></trkpt><trkpt lat="48.492563270684634" lon="-4.091195834510034"><ele>92.2</ele><time>2026-03-22T10:25:20Z</time></trkpt><trkpt lat="48.492555970420995" lon="-4.091299994725464"><ele>92.60000000000001</ele><time>2026-03-22T10:25:21Z</time></trkpt><trkpt lat="48.49255053289443" lon="-4.09142602024041"><ele>93.0</ele><time>2026-03-22T10:25:23Z</time></trkpt><trkpt lat="48.492560981972986" lon="-4.091537553289786"><ele>93.16666666666667</ele><time>2026-03-22T10:25:32Z</time></trkpt><trkpt lat="48.492568700432116" lon="-4.09163742511835"><ele>93.33333333333333</ele><time>2026-03-22T10:25:32.999Z</time></trkpt><trkpt lat="48.49258956147817" lon="-4.091755722292371"><ele>93.5</ele><time>2026-03-22T10:25:33.999Z</time></trkpt><trkpt lat="48.492619951083796" lon="-4.091848390398826"><ele>93.66666666666666</ele><time>2026-03-22T10:25:35.999Z</time></trkpt><trkpt lat="48.49271547281774" lon="-4.0918097866947925"><ele>93.83333333333333</ele><time>2026-03-22T10:25:37.999Z</time></trkpt><trkpt lat="48.49278384681155" lon="-4.091763932035885"><ele>94.0</ele><time>2026-03-22T10:25:38.999Z</time></trkpt><trkpt lat="48.49285556804832" lon="-4.091730948032961"><ele>93.33333333333333</ele><time>2026-03-22T10:25:39.999Z</time></trkpt><trkpt lat="48.492924339828654" lon="-4.091710151217104"><ele>92.66666666666666</ele><time>2026-03-22T10:25:40.999Z</time></trkpt><trkpt lat="48.4929911602918" lon="-4.091681605292506"><ele>92.0</ele><time>2026-03-22T10:25:41.999Z</time></trkpt><trkpt lat="48.493085663055" lon="-4.0916553429982425"><ele>91.33333333333333</ele><time>2026-03-22T10:25:43.999Z</time></trkpt><trkpt lat="48.4931351378533" lon="-4.091730400759924"><ele>90.66666666666667</ele><time>2026-03-22T10:25:45.999Z</time></trkpt><trkpt lat="48.493136601918245" lon="-4.09183800305839"><ele>90.0</ele><time>2026-03-22T10:25:46.999Z</time></trkpt><trkpt lat="48.493155545836956" lon="-4.091959827914262"><ele>90.0</ele><time>2026-03-22T10:25:47.999Z</time></trkpt><trkpt lat="48.49315564680159" lon="-4.0920984043343305"><ele>90.0</ele><time>2026-03-22T10:25:48.999Z</time></trkpt><trkpt lat="48.49315512795929" lon="-4.092240485068578"><ele>90.0</ele><time>2026-03-22T10:25:49.999Z</time></trkpt><trkpt lat="48.493154565268554" lon="-4.092394573338192"><ele>90.0</ele><time>2026-03-22T10:25:50.999Z</time></trkpt><trkpt lat="48.49315399285684" lon="-4.092551323145197"><ele>90.0</ele><time>2026-03-22T10:25:51.999Z</time></trkpt><trkpt lat="48.49315123100231" lon="-4.0927083859264615"><ele>90.2</ele><time>2026-03-22T10:25:52.999Z</time></trkpt><trkpt lat="48.49314540006793" lon="-4.092845508635088"><ele>90.4</ele><time>2026-03-22T10:25:53.999Z</time></trkpt><trkpt lat="48.49313599752371" lon="-4.092976591652725"><ele>90.6</ele><time>2026-03-22T10:25:54.999Z</time></trkpt><trkpt lat="48.493119643391" lon="-4.093114482347853"><ele>90.8</ele><time>2026-03-22T10:25:55.999Z</time></trkpt><trkpt lat="48.49308707580114" lon="-4.0932696100315065"><ele>91.0</ele><time>2026-03-22T10:25:56.999Z</time></trkpt><trkpt lat="48.493051001560296" lon="-4.093436666519036"><ele>91.0</ele><time>2026-03-22T10:25:57.999Z</time></trkpt><trkpt lat="48.493007261729" lon="-4.093626861725465"><ele>91.0</ele><time>2026-03-22T10:25:58.999Z</time></trkpt><trkpt lat="48.49295886797723" lon="-4.093831205278185"><ele>91.0</ele><time>2026-03-22T10:25:59.999Z</time></trkpt><trkpt lat="48.492899688138536" lon="-4.094028715146415"><ele>91.0</ele><time>2026-03-22T10:26:00.999Z</time></trkpt><trkpt lat="48.492849072607285" lon="-4.094250530874059"><ele>91.33333333333333</ele><time>2026-03-22T10:26:01.999Z</time></trkpt><trkpt lat="48.4928078214353" lon="-4.0944920753660625"><ele>91.66666666666667</ele><time>2026-03-22T10:26:02.999Z</time></trkpt><trkpt lat="48.49275526610819" lon="-4.0947418072858275"><ele>92.0</ele><time>2026-03-22T10:26:03.999Z</time></trkpt><trkpt lat="48.492717772625795" lon="-4.094959433204362"><ele>91.25</ele><time>2026-03-22T10:26:04.999Z</time></trkpt><trkpt lat="48.49268419932404" lon="-4.095172206593627"><ele>90.5</ele><time>2026-03-22T10:26:05.999Z</time></trkpt><trkpt lat="48.492650890639716" lon="-4.095383302970353"><ele>89.75</ele><time>2026-03-22T10:26:06.999Z</time></trkpt><trkpt lat="48.49261887199767" lon="-4.095584630970081"><ele>89.0</ele><time>2026-03-22T10:26:07.999Z</time></trkpt><trkpt lat="48.49258828246832" lon="-4.0957700439538645"><ele>88.25</ele><time>2026-03-22T10:26:08.999Z</time></trkpt><trkpt lat="48.49255756680216" lon="-4.09595421686085"><ele>87.5</ele><time>2026-03-22T10:26:09.999Z</time></trkpt><trkpt lat="48.49252706216306" lon="-4.096134925342869"><ele>86.75</ele><time>2026-03-22T10:26:10.999Z</time></trkpt><trkpt lat="48.49249410483153" lon="-4.0963301635052485"><ele>86.0</ele><time>2026-03-22T10:26:11.999Z</time></trkpt><trkpt lat="48.49246112970079" lon="-4.096525507103454"><ele>84.8</ele><time>2026-03-22T10:26:12.999Z</time></trkpt><trkpt lat="48.4924311907053" lon="-4.096702864736772"><ele>83.6</ele><time>2026-03-22T10:26:13.999Z</time></trkpt><trkpt lat="48.492389362810094" lon="-4.096853962407772"><ele>82.4</ele><time>2026-03-22T10:26:14.999Z</time></trkpt><trkpt lat="48.492369181240726" lon="-4.096990629320713"><ele>81.2</ele><time>2026-03-22T10:26:15.999Z</time></trkpt><trkpt lat="48.49235893356511" lon="-4.097088211419871"><ele>80.0</ele><time>2026-03-22T10:26:16.999Z</time></trkpt><trkpt lat="48.49236792452883" lon="-4.097197442033793"><ele>80.0</ele><time>2026-03-22T10:26:19Z</time></trkpt><trkpt lat="48.49246306578371" lon="-4.0972131377959355"><ele>80.0</ele><time>2026-03-22T10:26:21Z</time></trkpt><trkpt lat="48.49253615600215" lon="-4.0972341622597614"><ele>80.0</ele><time>2026-03-22T10:26:22Z</time></trkpt><trkpt lat="48.49261532910732" lon="-4.097250342717752"><ele>80.0</ele><time>2026-03-22T10:26:23Z</time></trkpt><trkpt lat="48.49270992951596" lon="-4.097281283285116"><ele>80.0</ele><time>2026-03-22T10:26:24Z</time></trkpt><trkpt lat="48.492821408112434" lon="-4.097306486602944"><ele>78.75</ele><time>2026-03-22T10:26:25Z</time></trkpt><trkpt lat="48.49294226890037" lon="-4.097323710153946"><ele>77.5</ele><time>2026-03-22T10:26:26Z</time></trkpt><trkpt lat="48.49307347130754" lon="-4.097349912787239"><ele>76.25</ele><time>2026-03-22T10:26:27Z</time></trkpt><trkpt lat="48.49321600280861" lon="-4.097378618310348"><ele>75.0</ele><time>2026-03-22T10:26:28Z</time></trkpt><trkpt lat="48.49335943786923" lon="-4.097406576310448"><ele>73.5</ele><time>2026-03-22T10:26:29Z</time></trkpt><trkpt lat="48.4935032432452" lon="-4.097432959745198"><ele>72.0</ele><time>2026-03-22T10:26:30Z</time></trkpt><trkpt lat="48.49364451081274" lon="-4.097454305235558"><ele>70.5</ele><time>2026-03-22T10:26:31Z</time></trkpt><trkpt lat="48.49377977686228" lon="-4.097481627966705"><ele>69.0</ele><time>2026-03-22T10:26:32Z</time></trkpt><trkpt lat="48.49389868176299" lon="-4.097503467940239"><ele>68.5</ele><time>2026-03-22T10:26:33Z</time></trkpt><trkpt lat="48.49401056444068" lon="-4.0975365809912985"><ele>68.0</ele><time>2026-03-22T10:26:34Z</time></trkpt><trkpt lat="48.49411615109244" lon="-4.0976009908771855"><ele>67.5</ele><time>2026-03-22T10:26:35Z</time></trkpt><trkpt lat="48.49422956787412" lon="-4.097679771035238"><ele>67.0</ele><time>2026-03-22T10:26:36Z</time></trkpt><trkpt lat="48.49434739466847" lon="-4.097764957778973"><ele>67.0</ele><time>2026-03-22T10:26:37Z</time></trkpt><trkpt lat="48.49446101603936" lon="-4.097844608657741"><ele>67.0</ele><time>2026-03-22T10:26:38Z</time></trkpt><trkpt lat="48.494563855746115" lon="-4.09791696859327"><ele>67.0</ele><time>2026-03-22T10:26:39Z</time></trkpt><trkpt lat="48.49465675716995" lon="-4.0979992252274435"><ele>67.0</ele><time>2026-03-22T10:26:40Z</time></trkpt><trkpt lat="48.49475388973324" lon="-4.098076408414858"><ele>66.0</ele><time>2026-03-22T10:26:41Z</time></trkpt><trkpt lat="48.494837969370806" lon="-4.098151202569868"><ele>65.0</ele><time>2026-03-22T10:26:42Z</time></trkpt><trkpt lat="48.4949358307078" lon="-4.098227396366772"><ele>64.0</ele><time>2026-03-22T10:26:43Z</time></trkpt><trkpt lat="48.49503764909691" lon="-4.098275814162941"><ele>63.0</ele><time>2026-03-22T10:26:44Z</time></trkpt><trkpt lat="48.49514312927174" lon="-4.0982883477470775"><ele>62.0</ele><time>2026-03-22T10:26:45Z</time></trkpt><trkpt lat="48.49527766877285" lon="-4.098286866716657"><ele>60.8</ele><time>2026-03-22T10:26:46Z</time></trkpt><trkpt lat="48.495395123208056" lon="-4.098270569451045"><ele>59.6</ele><time>2026-03-22T10:26:47Z</time></trkpt><trkpt lat="48.495501251742034" lon="-4.098237594016271"><ele>58.39999999999999</ele><time>2026-03-22T10:26:48Z</time></trkpt><trkpt lat="48.495568305786875" lon="-4.098200975275926"><ele>57.199999999999996</ele><time>2026-03-22T10:26:49Z</time></trkpt><trkpt lat="48.495622018069966" lon="-4.098129152491419"><ele>56.0</ele><time>2026-03-22T10:26:50Z</time></trkpt><trkpt lat="48.495669741377355" lon="-4.098025803203865"><ele>55.599999999999994</ele><time>2026-03-22T10:26:51Z</time></trkpt><trkpt lat="48.495738671717504" lon="-4.097928914289966"><ele>55.199999999999996</ele><time>2026-03-22T10:26:52Z</time></trkpt><trkpt lat="48.49582546712193" lon="-4.097837144659485"><ele>54.800000000000004</ele><time>2026-03-22T10:26:53Z</time></trkpt><trkpt lat="48.4959229454117" lon="-4.097783919267363"><ele>54.400000000000006</ele><time>2026-03-22T10:26:54Z</time></trkpt><trkpt lat="48.49602186502555" lon="-4.097773991113743"><ele>54.0</ele><time>2026-03-22T10:26:55Z</time></trkpt><trkpt lat="48.49614408037862" lon="-4.097779771391359"><ele>53.5</ele><time>2026-03-22T10:26:56Z</time></trkpt><trkpt lat="48.496273348690224" lon="-4.097800666699833"><ele>53.0</ele><time>2026-03-22T10:26:57Z</time></trkpt><trkpt lat="48.496401127377354" lon="-4.097811488931298"><ele>52.5</ele><time>2026-03-22T10:26:58Z</time></trkpt><trkpt lat="48.49652013825372" lon="-4.0978302033006075"><ele>52.0</ele><time>2026-03-22T10:26:59Z</time></trkpt><trkpt lat="48.49662258407172" lon="-4.097846468463507"><ele>51.99999999999999</ele><time>2026-03-22T10:27:00Z</time></trkpt><trkpt lat="48.49670696560261" lon="-4.097867102160771"><ele>52.0</ele><time>2026-03-22T10:27:01Z</time></trkpt><trkpt lat="48.496776150011954" lon="-4.097893766004542"><ele>52.0</ele><time>2026-03-22T10:27:02Z</time></trkpt><trkpt lat="48.49683066249253" lon="-4.098004896429661"><ele>52.0</ele><time>2026-03-22T10:27:04Z</time></trkpt><trkpt lat="48.49678173830063" lon="-4.098069043646603"><ele>51.99999999999999</ele><time>2026-03-22T10:28:33Z</time></trkpt><trkpt lat="48.49675014757873" lon="-4.098155523490167"><ele>52.0</ele><time>2026-03-22T10:28:35Z</time></trkpt><trkpt lat="48.49671697067019" lon="-4.098260262083965"><ele>51.0</ele><time>2026-03-22T10:28:36Z</time></trkpt><trkpt lat="48.49665484113031" lon="-4.098424759267138"><ele>50.0</ele><time>2026-03-22T10:28:37Z</time></trkpt><trkpt lat="48.49658206585837" lon="-4.09861862697905"><ele>49.0</ele><time>2026-03-22T10:28:38Z</time></trkpt><trkpt lat="48.49651382546414" lon="-4.0988137259767825"><ele>48.0</ele><time>2026-03-22T10:28:39Z</time></trkpt><trkpt lat="48.49644327632605" lon="-4.099003438367886"><ele>47.0</ele><time>2026-03-22T10:28:40Z</time></trkpt><trkpt lat="48.49636481322324" lon="-4.099181623666073"><ele>46.0</ele><time>2026-03-22T10:28:41Z</time></trkpt><trkpt lat="48.4962926696448" lon="-4.099347892491622"><ele>45.0</ele><time>2026-03-22T10:28:42Z</time></trkpt><trkpt lat="48.496218420075934" lon="-4.0995053669991615"><ele>44.0</ele><time>2026-03-22T10:28:43Z</time></trkpt><trkpt lat="48.49613456372336" lon="-4.09965948807902"><ele>42.666666666666664</ele><time>2026-03-22T10:28:44Z</time></trkpt><trkpt lat="48.496040307825936" lon="-4.099835880175954"><ele>41.333333333333336</ele><time>2026-03-22T10:28:45Z</time></trkpt><trkpt lat="48.49592837368831" lon="-4.100077961640165"><ele>40.0</ele><time>2026-03-22T10:28:46Z</time></trkpt><trkpt lat="48.495839820945335" lon="-4.100267362996377"><ele>39.5</ele><time>2026-03-22T10:28:47Z</time></trkpt><trkpt lat="48.49574833663997" lon="-4.100456266409774"><ele>39.0</ele><time>2026-03-22T10:28:48Z</time></trkpt><trkpt lat="48.49565436335084" lon="-4.100635742829179"><ele>38.5</ele><time>2026-03-22T10:28:49Z</time></trkpt><trkpt lat="48.49556761343863" lon="-4.100805970494876"><ele>38.0</ele><time>2026-03-22T10:28:50Z</time></trkpt><trkpt lat="48.49549106728808" lon="-4.100956689715582"><ele>38.199999999999996</ele><time>2026-03-22T10:28:51Z</time></trkpt><trkpt lat="48.49541158509637" lon="-4.101097087085653"><ele>38.4</ele><time>2026-03-22T10:28:52Z</time></trkpt><trkpt lat="48.49534576236047" lon="-4.101234776971701"><ele>38.599999999999994</ele><time>2026-03-22T10:28:53Z</time></trkpt><trkpt lat="48.49528498043968" lon="-4.101361242609995"><ele>38.8</ele><time>2026-03-22T10:28:54Z</time></trkpt><trkpt lat="48.495223226839286" lon="-4.101485036070317"><ele>39.0</ele><time>2026-03-22T10:28:55Z</time></trkpt><trkpt lat="48.49517473271785" lon="-4.101593167016831"><ele>39.0</ele><time>2026-03-22T10:28:56Z</time></trkpt><trkpt lat="48.49513479902427" lon="-4.101683925001275"><ele>39.0</ele><time>2026-03-22T10:28:57Z</time></trkpt><trkpt lat="48.495097684572" lon="-4.101761288078256"><ele>39.0</ele><time>2026-03-22T10:28:58Z</time></trkpt><trkpt lat="48.495022329670086" lon="-4.10167147049342"><ele>39.0</ele><time>2026-03-22T10:29:06Z</time></trkpt><trkpt lat="48.49491559548433" lon="-4.10158635834091"><ele>39.0</ele><time>2026-03-22T10:29:08Z</time></trkpt><trkpt lat="48.49485988964576" lon="-4.101509089225292"><ele>39.0</ele><time>2026-03-22T10:29:09Z</time></trkpt><trkpt lat="48.49481144469869" lon="-4.101443749271704"><ele>39.0</ele><time>2026-03-22T10:29:10Z</time></trkpt><trkpt lat="48.4947676181712" lon="-4.101368754312309"><ele>39.0</ele><time>2026-03-22T10:29:11Z</time></trkpt><trkpt lat="48.4947209727987" lon="-4.101293698878712"><ele>39.0</ele><time>2026-03-22T10:29:12Z</time></trkpt><trkpt lat="48.49465073407975" lon="-4.101237570684927"><ele>39.0</ele><time>2026-03-22T10:29:13Z</time></trkpt><trkpt lat="48.49459232786488" lon="-4.101197277707945"><ele>39.0</ele><time>2026-03-22T10:29:14Z</time></trkpt><trkpt lat="48.49452545582943" lon="-4.101213267239653"><ele>39.0</ele><time>2026-03-22T10:29:16Z</time></trkpt><trkpt lat="48.49448760739453" lon="-4.101336644120649"><ele>39.0</ele><time>2026-03-22T10:29:20Z</time></trkpt><trkpt lat="48.494465477430005" lon="-4.101444575790719"><ele>39.333333333333336</ele><time>2026-03-22T10:29:21Z</time></trkpt><trkpt lat="48.494439912126374" lon="-4.101533124903278"><ele>39.666666666666664</ele><time>2026-03-22T10:29:22Z</time></trkpt><trkpt lat="48.49439190655529" lon="-4.101627832995045"><ele>40.0</ele><time>2026-03-22T10:29:23Z</time></trkpt><trkpt lat="48.49437173681405" lon="-4.101726768351743"><ele>40.33333333333333</ele><time>2026-03-22T10:29:24Z</time></trkpt><trkpt lat="48.49435192656342" lon="-4.101828993676625"><ele>40.666666666666664</ele><time>2026-03-22T10:29:25Z</time></trkpt><trkpt lat="48.494326488332774" lon="-4.101916260668232"><ele>41.0</ele><time>2026-03-22T10:29:26Z</time></trkpt><trkpt lat="48.494295900039475" lon="-4.102070102886416"><ele>41.0</ele><time>2026-03-22T10:29:27.999Z</time></trkpt><trkpt lat="48.49427162640668" lon="-4.102158487328329"><ele>41.0</ele><time>2026-03-22T10:29:30.999Z</time></trkpt><trkpt lat="48.49425303458975" lon="-4.1022536953776285"><ele>41.0</ele><time>2026-03-22T10:30:05.999Z</time></trkpt><trkpt lat="48.4942177102277" lon="-4.102360335154726"><ele>41.0</ele><time>2026-03-22T10:30:08.999Z</time></trkpt><trkpt lat="48.4941501325471" lon="-4.102466613921821"><ele>41.0</ele><time>2026-03-22T10:30:10.999Z</time></trkpt><trkpt lat="48.494025375458506" lon="-4.102572307402187"><ele>41.0</ele><time>2026-03-22T10:30:12.999Z</time></trkpt><trkpt lat="48.49396419128468" lon="-4.10263955803045"><ele>41.199999999999996</ele><time>2026-03-22T10:30:13.999Z</time></trkpt><trkpt lat="48.49391174545231" lon="-4.1027540349578615"><ele>41.4</ele><time>2026-03-22T10:30:15.999Z</time></trkpt><trkpt lat="48.49386480140141" lon="-4.1028804109743895"><ele>41.6</ele><time>2026-03-22T10:30:17.999Z</time></trkpt><trkpt lat="48.49385439446773" lon="-4.103062257024896"><ele>41.8</ele><time>2026-03-22T10:30:19.999Z</time></trkpt><trkpt lat="48.49382545485825" lon="-4.103174966739207"><ele>42.0</ele><time>2026-03-22T10:30:20.999Z</time></trkpt><trkpt lat="48.493786080636276" lon="-4.1032690722157845"><ele>46.0</ele><time>2026-03-22T10:30:21.999Z</time></trkpt><trkpt lat="48.493723202146015" lon="-4.103350693904325"><ele>50.0</ele><time>2026-03-22T10:30:23.999Z</time></trkpt><trkpt lat="48.49366256923817" lon="-4.103412962126327"><ele>54.0</ele><time>2026-03-22T10:30:26.999Z</time></trkpt><trkpt lat="48.493592938032236" lon="-4.103579296582566"><ele>58.0</ele><time>2026-03-22T10:30:28.999Z</time></trkpt><trkpt lat="48.493576341812265" lon="-4.103680659940183"><ele>62.0</ele><time>2026-03-22T10:30:29.999Z</time></trkpt><trkpt lat="48.493572064178245" lon="-4.103802531263111"><ele>66.0</ele><time>2026-03-22T10:30:31Z</time></trkpt><trkpt lat="48.493567734688554" lon="-4.103940091112779"><ele>66.0</ele><time>2026-03-22T10:30:32Z</time></trkpt><trkpt lat="48.49357449072935" lon="-4.104073225928137"><ele>66.0</ele><time>2026-03-22T10:30:33Z</time></trkpt><trkpt lat="48.49356539363018" lon="-4.104204263304788"><ele>66.0</ele><time>2026-03-22T10:30:34Z</time></trkpt><trkpt lat="48.49357037414135" lon="-4.104304942882268"><ele>66.0</ele><time>2026-03-22T10:30:35Z</time></trkpt><trkpt lat="48.493562431078956" lon="-4.10450435294772"><ele>66.0</ele><time>2026-03-22T10:30:37Z</time></trkpt><trkpt lat="48.493540573788216" lon="-4.104616706579654"><ele>66.0</ele><time>2026-03-22T10:30:38Z</time></trkpt><trkpt lat="48.49351428424479" lon="-4.104709304977437"><ele>66.0</ele><time>2026-03-22T10:30:39Z</time></trkpt><trkpt lat="48.4934864851941" lon="-4.104852480040376"><ele>66.0</ele><time>2026-03-22T10:30:41Z</time></trkpt><trkpt lat="48.49351803391336" lon="-4.104942791802117"><ele>66.0</ele><time>2026-03-22T10:30:42Z</time></trkpt><trkpt lat="48.49352963070688" lon="-4.105045490170963"><ele>66.0</ele><time>2026-03-22T10:30:43Z</time></trkpt><trkpt lat="48.493514048059346" lon="-4.105239975901451"><ele>66.0</ele><time>2026-03-22T10:30:45Z</time></trkpt><trkpt lat="48.493532568617994" lon="-4.105362819651882"><ele>66.6</ele><time>2026-03-22T10:30:46Z</time></trkpt><trkpt lat="48.49352505936422" lon="-4.105522921025392"><ele>67.19999999999999</ele><time>2026-03-22T10:30:48Z</time></trkpt><trkpt lat="48.493540976246585" lon="-4.105650919270906"><ele>67.80000000000001</ele><time>2026-03-22T10:30:50Z</time></trkpt><trkpt lat="48.49357471868102" lon="-4.105763869119956"><ele>68.4</ele><time>2026-03-22T10:30:52Z</time></trkpt><trkpt lat="48.49359615977565" lon="-4.1059121311416735"><ele>69.0</ele><time>2026-03-22T10:30:54Z</time></trkpt><trkpt lat="48.49360783374226" lon="-4.106074223959729"><ele>69.66666666666667</ele><time>2026-03-22T10:30:56Z</time></trkpt><trkpt lat="48.49360162821046" lon="-4.106218447181925"><ele>70.33333333333333</ele><time>2026-03-22T10:30:59Z</time></trkpt><trkpt lat="48.49361378212655" lon="-4.106327878269699"><ele>71.0</ele><time>2026-03-22T10:31:02Z</time></trkpt><trkpt lat="48.49363728684571" lon="-4.106457967909569"><ele>71.66666666666666</ele><time>2026-03-22T10:31:04Z</time></trkpt><trkpt lat="48.49364093500502" lon="-4.106573803741976"><ele>72.33333333333333</ele><time>2026-03-22T10:31:05Z</time></trkpt><trkpt lat="48.49367537845028" lon="-4.106707659281112"><ele>73.0</ele><time>2026-03-22T10:31:08Z</time></trkpt><trkpt lat="48.49370289737608" lon="-4.1068203565198225"><ele>73.4</ele><time>2026-03-22T10:31:10Z</time></trkpt><trkpt lat="48.49373926121654" lon="-4.106915459088519"><ele>73.8</ele><time>2026-03-22T10:31:11Z</time></trkpt><trkpt lat="48.493728161174786" lon="-4.1070928583049024"><ele>74.2</ele><time>2026-03-22T10:31:13Z</time></trkpt><trkpt lat="48.493768618394796" lon="-4.107246132292225"><ele>74.6</ele><time>2026-03-22T10:31:15Z</time></trkpt><trkpt lat="48.493765452899275" lon="-4.107411266296926"><ele>75.0</ele><time>2026-03-22T10:31:17Z</time></trkpt><trkpt lat="48.49378447642691" lon="-4.107527192019913"><ele>74.8</ele><time>2026-03-22T10:31:18Z</time></trkpt><trkpt lat="48.49379285789943" lon="-4.1076929246890534"><ele>74.6</ele><time>2026-03-22T10:31:20Z</time></trkpt><trkpt lat="48.4937922522032" lon="-4.10779333245922"><ele>74.4</ele><time>2026-03-22T10:31:22Z</time></trkpt><trkpt lat="48.49374949583511" lon="-4.107878980271811"><ele>74.2</ele><time>2026-03-22T10:31:24Z</time></trkpt><trkpt lat="48.49372744464756" lon="-4.108071064259324"><ele>74.0</ele><time>2026-03-22T10:31:26Z</time></trkpt><trkpt lat="48.49373670978478" lon="-4.10819045258277"><ele>73.0</ele><time>2026-03-22T10:31:28Z</time></trkpt><trkpt lat="48.493742565501705" lon="-4.108353249261332"><ele>72.0</ele><time>2026-03-22T10:31:30Z</time></trkpt><trkpt lat="48.49374820840218" lon="-4.108474479822127"><ele>71.0</ele><time>2026-03-22T10:31:30.999Z</time></trkpt><trkpt lat="48.49375907018097" lon="-4.108613213927355"><ele>70.0</ele><time>2026-03-22T10:31:32.999Z</time></trkpt><trkpt lat="48.49366831822363" lon="-4.108712669592654"><ele>69.0</ele><time>2026-03-22T10:31:34.999Z</time></trkpt><trkpt lat="48.493626133424065" lon="-4.108798869158407"><ele>69.0</ele><time>2026-03-22T10:31:35.999Z</time></trkpt><trkpt lat="48.49357323194231" lon="-4.108869028201671"><ele>69.0</ele><time>2026-03-22T10:31:36.999Z</time></trkpt><trkpt lat="48.4935033271467" lon="-4.109052879567695"><ele>69.0</ele><time>2026-03-22T10:31:38.999Z</time></trkpt><trkpt lat="48.493452915250195" lon="-4.1091544435178236"><ele>69.0</ele><time>2026-03-22T10:31:39.999Z</time></trkpt><trkpt lat="48.49340023863364" lon="-4.109271634480147"><ele>69.0</ele><time>2026-03-22T10:31:40.999Z</time></trkpt><trkpt lat="48.493359897740596" lon="-4.109402502970749"><ele>67.2</ele><time>2026-03-22T10:31:41.999Z</time></trkpt><trkpt lat="48.493289509934165" lon="-4.109552291997059"><ele>65.4</ele><time>2026-03-22T10:31:42.999Z</time></trkpt><trkpt lat="48.493232262857624" lon="-4.109689791827806"><ele>63.6</ele><time>2026-03-22T10:31:43.999Z</time></trkpt><trkpt lat="48.49317553913962" lon="-4.109829354532705"><ele>61.8</ele><time>2026-03-22T10:31:44.999Z</time></trkpt><trkpt lat="48.49312118769641" lon="-4.109964204270487"><ele>60.0</ele><time>2026-03-22T10:31:45.999Z</time></trkpt><trkpt lat="48.493077313472064" lon="-4.110081025392438"><ele>60.833333333333336</ele><time>2026-03-22T10:31:46.999Z</time></trkpt><trkpt lat="48.493022573364534" lon="-4.110159667805525"><ele>61.66666666666667</ele><time>2026-03-22T10:31:47.999Z</time></trkpt><trkpt lat="48.49295735945814" lon="-4.110227966165996"><ele>62.5</ele><time>2026-03-22T10:31:48.999Z</time></trkpt><trkpt lat="48.492922812763744" lon="-4.110308427634245"><ele>63.333333333333336</ele><time>2026-03-22T10:31:49.999Z</time></trkpt><trkpt lat="48.492906590498244" lon="-4.110409418706568"><ele>64.16666666666667</ele><time>2026-03-22T10:31:50.999Z</time></trkpt><trkpt lat="48.49289058070198" lon="-4.11056265388865"><ele>65.0</ele><time>2026-03-22T10:31:52.999Z</time></trkpt><trkpt lat="48.49283089406589" lon="-4.1107434073855105"><ele>65.0</ele><time>2026-03-22T10:31:54.999Z</time></trkpt><trkpt lat="48.49279345773857" lon="-4.110892258915984"><ele>65.0</ele><time>2026-03-22T10:31:55.999Z</time></trkpt><trkpt lat="48.492781669518514" lon="-4.111010885232583"><ele>65.0</ele><time>2026-03-22T10:31:56.999Z</time></trkpt><trkpt lat="48.49275530442519" lon="-4.111104868942807"><ele>65.0</ele><time>2026-03-22T10:31:57.999Z</time></trkpt><trkpt lat="48.49271295869465" lon="-4.1112288170447915"><ele>65.0</ele><time>2026-03-22T10:31:59.999Z</time></trkpt><trkpt lat="48.49265757923121" lon="-4.111366311862821"><ele>65.0</ele><time>2026-03-22T10:32:01.999Z</time></trkpt><trkpt lat="48.49262827510243" lon="-4.111512605144426"><ele>65.0</ele><time>2026-03-22T10:32:03.999Z</time></trkpt><trkpt lat="48.492599260234904" lon="-4.1116352409818555"><ele>65.0</ele><time>2026-03-22T10:32:04.999Z</time></trkpt><trkpt lat="48.492564035469435" lon="-4.111797141226235"><ele>65.0</ele><time>2026-03-22T10:32:05.999Z</time></trkpt><trkpt lat="48.492524959164164" lon="-4.11192140830659"><ele>65.0</ele><time>2026-03-22T10:32:06.999Z</time></trkpt><trkpt lat="48.492485593963124" lon="-4.112016935460047"><ele>63.66666666666667</ele><time>2026-03-22T10:32:07.999Z</time></trkpt><trkpt lat="48.49244704298853" lon="-4.112121334308029"><ele>62.333333333333336</ele><time>2026-03-22T10:32:08.999Z</time></trkpt><trkpt lat="48.492375446411735" lon="-4.112250733143298"><ele>61.0</ele><time>2026-03-22T10:32:10.999Z</time></trkpt><trkpt lat="48.492266844161875" lon="-4.112313381337514"><ele>59.66666666666667</ele><time>2026-03-22T10:32:12.999Z</time></trkpt><trkpt lat="48.49220605249941" lon="-4.11236109483485"><ele>58.333333333333336</ele><time>2026-03-22T10:32:13.999Z</time></trkpt><trkpt lat="48.49215298690883" lon="-4.11241895334346"><ele>57.0</ele><time>2026-03-22T10:32:14.999Z</time></trkpt><trkpt lat="48.492068103377264" lon="-4.11248954462821"><ele>57.0</ele><time>2026-03-22T10:32:16.999Z</time></trkpt><trkpt lat="48.49194572941563" lon="-4.112463245017531"><ele>57.0</ele><time>2026-03-22T10:32:18.999Z</time></trkpt><trkpt lat="48.49187202157357" lon="-4.112460160664886"><ele>57.0</ele><time>2026-03-22T10:32:19.999Z</time></trkpt><trkpt lat="48.49179669471201" lon="-4.112429140210521"><ele>57.0</ele><time>2026-03-22T10:32:20.999Z</time></trkpt><trkpt lat="48.49171114983916" lon="-4.112403489200386"><ele>57.0</ele><time>2026-03-22T10:32:21.999Z</time></trkpt><trkpt lat="48.491622694438355" lon="-4.112378564912345"><ele>57.0</ele><time>2026-03-22T10:32:22.999Z</time></trkpt><trkpt lat="48.49152613437346" lon="-4.112357626448163"><ele>57.0</ele><time>2026-03-22T10:32:23.999Z</time></trkpt><trkpt lat="48.49143207571978" lon="-4.11233015942254"><ele>57.0</ele><time>2026-03-22T10:32:24.999Z</time></trkpt><trkpt lat="48.491354245996796" lon="-4.112319533058397"><ele>57.0</ele><time>2026-03-22T10:32:25.999Z</time></trkpt><trkpt lat="48.49125606650653" lon="-4.112340257892719"><ele>57.0</ele><time>2026-03-22T10:32:27.999Z</time></trkpt><trkpt lat="48.4912557967853" lon="-4.112449122747071"><ele>57.0</ele><time>2026-03-22T10:32:29.999Z</time></trkpt><trkpt lat="48.49128397886815" lon="-4.112605269232756"><ele>57.0</ele><time>2026-03-22T10:32:31.999Z</time></trkpt><trkpt lat="48.49131794299356" lon="-4.112701734082234"><ele>57.0</ele><time>2026-03-22T10:33:35.999Z</time></trkpt><trkpt lat="48.491383531448356" lon="-4.112713353965079"><ele>57.0</ele><time>2026-03-22T10:33:36.999Z</time></trkpt><trkpt lat="48.491486525407076" lon="-4.112722023499893"><ele>57.0</ele><time>2026-03-22T10:33:37.999Z</time></trkpt><trkpt lat="48.491588368035295" lon="-4.112743155037857"><ele>57.0</ele><time>2026-03-22T10:33:38.999Z</time></trkpt><trkpt lat="48.49168011613782" lon="-4.112751506871834"><ele>57.0</ele><time>2026-03-22T10:33:39.999Z</time></trkpt><trkpt lat="48.4917605656323" lon="-4.112771087183159"><ele>57.0</ele><time>2026-03-22T10:33:40.999Z</time></trkpt><trkpt lat="48.49183398868561" lon="-4.112785710970646"><ele>57.0</ele><time>2026-03-22T10:33:41.999Z</time></trkpt><trkpt lat="48.49190618782941" lon="-4.112793015526985"><ele>57.0</ele><time>2026-03-22T10:33:42.999Z</time></trkpt><trkpt lat="48.49197395479672" lon="-4.112771233265974"><ele>57.0</ele><time>2026-03-22T10:33:43.999Z</time></trkpt><trkpt lat="48.492087583826425" lon="-4.112744812908532"><ele>57.0</ele><time>2026-03-22T10:33:45.999Z</time></trkpt><trkpt lat="48.49215786210853" lon="-4.112790449972524"><ele>57.0</ele><time>2026-03-22T10:33:48.999Z</time></trkpt><trkpt lat="48.492224923149436" lon="-4.112871414341181"><ele>55.666666666666664</ele><time>2026-03-22T10:33:56.999Z</time></trkpt><trkpt lat="48.492283058974685" lon="-4.112951520201388"><ele>54.33333333333333</ele><time>2026-03-22T10:33:58.999Z</time></trkpt><trkpt lat="48.49231383216075" lon="-4.113036950118137"><ele>53.0</ele><time>2026-03-22T10:33:59.999Z</time></trkpt><trkpt lat="48.492343179678" lon="-4.1132107199230905"><ele>51.666666666666664</ele><time>2026-03-22T10:34:01.999Z</time></trkpt><trkpt lat="48.492385064105434" lon="-4.113334331194343"><ele>50.33333333333333</ele><time>2026-03-22T10:34:04.999Z</time></trkpt><trkpt lat="48.49233529061867" lon="-4.113405926849046"><ele>49.0</ele><time>2026-03-22T10:34:08.999Z</time></trkpt><trkpt lat="48.4922610365995" lon="-4.113554368960363"><ele>48.33333333333333</ele><time>2026-03-22T10:34:10.999Z</time></trkpt><trkpt lat="48.49220997685741" lon="-4.113631606534771"><ele>47.666666666666664</ele><time>2026-03-22T10:34:11.999Z</time></trkpt><trkpt lat="48.49217594090325" lon="-4.113719782247823"><ele>47.0</ele><time>2026-03-22T10:34:12.999Z</time></trkpt><trkpt lat="48.49210120572145" lon="-4.113803053569678"><ele>46.33333333333333</ele><time>2026-03-22T10:34:14.999Z</time></trkpt><trkpt lat="48.492046516133954" lon="-4.113934637303601"><ele>45.666666666666664</ele><time>2026-03-22T10:34:17.999Z</time></trkpt><trkpt lat="48.49199070981751" lon="-4.114051348956378"><ele>45.0</ele><time>2026-03-22T10:34:20.999Z</time></trkpt><trkpt lat="48.491891905373635" lon="-4.114194354479337"><ele>48.0</ele><time>2026-03-22T10:34:22.999Z</time></trkpt><trkpt lat="48.49181864481554" lon="-4.114223012173838"><ele>51.0</ele><time>2026-03-22T10:34:24.999Z</time></trkpt><trkpt lat="48.491819295348904" lon="-4.114339396850472"><ele>54.0</ele><time>2026-03-22T10:34:26.999Z</time></trkpt><trkpt lat="48.49186622048391" lon="-4.114454206059014"><ele>57.0</ele><time>2026-03-22T10:34:27.999Z</time></trkpt><trkpt lat="48.49186854805031" lon="-4.114553991004018"><ele>60.0</ele><time>2026-03-22T10:34:28.999Z</time></trkpt><trkpt lat="48.491838460345654" lon="-4.114741626129946"><ele>63.0</ele><time>2026-03-22T10:34:30.999Z</time></trkpt><trkpt lat="48.49181197652337" lon="-4.1148522391276074"><ele>62.8</ele><time>2026-03-22T10:34:32.999Z</time></trkpt><trkpt lat="48.491786282281105" lon="-4.115064902134309"><ele>62.599999999999994</ele><time>2026-03-22T10:34:34.999Z</time></trkpt><trkpt lat="48.49180522883991" lon="-4.115161619382914"><ele>62.400000000000006</ele><time>2026-03-22T10:34:35.999Z</time></trkpt><trkpt lat="48.4918239678315" lon="-4.115338587804239"><ele>62.2</ele><time>2026-03-22T10:34:37.999Z</time></trkpt><trkpt lat="48.491807572833174" lon="-4.115488542009142"><ele>62.0</ele><time>2026-03-22T10:34:39.999Z</time></trkpt><trkpt lat="48.49175105747693" lon="-4.115645811962714"><ele>61.50000000000001</ele><time>2026-03-22T10:34:42Z</time></trkpt><trkpt lat="48.491732354938875" lon="-4.115774210939525"><ele>61.0</ele><time>2026-03-22T10:34:44Z</time></trkpt><trkpt lat="48.49176650393638" lon="-4.1158705765175325"><ele>60.5</ele><time>2026-03-22T10:34:45Z</time></trkpt><trkpt lat="48.49178445698977" lon="-4.115995473769109"><ele>60.0</ele><time>2026-03-22T10:34:46Z</time></trkpt><trkpt lat="48.49180966938617" lon="-4.116083404756568"><ele>59.50000000000001</ele><time>2026-03-22T10:34:47Z</time></trkpt><trkpt lat="48.49185216200174" lon="-4.116226021702714"><ele>59.0</ele><time>2026-03-22T10:34:49Z</time></trkpt><trkpt lat="48.491891109303175" lon="-4.116317454636752"><ele>59.0</ele><time>2026-03-22T10:34:51Z</time></trkpt><trkpt lat="48.49182951881471" lon="-4.11644014952946"><ele>59.00000000000001</ele><time>2026-03-22T10:34:53Z</time></trkpt><trkpt lat="48.49177105716182" lon="-4.116586041173374"><ele>59.00000000000001</ele><time>2026-03-22T10:34:55Z</time></trkpt><trkpt lat="48.49178516812995" lon="-4.11672690467589"><ele>59.0</ele><time>2026-03-22T10:34:57Z</time></trkpt><trkpt lat="48.49181266520227" lon="-4.116882163815722"><ele>59.0</ele><time>2026-03-22T10:34:59Z</time></trkpt><trkpt lat="48.49176172586498" lon="-4.116971086216957"><ele>57.400000000000006</ele><time>2026-03-22T10:35:01Z</time></trkpt><trkpt lat="48.491705583808695" lon="-4.117052406334694"><ele>55.800000000000004</ele><time>2026-03-22T10:35:02Z</time></trkpt><trkpt lat="48.491623854493675" lon="-4.11714026176209"><ele>54.2</ele><time>2026-03-22T10:35:04Z</time></trkpt><trkpt lat="48.49158298830909" lon="-4.117285581123001"><ele>52.599999999999994</ele><time>2026-03-22T10:35:06Z</time></trkpt><trkpt lat="48.49160435190599" lon="-4.117463068019899"><ele>51.0</ele><time>2026-03-22T10:35:08Z</time></trkpt><trkpt lat="48.49158753368629" lon="-4.1176020160468205"><ele>50.0</ele><time>2026-03-22T10:35:09Z</time></trkpt><trkpt lat="48.49153802402807" lon="-4.117793783744329"><ele>49.0</ele><time>2026-03-22T10:35:10Z</time></trkpt><trkpt lat="48.49145669900484" lon="-4.117943176733879"><ele>48.0</ele><time>2026-03-22T10:35:11Z</time></trkpt><trkpt lat="48.49139117825032" lon="-4.118026094763863"><ele>47.0</ele><time>2026-03-22T10:35:12Z</time></trkpt><trkpt lat="48.491317524717246" lon="-4.118056373505834"><ele>46.0</ele><time>2026-03-22T10:35:13Z</time></trkpt><trkpt lat="48.491242642658435" lon="-4.118049455066792"><ele>46.0</ele><time>2026-03-22T10:35:14Z</time></trkpt><trkpt lat="48.49112380534286" lon="-4.1179602964021615"><ele>46.0</ele><time>2026-03-22T10:35:16Z</time></trkpt><trkpt lat="48.49102760257316" lon="-4.117904852897186"><ele>46.0</ele><time>2026-03-22T10:35:17Z</time></trkpt><trkpt lat="48.49093882837869" lon="-4.117871281718479"><ele>46.0</ele><time>2026-03-22T10:35:18Z</time></trkpt><trkpt lat="48.490851539198744" lon="-4.1178650833999635"><ele>46.0</ele><time>2026-03-22T10:35:19Z</time></trkpt><trkpt lat="48.490782545824864" lon="-4.117861459730041"><ele>46.0</ele><time>2026-03-22T10:35:20Z</time></trkpt><trkpt lat="48.49071046383159" lon="-4.11788875333866"><ele>46.0</ele><time>2026-03-22T10:35:21Z</time></trkpt><trkpt lat="48.49062514047972" lon="-4.117907312032458"><ele>46.0</ele><time>2026-03-22T10:35:22Z</time></trkpt><trkpt lat="48.49053189133351" lon="-4.117959474319072"><ele>46.0</ele><time>2026-03-22T10:35:23Z</time></trkpt><trkpt lat="48.49041352720418" lon="-4.118014617215076"><ele>46.0</ele><time>2026-03-22T10:35:24Z</time></trkpt><trkpt lat="48.49030125148495" lon="-4.118067010948043"><ele>48.0</ele><time>2026-03-22T10:35:25Z</time></trkpt><trkpt lat="48.490193179605356" lon="-4.1181026028173"><ele>50.0</ele><time>2026-03-22T10:35:26Z</time></trkpt><trkpt lat="48.49007566534554" lon="-4.118151265545885"><ele>52.0</ele><time>2026-03-22T10:35:27Z</time></trkpt><trkpt lat="48.48996141889537" lon="-4.118199167876882"><ele>54.0</ele><time>2026-03-22T10:35:28Z</time></trkpt><trkpt lat="48.48983422672652" lon="-4.118234737749351"><ele>51.25</ele><time>2026-03-22T10:35:29Z</time></trkpt><trkpt lat="48.48971424346196" lon="-4.118270671887204"><ele>48.5</ele><time>2026-03-22T10:35:30Z</time></trkpt><trkpt lat="48.48959868028326" lon="-4.118319849107108"><ele>45.75</ele><time>2026-03-22T10:35:31Z</time></trkpt><trkpt lat="48.48948788512782" lon="-4.118363316161059"><ele>43.0</ele><time>2026-03-22T10:35:32Z</time></trkpt><trkpt lat="48.48938647537834" lon="-4.118356249772809"><ele>43.0</ele><time>2026-03-22T10:35:33Z</time></trkpt><trkpt lat="48.489291826648746" lon="-4.118353999730247"><ele>43.0</ele><time>2026-03-22T10:35:34Z</time></trkpt><trkpt lat="48.48920513717178" lon="-4.118330505193238"><ele>43.0</ele><time>2026-03-22T10:35:34.999Z</time></trkpt><trkpt lat="48.48909461267213" lon="-4.118301508254108"><ele>43.0</ele><time>2026-03-22T10:35:35.999Z</time></trkpt><trkpt lat="48.488980625549075" lon="-4.118248748843164"><ele>43.0</ele><time>2026-03-22T10:35:36.999Z</time></trkpt><trkpt lat="48.48887764674953" lon="-4.118215239964576"><ele>44.4</ele><time>2026-03-22T10:35:37.999Z</time></trkpt><trkpt lat="48.4887779817087" lon="-4.11819016207295"><ele>45.8</ele><time>2026-03-22T10:35:38.999Z</time></trkpt><trkpt lat="48.48868955448385" lon="-4.118146591287149"><ele>47.2</ele><time>2026-03-22T10:35:39.999Z</time></trkpt><trkpt lat="48.488629705691636" lon="-4.118073634039035"><ele>48.6</ele><time>2026-03-22T10:35:40.999Z</time></trkpt><trkpt lat="48.48853678328104" lon="-4.117962429952011"><ele>50.0</ele><time>2026-03-22T10:35:41.999Z</time></trkpt><trkpt lat="48.48844465081305" lon="-4.117860373349372"><ele>50.0</ele><time>2026-03-22T10:35:42.999Z</time></trkpt><trkpt lat="48.48835303209061" lon="-4.117775154383032"><ele>50.0</ele><time>2026-03-22T10:35:43.999Z</time></trkpt><trkpt lat="48.488249367926265" lon="-4.117704631818997"><ele>50.0</ele><time>2026-03-22T10:35:44.999Z</time></trkpt><trkpt lat="48.48816000046757" lon="-4.117620963601908"><ele>50.0</ele><time>2026-03-22T10:35:45.999Z</time></trkpt><trkpt lat="48.488071741266694" lon="-4.1175257255303555"><ele>50.0</ele><time>2026-03-22T10:35:46.999Z</time></trkpt><trkpt lat="48.487970900285795" lon="-4.117468367493684"><ele>50.0</ele><time>2026-03-22T10:35:47.999Z</time></trkpt><trkpt lat="48.4878787866355" lon="-4.117404566724934"><ele>50.0</ele><time>2026-03-22T10:35:48.999Z</time></trkpt><trkpt lat="48.48778622542703" lon="-4.117304399927756"><ele>50.0</ele><time>2026-03-22T10:35:49.999Z</time></trkpt><trkpt lat="48.48770748540374" lon="-4.117231480706234"><ele>50.0</ele><time>2026-03-22T10:35:50.999Z</time></trkpt><trkpt lat="48.487638758484835" lon="-4.117144545787374"><ele>50.0</ele><time>2026-03-22T10:35:51.999Z</time></trkpt><trkpt lat="48.487567379383975" lon="-4.117066776065031"><ele>51.2</ele><time>2026-03-22T10:35:52.999Z</time></trkpt><trkpt lat="48.487499023239515" lon="-4.116976109361878"><ele>52.4</ele><time>2026-03-22T10:35:53.999Z</time></trkpt><trkpt lat="48.48742247000887" lon="-4.11692004190779"><ele>53.599999999999994</ele><time>2026-03-22T10:35:54.999Z</time></trkpt><trkpt lat="48.487348775515684" lon="-4.1168854221151925"><ele>54.8</ele><time>2026-03-22T10:35:55.999Z</time></trkpt><trkpt lat="48.48727237728925" lon="-4.116798323227205"><ele>56.0</ele><time>2026-03-22T10:35:56.999Z</time></trkpt><trkpt lat="48.48718384589468" lon="-4.116687585456139"><ele>56.0</ele><time>2026-03-22T10:35:57.999Z</time></trkpt><trkpt lat="48.48709696930038" lon="-4.116601905460534"><ele>55.99999999999999</ele><time>2026-03-22T10:35:58.999Z</time></trkpt><trkpt lat="48.48702055878038" lon="-4.116528287550928"><ele>55.99999999999999</ele><time>2026-03-22T10:35:59.999Z</time></trkpt><trkpt lat="48.48695493509689" lon="-4.116442916806126"><ele>56.0</ele><time>2026-03-22T10:36:00.999Z</time></trkpt><trkpt lat="48.48690635146037" lon="-4.11632736385553"><ele>56.0</ele><time>2026-03-22T10:36:01.999Z</time></trkpt><trkpt lat="48.48686533270011" lon="-4.116186358243368"><ele>56.4</ele><time>2026-03-22T10:36:02.999Z</time></trkpt><trkpt lat="48.48681710340563" lon="-4.116039259438319"><ele>56.8</ele><time>2026-03-22T10:36:03.999Z</time></trkpt><trkpt lat="48.48677056706527" lon="-4.115901997827926"><ele>57.199999999999996</ele><time>2026-03-22T10:36:04.999Z</time></trkpt><trkpt lat="48.4867274909506" lon="-4.115773314737468"><ele>57.599999999999994</ele><time>2026-03-22T10:36:05.999Z</time></trkpt><trkpt lat="48.486671873591064" lon="-4.115682080136919"><ele>58.0</ele><time>2026-03-22T10:36:06.999Z</time></trkpt><trkpt lat="48.48665921124943" lon="-4.115576971453346"><ele>57.99999999999999</ele><time>2026-03-22T10:36:08.999Z</time></trkpt><trkpt lat="48.48674365139726" lon="-4.115537241948465"><ele>58.0</ele><time>2026-03-22T10:36:36.999Z</time></trkpt><trkpt lat="48.48680220366478" lon="-4.115424040405992"><ele>58.0</ele><time>2026-03-22T10:36:38.999Z</time></trkpt><trkpt lat="48.486844816446826" lon="-4.115343583706083"><ele>58.0</ele><time>2026-03-22T10:36:39.999Z</time></trkpt><trkpt lat="48.48689752345782" lon="-4.115238141438168"><ele>57.99999999999999</ele><time>2026-03-22T10:36:40.999Z</time></trkpt><trkpt lat="48.48691215782897" lon="-4.115136555186331"><ele>58.0</ele><time>2026-03-22T10:36:41.999Z</time></trkpt><trkpt lat="48.48692953670097" lon="-4.115044928084524"><ele>57.99999999999999</ele><time>2026-03-22T10:36:42.999Z</time></trkpt><trkpt lat="48.48702116762187" lon="-4.114929641698823"><ele>58.0</ele><time>2026-03-22T10:36:44.999Z</time></trkpt><trkpt lat="48.48709572138208" lon="-4.114908688676605"><ele>58.0</ele><time>2026-03-22T10:36:45.999Z</time></trkpt><trkpt lat="48.48717072378008" lon="-4.114867074704238"><ele>58.0</ele><time>2026-03-22T10:36:48Z</time></trkpt><trkpt lat="48.48715327719837" lon="-4.1147723073246265"><ele>57.99999999999999</ele><time>2026-03-22T10:36:49Z</time></trkpt><trkpt lat="48.48713283950354" lon="-4.114667120845968"><ele>58.0</ele><time>2026-03-22T10:36:50Z</time></trkpt><trkpt lat="48.487138976296066" lon="-4.114549597072918"><ele>58.2</ele><time>2026-03-22T10:36:51Z</time></trkpt><trkpt lat="48.48712371772864" lon="-4.114439975880607"><ele>58.4</ele><time>2026-03-22T10:36:53Z</time></trkpt><trkpt lat="48.487064469352" lon="-4.1143643060611605"><ele>58.60000000000001</ele><time>2026-03-22T10:36:54Z</time></trkpt><trkpt lat="48.48699609809008" lon="-4.114246707598305"><ele>58.800000000000004</ele><time>2026-03-22T10:36:55Z</time></trkpt><trkpt lat="48.48692421466981" lon="-4.11414904747646"><ele>59.0</ele><time>2026-03-22T10:36:56Z</time></trkpt><trkpt lat="48.48687622099061" lon="-4.11399060548638"><ele>59.2</ele><time>2026-03-22T10:36:57Z</time></trkpt><trkpt lat="48.48685717147956" lon="-4.113840688020856"><ele>59.400000000000006</ele><time>2026-03-22T10:36:58Z</time></trkpt><trkpt lat="48.48683842087159" lon="-4.113684510056264"><ele>59.6</ele><time>2026-03-22T10:36:59Z</time></trkpt><trkpt lat="48.48683796297984" lon="-4.113538144188972"><ele>59.8</ele><time>2026-03-22T10:37:00Z</time></trkpt><trkpt lat="48.48685944858939" lon="-4.113437037047268"><ele>60.0</ele><time>2026-03-22T10:37:01Z</time></trkpt><trkpt lat="48.48693594416233" lon="-4.1133276171665685"><ele>60.0</ele><time>2026-03-22T10:37:03Z</time></trkpt><trkpt lat="48.48704116830921" lon="-4.1133468826108155"><ele>60.0</ele><time>2026-03-22T10:37:05Z</time></trkpt><trkpt lat="48.48706676631814" lon="-4.113498732692904"><ele>60.0</ele><time>2026-03-22T10:37:07Z</time></trkpt><trkpt lat="48.48714655792783" lon="-4.113418203915395"><ele>60.0</ele><time>2026-03-22T10:37:10Z</time></trkpt><trkpt lat="48.48717412661859" lon="-4.11329466966004"><ele>60.0</ele><time>2026-03-22T10:37:12Z</time></trkpt><trkpt lat="48.48722819538708" lon="-4.113236858718937"><ele>64.8</ele><time>2026-03-22T10:37:36Z</time></trkpt><trkpt lat="48.48723698275545" lon="-4.113132837597734"><ele>69.6</ele><time>2026-03-22T10:37:39.999Z</time></trkpt><trkpt lat="48.487222489075776" lon="-4.11298331254304"><ele>74.4</ele><time>2026-03-22T10:37:42.999Z</time></trkpt><trkpt lat="48.487210424703335" lon="-4.112806890485826"><ele>79.2</ele><time>2026-03-22T10:37:44.999Z</time></trkpt><trkpt lat="48.48721841606434" lon="-4.112698880987909"><ele>84.0</ele><time>2026-03-22T10:37:45.999Z</time></trkpt><trkpt lat="48.48723663305292" lon="-4.1125385727431105"><ele>85.33333333333333</ele><time>2026-03-22T10:37:47.999Z</time></trkpt><trkpt lat="48.48725044920643" lon="-4.112379580828758"><ele>86.66666666666667</ele><time>2026-03-22T10:37:49.999Z</time></trkpt><trkpt lat="48.48724166734138" lon="-4.112241743144355"><ele>88.0</ele><time>2026-03-22T10:37:52.999Z</time></trkpt><trkpt lat="48.48726139717752" lon="-4.112138557874619"><ele>89.33333333333334</ele><time>2026-03-22T10:37:55.999Z</time></trkpt><trkpt lat="48.48729721032124" lon="-4.112056245734728"><ele>90.66666666666667</ele><time>2026-03-22T10:38:01.999Z</time></trkpt><trkpt lat="48.4873815558984" lon="-4.112096096430579"><ele>92.0</ele><time>2026-03-22T10:38:03.999Z</time></trkpt><trkpt lat="48.48744704393687" lon="-4.112121612912179"><ele>92.0</ele><time>2026-03-22T10:38:04.999Z</time></trkpt><trkpt lat="48.48752346520976" lon="-4.112268960837679"><ele>92.0</ele><time>2026-03-22T10:38:06.999Z</time></trkpt><trkpt lat="48.487588159536436" lon="-4.112357700055285"><ele>92.0</ele><time>2026-03-22T10:38:08.999Z</time></trkpt><trkpt lat="48.48766653665555" lon="-4.112299902711843"><ele>92.0</ele><time>2026-03-22T10:38:24.999Z</time></trkpt><trkpt lat="48.487729496875474" lon="-4.112192465832031"><ele>92.0</ele><time>2026-03-22T10:38:27.999Z</time></trkpt><trkpt lat="48.48781209205562" lon="-4.1122186002685455"><ele>91.5</ele><time>2026-03-22T10:38:30.999Z</time></trkpt><trkpt lat="48.48793589458709" lon="-4.112294294035277"><ele>91.0</ele><time>2026-03-22T10:38:32.999Z</time></trkpt><trkpt lat="48.48802731386883" lon="-4.112355930891906"><ele>90.5</ele><time>2026-03-22T10:38:33.999Z</time></trkpt><trkpt lat="48.488127400337284" lon="-4.112436390148437"><ele>90.0</ele><time>2026-03-22T10:38:34.999Z</time></trkpt><trkpt lat="48.488235930012564" lon="-4.112544956710763"><ele>89.5</ele><time>2026-03-22T10:38:35.999Z</time></trkpt><trkpt lat="48.488354466196434" lon="-4.112644927743618"><ele>89.0</ele><time>2026-03-22T10:38:36.999Z</time></trkpt><trkpt lat="48.488457316024" lon="-4.112750990208081"><ele>88.5</ele><time>2026-03-22T10:38:37.999Z</time></trkpt><trkpt lat="48.48855437678587" lon="-4.112846001659049"><ele>88.0</ele><time>2026-03-22T10:38:38.999Z</time></trkpt><trkpt lat="48.48864493457335" lon="-4.112920668765733"><ele>88.0</ele><time>2026-03-22T10:38:39.999Z</time></trkpt><trkpt lat="48.48874314557286" lon="-4.112968717023986"><ele>88.0</ele><time>2026-03-22T10:38:40.999Z</time></trkpt><trkpt lat="48.488828996905426" lon="-4.112988428978726"><ele>88.0</ele><time>2026-03-22T10:38:41.999Z</time></trkpt><trkpt lat="48.48892222781202" lon="-4.112994983341379"><ele>88.0</ele><time>2026-03-22T10:38:42.999Z</time></trkpt><trkpt lat="48.48898544129431" lon="-4.11294321787785"><ele>88.0</ele><time>2026-03-22T10:38:43.999Z</time></trkpt><trkpt lat="48.48904562040219" lon="-4.112863156240338"><ele>88.0</ele><time>2026-03-22T10:38:44.999Z</time></trkpt><trkpt lat="48.48910971376846" lon="-4.112742921591133"><ele>87.5</ele><time>2026-03-22T10:38:45.999Z</time></trkpt><trkpt lat="48.48917896910893" lon="-4.112576421719704"><ele>87.0</ele><time>2026-03-22T10:38:46.999Z</time></trkpt><trkpt lat="48.48926348110479" lon="-4.112392883857658"><ele>86.5</ele><time>2026-03-22T10:38:47.999Z</time></trkpt><trkpt lat="48.48935591895125" lon="-4.112213708907091"><ele>86.0</ele><time>2026-03-22T10:38:48.999Z</time></trkpt><trkpt lat="48.48944972015261" lon="-4.1120340390763115"><ele>85.5</ele><time>2026-03-22T10:38:49.999Z</time></trkpt><trkpt lat="48.489539263925494" lon="-4.111872201902717"><ele>85.0</ele><time>2026-03-22T10:38:50.999Z</time></trkpt><trkpt lat="48.48960106128256" lon="-4.111701559154329"><ele>84.5</ele><time>2026-03-22T10:38:51.999Z</time></trkpt><trkpt lat="48.489649374300164" lon="-4.1115411700781825"><ele>84.0</ele><time>2026-03-22T10:38:52.998Z</time></trkpt><trkpt lat="48.489702226556" lon="-4.111386513319254"><ele>83.0</ele><time>2026-03-22T10:38:54Z</time></trkpt><trkpt lat="48.48975508111482" lon="-4.111298922674426"><ele>82.0</ele><time>2026-03-22T10:38:55Z</time></trkpt><trkpt lat="48.4898399582453" lon="-4.1112950076300026"><ele>81.0</ele><time>2026-03-22T10:38:57Z</time></trkpt><trkpt lat="48.48991654629362" lon="-4.1114378038740655"><ele>80.0</ele><time>2026-03-22T10:38:59Z</time></trkpt><trkpt lat="48.489962961068805" lon="-4.111544246702223"><ele>79.0</ele><time>2026-03-22T10:39:00Z</time></trkpt><trkpt lat="48.49003095454565" lon="-4.111660939475969"><ele>79.0</ele><time>2026-03-22T10:39:01Z</time></trkpt><trkpt lat="48.49012824406914" lon="-4.111764424538334"><ele>79.0</ele><time>2026-03-22T10:39:02Z</time></trkpt><trkpt lat="48.49025672636179" lon="-4.111842943644967"><ele>79.0</ele><time>2026-03-22T10:39:03Z</time></trkpt><trkpt lat="48.49036444997586" lon="-4.1119138331520775"><ele>79.0</ele><time>2026-03-22T10:39:04Z</time></trkpt><trkpt lat="48.49044782691368" lon="-4.112011512457907"><ele>76.75</ele><time>2026-03-22T10:39:05Z</time></trkpt><trkpt lat="48.49050255753759" lon="-4.11212462210035"><ele>74.5</ele><time>2026-03-22T10:39:06Z</time></trkpt><trkpt lat="48.490569016876435" lon="-4.112284523347505"><ele>72.25</ele><time>2026-03-22T10:39:07Z</time></trkpt><trkpt lat="48.49063861441792" lon="-4.1124906674319455"><ele>70.0</ele><time>2026-03-22T10:39:08Z</time></trkpt><trkpt lat="48.490710654758054" lon="-4.112700865354084"><ele>70.0</ele><time>2026-03-22T10:39:09Z</time></trkpt><trkpt lat="48.4907870512784" lon="-4.112873232424623"><ele>70.0</ele><time>2026-03-22T10:39:10Z</time></trkpt><trkpt lat="48.49085751658683" lon="-4.113000127411382"><ele>70.0</ele><time>2026-03-22T10:39:11Z</time></trkpt><trkpt lat="48.49095955658658" lon="-4.113064900409334"><ele>70.0</ele><time>2026-03-22T10:39:12Z</time></trkpt><trkpt lat="48.49107303271034" lon="-4.11313747856953"><ele>70.0</ele><time>2026-03-22T10:39:13Z</time></trkpt><trkpt lat="48.49118532034537" lon="-4.113251429362821"><ele>70.0</ele><time>2026-03-22T10:39:14Z</time></trkpt><trkpt lat="48.491286220899894" lon="-4.113391935970683"><ele>70.0</ele><time>2026-03-22T10:39:15Z</time></trkpt><trkpt lat="48.49136197953024" lon="-4.113507226721709"><ele>70.0</ele><time>2026-03-22T10:39:16Z</time></trkpt><trkpt lat="48.49140740851125" lon="-4.113587161968435"><ele>68.6</ele><time>2026-03-22T10:39:17Z</time></trkpt><trkpt lat="48.491443105727654" lon="-4.113724334080155"><ele>67.2</ele><time>2026-03-22T10:39:19Z</time></trkpt><trkpt lat="48.49143796551285" lon="-4.113834517288341"><ele>65.8</ele><time>2026-03-22T10:39:20Z</time></trkpt><trkpt lat="48.491401749990345" lon="-4.113976855346033"><ele>64.4</ele><time>2026-03-22T10:39:21Z</time></trkpt><trkpt lat="48.4913401714887" lon="-4.114125880213596"><ele>63.0</ele><time>2026-03-22T10:39:22Z</time></trkpt><trkpt lat="48.49126368474869" lon="-4.114245416170112"><ele>63.8</ele><time>2026-03-22T10:39:23Z</time></trkpt><trkpt lat="48.49120537014822" lon="-4.114326666639574"><ele>64.6</ele><time>2026-03-22T10:39:24Z</time></trkpt><trkpt lat="48.49109894217142" lon="-4.114388328441232"><ele>65.4</ele><time>2026-03-22T10:39:25Z</time></trkpt><trkpt lat="48.491015903932976" lon="-4.114465933902872"><ele>66.2</ele><time>2026-03-22T10:39:26Z</time></trkpt><trkpt lat="48.4909369525996" lon="-4.114543654084518"><ele>67.0</ele><time>2026-03-22T10:39:27Z</time></trkpt><trkpt lat="48.49087386992042" lon="-4.114645669882385"><ele>67.0</ele><time>2026-03-22T10:39:28Z</time></trkpt><trkpt lat="48.49081623897671" lon="-4.114783575110367"><ele>67.0</ele><time>2026-03-22T10:39:29Z</time></trkpt><trkpt lat="48.490741027485946" lon="-4.114910590529794"><ele>67.0</ele><time>2026-03-22T10:39:30Z</time></trkpt><trkpt lat="48.490655248247194" lon="-4.1150317074651355"><ele>67.0</ele><time>2026-03-22T10:39:31Z</time></trkpt><trkpt lat="48.490600329219134" lon="-4.115181112807456"><ele>66.4</ele><time>2026-03-22T10:39:32Z</time></trkpt><trkpt lat="48.49054876596896" lon="-4.115255595222125"><ele>65.80000000000001</ele><time>2026-03-22T10:39:33Z</time></trkpt><trkpt lat="48.49052853849284" lon="-4.115411739566604"><ele>65.2</ele><time>2026-03-22T10:39:34Z</time></trkpt><trkpt lat="48.4905304042142" lon="-4.115580704846977"><ele>64.60000000000001</ele><time>2026-03-22T10:39:35Z</time></trkpt><trkpt lat="48.490531667692885" lon="-4.115784622289478"><ele>64.0</ele><time>2026-03-22T10:39:36Z</time></trkpt><trkpt lat="48.490537839524634" lon="-4.115967442562608"><ele>63.2</ele><time>2026-03-22T10:39:37Z</time></trkpt><trkpt lat="48.49055543486218" lon="-4.116129039830078"><ele>62.400000000000006</ele><time>2026-03-22T10:39:38Z</time></trkpt><trkpt lat="48.49059868183726" lon="-4.116224185653984"><ele>61.6</ele><time>2026-03-22T10:39:39Z</time></trkpt><trkpt lat="48.49066966918322" lon="-4.116283343235828"><ele>60.8</ele><time>2026-03-22T10:39:40Z</time></trkpt><trkpt lat="48.49077566764843" lon="-4.116375728109939"><ele>60.0</ele><time>2026-03-22T10:39:41Z</time></trkpt><trkpt lat="48.49089245765324" lon="-4.116521173919688"><ele>58.5</ele><time>2026-03-22T10:39:42Z</time></trkpt><trkpt lat="48.490989320155755" lon="-4.116690384118977"><ele>57.0</ele><time>2026-03-22T10:39:43Z</time></trkpt><trkpt lat="48.491080708965555" lon="-4.1168329956455905"><ele>55.5</ele><time>2026-03-22T10:39:44Z</time></trkpt><trkpt lat="48.491177571301726" lon="-4.116971227177648"><ele>54.0</ele><time>2026-03-22T10:39:45Z</time></trkpt><trkpt lat="48.491282068007685" lon="-4.117085216301988"><ele>53.400000000000006</ele><time>2026-03-22T10:39:46Z</time></trkpt><trkpt lat="48.49139573325076" lon="-4.117172850681989"><ele>52.800000000000004</ele><time>2026-03-22T10:39:46.999Z</time></trkpt><trkpt lat="48.49150938567159" lon="-4.117232987079054"><ele>52.2</ele><time>2026-03-22T10:39:47.999Z</time></trkpt><trkpt lat="48.491601305598024" lon="-4.117294094411288"><ele>51.599999999999994</ele><time>2026-03-22T10:39:48.999Z</time></trkpt><trkpt lat="48.49165019976737" lon="-4.11739414487742"><ele>51.0</ele><time>2026-03-22T10:39:49.999Z</time></trkpt><trkpt lat="48.49166798505942" lon="-4.117490795825516"><ele>49.666666666666664</ele><time>2026-03-22T10:39:50.999Z</time></trkpt><trkpt lat="48.49165025488518" lon="-4.11759976077749"><ele>48.333333333333336</ele><time>2026-03-22T10:39:51.999Z</time></trkpt><trkpt lat="48.49160878945019" lon="-4.117722253900711"><ele>47.0</ele><time>2026-03-22T10:39:52.999Z</time></trkpt><trkpt lat="48.49156968225059" lon="-4.117799782751651"><ele>45.66666666666667</ele><time>2026-03-22T10:39:53.999Z</time></trkpt><trkpt lat="48.49150307420122" lon="-4.117859510895628"><ele>44.333333333333336</ele><time>2026-03-22T10:40:02.999Z</time></trkpt><trkpt lat="48.491456748915155" lon="-4.117790695831578"><ele>43.0</ele><time>2026-03-22T10:40:07.999Z</time></trkpt><trkpt lat="48.491428966502404" lon="-4.117674307977013"><ele>43.0</ele><time>2026-03-22T10:40:09.999Z</time></trkpt><trkpt lat="48.49136442259988" lon="-4.117503492552314"><ele>43.0</ele><time>2026-03-22T10:40:11.999Z</time></trkpt><trkpt lat="48.49129550367486" lon="-4.117395928910864"><ele>43.0</ele><time>2026-03-22T10:40:12.999Z</time></trkpt><trkpt lat="48.49123277137669" lon="-4.117331008489706"><ele>43.0</ele><time>2026-03-22T10:40:13.999Z</time></trkpt><trkpt lat="48.4911414815806" lon="-4.117223708015232"><ele>43.0</ele><time>2026-03-22T10:40:15.999Z</time></trkpt><trkpt lat="48.49107952613936" lon="-4.117081753203814"><ele>45.2</ele><time>2026-03-22T10:40:17.999Z</time></trkpt><trkpt lat="48.4910537209284" lon="-4.116980570053876"><ele>47.4</ele><time>2026-03-22T10:40:18.999Z</time></trkpt><trkpt lat="48.49099821611377" lon="-4.116815070753831"><ele>49.60000000000001</ele><time>2026-03-22T10:40:20.999Z</time></trkpt><trkpt lat="48.49094227052774" lon="-4.116756241294622"><ele>51.800000000000004</ele><time>2026-03-22T10:40:21.999Z</time></trkpt><trkpt lat="48.49087440254946" lon="-4.116656140808528"><ele>54.0</ele><time>2026-03-22T10:40:22.999Z</time></trkpt><trkpt lat="48.49080754293473" lon="-4.116559428888582"><ele>55.0</ele><time>2026-03-22T10:40:23.999Z</time></trkpt><trkpt lat="48.490761099673215" lon="-4.1164604925125365"><ele>56.0</ele><time>2026-03-22T10:40:24.999Z</time></trkpt><trkpt lat="48.490696348064475" lon="-4.116388383369392"><ele>57.0</ele><time>2026-03-22T10:40:25.999Z</time></trkpt><trkpt lat="48.49063293251937" lon="-4.116350840239851"><ele>58.0</ele><time>2026-03-22T10:40:27.999Z</time></trkpt><trkpt lat="48.49056549334961" lon="-4.116343055870984"><ele>59.0</ele><time>2026-03-22T10:40:29.999Z</time></trkpt><trkpt lat="48.49049999278704" lon="-4.116281076604734"><ele>60.0</ele><time>2026-03-22T10:40:33.999Z</time></trkpt><trkpt lat="48.49041721335377" lon="-4.11621802111186"><ele>61.2</ele><time>2026-03-22T10:40:35.999Z</time></trkpt><trkpt lat="48.490319757318176" lon="-4.116251761152396"><ele>62.4</ele><time>2026-03-22T10:40:37.999Z</time></trkpt><trkpt lat="48.490168490223994" lon="-4.116245226109102"><ele>63.599999999999994</ele><time>2026-03-22T10:40:39.999Z</time></trkpt><trkpt lat="48.49006891380654" lon="-4.116234926594106"><ele>64.8</ele><time>2026-03-22T10:40:40.999Z</time></trkpt><trkpt lat="48.48998480783481" lon="-4.116232485992233"><ele>66.0</ele><time>2026-03-22T10:40:41.999Z</time></trkpt><trkpt lat="48.4899013036479" lon="-4.116153930745777"><ele>66.0</ele><time>2026-03-22T10:40:43.999Z</time></trkpt><trkpt lat="48.489819659728575" lon="-4.11609081781928"><ele>66.0</ele><time>2026-03-22T10:40:46.999Z</time></trkpt><trkpt lat="48.48975668295767" lon="-4.116072999933732"><ele>66.0</ele><time>2026-03-22T10:40:48.999Z</time></trkpt><trkpt lat="48.4896519793614" lon="-4.116058633955774"><ele>66.0</ele><time>2026-03-22T10:40:50.999Z</time></trkpt><trkpt lat="48.48953129117407" lon="-4.116056435964138"><ele>66.0</ele><time>2026-03-22T10:40:52.999Z</time></trkpt><trkpt lat="48.489452291633256" lon="-4.116062382623478"><ele>66.83333333333333</ele><time>2026-03-22T10:40:53.999Z</time></trkpt><trkpt lat="48.489378590381655" lon="-4.116062315297582"><ele>67.66666666666667</ele><time>2026-03-22T10:40:54.999Z</time></trkpt><trkpt lat="48.48928235083034" lon="-4.116092278549083"><ele>68.5</ele><time>2026-03-22T10:40:56.999Z</time></trkpt><trkpt lat="48.48921701120147" lon="-4.116046621162174"><ele>69.33333333333334</ele><time>2026-03-22T10:40:57.999Z</time></trkpt><trkpt lat="48.48912803327204" lon="-4.115988901819937"><ele>70.16666666666667</ele><time>2026-03-22T10:40:58.999Z</time></trkpt><trkpt lat="48.48903968581915" lon="-4.115948147493084"><ele>71.0</ele><time>2026-03-22T10:41:00Z</time></trkpt><trkpt lat="48.488943287135925" lon="-4.115917904037225"><ele>71.0</ele><time>2026-03-22T10:41:01Z</time></trkpt><trkpt lat="48.48886179021612" lon="-4.11591704255513"><ele>71.0</ele><time>2026-03-22T10:41:02Z</time></trkpt><trkpt lat="48.48878469791729" lon="-4.115946933502561"><ele>71.0</ele><time>2026-03-22T10:41:03Z</time></trkpt><trkpt lat="48.48870132102849" lon="-4.115980833451383"><ele>71.0</ele><time>2026-03-22T10:41:04Z</time></trkpt><trkpt lat="48.48862192505864" lon="-4.115985572510835"><ele>71.0</ele><time>2026-03-22T10:41:06Z</time></trkpt><trkpt lat="48.48852636189744" lon="-4.116045815270219"><ele>71.0</ele><time>2026-03-22T10:41:09Z</time></trkpt><trkpt lat="48.48844538328983" lon="-4.116007527431631"><ele>70.66666666666667</ele><time>2026-03-22T10:41:10Z</time></trkpt><trkpt lat="48.488363044467036" lon="-4.115948249642278"><ele>70.33333333333334</ele><time>2026-03-22T10:41:11Z</time></trkpt><trkpt lat="48.48828255390019" lon="-4.115886043930651"><ele>70.0</ele><time>2026-03-22T10:41:12Z</time></trkpt><trkpt lat="48.48820972999344" lon="-4.115853940397653"><ele>69.66666666666667</ele><time>2026-03-22T10:41:13Z</time></trkpt><trkpt lat="48.48813604587062" lon="-4.115813488422229"><ele>69.33333333333333</ele><time>2026-03-22T10:41:14Z</time></trkpt><trkpt lat="48.48806930688023" lon="-4.115684526647567"><ele>69.0</ele><time>2026-03-22T10:41:25Z</time></trkpt><trkpt lat="48.488016663082135" lon="-4.115600394711595"><ele>69.0</ele><time>2026-03-22T10:41:26Z</time></trkpt><trkpt lat="48.48795253037789" lon="-4.1155448537951616"><ele>69.0</ele><time>2026-03-22T10:41:27Z</time></trkpt><trkpt lat="48.48789258097492" lon="-4.115490894579941"><ele>69.0</ele><time>2026-03-22T10:41:28Z</time></trkpt><trkpt lat="48.487791433247565" lon="-4.115371458753396"><ele>69.0</ele><time>2026-03-22T10:41:30Z</time></trkpt><trkpt lat="48.48774459305412" lon="-4.115300203450962"><ele>69.0</ele><time>2026-03-22T10:41:31Z</time></trkpt><trkpt lat="48.48767480310323" lon="-4.11524369228637"><ele>69.0</ele><time>2026-03-22T10:41:32Z</time></trkpt><trkpt lat="48.487603596782385" lon="-4.115211760186717"><ele>67.60000000000001</ele><time>2026-03-22T10:41:33Z</time></trkpt><trkpt lat="48.487518432381535" lon="-4.115185439824223"><ele>66.2</ele><time>2026-03-22T10:41:34Z</time></trkpt><trkpt lat="48.487434826085746" lon="-4.115154517802519"><ele>64.80000000000001</ele><time>2026-03-22T10:41:35Z</time></trkpt><trkpt lat="48.48735598542673" lon="-4.115145022950196"><ele>63.400000000000006</ele><time>2026-03-22T10:41:36Z</time></trkpt><trkpt lat="48.4872600802833" lon="-4.115094503023683"><ele>62.0</ele><time>2026-03-22T10:41:38Z</time></trkpt><trkpt lat="48.48720234689355" lon="-4.114946451100118"><ele>61.50000000000001</ele><time>2026-03-22T10:41:40Z</time></trkpt><trkpt lat="48.48719547625654" lon="-4.114842784034356"><ele>61.0</ele><time>2026-03-22T10:41:41Z</time></trkpt><trkpt lat="48.48718394716102" lon="-4.114692734452302"><ele>60.5</ele><time>2026-03-22T10:41:42Z</time></trkpt><trkpt lat="48.48716770235409" lon="-4.114585063561906"><ele>60.0</ele><time>2026-03-22T10:41:43Z</time></trkpt><trkpt lat="48.487093565661475" lon="-4.114503756183286"><ele>59.50000000000001</ele><time>2026-03-22T10:41:44Z</time></trkpt><trkpt lat="48.48705672209797" lon="-4.1143730678183426"><ele>59.0</ele><time>2026-03-22T10:41:46Z</time></trkpt><trkpt lat="48.486991734115826" lon="-4.114263757307153"><ele>59.0</ele><time>2026-03-22T10:41:46.999Z</time></trkpt><trkpt lat="48.48692664747677" lon="-4.114135188231557"><ele>59.00000000000001</ele><time>2026-03-22T10:41:47.999Z</time></trkpt><trkpt lat="48.486883772761125" lon="-4.113974546461204"><ele>59.00000000000001</ele><time>2026-03-22T10:41:48.999Z</time></trkpt><trkpt lat="48.48684866665981" lon="-4.113829740314555"><ele>59.0</ele><time>2026-03-22T10:41:49.999Z</time></trkpt><trkpt lat="48.48682632894839" lon="-4.113668036094117"><ele>59.0</ele><time>2026-03-22T10:41:50.999Z</time></trkpt><trkpt lat="48.48681462183921" lon="-4.113539373933085"><ele>59.16666666666667</ele><time>2026-03-22T10:41:51.999Z</time></trkpt><trkpt lat="48.486844008989856" lon="-4.113428064354402"><ele>59.333333333333336</ele><time>2026-03-22T10:41:52.999Z</time></trkpt><trkpt lat="48.48687114092401" lon="-4.113334785486343"><ele>59.5</ele><time>2026-03-22T10:41:53.999Z</time></trkpt><trkpt lat="48.4868821640043" lon="-4.113215693367167"><ele>59.66666666666667</ele><time>2026-03-22T10:41:54.999Z</time></trkpt><trkpt lat="48.48689630397133" lon="-4.113090274610703"><ele>59.833333333333336</ele><time>2026-03-22T10:41:55.999Z</time></trkpt><trkpt lat="48.486891901824976" lon="-4.112975382120337"><ele>60.0</ele><time>2026-03-22T10:41:56.999Z</time></trkpt><trkpt lat="48.48685480564525" lon="-4.112835075578843"><ele>60.75</ele><time>2026-03-22T10:41:57.999Z</time></trkpt><trkpt lat="48.486788449323726" lon="-4.112690169226105"><ele>61.5</ele><time>2026-03-22T10:41:58.999Z</time></trkpt><trkpt lat="48.486694551036116" lon="-4.112556660798753"><ele>62.25</ele><time>2026-03-22T10:41:59.999Z</time></trkpt><trkpt lat="48.48661553956072" lon="-4.112426524887471"><ele>63.0</ele><time>2026-03-22T10:42:00.999Z</time></trkpt><trkpt lat="48.48656171903784" lon="-4.112267681753044"><ele>64.6</ele><time>2026-03-22T10:42:01.999Z</time></trkpt><trkpt lat="48.48650019498761" lon="-4.112138784907218"><ele>66.19999999999999</ele><time>2026-03-22T10:42:02.999Z</time></trkpt><trkpt lat="48.48643499327539" lon="-4.112053955761831"><ele>67.8</ele><time>2026-03-22T10:42:03.999Z</time></trkpt><trkpt lat="48.48637755153032" lon="-4.111958944240992"><ele>69.39999999999999</ele><time>2026-03-22T10:42:04.999Z</time></trkpt><trkpt lat="48.48634018932568" lon="-4.111787515181335"><ele>71.0</ele><time>2026-03-22T10:42:05.999Z</time></trkpt><trkpt lat="48.486322216516534" lon="-4.111619126986344"><ele>70.2</ele><time>2026-03-22T10:42:06.999Z</time></trkpt><trkpt lat="48.486304788960275" lon="-4.111445366417033"><ele>69.39999999999999</ele><time>2026-03-22T10:42:07.999Z</time></trkpt><trkpt lat="48.48630894900598" lon="-4.11128581468525"><ele>68.6</ele><time>2026-03-22T10:42:08.999Z</time></trkpt><trkpt lat="48.48628333382936" lon="-4.111151858937577"><ele>67.8</ele><time>2026-03-22T10:42:09.999Z</time></trkpt><trkpt lat="48.486221159043225" lon="-4.111046786344349"><ele>67.0</ele><time>2026-03-22T10:42:10.999Z</time></trkpt><trkpt lat="48.4861508094289" lon="-4.110969612019745"><ele>67.0</ele><time>2026-03-22T10:42:11.999Z</time></trkpt><trkpt lat="48.48604580845151" lon="-4.110843273356088"><ele>67.0</ele><time>2026-03-22T10:42:13.999Z</time></trkpt><trkpt lat="48.485957248761004" lon="-4.110782726850876"><ele>67.0</ele><time>2026-03-22T10:42:14.999Z</time></trkpt><trkpt lat="48.485886421193506" lon="-4.1107410211611555"><ele>67.0</ele><time>2026-03-22T10:42:15.999Z</time></trkpt><trkpt lat="48.48577424830098" lon="-4.1107474082222275"><ele>67.0</ele><time>2026-03-22T10:42:17.999Z</time></trkpt><trkpt lat="48.48573092005371" lon="-4.110625721238849"><ele>67.75</ele><time>2026-03-22T10:42:20.999Z</time></trkpt><trkpt lat="48.48565578251935" lon="-4.110543720825384"><ele>68.5</ele><time>2026-03-22T10:42:22.999Z</time></trkpt><trkpt lat="48.48556260017829" lon="-4.110452173631754"><ele>69.25</ele><time>2026-03-22T10:42:23.999Z</time></trkpt><trkpt lat="48.48544032677115" lon="-4.11036599961954"><ele>70.0</ele><time>2026-03-22T10:42:24.999Z</time></trkpt><trkpt lat="48.485308130251035" lon="-4.110282666565191"><ele>70.0</ele><time>2026-03-22T10:42:25.999Z</time></trkpt><trkpt lat="48.48521172519658" lon="-4.110146612514378"><ele>70.0</ele><time>2026-03-22T10:42:26.999Z</time></trkpt><trkpt lat="48.48510025942164" lon="-4.11010209452885"><ele>70.0</ele><time>2026-03-22T10:42:27.999Z</time></trkpt><trkpt lat="48.485006052322404" lon="-4.110036293744763"><ele>70.0</ele><time>2026-03-22T10:42:28.999Z</time></trkpt><trkpt lat="48.48492681158394" lon="-4.109941866187328"><ele>71.6</ele><time>2026-03-22T10:42:29.999Z</time></trkpt><trkpt lat="48.48484695166554" lon="-4.109884924827463"><ele>73.2</ele><time>2026-03-22T10:42:30.999Z</time></trkpt><trkpt lat="48.484716307791665" lon="-4.109906804301247"><ele>74.8</ele><time>2026-03-22T10:42:32.999Z</time></trkpt><trkpt lat="48.48465256509896" lon="-4.109888654742423"><ele>76.4</ele><time>2026-03-22T10:42:33.999Z</time></trkpt><trkpt lat="48.48459272024137" lon="-4.109832329270843"><ele>78.0</ele><time>2026-03-22T10:42:34.999Z</time></trkpt><trkpt lat="48.4844911479368" lon="-4.109792268487281"><ele>78.0</ele><time>2026-03-22T10:42:36.999Z</time></trkpt><trkpt lat="48.48441244491721" lon="-4.109742340100841"><ele>78.0</ele><time>2026-03-22T10:42:38.999Z</time></trkpt><trkpt lat="48.48435779088434" lon="-4.1098268498311565"><ele>78.0</ele><time>2026-03-22T10:42:42.999Z</time></trkpt><trkpt lat="48.48430568542764" lon="-4.109901517284014"><ele>78.0</ele><time>2026-03-22T10:42:44.999Z</time></trkpt><trkpt lat="48.48421557309072" lon="-4.109931909054564"><ele>78.0</ele><time>2026-03-22T10:42:46.999Z</time></trkpt><trkpt lat="48.484134295127376" lon="-4.1099078064104"><ele>78.0</ele><time>2026-03-22T10:42:47.999Z</time></trkpt><trkpt lat="48.484033387322725" lon="-4.109974537005195"><ele>77.83333333333333</ele><time>2026-03-22T10:42:48.999Z</time></trkpt><trkpt lat="48.483938095524685" lon="-4.110048850297712"><ele>77.66666666666667</ele><time>2026-03-22T10:42:50.999Z</time></trkpt><trkpt lat="48.483860222179274" lon="-4.110020676830673"><ele>77.5</ele><time>2026-03-22T10:42:52.999Z</time></trkpt><trkpt lat="48.483785586567514" lon="-4.109957194360924"><ele>77.33333333333334</ele><time>2026-03-22T10:42:55.999Z</time></trkpt><trkpt lat="48.48369511021838" lon="-4.109924413236893"><ele>77.16666666666667</ele><time>2026-03-22T10:42:58.999Z</time></trkpt><trkpt lat="48.48364161105341" lon="-4.10984013809066"><ele>77.0</ele><time>2026-03-22T10:43:08Z</time></trkpt><trkpt lat="48.48357860537811" lon="-4.1098109326400385"><ele>76.0</ele><time>2026-03-22T10:43:09Z</time></trkpt><trkpt lat="48.483470739963636" lon="-4.109797838426838"><ele>75.0</ele><time>2026-03-22T10:43:11Z</time></trkpt><trkpt lat="48.483383592440234" lon="-4.109724766168161"><ele>74.0</ele><time>2026-03-22T10:43:13Z</time></trkpt><trkpt lat="48.48328524895256" lon="-4.109725028164934"><ele>73.0</ele><time>2026-03-22T10:43:15Z</time></trkpt><trkpt lat="48.48321674367892" lon="-4.109671914534516"><ele>72.0</ele><time>2026-03-22T10:43:16Z</time></trkpt><trkpt lat="48.483147761991276" lon="-4.109615468247007"><ele>72.0</ele><time>2026-03-22T10:43:17Z</time></trkpt><trkpt lat="48.48306659148334" lon="-4.109566069213477"><ele>72.0</ele><time>2026-03-22T10:43:18Z</time></trkpt><trkpt lat="48.482985195345215" lon="-4.109489462335379"><ele>72.0</ele><time>2026-03-22T10:43:19Z</time></trkpt><trkpt lat="48.482887486422854" lon="-4.10944387806985"><ele>72.0</ele><time>2026-03-22T10:43:21Z</time></trkpt><trkpt lat="48.48279956928719" lon="-4.1093248173966455"><ele>72.0</ele><time>2026-03-22T10:43:23Z</time></trkpt><trkpt lat="48.482691569949495" lon="-4.10918100750516"><ele>72.33333333333333</ele><time>2026-03-22T10:43:25Z</time></trkpt><trkpt lat="48.482623618227" lon="-4.109124459807864"><ele>72.66666666666667</ele><time>2026-03-22T10:43:26Z</time></trkpt><trkpt lat="48.48255899955083" lon="-4.10905593369682"><ele>73.0</ele><time>2026-03-22T10:43:27Z</time></trkpt><trkpt lat="48.482455230478664" lon="-4.108993550367989"><ele>73.33333333333334</ele><time>2026-03-22T10:43:29Z</time></trkpt><trkpt lat="48.482361683179654" lon="-4.109013925015956"><ele>73.66666666666667</ele><time>2026-03-22T10:43:30Z</time></trkpt><trkpt lat="48.48228901249049" lon="-4.109022566167078"><ele>74.0</ele><time>2026-03-22T10:43:31Z</time></trkpt><trkpt lat="48.48220661083168" lon="-4.108975933362811"><ele>74.0</ele><time>2026-03-22T10:43:32Z</time></trkpt><trkpt lat="48.48211408494626" lon="-4.108905500561247"><ele>74.0</ele><time>2026-03-22T10:43:33Z</time></trkpt><trkpt lat="48.48204471196259" lon="-4.1088517477226505"><ele>74.0</ele><time>2026-03-22T10:43:34Z</time></trkpt><trkpt lat="48.481980112358215" lon="-4.10880206200575"><ele>74.0</ele><time>2026-03-22T10:43:35Z</time></trkpt><trkpt lat="48.48189839352338" lon="-4.108782806008106"><ele>74.0</ele><time>2026-03-22T10:43:36Z</time></trkpt><trkpt lat="48.48181544407616" lon="-4.1087014485150615"><ele>74.0</ele><time>2026-03-22T10:43:37Z</time></trkpt><trkpt lat="48.48173830796296" lon="-4.108614174839472"><ele>74.5</ele><time>2026-03-22T10:43:38Z</time></trkpt><trkpt lat="48.48167558148395" lon="-4.1085741569942416"><ele>75.0</ele><time>2026-03-22T10:43:39Z</time></trkpt><trkpt lat="48.48158156358744" lon="-4.108516604513928"><ele>75.5</ele><time>2026-03-22T10:43:40Z</time></trkpt><trkpt lat="48.48151389934451" lon="-4.108424267066621"><ele>76.0</ele><time>2026-03-22T10:43:41Z</time></trkpt><trkpt lat="48.4814607613312" lon="-4.108335757245106"><ele>76.5</ele><time>2026-03-22T10:43:42Z</time></trkpt><trkpt lat="48.48139131482305" lon="-4.108282018065441"><ele>77.0</ele><time>2026-03-22T10:43:43Z</time></trkpt><trkpt lat="48.481319377826466" lon="-4.108248058254617"><ele>78.5</ele><time>2026-03-22T10:43:44Z</time></trkpt><trkpt lat="48.481265159411116" lon="-4.1081822973084146"><ele>80.0</ele><time>2026-03-22T10:43:45Z</time></trkpt><trkpt lat="48.48125178558231" lon="-4.1080710176667985"><ele>81.5</ele><time>2026-03-22T10:43:46Z</time></trkpt><trkpt lat="48.481237247063675" lon="-4.10796630253763"><ele>83.0</ele><time>2026-03-22T10:43:47Z</time></trkpt><trkpt lat="48.48120590581535" lon="-4.107864361781222"><ele>84.5</ele><time>2026-03-22T10:43:48Z</time></trkpt><trkpt lat="48.481123939306215" lon="-4.107822220408907"><ele>86.0</ele><time>2026-03-22T10:43:50Z</time></trkpt><trkpt lat="48.48105565292535" lon="-4.10768093506711"><ele>86.0</ele><time>2026-03-22T10:43:52Z</time></trkpt><trkpt lat="48.48104302086465" lon="-4.10758015648243"><ele>86.0</ele><time>2026-03-22T10:43:53Z</time></trkpt><trkpt lat="48.48099439861585" lon="-4.1074874048655605"><ele>86.0</ele><time>2026-03-22T10:43:55Z</time></trkpt><trkpt lat="48.48093240367585" lon="-4.107445213806696"><ele>86.0</ele><time>2026-03-22T10:43:55.999Z</time></trkpt><trkpt lat="48.48082046391189" lon="-4.107348906572309"><ele>86.0</ele><time>2026-03-22T10:43:57.999Z</time></trkpt><trkpt lat="48.48075122496622" lon="-4.107277556760755"><ele>86.0</ele><time>2026-03-22T10:43:58.999Z</time></trkpt><trkpt lat="48.48070563140296" lon="-4.107210052656903"><ele>85.6</ele><time>2026-03-22T10:43:59.999Z</time></trkpt><trkpt lat="48.48063594807549" lon="-4.10708293176737"><ele>85.19999999999999</ele><time>2026-03-22T10:44:01.999Z</time></trkpt><trkpt lat="48.480531421593064" lon="-4.107054405575882"><ele>84.80000000000001</ele><time>2026-03-22T10:44:03.999Z</time></trkpt><trkpt lat="48.480452393211074" lon="-4.107049905035977"><ele>84.4</ele><time>2026-03-22T10:44:04.999Z</time></trkpt><trkpt lat="48.480378000395476" lon="-4.107023251856447"><ele>84.0</ele><time>2026-03-22T10:44:06.999Z</time></trkpt><trkpt lat="48.48032052298269" lon="-4.106860736291932"><ele>84.16666666666667</ele><time>2026-03-22T10:44:08.999Z</time></trkpt><trkpt lat="48.48027732446241" lon="-4.106789344459544"><ele>84.33333333333333</ele><time>2026-03-22T10:44:09.999Z</time></trkpt><trkpt lat="48.480230744500304" lon="-4.106697892639528"><ele>84.5</ele><time>2026-03-22T10:44:11.999Z</time></trkpt><trkpt lat="48.4801683027873" lon="-4.106612802206605"><ele>84.66666666666666</ele><time>2026-03-22T10:44:13.999Z</time></trkpt><trkpt lat="48.480083429096666" lon="-4.106608981283508"><ele>84.83333333333333</ele><time>2026-03-22T10:44:15.999Z</time></trkpt><trkpt lat="48.479976645413295" lon="-4.10659273037035"><ele>85.0</ele><time>2026-03-22T10:44:17.999Z</time></trkpt><trkpt lat="48.479916236661744" lon="-4.106543186653185"><ele>85.0</ele><time>2026-03-22T10:44:19.999Z</time></trkpt><trkpt lat="48.479860231091514" lon="-4.106454249492882"><ele>85.0</ele><time>2026-03-22T10:45:15Z</time></trkpt><trkpt lat="48.47979773200582" lon="-4.106350919765073"><ele>85.0</ele><time>2026-03-22T10:45:17Z</time></trkpt><trkpt lat="48.47971384731178" lon="-4.106266661581036"><ele>85.0</ele><time>2026-03-22T10:45:19Z</time></trkpt><trkpt lat="48.47958524123346" lon="-4.106229378973837"><ele>85.0</ele><time>2026-03-22T10:45:21Z</time></trkpt><trkpt lat="48.47944716224397" lon="-4.106171122391417"><ele>85.5</ele><time>2026-03-22T10:45:23Z</time></trkpt><trkpt lat="48.47937374159764" lon="-4.10613092329905"><ele>86.0</ele><time>2026-03-22T10:45:24Z</time></trkpt><trkpt lat="48.47931540633051" lon="-4.106054764100213"><ele>86.5</ele><time>2026-03-22T10:45:25Z</time></trkpt><trkpt lat="48.47924463488233" lon="-4.106036645331632"><ele>87.0</ele><time>2026-03-22T10:45:26Z</time></trkpt><trkpt lat="48.47918418650046" lon="-4.10600790790498"><ele>87.5</ele><time>2026-03-22T10:45:27Z</time></trkpt><trkpt lat="48.4791198044318" lon="-4.105901639063939"><ele>88.0</ele><time>2026-03-22T10:45:29Z</time></trkpt><trkpt lat="48.47908284364707" lon="-4.105798382857934"><ele>87.80000000000001</ele><time>2026-03-22T10:45:30Z</time></trkpt><trkpt lat="48.47903411223528" lon="-4.105682607472629"><ele>87.6</ele><time>2026-03-22T10:45:31Z</time></trkpt><trkpt lat="48.478980280371566" lon="-4.105546475020506"><ele>87.4</ele><time>2026-03-22T10:45:33Z</time></trkpt><trkpt lat="48.478870520144255" lon="-4.105407299690801"><ele>87.19999999999999</ele><time>2026-03-22T10:45:35Z</time></trkpt><trkpt lat="48.47878865773713" lon="-4.105347814471141"><ele>87.0</ele><time>2026-03-22T10:45:36Z</time></trkpt><trkpt lat="48.478708933675236" lon="-4.1052682161926715"><ele>87.0</ele><time>2026-03-22T10:45:37Z</time></trkpt><trkpt lat="48.4786590295619" lon="-4.105199070554644"><ele>87.0</ele><time>2026-03-22T10:45:38Z</time></trkpt><trkpt lat="48.478581078224465" lon="-4.10510480542178"><ele>87.0</ele><time>2026-03-22T10:45:40Z</time></trkpt><trkpt lat="48.478563335760626" lon="-4.1052257018421425"><ele>87.0</ele><time>2026-03-22T10:45:56Z</time></trkpt><trkpt lat="48.478607809881794" lon="-4.1054110881682115"><ele>87.0</ele><time>2026-03-22T10:45:58Z</time></trkpt><trkpt lat="48.4786401129475" lon="-4.105523763381993"><ele>87.0</ele><time>2026-03-22T10:45:59Z</time></trkpt><trkpt lat="48.4786815428015" lon="-4.105660437170818"><ele>87.0</ele><time>2026-03-22T10:46:00Z</time></trkpt><trkpt lat="48.4786982475723" lon="-4.1057764896899105"><ele>87.0</ele><time>2026-03-22T10:46:01Z</time></trkpt><trkpt lat="48.478729432624064" lon="-4.105878487247626"><ele>87.0</ele><time>2026-03-22T10:46:01.999Z</time></trkpt><trkpt lat="48.478755916812005" lon="-4.106001612731926"><ele>87.0</ele><time>2026-03-22T10:46:02.999Z</time></trkpt><trkpt lat="48.478804331800674" lon="-4.106112517398961"><ele>87.0</ele><time>2026-03-22T10:46:03.999Z</time></trkpt><trkpt lat="48.47887501448576" lon="-4.1062053007773605"><ele>87.19999999999999</ele><time>2026-03-22T10:46:05.999Z</time></trkpt><trkpt lat="48.4788132993681" lon="-4.10629018438527"><ele>87.4</ele><time>2026-03-22T10:46:07.999Z</time></trkpt><trkpt lat="48.47883619777583" lon="-4.1064214502387175"><ele>87.6</ele><time>2026-03-22T10:46:11.999Z</time></trkpt><trkpt lat="48.478865098810026" lon="-4.10658289079336"><ele>87.80000000000001</ele><time>2026-03-22T10:46:13.999Z</time></trkpt><trkpt lat="48.478886836834" lon="-4.10667235213793"><ele>88.0</ele><time>2026-03-22T10:46:14.999Z</time></trkpt><trkpt lat="48.478981033124555" lon="-4.106794503982939"><ele>91.33333333333333</ele><time>2026-03-22T10:46:16.999Z</time></trkpt><trkpt lat="48.47898957924034" lon="-4.106911574140581"><ele>94.66666666666666</ele><time>2026-03-22T10:46:18.999Z</time></trkpt><trkpt lat="48.47895988288322" lon="-4.106996135626129"><ele>98.0</ele><time>2026-03-22T10:46:22.999Z</time></trkpt><trkpt lat="48.47887500560921" lon="-4.106977721733593"><ele>101.33333333333333</ele><time>2026-03-22T10:50:24.999Z</time></trkpt><trkpt lat="48.478772113861496" lon="-4.106918344287672"><ele>104.66666666666667</ele><time>2026-03-22T10:50:26.999Z</time></trkpt><trkpt lat="48.47870558829662" lon="-4.106895070265403"><ele>108.0</ele><time>2026-03-22T10:50:27.999Z</time></trkpt><trkpt lat="48.47860945570355" lon="-4.106854085024795"><ele>106.83333333333333</ele><time>2026-03-22T10:50:28.999Z</time></trkpt><trkpt lat="48.478512181434624" lon="-4.106788313698822"><ele>105.66666666666666</ele><time>2026-03-22T10:50:29.999Z</time></trkpt><trkpt lat="48.478439209557656" lon="-4.106738816067748"><ele>104.5</ele><time>2026-03-22T10:50:30.999Z</time></trkpt><trkpt lat="48.478397791721044" lon="-4.10666120823038"><ele>103.33333333333333</ele><time>2026-03-22T10:50:31.999Z</time></trkpt><trkpt lat="48.47833816309491" lon="-4.106582994503171"><ele>102.16666666666666</ele><time>2026-03-22T10:50:32.999Z</time></trkpt><trkpt lat="48.47827421379218" lon="-4.106463340950924"><ele>101.0</ele><time>2026-03-22T10:50:34.999Z</time></trkpt><trkpt lat="48.47826243876625" lon="-4.106345067233808"><ele>100.99999999999999</ele><time>2026-03-22T10:50:36.999Z</time></trkpt><trkpt lat="48.47820857513707" lon="-4.106265726300129"><ele>101.0</ele><time>2026-03-22T10:50:39.999Z</time></trkpt><trkpt lat="48.478126793746014" lon="-4.106345091669563"><ele>101.0</ele><time>2026-03-22T10:50:41.999Z</time></trkpt><trkpt lat="48.47806631536929" lon="-4.106376425649205"><ele>101.0</ele><time>2026-03-22T10:50:43.999Z</time></trkpt><trkpt lat="48.477947139536816" lon="-4.106376333898791"><ele>100.99999999999999</ele><time>2026-03-22T10:50:45.999Z</time></trkpt><trkpt lat="48.47785959156497" lon="-4.106402459626171"><ele>101.0</ele><time>2026-03-22T10:50:47.999Z</time></trkpt><trkpt lat="48.4777808907512" lon="-4.1064372437153285"><ele>102.16666666666666</ele><time>2026-03-22T10:51:14.999Z</time></trkpt><trkpt lat="48.47770658621305" lon="-4.106517946291555"><ele>103.33333333333333</ele><time>2026-03-22T10:51:16.999Z</time></trkpt><trkpt lat="48.477622144399064" lon="-4.106565416677888"><ele>104.5</ele><time>2026-03-22T10:51:18.999Z</time></trkpt><trkpt lat="48.477563623456355" lon="-4.106658995236337"><ele>105.66666666666666</ele><time>2026-03-22T10:51:20.999Z</time></trkpt><trkpt lat="48.47753693297892" lon="-4.106749700790982"><ele>106.83333333333333</ele><time>2026-03-22T10:51:23.999Z</time></trkpt><trkpt lat="48.47747187331562" lon="-4.106794593824753"><ele>108.0</ele><time>2026-03-22T10:51:28.998Z</time></trkpt><trkpt lat="48.47743243272247" lon="-4.106899317789003"><ele>108.0</ele><time>2026-03-22T10:51:31Z</time></trkpt><trkpt lat="48.47736277082436" lon="-4.107052645621723"><ele>108.0</ele><time>2026-03-22T10:51:33Z</time></trkpt><trkpt lat="48.47733397139663" lon="-4.10715356746974"><ele>108.0</ele><time>2026-03-22T10:51:35Z</time></trkpt><trkpt lat="48.47727321408402" lon="-4.107255839418282"><ele>108.0</ele><time>2026-03-22T10:51:37Z</time></trkpt><trkpt lat="48.47726746178847" lon="-4.107370634608342"><ele>108.0</ele><time>2026-03-22T10:51:41Z</time></trkpt><trkpt lat="48.47722717610214" lon="-4.107470660751543"><ele>108.0</ele><time>2026-03-22T10:51:44Z</time></trkpt><trkpt lat="48.47710332195" lon="-4.107533056860189"><ele>107.16666666666667</ele><time>2026-03-22T10:51:47Z</time></trkpt><trkpt lat="48.47702683747781" lon="-4.10760077957709"><ele>106.33333333333334</ele><time>2026-03-22T10:51:48Z</time></trkpt><trkpt lat="48.47696400788184" lon="-4.107619888593272"><ele>105.5</ele><time>2026-03-22T10:51:50Z</time></trkpt><trkpt lat="48.47691674317461" lon="-4.1075494451478605"><ele>104.66666666666667</ele><time>2026-03-22T10:51:51Z</time></trkpt><trkpt lat="48.47686147596157" lon="-4.107490881241834"><ele>103.83333333333334</ele><time>2026-03-22T10:51:52Z</time></trkpt><trkpt lat="48.476817378206455" lon="-4.107399350972968"><ele>103.0</ele><time>2026-03-22T10:51:54Z</time></trkpt><trkpt lat="48.476726922623314" lon="-4.107393637108078"><ele>101.0</ele><time>2026-03-22T10:51:57Z</time></trkpt><trkpt lat="48.47664322235309" lon="-4.107381359709728"><ele>99.0</ele><time>2026-03-22T10:51:59Z</time></trkpt><trkpt lat="48.476535409627736" lon="-4.1073746327967156"><ele>97.0</ele><time>2026-03-22T10:52:00Z</time></trkpt><trkpt lat="48.47641147121863" lon="-4.10735619863408"><ele>95.0</ele><time>2026-03-22T10:52:01Z</time></trkpt><trkpt lat="48.476312989662205" lon="-4.107340836827056"><ele>93.0</ele><time>2026-03-22T10:52:02Z</time></trkpt><trkpt lat="48.47622819607976" lon="-4.107357991486283"><ele>93.0</ele><time>2026-03-22T10:52:03Z</time></trkpt><trkpt lat="48.476151905993895" lon="-4.107343286158083"><ele>93.0</ele><time>2026-03-22T10:52:04Z</time></trkpt><trkpt lat="48.47609026214884" lon="-4.107288469433874"><ele>93.0</ele><time>2026-03-22T10:52:05Z</time></trkpt><trkpt lat="48.47599963310173" lon="-4.10726003813909"><ele>93.0</ele><time>2026-03-22T10:52:06Z</time></trkpt><trkpt lat="48.47591846029912" lon="-4.107252816460119"><ele>93.0</ele><time>2026-03-22T10:52:07Z</time></trkpt><trkpt lat="48.475848812966994" lon="-4.1072559901363626"><ele>93.0</ele><time>2026-03-22T10:52:08Z</time></trkpt><trkpt lat="48.47578509455772" lon="-4.107303408395672"><ele>93.0</ele><time>2026-03-22T10:52:09Z</time></trkpt><trkpt lat="48.47569265552775" lon="-4.107342190496277"><ele>93.0</ele><time>2026-03-22T10:52:10Z</time></trkpt><trkpt lat="48.475560326188486" lon="-4.107350561270535"><ele>93.0</ele><time>2026-03-22T10:52:11Z</time></trkpt><trkpt lat="48.475460708535074" lon="-4.107328578513966"><ele>93.0</ele><time>2026-03-22T10:52:12Z</time></trkpt><trkpt lat="48.475354613168705" lon="-4.107346618481567"><ele>93.0</ele><time>2026-03-22T10:52:13Z</time></trkpt><trkpt lat="48.47523473120146" lon="-4.107350403333208"><ele>93.25</ele><time>2026-03-22T10:52:13.999Z</time></trkpt><trkpt lat="48.475118168339144" lon="-4.1073368816652005"><ele>93.5</ele><time>2026-03-22T10:52:14.999Z</time></trkpt><trkpt lat="48.475010739954605" lon="-4.1073256207585915"><ele>93.75</ele><time>2026-03-22T10:52:15.999Z</time></trkpt><trkpt lat="48.47491524060842" lon="-4.107328779439146"><ele>94.0</ele><time>2026-03-22T10:52:16.999Z</time></trkpt><trkpt lat="48.47475127551235" lon="-4.107387736911382"><ele>94.33333333333333</ele><time>2026-03-22T10:52:18.999Z</time></trkpt><trkpt lat="48.474686841517475" lon="-4.107443266402687"><ele>94.66666666666666</ele><time>2026-03-22T10:52:19.999Z</time></trkpt><trkpt lat="48.47461139244254" lon="-4.107483438692487"><ele>95.0</ele><time>2026-03-22T10:52:20.999Z</time></trkpt><trkpt lat="48.474540162979885" lon="-4.107508447464687"><ele>95.33333333333333</ele><time>2026-03-22T10:52:21.999Z</time></trkpt><trkpt lat="48.47446035129237" lon="-4.107572892640604"><ele>95.66666666666667</ele><time>2026-03-22T10:52:23.999Z</time></trkpt><trkpt lat="48.474360823596186" lon="-4.107659552321404"><ele>96.0</ele><time>2026-03-22T10:52:24.999Z</time></trkpt><trkpt lat="48.474297117215805" lon="-4.1077358075873605"><ele>95.25</ele><time>2026-03-22T10:52:25.999Z</time></trkpt><trkpt lat="48.47427888637027" lon="-4.107848071094374"><ele>94.5</ele><time>2026-03-22T10:52:26.999Z</time></trkpt><trkpt lat="48.47424633394803" lon="-4.108011496350323"><ele>93.75</ele><time>2026-03-22T10:52:27.999Z</time></trkpt><trkpt lat="48.47421872457121" lon="-4.108220094909842"><ele>93.0</ele><time>2026-03-22T10:52:28.999Z</time></trkpt><trkpt lat="48.47416993707565" lon="-4.108423002312151"><ele>93.0</ele><time>2026-03-22T10:52:29.999Z</time></trkpt><trkpt lat="48.47412718584287" lon="-4.108596088220746"><ele>93.0</ele><time>2026-03-22T10:52:30.999Z</time></trkpt><trkpt lat="48.474085073065794" lon="-4.108764449559741"><ele>93.0</ele><time>2026-03-22T10:52:31.999Z</time></trkpt><trkpt lat="48.47406424129081" lon="-4.108904669757626"><ele>93.0</ele><time>2026-03-22T10:52:32.999Z</time></trkpt><trkpt lat="48.474054449944816" lon="-4.109095085303669"><ele>94.33333333333334</ele><time>2026-03-22T10:52:33.999Z</time></trkpt><trkpt lat="48.47404858417337" lon="-4.109331906890533"><ele>95.66666666666667</ele><time>2026-03-22T10:52:34.999Z</time></trkpt><trkpt lat="48.47402430617423" lon="-4.109566340392318"><ele>97.0</ele><time>2026-03-22T10:52:35.999Z</time></trkpt><trkpt lat="48.47400326512319" lon="-4.109784191922766"><ele>97.75</ele><time>2026-03-22T10:52:36.999Z</time></trkpt><trkpt lat="48.47401085189377" lon="-4.10999511198762"><ele>98.5</ele><time>2026-03-22T10:52:37.999Z</time></trkpt><trkpt lat="48.47401786219669" lon="-4.110181036456238"><ele>99.25</ele><time>2026-03-22T10:52:38.999Z</time></trkpt><trkpt lat="48.47402256409579" lon="-4.110296442039423"><ele>100.0</ele><time>2026-03-22T10:52:39.999Z</time></trkpt><trkpt lat="48.473921993959976" lon="-4.110516888258668"><ele>100.0</ele><time>2026-03-22T10:52:41.999Z</time></trkpt><trkpt lat="48.47384648003354" lon="-4.110627612424752"><ele>100.0</ele><time>2026-03-22T10:52:42.999Z</time></trkpt><trkpt lat="48.47377339929394" lon="-4.110708445905482"><ele>100.0</ele><time>2026-03-22T10:52:43.999Z</time></trkpt><trkpt lat="48.47366917489737" lon="-4.110740193108987"><ele>100.0</ele><time>2026-03-22T10:52:44.999Z</time></trkpt><trkpt lat="48.47353262455347" lon="-4.110779211777753"><ele>100.0</ele><time>2026-03-22T10:52:45.999Z</time></trkpt><trkpt lat="48.47340379858047" lon="-4.110834235959736"><ele>99.4</ele><time>2026-03-22T10:52:46.999Z</time></trkpt><trkpt lat="48.47328939256545" lon="-4.1108837783764205"><ele>98.8</ele><time>2026-03-22T10:52:47.999Z</time></trkpt><trkpt lat="48.473190793286236" lon="-4.110938120300407"><ele>98.19999999999999</ele><time>2026-03-22T10:52:48.999Z</time></trkpt><trkpt lat="48.47309528304824" lon="-4.110968573923594"><ele>97.6</ele><time>2026-03-22T10:52:49.999Z</time></trkpt><trkpt lat="48.473001669676336" lon="-4.110992055860826"><ele>97.0</ele><time>2026-03-22T10:52:50.999Z</time></trkpt><trkpt lat="48.472928626539264" lon="-4.110987131622693"><ele>97.00000000000001</ele><time>2026-03-22T10:52:51.999Z</time></trkpt><trkpt lat="48.47285147524714" lon="-4.110948424917807"><ele>97.0</ele><time>2026-03-22T10:52:52.999Z</time></trkpt><trkpt lat="48.472783722183664" lon="-4.110890184879169"><ele>97.0</ele><time>2026-03-22T10:52:53.999Z</time></trkpt><trkpt lat="48.47271266644894" lon="-4.11081614142479"><ele>97.0</ele><time>2026-03-22T10:52:54.999Z</time></trkpt><trkpt lat="48.472665454611" lon="-4.110741566130013"><ele>97.00000000000001</ele><time>2026-03-22T10:52:55.999Z</time></trkpt><trkpt lat="48.472616566795715" lon="-4.110677812193668"><ele>97.0</ele><time>2026-03-22T10:52:57.999Z</time></trkpt><trkpt lat="48.47262869215744" lon="-4.110485338177139"><ele>97.0</ele><time>2026-03-22T10:52:59.999Z</time></trkpt><trkpt lat="48.472668438180605" lon="-4.110330500891741"><ele>97.0</ele><time>2026-03-22T10:53:00.999Z</time></trkpt><trkpt lat="48.472686921686346" lon="-4.110135535664557"><ele>97.0</ele><time>2026-03-22T10:53:01.999Z</time></trkpt><trkpt lat="48.47274960981113" lon="-4.109941021078832"><ele>97.0</ele><time>2026-03-22T10:53:02.999Z</time></trkpt><trkpt lat="48.47279420753891" lon="-4.109734460490761"><ele>98.33333333333334</ele><time>2026-03-22T10:53:03.999Z</time></trkpt><trkpt lat="48.47285767443783" lon="-4.109511495408876"><ele>99.66666666666666</ele><time>2026-03-22T10:53:04.999Z</time></trkpt><trkpt lat="48.47294536541943" lon="-4.1092748533561325"><ele>101.0</ele><time>2026-03-22T10:53:05.999Z</time></trkpt><trkpt lat="48.4730343198524" lon="-4.109062879542616"><ele>98.0</ele><time>2026-03-22T10:53:06.999Z</time></trkpt><trkpt lat="48.47310865280818" lon="-4.108854768010182"><ele>95.0</ele><time>2026-03-22T10:53:07.999Z</time></trkpt><trkpt lat="48.473177546719484" lon="-4.108618886802958"><ele>92.0</ele><time>2026-03-22T10:53:08.999Z</time></trkpt><trkpt lat="48.47321493578265" lon="-4.108384082872001"><ele>92.0</ele><time>2026-03-22T10:53:09.999Z</time></trkpt><trkpt lat="48.4732235109661" lon="-4.108149943103917"><ele>92.0</ele><time>2026-03-22T10:53:10.999Z</time></trkpt><trkpt lat="48.473237086305396" lon="-4.107924717812292"><ele>92.0</ele><time>2026-03-22T10:53:11.999Z</time></trkpt><trkpt lat="48.473263895663074" lon="-4.107727545869419"><ele>92.0</ele><time>2026-03-22T10:53:12.999Z</time></trkpt><trkpt lat="48.47329066488637" lon="-4.107529970127225"><ele>92.33333333333334</ele><time>2026-03-22T10:53:13.999Z</time></trkpt><trkpt lat="48.473350774159414" lon="-4.107328686908355"><ele>92.66666666666667</ele><time>2026-03-22T10:53:14.999Z</time></trkpt><trkpt lat="48.47342414843163" lon="-4.107121841357917"><ele>93.0</ele><time>2026-03-22T10:53:15.999Z</time></trkpt><trkpt lat="48.47352133057246" lon="-4.106916304419286"><ele>93.0</ele><time>2026-03-22T10:53:16.999Z</time></trkpt><trkpt lat="48.47363046162024" lon="-4.106746322348221"><ele>93.0</ele><time>2026-03-22T10:53:17.999Z</time></trkpt><trkpt lat="48.47375951959118" lon="-4.106546008651975"><ele>93.0</ele><time>2026-03-22T10:53:18.999Z</time></trkpt><trkpt lat="48.47386906490915" lon="-4.106342132049099"><ele>94.66666666666666</ele><time>2026-03-22T10:53:19.999Z</time></trkpt><trkpt lat="48.4739714497499" lon="-4.10610364666498"><ele>96.33333333333333</ele><time>2026-03-22T10:53:20.999Z</time></trkpt><trkpt lat="48.47403243347156" lon="-4.1058831176907695"><ele>98.0</ele><time>2026-03-22T10:53:21.999Z</time></trkpt><trkpt lat="48.474082573871186" lon="-4.105691794719172"><ele>98.60000000000001</ele><time>2026-03-22T10:53:22.999Z</time></trkpt><trkpt lat="48.474123140482696" lon="-4.1055285158000325"><ele>99.2</ele><time>2026-03-22T10:53:23.999Z</time></trkpt><trkpt lat="48.47415832541157" lon="-4.10538545019555"><ele>99.8</ele><time>2026-03-22T10:53:24.999Z</time></trkpt><trkpt lat="48.474191090207924" lon="-4.1052522251029275"><ele>100.4</ele><time>2026-03-22T10:53:25.998Z</time></trkpt><trkpt lat="48.47421855625676" lon="-4.105140545304151"><ele>101.0</ele><time>2026-03-22T10:53:26.998Z</time></trkpt><trkpt lat="48.47424286850577" lon="-4.105041958821103"><ele>101.0</ele><time>2026-03-22T10:53:27.998Z</time></trkpt><trkpt lat="48.47426675385187" lon="-4.104946755965369"><ele>101.0</ele><time>2026-03-22T10:53:28.998Z</time></trkpt><trkpt lat="48.474312262612706" lon="-4.104765365923196"><ele>101.0</ele><time>2026-03-22T10:53:30.998Z</time></trkpt><trkpt lat="48.474354249461825" lon="-4.104662751073371"><ele>101.0</ele><time>2026-03-22T10:53:31.998Z</time></trkpt><trkpt lat="48.474377509869186" lon="-4.104539481819169"><ele>101.0</ele><time>2026-03-22T10:53:32.998Z</time></trkpt><trkpt lat="48.474411791321" lon="-4.104397966014449"><ele>101.5</ele><time>2026-03-22T10:53:33.998Z</time></trkpt><trkpt lat="48.47444960166548" lon="-4.104248761098007"><ele>102.0</ele><time>2026-03-22T10:53:34.998Z</time></trkpt><trkpt lat="48.47448917806278" lon="-4.104083391286949"><ele>102.5</ele><time>2026-03-22T10:53:36Z</time></trkpt><trkpt lat="48.474527944217186" lon="-4.103903468805228"><ele>103.0</ele><time>2026-03-22T10:53:37Z</time></trkpt><trkpt lat="48.47456623563955" lon="-4.103714163677254"><ele>103.25</ele><time>2026-03-22T10:53:38Z</time></trkpt><trkpt lat="48.47459696753011" lon="-4.103507774268176"><ele>103.5</ele><time>2026-03-22T10:53:39Z</time></trkpt><trkpt lat="48.47462544135961" lon="-4.103301469027908"><ele>103.75</ele><time>2026-03-22T10:53:40Z</time></trkpt><trkpt lat="48.47465981995014" lon="-4.103092117502059"><ele>104.0</ele><time>2026-03-22T10:53:41Z</time></trkpt><trkpt lat="48.47469839717793" lon="-4.102873640830127"><ele>105.5</ele><time>2026-03-22T10:53:42Z</time></trkpt><trkpt lat="48.47473182615501" lon="-4.102652392588485"><ele>107.0</ele><time>2026-03-22T10:53:43Z</time></trkpt><trkpt lat="48.47477833481519" lon="-4.102431654811004"><ele>108.5</ele><time>2026-03-22T10:53:44Z</time></trkpt><trkpt lat="48.47482276012124" lon="-4.102228027147355"><ele>110.0</ele><time>2026-03-22T10:53:45Z</time></trkpt><trkpt lat="48.474861670004515" lon="-4.1020011728897865"><ele>111.33333333333333</ele><time>2026-03-22T10:53:46Z</time></trkpt><trkpt lat="48.47488993137992" lon="-4.101778172008661"><ele>112.66666666666666</ele><time>2026-03-22T10:53:47Z</time></trkpt><trkpt lat="48.474905940838426" lon="-4.101552860867636"><ele>114.0</ele><time>2026-03-22T10:53:48Z</time></trkpt><trkpt lat="48.474925328240225" lon="-4.101319498944499"><ele>114.66666666666666</ele><time>2026-03-22T10:53:49Z</time></trkpt><trkpt lat="48.47493349848565" lon="-4.10107748413244"><ele>115.33333333333333</ele><time>2026-03-22T10:53:50Z</time></trkpt><trkpt lat="48.474965881285996" lon="-4.10086083428947"><ele>116.0</ele><time>2026-03-22T10:53:51Z</time></trkpt><trkpt lat="48.47502054697391" lon="-4.100626541506457"><ele>117.33333333333333</ele><time>2026-03-22T10:53:52Z</time></trkpt><trkpt lat="48.475075673867174" lon="-4.10040769380597"><ele>118.66666666666666</ele><time>2026-03-22T10:53:53Z</time></trkpt><trkpt lat="48.47512850517061" lon="-4.100204606612839"><ele>120.0</ele><time>2026-03-22T10:53:54Z</time></trkpt><trkpt lat="48.47519128175405" lon="-4.099989318459484"><ele>120.75</ele><time>2026-03-22T10:53:55Z</time></trkpt><trkpt lat="48.4752508487407" lon="-4.099799916799394"><ele>121.5</ele><time>2026-03-22T10:53:56Z</time></trkpt><trkpt lat="48.47528205130401" lon="-4.099579707986359"><ele>122.25</ele><time>2026-03-22T10:53:57Z</time></trkpt><trkpt lat="48.4752931699192" lon="-4.099353243593816"><ele>123.0</ele><time>2026-03-22T10:53:58Z</time></trkpt><trkpt lat="48.47526627951011" lon="-4.099130289156523"><ele>123.66666666666666</ele><time>2026-03-22T10:53:59Z</time></trkpt><trkpt lat="48.475246292447125" lon="-4.098891524236354"><ele>124.33333333333333</ele><time>2026-03-22T10:54:00Z</time></trkpt><trkpt lat="48.47522521596687" lon="-4.09866261833178"><ele>125.0</ele><time>2026-03-22T10:54:01Z</time></trkpt><trkpt lat="48.475202981956215" lon="-4.098414368288207"><ele>125.66666666666666</ele><time>2026-03-22T10:54:02Z</time></trkpt><trkpt lat="48.47519604397836" lon="-4.098148185436637"><ele>126.33333333333334</ele><time>2026-03-22T10:54:03Z</time></trkpt><trkpt lat="48.47515822074379" lon="-4.097895442840972"><ele>127.0</ele><time>2026-03-22T10:54:04Z</time></trkpt><trkpt lat="48.4751499733637" lon="-4.097634619014554"><ele>127.33333333333334</ele><time>2026-03-22T10:54:05Z</time></trkpt><trkpt lat="48.47511530522898" lon="-4.097384488456"><ele>127.66666666666666</ele><time>2026-03-22T10:54:06Z</time></trkpt><trkpt lat="48.475098070600296" lon="-4.097115973801371"><ele>128.0</ele><time>2026-03-22T10:54:07Z</time></trkpt><trkpt lat="48.475078619480094" lon="-4.0968669394083745"><ele>128.0</ele><time>2026-03-22T10:54:08Z</time></trkpt><trkpt lat="48.47505257349852" lon="-4.096619741191994"><ele>128.0</ele><time>2026-03-22T10:54:09Z</time></trkpt><trkpt lat="48.475041228995025" lon="-4.096413992071642"><ele>128.0</ele><time>2026-03-22T10:54:10Z</time></trkpt><trkpt lat="48.47504149439332" lon="-4.0962238822037085"><ele>128.0</ele><time>2026-03-22T10:54:11Z</time></trkpt><trkpt lat="48.47506822747033" lon="-4.096040463095132"><ele>128.5</ele><time>2026-03-22T10:54:12Z</time></trkpt><trkpt lat="48.475120578430136" lon="-4.095863736160861"><ele>129.0</ele><time>2026-03-22T10:54:13Z</time></trkpt><trkpt lat="48.475168187455125" lon="-4.09571498455907"><ele>129.5</ele><time>2026-03-22T10:54:14Z</time></trkpt><trkpt lat="48.47518648188559" lon="-4.095591069088018"><ele>130.0</ele><time>2026-03-22T10:54:15Z</time></trkpt><trkpt lat="48.47508211403896" lon="-4.095376286144536"><ele>130.0</ele><time>2026-03-22T10:54:17Z</time></trkpt><trkpt lat="48.47499290152733" lon="-4.0952869481392575"><ele>130.0</ele><time>2026-03-22T10:54:18Z</time></trkpt><trkpt lat="48.47489755447861" lon="-4.095201244635582"><ele>130.0</ele><time>2026-03-22T10:54:19Z</time></trkpt><trkpt lat="48.47477703516799" lon="-4.095166123738228"><ele>130.0</ele><time>2026-03-22T10:54:20Z</time></trkpt><trkpt lat="48.47465600302758" lon="-4.09507366028302"><ele>130.0</ele><time>2026-03-22T10:54:21Z</time></trkpt><trkpt lat="48.474490878149865" lon="-4.095076296978462"><ele>130.0</ele><time>2026-03-22T10:54:22Z</time></trkpt><trkpt lat="48.474336784079036" lon="-4.095006194330185"><ele>130.0</ele><time>2026-03-22T10:54:23Z</time></trkpt><trkpt lat="48.4741966511096" lon="-4.094918856527073"><ele>130.0</ele><time>2026-03-22T10:54:24Z</time></trkpt><trkpt lat="48.47405313809549" lon="-4.094825175280027"><ele>130.0</ele><time>2026-03-22T10:54:25Z</time></trkpt><trkpt lat="48.47391308692999" lon="-4.094768867806077"><ele>130.0</ele><time>2026-03-22T10:54:26Z</time></trkpt><trkpt lat="48.47377370167972" lon="-4.09468291156665"><ele>130.5</ele><time>2026-03-22T10:54:26.999Z</time></trkpt><trkpt lat="48.47365102314423" lon="-4.094605263002949"><ele>131.0</ele><time>2026-03-22T10:54:27.999Z</time></trkpt><trkpt lat="48.47353131558061" lon="-4.094548142229987"><ele>131.5</ele><time>2026-03-22T10:54:28.999Z</time></trkpt><trkpt lat="48.47340358003112" lon="-4.094515854105883"><ele>132.0</ele><time>2026-03-22T10:54:29.999Z</time></trkpt><trkpt lat="48.47327577339094" lon="-4.09449316145988"><ele>132.0</ele><time>2026-03-22T10:54:30.999Z</time></trkpt><trkpt lat="48.473162813917355" lon="-4.094439563651639"><ele>132.0</ele><time>2026-03-22T10:54:31.999Z</time></trkpt><trkpt lat="48.47306373754411" lon="-4.094411763446627"><ele>132.0</ele><time>2026-03-22T10:54:32.999Z</time></trkpt><trkpt lat="48.4729768404269" lon="-4.094392728175711"><ele>132.0</ele><time>2026-03-22T10:54:33.999Z</time></trkpt><trkpt lat="48.47291238242018" lon="-4.094410951669701"><ele>132.0</ele><time>2026-03-22T10:54:34.999Z</time></trkpt><trkpt lat="48.47289447417173" lon="-4.094250980353519"><ele>131.79999999999998</ele><time>2026-03-22T10:54:35.999Z</time></trkpt><trkpt lat="48.472912734962335" lon="-4.094114012615302"><ele>131.6</ele><time>2026-03-22T10:54:36.999Z</time></trkpt><trkpt lat="48.47292691763406" lon="-4.0939510677440305"><ele>131.39999999999998</ele><time>2026-03-22T10:54:37.999Z</time></trkpt><trkpt lat="48.472924801284286" lon="-4.093779460131954"><ele>131.2</ele><time>2026-03-22T10:54:38.999Z</time></trkpt><trkpt lat="48.47290083019952" lon="-4.09365315745172"><ele>131.0</ele><time>2026-03-22T10:54:39.999Z</time></trkpt><trkpt lat="48.47283612861597" lon="-4.0935740887854255"><ele>131.0</ele><time>2026-03-22T10:54:40.999Z</time></trkpt><trkpt lat="48.47274194832604" lon="-4.093567748212125"><ele>131.0</ele><time>2026-03-22T10:54:41.999Z</time></trkpt><trkpt lat="48.47266842235547" lon="-4.093516934984368"><ele>131.0</ele><time>2026-03-22T10:54:42.999Z</time></trkpt><trkpt lat="48.47256474102434" lon="-4.0936967781231335"><ele>131.0</ele><time>2026-03-22T10:54:44.999Z</time></trkpt><trkpt lat="48.47250992161073" lon="-4.093814901493197"><ele>131.0</ele><time>2026-03-22T10:54:45.999Z</time></trkpt><trkpt lat="48.47232633652767" lon="-4.093829686115932"><ele>131.0</ele><time>2026-03-22T10:54:46.999Z</time></trkpt><trkpt lat="48.472202842486375" lon="-4.093766978636049"><ele>131.0</ele><time>2026-03-22T10:54:47.999Z</time></trkpt><trkpt lat="48.472052736014525" lon="-4.093715885542792"><ele>131.0</ele><time>2026-03-22T10:54:48.999Z</time></trkpt><trkpt lat="48.47188867486315" lon="-4.093706947124803"><ele>131.0</ele><time>2026-03-22T10:54:49.999Z</time></trkpt><trkpt lat="48.47171352844128" lon="-4.093671723429375"><ele>130.66666666666666</ele><time>2026-03-22T10:54:50.999Z</time></trkpt><trkpt lat="48.47154041636183" lon="-4.093658483250738"><ele>130.33333333333334</ele><time>2026-03-22T10:54:51.999Z</time></trkpt><trkpt lat="48.47134662081773" lon="-4.093689208980097"><ele>130.0</ele><time>2026-03-22T10:54:52.999Z</time></trkpt><trkpt lat="48.47116858893087" lon="-4.093737080394035"><ele>130.66666666666669</ele><time>2026-03-22T10:54:53.999Z</time></trkpt><trkpt lat="48.471005721531306" lon="-4.093783545336649"><ele>131.33333333333334</ele><time>2026-03-22T10:54:54.999Z</time></trkpt><trkpt lat="48.470853930206296" lon="-4.09379974231685"><ele>132.0</ele><time>2026-03-22T10:54:55.999Z</time></trkpt><trkpt lat="48.47072149103116" lon="-4.09381923203913"><ele>132.0</ele><time>2026-03-22T10:54:56.999Z</time></trkpt><trkpt lat="48.470608444995236" lon="-4.093786813925888"><ele>132.0</ele><time>2026-03-22T10:54:57.999Z</time></trkpt><trkpt lat="48.47051342969368" lon="-4.093722457209156"><ele>132.0</ele><time>2026-03-22T10:54:58.999Z</time></trkpt><trkpt lat="48.47044441744981" lon="-4.093671203091669"><ele>132.0</ele><time>2026-03-22T10:54:59.999Z</time></trkpt><trkpt lat="48.47036461132983" lon="-4.093602380651276"><ele>132.0</ele><time>2026-03-22T10:55:01.999Z</time></trkpt><trkpt lat="48.470309413272766" lon="-4.093470805383428"><ele>132.33333333333334</ele><time>2026-03-22T10:55:02.999Z</time></trkpt><trkpt lat="48.47041427242661" lon="-4.093222979114141"><ele>132.66666666666669</ele><time>2026-03-22T10:55:03.999Z</time></trkpt><trkpt lat="48.47043774958482" lon="-4.09301725396171"><ele>133.0</ele><time>2026-03-22T10:55:04.999Z</time></trkpt><trkpt lat="48.47045269508559" lon="-4.092796637807829"><ele>133.0</ele><time>2026-03-22T10:55:05.999Z</time></trkpt><trkpt lat="48.470463859593245" lon="-4.092548471039971"><ele>133.0</ele><time>2026-03-22T10:55:06.999Z</time></trkpt><trkpt lat="48.47048038483442" lon="-4.092289784197456"><ele>133.0</ele><time>2026-03-22T10:55:07.999Z</time></trkpt><trkpt lat="48.47049333748195" lon="-4.092023069779842"><ele>133.33333333333334</ele><time>2026-03-22T10:55:08.999Z</time></trkpt><trkpt lat="48.470509173450885" lon="-4.091743753090714"><ele>133.66666666666666</ele><time>2026-03-22T10:55:09.999Z</time></trkpt><trkpt lat="48.47052892827884" lon="-4.0914444160295895"><ele>134.0</ele><time>2026-03-22T10:55:10.999Z</time></trkpt><trkpt lat="48.470542594263776" lon="-4.091146297231938"><ele>133.66666666666666</ele><time>2026-03-22T10:55:11.999Z</time></trkpt><trkpt lat="48.470557373113074" lon="-4.09084591224722"><ele>133.33333333333334</ele><time>2026-03-22T10:55:12.999Z</time></trkpt><trkpt lat="48.47057474200143" lon="-4.0905446916536246"><ele>133.0</ele><time>2026-03-22T10:55:13.999Z</time></trkpt><trkpt lat="48.47059842009442" lon="-4.0902479976727575"><ele>133.0</ele><time>2026-03-22T10:55:14.999Z</time></trkpt><trkpt lat="48.470633397838846" lon="-4.089956852846609"><ele>133.0</ele><time>2026-03-22T10:55:15.999Z</time></trkpt><trkpt lat="48.47068010099964" lon="-4.08966360307283"><ele>133.0</ele><time>2026-03-22T10:55:16.999Z</time></trkpt><trkpt lat="48.47074781846579" lon="-4.089374899596688"><ele>133.0</ele><time>2026-03-22T10:55:17.999Z</time></trkpt><trkpt lat="48.47082761266996" lon="-4.089096112450546"><ele>133.0</ele><time>2026-03-22T10:55:18.999Z</time></trkpt><trkpt lat="48.470923632276765" lon="-4.088824870220617"><ele>133.0</ele><time>2026-03-22T10:55:19.999Z</time></trkpt><trkpt lat="48.47101604164148" lon="-4.088579688965339"><ele>133.0</ele><time>2026-03-22T10:55:20.999Z</time></trkpt><trkpt lat="48.4710947590174" lon="-4.088348114535087"><ele>133.0</ele><time>2026-03-22T10:55:21.999Z</time></trkpt><trkpt lat="48.47115668900658" lon="-4.088126210845155"><ele>133.0</ele><time>2026-03-22T10:55:22.999Z</time></trkpt><trkpt lat="48.47119632508314" lon="-4.087907798277161"><ele>133.0</ele><time>2026-03-22T10:55:23.999Z</time></trkpt><trkpt lat="48.47120122585814" lon="-4.087714789078956"><ele>133.0</ele><time>2026-03-22T10:55:24.999Z</time></trkpt><trkpt lat="48.47119743848425" lon="-4.0875238381680505"><ele>133.0</ele><time>2026-03-22T10:55:25.999Z</time></trkpt><trkpt lat="48.47117951288405" lon="-4.087341325174785"><ele>133.0</ele><time>2026-03-22T10:55:26.999Z</time></trkpt><trkpt lat="48.47114620789015" lon="-4.087160703862506"><ele>132.75</ele><time>2026-03-22T10:55:27.999Z</time></trkpt><trkpt lat="48.47110071840373" lon="-4.087003551129697"><ele>132.5</ele><time>2026-03-22T10:55:28.999Z</time></trkpt><trkpt lat="48.47109001308677" lon="-4.0868644660579845"><ele>132.25</ele><time>2026-03-22T10:55:29.999Z</time></trkpt><trkpt lat="48.47090590812608" lon="-4.086882660009936"><ele>132.0</ele><time>2026-03-22T10:55:30.999Z</time></trkpt><trkpt lat="48.47078757886469" lon="-4.086805159118405"><ele>132.0</ele><time>2026-03-22T10:55:31.999Z</time></trkpt><trkpt lat="48.470658182558985" lon="-4.086714271083306"><ele>132.0</ele><time>2026-03-22T10:55:32.999Z</time></trkpt><trkpt lat="48.47052558796055" lon="-4.086599341293937"><ele>132.0</ele><time>2026-03-22T10:55:33.999Z</time></trkpt><trkpt lat="48.470379217557216" lon="-4.086493136458508"><ele>133.0</ele><time>2026-03-22T10:55:34.999Z</time></trkpt><trkpt lat="48.47023785762467" lon="-4.086390009160959"><ele>134.0</ele><time>2026-03-22T10:55:35.999Z</time></trkpt><trkpt lat="48.47008070065862" lon="-4.0862803338769496"><ele>135.0</ele><time>2026-03-22T10:55:36.999Z</time></trkpt><trkpt lat="48.46991115557402" lon="-4.086162065984255"><ele>135.0</ele><time>2026-03-22T10:55:37.999Z</time></trkpt><trkpt lat="48.469752000939515" lon="-4.08604662825262"><ele>135.0</ele><time>2026-03-22T10:55:38.999Z</time></trkpt><trkpt lat="48.46960185796616" lon="-4.085931687637086"><ele>135.0</ele><time>2026-03-22T10:55:39.999Z</time></trkpt><trkpt lat="48.46943939720379" lon="-4.085824252713802"><ele>135.0</ele><time>2026-03-22T10:55:40.998Z</time></trkpt><trkpt lat="48.46929962507797" lon="-4.0857202784567965"><ele>135.0</ele><time>2026-03-22T10:55:42Z</time></trkpt><trkpt lat="48.469163606917476" lon="-4.085620460953503"><ele>135.0</ele><time>2026-03-22T10:55:43Z</time></trkpt><trkpt lat="48.46902062880522" lon="-4.085521285936823"><ele>135.0</ele><time>2026-03-22T10:55:44Z</time></trkpt><trkpt lat="48.4688846249645" lon="-4.085423190383183"><ele>135.0</ele><time>2026-03-22T10:55:45Z</time></trkpt><trkpt lat="48.468746868207894" lon="-4.0853241110665035"><ele>135.0</ele><time>2026-03-22T10:55:46Z</time></trkpt><trkpt lat="48.46860880538981" lon="-4.085229932061074"><ele>135.0</ele><time>2026-03-22T10:55:47Z</time></trkpt><trkpt lat="48.46846989679735" lon="-4.085142661778245"><ele>135.0</ele><time>2026-03-22T10:55:48Z</time></trkpt><trkpt lat="48.468318005153" lon="-4.08505860696675"><ele>135.0</ele><time>2026-03-22T10:55:49Z</time></trkpt><trkpt lat="48.46816702511136" lon="-4.084988144312485"><ele>135.0</ele><time>2026-03-22T10:55:50Z</time></trkpt><trkpt lat="48.4680060856769" lon="-4.0849613520172365"><ele>135.0</ele><time>2026-03-22T10:55:51Z</time></trkpt><trkpt lat="48.46783556977333" lon="-4.084893522401837"><ele>135.0</ele><time>2026-03-22T10:55:52Z</time></trkpt><trkpt lat="48.46766424018332" lon="-4.084799415166057"><ele>134.0</ele><time>2026-03-22T10:55:53Z</time></trkpt><trkpt lat="48.46749469842998" lon="-4.084735854510564"><ele>133.0</ele><time>2026-03-22T10:55:54Z</time></trkpt><trkpt lat="48.46732103884512" lon="-4.08467253182635"><ele>132.0</ele><time>2026-03-22T10:55:55Z</time></trkpt><trkpt lat="48.46714296938933" lon="-4.084612316941947"><ele>131.66666666666666</ele><time>2026-03-22T10:55:56Z</time></trkpt><trkpt lat="48.46696879294135" lon="-4.08457085504973"><ele>131.33333333333331</ele><time>2026-03-22T10:55:57Z</time></trkpt><trkpt lat="48.46681610668959" lon="-4.084507264851353"><ele>131.0</ele><time>2026-03-22T10:55:58Z</time></trkpt><trkpt lat="48.46668238343522" lon="-4.084434688204534"><ele>131.0</ele><time>2026-03-22T10:55:59Z</time></trkpt><trkpt lat="48.4665651838169" lon="-4.0843581904194615"><ele>131.0</ele><time>2026-03-22T10:56:00Z</time></trkpt><trkpt lat="48.46646202601824" lon="-4.084275828035733"><ele>131.0</ele><time>2026-03-22T10:56:01Z</time></trkpt><trkpt lat="48.46637171721315" lon="-4.084191652892651"><ele>131.0</ele><time>2026-03-22T10:56:02Z</time></trkpt><trkpt lat="48.46629327216718" lon="-4.084111309465869"><ele>131.0</ele><time>2026-03-22T10:56:03Z</time></trkpt><trkpt lat="48.46622483993606" lon="-4.084056164463468"><ele>130.4</ele><time>2026-03-22T10:56:04Z</time></trkpt><trkpt lat="48.466137315236836" lon="-4.084127022941162"><ele>129.8</ele><time>2026-03-22T10:56:06Z</time></trkpt><trkpt lat="48.4660906903619" lon="-4.0842221709921365"><ele>129.20000000000002</ele><time>2026-03-22T10:56:07Z</time></trkpt><trkpt lat="48.466026985474954" lon="-4.084342054655508"><ele>128.6</ele><time>2026-03-22T10:56:08Z</time></trkpt><trkpt lat="48.465962465377345" lon="-4.084479732289439"><ele>128.0</ele><time>2026-03-22T10:56:09Z</time></trkpt><trkpt lat="48.465882694464874" lon="-4.084593734065772"><ele>128.0</ele><time>2026-03-22T10:56:10Z</time></trkpt><trkpt lat="48.465758668486146" lon="-4.084658943194493"><ele>128.0</ele><time>2026-03-22T10:56:11Z</time></trkpt><trkpt lat="48.465605958941474" lon="-4.084739675896667"><ele>128.0</ele><time>2026-03-22T10:56:12Z</time></trkpt><trkpt lat="48.465434108118274" lon="-4.084816576818665"><ele>128.0</ele><time>2026-03-22T10:56:13Z</time></trkpt><trkpt lat="48.46524568322009" lon="-4.084904188758126"><ele>128.0</ele><time>2026-03-22T10:56:14Z</time></trkpt><trkpt lat="48.46508337434123" lon="-4.084992957853722"><ele>128.0</ele><time>2026-03-22T10:56:15Z</time></trkpt><trkpt lat="48.46494422547921" lon="-4.085067417321409"><ele>129.0</ele><time>2026-03-22T10:56:16Z</time></trkpt><trkpt lat="48.46481922926143" lon="-4.085129801731682"><ele>130.0</ele><time>2026-03-22T10:56:17Z</time></trkpt><trkpt lat="48.464709636516865" lon="-4.085161904367121"><ele>131.0</ele><time>2026-03-22T10:56:18Z</time></trkpt><trkpt lat="48.46459596722908" lon="-4.085151088181937"><ele>132.0</ele><time>2026-03-22T10:56:19Z</time></trkpt><trkpt lat="48.464466814254926" lon="-4.085092160647327"><ele>132.66666666666666</ele><time>2026-03-22T10:56:20Z</time></trkpt><trkpt lat="48.4643263503636" lon="-4.085003216353674"><ele>133.33333333333331</ele><time>2026-03-22T10:56:21Z</time></trkpt><trkpt lat="48.46418578209277" lon="-4.084920096347784"><ele>134.0</ele><time>2026-03-22T10:56:22Z</time></trkpt><trkpt lat="48.46403512366121" lon="-4.084847855002171"><ele>134.0</ele><time>2026-03-22T10:56:23Z</time></trkpt><trkpt lat="48.46390452935513" lon="-4.084793605812667"><ele>134.0</ele><time>2026-03-22T10:56:24Z</time></trkpt><trkpt lat="48.463804376679136" lon="-4.0847505432519275"><ele>134.0</ele><time>2026-03-22T10:56:25Z</time></trkpt><trkpt lat="48.46372731601334" lon="-4.084732462142804"><ele>134.0</ele><time>2026-03-22T10:56:26Z</time></trkpt><trkpt lat="48.463665619800395" lon="-4.084491873585252"><ele>134.25</ele><time>2026-03-22T10:56:27.999Z</time></trkpt><trkpt lat="48.46367254205576" lon="-4.0843501067900405"><ele>134.5</ele><time>2026-03-22T10:56:28.999Z</time></trkpt><trkpt lat="48.46367471493303" lon="-4.084183945988729"><ele>134.75</ele><time>2026-03-22T10:56:29.999Z</time></trkpt><trkpt lat="48.46366301911574" lon="-4.083986439141311"><ele>135.0</ele><time>2026-03-22T10:56:30.999Z</time></trkpt><trkpt lat="48.463650391894795" lon="-4.083778819000626"><ele>135.0</ele><time>2026-03-22T10:56:31.999Z</time></trkpt><trkpt lat="48.46362692553311" lon="-4.083563067519028"><ele>135.0</ele><time>2026-03-22T10:56:32.999Z</time></trkpt><trkpt lat="48.46362497359705" lon="-4.083340093074704"><ele>135.0</ele><time>2026-03-22T10:56:33.999Z</time></trkpt><trkpt lat="48.46361454845257" lon="-4.083120893768367"><ele>135.0</ele><time>2026-03-22T10:56:34.999Z</time></trkpt><trkpt lat="48.46361197831026" lon="-4.0828988305706435"><ele>134.66666666666666</ele><time>2026-03-22T10:56:35.999Z</time></trkpt><trkpt lat="48.463606811802855" lon="-4.082671376637677"><ele>134.33333333333331</ele><time>2026-03-22T10:56:36.999Z</time></trkpt><trkpt lat="48.46360776568552" lon="-4.082439175054373"><ele>134.0</ele><time>2026-03-22T10:56:37.999Z</time></trkpt><trkpt lat="48.463613225934346" lon="-4.082201362772842"><ele>133.33333333333331</ele><time>2026-03-22T10:56:38.999Z</time></trkpt><trkpt lat="48.46360356999479" lon="-4.081964841494728"><ele>132.66666666666666</ele><time>2026-03-22T10:56:39.999Z</time></trkpt><trkpt lat="48.46362055944965" lon="-4.0817264917810325"><ele>132.0</ele><time>2026-03-22T10:56:40.999Z</time></trkpt><trkpt lat="48.463610074777016" lon="-4.081496871941781"><ele>130.66666666666666</ele><time>2026-03-22T10:56:41.999Z</time></trkpt><trkpt lat="48.463625882717714" lon="-4.081258452168364"><ele>129.33333333333331</ele><time>2026-03-22T10:56:42.999Z</time></trkpt><trkpt lat="48.46362865131624" lon="-4.081008739586893"><ele>128.0</ele><time>2026-03-22T10:56:43.999Z</time></trkpt><trkpt lat="48.463615689975924" lon="-4.080782837000259"><ele>127.2</ele><time>2026-03-22T10:56:44.999Z</time></trkpt><trkpt lat="48.46364294577653" lon="-4.080593751845776"><ele>126.4</ele><time>2026-03-22T10:56:45.999Z</time></trkpt><trkpt lat="48.46365293164037" lon="-4.080452692289329"><ele>125.60000000000001</ele><time>2026-03-22T10:56:46.999Z</time></trkpt><trkpt lat="48.463685442174054" lon="-4.080342399188072"><ele>124.80000000000001</ele><time>2026-03-22T10:56:47.999Z</time></trkpt><trkpt lat="48.463729143185795" lon="-4.080186320505893"><ele>124.0</ele><time>2026-03-22T10:56:48.999Z</time></trkpt><trkpt lat="48.46379856349487" lon="-4.080094595855192"><ele>122.2</ele><time>2026-03-22T10:56:49.999Z</time></trkpt><trkpt lat="48.463790744421374" lon="-4.079903531139081"><ele>120.4</ele><time>2026-03-22T10:56:50.999Z</time></trkpt><trkpt lat="48.46380025379706" lon="-4.079737800916185"><ele>118.6</ele><time>2026-03-22T10:56:51.999Z</time></trkpt><trkpt lat="48.46383309524304" lon="-4.07960735782696"><ele>116.8</ele><time>2026-03-22T10:56:52.999Z</time></trkpt><trkpt lat="48.46385253082249" lon="-4.079473159318716"><ele>115.0</ele><time>2026-03-22T10:56:53.999Z</time></trkpt><trkpt lat="48.46387191598776" lon="-4.079380438628831"><ele>115.0</ele><time>2026-03-22T10:56:54.999Z</time></trkpt><trkpt lat="48.463921129091965" lon="-4.07929894392426"><ele>115.0</ele><time>2026-03-22T10:56:56.999Z</time></trkpt><trkpt lat="48.46399070238076" lon="-4.079325007288837"><ele>115.0</ele><time>2026-03-22T10:56:57.999Z</time></trkpt><trkpt lat="48.46407532822096" lon="-4.079377870302517"><ele>115.0</ele><time>2026-03-22T10:56:58.999Z</time></trkpt><trkpt lat="48.46420366758566" lon="-4.079444774648884"><ele>115.0</ele><time>2026-03-22T10:56:59.999Z</time></trkpt><trkpt lat="48.46433330565037" lon="-4.079508602680949"><ele>115.0</ele><time>2026-03-22T10:57:00.999Z</time></trkpt><trkpt lat="48.46447148190738" lon="-4.079575181744493"><ele>115.0</ele><time>2026-03-22T10:57:01.999Z</time></trkpt><trkpt lat="48.4646096357138" lon="-4.079647252822937"><ele>115.0</ele><time>2026-03-22T10:57:02.999Z</time></trkpt><trkpt lat="48.4647145115386" lon="-4.079687652883778"><ele>115.0</ele><time>2026-03-22T10:57:03.999Z</time></trkpt><trkpt lat="48.46478719072438" lon="-4.079712149020159"><ele>113.4</ele><time>2026-03-22T10:57:04.999Z</time></trkpt><trkpt lat="48.464872715416334" lon="-4.07969349011382"><ele>111.8</ele><time>2026-03-22T10:57:06.999Z</time></trkpt><trkpt lat="48.46487975246597" lon="-4.079577686603174"><ele>110.19999999999999</ele><time>2026-03-22T10:57:08.999Z</time></trkpt><trkpt lat="48.46482025769227" lon="-4.0794252506816395"><ele>108.6</ele><time>2026-03-22T10:57:10.999Z</time></trkpt><trkpt lat="48.46478302861477" lon="-4.079216969414837"><ele>107.0</ele><time>2026-03-22T10:57:12.999Z</time></trkpt><trkpt lat="48.46474460306717" lon="-4.079059358063245"><ele>106.6</ele><time>2026-03-22T10:57:13.999Z</time></trkpt><trkpt lat="48.46470196190058" lon="-4.078910692164125"><ele>106.19999999999999</ele><time>2026-03-22T10:57:14.999Z</time></trkpt><trkpt lat="48.46465716141846" lon="-4.078767535934231"><ele>105.8</ele><time>2026-03-22T10:57:15.999Z</time></trkpt><trkpt lat="48.46461122946877" lon="-4.078660083507521"><ele>105.4</ele><time>2026-03-22T10:57:16.999Z</time></trkpt><trkpt lat="48.464545009619286" lon="-4.078557684190691"><ele>105.0</ele><time>2026-03-22T10:57:17.999Z</time></trkpt><trkpt lat="48.46446010320488" lon="-4.07846420619293"><ele>105.0</ele><time>2026-03-22T10:57:18.999Z</time></trkpt><trkpt lat="48.46437230074456" lon="-4.078409943192411"><ele>105.0</ele><time>2026-03-22T10:57:19.999Z</time></trkpt><trkpt lat="48.46425769279292" lon="-4.078360438699009"><ele>105.0</ele><time>2026-03-22T10:57:20.999Z</time></trkpt><trkpt lat="48.4641411067526" lon="-4.078308025234557"><ele>105.0</ele><time>2026-03-22T10:57:21.999Z</time></trkpt><trkpt lat="48.46405252434972" lon="-4.0782302114571785"><ele>105.0</ele><time>2026-03-22T10:57:22.999Z</time></trkpt><trkpt lat="48.46401360367641" lon="-4.078139367035475"><ele>102.8</ele><time>2026-03-22T10:57:23.999Z</time></trkpt><trkpt lat="48.46400540714249" lon="-4.078037296045616"><ele>100.6</ele><time>2026-03-22T10:57:24.999Z</time></trkpt><trkpt lat="48.46410052832871" lon="-4.077917476817177"><ele>98.4</ele><time>2026-03-22T10:57:26.999Z</time></trkpt><trkpt lat="48.4641882477822" lon="-4.077936255397089"><ele>96.2</ele><time>2026-03-22T10:57:27.999Z</time></trkpt><trkpt lat="48.46428221303567" lon="-4.077980357594324"><ele>94.0</ele><time>2026-03-22T10:57:28.999Z</time></trkpt><trkpt lat="48.46438150311741" lon="-4.078000302545306"><ele>94.0</ele><time>2026-03-22T10:57:29.999Z</time></trkpt><trkpt lat="48.46449706200768" lon="-4.07801395198768"><ele>94.0</ele><time>2026-03-22T10:57:30.999Z</time></trkpt><trkpt lat="48.46459429152102" lon="-4.078017470689193"><ele>94.0</ele><time>2026-03-22T10:57:31.999Z</time></trkpt><trkpt lat="48.46468296163228" lon="-4.078012822406595"><ele>94.0</ele><time>2026-03-22T10:57:32.999Z</time></trkpt><trkpt lat="48.46477397781779" lon="-4.078035410537435"><ele>94.0</ele><time>2026-03-22T10:57:33.999Z</time></trkpt><trkpt lat="48.464845595948425" lon="-4.078045468970463"><ele>92.33333333333333</ele><time>2026-03-22T10:57:34.999Z</time></trkpt><trkpt lat="48.46491364147141" lon="-4.078032320274051"><ele>90.66666666666666</ele><time>2026-03-22T10:57:35.999Z</time></trkpt><trkpt lat="48.46497787560817" lon="-4.078027651348804"><ele>89.0</ele><time>2026-03-22T10:57:36.999Z</time></trkpt><trkpt lat="48.46508474026364" lon="-4.078084213693303"><ele>87.33333333333333</ele><time>2026-03-22T10:57:38.999Z</time></trkpt><trkpt lat="48.46515640762576" lon="-4.078144450792759"><ele>85.66666666666667</ele><time>2026-03-22T10:57:39.999Z</time></trkpt><trkpt lat="48.4652387860077" lon="-4.0781594149948655"><ele>84.0</ele><time>2026-03-22T10:57:40.999Z</time></trkpt><trkpt lat="48.4653272811853" lon="-4.078137703951805"><ele>84.0</ele><time>2026-03-22T10:57:41.998Z</time></trkpt><trkpt lat="48.46539380137097" lon="-4.078082833563375"><ele>84.0</ele><time>2026-03-22T10:57:42.998Z</time></trkpt><trkpt lat="48.465468345865965" lon="-4.078049661738834"><ele>84.0</ele><time>2026-03-22T10:57:43.998Z</time></trkpt><trkpt lat="48.46552966124715" lon="-4.078012305512243"><ele>84.0</ele><time>2026-03-22T10:57:44.998Z</time></trkpt><trkpt lat="48.465589246932346" lon="-4.077882195413159"><ele>84.0</ele><time>2026-03-22T10:57:46.998Z</time></trkpt><trkpt lat="48.46551071963991" lon="-4.077753369082596"><ele>84.0</ele><time>2026-03-22T10:57:49Z</time></trkpt><trkpt lat="48.465433547773394" lon="-4.077682140391907"><ele>84.0</ele><time>2026-03-22T10:57:51Z</time></trkpt><trkpt lat="48.465401393361944" lon="-4.077569353054478"><ele>84.0</ele><time>2026-03-22T10:57:57Z</time></trkpt><trkpt lat="48.46537005437966" lon="-4.077484922455671"><ele>84.0</ele><time>2026-03-22T10:57:58Z</time></trkpt><trkpt lat="48.46531893329182" lon="-4.077386787534653"><ele>84.0</ele><time>2026-03-22T10:57:59Z</time></trkpt><trkpt lat="48.46526901734839" lon="-4.07727081604506"><ele>84.0</ele><time>2026-03-22T10:58:00Z</time></trkpt><trkpt lat="48.46523993856" lon="-4.0771741442549025"><ele>84.0</ele><time>2026-03-22T10:58:01Z</time></trkpt><trkpt lat="48.46519909893474" lon="-4.077080145678178"><ele>81.66666666666667</ele><time>2026-03-22T10:58:02Z</time></trkpt><trkpt lat="48.46514116813001" lon="-4.076962245357109"><ele>79.33333333333333</ele><time>2026-03-22T10:58:03Z</time></trkpt><trkpt lat="48.46509932218155" lon="-4.076869401864181"><ele>77.0</ele><time>2026-03-22T10:58:04Z</time></trkpt><trkpt lat="48.46504601415248" lon="-4.07677194935"><ele>74.66666666666666</ele><time>2026-03-22T10:58:05Z</time></trkpt><trkpt lat="48.46499492258745" lon="-4.076692601139675"><ele>72.33333333333333</ele><time>2026-03-22T10:58:06Z</time></trkpt><trkpt lat="48.4649430564438" lon="-4.076587708351265"><ele>70.0</ele><time>2026-03-22T10:58:07Z</time></trkpt><trkpt lat="48.46490595608997" lon="-4.0765074990018135"><ele>69.16666666666666</ele><time>2026-03-22T10:58:08Z</time></trkpt><trkpt lat="48.46485495438551" lon="-4.076416563381081"><ele>68.33333333333333</ele><time>2026-03-22T10:58:09Z</time></trkpt><trkpt lat="48.46479145177023" lon="-4.07634786591771"><ele>67.5</ele><time>2026-03-22T10:58:10Z</time></trkpt><trkpt lat="48.464740257975926" lon="-4.076270330024204"><ele>66.66666666666667</ele><time>2026-03-22T10:58:11Z</time></trkpt><trkpt lat="48.464683642359994" lon="-4.076170472313799"><ele>65.83333333333334</ele><time>2026-03-22T10:58:12Z</time></trkpt><trkpt lat="48.464644895675434" lon="-4.076087564004128"><ele>65.0</ele><time>2026-03-22T10:58:13Z</time></trkpt><trkpt lat="48.4645710918962" lon="-4.076010054311101"><ele>65.0</ele><time>2026-03-22T10:58:14Z</time></trkpt><trkpt lat="48.464490794045446" lon="-4.075950569519666"><ele>65.0</ele><time>2026-03-22T10:58:15Z</time></trkpt><trkpt lat="48.4644222859313" lon="-4.075908048275678"><ele>65.0</ele><time>2026-03-22T10:58:16Z</time></trkpt><trkpt lat="48.464348719174204" lon="-4.075888153942947"><ele>65.0</ele><time>2026-03-22T10:58:17Z</time></trkpt><trkpt lat="48.464238863871884" lon="-4.075840645606963"><ele>65.0</ele><time>2026-03-22T10:58:19Z</time></trkpt><trkpt lat="48.46415698700797" lon="-4.075794178979395"><ele>65.0</ele><time>2026-03-22T10:58:20Z</time></trkpt><trkpt lat="48.46406273664013" lon="-4.07574228525334"><ele>63.4</ele><time>2026-03-22T10:58:21Z</time></trkpt><trkpt lat="48.463983571112216" lon="-4.075686502628956"><ele>61.8</ele><time>2026-03-22T10:58:22Z</time></trkpt><trkpt lat="48.463912989186504" lon="-4.0756507020720045"><ele>60.2</ele><time>2026-03-22T10:58:23Z</time></trkpt><trkpt lat="48.46385484677086" lon="-4.075608714678553"><ele>58.6</ele><time>2026-03-22T10:58:24Z</time></trkpt><trkpt lat="48.463768776065585" lon="-4.075572882600899"><ele>57.0</ele><time>2026-03-22T10:58:26Z</time></trkpt><trkpt lat="48.46364123867827" lon="-4.075501678353611"><ele>57.0</ele><time>2026-03-22T10:58:28Z</time></trkpt><trkpt lat="48.46357900599169" lon="-4.07544825131425"><ele>57.0</ele><time>2026-03-22T10:58:29Z</time></trkpt><trkpt lat="48.4634935900591" lon="-4.0753833975937"><ele>57.0</ele><time>2026-03-22T10:58:31Z</time></trkpt><trkpt lat="48.46340851030586" lon="-4.075354404703875"><ele>57.0</ele><time>2026-03-22T10:58:33Z</time></trkpt><trkpt lat="48.46332786760092" lon="-4.07539265175676"><ele>57.0</ele><time>2026-03-22T10:58:34.999Z</time></trkpt><trkpt lat="48.463194298424376" lon="-4.075421066313805"><ele>57.0</ele><time>2026-03-22T10:58:36.999Z</time></trkpt><trkpt lat="48.4631147890111" lon="-4.075428719756166"><ele>57.0</ele><time>2026-03-22T10:58:37.999Z</time></trkpt><trkpt lat="48.46304125711634" lon="-4.0754370588467435"><ele>57.0</ele><time>2026-03-22T10:58:38.999Z</time></trkpt><trkpt lat="48.46292157911432" lon="-4.075442586431519"><ele>57.0</ele><time>2026-03-22T10:58:40.999Z</time></trkpt><trkpt lat="48.46283709226672" lon="-4.075432465764485"><ele>57.0</ele><time>2026-03-22T10:58:42.999Z</time></trkpt><trkpt lat="48.46276459747691" lon="-4.075416941516939"><ele>57.0</ele><time>2026-03-22T10:58:44.999Z</time></trkpt><trkpt lat="48.46273237548684" lon="-4.075521263050812"><ele>57.0</ele><time>2026-03-22T11:00:24Z</time></trkpt><trkpt lat="48.462804846501506" lon="-4.075498183187238"><ele>57.0</ele><time>2026-03-22T11:00:26Z</time></trkpt><trkpt lat="48.46291138353051" lon="-4.075395121459627"><ele>57.0</ele><time>2026-03-22T11:00:28Z</time></trkpt><trkpt lat="48.46295815909843" lon="-4.075257323449357"><ele>57.0</ele><time>2026-03-22T11:00:30Z</time></trkpt><trkpt lat="48.462925795252325" lon="-4.075063481105847"><ele>57.0</ele><time>2026-03-22T11:00:32Z</time></trkpt><trkpt lat="48.462910230932536" lon="-4.074936848747962"><ele>58.8</ele><time>2026-03-22T11:00:33Z</time></trkpt><trkpt lat="48.46289779898376" lon="-4.074812738116742"><ele>60.6</ele><time>2026-03-22T11:00:33.999Z</time></trkpt><trkpt lat="48.462888318738415" lon="-4.074702057478625"><ele>62.39999999999999</ele><time>2026-03-22T11:00:34.999Z</time></trkpt><trkpt lat="48.46287394646427" lon="-4.074547669724536"><ele>64.2</ele><time>2026-03-22T11:00:36.999Z</time></trkpt><trkpt lat="48.46285943592014" lon="-4.074447235489347"><ele>66.0</ele><time>2026-03-22T11:00:39.999Z</time></trkpt><trkpt lat="48.46293264250161" lon="-4.074299563190812"><ele>64.25</ele><time>2026-03-22T11:00:50.999Z</time></trkpt><trkpt lat="48.463030863065796" lon="-4.07426765365117"><ele>62.5</ele><time>2026-03-22T11:00:51.999Z</time></trkpt><trkpt lat="48.46314422966703" lon="-4.074251144286229"><ele>60.75</ele><time>2026-03-22T11:00:52.999Z</time></trkpt><trkpt lat="48.46327809984191" lon="-4.074234268336535"><ele>59.0</ele><time>2026-03-22T11:00:53.999Z</time></trkpt><trkpt lat="48.46342755421589" lon="-4.074236570290197"><ele>59.0</ele><time>2026-03-22T11:00:54.999Z</time></trkpt><trkpt lat="48.46358711715331" lon="-4.074254295971885"><ele>59.0</ele><time>2026-03-22T11:00:55.999Z</time></trkpt><trkpt lat="48.46375174735318" lon="-4.074287731851905"><ele>59.0</ele><time>2026-03-22T11:00:56.999Z</time></trkpt><trkpt lat="48.46392782230043" lon="-4.074325363597412"><ele>59.66666666666667</ele><time>2026-03-22T11:00:57.999Z</time></trkpt><trkpt lat="48.46410730838275" lon="-4.074360878113606"><ele>60.33333333333333</ele><time>2026-03-22T11:00:58.999Z</time></trkpt><trkpt lat="48.464286550729966" lon="-4.0743909102934115"><ele>61.0</ele><time>2026-03-22T11:00:59.999Z</time></trkpt><trkpt lat="48.464466699960305" lon="-4.074428827546126"><ele>60.666666666666664</ele><time>2026-03-22T11:01:00.999Z</time></trkpt><trkpt lat="48.464649882085375" lon="-4.07447099254137"><ele>60.33333333333333</ele><time>2026-03-22T11:01:01.999Z</time></trkpt><trkpt lat="48.46482005959671" lon="-4.074496721309118"><ele>60.0</ele><time>2026-03-22T11:01:02.999Z</time></trkpt><trkpt lat="48.46501036176585" lon="-4.0745297500417905"><ele>60.0</ele><time>2026-03-22T11:01:03.999Z</time></trkpt><trkpt lat="48.46519354866226" lon="-4.074555515935932"><ele>60.0</ele><time>2026-03-22T11:01:04.999Z</time></trkpt><trkpt lat="48.465378965527854" lon="-4.074592483703885"><ele>60.0</ele><time>2026-03-22T11:01:05.999Z</time></trkpt><trkpt lat="48.46555718716459" lon="-4.074625867539095"><ele>60.66666666666667</ele><time>2026-03-22T11:01:06.999Z</time></trkpt><trkpt lat="48.46574741527661" lon="-4.074657570494891"><ele>61.333333333333336</ele><time>2026-03-22T11:01:07.999Z</time></trkpt><trkpt lat="48.46593353704095" lon="-4.074701466988774"><ele>62.0</ele><time>2026-03-22T11:01:08.999Z</time></trkpt><trkpt lat="48.46612043296301" lon="-4.074753087810422"><ele>61.0</ele><time>2026-03-22T11:01:09.999Z</time></trkpt><trkpt lat="48.46630588168245" lon="-4.07480941040061"><ele>60.0</ele><time>2026-03-22T11:01:10.999Z</time></trkpt><trkpt lat="48.46648772505506" lon="-4.074877887753756"><ele>59.0</ele><time>2026-03-22T11:01:11.999Z</time></trkpt><trkpt lat="48.46666761926189" lon="-4.074957195549276"><ele>59.0</ele><time>2026-03-22T11:01:12.999Z</time></trkpt><trkpt lat="48.46685163459216" lon="-4.075039286734342"><ele>59.0</ele><time>2026-03-22T11:01:13.999Z</time></trkpt><trkpt lat="48.467034208652194" lon="-4.07511976012382"><ele>59.0</ele><time>2026-03-22T11:01:14.999Z</time></trkpt><trkpt lat="48.46721861470865" lon="-4.075195287874069"><ele>61.333333333333336</ele><time>2026-03-22T11:01:15.999Z</time></trkpt><trkpt lat="48.46741102273482" lon="-4.075235927532976"><ele>63.66666666666667</ele><time>2026-03-22T11:01:16.999Z</time></trkpt><trkpt lat="48.4676053083448" lon="-4.075283436346582"><ele>66.0</ele><time>2026-03-22T11:01:17.999Z</time></trkpt><trkpt lat="48.467802451105165" lon="-4.0753101512794245"><ele>65.0</ele><time>2026-03-22T11:01:18.999Z</time></trkpt><trkpt lat="48.46800236188637" lon="-4.075321949011937"><ele>64.0</ele><time>2026-03-22T11:01:19.999Z</time></trkpt><trkpt lat="48.46820167507782" lon="-4.075311411959942"><ele>63.0</ele><time>2026-03-22T11:01:20.999Z</time></trkpt><trkpt lat="48.468363105766116" lon="-4.075282171901054"><ele>63.0</ele><time>2026-03-22T11:01:21.999Z</time></trkpt><trkpt lat="48.468505103078" lon="-4.075244240039851"><ele>63.0</ele><time>2026-03-22T11:01:22.999Z</time></trkpt><trkpt lat="48.46862874383951" lon="-4.075199362402609"><ele>63.0</ele><time>2026-03-22T11:01:23.999Z</time></trkpt><trkpt lat="48.4687553593704" lon="-4.075140837638131"><ele>63.0</ele><time>2026-03-22T11:01:24.999Z</time></trkpt><trkpt lat="48.46889453317444" lon="-4.075071268537529"><ele>63.33333333333333</ele><time>2026-03-22T11:01:25.999Z</time></trkpt><trkpt lat="48.469042719574134" lon="-4.074988936460586"><ele>63.666666666666664</ele><time>2026-03-22T11:01:26.999Z</time></trkpt><trkpt lat="48.46919905647993" lon="-4.074900277836637"><ele>64.0</ele><time>2026-03-22T11:01:27.999Z</time></trkpt><trkpt lat="48.46935995204553" lon="-4.074807980597641"><ele>64.0</ele><time>2026-03-22T11:01:28.999Z</time></trkpt><trkpt lat="48.46952939376264" lon="-4.07471020166721"><ele>64.0</ele><time>2026-03-22T11:01:29.999Z</time></trkpt><trkpt lat="48.46970223597036" lon="-4.074612751380616"><ele>64.0</ele><time>2026-03-22T11:01:30.999Z</time></trkpt><trkpt lat="48.4698724722207" lon="-4.074516714476509"><ele>62.0</ele><time>2026-03-22T11:01:31.999Z</time></trkpt><trkpt lat="48.470051776719664" lon="-4.074437870784017"><ele>60.0</ele><time>2026-03-22T11:01:32.999Z</time></trkpt><trkpt lat="48.47022157864493" lon="-4.074338006814752"><ele>58.0</ele><time>2026-03-22T11:01:33.999Z</time></trkpt><trkpt lat="48.4703731769607" lon="-4.074255021912153"><ele>58.0</ele><time>2026-03-22T11:01:34.999Z</time></trkpt><trkpt lat="48.470503255364285" lon="-4.074155792012796"><ele>58.0</ele><time>2026-03-22T11:01:35.999Z</time></trkpt><trkpt lat="48.470624290113285" lon="-4.074087263138389"><ele>58.0</ele><time>2026-03-22T11:01:36.999Z</time></trkpt><trkpt lat="48.470750041605605" lon="-4.074016081673013"><ele>58.0</ele><time>2026-03-22T11:01:37.999Z</time></trkpt><trkpt lat="48.470883039891554" lon="-4.073940798213757"><ele>57.0</ele><time>2026-03-22T11:01:38.999Z</time></trkpt><trkpt lat="48.47099999681748" lon="-4.073882730809236"><ele>56.0</ele><time>2026-03-22T11:01:39.999Z</time></trkpt><trkpt lat="48.4711065392127" lon="-4.0738253577864185"><ele>55.0</ele><time>2026-03-22T11:01:40.999Z</time></trkpt><trkpt lat="48.47119969527208" lon="-4.073763331221461"><ele>54.0</ele><time>2026-03-22T11:01:41.999Z</time></trkpt><trkpt lat="48.471253267087626" lon="-4.073704880679651"><ele>53.0</ele><time>2026-03-22T11:01:42.999Z</time></trkpt><trkpt lat="48.47112757156866" lon="-4.073470547750743"><ele>53.0</ele><time>2026-03-22T11:01:45.999Z</time></trkpt><trkpt lat="48.471057534578435" lon="-4.0733629432089185"><ele>53.0</ele><time>2026-03-22T11:01:46.999Z</time></trkpt><trkpt lat="48.47098723678871" lon="-4.073240659539451"><ele>53.0</ele><time>2026-03-22T11:01:47.999Z</time></trkpt><trkpt lat="48.47091958995173" lon="-4.073136417410485"><ele>53.0</ele><time>2026-03-22T11:01:48.999Z</time></trkpt><trkpt lat="48.47084321374223" lon="-4.073008302007762"><ele>53.0</ele><time>2026-03-22T11:01:49.999Z</time></trkpt><trkpt lat="48.470771843734326" lon="-4.072878717002652"><ele>53.0</ele><time>2026-03-22T11:01:50.998Z</time></trkpt><trkpt lat="48.470703246647986" lon="-4.072789936278503"><ele>53.0</ele><time>2026-03-22T11:01:51.998Z</time></trkpt><trkpt lat="48.47065053216894" lon="-4.0726883992710405"><ele>53.0</ele><time>2026-03-22T11:01:52.998Z</time></trkpt><trkpt lat="48.47059623925176" lon="-4.072605480525819"><ele>53.0</ele><time>2026-03-22T11:01:53.998Z</time></trkpt><trkpt lat="48.470534965453076" lon="-4.072553405258023"><ele>53.0</ele><time>2026-03-22T11:01:54.998Z</time></trkpt><trkpt lat="48.470267239650305" lon="-4.072710630128056"><ele>59.333333333333336</ele><time>2026-03-22T11:01:57.998Z</time></trkpt><trkpt lat="48.47016851449902" lon="-4.072864221036354"><ele>65.66666666666667</ele><time>2026-03-22T11:01:58.998Z</time></trkpt><trkpt lat="48.47006684075286" lon="-4.0730315547447855"><ele>72.0</ele><time>2026-03-22T11:01:59.999Z</time></trkpt><trkpt lat="48.46994294470757" lon="-4.07321410720714"><ele>74.33333333333333</ele><time>2026-03-22T11:02:00.999Z</time></trkpt><trkpt lat="48.46980526818641" lon="-4.073397325775651"><ele>76.66666666666666</ele><time>2026-03-22T11:02:01.999Z</time></trkpt><trkpt lat="48.46967392597948" lon="-4.073578246938718"><ele>79.0</ele><time>2026-03-22T11:02:02.999Z</time></trkpt><trkpt lat="48.469537892305425" lon="-4.073762712279168"><ele>79.0</ele><time>2026-03-22T11:02:03.999Z</time></trkpt><trkpt lat="48.46941421111312" lon="-4.073933853637985"><ele>79.0</ele><time>2026-03-22T11:02:04.999Z</time></trkpt><trkpt lat="48.4692987655372" lon="-4.074096041251348"><ele>79.0</ele><time>2026-03-22T11:02:05.999Z</time></trkpt><trkpt lat="48.4691766487245" lon="-4.074260957838978"><ele>75.25</ele><time>2026-03-22T11:02:06.999Z</time></trkpt><trkpt lat="48.469075103230765" lon="-4.074406770487475"><ele>71.5</ele><time>2026-03-22T11:02:07.999Z</time></trkpt><trkpt lat="48.46897745688578" lon="-4.074544575285782"><ele>67.75</ele><time>2026-03-22T11:02:08.999Z</time></trkpt><trkpt lat="48.46888160991552" lon="-4.074668631756936"><ele>64.0</ele><time>2026-03-22T11:02:09.999Z</time></trkpt><trkpt lat="48.46879512854926" lon="-4.074781850613785"><ele>63.800000000000004</ele><time>2026-03-22T11:02:10.999Z</time></trkpt><trkpt lat="48.46871787845203" lon="-4.074888316026334"><ele>63.60000000000001</ele><time>2026-03-22T11:02:11.999Z</time></trkpt><trkpt lat="48.468648074124886" lon="-4.074980772701461"><ele>63.4</ele><time>2026-03-22T11:02:12.999Z</time></trkpt><trkpt lat="48.4685905316769" lon="-4.075054154613276"><ele>63.2</ele><time>2026-03-22T11:02:13.999Z</time></trkpt><trkpt lat="48.468512926338825" lon="-4.0751132023550305"><ele>63.0</ele><time>2026-03-22T11:02:15.999Z</time></trkpt><trkpt lat="48.46851749594763" lon="-4.0752906295377915"><ele>63.0</ele><time>2026-03-22T11:02:16.999Z</time></trkpt><trkpt lat="48.46852452251904" lon="-4.074968823211695"><ele>63.0</ele><time>2026-03-22T11:02:20Z</time></trkpt><trkpt lat="48.46855909161" lon="-4.074752604071129"><ele>63.0</ele><time>2026-03-22T11:02:22Z</time></trkpt><trkpt lat="48.46858793126132" lon="-4.074605708186922"><ele>65.4</ele><time>2026-03-22T11:02:23Z</time></trkpt><trkpt lat="48.468635746448776" lon="-4.074485958336191"><ele>67.8</ele><time>2026-03-22T11:02:24Z</time></trkpt><trkpt lat="48.468662829542296" lon="-4.07436658539697"><ele>70.2</ele><time>2026-03-22T11:02:25Z</time></trkpt><trkpt lat="48.468596926993584" lon="-4.074297901729733"><ele>72.6</ele><time>2026-03-22T11:02:27Z</time></trkpt><trkpt lat="48.4684856533819" lon="-4.074325046083139"><ele>75.0</ele><time>2026-03-22T11:02:29Z</time></trkpt><trkpt lat="48.468418944804455" lon="-4.074437866280116"><ele>75.0</ele><time>2026-03-22T11:02:29.999Z</time></trkpt><trkpt lat="48.46835809004812" lon="-4.074575820251913"><ele>75.0</ele><time>2026-03-22T11:02:30.999Z</time></trkpt><trkpt lat="48.468282529037786" lon="-4.074628589725432"><ele>75.0</ele><time>2026-03-22T11:02:32.999Z</time></trkpt><trkpt lat="48.46822180893061" lon="-4.07455664415962"><ele>75.0</ele><time>2026-03-22T11:02:33.999Z</time></trkpt><trkpt lat="48.46815003361052" lon="-4.074480635354853"><ele>75.0</ele><time>2026-03-22T11:02:34.999Z</time></trkpt><trkpt lat="48.468031033228385" lon="-4.0744005419664315"><ele>75.0</ele><time>2026-03-22T11:02:35.999Z</time></trkpt><trkpt lat="48.467947846552825" lon="-4.074385723195887"><ele>75.0</ele><time>2026-03-22T11:02:36.999Z</time></trkpt><trkpt lat="48.467844631973286" lon="-4.074384691164916"><ele>75.0</ele><time>2026-03-22T11:02:37.999Z</time></trkpt><trkpt lat="48.46773722388695" lon="-4.0743520317758355"><ele>75.0</ele><time>2026-03-22T11:02:38.999Z</time></trkpt><trkpt lat="48.46764090196865" lon="-4.074316470796994"><ele>75.0</ele><time>2026-03-22T11:02:39.999Z</time></trkpt><trkpt lat="48.46768660589458" lon="-4.074185438360876"><ele>75.83333333333333</ele><time>2026-03-22T11:02:42.999Z</time></trkpt><trkpt lat="48.46778099021259" lon="-4.0741495240762475"><ele>76.66666666666667</ele><time>2026-03-22T11:02:43.999Z</time></trkpt><trkpt lat="48.467845574076414" lon="-4.074113549087311"><ele>77.5</ele><time>2026-03-22T11:02:44.999Z</time></trkpt><trkpt lat="48.46781544172816" lon="-4.073990002513618"><ele>78.33333333333334</ele><time>2026-03-22T11:02:46.999Z</time></trkpt><trkpt lat="48.467763132789415" lon="-4.073920719095949"><ele>79.16666666666667</ele><time>2026-03-22T11:02:47.999Z</time></trkpt><trkpt lat="48.46770647165012" lon="-4.073874467805499"><ele>80.0</ele><time>2026-03-22T11:02:48.999Z</time></trkpt><trkpt lat="48.46763605407237" lon="-4.0737893877751095"><ele>83.4</ele><time>2026-03-22T11:02:49.999Z</time></trkpt><trkpt lat="48.46756893091741" lon="-4.073675062562339"><ele>86.8</ele><time>2026-03-22T11:02:50.999Z</time></trkpt><trkpt lat="48.46752460237024" lon="-4.073552105409667"><ele>90.19999999999999</ele><time>2026-03-22T11:02:51.999Z</time></trkpt><trkpt lat="48.46740847342153" lon="-4.073506147039771"><ele>93.6</ele><time>2026-03-22T11:02:53.999Z</time></trkpt><trkpt lat="48.467285168353406" lon="-4.073557002073964"><ele>97.0</ele><time>2026-03-22T11:02:55.999Z</time></trkpt><trkpt lat="48.4672225452099" lon="-4.073502824125036"><ele>97.0</ele><time>2026-03-22T11:02:56.999Z</time></trkpt><trkpt lat="48.467167148866665" lon="-4.073414705472515"><ele>97.0</ele><time>2026-03-22T11:02:57.999Z</time></trkpt><trkpt lat="48.46710015636965" lon="-4.073305420620199"><ele>97.0</ele><time>2026-03-22T11:02:58.999Z</time></trkpt><trkpt lat="48.46702448001262" lon="-4.07320951699328"><ele>97.0</ele><time>2026-03-22T11:02:59.999Z</time></trkpt><trkpt lat="48.46693765653141" lon="-4.0731376409740125"><ele>97.0</ele><time>2026-03-22T11:03:00.999Z</time></trkpt><trkpt lat="48.46684383275953" lon="-4.073086067286173"><ele>98.0</ele><time>2026-03-22T11:03:01.999Z</time></trkpt><trkpt lat="48.466720970745854" lon="-4.073035751097017"><ele>99.0</ele><time>2026-03-22T11:03:02.999Z</time></trkpt><trkpt lat="48.46659069387512" lon="-4.072969496343278"><ele>100.0</ele><time>2026-03-22T11:03:03.999Z</time></trkpt><trkpt lat="48.46646670874779" lon="-4.072909396504644"><ele>101.0</ele><time>2026-03-22T11:03:04.999Z</time></trkpt><trkpt lat="48.46635737576681" lon="-4.072857630545684"><ele>99.8</ele><time>2026-03-22T11:03:05.999Z</time></trkpt><trkpt lat="48.46625407958477" lon="-4.0728066655823"><ele>98.6</ele><time>2026-03-22T11:03:06.999Z</time></trkpt><trkpt lat="48.46614740158174" lon="-4.072753145446615"><ele>97.4</ele><time>2026-03-22T11:03:07.999Z</time></trkpt><trkpt lat="48.466039309800806" lon="-4.072717241225862"><ele>96.2</ele><time>2026-03-22T11:03:08.999Z</time></trkpt><trkpt lat="48.46596044934862" lon="-4.072684677026856"><ele>95.0</ele><time>2026-03-22T11:03:09.999Z</time></trkpt><trkpt lat="48.465837044281365" lon="-4.072666705926526"><ele>95.0</ele><time>2026-03-22T11:03:11.999Z</time></trkpt><trkpt lat="48.46575410727842" lon="-4.072615076746459"><ele>95.0</ele><time>2026-03-22T11:03:12.999Z</time></trkpt><trkpt lat="48.46566971284602" lon="-4.07257816480886"><ele>95.0</ele><time>2026-03-22T11:03:13.999Z</time></trkpt><trkpt lat="48.46557587703196" lon="-4.072528771706437"><ele>95.0</ele><time>2026-03-22T11:03:14.999Z</time></trkpt><trkpt lat="48.46545539943293" lon="-4.072461464604683"><ele>95.0</ele><time>2026-03-22T11:03:15.999Z</time></trkpt><trkpt lat="48.46531442161849" lon="-4.072426774075299"><ele>94.83333333333334</ele><time>2026-03-22T11:03:16.999Z</time></trkpt><trkpt lat="48.4652012070948" lon="-4.072404742884493"><ele>94.66666666666667</ele><time>2026-03-22T11:03:17.999Z</time></trkpt><trkpt lat="48.46513424574962" lon="-4.0723844294321765"><ele>94.5</ele><time>2026-03-22T11:03:18.999Z</time></trkpt><trkpt lat="48.465050747730245" lon="-4.072383247024479"><ele>94.33333333333333</ele><time>2026-03-22T11:03:19.999Z</time></trkpt><trkpt lat="48.46498198350912" lon="-4.07242990912758"><ele>94.16666666666666</ele><time>2026-03-22T11:03:20.999Z</time></trkpt><trkpt lat="48.464902024677265" lon="-4.072493359540698"><ele>94.0</ele><time>2026-03-22T11:03:21.999Z</time></trkpt><trkpt lat="48.464818174446386" lon="-4.072508847130511"><ele>94.0</ele><time>2026-03-22T11:03:22.999Z</time></trkpt><trkpt lat="48.46471430099355" lon="-4.072511195383005"><ele>94.0</ele><time>2026-03-22T11:03:23.999Z</time></trkpt><trkpt lat="48.46463444302967" lon="-4.07250115650507"><ele>94.0</ele><time>2026-03-22T11:03:24.999Z</time></trkpt><trkpt lat="48.464527969876464" lon="-4.072526707759472"><ele>94.0</ele><time>2026-03-22T11:03:26.999Z</time></trkpt><trkpt lat="48.46452817181373" lon="-4.072410722225432"><ele>94.0</ele><time>2026-03-22T11:03:29.999Z</time></trkpt><trkpt lat="48.46444550583407" lon="-4.072368882760994"><ele>94.4</ele><time>2026-03-22T11:03:32.999Z</time></trkpt><trkpt lat="48.46437491522074" lon="-4.072318433456974"><ele>94.80000000000001</ele><time>2026-03-22T11:03:33.999Z</time></trkpt><trkpt lat="48.4643024718814" lon="-4.072231625208709"><ele>95.19999999999999</ele><time>2026-03-22T11:03:34.999Z</time></trkpt><trkpt lat="48.46424113947874" lon="-4.07213783031617"><ele>95.6</ele><time>2026-03-22T11:03:35.999Z</time></trkpt><trkpt lat="48.46423335170252" lon="-4.071978490940707"><ele>96.0</ele><time>2026-03-22T11:03:37.999Z</time></trkpt><trkpt lat="48.464220006750445" lon="-4.071847492726006"><ele>96.0</ele><time>2026-03-22T11:03:38.999Z</time></trkpt><trkpt lat="48.46417914639679" lon="-4.071743537730196"><ele>96.0</ele><time>2026-03-22T11:03:39.999Z</time></trkpt><trkpt lat="48.46418181461102" lon="-4.071637853744774"><ele>96.0</ele><time>2026-03-22T11:03:41.999Z</time></trkpt><trkpt lat="48.46428145930111" lon="-4.0715608468508515"><ele>96.0</ele><time>2026-03-22T11:03:43.999Z</time></trkpt><trkpt lat="48.46423974929198" lon="-4.071483445109075"><ele>96.0</ele><time>2026-03-22T11:03:46.999Z</time></trkpt><trkpt lat="48.46413789437093" lon="-4.071514056702597"><ele>96.0</ele><time>2026-03-22T11:03:47.999Z</time></trkpt><trkpt lat="48.464002613402904" lon="-4.071561855402513"><ele>96.0</ele><time>2026-03-22T11:03:48.999Z</time></trkpt><trkpt lat="48.46385597252003" lon="-4.071575208084042"><ele>96.0</ele><time>2026-03-22T11:03:49.999Z</time></trkpt><trkpt lat="48.46370483079178" lon="-4.071581907714777"><ele>96.0</ele><time>2026-03-22T11:03:50.999Z</time></trkpt><trkpt lat="48.46356165390605" lon="-4.071575792890227"><ele>96.0</ele><time>2026-03-22T11:03:51.999Z</time></trkpt><trkpt lat="48.46343050937805" lon="-4.071545798957293"><ele>94.19999999999999</ele><time>2026-03-22T11:03:52.999Z</time></trkpt><trkpt lat="48.46333648989566" lon="-4.071499989043264"><ele>92.39999999999999</ele><time>2026-03-22T11:03:53.999Z</time></trkpt><trkpt lat="48.46326433072745" lon="-4.071458779355626"><ele>90.6</ele><time>2026-03-22T11:03:54.999Z</time></trkpt><trkpt lat="48.46319875604091" lon="-4.071320965032821"><ele>88.8</ele><time>2026-03-22T11:03:56.999Z</time></trkpt><trkpt lat="48.463192542726645" lon="-4.071168405372245"><ele>87.0</ele><time>2026-03-22T11:03:57.999Z</time></trkpt><trkpt lat="48.46321405460896" lon="-4.0710334942941"><ele>87.0</ele><time>2026-03-22T11:03:58.999Z</time></trkpt><trkpt lat="48.463223120494014" lon="-4.0708391999946105"><ele>87.0</ele><time>2026-03-22T11:03:59.999Z</time></trkpt><trkpt lat="48.46324415475124" lon="-4.070626087990505"><ele>87.0</ele><time>2026-03-22T11:04:00.999Z</time></trkpt><trkpt lat="48.46325383956526" lon="-4.070403541219299"><ele>87.0</ele><time>2026-03-22T11:04:01.999Z</time></trkpt><trkpt lat="48.463268628483014" lon="-4.070235185210707"><ele>86.75</ele><time>2026-03-22T11:04:02.999Z</time></trkpt><trkpt lat="48.463283229208635" lon="-4.070109488866547"><ele>86.5</ele><time>2026-03-22T11:04:03.999Z</time></trkpt><trkpt lat="48.46323428985558" lon="-4.069910070883996"><ele>86.25</ele><time>2026-03-22T11:04:05.999Z</time></trkpt><trkpt lat="48.46316780160923" lon="-4.069772657943759"><ele>86.0</ele><time>2026-03-22T11:04:06.999Z</time></trkpt><trkpt lat="48.46308956581143" lon="-4.069582909519252"><ele>86.25</ele><time>2026-03-22T11:04:07.999Z</time></trkpt><trkpt lat="48.46300696793058" lon="-4.069381905976767"><ele>86.5</ele><time>2026-03-22T11:04:08.999Z</time></trkpt><trkpt lat="48.46292432726111" lon="-4.06919072736633"><ele>86.75</ele><time>2026-03-22T11:04:09.999Z</time></trkpt><trkpt lat="48.462852448645236" lon="-4.0690439020730675"><ele>87.0</ele><time>2026-03-22T11:04:10.999Z</time></trkpt><trkpt lat="48.46281715566469" lon="-4.068893651632125"><ele>87.16666666666667</ele><time>2026-03-22T11:04:11.999Z</time></trkpt><trkpt lat="48.46280506570412" lon="-4.06877708696689"><ele>87.33333333333333</ele><time>2026-03-22T11:04:12.999Z</time></trkpt><trkpt lat="48.46279072205504" lon="-4.068672814280113"><ele>87.5</ele><time>2026-03-22T11:04:13.999Z</time></trkpt><trkpt lat="48.46276001329187" lon="-4.068571101630507"><ele>87.66666666666666</ele><time>2026-03-22T11:04:14.999Z</time></trkpt><trkpt lat="48.462729004127816" lon="-4.06847211038377"><ele>87.83333333333333</ele><time>2026-03-22T11:04:15.999Z</time></trkpt><trkpt lat="48.462731020151004" lon="-4.068329191133506"><ele>88.0</ele><time>2026-03-22T11:04:17.999Z</time></trkpt><trkpt lat="48.462801547374795" lon="-4.068240960312925"><ele>88.75</ele><time>2026-03-22T11:04:19.999Z</time></trkpt><trkpt lat="48.46285935966126" lon="-4.068118162309011"><ele>89.5</ele><time>2026-03-22T11:04:20.999Z</time></trkpt><trkpt lat="48.46293999589632" lon="-4.067938750466718"><ele>90.25</ele><time>2026-03-22T11:04:21.999Z</time></trkpt><trkpt lat="48.46301360483218" lon="-4.067765139412434"><ele>91.0</ele><time>2026-03-22T11:04:22.999Z</time></trkpt><trkpt lat="48.46308762332713" lon="-4.067583749903033"><ele>91.0</ele><time>2026-03-22T11:04:23.999Z</time></trkpt><trkpt lat="48.463127242115135" lon="-4.067469756814794"><ele>91.0</ele><time>2026-03-22T11:04:24.999Z</time></trkpt><trkpt lat="48.46314595444454" lon="-4.067369086684696"><ele>91.0</ele><time>2026-03-22T11:04:25.999Z</time></trkpt><trkpt lat="48.463251909495554" lon="-4.0672631941395325"><ele>91.0</ele><time>2026-03-22T11:04:27.999Z</time></trkpt><trkpt lat="48.463340385324166" lon="-4.067281714859699"><ele>91.0</ele><time>2026-03-22T11:04:28.999Z</time></trkpt><trkpt lat="48.46344191137037" lon="-4.067302650674041"><ele>91.16666666666666</ele><time>2026-03-22T11:04:29.999Z</time></trkpt><trkpt lat="48.46353833073462" lon="-4.067331146745548"><ele>91.33333333333333</ele><time>2026-03-22T11:04:30.999Z</time></trkpt><trkpt lat="48.463616115314444" lon="-4.067329412430096"><ele>91.5</ele><time>2026-03-22T11:04:31.999Z</time></trkpt><trkpt lat="48.46367865787753" lon="-4.067308157855233"><ele>91.66666666666667</ele><time>2026-03-22T11:04:32.999Z</time></trkpt><trkpt lat="48.46373739270611" lon="-4.067241824937504"><ele>91.83333333333334</ele><time>2026-03-22T11:04:33.999Z</time></trkpt><trkpt lat="48.46376648644118" lon="-4.067142687753334"><ele>92.0</ele><time>2026-03-22T11:04:34.999Z</time></trkpt><trkpt lat="48.46380553776974" lon="-4.067029815077815"><ele>92.19999999999999</ele><time>2026-03-22T11:04:35.999Z</time></trkpt><trkpt lat="48.46383237842732" lon="-4.066869207038245"><ele>92.4</ele><time>2026-03-22T11:04:37.999Z</time></trkpt><trkpt lat="48.463822936360536" lon="-4.06671177851434"><ele>92.6</ele><time>2026-03-22T11:04:39.999Z</time></trkpt><trkpt lat="48.46379788315544" lon="-4.066599304808321"><ele>92.80000000000001</ele><time>2026-03-22T11:04:40.999Z</time></trkpt><trkpt lat="48.463772137575006" lon="-4.066467115299158"><ele>93.0</ele><time>2026-03-22T11:04:41.999Z</time></trkpt><trkpt lat="48.46373940137334" lon="-4.066336700099324"><ele>93.0</ele><time>2026-03-22T11:04:42.999Z</time></trkpt><trkpt lat="48.463697386065746" lon="-4.066199166101827"><ele>93.0</ele><time>2026-03-22T11:04:43.999Z</time></trkpt><trkpt lat="48.46364932340402" lon="-4.066069779986462"><ele>93.0</ele><time>2026-03-22T11:04:44.999Z</time></trkpt><trkpt lat="48.46359023515561" lon="-4.065952505920027"><ele>93.0</ele><time>2026-03-22T11:04:45.999Z</time></trkpt><trkpt lat="48.46353827420294" lon="-4.065829104599317"><ele>93.0</ele><time>2026-03-22T11:04:46.999Z</time></trkpt><trkpt lat="48.463507731845766" lon="-4.065706131378187"><ele>93.4</ele><time>2026-03-22T11:04:47.999Z</time></trkpt><trkpt lat="48.463516022484846" lon="-4.065556312117591"><ele>93.80000000000001</ele><time>2026-03-22T11:04:48.999Z</time></trkpt><trkpt lat="48.463554076829894" lon="-4.065415616478299"><ele>94.2</ele><time>2026-03-22T11:04:49.999Z</time></trkpt><trkpt lat="48.46360774157179" lon="-4.065307403874101"><ele>94.6</ele><time>2026-03-22T11:04:50.999Z</time></trkpt><trkpt lat="48.46365950976646" lon="-4.065201559946838"><ele>95.0</ele><time>2026-03-22T11:04:51.999Z</time></trkpt><trkpt lat="48.463707008380865" lon="-4.065101089555003"><ele>95.0</ele><time>2026-03-22T11:04:52.999Z</time></trkpt><trkpt lat="48.46375221646087" lon="-4.064968188809231"><ele>95.0</ele><time>2026-03-22T11:04:53.999Z</time></trkpt><trkpt lat="48.46374827918058" lon="-4.064799607610288"><ele>95.0</ele><time>2026-03-22T11:04:54.999Z</time></trkpt><trkpt lat="48.463723631392526" lon="-4.064638632681692"><ele>95.0</ele><time>2026-03-22T11:04:55.999Z</time></trkpt><trkpt lat="48.463676137728406" lon="-4.064497661855359"><ele>95.0</ele><time>2026-03-22T11:04:56.999Z</time></trkpt><trkpt lat="48.463607589108136" lon="-4.064357430509818"><ele>95.75</ele><time>2026-03-22T11:04:57.999Z</time></trkpt><trkpt lat="48.463520239053295" lon="-4.064236107237866"><ele>96.5</ele><time>2026-03-22T11:04:58.999Z</time></trkpt><trkpt lat="48.46343043745219" lon="-4.064112634288607"><ele>97.25</ele><time>2026-03-22T11:04:59.999Z</time></trkpt><trkpt lat="48.46333736897708" lon="-4.063968635794756"><ele>98.0</ele><time>2026-03-22T11:05:00.999Z</time></trkpt><trkpt lat="48.463238264988206" lon="-4.063831309843774"><ele>98.5</ele><time>2026-03-22T11:05:01.999Z</time></trkpt><trkpt lat="48.46313751862033" lon="-4.063681297508736"><ele>99.0</ele><time>2026-03-22T11:05:02.999Z</time></trkpt><trkpt lat="48.46304645688427" lon="-4.0635329246340675"><ele>99.5</ele><time>2026-03-22T11:05:03.999Z</time></trkpt><trkpt lat="48.462962279285705" lon="-4.063410083267618"><ele>100.0</ele><time>2026-03-22T11:05:04.999Z</time></trkpt><trkpt lat="48.462907353859414" lon="-4.063300447221894"><ele>100.6</ele><time>2026-03-22T11:05:05.999Z</time></trkpt><trkpt lat="48.462856244239504" lon="-4.063213961781221"><ele>101.2</ele><time>2026-03-22T11:05:06.999Z</time></trkpt><trkpt lat="48.46277741747021" lon="-4.063126336102208"><ele>101.80000000000001</ele><time>2026-03-22T11:05:08.999Z</time></trkpt><trkpt lat="48.46269020675571" lon="-4.062967634776316"><ele>102.4</ele><time>2026-03-22T11:05:10.999Z</time></trkpt><trkpt lat="48.46264973734598" lon="-4.06286694766446"><ele>103.0</ele><time>2026-03-22T11:05:11.999Z</time></trkpt><trkpt lat="48.462616287598166" lon="-4.062721108603524"><ele>103.0</ele><time>2026-03-22T11:05:12.999Z</time></trkpt><trkpt lat="48.462563021439266" lon="-4.062542810028643"><ele>103.0</ele><time>2026-03-22T11:05:13.999Z</time></trkpt><trkpt lat="48.46249818645832" lon="-4.062317386276978"><ele>103.0</ele><time>2026-03-22T11:05:14.999Z</time></trkpt><trkpt lat="48.46244202715671" lon="-4.062062858886604"><ele>104.5</ele><time>2026-03-22T11:05:15.999Z</time></trkpt><trkpt lat="48.46237265216902" lon="-4.061849769686353"><ele>106.0</ele><time>2026-03-22T11:05:16.999Z</time></trkpt><trkpt lat="48.46230939284339" lon="-4.06166731591225"><ele>107.5</ele><time>2026-03-22T11:05:17.999Z</time></trkpt><trkpt lat="48.462249738021455" lon="-4.061503627496319"><ele>109.0</ele><time>2026-03-22T11:05:18.999Z</time></trkpt><trkpt lat="48.46220224344071" lon="-4.061347442126841"><ele>110.0</ele><time>2026-03-22T11:05:19.999Z</time></trkpt><trkpt lat="48.46216060180458" lon="-4.061211122256165"><ele>111.0</ele><time>2026-03-22T11:05:20.999Z</time></trkpt><trkpt lat="48.46212480350425" lon="-4.061116062137083"><ele>112.0</ele><time>2026-03-22T11:05:21.999Z</time></trkpt><trkpt lat="48.46227844026093" lon="-4.060929047918196"><ele>113.0</ele><time>2026-03-22T11:05:24.999Z</time></trkpt><trkpt lat="48.46236467864768" lon="-4.0608920782850575"><ele>113.0</ele><time>2026-03-22T11:05:25.999Z</time></trkpt><trkpt lat="48.46245317571848" lon="-4.060869436262322"><ele>113.00000000000001</ele><time>2026-03-22T11:05:26.999Z</time></trkpt><trkpt lat="48.462526400397884" lon="-4.060846556100275"><ele>113.00000000000001</ele><time>2026-03-22T11:05:27.999Z</time></trkpt><trkpt lat="48.462632822727315" lon="-4.060782440500719"><ele>113.0</ele><time>2026-03-22T11:05:28.999Z</time></trkpt><trkpt lat="48.46275600315925" lon="-4.060722758546849"><ele>113.0</ele><time>2026-03-22T11:05:29.999Z</time></trkpt><trkpt lat="48.46286332326941" lon="-4.06066740826054"><ele>115.5</ele><time>2026-03-22T11:05:30.999Z</time></trkpt><trkpt lat="48.46298470575957" lon="-4.0605968633885645"><ele>118.0</ele><time>2026-03-22T11:05:31.999Z</time></trkpt><trkpt lat="48.46312689798761" lon="-4.060535349660246"><ele>120.5</ele><time>2026-03-22T11:05:32.999Z</time></trkpt><trkpt lat="48.46326816100626" lon="-4.060445732778619"><ele>123.0</ele><time>2026-03-22T11:05:33.999Z</time></trkpt><trkpt lat="48.46340667360421" lon="-4.060380731249314"><ele>123.0</ele><time>2026-03-22T11:05:34.999Z</time></trkpt><trkpt lat="48.46353020974057" lon="-4.060320843899834"><ele>123.0</ele><time>2026-03-22T11:05:35.999Z</time></trkpt><trkpt lat="48.46363536037269" lon="-4.060252616013389"><ele>123.0</ele><time>2026-03-22T11:05:36.999Z</time></trkpt><trkpt lat="48.46374579024368" lon="-4.060179548749031"><ele>123.0</ele><time>2026-03-22T11:05:37.999Z</time></trkpt><trkpt lat="48.4638715425677" lon="-4.060096457096454"><ele>123.5</ele><time>2026-03-22T11:05:38.999Z</time></trkpt><trkpt lat="48.463994256228965" lon="-4.060019524550371"><ele>124.0</ele><time>2026-03-22T11:05:39.999Z</time></trkpt><trkpt lat="48.464104893296124" lon="-4.0599219187221465"><ele>124.5</ele><time>2026-03-22T11:05:40.999Z</time></trkpt><trkpt lat="48.464198021572415" lon="-4.059839422023723"><ele>125.0</ele><time>2026-03-22T11:05:41.999Z</time></trkpt><trkpt lat="48.46428100918754" lon="-4.059798127136773"><ele>125.0</ele><time>2026-03-22T11:05:42.999Z</time></trkpt><trkpt lat="48.464402459807616" lon="-4.0597633031173"><ele>125.0</ele><time>2026-03-22T11:05:43.999Z</time></trkpt><trkpt lat="48.46451151737401" lon="-4.0596941351549996"><ele>125.0</ele><time>2026-03-22T11:05:44.999Z</time></trkpt><trkpt lat="48.46463468605104" lon="-4.0596086623264815"><ele>125.0</ele><time>2026-03-22T11:05:45.999Z</time></trkpt><trkpt lat="48.46475841716154" lon="-4.059526570686076"><ele>125.0</ele><time>2026-03-22T11:05:46.999Z</time></trkpt><trkpt lat="48.464844631648546" lon="-4.059443386587105"><ele>125.0</ele><time>2026-03-22T11:05:47.999Z</time></trkpt><trkpt lat="48.46493491612313" lon="-4.059384702658106"><ele>125.0</ele><time>2026-03-22T11:05:48.999Z</time></trkpt><trkpt lat="48.465058203227386" lon="-4.059304728396389"><ele>125.0</ele><time>2026-03-22T11:05:49.999Z</time></trkpt><trkpt lat="48.46516692268086" lon="-4.0592354271654685"><ele>124.99999999999999</ele><time>2026-03-22T11:05:50.999Z</time></trkpt><trkpt lat="48.4652564782101" lon="-4.059153077065977"><ele>125.0</ele><time>2026-03-22T11:05:51.999Z</time></trkpt><trkpt lat="48.465334018728456" lon="-4.059085609085743"><ele>125.0</ele><time>2026-03-22T11:05:52.999Z</time></trkpt><trkpt lat="48.465408090081894" lon="-4.059031187304336"><ele>125.0</ele><time>2026-03-22T11:05:53.999Z</time></trkpt><trkpt lat="48.46547809386333" lon="-4.058981213144102"><ele>124.99999999999999</ele><time>2026-03-22T11:05:54.999Z</time></trkpt><trkpt lat="48.46554881509671" lon="-4.058951825161264"><ele>125.0</ele><time>2026-03-22T11:05:55.999Z</time></trkpt><trkpt lat="48.46566132199349" lon="-4.058952519159048"><ele>124.4</ele><time>2026-03-22T11:05:56.999Z</time></trkpt><trkpt lat="48.46577792993143" lon="-4.0589269123904606"><ele>123.8</ele><time>2026-03-22T11:05:57.999Z</time></trkpt><trkpt lat="48.46587766734896" lon="-4.058853276221661"><ele>123.19999999999999</ele><time>2026-03-22T11:05:58.999Z</time></trkpt><trkpt lat="48.46596499229124" lon="-4.058798891918358"><ele>122.6</ele><time>2026-03-22T11:05:59.999Z</time></trkpt><trkpt lat="48.46607425670785" lon="-4.058731988223854"><ele>122.0</ele><time>2026-03-22T11:06:00.999Z</time></trkpt><trkpt lat="48.466186489069855" lon="-4.058655018205049"><ele>120.0</ele><time>2026-03-22T11:06:01.999Z</time></trkpt><trkpt lat="48.46628608703904" lon="-4.058570442563529"><ele>117.99999999999999</ele><time>2026-03-22T11:06:02.999Z</time></trkpt><trkpt lat="48.466366416700254" lon="-4.058486775008137"><ele>115.99999999999999</ele><time>2026-03-22T11:06:03.999Z</time></trkpt><trkpt lat="48.466437028860234" lon="-4.058416711051213"><ele>114.0</ele><time>2026-03-22T11:06:04.999Z</time></trkpt><trkpt lat="48.46651210957837" lon="-4.058342785812886"><ele>112.0</ele><time>2026-03-22T11:06:05.999Z</time></trkpt><trkpt lat="48.46663416480894" lon="-4.058218648903361"><ele>111.8</ele><time>2026-03-22T11:06:06.999Z</time></trkpt><trkpt lat="48.46673848405013" lon="-4.058122933678826"><ele>111.6</ele><time>2026-03-22T11:06:07.999Z</time></trkpt><trkpt lat="48.46683971500772" lon="-4.058043006580668"><ele>111.39999999999999</ele><time>2026-03-22T11:06:08.999Z</time></trkpt><trkpt lat="48.46691140531783" lon="-4.057975316010432"><ele>111.19999999999999</ele><time>2026-03-22T11:06:09.999Z</time></trkpt><trkpt lat="48.46697791010195" lon="-4.057937512908882"><ele>111.0</ele><time>2026-03-22T11:06:10.999Z</time></trkpt><trkpt lat="48.46703616271017" lon="-4.057900169506247"><ele>111.0</ele><time>2026-03-22T11:06:11.999Z</time></trkpt><trkpt lat="48.46710694255766" lon="-4.057882342187236"><ele>111.0</ele><time>2026-03-22T11:06:13.999Z</time></trkpt><trkpt lat="48.467158424356306" lon="-4.057954742124768"><ele>111.0</ele><time>2026-03-22T11:06:15.999Z</time></trkpt><trkpt lat="48.46717793661462" lon="-4.058072561425685"><ele>111.0</ele><time>2026-03-22T11:06:16.999Z</time></trkpt><trkpt lat="48.467198533909716" lon="-4.058206674031543"><ele>111.0</ele><time>2026-03-22T11:06:17.999Z</time></trkpt><trkpt lat="48.46723511125706" lon="-4.058364120190865"><ele>111.0</ele><time>2026-03-22T11:06:19Z</time></trkpt><trkpt lat="48.467279332563834" lon="-4.058524620656664"><ele>109.25</ele><time>2026-03-22T11:06:20Z</time></trkpt><trkpt lat="48.46733106203814" lon="-4.058686609254278"><ele>107.5</ele><time>2026-03-22T11:06:21Z</time></trkpt><trkpt lat="48.46738784860082" lon="-4.0588568832821235"><ele>105.75</ele><time>2026-03-22T11:06:22Z</time></trkpt><trkpt lat="48.467468341286946" lon="-4.059038201200491"><ele>104.0</ele><time>2026-03-22T11:06:23Z</time></trkpt><trkpt lat="48.46753426741911" lon="-4.059228774343993"><ele>104.0</ele><time>2026-03-22T11:06:24Z</time></trkpt><trkpt lat="48.46760371283118" lon="-4.059429520005181"><ele>104.0</ele><time>2026-03-22T11:06:25Z</time></trkpt><trkpt lat="48.467673336269826" lon="-4.059634959068438"><ele>104.0</ele><time>2026-03-22T11:06:26Z</time></trkpt><trkpt lat="48.46774852451078" lon="-4.059849880712388"><ele>103.75</ele><time>2026-03-22T11:06:27Z</time></trkpt><trkpt lat="48.46782879345097" lon="-4.060044932853983"><ele>103.5</ele><time>2026-03-22T11:06:28Z</time></trkpt><trkpt lat="48.467915416117506" lon="-4.060215308621402"><ele>103.25</ele><time>2026-03-22T11:06:29Z</time></trkpt><trkpt lat="48.46800736450532" lon="-4.0603325320472825"><ele>103.0</ele><time>2026-03-22T11:06:30Z</time></trkpt><trkpt lat="48.468130645663095" lon="-4.0603910694780145"><ele>103.0</ele><time>2026-03-22T11:06:31Z</time></trkpt><trkpt lat="48.46827567009781" lon="-4.060423157761351"><ele>103.0</ele><time>2026-03-22T11:06:32Z</time></trkpt><trkpt lat="48.46842907022797" lon="-4.060463069602427"><ele>103.0</ele><time>2026-03-22T11:06:33Z</time></trkpt><trkpt lat="48.468568629074035" lon="-4.060517877415293"><ele>103.0</ele><time>2026-03-22T11:06:34Z</time></trkpt><trkpt lat="48.46868711065853" lon="-4.060612044249489"><ele>102.5</ele><time>2026-03-22T11:06:35Z</time></trkpt><trkpt lat="48.468794268075385" lon="-4.060731540958564"><ele>102.0</ele><time>2026-03-22T11:06:36Z</time></trkpt><trkpt lat="48.46887363177831" lon="-4.060906240175725"><ele>101.5</ele><time>2026-03-22T11:06:37Z</time></trkpt><trkpt lat="48.468934325022474" lon="-4.061103602464353"><ele>101.0</ele><time>2026-03-22T11:06:38Z</time></trkpt><trkpt lat="48.4690066414275" lon="-4.061304497846808"><ele>101.8</ele><time>2026-03-22T11:06:39Z</time></trkpt><trkpt lat="48.469054083778275" lon="-4.061493731016105"><ele>102.6</ele><time>2026-03-22T11:06:40Z</time></trkpt><trkpt lat="48.46908523388153" lon="-4.061657986074202"><ele>103.4</ele><time>2026-03-22T11:06:41Z</time></trkpt><trkpt lat="48.46909597873835" lon="-4.061779163148582"><ele>104.2</ele><time>2026-03-22T11:06:42Z</time></trkpt><trkpt lat="48.46913646111733" lon="-4.061869449254364"><ele>105.0</ele><time>2026-03-22T11:06:44Z</time></trkpt><trkpt lat="48.46923842054207" lon="-4.061830368634963"><ele>106.75</ele><time>2026-03-22T11:06:45Z</time></trkpt><trkpt lat="48.46932053581658" lon="-4.061788061236329"><ele>108.5</ele><time>2026-03-22T11:06:46Z</time></trkpt><trkpt lat="48.4694579828805" lon="-4.061780421618515"><ele>110.25</ele><time>2026-03-22T11:06:47Z</time></trkpt><trkpt lat="48.46957513081158" lon="-4.0618032734109155"><ele>112.0</ele><time>2026-03-22T11:06:48Z</time></trkpt><trkpt lat="48.46971177879242" lon="-4.061816777918223"><ele>112.25</ele><time>2026-03-22T11:06:49Z</time></trkpt><trkpt lat="48.46985458743839" lon="-4.061816577271488"><ele>112.5</ele><time>2026-03-22T11:06:50Z</time></trkpt><trkpt lat="48.47000523290772" lon="-4.061807838290948"><ele>112.75</ele><time>2026-03-22T11:06:51Z</time></trkpt><trkpt lat="48.47015508570287" lon="-4.061794002491529"><ele>113.0</ele><time>2026-03-22T11:06:52Z</time></trkpt><trkpt lat="48.47029423802335" lon="-4.061779812722293"><ele>113.0</ele><time>2026-03-22T11:06:53Z</time></trkpt><trkpt lat="48.470416562140684" lon="-4.061771113660837"><ele>113.00000000000001</ele><time>2026-03-22T11:06:54Z</time></trkpt><trkpt lat="48.47052531430271" lon="-4.0617725724467295"><ele>113.00000000000001</ele><time>2026-03-22T11:06:55Z</time></trkpt><trkpt lat="48.470629188703604" lon="-4.061782930760594"><ele>113.0</ele><time>2026-03-22T11:06:56Z</time></trkpt><trkpt lat="48.47073004862679" lon="-4.0618019088733615"><ele>113.0</ele><time>2026-03-22T11:06:56.999Z</time></trkpt><trkpt lat="48.47082259057463" lon="-4.061841127575521"><ele>113.0</ele><time>2026-03-22T11:06:57.999Z</time></trkpt><trkpt lat="48.47089191144" lon="-4.061917589568429"><ele>113.0</ele><time>2026-03-22T11:06:58.999Z</time></trkpt><trkpt lat="48.4709684757996" lon="-4.061942827679932"><ele>113.0</ele><time>2026-03-22T11:06:59.999Z</time></trkpt><trkpt lat="48.47112475222463" lon="-4.061656761195762"><ele>113.0</ele><time>2026-03-22T11:07:02.999Z</time></trkpt><trkpt lat="48.471198488767236" lon="-4.061499696692463"><ele>113.0</ele><time>2026-03-22T11:07:03.999Z</time></trkpt><trkpt lat="48.471262596227874" lon="-4.061339223587139"><ele>113.00000000000001</ele><time>2026-03-22T11:07:04.999Z</time></trkpt><trkpt lat="48.47131448624597" lon="-4.061212300152195"><ele>113.00000000000001</ele><time>2026-03-22T11:07:05.999Z</time></trkpt><trkpt lat="48.47140000171864" lon="-4.061124495259921"><ele>113.0</ele><time>2026-03-22T11:07:06.999Z</time></trkpt><trkpt lat="48.471503134883086" lon="-4.061146173809848"><ele>113.0</ele><time>2026-03-22T11:07:07.999Z</time></trkpt><trkpt lat="48.47160643053774" lon="-4.061159760988988"><ele>112.75</ele><time>2026-03-22T11:07:08.999Z</time></trkpt><trkpt lat="48.471698878375484" lon="-4.06119519393873"><ele>112.5</ele><time>2026-03-22T11:07:09.999Z</time></trkpt><trkpt lat="48.471771656960925" lon="-4.061214743148496"><ele>112.25</ele><time>2026-03-22T11:07:10.999Z</time></trkpt><trkpt lat="48.47191967900174" lon="-4.0612545037203684"><ele>112.0</ele><time>2026-03-22T11:07:12.999Z</time></trkpt><trkpt lat="48.47205242034659" lon="-4.061063317171306"><ele>110.8</ele><time>2026-03-22T11:07:13.999Z</time></trkpt><trkpt lat="48.472178177833584" lon="-4.0610505201012765"><ele>109.6</ele><time>2026-03-22T11:07:14.999Z</time></trkpt><trkpt lat="48.472293467458684" lon="-4.061050094811596"><ele>108.39999999999999</ele><time>2026-03-22T11:07:15.999Z</time></trkpt><trkpt lat="48.47238448673312" lon="-4.061064180397766"><ele>107.19999999999999</ele><time>2026-03-22T11:07:16.999Z</time></trkpt><trkpt lat="48.47247267143019" lon="-4.061075332339239"><ele>106.0</ele><time>2026-03-22T11:07:17.999Z</time></trkpt><trkpt lat="48.472571682038996" lon="-4.061091467734928"><ele>106.0</ele><time>2026-03-22T11:07:18.999Z</time></trkpt><trkpt lat="48.47269854565651" lon="-4.0611183958869"><ele>106.0</ele><time>2026-03-22T11:07:19.999Z</time></trkpt><trkpt lat="48.47280605746297" lon="-4.061124952593028"><ele>106.0</ele><time>2026-03-22T11:07:20.999Z</time></trkpt><trkpt lat="48.4729054386914" lon="-4.061143134650024"><ele>106.0</ele><time>2026-03-22T11:07:21.999Z</time></trkpt><trkpt lat="48.47302134102096" lon="-4.061163619635596"><ele>105.0</ele><time>2026-03-22T11:07:22.999Z</time></trkpt><trkpt lat="48.47312690389774" lon="-4.0611591459427805"><ele>104.0</ele><time>2026-03-22T11:07:23.999Z</time></trkpt><trkpt lat="48.4732222719847" lon="-4.061171796586783"><ele>103.0</ele><time>2026-03-22T11:07:24.999Z</time></trkpt><trkpt lat="48.473298100197134" lon="-4.061167787492834"><ele>102.0</ele><time>2026-03-22T11:07:25.999Z</time></trkpt><trkpt lat="48.473384572740244" lon="-4.061148717857407"><ele>101.0</ele><time>2026-03-22T11:07:26.999Z</time></trkpt><trkpt lat="48.473490661193445" lon="-4.06108752664152"><ele>100.99999999999999</ele><time>2026-03-22T11:07:27.999Z</time></trkpt><trkpt lat="48.4735482525837" lon="-4.061044211515116"><ele>101.0</ele><time>2026-03-22T11:07:28.999Z</time></trkpt><trkpt lat="48.47360945083897" lon="-4.061006548975789"><ele>101.0</ele><time>2026-03-22T11:07:29.999Z</time></trkpt><trkpt lat="48.473597655336306" lon="-4.060849282469172"><ele>101.0</ele><time>2026-03-22T11:07:31.999Z</time></trkpt><trkpt lat="48.473553907271494" lon="-4.060758747899863"><ele>100.99999999999999</ele><time>2026-03-22T11:07:32.999Z</time></trkpt><trkpt lat="48.473498330046155" lon="-4.060676678774832"><ele>101.0</ele><time>2026-03-22T11:07:33.999Z</time></trkpt><trkpt lat="48.47342671876178" lon="-4.060572560203222"><ele>100.49999999999999</ele><time>2026-03-22T11:07:34.999Z</time></trkpt><trkpt lat="48.47336537412662" lon="-4.060483936881853"><ele>100.0</ele><time>2026-03-22T11:07:35.999Z</time></trkpt><trkpt lat="48.47333327657316" lon="-4.0603456310658315"><ele>99.5</ele><time>2026-03-22T11:07:38.999Z</time></trkpt><trkpt lat="48.47335751243921" lon="-4.060237729529847"><ele>99.0</ele><time>2026-03-22T11:07:40.999Z</time></trkpt><trkpt lat="48.47337342677763" lon="-4.060120543755842"><ele>98.49999999999999</ele><time>2026-03-22T11:07:41.999Z</time></trkpt><trkpt lat="48.47337998850425" lon="-4.059984990044096"><ele>98.0</ele><time>2026-03-22T11:07:42.999Z</time></trkpt><trkpt lat="48.473359478675825" lon="-4.059857006313156"><ele>95.80000000000001</ele><time>2026-03-22T11:07:43.999Z</time></trkpt><trkpt lat="48.47333876760121" lon="-4.059716693061297"><ele>93.6</ele><time>2026-03-22T11:07:44.999Z</time></trkpt><trkpt lat="48.473329697339786" lon="-4.059575596049773"><ele>91.4</ele><time>2026-03-22T11:07:45.999Z</time></trkpt><trkpt lat="48.47329399938799" lon="-4.059458579797457"><ele>89.19999999999999</ele><time>2026-03-22T11:07:46.999Z</time></trkpt><trkpt lat="48.47325310608007" lon="-4.059333948954866"><ele>87.0</ele><time>2026-03-22T11:07:47.999Z</time></trkpt><trkpt lat="48.47317346853445" lon="-4.0591750332944265"><ele>84.75</ele><time>2026-03-22T11:07:48.999Z</time></trkpt><trkpt lat="48.473103247217175" lon="-4.058983216358531"><ele>82.5</ele><time>2026-03-22T11:07:49.999Z</time></trkpt><trkpt lat="48.4730585476141" lon="-4.058821387840627"><ele>80.25</ele><time>2026-03-22T11:07:50.999Z</time></trkpt><trkpt lat="48.473033289776076" lon="-4.058638092133518"><ele>78.0</ele><time>2026-03-22T11:07:51.999Z</time></trkpt><trkpt lat="48.473011710010226" lon="-4.058472753010115"><ele>78.0</ele><time>2026-03-22T11:07:52.999Z</time></trkpt><trkpt lat="48.47301538793775" lon="-4.05829001357549"><ele>78.0</ele><time>2026-03-22T11:07:53.999Z</time></trkpt><trkpt lat="48.473034238288136" lon="-4.058091047838622"><ele>78.0</ele><time>2026-03-22T11:07:54.999Z</time></trkpt><trkpt lat="48.473056722224655" lon="-4.057932255780989"><ele>78.0</ele><time>2026-03-22T11:07:55.999Z</time></trkpt><trkpt lat="48.47306001897862" lon="-4.057802210907389"><ele>78.0</ele><time>2026-03-22T11:07:56.999Z</time></trkpt><trkpt lat="48.47303173925607" lon="-4.0576659130209345"><ele>77.83333333333333</ele><time>2026-03-22T11:07:57.999Z</time></trkpt><trkpt lat="48.47298894855816" lon="-4.057547333969302"><ele>77.66666666666667</ele><time>2026-03-22T11:07:58.999Z</time></trkpt><trkpt lat="48.47298163559881" lon="-4.057450297718411"><ele>77.5</ele><time>2026-03-22T11:07:59.999Z</time></trkpt><trkpt lat="48.47290324563065" lon="-4.05735830572932"><ele>77.33333333333334</ele><time>2026-03-22T11:08:01.999Z</time></trkpt><trkpt lat="48.47285751681982" lon="-4.057257362528459"><ele>77.16666666666667</ele><time>2026-03-22T11:08:03.999Z</time></trkpt><trkpt lat="48.47285066743498" lon="-4.057158830702331"><ele>77.0</ele><time>2026-03-22T11:08:04.999Z</time></trkpt><trkpt lat="48.47276603124178" lon="-4.05711600900611"><ele>77.0</ele><time>2026-03-22T11:08:05.999Z</time></trkpt><trkpt lat="48.472666154959754" lon="-4.057062475653242"><ele>77.0</ele><time>2026-03-22T11:08:06.999Z</time></trkpt><trkpt lat="48.47255257396898" lon="-4.057007287654419"><ele>77.0</ele><time>2026-03-22T11:08:07.999Z</time></trkpt><trkpt lat="48.472427428803584" lon="-4.056948466357497"><ele>77.0</ele><time>2026-03-22T11:08:08.999Z</time></trkpt><trkpt lat="48.47229341168122" lon="-4.0568965093832245"><ele>77.0</ele><time>2026-03-22T11:08:09.999Z</time></trkpt><trkpt lat="48.47215859002264" lon="-4.056884429003429"><ele>77.0</ele><time>2026-03-22T11:08:10.999Z</time></trkpt><trkpt lat="48.472015794781946" lon="-4.056891602306984"><ele>77.0</ele><time>2026-03-22T11:08:11.999Z</time></trkpt><trkpt lat="48.471866582968445" lon="-4.0569036202260795"><ele>77.0</ele><time>2026-03-22T11:08:12.999Z</time></trkpt><trkpt lat="48.471720307018465" lon="-4.056909410512729"><ele>78.5</ele><time>2026-03-22T11:08:13.999Z</time></trkpt><trkpt lat="48.47157157149894" lon="-4.05693365966105"><ele>80.0</ele><time>2026-03-22T11:08:14.999Z</time></trkpt><trkpt lat="48.47142632725345" lon="-4.056953921834824"><ele>81.5</ele><time>2026-03-22T11:08:15.999Z</time></trkpt><trkpt lat="48.471285483618054" lon="-4.056982038086859"><ele>83.0</ele><time>2026-03-22T11:08:16.999Z</time></trkpt><trkpt lat="48.471167834159274" lon="-4.057036497445835"><ele>83.0</ele><time>2026-03-22T11:08:18Z</time></trkpt><trkpt lat="48.47107640926831" lon="-4.0571434460537565"><ele>83.0</ele><time>2026-03-22T11:08:19Z</time></trkpt><trkpt lat="48.47100450960865" lon="-4.0572924900610206"><ele>83.0</ele><time>2026-03-22T11:08:20Z</time></trkpt><trkpt lat="48.470940135659944" lon="-4.05744556457657"><ele>83.0</ele><time>2026-03-22T11:08:21Z</time></trkpt><trkpt lat="48.47089582688564" lon="-4.05759044186784"><ele>85.2</ele><time>2026-03-22T11:08:22Z</time></trkpt><trkpt lat="48.4708664214591" lon="-4.057699848950323"><ele>87.4</ele><time>2026-03-22T11:08:23Z</time></trkpt><trkpt lat="48.47085353158042" lon="-4.057794665625811"><ele>89.60000000000001</ele><time>2026-03-22T11:08:24Z</time></trkpt><trkpt lat="48.47084127027534" lon="-4.058000085418059"><ele>91.80000000000001</ele><time>2026-03-22T11:08:26Z</time></trkpt><trkpt lat="48.470779041949704" lon="-4.058077989056939"><ele>94.0</ele><time>2026-03-22T11:08:27Z</time></trkpt><trkpt lat="48.47070406494422" lon="-4.058174176781723"><ele>94.0</ele><time>2026-03-22T11:08:29Z</time></trkpt><trkpt lat="48.47063935502487" lon="-4.058246737940639"><ele>94.0</ele><time>2026-03-22T11:08:30Z</time></trkpt><trkpt lat="48.47057207919153" lon="-4.058304760228272"><ele>94.0</ele><time>2026-03-22T11:08:31Z</time></trkpt><trkpt lat="48.47038348732795" lon="-4.058252661282649"><ele>94.0</ele><time>2026-03-22T11:08:33Z</time></trkpt><trkpt lat="48.4702893487743" lon="-4.058054795194333"><ele>93.0</ele><time>2026-03-22T11:08:34Z</time></trkpt><trkpt lat="48.470208626765775" lon="-4.057929458592792"><ele>92.0</ele><time>2026-03-22T11:08:36Z</time></trkpt><trkpt lat="48.470174291500356" lon="-4.058078471408996"><ele>91.0</ele><time>2026-03-22T11:08:37Z</time></trkpt><trkpt lat="48.470075021087034" lon="-4.058067313660959"><ele>90.0</ele><time>2026-03-22T11:08:43Z</time></trkpt><trkpt lat="48.46999958071127" lon="-4.058012449141041"><ele>89.0</ele><time>2026-03-22T11:08:44Z</time></trkpt><trkpt lat="48.46993203610867" lon="-4.057956847302547"><ele>89.0</ele><time>2026-03-22T11:08:45Z</time></trkpt><trkpt lat="48.4698767604793" lon="-4.057851058085593"><ele>89.0</ele><time>2026-03-22T11:08:47Z</time></trkpt><trkpt lat="48.469810852603665" lon="-4.057804096144621"><ele>89.0</ele><time>2026-03-22T11:08:48Z</time></trkpt><trkpt lat="48.4697008356978" lon="-4.05776406049609"><ele>89.0</ele><time>2026-03-22T11:08:49Z</time></trkpt><trkpt lat="48.46962173568481" lon="-4.05771195341144"><ele>89.0</ele><time>2026-03-22T11:08:50Z</time></trkpt><trkpt lat="48.469535323686785" lon="-4.05766545736333"><ele>88.6</ele><time>2026-03-22T11:08:51Z</time></trkpt><trkpt lat="48.46947558073984" lon="-4.0576095760357145"><ele>88.2</ele><time>2026-03-22T11:08:52Z</time></trkpt><trkpt lat="48.46939214129723" lon="-4.0575667808973375"><ele>87.8</ele><time>2026-03-22T11:08:53Z</time></trkpt><trkpt lat="48.46928660094101" lon="-4.057546125677834"><ele>87.39999999999999</ele><time>2026-03-22T11:08:54Z</time></trkpt><trkpt lat="48.469209372721934" lon="-4.057543008185685"><ele>87.0</ele><time>2026-03-22T11:08:55Z</time></trkpt><trkpt lat="48.469087536670074" lon="-4.057163158554964"><ele>86.83333333333333</ele><time>2026-03-22T11:08:57Z</time></trkpt><trkpt lat="48.469079438684076" lon="-4.057013242631486"><ele>86.66666666666667</ele><time>2026-03-22T11:08:59Z</time></trkpt><trkpt lat="48.469069300344536" lon="-4.056906037477827"><ele>86.5</ele><time>2026-03-22T11:09:00Z</time></trkpt><trkpt lat="48.4690609402006" lon="-4.05680085847469"><ele>86.33333333333334</ele><time>2026-03-22T11:09:01Z</time></trkpt><trkpt lat="48.46902767172592" lon="-4.056699955289616"><ele>86.16666666666667</ele><time>2026-03-22T11:09:02Z</time></trkpt><trkpt lat="48.469007025782666" lon="-4.056577845219959"><ele>86.0</ele><time>2026-03-22T11:09:03Z</time></trkpt><trkpt lat="48.46901595494442" lon="-4.0564542080166435"><ele>85.16666666666667</ele><time>2026-03-22T11:09:04Z</time></trkpt><trkpt lat="48.46901359966981" lon="-4.056334222276811"><ele>84.33333333333334</ele><time>2026-03-22T11:09:05Z</time></trkpt><trkpt lat="48.46901065315378" lon="-4.056229527595039"><ele>83.5</ele><time>2026-03-22T11:09:06Z</time></trkpt><trkpt lat="48.46904425001148" lon="-4.0561305882026835"><ele>82.66666666666667</ele><time>2026-03-22T11:09:07Z</time></trkpt><trkpt lat="48.4690671939332" lon="-4.056002847733044"><ele>81.83333333333333</ele><time>2026-03-22T11:09:08Z</time></trkpt><trkpt lat="48.469084148266774" lon="-4.0558889335617945"><ele>81.0</ele><time>2026-03-22T11:09:09Z</time></trkpt><trkpt lat="48.46909196488869" lon="-4.0557516858864595"><ele>80.25</ele><time>2026-03-22T11:09:10Z</time></trkpt><trkpt lat="48.469072976651994" lon="-4.055598966207936"><ele>79.5</ele><time>2026-03-22T11:09:11Z</time></trkpt><trkpt lat="48.46903528262082" lon="-4.055453675010171"><ele>78.75</ele><time>2026-03-22T11:09:12Z</time></trkpt><trkpt lat="48.4689734217093" lon="-4.055300701755148"><ele>78.0</ele><time>2026-03-22T11:09:13Z</time></trkpt><trkpt lat="48.46890871344459" lon="-4.055129380059421"><ele>77.0</ele><time>2026-03-22T11:09:14Z</time></trkpt><trkpt lat="48.4688450663237" lon="-4.054937774429165"><ele>76.0</ele><time>2026-03-22T11:09:15Z</time></trkpt><trkpt lat="48.46879474753513" lon="-4.054777306349584"><ele>75.0</ele><time>2026-03-22T11:09:16Z</time></trkpt><trkpt lat="48.46872524904057" lon="-4.054630135533804"><ele>74.0</ele><time>2026-03-22T11:09:17Z</time></trkpt><trkpt lat="48.46865880052064" lon="-4.05451095780673"><ele>75.16666666666667</ele><time>2026-03-22T11:09:18Z</time></trkpt><trkpt lat="48.468600063478966" lon="-4.054386733446781"><ele>76.33333333333334</ele><time>2026-03-22T11:09:18.999Z</time></trkpt><trkpt lat="48.46854721119147" lon="-4.054249278946552"><ele>77.5</ele><time>2026-03-22T11:09:19.999Z</time></trkpt><trkpt lat="48.4685051944039" lon="-4.054130725184"><ele>78.66666666666667</ele><time>2026-03-22T11:09:20.999Z</time></trkpt><trkpt lat="48.46845268492607" lon="-4.05405210482077"><ele>79.83333333333333</ele><time>2026-03-22T11:09:21.999Z</time></trkpt><trkpt lat="48.46838384056226" lon="-4.054010379678786"><ele>81.0</ele><time>2026-03-22T11:09:22.999Z</time></trkpt><trkpt lat="48.468290863388944" lon="-4.053893506664757"><ele>81.0</ele><time>2026-03-22T11:09:24.999Z</time></trkpt><trkpt lat="48.46826897958213" lon="-4.053784141449438"><ele>81.0</ele><time>2026-03-22T11:09:25.999Z</time></trkpt><trkpt lat="48.468211630159544" lon="-4.0536615084089584"><ele>81.0</ele><time>2026-03-22T11:09:26.999Z</time></trkpt><trkpt lat="48.46813199505507" lon="-4.053498697980071"><ele>81.0</ele><time>2026-03-22T11:09:27.999Z</time></trkpt><trkpt lat="48.46807886338851" lon="-4.053337245751474"><ele>81.0</ele><time>2026-03-22T11:09:28.999Z</time></trkpt><trkpt lat="48.468030167541194" lon="-4.053152167773139"><ele>80.25</ele><time>2026-03-22T11:09:29.999Z</time></trkpt><trkpt lat="48.467998740084596" lon="-4.053026003884821"><ele>79.5</ele><time>2026-03-22T11:09:30.999Z</time></trkpt><trkpt lat="48.46793762098339" lon="-4.052841577877854"><ele>78.75</ele><time>2026-03-22T11:09:31.999Z</time></trkpt><trkpt lat="48.46785708745715" lon="-4.0526175459374825"><ele>78.0</ele><time>2026-03-22T11:09:32.999Z</time></trkpt><trkpt lat="48.46779861956432" lon="-4.052444576231244"><ele>79.83333333333333</ele><time>2026-03-22T11:09:33.999Z</time></trkpt><trkpt lat="48.46775712284263" lon="-4.052340945027992"><ele>81.66666666666667</ele><time>2026-03-22T11:09:34.999Z</time></trkpt><trkpt lat="48.467731718392294" lon="-4.052234985238031"><ele>83.5</ele><time>2026-03-22T11:09:36.999Z</time></trkpt><trkpt lat="48.467650193250094" lon="-4.052204486830151"><ele>85.33333333333334</ele><time>2026-03-22T11:10:04.999Z</time></trkpt><trkpt lat="48.46756821731469" lon="-4.052220071215344"><ele>87.16666666666667</ele><time>2026-03-22T11:10:05.999Z</time></trkpt><trkpt lat="48.46748971648398" lon="-4.05224871350522"><ele>89.0</ele><time>2026-03-22T11:10:06.999Z</time></trkpt><trkpt lat="48.467380119428334" lon="-4.052282949039412"><ele>89.0</ele><time>2026-03-22T11:10:07.999Z</time></trkpt><trkpt lat="48.46726278780781" lon="-4.05233844226889"><ele>89.0</ele><time>2026-03-22T11:10:08.999Z</time></trkpt><trkpt lat="48.46718083460614" lon="-4.052397885414595"><ele>89.0</ele><time>2026-03-22T11:10:09.999Z</time></trkpt><trkpt lat="48.46710738003692" lon="-4.052475507736408"><ele>89.0</ele><time>2026-03-22T11:10:10.999Z</time></trkpt><trkpt lat="48.466994391087155" lon="-4.052540765576392"><ele>89.0</ele><time>2026-03-22T11:10:11.999Z</time></trkpt><trkpt lat="48.466864684882225" lon="-4.05257547776856"><ele>91.80000000000001</ele><time>2026-03-22T11:10:12.999Z</time></trkpt><trkpt lat="48.4667593373979" lon="-4.0525998760545034"><ele>94.60000000000001</ele><time>2026-03-22T11:10:13.999Z</time></trkpt><trkpt lat="48.466686554878585" lon="-4.05262943718013"><ele>97.4</ele><time>2026-03-22T11:10:14.999Z</time></trkpt><trkpt lat="48.46660048251417" lon="-4.052653404754341"><ele>100.2</ele><time>2026-03-22T11:10:16.999Z</time></trkpt><trkpt lat="48.466536867685136" lon="-4.052508288142696"><ele>103.0</ele><time>2026-03-22T11:10:19.999Z</time></trkpt><trkpt lat="48.46651852338593" lon="-4.052367569227844"><ele>103.0</ele><time>2026-03-22T11:10:20.999Z</time></trkpt><trkpt lat="48.466494611991344" lon="-4.052207703423137"><ele>103.0</ele><time>2026-03-22T11:10:21.999Z</time></trkpt><trkpt lat="48.466454475392034" lon="-4.052034111696927"><ele>103.0</ele><time>2026-03-22T11:10:22.999Z</time></trkpt><trkpt lat="48.46638854727252" lon="-4.051850824495903"><ele>103.0</ele><time>2026-03-22T11:10:24Z</time></trkpt><trkpt lat="48.46632860206779" lon="-4.051663837770911"><ele>106.0</ele><time>2026-03-22T11:10:25Z</time></trkpt><trkpt lat="48.466259427643436" lon="-4.051454572600269"><ele>109.0</ele><time>2026-03-22T11:10:26Z</time></trkpt><trkpt lat="48.46618972577478" lon="-4.051242518570267"><ele>112.0</ele><time>2026-03-22T11:10:27Z</time></trkpt><trkpt lat="48.46613421820109" lon="-4.05101256283398"><ele>112.0</ele><time>2026-03-22T11:10:28Z</time></trkpt><trkpt lat="48.466059130241035" lon="-4.05079911676659"><ele>112.0</ele><time>2026-03-22T11:10:29Z</time></trkpt><trkpt lat="48.46598738068338" lon="-4.0505786173603235"><ele>112.0</ele><time>2026-03-22T11:10:30Z</time></trkpt><trkpt lat="48.46589612153878" lon="-4.050359692659284"><ele>111.33333333333334</ele><time>2026-03-22T11:10:31Z</time></trkpt><trkpt lat="48.46577314723154" lon="-4.050178344605728"><ele>110.66666666666666</ele><time>2026-03-22T11:10:32Z</time></trkpt><trkpt lat="48.46565736762381" lon="-4.05000894316864"><ele>110.0</ele><time>2026-03-22T11:10:33Z</time></trkpt><trkpt lat="48.46552071335812" lon="-4.0498282969181565"><ele>111.0</ele><time>2026-03-22T11:10:34Z</time></trkpt><trkpt lat="48.465383464238315" lon="-4.049638953615612"><ele>112.0</ele><time>2026-03-22T11:10:35Z</time></trkpt><trkpt lat="48.465250677248356" lon="-4.0494663557723385"><ele>113.0</ele><time>2026-03-22T11:10:36Z</time></trkpt><trkpt lat="48.46510581711818" lon="-4.0493003458109"><ele>111.33333333333333</ele><time>2026-03-22T11:10:37Z</time></trkpt><trkpt lat="48.46496101911312" lon="-4.049122798421996"><ele>109.66666666666666</ele><time>2026-03-22T11:10:38Z</time></trkpt><trkpt lat="48.464815723999706" lon="-4.048947453491961"><ele>108.0</ele><time>2026-03-22T11:10:39Z</time></trkpt><trkpt lat="48.46468401849008" lon="-4.048766256965415"><ele>108.33333333333334</ele><time>2026-03-22T11:10:40Z</time></trkpt><trkpt lat="48.46454365378866" lon="-4.048587630781043"><ele>108.66666666666667</ele><time>2026-03-22T11:10:41Z</time></trkpt><trkpt lat="48.46440599956779" lon="-4.048417084722489"><ele>109.0</ele><time>2026-03-22T11:10:42Z</time></trkpt><trkpt lat="48.46428979392539" lon="-4.048259643547499"><ele>109.0</ele><time>2026-03-22T11:10:43Z</time></trkpt><trkpt lat="48.46418097240655" lon="-4.048110011230201"><ele>109.0</ele><time>2026-03-22T11:10:44Z</time></trkpt><trkpt lat="48.464070744735686" lon="-4.047959264254415"><ele>109.0</ele><time>2026-03-22T11:10:45Z</time></trkpt><trkpt lat="48.46397246048111" lon="-4.047778350257565"><ele>109.0</ele><time>2026-03-22T11:10:46Z</time></trkpt><trkpt lat="48.463891339536985" lon="-4.047580779535351"><ele>109.0</ele><time>2026-03-22T11:10:47Z</time></trkpt><trkpt lat="48.46379688297394" lon="-4.047357451226696"><ele>109.0</ele><time>2026-03-22T11:10:48Z</time></trkpt><trkpt lat="48.46368279259285" lon="-4.047129527992975"><ele>109.33333333333334</ele><time>2026-03-22T11:10:49Z</time></trkpt><trkpt lat="48.46356739157132" lon="-4.046928482461931"><ele>109.66666666666666</ele><time>2026-03-22T11:10:50Z</time></trkpt><trkpt lat="48.46342517355508" lon="-4.046752341098677"><ele>110.0</ele><time>2026-03-22T11:10:51Z</time></trkpt><trkpt lat="48.46326355315318" lon="-4.046590561101333"><ele>110.0</ele><time>2026-03-22T11:10:52Z</time></trkpt><trkpt lat="48.46310380846353" lon="-4.046432684423267"><ele>110.0</ele><time>2026-03-22T11:10:53Z</time></trkpt><trkpt lat="48.462937057541644" lon="-4.046253016411406"><ele>110.0</ele><time>2026-03-22T11:10:54Z</time></trkpt><trkpt lat="48.46278791723225" lon="-4.046080819353229"><ele>110.0</ele><time>2026-03-22T11:10:55Z</time></trkpt><trkpt lat="48.462639213953814" lon="-4.045903829898261"><ele>110.0</ele><time>2026-03-22T11:10:56Z</time></trkpt><trkpt lat="48.46249008118579" lon="-4.045723090163663"><ele>110.0</ele><time>2026-03-22T11:10:57Z</time></trkpt><trkpt lat="48.4623427720438" lon="-4.045542070373914"><ele>110.0</ele><time>2026-03-22T11:10:58Z</time></trkpt><trkpt lat="48.46219128610845" lon="-4.0453658954145215"><ele>110.0</ele><time>2026-03-22T11:10:59Z</time></trkpt><trkpt lat="48.46206027147458" lon="-4.045216433287638"><ele>110.0</ele><time>2026-03-22T11:11:00Z</time></trkpt><trkpt lat="48.461929395762695" lon="-4.045068810550097"><ele>108.75</ele><time>2026-03-22T11:11:01Z</time></trkpt><trkpt lat="48.46180155967423" lon="-4.0449562959677"><ele>107.5</ele><time>2026-03-22T11:11:02Z</time></trkpt><trkpt lat="48.461677499158505" lon="-4.044856908996943"><ele>106.25</ele><time>2026-03-22T11:11:03Z</time></trkpt><trkpt lat="48.4615551864652" lon="-4.044776989976191"><ele>105.0</ele><time>2026-03-22T11:11:04Z</time></trkpt><trkpt lat="48.46144060931468" lon="-4.044715373435716"><ele>105.0</ele><time>2026-03-22T11:11:05Z</time></trkpt><trkpt lat="48.4613064155001" lon="-4.044654968821514"><ele>105.0</ele><time>2026-03-22T11:11:06Z</time></trkpt><trkpt lat="48.461181845930305" lon="-4.044598356747617"><ele>105.0</ele><time>2026-03-22T11:11:07Z</time></trkpt><trkpt lat="48.461062867973276" lon="-4.044550595969958"><ele>105.0</ele><time>2026-03-22T11:11:08Z</time></trkpt><trkpt lat="48.460949912137096" lon="-4.044497394380026"><ele>106.0</ele><time>2026-03-22T11:11:09Z</time></trkpt><trkpt lat="48.46085650764914" lon="-4.044455742398711"><ele>107.0</ele><time>2026-03-22T11:11:10Z</time></trkpt><trkpt lat="48.46077490994626" lon="-4.044420253111953"><ele>108.0</ele><time>2026-03-22T11:11:11Z</time></trkpt><trkpt lat="48.460698662410294" lon="-4.044369541974989"><ele>109.0</ele><time>2026-03-22T11:11:12Z</time></trkpt><trkpt lat="48.460611036925414" lon="-4.044309736438672"><ele>110.0</ele><time>2026-03-22T11:11:13Z</time></trkpt><trkpt lat="48.460508011955575" lon="-4.044225238917913"><ele>109.75</ele><time>2026-03-22T11:11:14Z</time></trkpt><trkpt lat="48.46039582307936" lon="-4.044117563108823"><ele>109.5</ele><time>2026-03-22T11:11:15Z</time></trkpt><trkpt lat="48.46027896124466" lon="-4.044001756236006"><ele>109.25</ele><time>2026-03-22T11:11:16Z</time></trkpt><trkpt lat="48.460155582942164" lon="-4.0438993102690866"><ele>109.0</ele><time>2026-03-22T11:11:17Z</time></trkpt><trkpt lat="48.460041217577015" lon="-4.0438052050107824"><ele>109.0</ele><time>2026-03-22T11:11:18Z</time></trkpt><trkpt lat="48.45994384266433" lon="-4.04371861835925"><ele>109.0</ele><time>2026-03-22T11:11:19Z</time></trkpt><trkpt lat="48.45986603594044" lon="-4.043638301061789"><ele>109.0</ele><time>2026-03-22T11:11:20Z</time></trkpt><trkpt lat="48.459804908450536" lon="-4.04356443084535"><ele>109.0</ele><time>2026-03-22T11:11:21Z</time></trkpt><trkpt lat="48.459866727931555" lon="-4.043234181508304"><ele>108.0</ele><time>2026-03-22T11:11:24Z</time></trkpt><trkpt lat="48.45996059955609" lon="-4.043105540791343"><ele>107.0</ele><time>2026-03-22T11:11:25Z</time></trkpt><trkpt lat="48.460066524099645" lon="-4.042959670962827"><ele>106.0</ele><time>2026-03-22T11:11:26Z</time></trkpt><trkpt lat="48.46017877786199" lon="-4.042806962236404"><ele>105.0</ele><time>2026-03-22T11:11:27Z</time></trkpt><trkpt lat="48.46030507066801" lon="-4.04263846525945"><ele>105.0</ele><time>2026-03-22T11:11:28Z</time></trkpt><trkpt lat="48.46044704955127" lon="-4.042492864008676"><ele>105.0</ele><time>2026-03-22T11:11:29Z</time></trkpt><trkpt lat="48.460581385678424" lon="-4.042333194919735"><ele>105.0</ele><time>2026-03-22T11:11:30Z</time></trkpt><trkpt lat="48.4607334683481" lon="-4.042187341222164"><ele>103.0</ele><time>2026-03-22T11:11:31Z</time></trkpt><trkpt lat="48.46089031509574" lon="-4.042039638445999"><ele>101.0</ele><time>2026-03-22T11:11:32Z</time></trkpt><trkpt lat="48.46105419997744" lon="-4.04190288116729"><ele>99.0</ele><time>2026-03-22T11:11:33Z</time></trkpt><trkpt lat="48.46122163003509" lon="-4.041771533980373"><ele>98.33333333333334</ele><time>2026-03-22T11:11:34Z</time></trkpt><trkpt lat="48.46139494772598" lon="-4.041635533238005"><ele>97.66666666666667</ele><time>2026-03-22T11:11:35Z</time></trkpt><trkpt lat="48.46156691873771" lon="-4.041503094450298"><ele>97.0</ele><time>2026-03-22T11:11:36Z</time></trkpt><trkpt lat="48.46172571020836" lon="-4.041387306763673"><ele>97.0</ele><time>2026-03-22T11:11:37Z</time></trkpt><trkpt lat="48.46189694661324" lon="-4.0412563006327336"><ele>97.0</ele><time>2026-03-22T11:11:38Z</time></trkpt><trkpt lat="48.46205695961727" lon="-4.04110327063051"><ele>97.0</ele><time>2026-03-22T11:11:39Z</time></trkpt><trkpt lat="48.46222255672278" lon="-4.040969384604868"><ele>96.66666666666667</ele><time>2026-03-22T11:11:40Z</time></trkpt><trkpt lat="48.462395930325606" lon="-4.04082910456187"><ele>96.33333333333334</ele><time>2026-03-22T11:11:40.999Z</time></trkpt><trkpt lat="48.46254148016001" lon="-4.040710042206731"><ele>96.0</ele><time>2026-03-22T11:11:41.999Z</time></trkpt><trkpt lat="48.46270737986456" lon="-4.040572662809667"><ele>95.33333333333333</ele><time>2026-03-22T11:11:42.999Z</time></trkpt><trkpt lat="48.4628843748968" lon="-4.040423096976568"><ele>94.66666666666666</ele><time>2026-03-22T11:11:43.999Z</time></trkpt><trkpt lat="48.463025702947355" lon="-4.040298850126641"><ele>94.0</ele><time>2026-03-22T11:11:44.999Z</time></trkpt><trkpt lat="48.46315863508602" lon="-4.040149591156694"><ele>92.0</ele><time>2026-03-22T11:11:45.999Z</time></trkpt><trkpt lat="48.46327407752534" lon="-4.039959261271947"><ele>90.0</ele><time>2026-03-22T11:11:46.999Z</time></trkpt><trkpt lat="48.463383245169254" lon="-4.039752353095837"><ele>88.0</ele><time>2026-03-22T11:11:47.999Z</time></trkpt><trkpt lat="48.46346977124815" lon="-4.039544736523898"><ele>88.0</ele><time>2026-03-22T11:11:48.999Z</time></trkpt><trkpt lat="48.46354056983237" lon="-4.039320917676989"><ele>88.0</ele><time>2026-03-22T11:11:49.999Z</time></trkpt><trkpt lat="48.46358185846339" lon="-4.039080146411099"><ele>88.0</ele><time>2026-03-22T11:11:50.999Z</time></trkpt><trkpt lat="48.46359770322424" lon="-4.038823540065505"><ele>88.66666666666666</ele><time>2026-03-22T11:11:51.999Z</time></trkpt><trkpt lat="48.46361049729734" lon="-4.038575466956342"><ele>89.33333333333333</ele><time>2026-03-22T11:11:52.999Z</time></trkpt><trkpt lat="48.463620447105086" lon="-4.038344516239375"><ele>90.0</ele><time>2026-03-22T11:11:53.999Z</time></trkpt><trkpt lat="48.46363211389962" lon="-4.038120620046878"><ele>90.5</ele><time>2026-03-22T11:11:54.999Z</time></trkpt><trkpt lat="48.46364868330329" lon="-4.037897352116527"><ele>91.0</ele><time>2026-03-22T11:11:55.999Z</time></trkpt><trkpt lat="48.46367054761783" lon="-4.037688534528043"><ele>91.5</ele><time>2026-03-22T11:11:56.999Z</time></trkpt><trkpt lat="48.46368878681586" lon="-4.0374975481861695"><ele>92.0</ele><time>2026-03-22T11:11:57.999Z</time></trkpt><trkpt lat="48.46369718816467" lon="-4.037323757722909"><ele>92.6</ele><time>2026-03-22T11:11:58.999Z</time></trkpt><trkpt lat="48.463702692640666" lon="-4.0371605148029355"><ele>93.19999999999999</ele><time>2026-03-22T11:11:59.999Z</time></trkpt><trkpt lat="48.46366286333145" lon="-4.037081591301913"><ele>93.8</ele><time>2026-03-22T11:12:01.999Z</time></trkpt><trkpt lat="48.46368445870108" lon="-4.037175734261008"><ele>94.4</ele><time>2026-03-22T11:12:15.999Z</time></trkpt><trkpt lat="48.46356788010172" lon="-4.03721104656451"><ele>95.0</ele><time>2026-03-22T11:12:19.999Z</time></trkpt><trkpt lat="48.46347450126859" lon="-4.037212897474444"><ele>95.0</ele><time>2026-03-22T11:12:21.999Z</time></trkpt><trkpt lat="48.46340875331553" lon="-4.037238889993302"><ele>95.0</ele><time>2026-03-22T11:12:23.999Z</time></trkpt><trkpt lat="48.46328839131935" lon="-4.0372044473230835"><ele>95.0</ele><time>2026-03-22T11:12:25.999Z</time></trkpt><trkpt lat="48.463217933318035" lon="-4.037152134920324"><ele>95.0</ele><time>2026-03-22T11:12:28.999Z</time></trkpt><trkpt lat="48.463131526092525" lon="-4.037125702720524"><ele>95.0</ele><time>2026-03-22T11:12:32Z</time></trkpt><trkpt lat="48.46306364349496" lon="-4.03709097122489"><ele>95.0</ele><time>2026-03-22T11:12:33Z</time></trkpt><trkpt lat="48.46296914431303" lon="-4.037042621867814"><ele>94.8</ele><time>2026-03-22T11:12:34Z</time></trkpt><trkpt lat="48.46287089098515" lon="-4.036992351748927"><ele>94.6</ele><time>2026-03-22T11:12:35Z</time></trkpt><trkpt lat="48.46277597825788" lon="-4.036876020192524"><ele>94.4</ele><time>2026-03-22T11:12:36Z</time></trkpt><trkpt lat="48.462667297079115" lon="-4.036887997070237"><ele>94.2</ele><time>2026-03-22T11:12:37Z</time></trkpt><trkpt lat="48.4625798958032" lon="-4.03687468476498"><ele>94.0</ele><time>2026-03-22T11:12:38Z</time></trkpt><trkpt lat="48.46249590516632" lon="-4.03686899386878"><ele>94.0</ele><time>2026-03-22T11:12:39Z</time></trkpt><trkpt lat="48.462423863277344" lon="-4.036831649653868"><ele>94.0</ele><time>2026-03-22T11:12:40Z</time></trkpt><trkpt lat="48.46234545363252" lon="-4.036823846971924"><ele>94.0</ele><time>2026-03-22T11:12:42Z</time></trkpt><trkpt lat="48.46227320194075" lon="-4.036810603034318"><ele>94.0</ele><time>2026-03-22T11:12:43Z</time></trkpt><trkpt lat="48.46220611720287" lon="-4.036807105114367"><ele>94.0</ele><time>2026-03-22T11:12:44Z</time></trkpt><trkpt lat="48.46213679201292" lon="-4.036796445373765"><ele>94.0</ele><time>2026-03-22T11:12:45Z</time></trkpt><trkpt lat="48.462033222032616" lon="-4.03680194247942"><ele>95.80000000000001</ele><time>2026-03-22T11:12:46Z</time></trkpt><trkpt lat="48.46191462607559" lon="-4.036794842886506"><ele>97.60000000000001</ele><time>2026-03-22T11:12:47Z</time></trkpt><trkpt lat="48.461818490447115" lon="-4.036760961698359"><ele>99.4</ele><time>2026-03-22T11:12:48Z</time></trkpt><trkpt lat="48.46173415190834" lon="-4.0367405371606555"><ele>101.2</ele><time>2026-03-22T11:12:49Z</time></trkpt><trkpt lat="48.46166532400058" lon="-4.036751076048723"><ele>103.0</ele><time>2026-03-22T11:12:50Z</time></trkpt><trkpt lat="48.46158251804596" lon="-4.036765189064244"><ele>103.00000000000001</ele><time>2026-03-22T11:12:51Z</time></trkpt><trkpt lat="48.4614958594355" lon="-4.036787334353352"><ele>103.0</ele><time>2026-03-22T11:12:52Z</time></trkpt><trkpt lat="48.46142939932131" lon="-4.03683453747922"><ele>103.0</ele><time>2026-03-22T11:12:53Z</time></trkpt><trkpt lat="48.461366341687935" lon="-4.036842009269596"><ele>103.0</ele><time>2026-03-22T11:12:54Z</time></trkpt><trkpt lat="48.461255132248375" lon="-4.036875418965669"><ele>103.00000000000001</ele><time>2026-03-22T11:12:56Z</time></trkpt><trkpt lat="48.46117865397533" lon="-4.036929080773568"><ele>103.0</ele><time>2026-03-22T11:12:57Z</time></trkpt><trkpt lat="48.461096548466365" lon="-4.036958168870325"><ele>103.80000000000001</ele><time>2026-03-22T11:12:58Z</time></trkpt><trkpt lat="48.46101929710803" lon="-4.037005863309789"><ele>104.6</ele><time>2026-03-22T11:12:59Z</time></trkpt><trkpt lat="48.46091354377805" lon="-4.037083536318004"><ele>105.39999999999999</ele><time>2026-03-22T11:13:01Z</time></trkpt><trkpt lat="48.46086097574886" lon="-4.037137172673634"><ele>106.19999999999999</ele><time>2026-03-22T11:13:03Z</time></trkpt><trkpt lat="48.46072867522918" lon="-4.037109006682607"><ele>107.0</ele><time>2026-03-22T11:13:05Z</time></trkpt><trkpt lat="48.46065326480751" lon="-4.037097355928921"><ele>107.0</ele><time>2026-03-22T11:13:06Z</time></trkpt><trkpt lat="48.460582340416614" lon="-4.037063304560858"><ele>106.99999999999999</ele><time>2026-03-22T11:13:08Z</time></trkpt><trkpt lat="48.46047220499161" lon="-4.036993513377148"><ele>106.99999999999999</ele><time>2026-03-22T11:13:10Z</time></trkpt><trkpt lat="48.46036841540378" lon="-4.036971925245825"><ele>107.0</ele><time>2026-03-22T11:13:12Z</time></trkpt><trkpt lat="48.460232853480754" lon="-4.036932695213266"><ele>107.0</ele><time>2026-03-22T11:13:14Z</time></trkpt><trkpt lat="48.460146721076484" lon="-4.036910349179318"><ele>106.6</ele><time>2026-03-22T11:13:15Z</time></trkpt><trkpt lat="48.4600540018985" lon="-4.036868344904022"><ele>106.19999999999999</ele><time>2026-03-22T11:13:16Z</time></trkpt><trkpt lat="48.45996337315307" lon="-4.036834400882859"><ele>105.8</ele><time>2026-03-22T11:13:17Z</time></trkpt><trkpt lat="48.459894492591815" lon="-4.0367712681729975"><ele>105.4</ele><time>2026-03-22T11:13:18Z</time></trkpt><trkpt lat="48.45982154142795" lon="-4.036691939852814"><ele>105.0</ele><time>2026-03-22T11:13:19Z</time></trkpt><trkpt lat="48.4597213087357" lon="-4.036628516069621"><ele>106.2</ele><time>2026-03-22T11:13:20Z</time></trkpt><trkpt lat="48.45964111802552" lon="-4.036576630238728"><ele>107.4</ele><time>2026-03-22T11:13:21Z</time></trkpt><trkpt lat="48.459555742754716" lon="-4.0365023580800505"><ele>108.6</ele><time>2026-03-22T11:13:22Z</time></trkpt><trkpt lat="48.459445257517686" lon="-4.036380278539293"><ele>109.8</ele><time>2026-03-22T11:13:24Z</time></trkpt><trkpt lat="48.459347605156644" lon="-4.036355533121859"><ele>111.0</ele><time>2026-03-22T11:13:26Z</time></trkpt><trkpt lat="48.45925884415173" lon="-4.036278983324909"><ele>111.0</ele><time>2026-03-22T11:13:28Z</time></trkpt><trkpt lat="48.45914732273399" lon="-4.036180174836408"><ele>111.0</ele><time>2026-03-22T11:13:30Z</time></trkpt><trkpt lat="48.45903458215681" lon="-4.036067652437908"><ele>111.0</ele><time>2026-03-22T11:13:32Z</time></trkpt><trkpt lat="48.45896146174825" lon="-4.035972668248102"><ele>111.0</ele><time>2026-03-22T11:13:33Z</time></trkpt><trkpt lat="48.45889047926709" lon="-4.035923707626183"><ele>111.0</ele><time>2026-03-22T11:13:34Z</time></trkpt><trkpt lat="48.45881501443722" lon="-4.035863418576158"><ele>111.0</ele><time>2026-03-22T11:13:35Z</time></trkpt><trkpt lat="48.45872444019109" lon="-4.035791688382746"><ele>111.0</ele><time>2026-03-22T11:13:36Z</time></trkpt><trkpt lat="48.45867116144339" lon="-4.035729794139691"><ele>111.0</ele><time>2026-03-22T11:13:37Z</time></trkpt><trkpt lat="48.45861120914061" lon="-4.035664983497455"><ele>111.0</ele><time>2026-03-22T11:13:38Z</time></trkpt><trkpt lat="48.458537598211336" lon="-4.035602196294388"><ele>111.0</ele><time>2026-03-22T11:13:39Z</time></trkpt><trkpt lat="48.45847530457133" lon="-4.035548847407325"><ele>111.0</ele><time>2026-03-22T11:13:40Z</time></trkpt><trkpt lat="48.45836996774705" lon="-4.0354757685180065"><ele>111.0</ele><time>2026-03-22T11:13:42Z</time></trkpt><trkpt lat="48.45831562241211" lon="-4.035417866155498"><ele>111.0</ele><time>2026-03-22T11:13:43Z</time></trkpt><trkpt lat="48.45820814112398" lon="-4.035329427788028"><ele>111.0</ele><time>2026-03-22T11:13:45Z</time></trkpt><trkpt lat="48.458131102787206" lon="-4.0352734419231195"><ele>111.0</ele><time>2026-03-22T11:13:46Z</time></trkpt><trkpt lat="48.45806296482803" lon="-4.035197469081251"><ele>111.0</ele><time>2026-03-22T11:13:47Z</time></trkpt><trkpt lat="48.458009148007065" lon="-4.035133798563017"><ele>111.0</ele><time>2026-03-22T11:13:48Z</time></trkpt><trkpt lat="48.45798473355478" lon="-4.034960657273432"><ele>110.4</ele><time>2026-03-22T11:13:50Z</time></trkpt><trkpt lat="48.45802706673129" lon="-4.034856031279891"><ele>109.8</ele><time>2026-03-22T11:13:52Z</time></trkpt><trkpt lat="48.457997898268964" lon="-4.0347711463246165"><ele>109.20000000000002</ele><time>2026-03-22T11:13:57.999Z</time></trkpt><trkpt lat="48.45792551191548" lon="-4.034706149918002"><ele>108.60000000000001</ele><time>2026-03-22T11:15:13Z</time></trkpt><trkpt lat="48.457822660410834" lon="-4.0345961706602305"><ele>108.0</ele><time>2026-03-22T11:15:15Z</time></trkpt><trkpt lat="48.457744719017796" lon="-4.034453809675962"><ele>108.0</ele><time>2026-03-22T11:15:17Z</time></trkpt><trkpt lat="48.45771368882965" lon="-4.034339176432626"><ele>108.0</ele><time>2026-03-22T11:15:18Z</time></trkpt><trkpt lat="48.457682496995346" lon="-4.034227196309668"><ele>108.0</ele><time>2026-03-22T11:15:19Z</time></trkpt><trkpt lat="48.45764304683876" lon="-4.0341066652522715"><ele>108.0</ele><time>2026-03-22T11:15:20Z</time></trkpt><trkpt lat="48.457585705320604" lon="-4.034011731136238"><ele>108.0</ele><time>2026-03-22T11:15:21Z</time></trkpt><trkpt lat="48.45757325671965" lon="-4.033898980758614"><ele>108.0</ele><time>2026-03-22T11:15:22Z</time></trkpt><trkpt lat="48.457560004986206" lon="-4.033775626232717"><ele>109.16666666666667</ele><time>2026-03-22T11:15:23Z</time></trkpt><trkpt lat="48.45752168678324" lon="-4.033696668105777"><ele>110.33333333333334</ele><time>2026-03-22T11:15:24Z</time></trkpt><trkpt lat="48.457461985267855" lon="-4.03354452996628"><ele>111.5</ele><time>2026-03-22T11:15:26Z</time></trkpt><trkpt lat="48.45744590549726" lon="-4.0334370211406965"><ele>112.66666666666667</ele><time>2026-03-22T11:15:27Z</time></trkpt><trkpt lat="48.457444854778565" lon="-4.03333832165559"><ele>113.83333333333334</ele><time>2026-03-22T11:15:28Z</time></trkpt><trkpt lat="48.45740598215665" lon="-4.033224724553286"><ele>115.0</ele><time>2026-03-22T11:15:30Z</time></trkpt><trkpt lat="48.4574005192118" lon="-4.0330485204613415"><ele>115.66666666666667</ele><time>2026-03-22T11:15:32Z</time></trkpt><trkpt lat="48.45740393956768" lon="-4.032899416778741"><ele>116.33333333333334</ele><time>2026-03-22T11:15:34Z</time></trkpt><trkpt lat="48.457428202454395" lon="-4.032770966357906"><ele>117.0</ele><time>2026-03-22T11:15:35Z</time></trkpt><trkpt lat="48.45742314475751" lon="-4.032669006758463"><ele>117.66666666666666</ele><time>2026-03-22T11:15:36Z</time></trkpt><trkpt lat="48.45738403264542" lon="-4.032532860515723"><ele>118.33333333333333</ele><time>2026-03-22T11:15:38Z</time></trkpt><trkpt lat="48.457370457320636" lon="-4.03242446435346"><ele>119.0</ele><time>2026-03-22T11:15:41Z</time></trkpt><trkpt lat="48.457345686463974" lon="-4.032323766305239"><ele>119.0</ele><time>2026-03-22T11:17:39Z</time></trkpt><trkpt lat="48.45724158722814" lon="-4.0322820408412925"><ele>119.0</ele><time>2026-03-22T11:17:50Z</time></trkpt><trkpt lat="48.45718221316057" lon="-4.032179573506627"><ele>119.0</ele><time>2026-03-22T11:17:51Z</time></trkpt><trkpt lat="48.45712113101339" lon="-4.032038195223429"><ele>119.0</ele><time>2026-03-22T11:17:52Z</time></trkpt><trkpt lat="48.45707456787502" lon="-4.031956340944991"><ele>119.0</ele><time>2026-03-22T11:17:53Z</time></trkpt><trkpt lat="48.457004751434404" lon="-4.031880835031153"><ele>118.99999999999999</ele><time>2026-03-22T11:17:55Z</time></trkpt><trkpt lat="48.456936499611224" lon="-4.031845681672157"><ele>119.0</ele><time>2026-03-22T11:17:56Z</time></trkpt><trkpt lat="48.45682925936054" lon="-4.03179913236952"><ele>119.0</ele><time>2026-03-22T11:17:58Z</time></trkpt><trkpt lat="48.45676385808431" lon="-4.031739765916678"><ele>119.0</ele><time>2026-03-22T11:17:59Z</time></trkpt><trkpt lat="48.4567228975212" lon="-4.03163925610873"><ele>118.99999999999999</ele><time>2026-03-22T11:18:00Z</time></trkpt><trkpt lat="48.45667868761101" lon="-4.031550381167838"><ele>119.0</ele><time>2026-03-22T11:18:01Z</time></trkpt><trkpt lat="48.456636187612965" lon="-4.031478327303861"><ele>119.33333333333333</ele><time>2026-03-22T11:18:02Z</time></trkpt><trkpt lat="48.45658407315532" lon="-4.031414490606533"><ele>119.66666666666666</ele><time>2026-03-22T11:18:03Z</time></trkpt><trkpt lat="48.45650451902265" lon="-4.031345075375056"><ele>120.0</ele><time>2026-03-22T11:18:04Z</time></trkpt><trkpt lat="48.4564144238634" lon="-4.031288924174658"><ele>120.33333333333334</ele><time>2026-03-22T11:18:05Z</time></trkpt><trkpt lat="48.45632719511181" lon="-4.03123990535439"><ele>120.66666666666667</ele><time>2026-03-22T11:18:06Z</time></trkpt><trkpt lat="48.45626565769785" lon="-4.031188350347773"><ele>121.0</ele><time>2026-03-22T11:18:07Z</time></trkpt><trkpt lat="48.45618116448199" lon="-4.031113951733891"><ele>120.8</ele><time>2026-03-22T11:18:08Z</time></trkpt><trkpt lat="48.45611841944457" lon="-4.03102155355148"><ele>120.6</ele><time>2026-03-22T11:18:09Z</time></trkpt><trkpt lat="48.456036841506965" lon="-4.03093441080436"><ele>120.4</ele><time>2026-03-22T11:18:10Z</time></trkpt><trkpt lat="48.455950608265866" lon="-4.030863797112122"><ele>120.2</ele><time>2026-03-22T11:18:11Z</time></trkpt><trkpt lat="48.4558700880939" lon="-4.030805185554412"><ele>120.0</ele><time>2026-03-22T11:18:12Z</time></trkpt><trkpt lat="48.455783300208" lon="-4.030755532731224"><ele>120.0</ele><time>2026-03-22T11:18:13Z</time></trkpt><trkpt lat="48.455705077413356" lon="-4.030726511471631"><ele>120.0</ele><time>2026-03-22T11:18:14Z</time></trkpt><trkpt lat="48.455577962734814" lon="-4.030617657256987"><ele>120.0</ele><time>2026-03-22T11:18:16Z</time></trkpt><trkpt lat="48.45549686419671" lon="-4.030516540579309"><ele>120.0</ele><time>2026-03-22T11:18:17Z</time></trkpt><trkpt lat="48.45542039025857" lon="-4.030397136495811"><ele>120.0</ele><time>2026-03-22T11:18:18Z</time></trkpt><trkpt lat="48.45534950159786" lon="-4.030267579785111"><ele>120.0</ele><time>2026-03-22T11:18:18.999Z</time></trkpt><trkpt lat="48.4552650985306" lon="-4.030125639036425"><ele>120.0</ele><time>2026-03-22T11:18:19.999Z</time></trkpt><trkpt lat="48.455185467046476" lon="-4.029985760237789"><ele>120.0</ele><time>2026-03-22T11:18:20.999Z</time></trkpt><trkpt lat="48.45513629408764" lon="-4.029848419934005"><ele>120.0</ele><time>2026-03-22T11:18:21.999Z</time></trkpt><trkpt lat="48.455107670632586" lon="-4.0297262853495655"><ele>120.0</ele><time>2026-03-22T11:18:22.999Z</time></trkpt><trkpt lat="48.45511203870932" lon="-4.0296105797816"><ele>120.0</ele><time>2026-03-22T11:18:23.999Z</time></trkpt><trkpt lat="48.455083251972766" lon="-4.029519633813986"><ele>120.0</ele><time>2026-03-22T11:18:24.999Z</time></trkpt><trkpt lat="48.45498305687084" lon="-4.029455976479626"><ele>120.0</ele><time>2026-03-22T11:18:26.999Z</time></trkpt><trkpt lat="48.45492993736544" lon="-4.029359035060335"><ele>120.0</ele><time>2026-03-22T11:18:27.999Z</time></trkpt><trkpt lat="48.45488453587116" lon="-4.029256348701667"><ele>120.0</ele><time>2026-03-22T11:18:28.999Z</time></trkpt><trkpt lat="48.45483319398001" lon="-4.029181686695784"><ele>120.0</ele><time>2026-03-22T11:18:29.999Z</time></trkpt><trkpt lat="48.45475472873059" lon="-4.0291375141569095"><ele>119.2</ele><time>2026-03-22T11:18:30.999Z</time></trkpt><trkpt lat="48.45467910295074" lon="-4.029121142790771"><ele>118.4</ele><time>2026-03-22T11:18:31.999Z</time></trkpt><trkpt lat="48.45457696300237" lon="-4.029093925727036"><ele>117.6</ele><time>2026-03-22T11:18:32.999Z</time></trkpt><trkpt lat="48.454463006328915" lon="-4.029094225966213"><ele>116.8</ele><time>2026-03-22T11:18:33.999Z</time></trkpt><trkpt lat="48.45432828046667" lon="-4.029094663515763"><ele>116.0</ele><time>2026-03-22T11:18:34.999Z</time></trkpt><trkpt lat="48.45420248401279" lon="-4.029117306453049"><ele>116.0</ele><time>2026-03-22T11:18:35.999Z</time></trkpt><trkpt lat="48.45410554208985" lon="-4.029152594344973"><ele>116.0</ele><time>2026-03-22T11:18:36.999Z</time></trkpt><trkpt lat="48.45399913796021" lon="-4.029125291942298"><ele>116.0</ele><time>2026-03-22T11:18:38.999Z</time></trkpt><trkpt lat="48.45386340485606" lon="-4.029117371150191"><ele>116.0</ele><time>2026-03-22T11:18:40.999Z</time></trkpt><trkpt lat="48.45378141470404" lon="-4.029125031319351"><ele>116.0</ele><time>2026-03-22T11:18:41.999Z</time></trkpt><trkpt lat="48.45369712826349" lon="-4.029109326112516"><ele>115.99999999999999</ele><time>2026-03-22T11:18:42.999Z</time></trkpt><trkpt lat="48.45362718669598" lon="-4.029100109339832"><ele>116.0</ele><time>2026-03-22T11:18:43.999Z</time></trkpt><trkpt lat="48.45355888703951" lon="-4.029085909339698"><ele>116.0</ele><time>2026-03-22T11:18:44.999Z</time></trkpt><trkpt lat="48.45346819859619" lon="-4.02910992393305"><ele>116.0</ele><time>2026-03-22T11:18:46.999Z</time></trkpt><trkpt lat="48.45337622587064" lon="-4.029081934144427"><ele>115.99999999999999</ele><time>2026-03-22T11:18:49Z</time></trkpt><trkpt lat="48.45328324612918" lon="-4.0291572868261545"><ele>116.0</ele><time>2026-03-22T11:18:51Z</time></trkpt><trkpt lat="48.453178623956184" lon="-4.029205981379773"><ele>116.0</ele><time>2026-03-22T11:18:53Z</time></trkpt><trkpt lat="48.45307699155384" lon="-4.029149017533974"><ele>116.0</ele><time>2026-03-22T11:18:55Z</time></trkpt><trkpt lat="48.45299729801835" lon="-4.0291291148134345"><ele>116.0</ele><time>2026-03-22T11:18:56Z</time></trkpt><trkpt lat="48.45286017006627" lon="-4.029146639758672"><ele>116.0</ele><time>2026-03-22T11:18:57Z</time></trkpt><trkpt lat="48.45270090943711" lon="-4.029140044914482"><ele>116.19999999999999</ele><time>2026-03-22T11:18:58Z</time></trkpt><trkpt lat="48.452605262143976" lon="-4.029134820719769"><ele>116.39999999999999</ele><time>2026-03-22T11:18:59Z</time></trkpt><trkpt lat="48.45250617341307" lon="-4.029216826857773"><ele>116.6</ele><time>2026-03-22T11:19:01Z</time></trkpt><trkpt lat="48.452492499549564" lon="-4.029432976097822"><ele>116.8</ele><time>2026-03-22T11:19:03Z</time></trkpt><trkpt lat="48.45248396444041" lon="-4.0295697957088565"><ele>117.0</ele><time>2026-03-22T11:19:04Z</time></trkpt><trkpt lat="48.452360265009155" lon="-4.029609797827948"><ele>118.19999999999999</ele><time>2026-03-22T11:19:06Z</time></trkpt><trkpt lat="48.452255128955734" lon="-4.029592829377891"><ele>119.39999999999999</ele><time>2026-03-22T11:19:07Z</time></trkpt><trkpt lat="48.45215199401181" lon="-4.029549873968699"><ele>120.60000000000001</ele><time>2026-03-22T11:19:08Z</time></trkpt><trkpt lat="48.45205568659056" lon="-4.0295445349611265"><ele>121.80000000000001</ele><time>2026-03-22T11:19:09Z</time></trkpt><trkpt lat="48.451952309977756" lon="-4.029584804640602"><ele>123.0</ele><time>2026-03-22T11:19:10Z</time></trkpt><trkpt lat="48.451861395808365" lon="-4.029602141686444"><ele>123.0</ele><time>2026-03-22T11:19:11Z</time></trkpt><trkpt lat="48.45179450595116" lon="-4.0295687850374415"><ele>123.00000000000001</ele><time>2026-03-22T11:19:12Z</time></trkpt><trkpt lat="48.451766246578806" lon="-4.029346947816727"><ele>123.00000000000001</ele><time>2026-03-22T11:19:14Z</time></trkpt><trkpt lat="48.45178551352681" lon="-4.029178261991766"><ele>123.0</ele><time>2026-03-22T11:19:15Z</time></trkpt><trkpt lat="48.45180212220025" lon="-4.029077644604385"><ele>123.0</ele><time>2026-03-22T11:19:16Z</time></trkpt><trkpt lat="48.45171904822495" lon="-4.029015620312948"><ele>123.0</ele><time>2026-03-22T11:19:18Z</time></trkpt><trkpt lat="48.451641949527634" lon="-4.029012191214729"><ele>123.0</ele><time>2026-03-22T11:19:19Z</time></trkpt><trkpt lat="48.45155916536802" lon="-4.029008174392924"><ele>123.0</ele><time>2026-03-22T11:19:20Z</time></trkpt><trkpt lat="48.45148305622976" lon="-4.029006840427529"><ele>123.0</ele><time>2026-03-22T11:19:21Z</time></trkpt><trkpt lat="48.451404228527025" lon="-4.029119446675443"><ele>123.0</ele><time>2026-03-22T11:19:23Z</time></trkpt><trkpt lat="48.4514017097865" lon="-4.029255960328649"><ele>123.0</ele><time>2026-03-22T11:19:24Z</time></trkpt><trkpt lat="48.45139097945947" lon="-4.029428252980435"><ele>123.4</ele><time>2026-03-22T11:19:25Z</time></trkpt><trkpt lat="48.45137613938999" lon="-4.0295922368953745"><ele>123.80000000000001</ele><time>2026-03-22T11:19:26Z</time></trkpt><trkpt lat="48.451362473962284" lon="-4.029696027577404"><ele>124.2</ele><time>2026-03-22T11:19:27Z</time></trkpt><trkpt lat="48.451248609141935" lon="-4.029700766078764"><ele>124.6</ele><time>2026-03-22T11:19:29Z</time></trkpt><trkpt lat="48.45114499103548" lon="-4.029689459739141"><ele>125.0</ele><time>2026-03-22T11:19:30Z</time></trkpt><trkpt lat="48.45105671375352" lon="-4.029694915318805"><ele>125.0</ele><time>2026-03-22T11:19:31Z</time></trkpt><trkpt lat="48.45098642138413" lon="-4.0297464544878405"><ele>125.0</ele><time>2026-03-22T11:19:32Z</time></trkpt><trkpt lat="48.450916619985364" lon="-4.029802584844591"><ele>125.0</ele><time>2026-03-22T11:19:33Z</time></trkpt><trkpt lat="48.45082495389148" lon="-4.029821348387873"><ele>125.0</ele><time>2026-03-22T11:19:34Z</time></trkpt><trkpt lat="48.45070825287794" lon="-4.029774955004369"><ele>125.0</ele><time>2026-03-22T11:19:35Z</time></trkpt><trkpt lat="48.450609546948726" lon="-4.029746588621214"><ele>125.0</ele><time>2026-03-22T11:19:36Z</time></trkpt><trkpt lat="48.45049568342418" lon="-4.029745583831526"><ele>125.0</ele><time>2026-03-22T11:19:37Z</time></trkpt><trkpt lat="48.45042175802074" lon="-4.029772068264018"><ele>125.0</ele><time>2026-03-22T11:19:38Z</time></trkpt><trkpt lat="48.450335334528546" lon="-4.0298404601779305"><ele>125.0</ele><time>2026-03-22T11:19:39Z</time></trkpt><trkpt lat="48.45024821349915" lon="-4.0298603307324825"><ele>125.0</ele><time>2026-03-22T11:19:40Z</time></trkpt><trkpt lat="48.45014130104615" lon="-4.029838067361476"><ele>125.5</ele><time>2026-03-22T11:19:41Z</time></trkpt><trkpt lat="48.450042283073046" lon="-4.029810786664556"><ele>126.0</ele><time>2026-03-22T11:19:42Z</time></trkpt><trkpt lat="48.449910027881415" lon="-4.029779805035076"><ele>126.5</ele><time>2026-03-22T11:19:43Z</time></trkpt><trkpt lat="48.4497803661728" lon="-4.029755501186296"><ele>127.0</ele><time>2026-03-22T11:19:44Z</time></trkpt><trkpt lat="48.44964433937813" lon="-4.029712956051267"><ele>127.0</ele><time>2026-03-22T11:19:45Z</time></trkpt><trkpt lat="48.449490648852525" lon="-4.029670823801389"><ele>127.0</ele><time>2026-03-22T11:19:46Z</time></trkpt><trkpt lat="48.44933373143927" lon="-4.029638727505206"><ele>127.0</ele><time>2026-03-22T11:19:47Z</time></trkpt><trkpt lat="48.44918339883419" lon="-4.029610680896346"><ele>127.0</ele><time>2026-03-22T11:19:48Z</time></trkpt><trkpt lat="48.449038112986884" lon="-4.029585776376942"><ele>127.0</ele><time>2026-03-22T11:19:49Z</time></trkpt><trkpt lat="48.44892395989391" lon="-4.02956262069192"><ele>127.0</ele><time>2026-03-22T11:19:50Z</time></trkpt><trkpt lat="48.44880302560807" lon="-4.0295283542931415"><ele>127.0</ele><time>2026-03-22T11:19:51Z</time></trkpt><trkpt lat="48.448648466747464" lon="-4.029498197186961"><ele>128.0</ele><time>2026-03-22T11:19:52Z</time></trkpt><trkpt lat="48.448479783774054" lon="-4.029487553803105"><ele>129.0</ele><time>2026-03-22T11:19:53Z</time></trkpt><trkpt lat="48.4483260022611" lon="-4.029465144386416"><ele>130.0</ele><time>2026-03-22T11:19:54Z</time></trkpt><trkpt lat="48.448187584160536" lon="-4.0294678428033075"><ele>130.0</ele><time>2026-03-22T11:19:55Z</time></trkpt><trkpt lat="48.44805009255611" lon="-4.02948093614185"><ele>130.0</ele><time>2026-03-22T11:19:56Z</time></trkpt><trkpt lat="48.447914430531775" lon="-4.0295324661948335"><ele>130.0</ele><time>2026-03-22T11:19:57Z</time></trkpt><trkpt lat="48.44778254144064" lon="-4.029609115288916"><ele>130.0</ele><time>2026-03-22T11:19:58Z</time></trkpt><trkpt lat="48.447665135307155" lon="-4.029631601617016"><ele>130.66666666666669</ele><time>2026-03-22T11:19:59Z</time></trkpt><trkpt lat="48.4475872140774" lon="-4.02963468606012"><ele>131.33333333333334</ele><time>2026-03-22T11:20:00Z</time></trkpt><trkpt lat="48.44752935875819" lon="-4.029597114958115"><ele>132.0</ele><time>2026-03-22T11:20:01Z</time></trkpt><trkpt lat="48.44748202545141" lon="-4.029522013059121"><ele>132.66666666666666</ele><time>2026-03-22T11:20:02Z</time></trkpt><trkpt lat="48.447428276560274" lon="-4.029418623026464"><ele>133.33333333333331</ele><time>2026-03-22T11:20:03Z</time></trkpt><trkpt lat="48.447377179321194" lon="-4.029315165982431"><ele>134.0</ele><time>2026-03-22T11:20:04Z</time></trkpt><trkpt lat="48.44729005634575" lon="-4.029214627819972"><ele>133.0</ele><time>2026-03-22T11:20:05Z</time></trkpt><trkpt lat="48.4471655793282" lon="-4.029142255841716"><ele>132.0</ele><time>2026-03-22T11:20:06Z</time></trkpt><trkpt lat="48.44703632214763" lon="-4.0290603776246625"><ele>131.0</ele><time>2026-03-22T11:20:07Z</time></trkpt><trkpt lat="48.446908905969124" lon="-4.029004741703328"><ele>130.0</ele><time>2026-03-22T11:20:08Z</time></trkpt><trkpt lat="48.44675316623735" lon="-4.028927329448249"><ele>130.0</ele><time>2026-03-22T11:20:09Z</time></trkpt><trkpt lat="48.44661088898886" lon="-4.028841387706244"><ele>130.0</ele><time>2026-03-22T11:20:10Z</time></trkpt><trkpt lat="48.446487017070325" lon="-4.028764134561332"><ele>130.0</ele><time>2026-03-22T11:20:11Z</time></trkpt><trkpt lat="48.44635688970192" lon="-4.028700670022437"><ele>130.0</ele><time>2026-03-22T11:20:12Z</time></trkpt><trkpt lat="48.44624708062405" lon="-4.028632892696123"><ele>130.16666666666669</ele><time>2026-03-22T11:20:13Z</time></trkpt><trkpt lat="48.44617000228645" lon="-4.02859596785423"><ele>130.33333333333334</ele><time>2026-03-22T11:20:14Z</time></trkpt><trkpt lat="48.44610906224109" lon="-4.02851375838423"><ele>130.5</ele><time>2026-03-22T11:20:16Z</time></trkpt><trkpt lat="48.44604524116396" lon="-4.028450032692561"><ele>130.66666666666666</ele><time>2026-03-22T11:20:27Z</time></trkpt><trkpt lat="48.445981682345675" lon="-4.028387816328367"><ele>130.83333333333331</ele><time>2026-03-22T11:20:28Z</time></trkpt><trkpt lat="48.44589983432463" lon="-4.028319686964889"><ele>131.0</ele><time>2026-03-22T11:20:29Z</time></trkpt><trkpt lat="48.44581737959092" lon="-4.028271888331737"><ele>131.0</ele><time>2026-03-22T11:20:30Z</time></trkpt><trkpt lat="48.445725511500534" lon="-4.028226948806374"><ele>131.0</ele><time>2026-03-22T11:20:31Z</time></trkpt><trkpt lat="48.445631306809055" lon="-4.028183147730967"><ele>131.0</ele><time>2026-03-22T11:20:32Z</time></trkpt><trkpt lat="48.445534219050636" lon="-4.028153495413704"><ele>131.0</ele><time>2026-03-22T11:20:33Z</time></trkpt><trkpt lat="48.445449427230386" lon="-4.028136027345352"><ele>131.0</ele><time>2026-03-22T11:20:34Z</time></trkpt><trkpt lat="48.445266582072854" lon="-4.028068205079591"><ele>132.4</ele><time>2026-03-22T11:20:35.999Z</time></trkpt><trkpt lat="48.44515554524345" lon="-4.028024645673324"><ele>133.8</ele><time>2026-03-22T11:20:36.999Z</time></trkpt><trkpt lat="48.44506579284992" lon="-4.027987112284962"><ele>135.20000000000002</ele><time>2026-03-22T11:20:37.999Z</time></trkpt><trkpt lat="48.444986083381245" lon="-4.027931958290645"><ele>136.6</ele><time>2026-03-22T11:20:38.999Z</time></trkpt><trkpt lat="48.44491664449483" lon="-4.02786445122726"><ele>138.0</ele><time>2026-03-22T11:20:39.999Z</time></trkpt><trkpt lat="48.44485929220749" lon="-4.027784739171149"><ele>138.0</ele><time>2026-03-22T11:20:40.999Z</time></trkpt><trkpt lat="48.44481184838732" lon="-4.027703859666069"><ele>138.0</ele><time>2026-03-22T11:20:41.999Z</time></trkpt><trkpt lat="48.44470669320583" lon="-4.027636661794377"><ele>138.0</ele><time>2026-03-22T11:20:43.999Z</time></trkpt><trkpt lat="48.44464537790958" lon="-4.027575752884646"><ele>138.0</ele><time>2026-03-22T11:20:44.999Z</time></trkpt><trkpt lat="48.44458432841697" lon="-4.027528318961035"><ele>138.0</ele><time>2026-03-22T11:20:45.999Z</time></trkpt><trkpt lat="48.4445108840916" lon="-4.027508370118604"><ele>138.0</ele><time>2026-03-22T11:20:46.999Z</time></trkpt><trkpt lat="48.444439187101246" lon="-4.027452464212801"><ele>137.33333333333334</ele><time>2026-03-22T11:20:47.999Z</time></trkpt><trkpt lat="48.44439075819095" lon="-4.027388154701618"><ele>136.66666666666666</ele><time>2026-03-22T11:20:48.999Z</time></trkpt><trkpt lat="48.444258858568894" lon="-4.027308536181199"><ele>136.0</ele><time>2026-03-22T11:20:50.999Z</time></trkpt><trkpt lat="48.44418818262067" lon="-4.027249847283964"><ele>135.33333333333331</ele><time>2026-03-22T11:20:51.999Z</time></trkpt><trkpt lat="48.444137756197385" lon="-4.027180273256678"><ele>134.66666666666666</ele><time>2026-03-22T11:20:52.999Z</time></trkpt><trkpt lat="48.444076168377556" lon="-4.0271399905414444"><ele>134.0</ele><time>2026-03-22T11:20:54Z</time></trkpt><trkpt lat="48.44399515832905" lon="-4.027100913014123"><ele>134.0</ele><time>2026-03-22T11:20:55Z</time></trkpt><trkpt lat="48.44390918491279" lon="-4.0270546821179956"><ele>134.0</ele><time>2026-03-22T11:20:56Z</time></trkpt><trkpt lat="48.44379850973281" lon="-4.027002466307345"><ele>134.0</ele><time>2026-03-22T11:20:57Z</time></trkpt><trkpt lat="48.44371617072201" lon="-4.026936618423371"><ele>134.0</ele><time>2026-03-22T11:20:58Z</time></trkpt><trkpt lat="48.44363019065492" lon="-4.02687796498884"><ele>134.0</ele><time>2026-03-22T11:20:59Z</time></trkpt><trkpt lat="48.4435642034636" lon="-4.026832414099845"><ele>133.83333333333331</ele><time>2026-03-22T11:21:00Z</time></trkpt><trkpt lat="48.44350277329425" lon="-4.026791362411299"><ele>133.66666666666666</ele><time>2026-03-22T11:21:01Z</time></trkpt><trkpt lat="48.44341743697829" lon="-4.026757428656108"><ele>133.5</ele><time>2026-03-22T11:21:02Z</time></trkpt><trkpt lat="48.44331407458093" lon="-4.026724138275962"><ele>133.33333333333334</ele><time>2026-03-22T11:21:03Z</time></trkpt><trkpt lat="48.443224062402265" lon="-4.0266630944657695"><ele>133.16666666666669</ele><time>2026-03-22T11:21:04Z</time></trkpt><trkpt lat="48.44315169264946" lon="-4.0266030404617785"><ele>133.0</ele><time>2026-03-22T11:21:05Z</time></trkpt><trkpt lat="48.44305575155602" lon="-4.026511572037227"><ele>133.0</ele><time>2026-03-22T11:21:07Z</time></trkpt><trkpt lat="48.442985009216" lon="-4.026620390838213"><ele>133.0</ele><time>2026-03-22T11:21:09Z</time></trkpt><trkpt lat="48.44296817827313" lon="-4.026746370672673"><ele>133.0</ele><time>2026-03-22T11:21:10Z</time></trkpt><trkpt lat="48.442838537505814" lon="-4.026746112668691"><ele>133.0</ele><time>2026-03-22T11:21:13Z</time></trkpt><trkpt lat="48.44276914892903" lon="-4.026742067460478"><ele>133.0</ele><time>2026-03-22T11:21:14Z</time></trkpt><trkpt lat="48.44263508887555" lon="-4.026809633635014"><ele>134.5</ele><time>2026-03-22T11:21:16Z</time></trkpt><trkpt lat="48.44256217105768" lon="-4.026852524330947"><ele>136.0</ele><time>2026-03-22T11:21:17Z</time></trkpt><trkpt lat="48.442496680967906" lon="-4.026891198509847"><ele>137.5</ele><time>2026-03-22T11:21:18Z</time></trkpt><trkpt lat="48.44240148590017" lon="-4.0268318643233085"><ele>139.0</ele><time>2026-03-22T11:21:20Z</time></trkpt><trkpt lat="48.44231900731952" lon="-4.026780657093299"><ele>140.5</ele><time>2026-03-22T11:21:22Z</time></trkpt><trkpt lat="48.442249767611344" lon="-4.02684026311618"><ele>142.0</ele><time>2026-03-22T11:21:23Z</time></trkpt><trkpt lat="48.44220815180791" lon="-4.026936141374114"><ele>141.16666666666669</ele><time>2026-03-22T11:21:25Z</time></trkpt><trkpt lat="48.4421176725689" lon="-4.026903153308477"><ele>140.33333333333334</ele><time>2026-03-22T11:21:28Z</time></trkpt><trkpt lat="48.44203135304937" lon="-4.026965305039235"><ele>139.5</ele><time>2026-03-22T11:21:30Z</time></trkpt><trkpt lat="48.4419618129652" lon="-4.026989084453635"><ele>138.66666666666666</ele><time>2026-03-22T11:21:31Z</time></trkpt><trkpt lat="48.441892117696064" lon="-4.027038172745955"><ele>137.83333333333331</ele><time>2026-03-22T11:21:32Z</time></trkpt><trkpt lat="48.44183496139682" lon="-4.027084941814627"><ele>137.0</ele><time>2026-03-22T11:21:33Z</time></trkpt><trkpt lat="48.44173316720948" lon="-4.027088680638426"><ele>137.0</ele><time>2026-03-22T11:21:35Z</time></trkpt><trkpt lat="48.441650862124185" lon="-4.02704429687776"><ele>137.0</ele><time>2026-03-22T11:21:36Z</time></trkpt><trkpt lat="48.44152200732999" lon="-4.027042057325602"><ele>137.0</ele><time>2026-03-22T11:21:38Z</time></trkpt><trkpt lat="48.44146001149767" lon="-4.027078942885913"><ele>137.0</ele><time>2026-03-22T11:21:39Z</time></trkpt><trkpt lat="48.441346311067946" lon="-4.027260042842487"><ele>137.0</ele><time>2026-03-22T11:21:41Z</time></trkpt><trkpt lat="48.44125679169371" lon="-4.027285119626574"><ele>137.16666666666666</ele><time>2026-03-22T11:21:42Z</time></trkpt><trkpt lat="48.4411744146962" lon="-4.027311129238653"><ele>137.33333333333331</ele><time>2026-03-22T11:21:43Z</time></trkpt><trkpt lat="48.44107052388873" lon="-4.027363687258488"><ele>137.5</ele><time>2026-03-22T11:21:45Z</time></trkpt><trkpt lat="48.44098801753064" lon="-4.027375918899792"><ele>137.66666666666666</ele><time>2026-03-22T11:21:46Z</time></trkpt><trkpt lat="48.44092197159174" lon="-4.0273881587881855"><ele>137.83333333333334</ele><time>2026-03-22T11:21:47Z</time></trkpt><trkpt lat="48.44083792667449" lon="-4.02741112314506"><ele>138.0</ele><time>2026-03-22T11:21:48Z</time></trkpt><trkpt lat="48.44074226057306" lon="-4.0274011142883"><ele>138.4</ele><time>2026-03-22T11:21:50Z</time></trkpt><trkpt lat="48.440699647537635" lon="-4.027557417701136"><ele>138.8</ele><time>2026-03-22T11:21:52Z</time></trkpt><trkpt lat="48.440594050210066" lon="-4.027694879393745"><ele>139.2</ele><time>2026-03-22T11:21:54Z</time></trkpt><trkpt lat="48.44053407603537" lon="-4.0277615968926135"><ele>139.6</ele><time>2026-03-22T11:21:55Z</time></trkpt><trkpt lat="48.44047098255533" lon="-4.027850686778044"><ele>140.0</ele><time>2026-03-22T11:21:56Z</time></trkpt><trkpt lat="48.44041073868948" lon="-4.027923851259559"><ele>140.0</ele><time>2026-03-22T11:21:57Z</time></trkpt><trkpt lat="48.44035434163448" lon="-4.0279871663773035"><ele>140.0</ele><time>2026-03-22T11:21:58Z</time></trkpt><trkpt lat="48.440245610831205" lon="-4.028116330523358"><ele>140.0</ele><time>2026-03-22T11:22:00Z</time></trkpt><trkpt lat="48.44015466632425" lon="-4.028158665568333"><ele>140.0</ele><time>2026-03-22T11:22:02Z</time></trkpt><trkpt lat="48.44009976742462" lon="-4.028229034480793"><ele>140.0</ele><time>2026-03-22T11:22:04Z</time></trkpt><trkpt lat="48.44005505832221" lon="-4.028321948668647"><ele>141.75</ele><time>2026-03-22T11:22:06Z</time></trkpt><trkpt lat="48.43994765290784" lon="-4.028320434524"><ele>143.5</ele><time>2026-03-22T11:22:08Z</time></trkpt><trkpt lat="48.43986707382251" lon="-4.028481195820191"><ele>145.25</ele><time>2026-03-22T11:22:10Z</time></trkpt><trkpt lat="48.43979726436703" lon="-4.028627266503678"><ele>147.0</ele><time>2026-03-22T11:22:10.999Z</time></trkpt><trkpt lat="48.43973608530923" lon="-4.028790372625007"><ele>147.0</ele><time>2026-03-22T11:22:11.999Z</time></trkpt><trkpt lat="48.43965379858748" lon="-4.028969220581827"><ele>147.0</ele><time>2026-03-22T11:22:12.999Z</time></trkpt><trkpt lat="48.43959630051733" lon="-4.0290938298211945"><ele>147.0</ele><time>2026-03-22T11:22:13.999Z</time></trkpt><trkpt lat="48.43954606074937" lon="-4.029191735929372"><ele>147.0</ele><time>2026-03-22T11:22:14.999Z</time></trkpt><trkpt lat="48.43954555803862" lon="-4.029341600546664"><ele>147.0</ele><time>2026-03-22T11:22:16.999Z</time></trkpt><trkpt lat="48.439564319243004" lon="-4.029449810776654"><ele>147.25</ele><time>2026-03-22T11:22:17.999Z</time></trkpt><trkpt lat="48.4395053774849" lon="-4.0295490044792075"><ele>147.5</ele><time>2026-03-22T11:22:18.999Z</time></trkpt><trkpt lat="48.43941747646565" lon="-4.029686305466714"><ele>147.75</ele><time>2026-03-22T11:22:19.999Z</time></trkpt><trkpt lat="48.43934239340742" lon="-4.029894457618265"><ele>148.0</ele><time>2026-03-22T11:22:20.999Z</time></trkpt><trkpt lat="48.439292044266836" lon="-4.030096847030112"><ele>148.8</ele><time>2026-03-22T11:22:21.999Z</time></trkpt><trkpt lat="48.439265709336354" lon="-4.030233348065234"><ele>149.60000000000002</ele><time>2026-03-22T11:22:22.999Z</time></trkpt><trkpt lat="48.43924776737012" lon="-4.030382516242246"><ele>150.39999999999998</ele><time>2026-03-22T11:22:23.999Z</time></trkpt><trkpt lat="48.43924546855633" lon="-4.030537351035692"><ele>151.2</ele><time>2026-03-22T11:22:24.999Z</time></trkpt><trkpt lat="48.439240274558465" lon="-4.030664488153457"><ele>152.0</ele><time>2026-03-22T11:22:25.999Z</time></trkpt><trkpt lat="48.43924898229486" lon="-4.030820061613209"><ele>152.75</ele><time>2026-03-22T11:22:26.999Z</time></trkpt><trkpt lat="48.43925924748673" lon="-4.031006780873474"><ele>153.5</ele><time>2026-03-22T11:22:27.999Z</time></trkpt><trkpt lat="48.43927858234565" lon="-4.03118509017983"><ele>154.25</ele><time>2026-03-22T11:22:28.999Z</time></trkpt><trkpt lat="48.439297267603976" lon="-4.0313583432261035"><ele>155.0</ele><time>2026-03-22T11:22:29.999Z</time></trkpt><trkpt lat="48.439340713216794" lon="-4.031517258505607"><ele>155.8</ele><time>2026-03-22T11:22:30.999Z</time></trkpt><trkpt lat="48.4393877279602" lon="-4.031663986937989"><ele>156.6</ele><time>2026-03-22T11:22:31.999Z</time></trkpt><trkpt lat="48.43941139293614" lon="-4.0317860893055535"><ele>157.4</ele><time>2026-03-22T11:22:32.999Z</time></trkpt><trkpt lat="48.439421448340305" lon="-4.03190323063426"><ele>158.2</ele><time>2026-03-22T11:22:33.999Z</time></trkpt><trkpt lat="48.43947397647666" lon="-4.032029230950786"><ele>159.0</ele><time>2026-03-22T11:22:35.999Z</time></trkpt><trkpt lat="48.43956989548786" lon="-4.0320445132068965"><ele>160.0</ele><time>2026-03-22T11:22:37.999Z</time></trkpt><trkpt lat="48.43968246820862" lon="-4.032062259416488"><ele>161.0</ele><time>2026-03-22T11:22:39.999Z</time></trkpt><trkpt lat="48.4397519476322" lon="-4.032074649343516"><ele>162.0</ele><time>2026-03-22T11:22:40.999Z</time></trkpt><trkpt lat="48.43985418019658" lon="-4.032100121366164"><ele>163.0</ele><time>2026-03-22T11:22:41.999Z</time></trkpt><trkpt lat="48.43997110202697" lon="-4.03213318988"><ele>164.0</ele><time>2026-03-22T11:22:42.999Z</time></trkpt><trkpt lat="48.4401127035221" lon="-4.032163371805403"><ele>164.0</ele><time>2026-03-22T11:22:43.999Z</time></trkpt><trkpt lat="48.44022337421998" lon="-4.0321938688490455"><ele>164.0</ele><time>2026-03-22T11:22:44.999Z</time></trkpt><trkpt lat="48.44032951892765" lon="-4.032203136286931"><ele>164.0</ele><time>2026-03-22T11:22:45.999Z</time></trkpt><trkpt lat="48.4404436094015" lon="-4.0322281640237625"><ele>164.0</ele><time>2026-03-22T11:22:46.999Z</time></trkpt><trkpt lat="48.4405429035229" lon="-4.032268562698101"><ele>164.0</ele><time>2026-03-22T11:22:47.999Z</time></trkpt><trkpt lat="48.44061872647789" lon="-4.032295025347789"><ele>164.79999999999998</ele><time>2026-03-22T11:22:48.999Z</time></trkpt><trkpt lat="48.44070580552094" lon="-4.032323901424878"><ele>165.6</ele><time>2026-03-22T11:22:50.999Z</time></trkpt><trkpt lat="48.44069296110961" lon="-4.032458462945191"><ele>166.4</ele><time>2026-03-22T11:22:52.999Z</time></trkpt><trkpt lat="48.440680521695" lon="-4.032581614254559"><ele>167.2</ele><time>2026-03-22T11:22:53.999Z</time></trkpt><trkpt lat="48.44067432156334" lon="-4.032740702802526"><ele>168.0</ele><time>2026-03-22T11:22:54.999Z</time></trkpt><trkpt lat="48.4406578302481" lon="-4.032882016063261"><ele>168.0</ele><time>2026-03-22T11:22:55.999Z</time></trkpt><trkpt lat="48.440666288996084" lon="-4.033044213866078"><ele>168.0</ele><time>2026-03-22T11:22:56.999Z</time></trkpt><trkpt lat="48.440684397210724" lon="-4.033173875105879"><ele>168.0</ele><time>2026-03-22T11:22:57.999Z</time></trkpt><trkpt lat="48.44070638838909" lon="-4.033302256617126"><ele>168.0</ele><time>2026-03-22T11:22:58.999Z</time></trkpt><trkpt lat="48.44072553522108" lon="-4.033433368305775"><ele>168.0</ele><time>2026-03-22T11:23:00Z</time></trkpt><trkpt lat="48.44075030518693" lon="-4.033562779121581"><ele>168.0</ele><time>2026-03-22T11:23:01Z</time></trkpt><trkpt lat="48.44077140025711" lon="-4.03369961373975"><ele>168.0</ele><time>2026-03-22T11:23:02Z</time></trkpt><trkpt lat="48.440790293043165" lon="-4.0338342712396225"><ele>168.0</ele><time>2026-03-22T11:23:03Z</time></trkpt><trkpt lat="48.440809573410455" lon="-4.033971628451116"><ele>168.0</ele><time>2026-03-22T11:23:04Z</time></trkpt><trkpt lat="48.440812634906294" lon="-4.0341002074896135"><ele>168.0</ele><time>2026-03-22T11:23:05Z</time></trkpt><trkpt lat="48.440801197762525" lon="-4.034242921063084"><ele>168.0</ele><time>2026-03-22T11:23:06Z</time></trkpt><trkpt lat="48.440807318664724" lon="-4.03441041912324"><ele>168.0</ele><time>2026-03-22T11:23:07Z</time></trkpt><trkpt lat="48.44078695758575" lon="-4.0345844687238035"><ele>168.0</ele><time>2026-03-22T11:23:08Z</time></trkpt><trkpt lat="48.440787585410895" lon="-4.0347412246980445"><ele>168.0</ele><time>2026-03-22T11:23:09Z</time></trkpt><trkpt lat="48.44075807018305" lon="-4.03487795251519"><ele>168.0</ele><time>2026-03-22T11:23:10Z</time></trkpt><trkpt lat="48.44072651992514" lon="-4.035020320915363"><ele>168.5</ele><time>2026-03-22T11:23:12Z</time></trkpt><trkpt lat="48.44084164197359" lon="-4.03516063704736"><ele>169.0</ele><time>2026-03-22T11:23:14Z</time></trkpt><trkpt lat="48.440914114597234" lon="-4.035263054519546"><ele>169.5</ele><time>2026-03-22T11:23:15Z</time></trkpt><trkpt lat="48.44099156977368" lon="-4.035372511454916"><ele>170.0</ele><time>2026-03-22T11:23:16Z</time></trkpt><trkpt lat="48.44106714827027" lon="-4.035486331869008"><ele>170.0</ele><time>2026-03-22T11:23:17Z</time></trkpt><trkpt lat="48.44114956725975" lon="-4.035609877790553"><ele>170.0</ele><time>2026-03-22T11:23:18Z</time></trkpt><trkpt lat="48.441229484082655" lon="-4.035761381710004"><ele>170.0</ele><time>2026-03-22T11:23:19Z</time></trkpt><trkpt lat="48.44133850284406" lon="-4.0358840847491075"><ele>170.0</ele><time>2026-03-22T11:23:20Z</time></trkpt><trkpt lat="48.44143914055392" lon="-4.036032514127004"><ele>171.25</ele><time>2026-03-22T11:23:21Z</time></trkpt><trkpt lat="48.441528971417426" lon="-4.036204404729643"><ele>172.5</ele><time>2026-03-22T11:23:22Z</time></trkpt><trkpt lat="48.44163620406935" lon="-4.036349848184371"><ele>173.75</ele><time>2026-03-22T11:23:23Z</time></trkpt><trkpt lat="48.44174626659244" lon="-4.036486891698431"><ele>175.0</ele><time>2026-03-22T11:23:24Z</time></trkpt><trkpt lat="48.44187187839168" lon="-4.036605039763434"><ele>176.66666666666669</ele><time>2026-03-22T11:23:25Z</time></trkpt><trkpt lat="48.442002301702104" lon="-4.03669986680019"><ele>178.33333333333334</ele><time>2026-03-22T11:23:26Z</time></trkpt><trkpt lat="48.44214495027932" lon="-4.036775579172546"><ele>180.0</ele><time>2026-03-22T11:23:27Z</time></trkpt><trkpt lat="48.44230273792041" lon="-4.036840073793372"><ele>180.0</ele><time>2026-03-22T11:23:28Z</time></trkpt><trkpt lat="48.44245464719797" lon="-4.036887318782631"><ele>180.0</ele><time>2026-03-22T11:23:29Z</time></trkpt><trkpt lat="48.44257909219677" lon="-4.036893469153999"><ele>180.0</ele><time>2026-03-22T11:23:30Z</time></trkpt><trkpt lat="48.442661167717105" lon="-4.036913676537001"><ele>180.0</ele><time>2026-03-22T11:23:31Z</time></trkpt><trkpt lat="48.442749030356296" lon="-4.036935308756528"><ele>180.0</ele><time>2026-03-22T11:23:33Z</time></trkpt><trkpt lat="48.44276145515579" lon="-4.03711729848579"><ele>180.0</ele><time>2026-03-22T11:23:34Z</time></trkpt><trkpt lat="48.44277113438224" lon="-4.0372388172336535"><ele>180.0</ele><time>2026-03-22T11:23:35Z</time></trkpt><trkpt lat="48.44277894996935" lon="-4.0374097893805665"><ele>180.0</ele><time>2026-03-22T11:23:36Z</time></trkpt><trkpt lat="48.44278470350403" lon="-4.0375879825281995"><ele>180.0</ele><time>2026-03-22T11:23:37Z</time></trkpt><trkpt lat="48.44278791584616" lon="-4.0378168038980995"><ele>181.0</ele><time>2026-03-22T11:23:38Z</time></trkpt><trkpt lat="48.442771800634084" lon="-4.038058934205733"><ele>182.0</ele><time>2026-03-22T11:23:39Z</time></trkpt><trkpt lat="48.442773107688126" lon="-4.038318782050853"><ele>183.0</ele><time>2026-03-22T11:23:40Z</time></trkpt><trkpt lat="48.442768186091655" lon="-4.038588937864161"><ele>183.66666666666666</ele><time>2026-03-22T11:23:41Z</time></trkpt><trkpt lat="48.44275133741479" lon="-4.038846813206972"><ele>184.33333333333331</ele><time>2026-03-22T11:23:42Z</time></trkpt><trkpt lat="48.44272875001479" lon="-4.039112834282505"><ele>185.0</ele><time>2026-03-22T11:23:43Z</time></trkpt><trkpt lat="48.442698267093036" lon="-4.039390563189804"><ele>185.0</ele><time>2026-03-22T11:23:44Z</time></trkpt><trkpt lat="48.44264197872437" lon="-4.03971240036301"><ele>185.0</ele><time>2026-03-22T11:23:45Z</time></trkpt><trkpt lat="48.442594958200075" lon="-4.0399910956463065"><ele>185.0</ele><time>2026-03-22T11:23:46Z</time></trkpt><trkpt lat="48.44254261908994" lon="-4.040249170199233"><ele>185.0</ele><time>2026-03-22T11:23:47Z</time></trkpt><trkpt lat="48.44248512198356" lon="-4.0404859056017015"><ele>185.0</ele><time>2026-03-22T11:23:48Z</time></trkpt><trkpt lat="48.442430113167134" lon="-4.040702496946089"><ele>185.0</ele><time>2026-03-22T11:23:49Z</time></trkpt><trkpt lat="48.44240417314781" lon="-4.040903180704037"><ele>184.8</ele><time>2026-03-22T11:23:50Z</time></trkpt><trkpt lat="48.442385333431446" lon="-4.041050674026578"><ele>184.6</ele><time>2026-03-22T11:23:51Z</time></trkpt><trkpt lat="48.442400108004534" lon="-4.041150765662964"><ele>184.39999999999998</ele><time>2026-03-22T11:23:52Z</time></trkpt><trkpt lat="48.44249810263453" lon="-4.041264646274503"><ele>184.2</ele><time>2026-03-22T11:23:54Z</time></trkpt><trkpt lat="48.44260405851734" lon="-4.041310160463321"><ele>184.0</ele><time>2026-03-22T11:23:55Z</time></trkpt><trkpt lat="48.44273344836076" lon="-4.0413983823952915"><ele>184.0</ele><time>2026-03-22T11:23:56Z</time></trkpt><trkpt lat="48.44288987028574" lon="-4.041514229612574"><ele>184.0</ele><time>2026-03-22T11:23:57Z</time></trkpt><trkpt lat="48.44303150234674" lon="-4.0416610362456975"><ele>184.0</ele><time>2026-03-22T11:23:58Z</time></trkpt><trkpt lat="48.443147505736334" lon="-4.041788656100543"><ele>183.66666666666669</ele><time>2026-03-22T11:23:59Z</time></trkpt><trkpt lat="48.443246740005826" lon="-4.041979792101334"><ele>183.33333333333334</ele><time>2026-03-22T11:24:00Z</time></trkpt><trkpt lat="48.443331690692595" lon="-4.042255191777726"><ele>183.0</ele><time>2026-03-22T11:24:01Z</time></trkpt><trkpt lat="48.44342353434202" lon="-4.04256955372465"><ele>182.33333333333334</ele><time>2026-03-22T11:24:02Z</time></trkpt><trkpt lat="48.443500797362375" lon="-4.042854089368364"><ele>181.66666666666669</ele><time>2026-03-22T11:24:03Z</time></trkpt><trkpt lat="48.44356980744071" lon="-4.043149344646746"><ele>181.0</ele><time>2026-03-22T11:24:04Z</time></trkpt><trkpt lat="48.443628950583935" lon="-4.0434837727091715"><ele>180.0</ele><time>2026-03-22T11:24:05Z</time></trkpt><trkpt lat="48.4436731613756" lon="-4.043846885241996"><ele>179.0</ele><time>2026-03-22T11:24:06Z</time></trkpt><trkpt lat="48.4436951078613" lon="-4.044174577696073"><ele>178.66666666666666</ele><time>2026-03-22T11:24:07Z</time></trkpt><trkpt lat="48.44372867460227" lon="-4.044459346385891"><ele>178.33333333333334</ele><time>2026-03-22T11:24:08Z</time></trkpt><trkpt lat="48.44374298318597" lon="-4.044720511188015"><ele>178.0</ele><time>2026-03-22T11:24:09Z</time></trkpt><trkpt lat="48.443781558171615" lon="-4.044947854197171"><ele>178.0</ele><time>2026-03-22T11:24:10Z</time></trkpt><trkpt lat="48.443846307217626" lon="-4.045151109335029"><ele>178.0</ele><time>2026-03-22T11:24:11Z</time></trkpt><trkpt lat="48.44387485495162" lon="-4.0453361586280465"><ele>178.0</ele><time>2026-03-22T11:24:12Z</time></trkpt><trkpt lat="48.44386879514956" lon="-4.0455001311491765"><ele>178.0</ele><time>2026-03-22T11:24:13Z</time></trkpt><trkpt lat="48.44380320121593" lon="-4.045676100753298"><ele>177.66666666666669</ele><time>2026-03-22T11:24:14Z</time></trkpt><trkpt lat="48.44371267662422" lon="-4.0458840292884"><ele>177.33333333333334</ele><time>2026-03-22T11:24:15Z</time></trkpt><trkpt lat="48.44358669871173" lon="-4.046121522718948"><ele>177.0</ele><time>2026-03-22T11:24:16Z</time></trkpt><trkpt lat="48.44343069798217" lon="-4.046380615780233"><ele>178.0</ele><time>2026-03-22T11:24:17Z</time></trkpt><trkpt lat="48.44326851677254" lon="-4.046669060676686"><ele>179.0</ele><time>2026-03-22T11:24:18Z</time></trkpt><trkpt lat="48.443099065291676" lon="-4.04698370745492"><ele>179.0</ele><time>2026-03-22T11:24:19Z</time></trkpt><trkpt lat="48.442932252723736" lon="-4.047297113377763"><ele>179.0</ele><time>2026-03-22T11:24:20Z</time></trkpt><trkpt lat="48.44278075273063" lon="-4.047556792405686"><ele>179.0</ele><time>2026-03-22T11:24:21Z</time></trkpt><trkpt lat="48.442659182009464" lon="-4.047792020196797"><ele>179.0</ele><time>2026-03-22T11:24:22Z</time></trkpt><trkpt lat="48.44257197439145" lon="-4.048040338281521"><ele>179.0</ele><time>2026-03-22T11:24:23Z</time></trkpt><trkpt lat="48.4424762273329" lon="-4.048316147032691"><ele>179.33333333333331</ele><time>2026-03-22T11:24:24Z</time></trkpt><trkpt lat="48.44234641890249" lon="-4.048526595463324"><ele>179.66666666666666</ele><time>2026-03-22T11:24:25Z</time></trkpt><trkpt lat="48.442218108874926" lon="-4.048762046264212"><ele>180.0</ele><time>2026-03-22T11:24:26Z</time></trkpt><trkpt lat="48.44209920418705" lon="-4.04897575730953"><ele>180.0</ele><time>2026-03-22T11:24:27Z</time></trkpt><trkpt lat="48.441974844935544" lon="-4.049087260550157"><ele>180.0</ele><time>2026-03-22T11:24:28Z</time></trkpt><trkpt lat="48.44184507529554" lon="-4.049138841321744"><ele>180.0</ele><time>2026-03-22T11:24:29Z</time></trkpt><trkpt lat="48.441666307907376" lon="-4.049184317368286"><ele>181.0</ele><time>2026-03-22T11:24:30Z</time></trkpt><trkpt lat="48.44146104441097" lon="-4.049305396683754"><ele>182.0</ele><time>2026-03-22T11:24:30.999Z</time></trkpt><trkpt lat="48.44123837400563" lon="-4.049433793767702"><ele>182.0</ele><time>2026-03-22T11:24:31.999Z</time></trkpt><trkpt lat="48.44098518774059" lon="-4.049583602226875"><ele>182.0</ele><time>2026-03-22T11:24:32.999Z</time></trkpt><trkpt lat="48.44073290019185" lon="-4.0497313616843735"><ele>182.0</ele><time>2026-03-22T11:24:33.999Z</time></trkpt><trkpt lat="48.44049804021588" lon="-4.049864207256435"><ele>182.0</ele><time>2026-03-22T11:24:34.999Z</time></trkpt><trkpt lat="48.44026668128208" lon="-4.049995596465392"><ele>182.0</ele><time>2026-03-22T11:24:35.999Z</time></trkpt><trkpt lat="48.44002750354571" lon="-4.050136624974213"><ele>182.0</ele><time>2026-03-22T11:24:36.999Z</time></trkpt><trkpt lat="48.43979385356798" lon="-4.050278367744435"><ele>180.5</ele><time>2026-03-22T11:24:37.999Z</time></trkpt><trkpt lat="48.439571177445735" lon="-4.050416685751029"><ele>179.0</ele><time>2026-03-22T11:24:38.999Z</time></trkpt><trkpt lat="48.43934732638801" lon="-4.050558953614281"><ele>179.0</ele><time>2026-03-22T11:24:39.999Z</time></trkpt><trkpt lat="48.43913043476967" lon="-4.050696798533915"><ele>179.0</ele><time>2026-03-22T11:24:40.999Z</time></trkpt><trkpt lat="48.43891980577296" lon="-4.050828275829494"><ele>178.0</ele><time>2026-03-22T11:24:41.999Z</time></trkpt><trkpt lat="48.43869856219373" lon="-4.050963370583965"><ele>177.0</ele><time>2026-03-22T11:24:42.999Z</time></trkpt><trkpt lat="48.43851238352918" lon="-4.051077054198871"><ele>176.0</ele><time>2026-03-22T11:24:43.999Z</time></trkpt><trkpt lat="48.43835233371498" lon="-4.051174783207935"><ele>176.0</ele><time>2026-03-22T11:24:44.999Z</time></trkpt><trkpt lat="48.438214654856615" lon="-4.051254224855577"><ele>176.0</ele><time>2026-03-22T11:24:45.999Z</time></trkpt><trkpt lat="48.43811318312534" lon="-4.051320949631253"><ele>176.0</ele><time>2026-03-22T11:24:46.999Z</time></trkpt><trkpt lat="48.43804106995515" lon="-4.0513950049992085"><ele>176.0</ele><time>2026-03-22T11:24:47.999Z</time></trkpt><trkpt lat="48.43800030561608" lon="-4.051531200154882"><ele>176.0</ele><time>2026-03-22T11:24:48.999Z</time></trkpt><trkpt lat="48.43798634420622" lon="-4.051695354442774"><ele>174.33333333333331</ele><time>2026-03-22T11:24:49.999Z</time></trkpt><trkpt lat="48.43793115202629" lon="-4.051954913898349"><ele>172.66666666666666</ele><time>2026-03-22T11:24:50.999Z</time></trkpt><trkpt lat="48.43787189382713" lon="-4.05224036281641"><ele>171.0</ele><time>2026-03-22T11:24:51.999Z</time></trkpt><trkpt lat="48.43782386075475" lon="-4.052472162495499"><ele>170.8</ele><time>2026-03-22T11:24:52.999Z</time></trkpt><trkpt lat="48.43778367068894" lon="-4.052651884755401"><ele>170.60000000000002</ele><time>2026-03-22T11:24:53.999Z</time></trkpt><trkpt lat="48.4377529060428" lon="-4.052787764133285"><ele>170.4</ele><time>2026-03-22T11:24:54.999Z</time></trkpt><trkpt lat="48.43772951755842" lon="-4.052904054940513"><ele>170.2</ele><time>2026-03-22T11:24:55.999Z</time></trkpt><trkpt lat="48.43770378667102" lon="-4.0530333326969785"><ele>170.0</ele><time>2026-03-22T11:24:57.999Z</time></trkpt><trkpt lat="48.437550669287766" lon="-4.052929602729037"><ele>170.0</ele><time>2026-03-22T11:24:59.999Z</time></trkpt><trkpt lat="48.437456402026704" lon="-4.052860887934958"><ele>170.0</ele><time>2026-03-22T11:25:00.999Z</time></trkpt><trkpt lat="48.437344989180474" lon="-4.052793631617748"><ele>170.0</ele><time>2026-03-22T11:25:01.999Z</time></trkpt><trkpt lat="48.437202771684895" lon="-4.0526975390874895"><ele>170.0</ele><time>2026-03-22T11:25:02.999Z</time></trkpt><trkpt lat="48.437075981735596" lon="-4.052629292473236"><ele>169.0</ele><time>2026-03-22T11:25:03.999Z</time></trkpt><trkpt lat="48.43696103611631" lon="-4.052565084994721"><ele>168.0</ele><time>2026-03-22T11:25:04.999Z</time></trkpt><trkpt lat="48.43683927483083" lon="-4.052513424165862"><ele>167.0</ele><time>2026-03-22T11:25:06Z</time></trkpt><trkpt lat="48.436705271100294" lon="-4.052473226510819"><ele>166.0</ele><time>2026-03-22T11:25:07Z</time></trkpt><trkpt lat="48.436590757278" lon="-4.052438922470603"><ele>166.0</ele><time>2026-03-22T11:25:08Z</time></trkpt><trkpt lat="48.43649047930807" lon="-4.052412889882079"><ele>166.0</ele><time>2026-03-22T11:25:09Z</time></trkpt><trkpt lat="48.436382445524025" lon="-4.052411437686657"><ele>166.0</ele><time>2026-03-22T11:25:10Z</time></trkpt><trkpt lat="48.43627950036269" lon="-4.052473211833182"><ele>166.0</ele><time>2026-03-22T11:25:11Z</time></trkpt><trkpt lat="48.436173776114806" lon="-4.0525553711842495"><ele>166.0</ele><time>2026-03-22T11:25:12Z</time></trkpt><trkpt lat="48.436019930104905" lon="-4.0526378594676675"><ele>164.33333333333334</ele><time>2026-03-22T11:25:13Z</time></trkpt><trkpt lat="48.43586278944126" lon="-4.052683694264585"><ele>162.66666666666666</ele><time>2026-03-22T11:25:14Z</time></trkpt><trkpt lat="48.435673385720776" lon="-4.052710743803185"><ele>161.0</ele><time>2026-03-22T11:25:15Z</time></trkpt><trkpt lat="48.43549100051784" lon="-4.052723282602755"><ele>159.0</ele><time>2026-03-22T11:25:16Z</time></trkpt><trkpt lat="48.435297353439665" lon="-4.052756837825978"><ele>157.0</ele><time>2026-03-22T11:25:17Z</time></trkpt><trkpt lat="48.435118424377364" lon="-4.052773362381172"><ele>155.0</ele><time>2026-03-22T11:25:18Z</time></trkpt><trkpt lat="48.434958088200915" lon="-4.05279074400572"><ele>155.0</ele><time>2026-03-22T11:25:19Z</time></trkpt><trkpt lat="48.43480290549548" lon="-4.0528189121135485"><ele>155.0</ele><time>2026-03-22T11:25:20Z</time></trkpt><trkpt lat="48.43463952121477" lon="-4.052886584812019"><ele>155.0</ele><time>2026-03-22T11:25:21Z</time></trkpt><trkpt lat="48.43443849750633" lon="-4.0529640216104275"><ele>153.33333333333331</ele><time>2026-03-22T11:25:22Z</time></trkpt><trkpt lat="48.434260766870956" lon="-4.053037108447844"><ele>151.66666666666666</ele><time>2026-03-22T11:25:23Z</time></trkpt><trkpt lat="48.43409022810908" lon="-4.053104301098221"><ele>150.0</ele><time>2026-03-22T11:25:24Z</time></trkpt><trkpt lat="48.43392362427419" lon="-4.053170006551294"><ele>148.66666666666666</ele><time>2026-03-22T11:25:25Z</time></trkpt><trkpt lat="48.43373598367117" lon="-4.053212701021621"><ele>147.33333333333331</ele><time>2026-03-22T11:25:26Z</time></trkpt><trkpt lat="48.43353712228109" lon="-4.053255572201167"><ele>146.0</ele><time>2026-03-22T11:25:27Z</time></trkpt><trkpt lat="48.43338191126568" lon="-4.05328033616625"><ele>146.0</ele><time>2026-03-22T11:25:28Z</time></trkpt><trkpt lat="48.43319745229073" lon="-4.053277402564671"><ele>146.0</ele><time>2026-03-22T11:25:29Z</time></trkpt><trkpt lat="48.43301464349267" lon="-4.0532838882713795"><ele>146.0</ele><time>2026-03-22T11:25:30Z</time></trkpt><trkpt lat="48.432837874803916" lon="-4.053306747806015"><ele>145.0</ele><time>2026-03-22T11:25:31Z</time></trkpt><trkpt lat="48.4326624344496" lon="-4.053346012587471"><ele>144.0</ele><time>2026-03-22T11:25:32Z</time></trkpt><trkpt lat="48.43248460429632" lon="-4.0534113302596015"><ele>143.0</ele><time>2026-03-22T11:25:33Z</time></trkpt><trkpt lat="48.43230099977164" lon="-4.0534833203278104"><ele>141.33333333333331</ele><time>2026-03-22T11:25:34Z</time></trkpt><trkpt lat="48.43212154499888" lon="-4.053553838608319"><ele>139.66666666666666</ele><time>2026-03-22T11:25:35Z</time></trkpt><trkpt lat="48.43193845564476" lon="-4.053635472904938"><ele>138.0</ele><time>2026-03-22T11:25:36Z</time></trkpt><trkpt lat="48.43175074841515" lon="-4.053723184190307"><ele>138.0</ele><time>2026-03-22T11:25:37Z</time></trkpt><trkpt lat="48.431579638626545" lon="-4.0538045692999445"><ele>138.0</ele><time>2026-03-22T11:25:38Z</time></trkpt><trkpt lat="48.43141402998837" lon="-4.05387412871869"><ele>138.0</ele><time>2026-03-22T11:25:39Z</time></trkpt><trkpt lat="48.4312478074924" lon="-4.053993650544626"><ele>136.0</ele><time>2026-03-22T11:25:40Z</time></trkpt><trkpt lat="48.43106890883249" lon="-4.054080048528314"><ele>134.0</ele><time>2026-03-22T11:25:41Z</time></trkpt><trkpt lat="48.43088744958738" lon="-4.054165973208286"><ele>132.0</ele><time>2026-03-22T11:25:42Z</time></trkpt><trkpt lat="48.43070067424698" lon="-4.054251523896335"><ele>132.0</ele><time>2026-03-22T11:25:43Z</time></trkpt><trkpt lat="48.43049916548045" lon="-4.054343808029022"><ele>132.0</ele><time>2026-03-22T11:25:44Z</time></trkpt><trkpt lat="48.43031539148071" lon="-4.054404440025776"><ele>132.0</ele><time>2026-03-22T11:25:45Z</time></trkpt><trkpt lat="48.43014958525822" lon="-4.05450682033304"><ele>131.0</ele><time>2026-03-22T11:25:46Z</time></trkpt><trkpt lat="48.42998775183691" lon="-4.0545826083231375"><ele>130.0</ele><time>2026-03-22T11:25:47Z</time></trkpt><trkpt lat="48.42984264129919" lon="-4.054662319566847"><ele>129.0</ele><time>2026-03-22T11:25:48Z</time></trkpt><trkpt lat="48.429698169588306" lon="-4.054724435822578"><ele>129.33333333333334</ele><time>2026-03-22T11:25:49Z</time></trkpt><trkpt lat="48.42956725864448" lon="-4.0547530415390485"><ele>129.66666666666669</ele><time>2026-03-22T11:25:50Z</time></trkpt><trkpt lat="48.42941643743557" lon="-4.054837481748518"><ele>130.0</ele><time>2026-03-22T11:25:51Z</time></trkpt><trkpt lat="48.42925800788676" lon="-4.0548749949515495"><ele>130.0</ele><time>2026-03-22T11:25:52Z</time></trkpt><trkpt lat="48.4290939533148" lon="-4.054938811728897"><ele>130.0</ele><time>2026-03-22T11:25:53Z</time></trkpt><trkpt lat="48.428911996268155" lon="-4.054994697512497"><ele>130.0</ele><time>2026-03-22T11:25:54Z</time></trkpt><trkpt lat="48.42872864649181" lon="-4.055051011053735"><ele>131.0</ele><time>2026-03-22T11:25:55Z</time></trkpt><trkpt lat="48.4285581808083" lon="-4.055102081440342"><ele>132.0</ele><time>2026-03-22T11:25:56Z</time></trkpt><trkpt lat="48.42840816036757" lon="-4.055123679981372"><ele>133.0</ele><time>2026-03-22T11:25:57Z</time></trkpt><trkpt lat="48.42826876640254" lon="-4.055101374022272"><ele>133.0</ele><time>2026-03-22T11:25:58Z</time></trkpt><trkpt lat="48.42813043622403" lon="-4.055075157242786"><ele>133.0</ele><time>2026-03-22T11:25:59Z</time></trkpt><trkpt lat="48.4280113656355" lon="-4.055094324396986"><ele>133.0</ele><time>2026-03-22T11:26:00Z</time></trkpt><trkpt lat="48.42790788789211" lon="-4.055103065850737"><ele>133.0</ele><time>2026-03-22T11:26:01Z</time></trkpt><trkpt lat="48.42783049272894" lon="-4.055112538516213"><ele>133.0</ele><time>2026-03-22T11:26:02Z</time></trkpt><trkpt lat="48.42777435961481" lon="-4.055174109539899"><ele>134.25</ele><time>2026-03-22T11:26:04Z</time></trkpt><trkpt lat="48.427699212872454" lon="-4.055327156759043"><ele>135.5</ele><time>2026-03-22T11:26:06Z</time></trkpt><trkpt lat="48.427590918109416" lon="-4.055374288907877"><ele>136.75</ele><time>2026-03-22T11:26:07Z</time></trkpt><trkpt lat="48.42747592282349" lon="-4.055395461763647"><ele>138.0</ele><time>2026-03-22T11:26:08Z</time></trkpt><trkpt lat="48.42734533031925" lon="-4.055394485966002"><ele>138.0</ele><time>2026-03-22T11:26:09Z</time></trkpt><trkpt lat="48.427207025054024" lon="-4.05541041452709"><ele>138.0</ele><time>2026-03-22T11:26:10Z</time></trkpt><trkpt lat="48.42705521810853" lon="-4.055438139097288"><ele>138.0</ele><time>2026-03-22T11:26:11Z</time></trkpt><trkpt lat="48.42694077435795" lon="-4.055450572479144"><ele>138.0</ele><time>2026-03-22T11:26:12Z</time></trkpt><trkpt lat="48.426818222959795" lon="-4.055429790980516"><ele>139.0</ele><time>2026-03-22T11:26:13Z</time></trkpt><trkpt lat="48.426693198852305" lon="-4.055370633550334"><ele>140.0</ele><time>2026-03-22T11:26:14Z</time></trkpt><trkpt lat="48.42656390274784" lon="-4.055307017837687"><ele>141.0</ele><time>2026-03-22T11:26:15Z</time></trkpt><trkpt lat="48.426428087488496" lon="-4.055233750133793"><ele>142.0</ele><time>2026-03-22T11:26:16Z</time></trkpt><trkpt lat="48.426291978997895" lon="-4.055145021822567"><ele>142.66666666666669</ele><time>2026-03-22T11:26:17Z</time></trkpt><trkpt lat="48.42615973706462" lon="-4.0550195715173745"><ele>143.33333333333334</ele><time>2026-03-22T11:26:18Z</time></trkpt><trkpt lat="48.42603110518679" lon="-4.054888880641222"><ele>144.0</ele><time>2026-03-22T11:26:19Z</time></trkpt><trkpt lat="48.4259004307703" lon="-4.054786670220325"><ele>144.0</ele><time>2026-03-22T11:26:20Z</time></trkpt><trkpt lat="48.42576375717834" lon="-4.054701501143253"><ele>144.0</ele><time>2026-03-22T11:26:21Z</time></trkpt><trkpt lat="48.425626008153635" lon="-4.054629850459663"><ele>144.0</ele><time>2026-03-22T11:26:22Z</time></trkpt><trkpt lat="48.42549070096701" lon="-4.054561583995084"><ele>144.0</ele><time>2026-03-22T11:26:23Z</time></trkpt><trkpt lat="48.425354509262725" lon="-4.054519461952961"><ele>144.25</ele><time>2026-03-22T11:26:24Z</time></trkpt><trkpt lat="48.42520958919096" lon="-4.054503089694621"><ele>144.5</ele><time>2026-03-22T11:26:25Z</time></trkpt><trkpt lat="48.425055598011404" lon="-4.054489678328763"><ele>144.75</ele><time>2026-03-22T11:26:26Z</time></trkpt><trkpt lat="48.4249083430541" lon="-4.054479666015872"><ele>145.0</ele><time>2026-03-22T11:26:27Z</time></trkpt><trkpt lat="48.42476949230199" lon="-4.054462972102657"><ele>144.5</ele><time>2026-03-22T11:26:28Z</time></trkpt><trkpt lat="48.42461789567692" lon="-4.054455525032717"><ele>144.0</ele><time>2026-03-22T11:26:29Z</time></trkpt><trkpt lat="48.42448192922679" lon="-4.054445056269667"><ele>143.5</ele><time>2026-03-22T11:26:30Z</time></trkpt><trkpt lat="48.424352577611586" lon="-4.054429461052948"><ele>143.0</ele><time>2026-03-22T11:26:31Z</time></trkpt><trkpt lat="48.42422642866805" lon="-4.054412376739099"><ele>143.0</ele><time>2026-03-22T11:26:32Z</time></trkpt><trkpt lat="48.42411158430025" lon="-4.05439446358125"><ele>143.0</ele><time>2026-03-22T11:26:33Z</time></trkpt><trkpt lat="48.42399959237405" lon="-4.054380591268184"><ele>143.0</ele><time>2026-03-22T11:26:34Z</time></trkpt><trkpt lat="48.42388769548359" lon="-4.054358399274441"><ele>143.0</ele><time>2026-03-22T11:26:35Z</time></trkpt><trkpt lat="48.423789409385975" lon="-4.054349489376047"><ele>143.0</ele><time>2026-03-22T11:26:36Z</time></trkpt><trkpt lat="48.42370706259189" lon="-4.054346673789658"><ele>142.5</ele><time>2026-03-22T11:26:36.999Z</time></trkpt><trkpt lat="48.42361386455527" lon="-4.054342861523362"><ele>142.0</ele><time>2026-03-22T11:26:37.999Z</time></trkpt><trkpt lat="48.423544453835554" lon="-4.05434015662164"><ele>141.5</ele><time>2026-03-22T11:26:38.999Z</time></trkpt><trkpt lat="48.423445110099095" lon="-4.054343384081034"><ele>141.0</ele><time>2026-03-22T11:26:40.999Z</time></trkpt><trkpt lat="48.423387085641735" lon="-4.054637346411697"><ele>141.0</ele><time>2026-03-22T11:26:42.999Z</time></trkpt><trkpt lat="48.42330553707533" lon="-4.054762110686699"><ele>141.0</ele><time>2026-03-22T11:26:43.999Z</time></trkpt><trkpt lat="48.423237068834766" lon="-4.054902585889585"><ele>141.0</ele><time>2026-03-22T11:26:44.999Z</time></trkpt><trkpt lat="48.423180187567574" lon="-4.05505904296058"><ele>141.0</ele><time>2026-03-22T11:26:45.999Z</time></trkpt><trkpt lat="48.423113844482565" lon="-4.055179611036377"><ele>141.0</ele><time>2026-03-22T11:26:46.999Z</time></trkpt><trkpt lat="48.42304535895903" lon="-4.055284562856996"><ele>141.0</ele><time>2026-03-22T11:26:47.999Z</time></trkpt><trkpt lat="48.422970246890436" lon="-4.055377180667662"><ele>141.0</ele><time>2026-03-22T11:26:48.999Z</time></trkpt><trkpt lat="48.42290713664471" lon="-4.055462925754221"><ele>141.0</ele><time>2026-03-22T11:26:49.999Z</time></trkpt><trkpt lat="48.42288110358231" lon="-4.055581189831147"><ele>141.0</ele><time>2026-03-22T11:26:50.999Z</time></trkpt><trkpt lat="48.422882977799475" lon="-4.055697069865317"><ele>141.0</ele><time>2026-03-22T11:26:51.999Z</time></trkpt><trkpt lat="48.42277491177081" lon="-4.055838911053252"><ele>141.0</ele><time>2026-03-22T11:26:53.999Z</time></trkpt><trkpt lat="48.42271502214363" lon="-4.055948743986418"><ele>141.0</ele><time>2026-03-22T11:26:54.999Z</time></trkpt><trkpt lat="48.42265993761731" lon="-4.0560282766096165"><ele>141.0</ele><time>2026-03-22T11:26:55.999Z</time></trkpt><trkpt lat="48.42258075917692" lon="-4.056116482452304"><ele>141.0</ele><time>2026-03-22T11:26:56.999Z</time></trkpt><trkpt lat="48.42249093023285" lon="-4.056209121323562"><ele>141.0</ele><time>2026-03-22T11:26:57.999Z</time></trkpt><trkpt lat="48.42241486464146" lon="-4.056307030599029"><ele>141.0</ele><time>2026-03-22T11:26:58.999Z</time></trkpt><trkpt lat="48.42234776771498" lon="-4.056395388434264"><ele>141.0</ele><time>2026-03-22T11:26:59.999Z</time></trkpt><trkpt lat="48.422261891148345" lon="-4.0565084724502265"><ele>141.0</ele><time>2026-03-22T11:27:00.999Z</time></trkpt><trkpt lat="48.42218456538501" lon="-4.056610296594308"><ele>141.0</ele><time>2026-03-22T11:27:01.999Z</time></trkpt><trkpt lat="48.42215358228007" lon="-4.0567558402363675"><ele>141.0</ele><time>2026-03-22T11:27:02.999Z</time></trkpt><trkpt lat="48.42207487854242" lon="-4.05684062980607"><ele>140.4</ele><time>2026-03-22T11:27:03.999Z</time></trkpt><trkpt lat="48.421985962805074" lon="-4.056958784880908"><ele>139.8</ele><time>2026-03-22T11:27:04.999Z</time></trkpt><trkpt lat="48.421917856346305" lon="-4.05706099912552"><ele>139.20000000000002</ele><time>2026-03-22T11:27:05.999Z</time></trkpt><trkpt lat="48.42183489967143" lon="-4.057154298046767"><ele>138.6</ele><time>2026-03-22T11:27:06.999Z</time></trkpt><trkpt lat="48.42174886331828" lon="-4.057253282246237"><ele>138.0</ele><time>2026-03-22T11:27:07.999Z</time></trkpt><trkpt lat="48.4216332588604" lon="-4.057398489114432"><ele>138.5</ele><time>2026-03-22T11:27:08.999Z</time></trkpt><trkpt lat="48.42151464873167" lon="-4.0575053033091555"><ele>139.0</ele><time>2026-03-22T11:27:09.999Z</time></trkpt><trkpt lat="48.421394532712824" lon="-4.057608005617381"><ele>139.5</ele><time>2026-03-22T11:27:10.999Z</time></trkpt><trkpt lat="48.4212976563174" lon="-4.057716940539184"><ele>140.0</ele><time>2026-03-22T11:27:12Z</time></trkpt><trkpt lat="48.42123661684817" lon="-4.057804494535159"><ele>139.16666666666666</ele><time>2026-03-22T11:27:13Z</time></trkpt><trkpt lat="48.42117176219086" lon="-4.0578836931494955"><ele>138.33333333333331</ele><time>2026-03-22T11:27:14Z</time></trkpt><trkpt lat="48.42111693877979" lon="-4.057957914101863"><ele>137.5</ele><time>2026-03-22T11:27:15Z</time></trkpt><trkpt lat="48.42105105635842" lon="-4.058026849714235"><ele>136.66666666666666</ele><time>2026-03-22T11:27:16Z</time></trkpt><trkpt lat="48.42097185485302" lon="-4.058094431961763"><ele>135.83333333333334</ele><time>2026-03-22T11:27:17Z</time></trkpt><trkpt lat="48.420899739248455" lon="-4.058176773779592"><ele>135.0</ele><time>2026-03-22T11:27:18Z</time></trkpt><trkpt lat="48.42083830390986" lon="-4.058240803478249"><ele>134.66666666666666</ele><time>2026-03-22T11:27:19Z</time></trkpt><trkpt lat="48.42077343523055" lon="-4.058313245167494"><ele>134.33333333333334</ele><time>2026-03-22T11:27:20Z</time></trkpt><trkpt lat="48.420713688080546" lon="-4.0583843881241695"><ele>134.0</ele><time>2026-03-22T11:27:21Z</time></trkpt><trkpt lat="48.42064553473066" lon="-4.058523352695766"><ele>133.66666666666669</ele><time>2026-03-22T11:27:23Z</time></trkpt><trkpt lat="48.42059497924736" lon="-4.058588224723029"><ele>133.33333333333334</ele><time>2026-03-22T11:27:24Z</time></trkpt><trkpt lat="48.42051882613609" lon="-4.058698052123689"><ele>133.0</ele><time>2026-03-22T11:27:25Z</time></trkpt><trkpt lat="48.42043577628082" lon="-4.058808174163671"><ele>133.0</ele><time>2026-03-22T11:27:26Z</time></trkpt><trkpt lat="48.4203571807269" lon="-4.058934524673235"><ele>133.0</ele><time>2026-03-22T11:27:27Z</time></trkpt><trkpt lat="48.420262058008184" lon="-4.0590560140189815"><ele>133.0</ele><time>2026-03-22T11:27:28Z</time></trkpt><trkpt lat="48.420166248819065" lon="-4.059206446689855"><ele>133.0</ele><time>2026-03-22T11:27:29Z</time></trkpt><trkpt lat="48.42008682431204" lon="-4.059326621992997"><ele>134.75</ele><time>2026-03-22T11:27:30Z</time></trkpt><trkpt lat="48.420029319729764" lon="-4.0594292464015"><ele>136.5</ele><time>2026-03-22T11:27:31Z</time></trkpt><trkpt lat="48.41995045698832" lon="-4.059530300113118"><ele>138.25</ele><time>2026-03-22T11:27:32Z</time></trkpt><trkpt lat="48.41984744881696" lon="-4.059623497687092"><ele>140.0</ele><time>2026-03-22T11:27:33Z</time></trkpt><trkpt lat="48.41970909779675" lon="-4.0597026783113295"><ele>140.8</ele><time>2026-03-22T11:27:34Z</time></trkpt><trkpt lat="48.41957951706686" lon="-4.059766001181303"><ele>141.6</ele><time>2026-03-22T11:27:35Z</time></trkpt><trkpt lat="48.41947488172654" lon="-4.059840204531878"><ele>142.4</ele><time>2026-03-22T11:27:36Z</time></trkpt><trkpt lat="48.41939696074875" lon="-4.059895529848317"><ele>143.2</ele><time>2026-03-22T11:27:37Z</time></trkpt><trkpt lat="48.4193058780903" lon="-4.059959046606017"><ele>144.0</ele><time>2026-03-22T11:27:38Z</time></trkpt><trkpt lat="48.4191997590316" lon="-4.060031137588887"><ele>144.0</ele><time>2026-03-22T11:27:39Z</time></trkpt><trkpt lat="48.419078668090854" lon="-4.060111315757166"><ele>144.0</ele><time>2026-03-22T11:27:40Z</time></trkpt><trkpt lat="48.41898802193269" lon="-4.060207721814097"><ele>144.0</ele><time>2026-03-22T11:27:41Z</time></trkpt><trkpt lat="48.418917511712074" lon="-4.060290659856544"><ele>144.0</ele><time>2026-03-22T11:27:42Z</time></trkpt><trkpt lat="48.41881222760067" lon="-4.060369429342216"><ele>142.8</ele><time>2026-03-22T11:27:43Z</time></trkpt><trkpt lat="48.418710082838956" lon="-4.060435656712273"><ele>141.60000000000002</ele><time>2026-03-22T11:27:44Z</time></trkpt><trkpt lat="48.41861621122224" lon="-4.06051305111195"><ele>140.4</ele><time>2026-03-22T11:27:45Z</time></trkpt><trkpt lat="48.41851074674695" lon="-4.060586267907445"><ele>139.20000000000002</ele><time>2026-03-22T11:27:46Z</time></trkpt><trkpt lat="48.41843592927586" lon="-4.060662025733816"><ele>138.0</ele><time>2026-03-22T11:27:47Z</time></trkpt><trkpt lat="48.418352045477725" lon="-4.060735516069226"><ele>139.0</ele><time>2026-03-22T11:27:48Z</time></trkpt><trkpt lat="48.418280912566516" lon="-4.060816085643658"><ele>140.0</ele><time>2026-03-22T11:27:49Z</time></trkpt><trkpt lat="48.41820139597766" lon="-4.060885601605017"><ele>141.0</ele><time>2026-03-22T11:27:50Z</time></trkpt><trkpt lat="48.418110576632344" lon="-4.060956049868169"><ele>142.0</ele><time>2026-03-22T11:27:51Z</time></trkpt><trkpt lat="48.418053357036925" lon="-4.061037834302094"><ele>143.0</ele><time>2026-03-22T11:27:52Z</time></trkpt><trkpt lat="48.417928889087676" lon="-4.061152345403675"><ele>143.0</ele><time>2026-03-22T11:27:54Z</time></trkpt><trkpt lat="48.41786978194817" lon="-4.0612155174354365"><ele>143.0</ele><time>2026-03-22T11:27:55Z</time></trkpt><trkpt lat="48.41777129329706" lon="-4.061318972778841"><ele>143.0</ele><time>2026-03-22T11:27:56Z</time></trkpt><trkpt lat="48.41766006874862" lon="-4.061416878872214"><ele>143.0</ele><time>2026-03-22T11:27:57Z</time></trkpt><trkpt lat="48.41758242590775" lon="-4.061494653365786"><ele>143.0</ele><time>2026-03-22T11:27:58Z</time></trkpt><trkpt lat="48.417510019702526" lon="-4.061585998435367"><ele>144.20000000000002</ele><time>2026-03-22T11:27:59Z</time></trkpt><trkpt lat="48.417442759960885" lon="-4.061695665558805"><ele>145.4</ele><time>2026-03-22T11:28:00Z</time></trkpt><trkpt lat="48.41736550156061" lon="-4.061794871138053"><ele>146.60000000000002</ele><time>2026-03-22T11:28:01Z</time></trkpt><trkpt lat="48.417295313703384" lon="-4.061869337408152"><ele>147.8</ele><time>2026-03-22T11:28:02Z</time></trkpt><trkpt lat="48.41723785439992" lon="-4.061945264121041"><ele>149.0</ele><time>2026-03-22T11:28:03Z</time></trkpt><trkpt lat="48.417160675457176" lon="-4.062022790471866"><ele>148.4</ele><time>2026-03-22T11:28:04Z</time></trkpt><trkpt lat="48.41707966714532" lon="-4.062095991976228"><ele>147.8</ele><time>2026-03-22T11:28:05Z</time></trkpt><trkpt lat="48.416986215065" lon="-4.062198450376746"><ele>147.2</ele><time>2026-03-22T11:28:06Z</time></trkpt><trkpt lat="48.416903945289114" lon="-4.062307598255164"><ele>146.6</ele><time>2026-03-22T11:28:07Z</time></trkpt><trkpt lat="48.41683870490565" lon="-4.062418535384289"><ele>146.0</ele><time>2026-03-22T11:28:08Z</time></trkpt><trkpt lat="48.41676297738807" lon="-4.062498795341488"><ele>147.2</ele><time>2026-03-22T11:28:09Z</time></trkpt><trkpt lat="48.41668912448008" lon="-4.062570716346532"><ele>148.39999999999998</ele><time>2026-03-22T11:28:10Z</time></trkpt><trkpt lat="48.41657910822304" lon="-4.062655071070924"><ele>149.6</ele><time>2026-03-22T11:28:11Z</time></trkpt><trkpt lat="48.41650208089419" lon="-4.06272571011473"><ele>150.79999999999998</ele><time>2026-03-22T11:28:12Z</time></trkpt><trkpt lat="48.41644632358797" lon="-4.06278468616578"><ele>152.0</ele><time>2026-03-22T11:28:13Z</time></trkpt><trkpt lat="48.41634661104026" lon="-4.062892174271655"><ele>150.79999999999998</ele><time>2026-03-22T11:28:15Z</time></trkpt><trkpt lat="48.41627070236419" lon="-4.062961186810388"><ele>149.6</ele><time>2026-03-22T11:28:16Z</time></trkpt><trkpt lat="48.416171582483514" lon="-4.063061555700493"><ele>148.39999999999998</ele><time>2026-03-22T11:28:17Z</time></trkpt><trkpt lat="48.41607811054823" lon="-4.063153758824338"><ele>147.2</ele><time>2026-03-22T11:28:18Z</time></trkpt><trkpt lat="48.415988149365866" lon="-4.063218167603502"><ele>146.0</ele><time>2026-03-22T11:28:19Z</time></trkpt><trkpt lat="48.41591887363481" lon="-4.063270348461904"><ele>147.4</ele><time>2026-03-22T11:28:20Z</time></trkpt><trkpt lat="48.415831431989616" lon="-4.063363771712267"><ele>148.8</ele><time>2026-03-22T11:28:21Z</time></trkpt><trkpt lat="48.41574177362267" lon="-4.063458023498055"><ele>150.20000000000002</ele><time>2026-03-22T11:28:22Z</time></trkpt><trkpt lat="48.415667559505614" lon="-4.063539405696038"><ele>151.6</ele><time>2026-03-22T11:28:23Z</time></trkpt><trkpt lat="48.41557839967991" lon="-4.063613631664609"><ele>153.0</ele><time>2026-03-22T11:28:25Z</time></trkpt><trkpt lat="48.41552658658513" lon="-4.063713970085048"><ele>153.5</ele><time>2026-03-22T11:28:27Z</time></trkpt><trkpt lat="48.415432598698274" lon="-4.0638197271181165"><ele>154.0</ele><time>2026-03-22T11:28:29Z</time></trkpt><trkpt lat="48.41537794355109" lon="-4.063893843642935"><ele>154.5</ele><time>2026-03-22T11:28:30Z</time></trkpt><trkpt lat="48.415318095831125" lon="-4.063936825902875"><ele>155.0</ele><time>2026-03-22T11:28:31Z</time></trkpt><trkpt lat="48.41526140462015" lon="-4.063981800049914"><ele>155.5</ele><time>2026-03-22T11:28:32Z</time></trkpt><trkpt lat="48.41519654534731" lon="-4.064048984937562"><ele>156.0</ele><time>2026-03-22T11:28:33Z</time></trkpt><trkpt lat="48.41510812537831" lon="-4.064124068180606"><ele>156.0</ele><time>2026-03-22T11:28:34Z</time></trkpt><trkpt lat="48.41502766035357" lon="-4.064207047860681"><ele>156.0</ele><time>2026-03-22T11:28:35Z</time></trkpt><trkpt lat="48.41493160838096" lon="-4.0642896844635406"><ele>156.0</ele><time>2026-03-22T11:28:36Z</time></trkpt><trkpt lat="48.41482371253688" lon="-4.064369312796472"><ele>156.0</ele><time>2026-03-22T11:28:37Z</time></trkpt><trkpt lat="48.414724332027895" lon="-4.064442405851894"><ele>156.0</ele><time>2026-03-22T11:28:38Z</time></trkpt><trkpt lat="48.41462687362893" lon="-4.064484991295863"><ele>153.75</ele><time>2026-03-22T11:28:39Z</time></trkpt><trkpt lat="48.41453857292636" lon="-4.064558503776968"><ele>151.5</ele><time>2026-03-22T11:28:40Z</time></trkpt><trkpt lat="48.41444881098088" lon="-4.064644627237084"><ele>149.25</ele><time>2026-03-22T11:28:41Z</time></trkpt><trkpt lat="48.41435861558988" lon="-4.0647503772030875"><ele>147.0</ele><time>2026-03-22T11:28:42Z</time></trkpt><trkpt lat="48.414259572602056" lon="-4.064873946000699"><ele>146.25</ele><time>2026-03-22T11:28:43Z</time></trkpt><trkpt lat="48.414142800039315" lon="-4.064987621473316"><ele>145.5</ele><time>2026-03-22T11:28:44Z</time></trkpt><trkpt lat="48.414029201271696" lon="-4.065100504503356"><ele>144.75</ele><time>2026-03-22T11:28:45Z</time></trkpt><trkpt lat="48.413906790181855" lon="-4.065186235338626"><ele>144.0</ele><time>2026-03-22T11:28:46Z</time></trkpt><trkpt lat="48.41381025630786" lon="-4.065301398382057"><ele>144.0</ele><time>2026-03-22T11:28:47Z</time></trkpt><trkpt lat="48.41367132097615" lon="-4.065420746082402"><ele>144.0</ele><time>2026-03-22T11:28:48Z</time></trkpt><trkpt lat="48.413541169317895" lon="-4.065524106679328"><ele>144.0</ele><time>2026-03-22T11:28:49Z</time></trkpt><trkpt lat="48.41340980211837" lon="-4.065633193038703"><ele>144.0</ele><time>2026-03-22T11:28:50Z</time></trkpt><trkpt lat="48.41329222024956" lon="-4.065742267974231"><ele>144.0</ele><time>2026-03-22T11:28:51Z</time></trkpt><trkpt lat="48.413166784106615" lon="-4.065841948644689"><ele>144.0</ele><time>2026-03-22T11:28:52Z</time></trkpt><trkpt lat="48.41305512427923" lon="-4.06592408553023"><ele>144.0</ele><time>2026-03-22T11:28:52.999Z</time></trkpt><trkpt lat="48.41294085654545" lon="-4.065990474824497"><ele>142.25</ele><time>2026-03-22T11:28:53.999Z</time></trkpt><trkpt lat="48.412820740651334" lon="-4.0660645777522975"><ele>140.5</ele><time>2026-03-22T11:28:54.999Z</time></trkpt><trkpt lat="48.4127060417029" lon="-4.066172190506651"><ele>138.75</ele><time>2026-03-22T11:28:55.999Z</time></trkpt><trkpt lat="48.412588699147356" lon="-4.066275573034068"><ele>137.0</ele><time>2026-03-22T11:28:56.999Z</time></trkpt><trkpt lat="48.41248552663994" lon="-4.0663555533806495"><ele>137.0</ele><time>2026-03-22T11:28:57.999Z</time></trkpt><trkpt lat="48.41237489032086" lon="-4.066486747077806"><ele>137.0</ele><time>2026-03-22T11:28:58.999Z</time></trkpt><trkpt lat="48.412278017704594" lon="-4.066618252632009"><ele>137.0</ele><time>2026-03-22T11:28:59.999Z</time></trkpt><trkpt lat="48.41217193744838" lon="-4.066727267394149"><ele>137.0</ele><time>2026-03-22T11:29:00.999Z</time></trkpt><trkpt lat="48.41207868761275" lon="-4.066777714823072"><ele>134.75</ele><time>2026-03-22T11:29:01.999Z</time></trkpt><trkpt lat="48.41198577303105" lon="-4.066875723473496"><ele>132.5</ele><time>2026-03-22T11:29:02.999Z</time></trkpt><trkpt lat="48.411908463443744" lon="-4.067017249270413"><ele>130.25</ele><time>2026-03-22T11:29:03.999Z</time></trkpt><trkpt lat="48.41180481676732" lon="-4.067147474920988"><ele>128.0</ele><time>2026-03-22T11:29:04.999Z</time></trkpt><trkpt lat="48.411679774804114" lon="-4.067271193131947"><ele>128.0</ele><time>2026-03-22T11:29:05.999Z</time></trkpt><trkpt lat="48.41156271233503" lon="-4.067423564054344"><ele>128.0</ele><time>2026-03-22T11:29:06.999Z</time></trkpt><trkpt lat="48.41146462521613" lon="-4.067534162660857"><ele>128.0</ele><time>2026-03-22T11:29:07.999Z</time></trkpt><trkpt lat="48.41136409366354" lon="-4.067654749395996"><ele>128.0</ele><time>2026-03-22T11:29:08.999Z</time></trkpt><trkpt lat="48.41128353189603" lon="-4.067774447371214"><ele>126.0</ele><time>2026-03-22T11:29:09.999Z</time></trkpt><trkpt lat="48.41118792929255" lon="-4.067889587485524"><ele>124.0</ele><time>2026-03-22T11:29:10.999Z</time></trkpt><trkpt lat="48.41110175047634" lon="-4.068014069722482"><ele>122.0</ele><time>2026-03-22T11:29:11.999Z</time></trkpt><trkpt lat="48.410995379150435" lon="-4.068132301245206"><ele>120.0</ele><time>2026-03-22T11:29:12.999Z</time></trkpt><trkpt lat="48.41090943237318" lon="-4.0682440360409045"><ele>119.0</ele><time>2026-03-22T11:29:13.999Z</time></trkpt><trkpt lat="48.410815860279236" lon="-4.0683506422487445"><ele>118.0</ele><time>2026-03-22T11:29:14.999Z</time></trkpt><trkpt lat="48.410727226098544" lon="-4.06845552890974"><ele>117.0</ele><time>2026-03-22T11:29:15.999Z</time></trkpt><trkpt lat="48.41064785173934" lon="-4.068541498095921"><ele>116.0</ele><time>2026-03-22T11:29:16.999Z</time></trkpt><trkpt lat="48.41056962012667" lon="-4.068655481594515"><ele>115.0</ele><time>2026-03-22T11:29:18.001Z</time></trkpt><trkpt lat="48.41049603063444" lon="-4.068780185777733"><ele>113.5</ele><time>2026-03-22T11:29:19.001Z</time></trkpt><trkpt lat="48.41040056373564" lon="-4.068910807852785"><ele>112.0</ele><time>2026-03-22T11:29:20.001Z</time></trkpt><trkpt lat="48.4102958511956" lon="-4.069025773956698"><ele>110.5</ele><time>2026-03-22T11:29:21.001Z</time></trkpt><trkpt lat="48.410194879624875" lon="-4.0691186590403055"><ele>109.0</ele><time>2026-03-22T11:29:22.001Z</time></trkpt><trkpt lat="48.41009003999148" lon="-4.069203913618519"><ele>107.25</ele><time>2026-03-22T11:29:23.001Z</time></trkpt><trkpt lat="48.40997400137139" lon="-4.069302935130469"><ele>105.5</ele><time>2026-03-22T11:29:24.001Z</time></trkpt><trkpt lat="48.40987796751711" lon="-4.069419399207605"><ele>103.75</ele><time>2026-03-22T11:29:25.001Z</time></trkpt><trkpt lat="48.40979582240738" lon="-4.069503300104"><ele>102.0</ele><time>2026-03-22T11:29:26.001Z</time></trkpt><trkpt lat="48.40970902376149" lon="-4.069611148147108"><ele>101.5</ele><time>2026-03-22T11:29:27.001Z</time></trkpt><trkpt lat="48.409629645616654" lon="-4.069692896127433"><ele>101.0</ele><time>2026-03-22T11:29:28Z</time></trkpt><trkpt lat="48.4095705691725" lon="-4.069734287247404"><ele>100.5</ele><time>2026-03-22T11:29:29Z</time></trkpt><trkpt lat="48.40948713001198" lon="-4.069791619058697"><ele>100.0</ele><time>2026-03-22T11:29:31Z</time></trkpt><trkpt lat="48.40946618318963" lon="-4.069938300964041"><ele>99.5</ele><time>2026-03-22T11:29:33Z</time></trkpt><trkpt lat="48.40941407373734" lon="-4.070046846279439"><ele>99.0</ele><time>2026-03-22T11:29:48Z</time></trkpt><trkpt lat="48.409373279106354" lon="-4.070131822441537"><ele>98.4</ele><time>2026-03-22T11:29:49Z</time></trkpt><trkpt lat="48.40932476347491" lon="-4.070225965028851"><ele>97.80000000000001</ele><time>2026-03-22T11:29:50Z</time></trkpt><trkpt lat="48.40926395880407" lon="-4.070334823567389"><ele>97.19999999999999</ele><time>2026-03-22T11:29:51Z</time></trkpt><trkpt lat="48.40918987977742" lon="-4.070462250007639"><ele>96.6</ele><time>2026-03-22T11:29:52Z</time></trkpt><trkpt lat="48.409098778247326" lon="-4.070591260941383"><ele>96.0</ele><time>2026-03-22T11:29:53Z</time></trkpt><trkpt lat="48.40902344495578" lon="-4.07076413519901"><ele>95.75</ele><time>2026-03-22T11:29:54Z</time></trkpt><trkpt lat="48.40895240951546" lon="-4.070951814208446"><ele>95.5</ele><time>2026-03-22T11:29:55Z</time></trkpt><trkpt lat="48.408883293867625" lon="-4.071151768037327"><ele>95.25</ele><time>2026-03-22T11:29:56Z</time></trkpt><trkpt lat="48.40881618099865" lon="-4.071355963544701"><ele>95.0</ele><time>2026-03-22T11:29:57Z</time></trkpt><trkpt lat="48.40875368892179" lon="-4.071551283346178"><ele>96.0</ele><time>2026-03-22T11:29:58Z</time></trkpt><trkpt lat="48.408676820095415" lon="-4.07174385074431"><ele>97.0</ele><time>2026-03-22T11:29:59Z</time></trkpt><trkpt lat="48.40859380886695" lon="-4.071925506585759"><ele>98.0</ele><time>2026-03-22T11:30:00Z</time></trkpt><trkpt lat="48.40852379180105" lon="-4.072125412993555"><ele>99.0</ele><time>2026-03-22T11:30:01Z</time></trkpt><trkpt lat="48.408437289117934" lon="-4.072314166905384"><ele>98.0</ele><time>2026-03-22T11:30:02Z</time></trkpt><trkpt lat="48.408346704241254" lon="-4.072506603452417"><ele>97.0</ele><time>2026-03-22T11:30:03Z</time></trkpt><trkpt lat="48.408249804036906" lon="-4.072684584317311"><ele>96.0</ele><time>2026-03-22T11:30:04Z</time></trkpt><trkpt lat="48.4081471283983" lon="-4.072855975967763"><ele>96.0</ele><time>2026-03-22T11:30:05Z</time></trkpt><trkpt lat="48.40805506964338" lon="-4.07300925397851"><ele>96.0</ele><time>2026-03-22T11:30:06Z</time></trkpt><trkpt lat="48.4079712944459" lon="-4.073139747985221"><ele>96.0</ele><time>2026-03-22T11:30:07Z</time></trkpt><trkpt lat="48.40790179987435" lon="-4.073264588761574"><ele>96.0</ele><time>2026-03-22T11:30:08Z</time></trkpt><trkpt lat="48.40783690586387" lon="-4.07338746651447"><ele>96.6</ele><time>2026-03-22T11:30:09Z</time></trkpt><trkpt lat="48.4077829227417" lon="-4.073511897105312"><ele>97.19999999999999</ele><time>2026-03-22T11:30:10Z</time></trkpt><trkpt lat="48.40774190251598" lon="-4.073637917898916"><ele>97.80000000000001</ele><time>2026-03-22T11:30:11Z</time></trkpt><trkpt lat="48.40769886730487" lon="-4.073752506121321"><ele>98.4</ele><time>2026-03-22T11:30:12Z</time></trkpt><trkpt lat="48.407652456064014" lon="-4.073877041785007"><ele>99.0</ele><time>2026-03-22T11:30:13Z</time></trkpt><trkpt lat="48.40760756645403" lon="-4.073997494802002"><ele>98.5</ele><time>2026-03-22T11:30:14Z</time></trkpt><trkpt lat="48.40756490364172" lon="-4.074128810553259"><ele>98.0</ele><time>2026-03-22T11:30:15Z</time></trkpt><trkpt lat="48.40751378599134" lon="-4.074281270875757"><ele>97.5</ele><time>2026-03-22T11:30:16Z</time></trkpt><trkpt lat="48.40745732720098" lon="-4.074443092254343"><ele>97.0</ele><time>2026-03-22T11:30:17Z</time></trkpt><trkpt lat="48.40739679874852" lon="-4.074622086649676"><ele>97.0</ele><time>2026-03-22T11:30:18Z</time></trkpt><trkpt lat="48.40734524589345" lon="-4.074793007889516"><ele>97.0</ele><time>2026-03-22T11:30:19Z</time></trkpt><trkpt lat="48.40729701625163" lon="-4.074965373075225"><ele>97.0</ele><time>2026-03-22T11:30:20Z</time></trkpt><trkpt lat="48.40724873087965" lon="-4.075137899172832"><ele>97.0</ele><time>2026-03-22T11:30:21Z</time></trkpt><trkpt lat="48.40719802563017" lon="-4.075311805252653"><ele>98.5</ele><time>2026-03-22T11:30:22Z</time></trkpt><trkpt lat="48.407140944180874" lon="-4.075486647216375"><ele>100.0</ele><time>2026-03-22T11:30:23Z</time></trkpt><trkpt lat="48.40708089102596" lon="-4.075656993007257"><ele>101.5</ele><time>2026-03-22T11:30:24Z</time></trkpt><trkpt lat="48.40702293063073" lon="-4.075818749965285"><ele>103.0</ele><time>2026-03-22T11:30:25Z</time></trkpt><trkpt lat="48.406963403455556" lon="-4.075979654280696"><ele>103.0</ele><time>2026-03-22T11:30:26Z</time></trkpt><trkpt lat="48.406915020463245" lon="-4.07611062688"><ele>103.0</ele><time>2026-03-22T11:30:27Z</time></trkpt><trkpt lat="48.406883231633856" lon="-4.0762339369298015"><ele>103.0</ele><time>2026-03-22T11:30:28Z</time></trkpt><trkpt lat="48.40686013381428" lon="-4.076378250735651"><ele>103.0</ele><time>2026-03-22T11:30:29Z</time></trkpt><trkpt lat="48.406839222970206" lon="-4.076537498747195"><ele>103.0</ele><time>2026-03-22T11:30:30Z</time></trkpt><trkpt lat="48.40681322248205" lon="-4.076694928937874"><ele>103.60000000000001</ele><time>2026-03-22T11:30:31Z</time></trkpt><trkpt lat="48.406785520663625" lon="-4.076826898973071"><ele>104.2</ele><time>2026-03-22T11:30:32Z</time></trkpt><trkpt lat="48.406757732945714" lon="-4.076945402101045"><ele>104.8</ele><time>2026-03-22T11:30:33Z</time></trkpt><trkpt lat="48.40673070365091" lon="-4.077095437509"><ele>105.4</ele><time>2026-03-22T11:30:35Z</time></trkpt><trkpt lat="48.40684742999541" lon="-4.077073286401633"><ele>106.0</ele><time>2026-03-22T11:30:37Z</time></trkpt><trkpt lat="48.40692693499836" lon="-4.077069729424491"><ele>106.0</ele><time>2026-03-22T11:30:38Z</time></trkpt><trkpt lat="48.40701634569427" lon="-4.077067161234237"><ele>106.0</ele><time>2026-03-22T11:30:39Z</time></trkpt><trkpt lat="48.407118922373485" lon="-4.077066966564629"><ele>106.0</ele><time>2026-03-22T11:30:40Z</time></trkpt><trkpt lat="48.40722072570039" lon="-4.077066966564544"><ele>106.0</ele><time>2026-03-22T11:30:41Z</time></trkpt><trkpt lat="48.40734250932446" lon="-4.077066966561995"><ele>106.0</ele><time>2026-03-22T11:30:42Z</time></trkpt><trkpt lat="48.40746911236266" lon="-4.077071918167359"><ele>105.25</ele><time>2026-03-22T11:30:43Z</time></trkpt><trkpt lat="48.4076041512405" lon="-4.077087029919197"><ele>104.5</ele><time>2026-03-22T11:30:44Z</time></trkpt><trkpt lat="48.407735791256314" lon="-4.077103377710281"><ele>103.75</ele><time>2026-03-22T11:30:45Z</time></trkpt><trkpt lat="48.40787985858525" lon="-4.077121132349586"><ele>103.0</ele><time>2026-03-22T11:30:46Z</time></trkpt><trkpt lat="48.40801389582573" lon="-4.077137920093109"><ele>102.5</ele><time>2026-03-22T11:30:47Z</time></trkpt><trkpt lat="48.408137710960354" lon="-4.077152631473608"><ele>102.0</ele><time>2026-03-22T11:30:48Z</time></trkpt><trkpt lat="48.408257114584835" lon="-4.077166818690388"><ele>101.5</ele><time>2026-03-22T11:30:49Z</time></trkpt><trkpt lat="48.408375355001986" lon="-4.077182040860492"><ele>101.0</ele><time>2026-03-22T11:30:50Z</time></trkpt><trkpt lat="48.408489292295954" lon="-4.077197305969067"><ele>101.0</ele><time>2026-03-22T11:30:51Z</time></trkpt><trkpt lat="48.408596551314545" lon="-4.07721167633407"><ele>101.0</ele><time>2026-03-22T11:30:52Z</time></trkpt><trkpt lat="48.40869361181794" lon="-4.077224680323062"><ele>101.0</ele><time>2026-03-22T11:30:53Z</time></trkpt><trkpt lat="48.408780248071885" lon="-4.077234334045559"><ele>101.0</ele><time>2026-03-22T11:30:54Z</time></trkpt><trkpt lat="48.408866673366525" lon="-4.077243564393314"><ele>101.0</ele><time>2026-03-22T11:30:55Z</time></trkpt><trkpt lat="48.4089497794611" lon="-4.07725244024226"><ele>100.19999999999999</ele><time>2026-03-22T11:30:55.999Z</time></trkpt><trkpt lat="48.40903225650241" lon="-4.077258516407196"><ele>99.39999999999999</ele><time>2026-03-22T11:30:56.999Z</time></trkpt><trkpt lat="48.409139888184185" lon="-4.077266576086741"><ele>98.6</ele><time>2026-03-22T11:30:57.999Z</time></trkpt><trkpt lat="48.409249526680235" lon="-4.077274805368519"><ele>97.8</ele><time>2026-03-22T11:30:58.999Z</time></trkpt><trkpt lat="48.40934989812231" lon="-4.077280902217104"><ele>97.0</ele><time>2026-03-22T11:30:59.999Z</time></trkpt><trkpt lat="48.4094527893118" lon="-4.077284271814425"><ele>97.0</ele><time>2026-03-22T11:31:00.999Z</time></trkpt><trkpt lat="48.40956365113745" lon="-4.07728613325736"><ele>97.0</ele><time>2026-03-22T11:31:01.999Z</time></trkpt><trkpt lat="48.4096913931084" lon="-4.077287179012091"><ele>97.0</ele><time>2026-03-22T11:31:02.999Z</time></trkpt><trkpt lat="48.40982183230621" lon="-4.077285161837336"><ele>97.0</ele><time>2026-03-22T11:31:03.999Z</time></trkpt><trkpt lat="48.40995163439597" lon="-4.0772837274638976"><ele>95.75</ele><time>2026-03-22T11:31:04.999Z</time></trkpt><trkpt lat="48.41008141466841" lon="-4.077281059166584"><ele>94.5</ele><time>2026-03-22T11:31:05.999Z</time></trkpt><trkpt lat="48.41020502957092" lon="-4.077276970526746"><ele>93.25</ele><time>2026-03-22T11:31:06.999Z</time></trkpt><trkpt lat="48.41031695388798" lon="-4.077273268562136"><ele>92.0</ele><time>2026-03-22T11:31:07.999Z</time></trkpt><trkpt lat="48.410417139186514" lon="-4.077269954871983"><ele>92.25</ele><time>2026-03-22T11:31:08.999Z</time></trkpt><trkpt lat="48.41050804494755" lon="-4.077266347209881"><ele>92.5</ele><time>2026-03-22T11:31:09.999Z</time></trkpt><trkpt lat="48.410583497330904" lon="-4.0772626203394315"><ele>92.75</ele><time>2026-03-22T11:31:10.999Z</time></trkpt><trkpt lat="48.410662492084825" lon="-4.0772546849151725"><ele>93.0</ele><time>2026-03-22T11:31:11.999Z</time></trkpt><trkpt lat="48.41073341598311" lon="-4.077583184468781"><ele>93.0</ele><time>2026-03-22T11:31:13.999Z</time></trkpt><trkpt lat="48.41072536091428" lon="-4.077704100926288"><ele>93.0</ele><time>2026-03-22T11:31:14.999Z</time></trkpt><trkpt lat="48.410733124924526" lon="-4.077866226770617"><ele>93.0</ele><time>2026-03-22T11:31:15.999Z</time></trkpt><trkpt lat="48.41071965854891" lon="-4.078039399507975"><ele>93.0</ele><time>2026-03-22T11:31:16.999Z</time></trkpt><trkpt lat="48.410699046474704" lon="-4.078217876401682"><ele>93.0</ele><time>2026-03-22T11:31:17.999Z</time></trkpt><trkpt lat="48.410640861503886" lon="-4.078390388496633"><ele>92.75</ele><time>2026-03-22T11:31:18.999Z</time></trkpt><trkpt lat="48.41056456720689" lon="-4.07856503166973"><ele>92.5</ele><time>2026-03-22T11:31:19.999Z</time></trkpt><trkpt lat="48.41049616713288" lon="-4.078758276385742"><ele>92.25</ele><time>2026-03-22T11:31:20.999Z</time></trkpt><trkpt lat="48.41045460393584" lon="-4.078961442021052"><ele>92.0</ele><time>2026-03-22T11:31:21.999Z</time></trkpt><trkpt lat="48.41045060680626" lon="-4.079175718788946"><ele>91.66666666666667</ele><time>2026-03-22T11:31:22.999Z</time></trkpt><trkpt lat="48.41047001705106" lon="-4.079402569100596"><ele>91.33333333333333</ele><time>2026-03-22T11:31:24Z</time></trkpt><trkpt lat="48.41049619424029" lon="-4.079643117074111"><ele>91.0</ele><time>2026-03-22T11:31:25Z</time></trkpt><trkpt lat="48.410523264008646" lon="-4.0798587523011"><ele>92.66666666666666</ele><time>2026-03-22T11:31:26Z</time></trkpt><trkpt lat="48.41057275772033" lon="-4.0800809539150755"><ele>94.33333333333333</ele><time>2026-03-22T11:31:27Z</time></trkpt><trkpt lat="48.41064201182445" lon="-4.080321163635201"><ele>96.0</ele><time>2026-03-22T11:31:28Z</time></trkpt><trkpt lat="48.41071252886427" lon="-4.080535195848414"><ele>96.0</ele><time>2026-03-22T11:31:29Z</time></trkpt><trkpt lat="48.41078503726815" lon="-4.080737939644318"><ele>96.0</ele><time>2026-03-22T11:31:30Z</time></trkpt><trkpt lat="48.41087623090224" lon="-4.080938588576808"><ele>96.0</ele><time>2026-03-22T11:31:31Z</time></trkpt><trkpt lat="48.41093664860609" lon="-4.081149902609241"><ele>94.75</ele><time>2026-03-22T11:31:32Z</time></trkpt><trkpt lat="48.41096661245813" lon="-4.081368710125889"><ele>93.5</ele><time>2026-03-22T11:31:33Z</time></trkpt><trkpt lat="48.41099502845827" lon="-4.081585250079175"><ele>92.25</ele><time>2026-03-22T11:31:34Z</time></trkpt><trkpt lat="48.411030764624485" lon="-4.081765047754324"><ele>91.0</ele><time>2026-03-22T11:31:35Z</time></trkpt><trkpt lat="48.411088814636656" lon="-4.081944847522867"><ele>89.66666666666666</ele><time>2026-03-22T11:31:36Z</time></trkpt><trkpt lat="48.411167120150175" lon="-4.082127374793006"><ele>88.33333333333333</ele><time>2026-03-22T11:31:37Z</time></trkpt><trkpt lat="48.41123556194298" lon="-4.082326907446944"><ele>87.0</ele><time>2026-03-22T11:31:38Z</time></trkpt><trkpt lat="48.411297197487585" lon="-4.082548403490978"><ele>87.25</ele><time>2026-03-22T11:31:39Z</time></trkpt><trkpt lat="48.411345681614506" lon="-4.082753086950788"><ele>87.5</ele><time>2026-03-22T11:31:40Z</time></trkpt><trkpt lat="48.4114042282515" lon="-4.082943288751775"><ele>87.75</ele><time>2026-03-22T11:31:41Z</time></trkpt><trkpt lat="48.41145443150212" lon="-4.083120423383496"><ele>88.0</ele><time>2026-03-22T11:31:42Z</time></trkpt><trkpt lat="48.411489855305405" lon="-4.08329624923824"><ele>88.0</ele><time>2026-03-22T11:31:43Z</time></trkpt><trkpt lat="48.411508686672825" lon="-4.0834903391764055"><ele>88.0</ele><time>2026-03-22T11:31:44Z</time></trkpt><trkpt lat="48.41149130958285" lon="-4.083672119906792"><ele>88.0</ele><time>2026-03-22T11:31:45Z</time></trkpt><trkpt lat="48.411450842354604" lon="-4.08383797186557"><ele>88.0</ele><time>2026-03-22T11:31:46Z</time></trkpt><trkpt lat="48.41134540210551" lon="-4.083986158608087"><ele>87.75</ele><time>2026-03-22T11:31:47Z</time></trkpt><trkpt lat="48.41126050419408" lon="-4.084139959762549"><ele>87.5</ele><time>2026-03-22T11:31:48Z</time></trkpt><trkpt lat="48.41122039647693" lon="-4.084319624253321"><ele>87.25</ele><time>2026-03-22T11:31:49Z</time></trkpt><trkpt lat="48.41123706725031" lon="-4.0845149325567744"><ele>87.0</ele><time>2026-03-22T11:31:50Z</time></trkpt><trkpt lat="48.41126982203188" lon="-4.084712719688658"><ele>87.0</ele><time>2026-03-22T11:31:51Z</time></trkpt><trkpt lat="48.41127962645328" lon="-4.084916565841437"><ele>87.0</ele><time>2026-03-22T11:31:52Z</time></trkpt><trkpt lat="48.411300357094305" lon="-4.085122320067903"><ele>87.0</ele><time>2026-03-22T11:31:53Z</time></trkpt><trkpt lat="48.41131411642552" lon="-4.085312907567596"><ele>87.0</ele><time>2026-03-22T11:31:54Z</time></trkpt><trkpt lat="48.41131263598508" lon="-4.085485752205878"><ele>86.8</ele><time>2026-03-22T11:31:55Z</time></trkpt><trkpt lat="48.411302139675364" lon="-4.085644947366266"><ele>86.6</ele><time>2026-03-22T11:31:56Z</time></trkpt><trkpt lat="48.411234713201495" lon="-4.085754379466763"><ele>86.39999999999999</ele><time>2026-03-22T11:31:57Z</time></trkpt><trkpt lat="48.41119097845152" lon="-4.08586953501538"><ele>86.19999999999999</ele><time>2026-03-22T11:31:58Z</time></trkpt><trkpt lat="48.41115460663422" lon="-4.085998654570337"><ele>86.0</ele><time>2026-03-22T11:31:59Z</time></trkpt><trkpt lat="48.41110208423305" lon="-4.0861268819530405"><ele>85.4</ele><time>2026-03-22T11:32:00Z</time></trkpt><trkpt lat="48.411019714853424" lon="-4.0862202500720315"><ele>84.8</ele><time>2026-03-22T11:32:01Z</time></trkpt><trkpt lat="48.41092344514598" lon="-4.086284547333544"><ele>84.2</ele><time>2026-03-22T11:32:02Z</time></trkpt><trkpt lat="48.410827385286105" lon="-4.0863136254148635"><ele>83.60000000000001</ele><time>2026-03-22T11:32:03Z</time></trkpt><trkpt lat="48.41074499887097" lon="-4.08636436857003"><ele>83.0</ele><time>2026-03-22T11:32:04Z</time></trkpt><trkpt lat="48.41068030351556" lon="-4.086437074141856"><ele>83.0</ele><time>2026-03-22T11:32:05Z</time></trkpt><trkpt lat="48.41061138489654" lon="-4.086505331792648"><ele>83.0</ele><time>2026-03-22T11:32:06Z</time></trkpt><trkpt lat="48.41058478403353" lon="-4.086630228763481"><ele>83.0</ele><time>2026-03-22T11:32:07Z</time></trkpt><trkpt lat="48.4106588359042" lon="-4.086766894207993"><ele>83.0</ele><time>2026-03-22T11:32:08Z</time></trkpt><trkpt lat="48.41070105572535" lon="-4.0869026328414435"><ele>83.0</ele><time>2026-03-22T11:32:09Z</time></trkpt><trkpt lat="48.410743728148965" lon="-4.0870395946287825"><ele>83.25</ele><time>2026-03-22T11:32:10Z</time></trkpt><trkpt lat="48.41078039581362" lon="-4.087202630049417"><ele>83.5</ele><time>2026-03-22T11:32:11Z</time></trkpt><trkpt lat="48.41082738998438" lon="-4.087354726766554"><ele>83.75</ele><time>2026-03-22T11:32:12Z</time></trkpt><trkpt lat="48.41087516554477" lon="-4.087518386930741"><ele>84.0</ele><time>2026-03-22T11:32:13Z</time></trkpt><trkpt lat="48.41092777546833" lon="-4.08769229992323"><ele>83.6</ele><time>2026-03-22T11:32:14Z</time></trkpt><trkpt lat="48.41097670295877" lon="-4.087847963041858"><ele>83.2</ele><time>2026-03-22T11:32:15Z</time></trkpt><trkpt lat="48.41101654404993" lon="-4.087999722443587"><ele>82.8</ele><time>2026-03-22T11:32:16Z</time></trkpt><trkpt lat="48.41106787228839" lon="-4.088132287059263"><ele>82.39999999999999</ele><time>2026-03-22T11:32:17Z</time></trkpt><trkpt lat="48.41110571345989" lon="-4.088270354363322"><ele>82.0</ele><time>2026-03-22T11:32:18Z</time></trkpt><trkpt lat="48.41112310786927" lon="-4.088434434515654"><ele>81.8</ele><time>2026-03-22T11:32:19Z</time></trkpt><trkpt lat="48.411123107869614" lon="-4.088559662923991"><ele>81.6</ele><time>2026-03-22T11:32:20Z</time></trkpt><trkpt lat="48.41122822358682" lon="-4.088707270096254"><ele>81.39999999999999</ele><time>2026-03-22T11:32:22Z</time></trkpt><trkpt lat="48.41128757442257" lon="-4.0888213856227775"><ele>81.19999999999999</ele><time>2026-03-22T11:32:24Z</time></trkpt><trkpt lat="48.411301279851074" lon="-4.08894647492216"><ele>81.0</ele><time>2026-03-22T11:32:26Z</time></trkpt><trkpt lat="48.41135347139519" lon="-4.088802724413701"><ele>81.0</ele><time>2026-03-22T11:35:03.999Z</time></trkpt></trkseg></trk></gpx>